<?xml version='1.0' encoding='UTF-8'?><gpx version="1.1" creator="JPX - https://github.com/jenetics/jpx" xmlns="http://www.topografix.com/GPX/1/1"><trk><trkseg><trkpt lat="43.475062455548475" lon="11.591688788986465"><ele>262.0</ele><time>2026-05-03T06:25:27.596Z</time></trkpt><trkpt lat="43.475070428519565" lon="11.591598726950014"><ele>262.0</ele><time>2026-05-03T06:25:34.99Z</time></trkpt><trkpt lat="43.47503102527572" lon="11.591679175144977"><ele>262.0</ele><time>2026-05-03T06:26:17.999Z</time></trkpt><trkpt lat="43.47498656743303" lon="11.591750426447327"><ele>262.0</ele><time>2026-05-03T06:26:24.999Z</time></trkpt><trkpt lat="43.474992586968895" lon="11.591867169739206"><ele>262.0</ele><time>2026-05-03T06:33:34.998Z</time></trkpt><trkpt lat="43.47503156839567" lon="11.592000143819806"><ele>262.0</ele><time>2026-05-03T06:33:36.998Z</time></trkpt><trkpt lat="43.47502370474997" lon="11.592104903881369"><ele>261.8333333333333</ele><time>2026-05-03T06:33:38.998Z</time></trkpt><trkpt lat="43.474966158156214" lon="11.592154802322401"><ele>261.66666666666663</ele><time>2026-05-03T06:33:40.998Z</time></trkpt><trkpt lat="43.474880896300654" lon="11.592197515404978"><ele>261.5</ele><time>2026-05-03T06:33:42.998Z</time></trkpt><trkpt lat="43.474826238594915" lon="11.592255226336576"><ele>261.3333333333333</ele><time>2026-05-03T06:33:44.998Z</time></trkpt><trkpt lat="43.47473135384803" lon="11.59233125685325"><ele>261.1666666666667</ele><time>2026-05-03T06:33:46.998Z</time></trkpt><trkpt lat="43.47466541804248" lon="11.592362355749652"><ele>261.0</ele><time>2026-05-03T06:33:49Z</time></trkpt><trkpt lat="43.47456984250638" lon="11.592383138389721"><ele>260.8333333333333</ele><time>2026-05-03T06:33:53Z</time></trkpt><trkpt lat="43.47446291236482" lon="11.592393654778427"><ele>260.6666666666667</ele><time>2026-05-03T06:33:55Z</time></trkpt><trkpt lat="43.4743989240736" lon="11.592399680452047"><ele>260.5</ele><time>2026-05-03T06:33:56Z</time></trkpt><trkpt lat="43.47428463720602" lon="11.592381603053902"><ele>260.33333333333337</ele><time>2026-05-03T06:33:58Z</time></trkpt><trkpt lat="43.47420768826502" lon="11.592393307261323"><ele>260.1666666666667</ele><time>2026-05-03T06:34:00Z</time></trkpt><trkpt lat="43.47413197845452" lon="11.59240482298694"><ele>260.0</ele><time>2026-05-03T06:34:03Z</time></trkpt><trkpt lat="43.474139447451655" lon="11.592576908916508"><ele>260.0</ele><time>2026-05-03T06:34:04Z</time></trkpt><trkpt lat="43.47414770738346" lon="11.592688268598572"><ele>260.0</ele><time>2026-05-03T06:34:05.999Z</time></trkpt><trkpt lat="43.47413789978784" lon="11.592809293864555"><ele>260.0</ele><time>2026-05-03T06:34:07.999Z</time></trkpt><trkpt lat="43.47406692966826" lon="11.59287688161694"><ele>260.0</ele><time>2026-05-03T06:34:09.999Z</time></trkpt><trkpt lat="43.47401403377233" lon="11.592987064131176"><ele>260.0</ele><time>2026-05-03T06:34:11.999Z</time></trkpt><trkpt lat="43.4739840356061" lon="11.593109769698168"><ele>260.0</ele><time>2026-05-03T06:34:13.999Z</time></trkpt><trkpt lat="43.47394311585058" lon="11.593203138379424"><ele>259.6</ele><time>2026-05-03T06:34:15.999Z</time></trkpt><trkpt lat="43.473852926368934" lon="11.593231598388728"><ele>259.2</ele><time>2026-05-03T06:34:17.999Z</time></trkpt><trkpt lat="43.473740276599706" lon="11.5932808368564"><ele>258.8</ele><time>2026-05-03T06:34:19.999Z</time></trkpt><trkpt lat="43.4736761225374" lon="11.593305862276672"><ele>258.4</ele><time>2026-05-03T06:34:20.999Z</time></trkpt><trkpt lat="43.47355362973133" lon="11.593351834011779"><ele>258.0</ele><time>2026-05-03T06:34:22.999Z</time></trkpt><trkpt lat="43.47344445928223" lon="11.593389878442046"><ele>258.0</ele><time>2026-05-03T06:34:24.999Z</time></trkpt><trkpt lat="43.473376889555766" lon="11.59341007431906"><ele>258.0</ele><time>2026-05-03T06:34:26.999Z</time></trkpt><trkpt lat="43.47332028062154" lon="11.593573037718608"><ele>258.0</ele><time>2026-05-03T06:34:29.999Z</time></trkpt><trkpt lat="43.473332864564625" lon="11.593747796424799"><ele>258.0</ele><time>2026-05-03T06:34:31.999Z</time></trkpt><trkpt lat="43.473344698251296" lon="11.593851906748773"><ele>258.0</ele><time>2026-05-03T06:34:32.999Z</time></trkpt><trkpt lat="43.47335642609069" lon="11.59396862815102"><ele>258.2</ele><time>2026-05-03T06:34:33.999Z</time></trkpt><trkpt lat="43.473367503184484" lon="11.594092383791414"><ele>258.4</ele><time>2026-05-03T06:34:34.999Z</time></trkpt><trkpt lat="43.47337948487621" lon="11.594220044658142"><ele>258.59999999999997</ele><time>2026-05-03T06:34:35.999Z</time></trkpt><trkpt lat="43.47339145357145" lon="11.59435570735041"><ele>258.8</ele><time>2026-05-03T06:34:36.999Z</time></trkpt><trkpt lat="43.473405100493906" lon="11.594491478136122"><ele>259.0</ele><time>2026-05-03T06:34:37.999Z</time></trkpt><trkpt lat="43.47341687145808" lon="11.594635729661777"><ele>259.2</ele><time>2026-05-03T06:34:38.999Z</time></trkpt><trkpt lat="43.4734291921719" lon="11.594782266069695"><ele>259.4</ele><time>2026-05-03T06:34:39.999Z</time></trkpt><trkpt lat="43.473441339499864" lon="11.594929691842202"><ele>259.6</ele><time>2026-05-03T06:34:40.999Z</time></trkpt><trkpt lat="43.47345491087502" lon="11.595078951108698"><ele>259.8</ele><time>2026-05-03T06:34:41.999Z</time></trkpt><trkpt lat="43.47346894978914" lon="11.595230097959716"><ele>260.0</ele><time>2026-05-03T06:34:42.999Z</time></trkpt><trkpt lat="43.47348179413454" lon="11.595383132583953"><ele>260.0</ele><time>2026-05-03T06:34:43.999Z</time></trkpt><trkpt lat="43.47349714568174" lon="11.595538961854642"><ele>260.0</ele><time>2026-05-03T06:34:44.999Z</time></trkpt><trkpt lat="43.473511410976364" lon="11.595698030670183"><ele>260.0</ele><time>2026-05-03T06:34:45.999Z</time></trkpt><trkpt lat="43.473525103746205" lon="11.59585988321411"><ele>260.0</ele><time>2026-05-03T06:34:46.999Z</time></trkpt><trkpt lat="43.47354196724748" lon="11.596018904353155"><ele>259.8</ele><time>2026-05-03T06:34:47.999Z</time></trkpt><trkpt lat="43.47355656650611" lon="11.596171766582351"><ele>259.6</ele><time>2026-05-03T06:34:48.999Z</time></trkpt><trkpt lat="43.47357392961397" lon="11.5963225574466"><ele>259.4</ele><time>2026-05-03T06:34:49.999Z</time></trkpt><trkpt lat="43.473596390018976" lon="11.596472504133246"><ele>259.2</ele><time>2026-05-03T06:34:50.999Z</time></trkpt><trkpt lat="43.47362157757343" lon="11.59662345078733"><ele>259.0</ele><time>2026-05-03T06:34:51.999Z</time></trkpt><trkpt lat="43.473652535777994" lon="11.596777059252895"><ele>259.0</ele><time>2026-05-03T06:34:52.999Z</time></trkpt><trkpt lat="43.47369066643385" lon="11.59692951670782"><ele>259.0</ele><time>2026-05-03T06:34:53.999Z</time></trkpt><trkpt lat="43.47373557481843" lon="11.597083305258016"><ele>259.0</ele><time>2026-05-03T06:34:54.999Z</time></trkpt><trkpt lat="43.473780244567834" lon="11.597242285345086"><ele>259.0</ele><time>2026-05-03T06:34:55.999Z</time></trkpt><trkpt lat="43.473828027015294" lon="11.597407008778017"><ele>258.75</ele><time>2026-05-03T06:34:56.999Z</time></trkpt><trkpt lat="43.473876841143216" lon="11.597571527920255"><ele>258.5</ele><time>2026-05-03T06:34:57.999Z</time></trkpt><trkpt lat="43.47392628694952" lon="11.597733910810522"><ele>258.25</ele><time>2026-05-03T06:34:58.999Z</time></trkpt><trkpt lat="43.47397195618405" lon="11.597901949616547"><ele>258.0</ele><time>2026-05-03T06:34:59.999Z</time></trkpt><trkpt lat="43.47401381686142" lon="11.598074694833585"><ele>257.5</ele><time>2026-05-03T06:35:00.999Z</time></trkpt><trkpt lat="43.47405486659982" lon="11.598248100876773"><ele>257.0</ele><time>2026-05-03T06:35:01.999Z</time></trkpt><trkpt lat="43.47412522601904" lon="11.598403640616315"><ele>256.5</ele><time>2026-05-03T06:35:02.999Z</time></trkpt><trkpt lat="43.47412740441016" lon="11.598598029003787"><ele>256.0</ele><time>2026-05-03T06:35:03.999Z</time></trkpt><trkpt lat="43.474155220217774" lon="11.59877661563222"><ele>256.0</ele><time>2026-05-03T06:35:04.999Z</time></trkpt><trkpt lat="43.47416786696716" lon="11.59895726668428"><ele>256.0</ele><time>2026-05-03T06:35:05.999Z</time></trkpt><trkpt lat="43.474167424575064" lon="11.59913811155023"><ele>256.0</ele><time>2026-05-03T06:35:07Z</time></trkpt><trkpt lat="43.47415261940436" lon="11.599317577386959"><ele>256.0</ele><time>2026-05-03T06:35:08Z</time></trkpt><trkpt lat="43.47413947941826" lon="11.599497864803856"><ele>256.25</ele><time>2026-05-03T06:35:09Z</time></trkpt><trkpt lat="43.474115564001224" lon="11.599676037078174"><ele>256.5</ele><time>2026-05-03T06:35:10Z</time></trkpt><trkpt lat="43.47407322159862" lon="11.599850563076515"><ele>256.75</ele><time>2026-05-03T06:35:11Z</time></trkpt><trkpt lat="43.47398744716486" lon="11.599984444786386"><ele>257.0</ele><time>2026-05-03T06:35:12Z</time></trkpt><trkpt lat="43.47389249395194" lon="11.60010557731757"><ele>257.0</ele><time>2026-05-03T06:35:13Z</time></trkpt><trkpt lat="43.473790022087286" lon="11.60022118023175"><ele>257.0</ele><time>2026-05-03T06:35:14Z</time></trkpt><trkpt lat="43.473692733153186" lon="11.600345743223306"><ele>257.0</ele><time>2026-05-03T06:35:15Z</time></trkpt><trkpt lat="43.4735837237527" lon="11.6004544090912"><ele>257.0</ele><time>2026-05-03T06:35:16Z</time></trkpt><trkpt lat="43.47347473806933" lon="11.600572563644773"><ele>256.5</ele><time>2026-05-03T06:35:17Z</time></trkpt><trkpt lat="43.47336133035197" lon="11.600691913748879"><ele>256.0</ele><time>2026-05-03T06:35:18Z</time></trkpt><trkpt lat="43.473246742457164" lon="11.600810925114379"><ele>255.5</ele><time>2026-05-03T06:35:19Z</time></trkpt><trkpt lat="43.47313136576605" lon="11.60093640132636"><ele>255.0</ele><time>2026-05-03T06:35:20Z</time></trkpt><trkpt lat="43.47301633962608" lon="11.60106213841441"><ele>254.0</ele><time>2026-05-03T06:35:21Z</time></trkpt><trkpt lat="43.472898581023635" lon="11.601189912787232"><ele>253.0</ele><time>2026-05-03T06:35:22Z</time></trkpt><trkpt lat="43.472780557874735" lon="11.601317149004881"><ele>252.0</ele><time>2026-05-03T06:35:23Z</time></trkpt><trkpt lat="43.472659835758364" lon="11.601444867478419"><ele>252.0</ele><time>2026-05-03T06:35:24Z</time></trkpt><trkpt lat="43.4725391586044" lon="11.601574733540089"><ele>252.0</ele><time>2026-05-03T06:35:25Z</time></trkpt><trkpt lat="43.47241734766378" lon="11.601704096664752"><ele>252.0</ele><time>2026-05-03T06:35:26Z</time></trkpt><trkpt lat="43.472298453273524" lon="11.601835875140399"><ele>252.0</ele><time>2026-05-03T06:35:27Z</time></trkpt><trkpt lat="43.47217675456758" lon="11.601968707217269"><ele>252.0</ele><time>2026-05-03T06:35:28Z</time></trkpt><trkpt lat="43.472055190884795" lon="11.602098207911066"><ele>252.0</ele><time>2026-05-03T06:35:29Z</time></trkpt><trkpt lat="43.471932487487145" lon="11.60222914917617"><ele>251.33333333333331</ele><time>2026-05-03T06:35:29.999Z</time></trkpt><trkpt lat="43.471811141146986" lon="11.602359160666378"><ele>250.66666666666666</ele><time>2026-05-03T06:35:30.999Z</time></trkpt><trkpt lat="43.47168770807227" lon="11.602491328049313"><ele>250.0</ele><time>2026-05-03T06:35:31.999Z</time></trkpt><trkpt lat="43.47156990106659" lon="11.602621342408145"><ele>250.0</ele><time>2026-05-03T06:35:32.999Z</time></trkpt><trkpt lat="43.471447863417694" lon="11.602752254928374"><ele>250.0</ele><time>2026-05-03T06:35:33.999Z</time></trkpt><trkpt lat="43.47132916237739" lon="11.602879391985166"><ele>250.0</ele><time>2026-05-03T06:35:34.999Z</time></trkpt><trkpt lat="43.471210276903456" lon="11.603006774581655"><ele>249.75</ele><time>2026-05-03T06:35:35.999Z</time></trkpt><trkpt lat="43.471091210691135" lon="11.60313328827807"><ele>249.5</ele><time>2026-05-03T06:35:36.999Z</time></trkpt><trkpt lat="43.47097415795625" lon="11.603257720776018"><ele>249.25</ele><time>2026-05-03T06:35:37.999Z</time></trkpt><trkpt lat="43.47085791868533" lon="11.603379531010173"><ele>249.0</ele><time>2026-05-03T06:35:38.999Z</time></trkpt><trkpt lat="43.470743124661325" lon="11.603502235632963"><ele>249.0</ele><time>2026-05-03T06:35:39.999Z</time></trkpt><trkpt lat="43.4706290122805" lon="11.603625051366262"><ele>249.0</ele><time>2026-05-03T06:35:40.999Z</time></trkpt><trkpt lat="43.47050573884802" lon="11.60373270543482"><ele>249.0</ele><time>2026-05-03T06:35:41.999Z</time></trkpt><trkpt lat="43.470408644508396" lon="11.603884258407817"><ele>249.0</ele><time>2026-05-03T06:35:42.999Z</time></trkpt><trkpt lat="43.470315879996285" lon="11.604038861946716"><ele>249.5</ele><time>2026-05-03T06:35:43.999Z</time></trkpt><trkpt lat="43.470248867264935" lon="11.604222023050093"><ele>250.0</ele><time>2026-05-03T06:35:44.999Z</time></trkpt><trkpt lat="43.4702034690249" lon="11.604415439192849"><ele>250.5</ele><time>2026-05-03T06:35:45.999Z</time></trkpt><trkpt lat="43.47017261878656" lon="11.604614966473594"><ele>251.0</ele><time>2026-05-03T06:35:46.999Z</time></trkpt><trkpt lat="43.47015051808662" lon="11.604818012380518"><ele>251.0</ele><time>2026-05-03T06:35:47.999Z</time></trkpt><trkpt lat="43.47013034528211" lon="11.60502157917252"><ele>251.0</ele><time>2026-05-03T06:35:48.999Z</time></trkpt><trkpt lat="43.470108965434434" lon="11.605228055476756"><ele>251.0</ele><time>2026-05-03T06:35:49.999Z</time></trkpt><trkpt lat="43.47008599447372" lon="11.605436323784536"><ele>250.66666666666669</ele><time>2026-05-03T06:35:50.999Z</time></trkpt><trkpt lat="43.47006116641443" lon="11.605642197707907"><ele>250.33333333333331</ele><time>2026-05-03T06:35:51.999Z</time></trkpt><trkpt lat="43.47003488318952" lon="11.605846253235825"><ele>250.0</ele><time>2026-05-03T06:35:52.999Z</time></trkpt><trkpt lat="43.47000815271349" lon="11.606049913877275"><ele>249.0</ele><time>2026-05-03T06:35:53.999Z</time></trkpt><trkpt lat="43.46998234948555" lon="11.606255682023448"><ele>248.0</ele><time>2026-05-03T06:35:55Z</time></trkpt><trkpt lat="43.46995597840764" lon="11.6064621054715"><ele>247.0</ele><time>2026-05-03T06:35:56Z</time></trkpt><trkpt lat="43.46993111799447" lon="11.60666528633209"><ele>247.0</ele><time>2026-05-03T06:35:57Z</time></trkpt><trkpt lat="43.46991539916555" lon="11.606870814675373"><ele>247.0</ele><time>2026-05-03T06:35:58Z</time></trkpt><trkpt lat="43.46992840546026" lon="11.607078775933186"><ele>247.0</ele><time>2026-05-03T06:35:59Z</time></trkpt><trkpt lat="43.46997143105036" lon="11.60727737069783"><ele>245.5</ele><time>2026-05-03T06:36:00Z</time></trkpt><trkpt lat="43.470038600939304" lon="11.607460148131326"><ele>244.0</ele><time>2026-05-03T06:36:01Z</time></trkpt><trkpt lat="43.47010825602104" lon="11.607635589666629"><ele>242.5</ele><time>2026-05-03T06:36:02Z</time></trkpt><trkpt lat="43.47015699775662" lon="11.607817391714423"><ele>241.0</ele><time>2026-05-03T06:36:03Z</time></trkpt><trkpt lat="43.470174193361665" lon="11.608017485413367"><ele>238.66666666666666</ele><time>2026-05-03T06:36:04Z</time></trkpt><trkpt lat="43.470156126709476" lon="11.608231698711364"><ele>236.33333333333331</ele><time>2026-05-03T06:36:05Z</time></trkpt><trkpt lat="43.4700962519184" lon="11.608436036805452"><ele>234.0</ele><time>2026-05-03T06:36:06Z</time></trkpt><trkpt lat="43.47006098655334" lon="11.608656169754674"><ele>233.33333333333331</ele><time>2026-05-03T06:36:07Z</time></trkpt><trkpt lat="43.470003759532055" lon="11.608871490610525"><ele>232.66666666666666</ele><time>2026-05-03T06:36:08Z</time></trkpt><trkpt lat="43.46994523088725" lon="11.609090211161995"><ele>232.0</ele><time>2026-05-03T06:36:09Z</time></trkpt><trkpt lat="43.46988810954977" lon="11.609312700928673"><ele>232.66666666666666</ele><time>2026-05-03T06:36:10Z</time></trkpt><trkpt lat="43.46983396258634" lon="11.6095368619366"><ele>233.33333333333331</ele><time>2026-05-03T06:36:11Z</time></trkpt><trkpt lat="43.46977632433337" lon="11.609758841638234"><ele>234.0</ele><time>2026-05-03T06:36:12Z</time></trkpt><trkpt lat="43.4697211578467" lon="11.609980683358577"><ele>234.0</ele><time>2026-05-03T06:36:13Z</time></trkpt><trkpt lat="43.46966730862282" lon="11.610202104960202"><ele>234.0</ele><time>2026-05-03T06:36:14Z</time></trkpt><trkpt lat="43.46961578205832" lon="11.610421151597125"><ele>234.0</ele><time>2026-05-03T06:36:15Z</time></trkpt><trkpt lat="43.46956516607532" lon="11.610640974176984"><ele>234.66666666666669</ele><time>2026-05-03T06:36:16Z</time></trkpt><trkpt lat="43.469512300782746" lon="11.610853070077706"><ele>235.33333333333334</ele><time>2026-05-03T06:36:17Z</time></trkpt><trkpt lat="43.46945894715325" lon="11.611048782118319"><ele>236.0</ele><time>2026-05-03T06:36:18Z</time></trkpt><trkpt lat="43.469407919947606" lon="11.611235032202009"><ele>236.0</ele><time>2026-05-03T06:36:19Z</time></trkpt><trkpt lat="43.46935753479973" lon="11.611419338143353"><ele>236.0</ele><time>2026-05-03T06:36:20Z</time></trkpt><trkpt lat="43.46930000980023" lon="11.61171368299851"><ele>236.0</ele><time>2026-05-03T06:36:21Z</time></trkpt><trkpt lat="43.46924768805262" lon="11.611920237945492"><ele>236.66666666666669</ele><time>2026-05-03T06:36:22Z</time></trkpt><trkpt lat="43.469196530870946" lon="11.612124049951403"><ele>237.33333333333331</ele><time>2026-05-03T06:36:23Z</time></trkpt><trkpt lat="43.469148529630985" lon="11.612321213424519"><ele>238.0</ele><time>2026-05-03T06:36:24Z</time></trkpt><trkpt lat="43.46910291678446" lon="11.612514241247487"><ele>238.0</ele><time>2026-05-03T06:36:25Z</time></trkpt><trkpt lat="43.46905936076001" lon="11.612702366661985"><ele>238.0</ele><time>2026-05-03T06:36:26Z</time></trkpt><trkpt lat="43.469017389385854" lon="11.612872481946543"><ele>238.0</ele><time>2026-05-03T06:36:27Z</time></trkpt><trkpt lat="43.4689779428812" lon="11.613026804115396"><ele>238.0</ele><time>2026-05-03T06:36:28Z</time></trkpt><trkpt lat="43.46892714090694" lon="11.613167891147748"><ele>237.2</ele><time>2026-05-03T06:36:29Z</time></trkpt><trkpt lat="43.468865636021306" lon="11.613273283274276"><ele>236.4</ele><time>2026-05-03T06:36:30Z</time></trkpt><trkpt lat="43.46879158064334" lon="11.61334566519417"><ele>235.59999999999997</ele><time>2026-05-03T06:36:31Z</time></trkpt><trkpt lat="43.4687566713411" lon="11.613435528366606"><ele>234.79999999999998</ele><time>2026-05-03T06:36:32Z</time></trkpt><trkpt lat="43.468610102212835" lon="11.613350235689582"><ele>234.0</ele><time>2026-05-03T06:36:33Z</time></trkpt><trkpt lat="43.46852066783983" lon="11.61334126957323"><ele>234.0</ele><time>2026-05-03T06:36:34Z</time></trkpt><trkpt lat="43.4684340873647" lon="11.613267104784951"><ele>234.0</ele><time>2026-05-03T06:36:35Z</time></trkpt><trkpt lat="43.46835553988918" lon="11.61314083991399"><ele>234.0</ele><time>2026-05-03T06:36:36Z</time></trkpt><trkpt lat="43.468252164011766" lon="11.613034002350968"><ele>234.0</ele><time>2026-05-03T06:36:37Z</time></trkpt><trkpt lat="43.46814174042704" lon="11.612917921418262"><ele>234.0</ele><time>2026-05-03T06:36:38Z</time></trkpt><trkpt lat="43.46802215108401" lon="11.6128200709681"><ele>234.0</ele><time>2026-05-03T06:36:39Z</time></trkpt><trkpt lat="43.46789919472389" lon="11.61271956961785"><ele>234.0</ele><time>2026-05-03T06:36:40Z</time></trkpt><trkpt lat="43.4677700072939" lon="11.612620933857643"><ele>234.0</ele><time>2026-05-03T06:36:41Z</time></trkpt><trkpt lat="43.467635158869044" lon="11.612533662762038"><ele>234.0</ele><time>2026-05-03T06:36:42Z</time></trkpt><trkpt lat="43.4674852919149" lon="11.612467341271454"><ele>234.0</ele><time>2026-05-03T06:36:43Z</time></trkpt><trkpt lat="43.46733129118875" lon="11.61242187948931"><ele>234.0</ele><time>2026-05-03T06:36:44Z</time></trkpt><trkpt lat="43.467170644887425" lon="11.612393603147737"><ele>233.66666666666669</ele><time>2026-05-03T06:36:45Z</time></trkpt><trkpt lat="43.46700671796243" lon="11.612383178120005"><ele>233.33333333333334</ele><time>2026-05-03T06:36:46Z</time></trkpt><trkpt lat="43.466840049600776" lon="11.612392730876271"><ele>233.0</ele><time>2026-05-03T06:36:47Z</time></trkpt><trkpt lat="43.46667167691874" lon="11.612420040549058"><ele>233.0</ele><time>2026-05-03T06:36:48Z</time></trkpt><trkpt lat="43.466502916698886" lon="11.61245750972052"><ele>233.0</ele><time>2026-05-03T06:36:49Z</time></trkpt><trkpt lat="43.46633065159777" lon="11.612501102918424"><ele>233.0</ele><time>2026-05-03T06:36:50Z</time></trkpt><trkpt lat="43.46616579390994" lon="11.612543785818598"><ele>233.66666666666669</ele><time>2026-05-03T06:36:51Z</time></trkpt><trkpt lat="43.46600087524595" lon="11.612586809246636"><ele>234.33333333333331</ele><time>2026-05-03T06:36:52Z</time></trkpt><trkpt lat="43.46583135509357" lon="11.612631791767345"><ele>235.0</ele><time>2026-05-03T06:36:53Z</time></trkpt><trkpt lat="43.46566366345165" lon="11.612666725171167"><ele>235.0</ele><time>2026-05-03T06:36:54Z</time></trkpt><trkpt lat="43.46549198838101" lon="11.612712616848272"><ele>235.0</ele><time>2026-05-03T06:36:55Z</time></trkpt><trkpt lat="43.46531817455844" lon="11.61275957198213"><ele>235.0</ele><time>2026-05-03T06:36:56Z</time></trkpt><trkpt lat="43.46514292306013" lon="11.612807742837377"><ele>235.0</ele><time>2026-05-03T06:36:57Z</time></trkpt><trkpt lat="43.46496806597451" lon="11.612851142374135"><ele>235.0</ele><time>2026-05-03T06:36:58Z</time></trkpt><trkpt lat="43.46479062296824" lon="11.612896017551456"><ele>235.0</ele><time>2026-05-03T06:36:59Z</time></trkpt><trkpt lat="43.46461273741249" lon="11.612939956118748"><ele>233.33333333333331</ele><time>2026-05-03T06:37:00Z</time></trkpt><trkpt lat="43.46443092726552" lon="11.612985987874545"><ele>231.66666666666669</ele><time>2026-05-03T06:37:01Z</time></trkpt><trkpt lat="43.46425044204857" lon="11.613031018089254"><ele>230.0</ele><time>2026-05-03T06:37:02Z</time></trkpt><trkpt lat="43.46406802783758" lon="11.613076944782929"><ele>230.0</ele><time>2026-05-03T06:37:03Z</time></trkpt><trkpt lat="43.463887377813485" lon="11.613121712874408"><ele>230.0</ele><time>2026-05-03T06:37:04Z</time></trkpt><trkpt lat="43.46370435123093" lon="11.61316764463156"><ele>230.0</ele><time>2026-05-03T06:37:05Z</time></trkpt><trkpt lat="43.463523714167145" lon="11.61321493097893"><ele>228.33333333333334</ele><time>2026-05-03T06:37:06Z</time></trkpt><trkpt lat="43.46334354222974" lon="11.61326303624009"><ele>226.66666666666669</ele><time>2026-05-03T06:37:07Z</time></trkpt><trkpt lat="43.46316087384701" lon="11.613314622270275"><ele>225.0</ele><time>2026-05-03T06:37:08Z</time></trkpt><trkpt lat="43.46298014615504" lon="11.6133593465"><ele>223.66666666666669</ele><time>2026-05-03T06:37:09Z</time></trkpt><trkpt lat="43.46279998707577" lon="11.613405709373334"><ele>222.33333333333334</ele><time>2026-05-03T06:37:10Z</time></trkpt><trkpt lat="43.462622577236225" lon="11.613452232625724"><ele>221.0</ele><time>2026-05-03T06:37:11Z</time></trkpt><trkpt lat="43.46228175915243" lon="11.613586476990585"><ele>221.0</ele><time>2026-05-03T06:37:13Z</time></trkpt><trkpt lat="43.46212487624843" lon="11.613685409889143"><ele>221.0</ele><time>2026-05-03T06:37:14Z</time></trkpt><trkpt lat="43.46198411238182" lon="11.613810018425529"><ele>221.0</ele><time>2026-05-03T06:37:15Z</time></trkpt><trkpt lat="43.461848300163" lon="11.613939646839716"><ele>221.5</ele><time>2026-05-03T06:37:16Z</time></trkpt><trkpt lat="43.46171696451264" lon="11.614061310932874"><ele>222.0</ele><time>2026-05-03T06:37:17Z</time></trkpt><trkpt lat="43.46159432662303" lon="11.614170670467415"><ele>222.5</ele><time>2026-05-03T06:37:18Z</time></trkpt><trkpt lat="43.46146293150058" lon="11.61421634142869"><ele>223.0</ele><time>2026-05-03T06:37:19Z</time></trkpt><trkpt lat="43.46133638598672" lon="11.614223970501756"><ele>224.75</ele><time>2026-05-03T06:37:20Z</time></trkpt><trkpt lat="43.46121189917226" lon="11.614186880277176"><ele>226.5</ele><time>2026-05-03T06:37:21Z</time></trkpt><trkpt lat="43.46108522033115" lon="11.614085134624098"><ele>228.25</ele><time>2026-05-03T06:37:22Z</time></trkpt><trkpt lat="43.4609550398499" lon="11.613973994696947"><ele>230.0</ele><time>2026-05-03T06:37:23Z</time></trkpt><trkpt lat="43.46081837535399" lon="11.613874461508438"><ele>230.0</ele><time>2026-05-03T06:37:24Z</time></trkpt><trkpt lat="43.46067593185354" lon="11.613779559270524"><ele>230.0</ele><time>2026-05-03T06:37:25Z</time></trkpt><trkpt lat="43.460530715423175" lon="11.613681645001261"><ele>230.0</ele><time>2026-05-03T06:37:26Z</time></trkpt><trkpt lat="43.46039013562295" lon="11.613568781047745"><ele>230.33333333333334</ele><time>2026-05-03T06:37:27Z</time></trkpt><trkpt lat="43.4602813086091" lon="11.613405567492249"><ele>230.66666666666669</ele><time>2026-05-03T06:37:28Z</time></trkpt><trkpt lat="43.460193585664626" lon="11.613229848437257"><ele>231.0</ele><time>2026-05-03T06:37:29Z</time></trkpt><trkpt lat="43.46010099706815" lon="11.613048703165195"><ele>231.0</ele><time>2026-05-03T06:37:30Z</time></trkpt><trkpt lat="43.46002216137572" lon="11.612854614343837"><ele>231.0</ele><time>2026-05-03T06:37:30.999Z</time></trkpt><trkpt lat="43.45992120854864" lon="11.612675313633895"><ele>231.0</ele><time>2026-05-03T06:37:31.999Z</time></trkpt><trkpt lat="43.45979216175148" lon="11.61253179039839"><ele>230.0</ele><time>2026-05-03T06:37:32.999Z</time></trkpt><trkpt lat="43.45963603562328" lon="11.612437800856009"><ele>229.0</ele><time>2026-05-03T06:37:33.999Z</time></trkpt><trkpt lat="43.45946423951857" lon="11.612390309429651"><ele>228.0</ele><time>2026-05-03T06:37:34.999Z</time></trkpt><trkpt lat="43.45928421585178" lon="11.612397308428635"><ele>228.0</ele><time>2026-05-03T06:37:35.999Z</time></trkpt><trkpt lat="43.459107538341456" lon="11.612432585088202"><ele>228.0</ele><time>2026-05-03T06:37:36.999Z</time></trkpt><trkpt lat="43.45893507882902" lon="11.612512582365557"><ele>228.0</ele><time>2026-05-03T06:37:37.999Z</time></trkpt><trkpt lat="43.458766129199184" lon="11.612612269168475"><ele>227.0</ele><time>2026-05-03T06:37:38.999Z</time></trkpt><trkpt lat="43.45860324534821" lon="11.612730510614876"><ele>226.0</ele><time>2026-05-03T06:37:39.999Z</time></trkpt><trkpt lat="43.458442360644526" lon="11.612867580366595"><ele>225.0</ele><time>2026-05-03T06:37:40.999Z</time></trkpt><trkpt lat="43.45828358875709" lon="11.613009266987861"><ele>225.0</ele><time>2026-05-03T06:37:41.999Z</time></trkpt><trkpt lat="43.458127836507735" lon="11.613154169263558"><ele>225.0</ele><time>2026-05-03T06:37:42.999Z</time></trkpt><trkpt lat="43.45797451574723" lon="11.61330959498636"><ele>225.0</ele><time>2026-05-03T06:37:43.999Z</time></trkpt><trkpt lat="43.45782815156792" lon="11.613474013101033"><ele>227.0</ele><time>2026-05-03T06:37:44.999Z</time></trkpt><trkpt lat="43.457699140913746" lon="11.613660400945722"><ele>229.0</ele><time>2026-05-03T06:37:45.999Z</time></trkpt><trkpt lat="43.457592180409456" lon="11.613866807194846"><ele>231.0</ele><time>2026-05-03T06:37:46.999Z</time></trkpt><trkpt lat="43.457496673364176" lon="11.614077355772633"><ele>231.0</ele><time>2026-05-03T06:37:47.999Z</time></trkpt><trkpt lat="43.45740017862315" lon="11.614279035634357"><ele>231.0</ele><time>2026-05-03T06:37:48.999Z</time></trkpt><trkpt lat="43.457299792922264" lon="11.614480614240637"><ele>231.0</ele><time>2026-05-03T06:37:49.999Z</time></trkpt><trkpt lat="43.45718539423302" lon="11.614668628546674"><ele>230.66666666666669</ele><time>2026-05-03T06:37:50.999Z</time></trkpt><trkpt lat="43.457046788146485" lon="11.614825373196798"><ele>230.33333333333334</ele><time>2026-05-03T06:37:51.999Z</time></trkpt><trkpt lat="43.456910948984635" lon="11.614988438314466"><ele>230.0</ele><time>2026-05-03T06:37:52.999Z</time></trkpt><trkpt lat="43.456769403412714" lon="11.61513523446952"><ele>230.0</ele><time>2026-05-03T06:37:53.999Z</time></trkpt><trkpt lat="43.4566187140791" lon="11.61524633422157"><ele>230.0</ele><time>2026-05-03T06:37:54.999Z</time></trkpt><trkpt lat="43.45645795295632" lon="11.615327209451394"><ele>230.0</ele><time>2026-05-03T06:37:55.999Z</time></trkpt><trkpt lat="43.456286537991744" lon="11.615388953307596"><ele>231.0</ele><time>2026-05-03T06:37:56.999Z</time></trkpt><trkpt lat="43.456113590487845" lon="11.61546657008513"><ele>232.0</ele><time>2026-05-03T06:37:57.999Z</time></trkpt><trkpt lat="43.45593558141888" lon="11.61551962621386"><ele>233.0</ele><time>2026-05-03T06:37:58.999Z</time></trkpt><trkpt lat="43.45574971566484" lon="11.615581455816358"><ele>233.0</ele><time>2026-05-03T06:37:59.999Z</time></trkpt><trkpt lat="43.455565055845994" lon="11.615645880341988"><ele>233.0</ele><time>2026-05-03T06:38:01Z</time></trkpt><trkpt lat="43.4553801886648" lon="11.61570999268681"><ele>233.0</ele><time>2026-05-03T06:38:02Z</time></trkpt><trkpt lat="43.455190516902455" lon="11.615714424832627"><ele>232.0</ele><time>2026-05-03T06:38:03Z</time></trkpt><trkpt lat="43.45501549791186" lon="11.615688828681112"><ele>231.0</ele><time>2026-05-03T06:38:04Z</time></trkpt><trkpt lat="43.45485321438952" lon="11.615613667925134"><ele>230.0</ele><time>2026-05-03T06:38:05Z</time></trkpt><trkpt lat="43.45470685096014" lon="11.615500542931551"><ele>230.0</ele><time>2026-05-03T06:38:06Z</time></trkpt><trkpt lat="43.454580256324846" lon="11.615362030441748"><ele>230.0</ele><time>2026-05-03T06:38:07Z</time></trkpt><trkpt lat="43.4544822813184" lon="11.615191785185772"><ele>230.0</ele><time>2026-05-03T06:38:08Z</time></trkpt><trkpt lat="43.45438340624684" lon="11.615015904316229"><ele>230.0</ele><time>2026-05-03T06:38:09Z</time></trkpt><trkpt lat="43.454308038073144" lon="11.61482033098088"><ele>230.0</ele><time>2026-05-03T06:38:10Z</time></trkpt><trkpt lat="43.4542122081361" lon="11.614648168029813"><ele>230.0</ele><time>2026-05-03T06:38:11Z</time></trkpt><trkpt lat="43.45408590742231" lon="11.6145207128698"><ele>230.0</ele><time>2026-05-03T06:38:12Z</time></trkpt><trkpt lat="43.45393372372148" lon="11.614440345411664"><ele>230.0</ele><time>2026-05-03T06:38:13Z</time></trkpt><trkpt lat="43.45376874017662" lon="11.61439304062557"><ele>230.0</ele><time>2026-05-03T06:38:14Z</time></trkpt><trkpt lat="43.45360149351649" lon="11.614345960122638"><ele>230.0</ele><time>2026-05-03T06:38:15Z</time></trkpt><trkpt lat="43.45343805641819" lon="11.614301659478407"><ele>230.0</ele><time>2026-05-03T06:38:16Z</time></trkpt><trkpt lat="43.45326886848002" lon="11.614290901851017"><ele>230.0</ele><time>2026-05-03T06:38:17Z</time></trkpt><trkpt lat="43.453098919239025" lon="11.614335186222855"><ele>229.66666666666669</ele><time>2026-05-03T06:38:18Z</time></trkpt><trkpt lat="43.45293577316473" lon="11.614418790689172"><ele>229.33333333333331</ele><time>2026-05-03T06:38:19Z</time></trkpt><trkpt lat="43.45277295755723" lon="11.614511461397466"><ele>229.0</ele><time>2026-05-03T06:38:20Z</time></trkpt><trkpt lat="43.45260721300372" lon="11.61460278579287"><ele>229.66666666666666</ele><time>2026-05-03T06:38:21Z</time></trkpt><trkpt lat="43.452438237833505" lon="11.61469268908604"><ele>230.33333333333331</ele><time>2026-05-03T06:38:22Z</time></trkpt><trkpt lat="43.45226529728427" lon="11.614783500725467"><ele>231.0</ele><time>2026-05-03T06:38:23Z</time></trkpt><trkpt lat="43.452092858370705" lon="11.614872644815707"><ele>231.0</ele><time>2026-05-03T06:38:24Z</time></trkpt><trkpt lat="43.4519188443184" lon="11.614961225902217"><ele>231.0</ele><time>2026-05-03T06:38:25Z</time></trkpt><trkpt lat="43.45174250092469" lon="11.615050207725854"><ele>231.0</ele><time>2026-05-03T06:38:26Z</time></trkpt><trkpt lat="43.45156782300824" lon="11.615142520167042"><ele>231.0</ele><time>2026-05-03T06:38:27Z</time></trkpt><trkpt lat="43.45139235137592" lon="11.615236027904325"><ele>231.0</ele><time>2026-05-03T06:38:28Z</time></trkpt><trkpt lat="43.451208375634096" lon="11.615306173321773"><ele>231.0</ele><time>2026-05-03T06:38:29Z</time></trkpt><trkpt lat="43.45103806171474" lon="11.615417892220211"><ele>232.33333333333331</ele><time>2026-05-03T06:38:30Z</time></trkpt><trkpt lat="43.4508613230174" lon="11.615504086466046"><ele>233.66666666666666</ele><time>2026-05-03T06:38:31Z</time></trkpt><trkpt lat="43.45068574594622" lon="11.615591018392251"><ele>235.0</ele><time>2026-05-03T06:38:32Z</time></trkpt><trkpt lat="43.45051262575908" lon="11.615678655103133"><ele>234.0</ele><time>2026-05-03T06:38:33Z</time></trkpt><trkpt lat="43.45033978477983" lon="11.615766561701728"><ele>233.0</ele><time>2026-05-03T06:38:34Z</time></trkpt><trkpt lat="43.4501675245623" lon="11.615856147945244"><ele>232.0</ele><time>2026-05-03T06:38:35Z</time></trkpt><trkpt lat="43.449993835482985" lon="11.615945527521912"><ele>232.0</ele><time>2026-05-03T06:38:36Z</time></trkpt><trkpt lat="43.449818578627415" lon="11.61603310909577"><ele>232.0</ele><time>2026-05-03T06:38:37Z</time></trkpt><trkpt lat="43.449645583464964" lon="11.616121165768307"><ele>232.0</ele><time>2026-05-03T06:38:38Z</time></trkpt><trkpt lat="43.44947172251375" lon="11.61621073803046"><ele>233.0</ele><time>2026-05-03T06:38:39Z</time></trkpt><trkpt lat="43.44929720137286" lon="11.616298366351835"><ele>234.0</ele><time>2026-05-03T06:38:40Z</time></trkpt><trkpt lat="43.44912472015041" lon="11.61638470593732"><ele>235.0</ele><time>2026-05-03T06:38:41Z</time></trkpt><trkpt lat="43.448953408742966" lon="11.616482619525353"><ele>234.0</ele><time>2026-05-03T06:38:42Z</time></trkpt><trkpt lat="43.448787619531096" lon="11.616600287321653"><ele>233.0</ele><time>2026-05-03T06:38:43Z</time></trkpt><trkpt lat="43.44862748439623" lon="11.616739862545113"><ele>232.0</ele><time>2026-05-03T06:38:44Z</time></trkpt><trkpt lat="43.448472105410275" lon="11.616892449677172"><ele>233.33333333333331</ele><time>2026-05-03T06:38:45Z</time></trkpt><trkpt lat="43.448318643375956" lon="11.617049347326098"><ele>234.66666666666669</ele><time>2026-05-03T06:38:46Z</time></trkpt><trkpt lat="43.44816579100959" lon="11.617208094315394"><ele>236.0</ele><time>2026-05-03T06:38:47Z</time></trkpt><trkpt lat="43.4480110841729" lon="11.617365385518037"><ele>235.66666666666669</ele><time>2026-05-03T06:38:48Z</time></trkpt><trkpt lat="43.447855238929286" lon="11.617519765031851"><ele>235.33333333333331</ele><time>2026-05-03T06:38:49Z</time></trkpt><trkpt lat="43.447701893209064" lon="11.617667926191489"><ele>235.0</ele><time>2026-05-03T06:38:50Z</time></trkpt><trkpt lat="43.447547831028885" lon="11.617819909579637"><ele>235.66666666666666</ele><time>2026-05-03T06:38:51Z</time></trkpt><trkpt lat="43.44739687272847" lon="11.617969371967185"><ele>236.33333333333331</ele><time>2026-05-03T06:38:52Z</time></trkpt><trkpt lat="43.44724636523512" lon="11.618120275903701"><ele>237.0</ele><time>2026-05-03T06:38:53Z</time></trkpt><trkpt lat="43.4470997463545" lon="11.618268550776598"><ele>237.33333333333331</ele><time>2026-05-03T06:38:54Z</time></trkpt><trkpt lat="43.446956469765716" lon="11.618413663164556"><ele>237.66666666666666</ele><time>2026-05-03T06:38:55Z</time></trkpt><trkpt lat="43.44681521474719" lon="11.618555132692935"><ele>238.0</ele><time>2026-05-03T06:38:56Z</time></trkpt><trkpt lat="43.44667402237169" lon="11.618694799439073"><ele>238.66666666666666</ele><time>2026-05-03T06:38:57Z</time></trkpt><trkpt lat="43.4465339104084" lon="11.61883101267437"><ele>239.33333333333331</ele><time>2026-05-03T06:38:58Z</time></trkpt><trkpt lat="43.446397062339166" lon="11.618967522938354"><ele>240.0</ele><time>2026-05-03T06:38:59Z</time></trkpt><trkpt lat="43.446258807597836" lon="11.61910331609228"><ele>240.0</ele><time>2026-05-03T06:39:00Z</time></trkpt><trkpt lat="43.446122902968575" lon="11.619235637501829"><ele>240.0</ele><time>2026-05-03T06:39:01Z</time></trkpt><trkpt lat="43.44598599052361" lon="11.619371026437092"><ele>240.0</ele><time>2026-05-03T06:39:02Z</time></trkpt><trkpt lat="43.445848695178796" lon="11.619506984679308"><ele>241.0</ele><time>2026-05-03T06:39:03Z</time></trkpt><trkpt lat="43.44571281096815" lon="11.61964278368468"><ele>242.0</ele><time>2026-05-03T06:39:04Z</time></trkpt><trkpt lat="43.44557699665117" lon="11.619778056068721"><ele>243.0</ele><time>2026-05-03T06:39:05Z</time></trkpt><trkpt lat="43.44544093606615" lon="11.619914585265397"><ele>243.0</ele><time>2026-05-03T06:39:06Z</time></trkpt><trkpt lat="43.44530523333237" lon="11.620050529675238"><ele>243.0</ele><time>2026-05-03T06:39:07Z</time></trkpt><trkpt lat="43.44517125988906" lon="11.620183784359778"><ele>243.0</ele><time>2026-05-03T06:39:08Z</time></trkpt><trkpt lat="43.4450391365155" lon="11.620319647964287"><ele>244.33333333333331</ele><time>2026-05-03T06:39:09Z</time></trkpt><trkpt lat="43.44490824389164" lon="11.620452781090036"><ele>245.66666666666666</ele><time>2026-05-03T06:39:10Z</time></trkpt><trkpt lat="43.444781467953234" lon="11.62057976638265"><ele>247.0</ele><time>2026-05-03T06:39:11Z</time></trkpt><trkpt lat="43.44466073062975" lon="11.620704142838363"><ele>245.0</ele><time>2026-05-03T06:39:12Z</time></trkpt><trkpt lat="43.44454426986981" lon="11.620823521171296"><ele>243.0</ele><time>2026-05-03T06:39:13Z</time></trkpt><trkpt lat="43.44443003346398" lon="11.62093721325714"><ele>241.0</ele><time>2026-05-03T06:39:14Z</time></trkpt><trkpt lat="43.444319297079645" lon="11.621050226545485"><ele>239.0</ele><time>2026-05-03T06:39:15Z</time></trkpt><trkpt lat="43.44421174849958" lon="11.621162036415278"><ele>238.75</ele><time>2026-05-03T06:39:16Z</time></trkpt><trkpt lat="43.44410578771364" lon="11.621272535130704"><ele>238.5</ele><time>2026-05-03T06:39:17Z</time></trkpt><trkpt lat="43.4440024680725" lon="11.62138202496313"><ele>238.25</ele><time>2026-05-03T06:39:18Z</time></trkpt><trkpt lat="43.443901946222766" lon="11.621488851219112"><ele>238.0</ele><time>2026-05-03T06:39:19Z</time></trkpt><trkpt lat="43.44380219121805" lon="11.621592492162666"><ele>236.75</ele><time>2026-05-03T06:39:20Z</time></trkpt><trkpt lat="43.44370742332423" lon="11.621689580907532"><ele>235.5</ele><time>2026-05-03T06:39:21Z</time></trkpt><trkpt lat="43.44361259178115" lon="11.621785586296511"><ele>234.25</ele><time>2026-05-03T06:39:22Z</time></trkpt><trkpt lat="43.44351831438403" lon="11.62187799727038"><ele>233.0</ele><time>2026-05-03T06:39:23Z</time></trkpt><trkpt lat="43.44342047719741" lon="11.62196007708683"><ele>232.75</ele><time>2026-05-03T06:39:24Z</time></trkpt><trkpt lat="43.44331480545707" lon="11.62202930725567"><ele>232.5</ele><time>2026-05-03T06:39:25Z</time></trkpt><trkpt lat="43.44320304258942" lon="11.622081726134697"><ele>232.25</ele><time>2026-05-03T06:39:25.999Z</time></trkpt><trkpt lat="43.44308257798915" lon="11.622091818404282"><ele>232.0</ele><time>2026-05-03T06:39:26.999Z</time></trkpt><trkpt lat="43.44296234148641" lon="11.62213721587717"><ele>232.0</ele><time>2026-05-03T06:39:27.999Z</time></trkpt><trkpt lat="43.44283574486614" lon="11.622158657484357"><ele>232.0</ele><time>2026-05-03T06:39:28.999Z</time></trkpt><trkpt lat="43.44270721507704" lon="11.62218196473962"><ele>232.0</ele><time>2026-05-03T06:39:29.999Z</time></trkpt><trkpt lat="43.44258469744972" lon="11.62218123733757"><ele>232.0</ele><time>2026-05-03T06:39:30.999Z</time></trkpt><trkpt lat="43.44247776052409" lon="11.62219961825184"><ele>232.0</ele><time>2026-05-03T06:39:31.999Z</time></trkpt><trkpt lat="43.44238792191416" lon="11.622214252385868"><ele>232.0</ele><time>2026-05-03T06:39:32.999Z</time></trkpt><trkpt lat="43.442305253415135" lon="11.622223526866588"><ele>232.0</ele><time>2026-05-03T06:39:33.999Z</time></trkpt><trkpt lat="43.44224364816455" lon="11.62225380540278"><ele>232.0</ele><time>2026-05-03T06:39:35.999Z</time></trkpt><trkpt lat="43.44228470332487" lon="11.622558969835545"><ele>231.99999999999997</ele><time>2026-05-03T06:39:36.999Z</time></trkpt><trkpt lat="43.44233946593417" lon="11.62263622947076"><ele>232.0</ele><time>2026-05-03T06:39:37.999Z</time></trkpt><trkpt lat="43.44239283403016" lon="11.622706819172596"><ele>232.0</ele><time>2026-05-03T06:39:38.999Z</time></trkpt><trkpt lat="43.44244607452845" lon="11.622785606922408"><ele>232.0</ele><time>2026-05-03T06:39:39.999Z</time></trkpt><trkpt lat="43.44250200867172" lon="11.622883543258203"><ele>231.99999999999997</ele><time>2026-05-03T06:39:40.999Z</time></trkpt><trkpt lat="43.442557677697934" lon="11.622992571868526"><ele>232.0</ele><time>2026-05-03T06:39:41.999Z</time></trkpt><trkpt lat="43.442619760630706" lon="11.623107613547868"><ele>233.0</ele><time>2026-05-03T06:39:42.999Z</time></trkpt><trkpt lat="43.44268544771474" lon="11.623234320807763"><ele>234.0</ele><time>2026-05-03T06:39:43.999Z</time></trkpt><trkpt lat="43.44275570302709" lon="11.623368104202433"><ele>235.0</ele><time>2026-05-03T06:39:44.999Z</time></trkpt><trkpt lat="43.442830214436825" lon="11.623500910642063"><ele>236.0</ele><time>2026-05-03T06:39:45.999Z</time></trkpt><trkpt lat="43.442906595284015" lon="11.62364394720712"><ele>235.5</ele><time>2026-05-03T06:39:46.999Z</time></trkpt><trkpt lat="43.44298645398489" lon="11.623792823988634"><ele>235.0</ele><time>2026-05-03T06:39:47.999Z</time></trkpt><trkpt lat="43.44306869550557" lon="11.62394669136606"><ele>234.5</ele><time>2026-05-03T06:39:48.999Z</time></trkpt><trkpt lat="43.44315602462084" lon="11.624105708287123"><ele>234.0</ele><time>2026-05-03T06:39:49.999Z</time></trkpt><trkpt lat="43.443244871014116" lon="11.624265201539039"><ele>234.0</ele><time>2026-05-03T06:39:50.999Z</time></trkpt><trkpt lat="43.44333248674179" lon="11.624429210229028"><ele>234.0</ele><time>2026-05-03T06:39:51.999Z</time></trkpt><trkpt lat="43.44341690863101" lon="11.624600981292787"><ele>234.0</ele><time>2026-05-03T06:39:52.999Z</time></trkpt><trkpt lat="43.443498884480356" lon="11.624780848011406"><ele>233.66666666666669</ele><time>2026-05-03T06:39:53.999Z</time></trkpt><trkpt lat="43.44358063506151" lon="11.624965992347292"><ele>233.33333333333334</ele><time>2026-05-03T06:39:54.999Z</time></trkpt><trkpt lat="43.443658069680694" lon="11.625156911157358"><ele>233.0</ele><time>2026-05-03T06:39:55.999Z</time></trkpt><trkpt lat="43.44373640751771" lon="11.625350626629835"><ele>233.0</ele><time>2026-05-03T06:39:56.999Z</time></trkpt><trkpt lat="43.443817942611375" lon="11.625549081528039"><ele>233.0</ele><time>2026-05-03T06:39:57.999Z</time></trkpt><trkpt lat="43.44389937873864" lon="11.625750444239879"><ele>233.0</ele><time>2026-05-03T06:39:58.999Z</time></trkpt><trkpt lat="43.44398187933335" lon="11.625951753079121"><ele>232.33333333333334</ele><time>2026-05-03T06:39:59.999Z</time></trkpt><trkpt lat="43.444061892851664" lon="11.626145417437273"><ele>231.66666666666669</ele><time>2026-05-03T06:40:00.999Z</time></trkpt><trkpt lat="43.44413936205883" lon="11.62633450010825"><ele>231.0</ele><time>2026-05-03T06:40:01.999Z</time></trkpt><trkpt lat="43.44421480892735" lon="11.62651833657166"><ele>231.0</ele><time>2026-05-03T06:40:02.999Z</time></trkpt><trkpt lat="43.44428893414503" lon="11.626694071497637"><ele>231.0</ele><time>2026-05-03T06:40:03.999Z</time></trkpt><trkpt lat="43.44441573795894" lon="11.626996062547741"><ele>231.0</ele><time>2026-05-03T06:40:04.999Z</time></trkpt><trkpt lat="43.44450489796162" lon="11.627206651011448"><ele>231.33333333333331</ele><time>2026-05-03T06:40:05.999Z</time></trkpt><trkpt lat="43.44459134866264" lon="11.627417352867578"><ele>231.66666666666666</ele><time>2026-05-03T06:40:07Z</time></trkpt><trkpt lat="43.44466502364411" lon="11.627640838802416"><ele>232.0</ele><time>2026-05-03T06:40:08Z</time></trkpt><trkpt lat="43.44469407396004" lon="11.627879835693918"><ele>235.33333333333331</ele><time>2026-05-03T06:40:09Z</time></trkpt><trkpt lat="43.44470262259493" lon="11.62811558713944"><ele>238.66666666666669</ele><time>2026-05-03T06:40:10Z</time></trkpt><trkpt lat="43.44468497094313" lon="11.628360538503602"><ele>242.0</ele><time>2026-05-03T06:40:11Z</time></trkpt><trkpt lat="43.44464117579031" lon="11.628594579949658"><ele>240.33333333333334</ele><time>2026-05-03T06:40:12Z</time></trkpt><trkpt lat="43.4445476179495" lon="11.628781909426948"><ele>238.66666666666669</ele><time>2026-05-03T06:40:13Z</time></trkpt><trkpt lat="43.44443643036915" lon="11.628953868837783"><ele>237.0</ele><time>2026-05-03T06:40:14Z</time></trkpt><trkpt lat="43.444298759792446" lon="11.629110601442157"><ele>237.0</ele><time>2026-05-03T06:40:15Z</time></trkpt><trkpt lat="43.44414543952443" lon="11.629253070207058"><ele>237.0</ele><time>2026-05-03T06:40:16Z</time></trkpt><trkpt lat="43.44398864821706" lon="11.62939960675235"><ele>237.0</ele><time>2026-05-03T06:40:17Z</time></trkpt><trkpt lat="43.44383148167565" lon="11.62954529682185"><ele>238.0</ele><time>2026-05-03T06:40:18Z</time></trkpt><trkpt lat="43.44368150669404" lon="11.629708789249458"><ele>239.0</ele><time>2026-05-03T06:40:19Z</time></trkpt><trkpt lat="43.44352305943626" lon="11.629852628407551"><ele>240.0</ele><time>2026-05-03T06:40:20Z</time></trkpt><trkpt lat="43.4433681866568" lon="11.629987122867195"><ele>240.0</ele><time>2026-05-03T06:40:21Z</time></trkpt><trkpt lat="43.44320689066515" lon="11.630137275160008"><ele>240.0</ele><time>2026-05-03T06:40:22Z</time></trkpt><trkpt lat="43.443044156952766" lon="11.63028209644022"><ele>240.0</ele><time>2026-05-03T06:40:23Z</time></trkpt><trkpt lat="43.44288239860589" lon="11.630433348208683"><ele>238.66666666666669</ele><time>2026-05-03T06:40:24Z</time></trkpt><trkpt lat="43.442723706676226" lon="11.63058325509264"><ele>237.33333333333334</ele><time>2026-05-03T06:40:25Z</time></trkpt><trkpt lat="43.44256973589935" lon="11.630742837016394"><ele>236.0</ele><time>2026-05-03T06:40:26Z</time></trkpt><trkpt lat="43.44244379976771" lon="11.630925861984643"><ele>236.0</ele><time>2026-05-03T06:40:27Z</time></trkpt><trkpt lat="43.44235698852672" lon="11.631170871577936"><ele>236.0</ele><time>2026-05-03T06:40:28Z</time></trkpt><trkpt lat="43.44227048159929" lon="11.631421641382788"><ele>236.0</ele><time>2026-05-03T06:40:29Z</time></trkpt><trkpt lat="43.4422503413917" lon="11.631669493746728"><ele>236.0</ele><time>2026-05-03T06:40:30Z</time></trkpt><trkpt lat="43.442241952805006" lon="11.631926868990282"><ele>236.0</ele><time>2026-05-03T06:40:31Z</time></trkpt><trkpt lat="43.44225409585291" lon="11.632182113943895"><ele>236.0</ele><time>2026-05-03T06:40:32Z</time></trkpt><trkpt lat="43.44229428955426" lon="11.632432354277956"><ele>236.66666666666669</ele><time>2026-05-03T06:40:33Z</time></trkpt><trkpt lat="43.44235015216465" lon="11.632679478940425"><ele>237.33333333333331</ele><time>2026-05-03T06:40:34Z</time></trkpt><trkpt lat="43.44241143318629" lon="11.632923194284785"><ele>238.0</ele><time>2026-05-03T06:40:35Z</time></trkpt><trkpt lat="43.44244497330915" lon="11.633167215574819"><ele>238.0</ele><time>2026-05-03T06:40:36Z</time></trkpt><trkpt lat="43.442414793824476" lon="11.633403584863022"><ele>238.0</ele><time>2026-05-03T06:40:37Z</time></trkpt><trkpt lat="43.442359227113855" lon="11.633632635932967"><ele>238.0</ele><time>2026-05-03T06:40:38Z</time></trkpt><trkpt lat="43.44228010872576" lon="11.633850095281081"><ele>238.33333333333331</ele><time>2026-05-03T06:40:39Z</time></trkpt><trkpt lat="43.44216950017957" lon="11.63405108806941"><ele>238.66666666666669</ele><time>2026-05-03T06:40:40Z</time></trkpt><trkpt lat="43.44203637776938" lon="11.634220057349136"><ele>239.0</ele><time>2026-05-03T06:40:41Z</time></trkpt><trkpt lat="43.441873372192376" lon="11.634326125977848"><ele>239.0</ele><time>2026-05-03T06:40:42Z</time></trkpt><trkpt lat="43.44170761675974" lon="11.634437787766242"><ele>239.0</ele><time>2026-05-03T06:40:43Z</time></trkpt><trkpt lat="43.441534921986964" lon="11.634557136553015"><ele>239.0</ele><time>2026-05-03T06:40:44Z</time></trkpt><trkpt lat="43.44136885035084" lon="11.63469923745058"><ele>241.33333333333334</ele><time>2026-05-03T06:40:45Z</time></trkpt><trkpt lat="43.44120012678167" lon="11.634838269983733"><ele>243.66666666666669</ele><time>2026-05-03T06:40:46Z</time></trkpt><trkpt lat="43.44104426993255" lon="11.63499617794364"><ele>246.0</ele><time>2026-05-03T06:40:47Z</time></trkpt><trkpt lat="43.44090373825347" lon="11.635169109396067"><ele>245.0</ele><time>2026-05-03T06:40:48Z</time></trkpt><trkpt lat="43.44075907069751" lon="11.635337211555006"><ele>244.0</ele><time>2026-05-03T06:40:49Z</time></trkpt><trkpt lat="43.44062202578177" lon="11.635522132420004"><ele>243.0</ele><time>2026-05-03T06:40:50Z</time></trkpt><trkpt lat="43.44048907700404" lon="11.635712796590004"><ele>243.0</ele><time>2026-05-03T06:40:51Z</time></trkpt><trkpt lat="43.440362961176085" lon="11.635914604772568"><ele>243.0</ele><time>2026-05-03T06:40:52Z</time></trkpt><trkpt lat="43.44023574383134" lon="11.63611418510325"><ele>243.0</ele><time>2026-05-03T06:40:53Z</time></trkpt><trkpt lat="43.44010931372175" lon="11.636313202972943"><ele>243.0</ele><time>2026-05-03T06:40:54Z</time></trkpt><trkpt lat="43.43998130562603" lon="11.636512513220074"><ele>243.0</ele><time>2026-05-03T06:40:55Z</time></trkpt><trkpt lat="43.43985219903069" lon="11.636709558325359"><ele>243.0</ele><time>2026-05-03T06:40:56Z</time></trkpt><trkpt lat="43.439723389796654" lon="11.636904781323162"><ele>244.0</ele><time>2026-05-03T06:40:57Z</time></trkpt><trkpt lat="43.43959008099352" lon="11.637094166118283"><ele>245.0</ele><time>2026-05-03T06:40:58Z</time></trkpt><trkpt lat="43.43946013354166" lon="11.637285263166714"><ele>246.0</ele><time>2026-05-03T06:40:59Z</time></trkpt><trkpt lat="43.43933259366828" lon="11.63748151264741"><ele>246.0</ele><time>2026-05-03T06:41:00Z</time></trkpt><trkpt lat="43.43921035329456" lon="11.637682565264164"><ele>246.0</ele><time>2026-05-03T06:41:01Z</time></trkpt><trkpt lat="43.43909635149401" lon="11.637894049992537"><ele>246.0</ele><time>2026-05-03T06:41:02Z</time></trkpt><trkpt lat="43.4389934002585" lon="11.638114694203686"><ele>245.0</ele><time>2026-05-03T06:41:03Z</time></trkpt><trkpt lat="43.43890290286174" lon="11.638348830783254"><ele>244.0</ele><time>2026-05-03T06:41:04Z</time></trkpt><trkpt lat="43.43882533372152" lon="11.638592169294716"><ele>243.0</ele><time>2026-05-03T06:41:05Z</time></trkpt><trkpt lat="43.4387605349605" lon="11.63884323951365"><ele>244.66666666666669</ele><time>2026-05-03T06:41:06Z</time></trkpt><trkpt lat="43.43870047376917" lon="11.639098698649487"><ele>246.33333333333334</ele><time>2026-05-03T06:41:07Z</time></trkpt><trkpt lat="43.43864207581667" lon="11.639354708343053"><ele>248.0</ele><time>2026-05-03T06:41:08Z</time></trkpt><trkpt lat="43.43857860420112" lon="11.639609334983524"><ele>248.0</ele><time>2026-05-03T06:41:09Z</time></trkpt><trkpt lat="43.43851132249117" lon="11.639863441995459"><ele>248.0</ele><time>2026-05-03T06:41:10Z</time></trkpt><trkpt lat="43.43844565134157" lon="11.640119910628187"><ele>248.0</ele><time>2026-05-03T06:41:11Z</time></trkpt><trkpt lat="43.43837839094779" lon="11.640375167676671"><ele>247.33333333333334</ele><time>2026-05-03T06:41:12Z</time></trkpt><trkpt lat="43.43831089141056" lon="11.640631688905405"><ele>246.66666666666669</ele><time>2026-05-03T06:41:13Z</time></trkpt><trkpt lat="43.43824642219226" lon="11.640889989496042"><ele>246.0</ele><time>2026-05-03T06:41:14Z</time></trkpt><trkpt lat="43.438181291288366" lon="11.641143917727025"><ele>245.66666666666669</ele><time>2026-05-03T06:41:15Z</time></trkpt><trkpt lat="43.43811864728436" lon="11.641395699449607"><ele>245.33333333333334</ele><time>2026-05-03T06:41:16Z</time></trkpt><trkpt lat="43.438055618544475" lon="11.641647446058403"><ele>245.0</ele><time>2026-05-03T06:41:17Z</time></trkpt><trkpt lat="43.437990771783205" lon="11.641894713769734"><ele>247.33333333333334</ele><time>2026-05-03T06:41:18Z</time></trkpt><trkpt lat="43.43792493139797" lon="11.642137188446716"><ele>249.66666666666669</ele><time>2026-05-03T06:41:19Z</time></trkpt><trkpt lat="43.437862787052424" lon="11.642383159234306"><ele>252.0</ele><time>2026-05-03T06:41:20Z</time></trkpt><trkpt lat="43.43780183695246" lon="11.642627018087895"><ele>251.0</ele><time>2026-05-03T06:41:21Z</time></trkpt><trkpt lat="43.43774367129703" lon="11.642870626832527"><ele>250.0</ele><time>2026-05-03T06:41:22Z</time></trkpt><trkpt lat="43.43769233737187" lon="11.64312057678878"><ele>249.0</ele><time>2026-05-03T06:41:23Z</time></trkpt><trkpt lat="43.43765288387182" lon="11.643375486734708"><ele>250.66666666666669</ele><time>2026-05-03T06:41:23.999Z</time></trkpt><trkpt lat="43.437627022860624" lon="11.643634021031495"><ele>252.33333333333334</ele><time>2026-05-03T06:41:24.999Z</time></trkpt><trkpt lat="43.43761691659605" lon="11.643892791249009"><ele>254.0</ele><time>2026-05-03T06:41:25.999Z</time></trkpt><trkpt lat="43.437629026546354" lon="11.644149841649073"><ele>254.0</ele><time>2026-05-03T06:41:26.999Z</time></trkpt><trkpt lat="43.437650076282836" lon="11.644401203242646"><ele>254.0</ele><time>2026-05-03T06:41:27.999Z</time></trkpt><trkpt lat="43.43769847587991" lon="11.64466108317612"><ele>254.0</ele><time>2026-05-03T06:41:28.999Z</time></trkpt><trkpt lat="43.437754390381635" lon="11.644913859003013"><ele>255.0</ele><time>2026-05-03T06:41:29.999Z</time></trkpt><trkpt lat="43.43780561894441" lon="11.64516886807486"><ele>256.0</ele><time>2026-05-03T06:41:30.999Z</time></trkpt><trkpt lat="43.43784523852743" lon="11.645430025085496"><ele>257.0</ele><time>2026-05-03T06:41:31.999Z</time></trkpt><trkpt lat="43.437874687856024" lon="11.645692750176401"><ele>257.0</ele><time>2026-05-03T06:41:32.999Z</time></trkpt><trkpt lat="43.43788303259263" lon="11.645961311646095"><ele>257.0</ele><time>2026-05-03T06:41:33.999Z</time></trkpt><trkpt lat="43.437867586671985" lon="11.646225475554038"><ele>257.0</ele><time>2026-05-03T06:41:34.999Z</time></trkpt><trkpt lat="43.43784230436476" lon="11.646493038631123"><ele>256.6666666666667</ele><time>2026-05-03T06:41:35.999Z</time></trkpt><trkpt lat="43.43779749548844" lon="11.646756110994424"><ele>256.3333333333333</ele><time>2026-05-03T06:41:36.999Z</time></trkpt><trkpt lat="43.43772262599906" lon="11.64700735847454"><ele>256.0</ele><time>2026-05-03T06:41:37.999Z</time></trkpt><trkpt lat="43.4376562594298" lon="11.647265483766484"><ele>256.3333333333333</ele><time>2026-05-03T06:41:38.999Z</time></trkpt><trkpt lat="43.4375633532592" lon="11.64750732769833"><ele>256.6666666666667</ele><time>2026-05-03T06:41:39.999Z</time></trkpt><trkpt lat="43.43746757918303" lon="11.647746409980499"><ele>257.0</ele><time>2026-05-03T06:41:40.999Z</time></trkpt><trkpt lat="43.437373892505526" lon="11.64798595013058"><ele>257.0</ele><time>2026-05-03T06:41:41.999Z</time></trkpt><trkpt lat="43.43728399673656" lon="11.648228424441541"><ele>257.0</ele><time>2026-05-03T06:41:42.999Z</time></trkpt><trkpt lat="43.43719348069724" lon="11.648468958476125"><ele>257.0</ele><time>2026-05-03T06:41:43.999Z</time></trkpt><trkpt lat="43.437102901268844" lon="11.648707270396201"><ele>258.6666666666667</ele><time>2026-05-03T06:41:44.999Z</time></trkpt><trkpt lat="43.437012457900785" lon="11.648938437927567"><ele>260.3333333333333</ele><time>2026-05-03T06:41:45.999Z</time></trkpt><trkpt lat="43.43692156096593" lon="11.649170849108897"><ele>262.0</ele><time>2026-05-03T06:41:46.999Z</time></trkpt><trkpt lat="43.43683423891628" lon="11.649402331681477"><ele>263.66666666666663</ele><time>2026-05-03T06:41:47.999Z</time></trkpt><trkpt lat="43.43674752808087" lon="11.649633000138069"><ele>265.3333333333333</ele><time>2026-05-03T06:41:48.999Z</time></trkpt><trkpt lat="43.436658017753516" lon="11.64986042431642"><ele>267.0</ele><time>2026-05-03T06:41:49.999Z</time></trkpt><trkpt lat="43.43657054806928" lon="11.650086159484795"><ele>268.3333333333333</ele><time>2026-05-03T06:41:50.999Z</time></trkpt><trkpt lat="43.43648630317851" lon="11.650311270875605"><ele>269.66666666666663</ele><time>2026-05-03T06:41:51.999Z</time></trkpt><trkpt lat="43.43640475427475" lon="11.650539055039227"><ele>271.0</ele><time>2026-05-03T06:41:52.999Z</time></trkpt><trkpt lat="43.43632680815863" lon="11.65076649725334"><ele>272.0</ele><time>2026-05-03T06:41:53.999Z</time></trkpt><trkpt lat="43.43625520916161" lon="11.650991493614088"><ele>273.0</ele><time>2026-05-03T06:41:54.999Z</time></trkpt><trkpt lat="43.43619323833727" lon="11.651224795813198"><ele>274.0</ele><time>2026-05-03T06:41:55.999Z</time></trkpt><trkpt lat="43.436137212641654" lon="11.651461492453274"><ele>274.0</ele><time>2026-05-03T06:41:56.999Z</time></trkpt><trkpt lat="43.43608835978571" lon="11.651693398182077"><ele>274.0</ele><time>2026-05-03T06:41:57.999Z</time></trkpt><trkpt lat="43.436040488882846" lon="11.651925829376301"><ele>274.0</ele><time>2026-05-03T06:41:58.999Z</time></trkpt><trkpt lat="43.43599087157109" lon="11.652150567352718"><ele>273.0</ele><time>2026-05-03T06:41:59.999Z</time></trkpt><trkpt lat="43.43594444321987" lon="11.652383941520723"><ele>272.0</ele><time>2026-05-03T06:42:00.999Z</time></trkpt><trkpt lat="43.43590502170237" lon="11.652624839111114"><ele>271.0</ele><time>2026-05-03T06:42:01.999Z</time></trkpt><trkpt lat="43.435872395145694" lon="11.652869262261344"><ele>270.3333333333333</ele><time>2026-05-03T06:42:02.999Z</time></trkpt><trkpt lat="43.43583639503792" lon="11.653117434124708"><ele>269.6666666666667</ele><time>2026-05-03T06:42:03.999Z</time></trkpt><trkpt lat="43.43579678643905" lon="11.653366559100446"><ele>269.0</ele><time>2026-05-03T06:42:04.999Z</time></trkpt><trkpt lat="43.43575666830072" lon="11.653619197306394"><ele>268.33333333333337</ele><time>2026-05-03T06:42:05.999Z</time></trkpt><trkpt lat="43.43571906762331" lon="11.653872798230248"><ele>267.6666666666667</ele><time>2026-05-03T06:42:06.999Z</time></trkpt><trkpt lat="43.43567903081187" lon="11.654131414086269"><ele>267.0</ele><time>2026-05-03T06:42:07.999Z</time></trkpt><trkpt lat="43.435635696387486" lon="11.654383577519452"><ele>265.0</ele><time>2026-05-03T06:42:08.999Z</time></trkpt><trkpt lat="43.43558160817375" lon="11.654638139532409"><ele>263.0</ele><time>2026-05-03T06:42:09.999Z</time></trkpt><trkpt lat="43.43552770344896" lon="11.654897850876107"><ele>261.0</ele><time>2026-05-03T06:42:10.999Z</time></trkpt><trkpt lat="43.43547241273099" lon="11.655157583128679"><ele>261.3333333333333</ele><time>2026-05-03T06:42:11.999Z</time></trkpt><trkpt lat="43.43541706861435" lon="11.655419967966083"><ele>261.66666666666663</ele><time>2026-05-03T06:42:13Z</time></trkpt><trkpt lat="43.43536163367469" lon="11.655684180289834"><ele>262.0</ele><time>2026-05-03T06:42:14Z</time></trkpt><trkpt lat="43.435305510294896" lon="11.655952225012154"><ele>260.3333333333333</ele><time>2026-05-03T06:42:15Z</time></trkpt><trkpt lat="43.435247181102554" lon="11.656221398372903"><ele>258.6666666666667</ele><time>2026-05-03T06:42:16Z</time></trkpt><trkpt lat="43.43518981073534" lon="11.656489437949904"><ele>257.0</ele><time>2026-05-03T06:42:17Z</time></trkpt><trkpt lat="43.43513018156626" lon="11.656758308557556"><ele>256.33333333333337</ele><time>2026-05-03T06:42:18Z</time></trkpt><trkpt lat="43.43507854587202" lon="11.65702641886249"><ele>255.66666666666669</ele><time>2026-05-03T06:42:19Z</time></trkpt><trkpt lat="43.435041313667114" lon="11.657299706660895"><ele>255.0</ele><time>2026-05-03T06:42:20Z</time></trkpt><trkpt lat="43.43503779908947" lon="11.657575532902568"><ele>254.33333333333331</ele><time>2026-05-03T06:42:21Z</time></trkpt><trkpt lat="43.4350682544994" lon="11.65784236124246"><ele>253.66666666666666</ele><time>2026-05-03T06:42:22Z</time></trkpt><trkpt lat="43.435131073217846" lon="11.658095787611774"><ele>253.0</ele><time>2026-05-03T06:42:23Z</time></trkpt><trkpt lat="43.43522212735993" lon="11.658329099790791"><ele>253.0</ele><time>2026-05-03T06:42:24Z</time></trkpt><trkpt lat="43.435335775157974" lon="11.6585352117061"><ele>253.0</ele><time>2026-05-03T06:42:25Z</time></trkpt><trkpt lat="43.43545822330937" lon="11.658708750377865"><ele>253.0</ele><time>2026-05-03T06:42:26Z</time></trkpt><trkpt lat="43.43558171267394" lon="11.658849335742715"><ele>253.25</ele><time>2026-05-03T06:42:27Z</time></trkpt><trkpt lat="43.43570538183657" lon="11.658963062407421"><ele>253.5</ele><time>2026-05-03T06:42:28Z</time></trkpt><trkpt lat="43.43583760728024" lon="11.659054386648574"><ele>253.75</ele><time>2026-05-03T06:42:29Z</time></trkpt><trkpt lat="43.435961806073585" lon="11.65913181301685"><ele>254.0</ele><time>2026-05-03T06:42:30Z</time></trkpt><trkpt lat="43.43606819816587" lon="11.659200063434527"><ele>254.0</ele><time>2026-05-03T06:42:31Z</time></trkpt><trkpt lat="43.43614342992125" lon="11.659281807230812"><ele>253.99999999999997</ele><time>2026-05-03T06:42:32Z</time></trkpt><trkpt lat="43.43619844088108" lon="11.659342691111068"><ele>253.99999999999997</ele><time>2026-05-03T06:42:33Z</time></trkpt><trkpt lat="43.43616070048238" lon="11.659504218440714"><ele>254.0</ele><time>2026-05-03T06:42:34Z</time></trkpt><trkpt lat="43.43610317771973" lon="11.65960244115544"><ele>254.0</ele><time>2026-05-03T06:42:35Z</time></trkpt><trkpt lat="43.43599222943228" lon="11.659618153003315"><ele>253.75</ele><time>2026-05-03T06:42:36Z</time></trkpt><trkpt lat="43.43588237589488" lon="11.659666691790843"><ele>253.5</ele><time>2026-05-03T06:42:37Z</time></trkpt><trkpt lat="43.435752323127495" lon="11.659703473385772"><ele>253.25</ele><time>2026-05-03T06:42:38Z</time></trkpt><trkpt lat="43.43561766085819" lon="11.659757407248582"><ele>253.0</ele><time>2026-05-03T06:42:39Z</time></trkpt><trkpt lat="43.43548032149709" lon="11.659816959930568"><ele>253.66666666666666</ele><time>2026-05-03T06:42:40Z</time></trkpt><trkpt lat="43.43533566514187" lon="11.659873412283504"><ele>254.33333333333331</ele><time>2026-05-03T06:42:41Z</time></trkpt><trkpt lat="43.43518230659973" lon="11.659930212277997"><ele>255.0</ele><time>2026-05-03T06:42:42Z</time></trkpt><trkpt lat="43.43502445375471" lon="11.659993522724537"><ele>255.0</ele><time>2026-05-03T06:42:43Z</time></trkpt><trkpt lat="43.434858060717694" lon="11.660059883655077"><ele>255.0</ele><time>2026-05-03T06:42:44Z</time></trkpt><trkpt lat="43.43469070959779" lon="11.660127923921246"><ele>255.0</ele><time>2026-05-03T06:42:45Z</time></trkpt><trkpt lat="43.43451776384178" lon="11.660193241385784"><ele>254.66666666666669</ele><time>2026-05-03T06:42:46Z</time></trkpt><trkpt lat="43.434344292374945" lon="11.66025898325379"><ele>254.33333333333334</ele><time>2026-05-03T06:42:47Z</time></trkpt><trkpt lat="43.434169394961984" lon="11.660325792566146"><ele>254.0</ele><time>2026-05-03T06:42:48Z</time></trkpt><trkpt lat="43.43399300276857" lon="11.660396206088691"><ele>255.0</ele><time>2026-05-03T06:42:49Z</time></trkpt><trkpt lat="43.433814789880316" lon="11.660465537192628"><ele>256.0</ele><time>2026-05-03T06:42:50Z</time></trkpt><trkpt lat="43.433630963176675" lon="11.660530157733152"><ele>257.0</ele><time>2026-05-03T06:42:51Z</time></trkpt><trkpt lat="43.43344564196494" lon="11.660590117592198"><ele>257.0</ele><time>2026-05-03T06:42:52Z</time></trkpt><trkpt lat="43.433258455573764" lon="11.660651213767354"><ele>257.0</ele><time>2026-05-03T06:42:53Z</time></trkpt><trkpt lat="43.43307123005253" lon="11.660711125974283"><ele>257.0</ele><time>2026-05-03T06:42:54Z</time></trkpt><trkpt lat="43.43288048560336" lon="11.660772190363936"><ele>256.6666666666667</ele><time>2026-05-03T06:42:55Z</time></trkpt><trkpt lat="43.43269124411461" lon="11.660839241200321"><ele>256.3333333333333</ele><time>2026-05-03T06:42:56Z</time></trkpt><trkpt lat="43.43250235264746" lon="11.660904626162257"><ele>256.0</ele><time>2026-05-03T06:42:57Z</time></trkpt><trkpt lat="43.43230944392436" lon="11.66096688436536"><ele>256.3333333333333</ele><time>2026-05-03T06:42:58Z</time></trkpt><trkpt lat="43.432116794399406" lon="11.661012194507197"><ele>256.6666666666667</ele><time>2026-05-03T06:42:59Z</time></trkpt><trkpt lat="43.43191879230057" lon="11.661039191899077"><ele>257.0</ele><time>2026-05-03T06:43:00Z</time></trkpt><trkpt lat="43.431721203558844" lon="11.661058685098917"><ele>257.0</ele><time>2026-05-03T06:43:01Z</time></trkpt><trkpt lat="43.431523470321316" lon="11.661085883360439"><ele>257.0</ele><time>2026-05-03T06:43:02Z</time></trkpt><trkpt lat="43.43132001619092" lon="11.661121219718451"><ele>257.0</ele><time>2026-05-03T06:43:03Z</time></trkpt><trkpt lat="43.43112112195399" lon="11.661150640243337"><ele>257.33333333333337</ele><time>2026-05-03T06:43:04Z</time></trkpt><trkpt lat="43.43091276227966" lon="11.661158959298168"><ele>257.6666666666667</ele><time>2026-05-03T06:43:05Z</time></trkpt><trkpt lat="43.4307263203593" lon="11.661197064211013"><ele>258.0</ele><time>2026-05-03T06:43:06Z</time></trkpt><trkpt lat="43.430525133206494" lon="11.66123524545174"><ele>257.6666666666667</ele><time>2026-05-03T06:43:07Z</time></trkpt><trkpt lat="43.4303281903998" lon="11.661291642058986"><ele>257.33333333333337</ele><time>2026-05-03T06:43:08Z</time></trkpt><trkpt lat="43.430140371832614" lon="11.661380395825308"><ele>257.0</ele><time>2026-05-03T06:43:09Z</time></trkpt><trkpt lat="43.429960553278036" lon="11.66148975037697"><ele>257.0</ele><time>2026-05-03T06:43:10Z</time></trkpt><trkpt lat="43.42979132648868" lon="11.661636450859065"><ele>257.0</ele><time>2026-05-03T06:43:11Z</time></trkpt><trkpt lat="43.429632483645655" lon="11.661807038959527"><ele>257.0</ele><time>2026-05-03T06:43:12Z</time></trkpt><trkpt lat="43.42948081387348" lon="11.661975813983494"><ele>257.33333333333337</ele><time>2026-05-03T06:43:13Z</time></trkpt><trkpt lat="43.42932833632047" lon="11.662136884762214"><ele>257.6666666666667</ele><time>2026-05-03T06:43:14Z</time></trkpt><trkpt lat="43.429171773605304" lon="11.66230641471045"><ele>258.0</ele><time>2026-05-03T06:43:15Z</time></trkpt><trkpt lat="43.428998595267544" lon="11.662439089025456"><ele>258.0</ele><time>2026-05-03T06:43:16Z</time></trkpt><trkpt lat="43.428829995927856" lon="11.662559940867302"><ele>258.0</ele><time>2026-05-03T06:43:17Z</time></trkpt><trkpt lat="43.428656155606085" lon="11.66267069014229"><ele>258.0</ele><time>2026-05-03T06:43:18Z</time></trkpt><trkpt lat="43.428480222764655" lon="11.66278433028766"><ele>258.6666666666667</ele><time>2026-05-03T06:43:19Z</time></trkpt><trkpt lat="43.42830767660665" lon="11.662909853388518"><ele>259.33333333333337</ele><time>2026-05-03T06:43:19.999Z</time></trkpt><trkpt lat="43.42812850028218" lon="11.66301943695579"><ele>260.0</ele><time>2026-05-03T06:43:20.999Z</time></trkpt><trkpt lat="43.427952353269866" lon="11.663131865428156"><ele>260.33333333333337</ele><time>2026-05-03T06:43:21.999Z</time></trkpt><trkpt lat="43.427774821186766" lon="11.663241756531656"><ele>260.6666666666667</ele><time>2026-05-03T06:43:22.999Z</time></trkpt><trkpt lat="43.42759766600108" lon="11.663356889107844"><ele>261.0</ele><time>2026-05-03T06:43:23.999Z</time></trkpt><trkpt lat="43.42741656636514" lon="11.663472349185461"><ele>261.0</ele><time>2026-05-03T06:43:24.999Z</time></trkpt><trkpt lat="43.42723987314182" lon="11.66358401257886"><ele>261.0</ele><time>2026-05-03T06:43:25.999Z</time></trkpt><trkpt lat="43.427063073937326" lon="11.66369530689263"><ele>261.0</ele><time>2026-05-03T06:43:26.999Z</time></trkpt><trkpt lat="43.426889674992935" lon="11.663808397620377"><ele>262.3333333333333</ele><time>2026-05-03T06:43:27.999Z</time></trkpt><trkpt lat="43.42671457285364" lon="11.663919231447737"><ele>263.66666666666663</ele><time>2026-05-03T06:43:28.999Z</time></trkpt><trkpt lat="43.426543503551564" lon="11.664029589690324"><ele>265.0</ele><time>2026-05-03T06:43:29.999Z</time></trkpt><trkpt lat="43.42636689300368" lon="11.664129443131696"><ele>265.0</ele><time>2026-05-03T06:43:30.999Z</time></trkpt><trkpt lat="43.42618756743737" lon="11.664214691917138"><ele>265.0</ele><time>2026-05-03T06:43:31.999Z</time></trkpt><trkpt lat="43.426005359015114" lon="11.664285076678091"><ele>265.0</ele><time>2026-05-03T06:43:32.999Z</time></trkpt><trkpt lat="43.42581496134567" lon="11.66434480727883"><ele>265.0</ele><time>2026-05-03T06:43:33.999Z</time></trkpt><trkpt lat="43.425628171872965" lon="11.664409333721341"><ele>265.0</ele><time>2026-05-03T06:43:34.999Z</time></trkpt><trkpt lat="43.42543805578405" lon="11.66447426082957"><ele>265.0</ele><time>2026-05-03T06:43:35.999Z</time></trkpt><trkpt lat="43.42524949057331" lon="11.66454096588802"><ele>266.3333333333333</ele><time>2026-05-03T06:43:36.999Z</time></trkpt><trkpt lat="43.425060845107645" lon="11.664607611512041"><ele>267.6666666666667</ele><time>2026-05-03T06:43:37.999Z</time></trkpt><trkpt lat="43.42487200206505" lon="11.664672044668693"><ele>269.0</ele><time>2026-05-03T06:43:38.999Z</time></trkpt><trkpt lat="43.42468303159115" lon="11.664736662888593"><ele>268.33333333333337</ele><time>2026-05-03T06:43:39.999Z</time></trkpt><trkpt lat="43.424493392402184" lon="11.664800288357817"><ele>267.6666666666667</ele><time>2026-05-03T06:43:40.999Z</time></trkpt><trkpt lat="43.42430673438843" lon="11.664871992295367"><ele>267.0</ele><time>2026-05-03T06:43:41.999Z</time></trkpt><trkpt lat="43.4241308990913" lon="11.664978589057675"><ele>267.0</ele><time>2026-05-03T06:43:42.999Z</time></trkpt><trkpt lat="43.42397490141594" lon="11.665132548013618"><ele>267.0</ele><time>2026-05-03T06:43:43.999Z</time></trkpt><trkpt lat="43.42384341865989" lon="11.665328655188166"><ele>267.0</ele><time>2026-05-03T06:43:44.999Z</time></trkpt><trkpt lat="43.42372194828347" lon="11.665537655916111"><ele>268.3333333333333</ele><time>2026-05-03T06:43:45.999Z</time></trkpt><trkpt lat="43.423600227358286" lon="11.665747775777673"><ele>269.66666666666663</ele><time>2026-05-03T06:43:46.999Z</time></trkpt><trkpt lat="43.423476747095975" lon="11.665957418827128"><ele>271.0</ele><time>2026-05-03T06:43:47.999Z</time></trkpt><trkpt lat="43.42336276274518" lon="11.666177798861415"><ele>272.3333333333333</ele><time>2026-05-03T06:43:48.999Z</time></trkpt><trkpt lat="43.42325657888662" lon="11.666405860334619"><ele>273.6666666666667</ele><time>2026-05-03T06:43:49.999Z</time></trkpt><trkpt lat="43.42315150551994" lon="11.666635425184467"><ele>275.0</ele><time>2026-05-03T06:43:50.999Z</time></trkpt><trkpt lat="43.42304520874238" lon="11.666859230995604"><ele>274.6666666666667</ele><time>2026-05-03T06:43:51.999Z</time></trkpt><trkpt lat="43.422938626778745" lon="11.667083723348425"><ele>274.3333333333333</ele><time>2026-05-03T06:43:52.999Z</time></trkpt><trkpt lat="43.42283315855567" lon="11.667306862722183"><ele>274.0</ele><time>2026-05-03T06:43:53.999Z</time></trkpt><trkpt lat="43.42272925809506" lon="11.667528336860396"><ele>274.0</ele><time>2026-05-03T06:43:54.999Z</time></trkpt><trkpt lat="43.422626377048346" lon="11.667747785500234"><ele>274.0</ele><time>2026-05-03T06:43:55.999Z</time></trkpt><trkpt lat="43.42251907539056" lon="11.667961133229655"><ele>274.0</ele><time>2026-05-03T06:43:56.999Z</time></trkpt><trkpt lat="43.422413411488606" lon="11.668172588447543"><ele>275.66666666666663</ele><time>2026-05-03T06:43:57.999Z</time></trkpt><trkpt lat="43.42231980748655" lon="11.668390330252048"><ele>277.3333333333333</ele><time>2026-05-03T06:43:58.999Z</time></trkpt><trkpt lat="43.42224392281051" lon="11.66862157227803"><ele>279.0</ele><time>2026-05-03T06:43:59.999Z</time></trkpt><trkpt lat="43.42218324834261" lon="11.66886293371874"><ele>278.0</ele><time>2026-05-03T06:44:00.999Z</time></trkpt><trkpt lat="43.422128585955" lon="11.669112006174196"><ele>277.0</ele><time>2026-05-03T06:44:01.999Z</time></trkpt><trkpt lat="43.422083035314834" lon="11.669359290623435"><ele>276.0</ele><time>2026-05-03T06:44:02.999Z</time></trkpt><trkpt lat="43.42205897158434" lon="11.669616161182752"><ele>276.0</ele><time>2026-05-03T06:44:03.999Z</time></trkpt><trkpt lat="43.42206303998783" lon="11.669876727224787"><ele>276.0</ele><time>2026-05-03T06:44:04.999Z</time></trkpt><trkpt lat="43.42206152533471" lon="11.670135533021025"><ele>276.0</ele><time>2026-05-03T06:44:05.999Z</time></trkpt><trkpt lat="43.422009268900304" lon="11.670385612091069"><ele>276.3333333333333</ele><time>2026-05-03T06:44:06.999Z</time></trkpt><trkpt lat="43.4219454909463" lon="11.670635521327918"><ele>276.66666666666663</ele><time>2026-05-03T06:44:07.999Z</time></trkpt><trkpt lat="43.42186350592611" lon="11.670872713373027"><ele>277.0</ele><time>2026-05-03T06:44:08.999Z</time></trkpt><trkpt lat="43.421786555278246" lon="11.671121930335861"><ele>278.66666666666663</ele><time>2026-05-03T06:44:09.999Z</time></trkpt><trkpt lat="43.421695586693275" lon="11.671359256032902"><ele>280.3333333333333</ele><time>2026-05-03T06:44:10.999Z</time></trkpt><trkpt lat="43.421606978319744" lon="11.671595220885445"><ele>282.0</ele><time>2026-05-03T06:44:11.999Z</time></trkpt><trkpt lat="43.42152094482263" lon="11.671829053687356"><ele>280.3333333333333</ele><time>2026-05-03T06:44:12.999Z</time></trkpt><trkpt lat="43.42143880154489" lon="11.672062859845711"><ele>278.66666666666663</ele><time>2026-05-03T06:44:13.999Z</time></trkpt><trkpt lat="43.42135357006803" lon="11.672291363849583"><ele>277.0</ele><time>2026-05-03T06:44:14.999Z</time></trkpt><trkpt lat="43.42126939572869" lon="11.672522431760058"><ele>277.0</ele><time>2026-05-03T06:44:15.999Z</time></trkpt><trkpt lat="43.42120319008341" lon="11.67276209587911"><ele>277.0</ele><time>2026-05-03T06:44:16.999Z</time></trkpt><trkpt lat="43.421170230418895" lon="11.673013092245963"><ele>277.0</ele><time>2026-05-03T06:44:17.999Z</time></trkpt><trkpt lat="43.42117682844694" lon="11.673268774939913"><ele>278.3333333333333</ele><time>2026-05-03T06:44:19Z</time></trkpt><trkpt lat="43.42122842902534" lon="11.673527584891342"><ele>279.6666666666667</ele><time>2026-05-03T06:44:20Z</time></trkpt><trkpt lat="43.42129193053717" lon="11.673781712900743"><ele>281.0</ele><time>2026-05-03T06:44:21Z</time></trkpt><trkpt lat="43.42136066255455" lon="11.674035204771613"><ele>282.6666666666667</ele><time>2026-05-03T06:44:22Z</time></trkpt><trkpt lat="43.42140811279945" lon="11.674297847628953"><ele>284.3333333333333</ele><time>2026-05-03T06:44:23Z</time></trkpt><trkpt lat="43.421461989054265" lon="11.674557829791832"><ele>286.0</ele><time>2026-05-03T06:44:24Z</time></trkpt><trkpt lat="43.42151470517606" lon="11.674818729859231"><ele>286.0</ele><time>2026-05-03T06:44:25Z</time></trkpt><trkpt lat="43.42157822125769" lon="11.675076239360585"><ele>286.0</ele><time>2026-05-03T06:44:26Z</time></trkpt><trkpt lat="43.4216085864222" lon="11.675344964647685"><ele>286.0</ele><time>2026-05-03T06:44:27Z</time></trkpt><trkpt lat="43.421634041048364" lon="11.67561514800263"><ele>286.0</ele><time>2026-05-03T06:44:28Z</time></trkpt><trkpt lat="43.42166106667319" lon="11.675884622475706"><ele>286.0</ele><time>2026-05-03T06:44:29Z</time></trkpt><trkpt lat="43.42169206662583" lon="11.676153911998277"><ele>286.0</ele><time>2026-05-03T06:44:30Z</time></trkpt><trkpt lat="43.42172196910744" lon="11.676422641191968"><ele>285.66666666666663</ele><time>2026-05-03T06:44:31Z</time></trkpt><trkpt lat="43.42175112335882" lon="11.676692211796855"><ele>285.3333333333333</ele><time>2026-05-03T06:44:32Z</time></trkpt><trkpt lat="43.421780495453625" lon="11.676957384711729"><ele>285.0</ele><time>2026-05-03T06:44:33Z</time></trkpt><trkpt lat="43.421806818179604" lon="11.677221446546598"><ele>285.0</ele><time>2026-05-03T06:44:34Z</time></trkpt><trkpt lat="43.42182992734743" lon="11.67748648353447"><ele>285.0</ele><time>2026-05-03T06:44:35Z</time></trkpt><trkpt lat="43.42185130638112" lon="11.677749697503623"><ele>285.0</ele><time>2026-05-03T06:44:36Z</time></trkpt><trkpt lat="43.421868082306325" lon="11.67801393475854"><ele>285.6666666666667</ele><time>2026-05-03T06:44:37Z</time></trkpt><trkpt lat="43.42188250231701" lon="11.678270925658195"><ele>286.33333333333337</ele><time>2026-05-03T06:44:38Z</time></trkpt><trkpt lat="43.42189598123709" lon="11.678527862181937"><ele>287.0</ele><time>2026-05-03T06:44:39Z</time></trkpt><trkpt lat="43.421907872100064" lon="11.678781472787499"><ele>287.33333333333337</ele><time>2026-05-03T06:44:40Z</time></trkpt><trkpt lat="43.42191701236872" lon="11.67903727618921"><ele>287.6666666666667</ele><time>2026-05-03T06:44:41Z</time></trkpt><trkpt lat="43.421924259774045" lon="11.679291605622796"><ele>288.0</ele><time>2026-05-03T06:44:42Z</time></trkpt><trkpt lat="43.42193649366703" lon="11.679541554784599"><ele>288.0</ele><time>2026-05-03T06:44:43Z</time></trkpt><trkpt lat="43.42197785951809" lon="11.679784279753008"><ele>288.0</ele><time>2026-05-03T06:44:44Z</time></trkpt><trkpt lat="43.422061239036694" lon="11.680010216113002"><ele>288.0</ele><time>2026-05-03T06:44:45Z</time></trkpt><trkpt lat="43.422173716837705" lon="11.680220396499125"><ele>289.0</ele><time>2026-05-03T06:44:46Z</time></trkpt><trkpt lat="43.42229434253288" lon="11.680425813699534"><ele>290.0</ele><time>2026-05-03T06:44:47Z</time></trkpt><trkpt lat="43.422418374797296" lon="11.680629116960317"><ele>291.0</ele><time>2026-05-03T06:44:48Z</time></trkpt><trkpt lat="43.422539900360434" lon="11.680836650217396"><ele>291.0</ele><time>2026-05-03T06:44:49Z</time></trkpt><trkpt lat="43.42265690437072" lon="11.68104989067762"><ele>291.0</ele><time>2026-05-03T06:44:50Z</time></trkpt><trkpt lat="43.422770158081455" lon="11.681272366742776"><ele>291.0</ele><time>2026-05-03T06:44:51Z</time></trkpt><trkpt lat="43.42288530031568" lon="11.681496855853025"><ele>291.6666666666667</ele><time>2026-05-03T06:44:52Z</time></trkpt><trkpt lat="43.422999364728575" lon="11.681726796955896"><ele>292.33333333333337</ele><time>2026-05-03T06:44:53Z</time></trkpt><trkpt lat="43.42311237325399" lon="11.681960451043585"><ele>293.0</ele><time>2026-05-03T06:44:54Z</time></trkpt><trkpt lat="43.42321889183494" lon="11.682207668806768"><ele>293.0</ele><time>2026-05-03T06:44:55Z</time></trkpt><trkpt lat="43.42331028118367" lon="11.682467226208678"><ele>293.0</ele><time>2026-05-03T06:44:56Z</time></trkpt><trkpt lat="43.423394139471625" lon="11.682740604534514"><ele>293.0</ele><time>2026-05-03T06:44:57Z</time></trkpt><trkpt lat="43.42347651768147" lon="11.683015693833392"><ele>293.0</ele><time>2026-05-03T06:44:58Z</time></trkpt><trkpt lat="43.42354333647384" lon="11.683294781376809"><ele>293.0</ele><time>2026-05-03T06:44:59Z</time></trkpt><trkpt lat="43.423551329085726" lon="11.683588197315562"><ele>293.0</ele><time>2026-05-03T06:45:00Z</time></trkpt><trkpt lat="43.4235761795851" lon="11.683874829801278"><ele>293.0</ele><time>2026-05-03T06:45:01Z</time></trkpt><trkpt lat="43.42358256959149" lon="11.684165853309489"><ele>293.0</ele><time>2026-05-03T06:45:02Z</time></trkpt><trkpt lat="43.423626516450824" lon="11.684448058936084"><ele>293.0</ele><time>2026-05-03T06:45:03Z</time></trkpt><trkpt lat="43.423704351512534" lon="11.684723006211536"><ele>293.6666666666667</ele><time>2026-05-03T06:45:04Z</time></trkpt><trkpt lat="43.42380407298152" lon="11.684992322908304"><ele>294.3333333333333</ele><time>2026-05-03T06:45:05Z</time></trkpt><trkpt lat="43.42389263145618" lon="11.68527153010047"><ele>295.0</ele><time>2026-05-03T06:45:06Z</time></trkpt><trkpt lat="43.423974693956154" lon="11.685558119769663"><ele>296.66666666666663</ele><time>2026-05-03T06:45:07Z</time></trkpt><trkpt lat="43.42405792880039" lon="11.685843951183424"><ele>298.3333333333333</ele><time>2026-05-03T06:45:08Z</time></trkpt><trkpt lat="43.424143139265986" lon="11.686130058501455"><ele>300.0</ele><time>2026-05-03T06:45:09Z</time></trkpt><trkpt lat="43.4242290856783" lon="11.686414793984909"><ele>300.0</ele><time>2026-05-03T06:45:10Z</time></trkpt><trkpt lat="43.42430918627942" lon="11.686692984821454"><ele>300.0</ele><time>2026-05-03T06:45:11Z</time></trkpt><trkpt lat="43.424392802483496" lon="11.686970851498021"><ele>300.0</ele><time>2026-05-03T06:45:12Z</time></trkpt><trkpt lat="43.424473115593734" lon="11.687242283343165"><ele>299.6666666666667</ele><time>2026-05-03T06:45:13Z</time></trkpt><trkpt lat="43.42454443640246" lon="11.687512045217645"><ele>299.33333333333337</ele><time>2026-05-03T06:45:14Z</time></trkpt><trkpt lat="43.42458408019597" lon="11.687785046844386"><ele>299.0</ele><time>2026-05-03T06:45:15Z</time></trkpt><trkpt lat="43.42457509582209" lon="11.68805589503024"><ele>299.6666666666667</ele><time>2026-05-03T06:45:16Z</time></trkpt><trkpt lat="43.42452273565188" lon="11.688320238224835"><ele>300.3333333333333</ele><time>2026-05-03T06:45:17Z</time></trkpt><trkpt lat="43.42453996357674" lon="11.688563638738486"><ele>301.0</ele><time>2026-05-03T06:45:18Z</time></trkpt><trkpt lat="43.42435930194881" lon="11.688817669979171"><ele>301.66666666666663</ele><time>2026-05-03T06:45:19Z</time></trkpt><trkpt lat="43.424327851961124" lon="11.689080715757761"><ele>302.3333333333333</ele><time>2026-05-03T06:45:20Z</time></trkpt><trkpt lat="43.42434569465447" lon="11.68936431603204"><ele>303.0</ele><time>2026-05-03T06:45:21Z</time></trkpt><trkpt lat="43.424395664829994" lon="11.689631200695189"><ele>303.6666666666667</ele><time>2026-05-03T06:45:22Z</time></trkpt><trkpt lat="43.42449990828346" lon="11.689878238290238"><ele>304.33333333333337</ele><time>2026-05-03T06:45:23Z</time></trkpt><trkpt lat="43.42462048744067" lon="11.690113480299116"><ele>305.0</ele><time>2026-05-03T06:45:24Z</time></trkpt><trkpt lat="43.42472032158003" lon="11.690358550621784"><ele>306.33333333333337</ele><time>2026-05-03T06:45:25Z</time></trkpt><trkpt lat="43.424769076884964" lon="11.69061316468522"><ele>307.6666666666667</ele><time>2026-05-03T06:45:26Z</time></trkpt><trkpt lat="43.42476527507452" lon="11.690879601356956"><ele>309.0</ele><time>2026-05-03T06:45:27Z</time></trkpt><trkpt lat="43.4247298005391" lon="11.691153509427478"><ele>308.6666666666667</ele><time>2026-05-03T06:45:28Z</time></trkpt><trkpt lat="43.42464382767873" lon="11.691417938788152"><ele>308.33333333333337</ele><time>2026-05-03T06:45:29Z</time></trkpt><trkpt lat="43.42453953588792" lon="11.691679427372353"><ele>308.0</ele><time>2026-05-03T06:45:30Z</time></trkpt><trkpt lat="43.424433603197436" lon="11.691945849424604"><ele>308.0</ele><time>2026-05-03T06:45:31Z</time></trkpt><trkpt lat="43.42433319021335" lon="11.692218328002358"><ele>308.0</ele><time>2026-05-03T06:45:31.999Z</time></trkpt><trkpt lat="43.42422695088132" lon="11.69248622114066"><ele>308.0</ele><time>2026-05-03T06:45:32.999Z</time></trkpt><trkpt lat="43.42409759735099" lon="11.692735226956247"><ele>307.33333333333337</ele><time>2026-05-03T06:45:33.999Z</time></trkpt><trkpt lat="43.42394546489128" lon="11.692958827140808"><ele>306.6666666666667</ele><time>2026-05-03T06:45:34.999Z</time></trkpt><trkpt lat="43.42379327540605" lon="11.693178352235185"><ele>306.0</ele><time>2026-05-03T06:45:35.999Z</time></trkpt><trkpt lat="43.42365005599178" lon="11.693404221458128"><ele>307.0</ele><time>2026-05-03T06:45:36.999Z</time></trkpt><trkpt lat="43.42353124845592" lon="11.693651609615593"><ele>308.0</ele><time>2026-05-03T06:45:37.999Z</time></trkpt><trkpt lat="43.423450540532194" lon="11.693923614637995"><ele>309.0</ele><time>2026-05-03T06:45:38.999Z</time></trkpt><trkpt lat="43.42338719265582" lon="11.69421122297359"><ele>310.3333333333333</ele><time>2026-05-03T06:45:39.999Z</time></trkpt><trkpt lat="43.42332976775524" lon="11.694497041368932"><ele>311.66666666666663</ele><time>2026-05-03T06:45:40.999Z</time></trkpt><trkpt lat="43.42326809082788" lon="11.694779877663773"><ele>313.0</ele><time>2026-05-03T06:45:41.999Z</time></trkpt><trkpt lat="43.423203730876985" lon="11.695058457121593"><ele>314.66666666666663</ele><time>2026-05-03T06:45:42.999Z</time></trkpt><trkpt lat="43.42313840165306" lon="11.695334317275886"><ele>316.3333333333333</ele><time>2026-05-03T06:45:43.999Z</time></trkpt><trkpt lat="43.42307546890682" lon="11.695609258112492"><ele>318.0</ele><time>2026-05-03T06:45:44.999Z</time></trkpt><trkpt lat="43.42303586283088" lon="11.695885746775966"><ele>318.6666666666667</ele><time>2026-05-03T06:45:45.999Z</time></trkpt><trkpt lat="43.423033315708594" lon="11.696174664412784"><ele>319.33333333333337</ele><time>2026-05-03T06:45:46.999Z</time></trkpt><trkpt lat="43.42306801085264" lon="11.696465863991365"><ele>320.0</ele><time>2026-05-03T06:45:47.999Z</time></trkpt><trkpt lat="43.423117740909014" lon="11.696757116344012"><ele>319.0</ele><time>2026-05-03T06:45:48.999Z</time></trkpt><trkpt lat="43.42317212970732" lon="11.697046254230326"><ele>318.0</ele><time>2026-05-03T06:45:49.999Z</time></trkpt><trkpt lat="43.42322324342954" lon="11.697337022789714"><ele>317.0</ele><time>2026-05-03T06:45:50.999Z</time></trkpt><trkpt lat="43.42326209527176" lon="11.697630363586287"><ele>318.0</ele><time>2026-05-03T06:45:51.999Z</time></trkpt><trkpt lat="43.423283628203244" lon="11.697929702427722"><ele>319.0</ele><time>2026-05-03T06:45:52.999Z</time></trkpt><trkpt lat="43.42329371773445" lon="11.698230237049051"><ele>320.0</ele><time>2026-05-03T06:45:53.999Z</time></trkpt><trkpt lat="43.423300821954236" lon="11.698530191893942"><ele>319.6666666666667</ele><time>2026-05-03T06:45:54.999Z</time></trkpt><trkpt lat="43.42331018067239" lon="11.698832690684862"><ele>319.3333333333333</ele><time>2026-05-03T06:45:55.999Z</time></trkpt><trkpt lat="43.42331822856835" lon="11.699133184749675"><ele>319.0</ele><time>2026-05-03T06:45:56.999Z</time></trkpt><trkpt lat="43.42332395092036" lon="11.699432938256598"><ele>319.66666666666663</ele><time>2026-05-03T06:45:57.999Z</time></trkpt><trkpt lat="43.423318748684466" lon="11.699730906638514"><ele>320.3333333333333</ele><time>2026-05-03T06:45:58.999Z</time></trkpt><trkpt lat="43.423300715671104" lon="11.700024569722654"><ele>321.0</ele><time>2026-05-03T06:45:59.999Z</time></trkpt><trkpt lat="43.42328358058257" lon="11.700316543007299"><ele>321.3333333333333</ele><time>2026-05-03T06:46:00.999Z</time></trkpt><trkpt lat="43.42326512987125" lon="11.70060654836942"><ele>321.66666666666663</ele><time>2026-05-03T06:46:01.999Z</time></trkpt><trkpt lat="43.42324939457015" lon="11.700894700741502"><ele>322.0</ele><time>2026-05-03T06:46:02.999Z</time></trkpt><trkpt lat="43.423246238198765" lon="11.701178374035308"><ele>322.66666666666663</ele><time>2026-05-03T06:46:03.999Z</time></trkpt><trkpt lat="43.423276596941264" lon="11.701460293610602"><ele>323.3333333333333</ele><time>2026-05-03T06:46:04.999Z</time></trkpt><trkpt lat="43.423330710134294" lon="11.701736038403197"><ele>324.0</ele><time>2026-05-03T06:46:05.999Z</time></trkpt><trkpt lat="43.42339409144698" lon="11.70200927583186"><ele>324.0</ele><time>2026-05-03T06:46:06.999Z</time></trkpt><trkpt lat="43.42345986057574" lon="11.702278670699567"><ele>324.0</ele><time>2026-05-03T06:46:07.999Z</time></trkpt><trkpt lat="43.423516789396075" lon="11.702549430817665"><ele>324.0</ele><time>2026-05-03T06:46:08.999Z</time></trkpt><trkpt lat="43.4235430181722" lon="11.70282712673086"><ele>324.6666666666667</ele><time>2026-05-03T06:46:09.999Z</time></trkpt><trkpt lat="43.42354121058792" lon="11.703109106650897"><ele>325.33333333333337</ele><time>2026-05-03T06:46:10.999Z</time></trkpt><trkpt lat="43.42351004129059" lon="11.703391589455011"><ele>326.0</ele><time>2026-05-03T06:46:11.999Z</time></trkpt><trkpt lat="43.42347420794376" lon="11.703681159296682"><ele>326.33333333333337</ele><time>2026-05-03T06:46:12.999Z</time></trkpt><trkpt lat="43.42343692806746" lon="11.703973950236316"><ele>326.6666666666667</ele><time>2026-05-03T06:46:13.999Z</time></trkpt><trkpt lat="43.42340043364198" lon="11.704267161777674"><ele>327.0</ele><time>2026-05-03T06:46:14.999Z</time></trkpt><trkpt lat="43.42336349501291" lon="11.704561570567693"><ele>328.0</ele><time>2026-05-03T06:46:15.999Z</time></trkpt><trkpt lat="43.42332707995487" lon="11.704855375725103"><ele>329.0</ele><time>2026-05-03T06:46:16.999Z</time></trkpt><trkpt lat="43.423288395842974" lon="11.705148360200514"><ele>330.0</ele><time>2026-05-03T06:46:17.999Z</time></trkpt><trkpt lat="43.4232559086726" lon="11.705442079984703"><ele>330.3333333333333</ele><time>2026-05-03T06:46:18.999Z</time></trkpt><trkpt lat="43.423245551129696" lon="11.705734939456105"><ele>330.66666666666663</ele><time>2026-05-03T06:46:19.999Z</time></trkpt><trkpt lat="43.42325447753011" lon="11.706028061965043"><ele>331.0</ele><time>2026-05-03T06:46:20.999Z</time></trkpt><trkpt lat="43.423266980890965" lon="11.706319330855594"><ele>330.3333333333333</ele><time>2026-05-03T06:46:21.999Z</time></trkpt><trkpt lat="43.42326716242815" lon="11.706614268978946"><ele>329.6666666666667</ele><time>2026-05-03T06:46:22.999Z</time></trkpt><trkpt lat="43.42324797187983" lon="11.706913317200751"><ele>329.0</ele><time>2026-05-03T06:46:23.999Z</time></trkpt><trkpt lat="43.42318506624031" lon="11.707197950550666"><ele>331.0</ele><time>2026-05-03T06:46:25Z</time></trkpt><trkpt lat="43.423141801854506" lon="11.707492651772801"><ele>333.0</ele><time>2026-05-03T06:46:26Z</time></trkpt><trkpt lat="43.42307867918064" lon="11.707779469821835"><ele>335.0</ele><time>2026-05-03T06:46:27Z</time></trkpt><trkpt lat="43.423018933779865" lon="11.708066811756147"><ele>334.6666666666667</ele><time>2026-05-03T06:46:28Z</time></trkpt><trkpt lat="43.42296024234514" lon="11.708354487705012"><ele>334.3333333333333</ele><time>2026-05-03T06:46:29Z</time></trkpt><trkpt lat="43.422901920228625" lon="11.708635103080104"><ele>334.0</ele><time>2026-05-03T06:46:30Z</time></trkpt><trkpt lat="43.42284486181312" lon="11.708911899963933"><ele>334.0</ele><time>2026-05-03T06:46:31Z</time></trkpt><trkpt lat="43.42279055498787" lon="11.709185613797342"><ele>334.0</ele><time>2026-05-03T06:46:32Z</time></trkpt><trkpt lat="43.42274338656732" lon="11.709459001901024"><ele>334.0</ele><time>2026-05-03T06:46:33Z</time></trkpt><trkpt lat="43.42271320491232" lon="11.709733033321173"><ele>335.0</ele><time>2026-05-03T06:46:34Z</time></trkpt><trkpt lat="43.42268560891663" lon="11.710004725832073"><ele>336.0</ele><time>2026-05-03T06:46:35Z</time></trkpt><trkpt lat="43.42265681147721" lon="11.710274989147482"><ele>337.0</ele><time>2026-05-03T06:46:36Z</time></trkpt><trkpt lat="43.42262252983242" lon="11.710543368529633"><ele>338.0</ele><time>2026-05-03T06:46:37Z</time></trkpt><trkpt lat="43.42259677896718" lon="11.710803289703309"><ele>339.0</ele><time>2026-05-03T06:46:38Z</time></trkpt><trkpt lat="43.42258259167251" lon="11.711063756649441"><ele>340.0</ele><time>2026-05-03T06:46:39Z</time></trkpt><trkpt lat="43.422585582294076" lon="11.711321005306024"><ele>341.3333333333333</ele><time>2026-05-03T06:46:40Z</time></trkpt><trkpt lat="43.42259314032408" lon="11.711570430215666"><ele>342.6666666666667</ele><time>2026-05-03T06:46:41Z</time></trkpt><trkpt lat="43.42260071590886" lon="11.711820526665171"><ele>344.0</ele><time>2026-05-03T06:46:42Z</time></trkpt><trkpt lat="43.422607365519184" lon="11.712066110247592"><ele>344.0</ele><time>2026-05-03T06:46:43Z</time></trkpt><trkpt lat="43.42260752143411" lon="11.712309385662813"><ele>344.0</ele><time>2026-05-03T06:46:44Z</time></trkpt><trkpt lat="43.42259272242711" lon="11.712545831519042"><ele>344.0</ele><time>2026-05-03T06:46:45Z</time></trkpt><trkpt lat="43.42255196057938" lon="11.712774685366936"><ele>344.33333333333337</ele><time>2026-05-03T06:46:46Z</time></trkpt><trkpt lat="43.422484326321666" lon="11.712986994055322"><ele>344.6666666666667</ele><time>2026-05-03T06:46:47Z</time></trkpt><trkpt lat="43.4223916246199" lon="11.71317803110589"><ele>345.0</ele><time>2026-05-03T06:46:48Z</time></trkpt><trkpt lat="43.422292831609006" lon="11.713360166139864"><ele>345.0</ele><time>2026-05-03T06:46:49Z</time></trkpt><trkpt lat="43.42219181200353" lon="11.713544296554492"><ele>345.0</ele><time>2026-05-03T06:46:50Z</time></trkpt><trkpt lat="43.42208681909219" lon="11.71372969255666"><ele>345.0</ele><time>2026-05-03T06:46:51Z</time></trkpt><trkpt lat="43.421981423238506" lon="11.713912753990774"><ele>344.6666666666667</ele><time>2026-05-03T06:46:52Z</time></trkpt><trkpt lat="43.42187703071025" lon="11.714092975369718"><ele>344.33333333333337</ele><time>2026-05-03T06:46:53Z</time></trkpt><trkpt lat="43.42177624540529" lon="11.714276408174955"><ele>344.0</ele><time>2026-05-03T06:46:54Z</time></trkpt><trkpt lat="43.42168297348272" lon="11.714464002330308"><ele>344.0</ele><time>2026-05-03T06:46:55Z</time></trkpt><trkpt lat="43.42161366627529" lon="11.714666023373244"><ele>344.0</ele><time>2026-05-03T06:46:56Z</time></trkpt><trkpt lat="43.421581492545634" lon="11.714891349706019"><ele>344.0</ele><time>2026-05-03T06:46:57Z</time></trkpt><trkpt lat="43.42158100336285" lon="11.715118226201076"><ele>344.0</ele><time>2026-05-03T06:46:58Z</time></trkpt><trkpt lat="43.42161299332108" lon="11.715338691273585"><ele>344.0</ele><time>2026-05-03T06:46:59Z</time></trkpt><trkpt lat="43.42167190689964" lon="11.715549607670223"><ele>344.0</ele><time>2026-05-03T06:47:00Z</time></trkpt><trkpt lat="43.4217520847754" lon="11.715747145268528"><ele>344.0</ele><time>2026-05-03T06:47:01Z</time></trkpt><trkpt lat="43.421849477878126" lon="11.71593459416704"><ele>344.0</ele><time>2026-05-03T06:47:02Z</time></trkpt><trkpt lat="43.42195090719934" lon="11.716117143383938"><ele>344.0</ele><time>2026-05-03T06:47:03Z</time></trkpt><trkpt lat="43.422047360902134" lon="11.71630011452546"><ele>344.33333333333337</ele><time>2026-05-03T06:47:04Z</time></trkpt><trkpt lat="43.422137506682816" lon="11.716489852903905"><ele>344.6666666666667</ele><time>2026-05-03T06:47:05Z</time></trkpt><trkpt lat="43.422223290353294" lon="11.716683601774061"><ele>345.0</ele><time>2026-05-03T06:47:06Z</time></trkpt><trkpt lat="43.422310250290614" lon="11.716883410758335"><ele>346.3333333333333</ele><time>2026-05-03T06:47:07Z</time></trkpt><trkpt lat="43.42239429864413" lon="11.717082614100464"><ele>347.66666666666663</ele><time>2026-05-03T06:47:08Z</time></trkpt><trkpt lat="43.42247352209704" lon="11.717281554997689"><ele>349.0</ele><time>2026-05-03T06:47:09Z</time></trkpt><trkpt lat="43.42255186257473" lon="11.717479092013644"><ele>349.0</ele><time>2026-05-03T06:47:10Z</time></trkpt><trkpt lat="43.422622303792316" lon="11.717673678034103"><ele>349.0</ele><time>2026-05-03T06:47:11Z</time></trkpt><trkpt lat="43.4226730512139" lon="11.717873682408246"><ele>349.0</ele><time>2026-05-03T06:47:12Z</time></trkpt><trkpt lat="43.42269319148212" lon="11.718084627116122"><ele>349.66666666666663</ele><time>2026-05-03T06:47:13Z</time></trkpt><trkpt lat="43.42269050957701" lon="11.718293463975872"><ele>350.3333333333333</ele><time>2026-05-03T06:47:14Z</time></trkpt><trkpt lat="43.422662484293205" lon="11.718495094031496"><ele>351.0</ele><time>2026-05-03T06:47:15Z</time></trkpt><trkpt lat="43.422612897003596" lon="11.718694399181254"><ele>353.3333333333333</ele><time>2026-05-03T06:47:16Z</time></trkpt><trkpt lat="43.42255251923386" lon="11.71888690297153"><ele>355.66666666666663</ele><time>2026-05-03T06:47:17Z</time></trkpt><trkpt lat="43.42248880062573" lon="11.719078010380892"><ele>358.0</ele><time>2026-05-03T06:47:18Z</time></trkpt><trkpt lat="43.42243368570154" lon="11.719276937202851"><ele>360.66666666666663</ele><time>2026-05-03T06:47:19Z</time></trkpt><trkpt lat="43.42239545655287" lon="11.71948705535474"><ele>363.3333333333333</ele><time>2026-05-03T06:47:20Z</time></trkpt><trkpt lat="43.42236429844203" lon="11.719699256162158"><ele>366.0</ele><time>2026-05-03T06:47:21Z</time></trkpt><trkpt lat="43.4223371337072" lon="11.719912771382972"><ele>366.0</ele><time>2026-05-03T06:47:22Z</time></trkpt><trkpt lat="43.42231129713331" lon="11.720120683633684"><ele>366.0</ele><time>2026-05-03T06:47:23Z</time></trkpt><trkpt lat="43.42228950549806" lon="11.72031030827324"><ele>366.0</ele><time>2026-05-03T06:47:24Z</time></trkpt><trkpt lat="43.42227566903391" lon="11.720482148608529"><ele>366.0</ele><time>2026-05-03T06:47:25Z</time></trkpt><trkpt lat="43.42227502219591" lon="11.720640823100974"><ele>366.25</ele><time>2026-05-03T06:47:26Z</time></trkpt><trkpt lat="43.42228634272458" lon="11.72079709205728"><ele>366.5</ele><time>2026-05-03T06:47:27Z</time></trkpt><trkpt lat="43.42230691824971" lon="11.720956195059332"><ele>366.75</ele><time>2026-05-03T06:47:28Z</time></trkpt><trkpt lat="43.42232674424312" lon="11.721112907026182"><ele>367.0</ele><time>2026-05-03T06:47:29Z</time></trkpt><trkpt lat="43.42234504529359" lon="11.721273278173125"><ele>366.75</ele><time>2026-05-03T06:47:30Z</time></trkpt><trkpt lat="43.42236118158567" lon="11.721436295357913"><ele>366.5</ele><time>2026-05-03T06:47:31Z</time></trkpt><trkpt lat="43.42236769896287" lon="11.721602434967586"><ele>366.25</ele><time>2026-05-03T06:47:32Z</time></trkpt><trkpt lat="43.422368854789646" lon="11.721773401721007"><ele>366.0</ele><time>2026-05-03T06:47:33Z</time></trkpt><trkpt lat="43.42235952939441" lon="11.721945893240466"><ele>366.0</ele><time>2026-05-03T06:47:34Z</time></trkpt><trkpt lat="43.42234730206989" lon="11.722117952786471"><ele>366.0</ele><time>2026-05-03T06:47:35Z</time></trkpt><trkpt lat="43.42233339409437" lon="11.722293665146513"><ele>366.0</ele><time>2026-05-03T06:47:36Z</time></trkpt><trkpt lat="43.42232002546249" lon="11.722468661263546"><ele>366.0</ele><time>2026-05-03T06:47:37Z</time></trkpt><trkpt lat="43.42230832761736" lon="11.722632406978951"><ele>366.6666666666667</ele><time>2026-05-03T06:47:38Z</time></trkpt><trkpt lat="43.42229471232587" lon="11.722765155961987"><ele>367.3333333333333</ele><time>2026-05-03T06:47:39Z</time></trkpt><trkpt lat="43.4222758049987" lon="11.722865074661165"><ele>368.0</ele><time>2026-05-03T06:47:40Z</time></trkpt><trkpt lat="43.42225351317596" lon="11.722999876525762"><ele>368.66666666666663</ele><time>2026-05-03T06:47:42Z</time></trkpt><trkpt lat="43.422238459166834" lon="11.723090591959552"><ele>369.3333333333333</ele><time>2026-05-03T06:47:44Z</time></trkpt><trkpt lat="43.42226659733739" lon="11.723217239027788"><ele>370.0</ele><time>2026-05-03T06:48:28.999Z</time></trkpt><trkpt lat="43.4222755488473" lon="11.723318602932437"><ele>370.0</ele><time>2026-05-03T06:48:29.999Z</time></trkpt><trkpt lat="43.422283571465165" lon="11.723438598169029"><ele>370.0</ele><time>2026-05-03T06:48:31Z</time></trkpt><trkpt lat="43.422287830806944" lon="11.723578545898281"><ele>370.0</ele><time>2026-05-03T06:48:32Z</time></trkpt><trkpt lat="43.42229240891402" lon="11.72373468118362"><ele>370.0</ele><time>2026-05-03T06:48:33Z</time></trkpt><trkpt lat="43.422298073603194" lon="11.723897117836962"><ele>370.0</ele><time>2026-05-03T06:48:34Z</time></trkpt><trkpt lat="43.422303791852976" lon="11.724064641726248"><ele>371.25</ele><time>2026-05-03T06:48:35Z</time></trkpt><trkpt lat="43.42231632829235" lon="11.724236247667207"><ele>372.5</ele><time>2026-05-03T06:48:36Z</time></trkpt><trkpt lat="43.42234306668389" lon="11.724407125407883"><ele>373.75</ele><time>2026-05-03T06:48:37Z</time></trkpt><trkpt lat="43.42240441279593" lon="11.724570377564437"><ele>375.0</ele><time>2026-05-03T06:48:38Z</time></trkpt><trkpt lat="43.422517354287315" lon="11.724700548878229"><ele>376.0</ele><time>2026-05-03T06:48:39Z</time></trkpt><trkpt lat="43.42265422536739" lon="11.72481326362596"><ele>377.0</ele><time>2026-05-03T06:48:40Z</time></trkpt><trkpt lat="43.42280794490738" lon="11.724905501318577"><ele>378.0</ele><time>2026-05-03T06:48:41Z</time></trkpt><trkpt lat="43.42296659408475" lon="11.724987748312701"><ele>379.0</ele><time>2026-05-03T06:48:42Z</time></trkpt><trkpt lat="43.42313639698056" lon="11.725056590582238"><ele>380.0</ele><time>2026-05-03T06:48:43Z</time></trkpt><trkpt lat="43.42331937221109" lon="11.725123599292928"><ele>381.0</ele><time>2026-05-03T06:48:44Z</time></trkpt><trkpt lat="43.42350749155465" lon="11.725199285120274"><ele>381.6666666666667</ele><time>2026-05-03T06:48:45Z</time></trkpt><trkpt lat="43.42369373535575" lon="11.725306634220642"><ele>382.33333333333337</ele><time>2026-05-03T06:48:46Z</time></trkpt><trkpt lat="43.42383369169778" lon="11.725396504824236"><ele>383.0</ele><time>2026-05-03T06:48:47Z</time></trkpt><trkpt lat="43.42399668967808" lon="11.72552473910664"><ele>383.33333333333337</ele><time>2026-05-03T06:48:48Z</time></trkpt><trkpt lat="43.42417114645546" lon="11.72562552714238"><ele>383.6666666666667</ele><time>2026-05-03T06:48:49Z</time></trkpt><trkpt lat="43.424341554668935" lon="11.725693634128492"><ele>384.0</ele><time>2026-05-03T06:48:50Z</time></trkpt><trkpt lat="43.42449534682938" lon="11.725746720449006"><ele>384.0</ele><time>2026-05-03T06:48:51Z</time></trkpt><trkpt lat="43.42462050701431" lon="11.7258205493891"><ele>384.0</ele><time>2026-05-03T06:48:52Z</time></trkpt><trkpt lat="43.42471384678727" lon="11.72592922110477"><ele>384.0</ele><time>2026-05-03T06:48:53Z</time></trkpt><trkpt lat="43.42476167831538" lon="11.726075947340515"><ele>384.0</ele><time>2026-05-03T06:48:54Z</time></trkpt><trkpt lat="43.42476690701377" lon="11.726233081926363"><ele>385.0</ele><time>2026-05-03T06:48:55Z</time></trkpt><trkpt lat="43.42471519931435" lon="11.726353231299099"><ele>386.0</ele><time>2026-05-03T06:48:56Z</time></trkpt><trkpt lat="43.42462826187125" lon="11.726443217862464"><ele>387.0</ele><time>2026-05-03T06:48:57Z</time></trkpt><trkpt lat="43.424514219625195" lon="11.726506011700845"><ele>388.0</ele><time>2026-05-03T06:48:58Z</time></trkpt><trkpt lat="43.42437946055115" lon="11.726512746496953"><ele>388.6666666666667</ele><time>2026-05-03T06:48:59Z</time></trkpt><trkpt lat="43.42422124188496" lon="11.72651647592303"><ele>389.33333333333337</ele><time>2026-05-03T06:49:00Z</time></trkpt><trkpt lat="43.424029607905204" lon="11.72653188440514"><ele>390.0</ele><time>2026-05-03T06:49:01Z</time></trkpt><trkpt lat="43.42381327240766" lon="11.7265236257867"><ele>390.66666666666663</ele><time>2026-05-03T06:49:02Z</time></trkpt><trkpt lat="43.42361068485658" lon="11.726537505442414"><ele>391.3333333333333</ele><time>2026-05-03T06:49:03Z</time></trkpt><trkpt lat="43.423420322038766" lon="11.726587239018002"><ele>392.0</ele><time>2026-05-03T06:49:04Z</time></trkpt><trkpt lat="43.423242487349995" lon="11.726669801077662"><ele>392.0</ele><time>2026-05-03T06:49:05Z</time></trkpt><trkpt lat="43.42307557653146" lon="11.726783017488222"><ele>392.0</ele><time>2026-05-03T06:49:06Z</time></trkpt><trkpt lat="43.422924878433285" lon="11.72693452947325"><ele>392.0</ele><time>2026-05-03T06:49:07Z</time></trkpt><trkpt lat="43.42279279774893" lon="11.727119096388344"><ele>396.66666666666663</ele><time>2026-05-03T06:49:08Z</time></trkpt><trkpt lat="43.42267102452997" lon="11.727310409721836"><ele>401.33333333333337</ele><time>2026-05-03T06:49:09Z</time></trkpt><trkpt lat="43.422556745345176" lon="11.727497689079502"><ele>406.0</ele><time>2026-05-03T06:49:10Z</time></trkpt><trkpt lat="43.422464041348356" lon="11.72768851088269"><ele>408.75</ele><time>2026-05-03T06:49:11Z</time></trkpt><trkpt lat="43.42239383130775" lon="11.727873500126456"><ele>411.5</ele><time>2026-05-03T06:49:12Z</time></trkpt><trkpt lat="43.4223069072687" lon="11.72799646557202"><ele>414.25</ele><time>2026-05-03T06:49:13Z</time></trkpt><trkpt lat="43.42220126813007" lon="11.728060382762383"><ele>417.0</ele><time>2026-05-03T06:49:14Z</time></trkpt><trkpt lat="43.42209326149413" lon="11.728044102714321"><ele>418.0</ele><time>2026-05-03T06:49:15Z</time></trkpt><trkpt lat="43.42199124191915" lon="11.727979437371332"><ele>419.0</ele><time>2026-05-03T06:49:16Z</time></trkpt><trkpt lat="43.42192023920386" lon="11.727862492275715"><ele>420.0</ele><time>2026-05-03T06:49:17Z</time></trkpt><trkpt lat="43.42190356692026" lon="11.727709110241037"><ele>421.0</ele><time>2026-05-03T06:49:18Z</time></trkpt><trkpt lat="43.42189210633345" lon="11.727546158715285"><ele>421.0</ele><time>2026-05-03T06:49:19Z</time></trkpt><trkpt lat="43.42190092032203" lon="11.727363148342663"><ele>421.0</ele><time>2026-05-03T06:49:20Z</time></trkpt><trkpt lat="43.42189418144395" lon="11.727177655563645"><ele>421.0</ele><time>2026-05-03T06:49:21Z</time></trkpt><trkpt lat="43.42186106926979" lon="11.727023536394956"><ele>421.0</ele><time>2026-05-03T06:49:22Z</time></trkpt><trkpt lat="43.42178846348842" lon="11.726914468853511"><ele>421.0</ele><time>2026-05-03T06:49:23Z</time></trkpt><trkpt lat="43.421699310973466" lon="11.726838634059595"><ele>421.0</ele><time>2026-05-03T06:49:24Z</time></trkpt><trkpt lat="43.42157792951695" lon="11.726875123252919"><ele>421.0</ele><time>2026-05-03T06:49:25Z</time></trkpt><trkpt lat="43.421491937373254" lon="11.726997647337999"><ele>421.0</ele><time>2026-05-03T06:49:26Z</time></trkpt><trkpt lat="43.421440064102576" lon="11.727143542969868"><ele>421.0</ele><time>2026-05-03T06:49:27Z</time></trkpt><trkpt lat="43.42143072511173" lon="11.727313928174134"><ele>421.0</ele><time>2026-05-03T06:49:28Z</time></trkpt><trkpt lat="43.42145878313001" lon="11.727487175444928"><ele>421.0</ele><time>2026-05-03T06:49:29Z</time></trkpt><trkpt lat="43.42151829523168" lon="11.727654918192421"><ele>421.0</ele><time>2026-05-03T06:49:30Z</time></trkpt><trkpt lat="43.42158604953435" lon="11.7278239385315"><ele>422.5</ele><time>2026-05-03T06:49:31Z</time></trkpt><trkpt lat="43.421645149352564" lon="11.72799491795229"><ele>424.0</ele><time>2026-05-03T06:49:32Z</time></trkpt><trkpt lat="43.421697949251765" lon="11.728166179088134"><ele>425.5</ele><time>2026-05-03T06:49:33Z</time></trkpt><trkpt lat="43.4217580069799" lon="11.7283279537398"><ele>427.0</ele><time>2026-05-03T06:49:34Z</time></trkpt><trkpt lat="43.42182742497656" lon="11.728473942273585"><ele>428.5</ele><time>2026-05-03T06:49:35Z</time></trkpt><trkpt lat="43.42190159134552" lon="11.728613766939828"><ele>430.0</ele><time>2026-05-03T06:49:36Z</time></trkpt><trkpt lat="43.42198030290725" lon="11.728740582484882"><ele>431.5</ele><time>2026-05-03T06:49:37Z</time></trkpt><trkpt lat="43.42205027887002" lon="11.728851884000026"><ele>433.0</ele><time>2026-05-03T06:49:38Z</time></trkpt><trkpt lat="43.422098534174566" lon="11.728974239282913"><ele>433.0</ele><time>2026-05-03T06:49:39Z</time></trkpt><trkpt lat="43.42211415985188" lon="11.72909900778261"><ele>432.99999999999994</ele><time>2026-05-03T06:49:40Z</time></trkpt><trkpt lat="43.42209689319944" lon="11.729232912662136"><ele>432.99999999999994</ele><time>2026-05-03T06:49:41Z</time></trkpt><trkpt lat="43.422045073026396" lon="11.729343273304488"><ele>433.0</ele><time>2026-05-03T06:49:42Z</time></trkpt><trkpt lat="43.42196780317654" lon="11.729428146587052"><ele>433.0</ele><time>2026-05-03T06:49:43Z</time></trkpt><trkpt lat="43.421873835759484" lon="11.729504093999193"><ele>430.25</ele><time>2026-05-03T06:49:44Z</time></trkpt><trkpt lat="43.42176399402406" lon="11.72957854446904"><ele>427.5</ele><time>2026-05-03T06:49:45Z</time></trkpt><trkpt lat="43.42164118963307" lon="11.729660892235774"><ele>424.75</ele><time>2026-05-03T06:49:46Z</time></trkpt><trkpt lat="43.421506585130786" lon="11.729751382528303"><ele>422.0</ele><time>2026-05-03T06:49:47Z</time></trkpt><trkpt lat="43.421370711544384" lon="11.729844734607939"><ele>421.5</ele><time>2026-05-03T06:49:48Z</time></trkpt><trkpt lat="43.42124152063886" lon="11.729937994333618"><ele>421.0</ele><time>2026-05-03T06:49:49Z</time></trkpt><trkpt lat="43.421113284017146" lon="11.730032023903822"><ele>420.5</ele><time>2026-05-03T06:49:50Z</time></trkpt><trkpt lat="43.420987284588705" lon="11.730122423055636"><ele>420.0</ele><time>2026-05-03T06:49:51Z</time></trkpt><trkpt lat="43.420866734306" lon="11.73020763080194"><ele>417.5</ele><time>2026-05-03T06:49:52Z</time></trkpt><trkpt lat="43.42075387642532" lon="11.730288164653407"><ele>415.0</ele><time>2026-05-03T06:49:53Z</time></trkpt><trkpt lat="43.420644747814286" lon="11.730361547551489"><ele>412.5</ele><time>2026-05-03T06:49:54Z</time></trkpt><trkpt lat="43.42052914759112" lon="11.730415742110738"><ele>410.0</ele><time>2026-05-03T06:49:55Z</time></trkpt><trkpt lat="43.42040945519163" lon="11.730439165234868"><ele>409.75</ele><time>2026-05-03T06:49:56Z</time></trkpt><trkpt lat="43.420288077813765" lon="11.730431357345351"><ele>409.5</ele><time>2026-05-03T06:49:57Z</time></trkpt><trkpt lat="43.420172921903486" lon="11.730381631025775"><ele>409.25</ele><time>2026-05-03T06:49:58Z</time></trkpt><trkpt lat="43.42006747234776" lon="11.730290439485655"><ele>409.0</ele><time>2026-05-03T06:49:59Z</time></trkpt><trkpt lat="43.419975422297085" lon="11.730164897805341"><ele>409.0</ele><time>2026-05-03T06:50:00Z</time></trkpt><trkpt lat="43.41991668037238" lon="11.729996273960092"><ele>409.0</ele><time>2026-05-03T06:50:01Z</time></trkpt><trkpt lat="43.419851511900404" lon="11.729830826252776"><ele>409.0</ele><time>2026-05-03T06:50:02Z</time></trkpt><trkpt lat="43.4197703856336" lon="11.729651383809912"><ele>409.0</ele><time>2026-05-03T06:50:03Z</time></trkpt><trkpt lat="43.419689017887215" lon="11.729430788999242"><ele>405.0</ele><time>2026-05-03T06:50:04Z</time></trkpt><trkpt lat="43.419588054758684" lon="11.729146085965708"><ele>401.0</ele><time>2026-05-03T06:50:05Z</time></trkpt><trkpt lat="43.41948834012581" lon="11.72893010595779"><ele>397.0</ele><time>2026-05-03T06:50:06Z</time></trkpt><trkpt lat="43.419417253205275" lon="11.728704958053804"><ele>398.6666666666667</ele><time>2026-05-03T06:50:07Z</time></trkpt><trkpt lat="43.419340184907526" lon="11.728497058438066"><ele>400.33333333333337</ele><time>2026-05-03T06:50:08Z</time></trkpt><trkpt lat="43.41925123741303" lon="11.72830671969484"><ele>402.0</ele><time>2026-05-03T06:50:09Z</time></trkpt><trkpt lat="43.41914581960566" lon="11.728144791039753"><ele>402.0</ele><time>2026-05-03T06:50:10Z</time></trkpt><trkpt lat="43.419015617978225" lon="11.72803672230714"><ele>402.0</ele><time>2026-05-03T06:50:11Z</time></trkpt><trkpt lat="43.41886507031718" lon="11.727970277126467"><ele>402.0</ele><time>2026-05-03T06:50:12Z</time></trkpt><trkpt lat="43.41870056790034" lon="11.727936321609453"><ele>398.0</ele><time>2026-05-03T06:50:13Z</time></trkpt><trkpt lat="43.41853040343174" lon="11.727936637249428"><ele>394.0</ele><time>2026-05-03T06:50:14Z</time></trkpt><trkpt lat="43.41835246912059" lon="11.727959102474601"><ele>390.0</ele><time>2026-05-03T06:50:14.999Z</time></trkpt><trkpt lat="43.41817514910386" lon="11.728029528362221"><ele>390.0</ele><time>2026-05-03T06:50:15.999Z</time></trkpt><trkpt lat="43.41800054775552" lon="11.728133354287435"><ele>390.0</ele><time>2026-05-03T06:50:16.999Z</time></trkpt><trkpt lat="43.41782918415618" lon="11.728245973480925"><ele>390.0</ele><time>2026-05-03T06:50:17.999Z</time></trkpt><trkpt lat="43.41766090050972" lon="11.728343532663775"><ele>387.3333333333333</ele><time>2026-05-03T06:50:18.999Z</time></trkpt><trkpt lat="43.41749864198111" lon="11.728420991460856"><ele>384.66666666666663</ele><time>2026-05-03T06:50:19.999Z</time></trkpt><trkpt lat="43.41734652139408" lon="11.728491506932679"><ele>382.0</ele><time>2026-05-03T06:50:20.999Z</time></trkpt><trkpt lat="43.41721171264477" lon="11.728560341792976"><ele>382.5</ele><time>2026-05-03T06:50:21.999Z</time></trkpt><trkpt lat="43.41709927248015" lon="11.728653392838865"><ele>383.0</ele><time>2026-05-03T06:50:22.999Z</time></trkpt><trkpt lat="43.41702179482319" lon="11.72878766476687"><ele>383.5</ele><time>2026-05-03T06:50:23.999Z</time></trkpt><trkpt lat="43.41699291992067" lon="11.728944077384716"><ele>384.0</ele><time>2026-05-03T06:50:24.999Z</time></trkpt><trkpt lat="43.41701303641074" lon="11.729107241265735"><ele>384.0</ele><time>2026-05-03T06:50:25.999Z</time></trkpt><trkpt lat="43.41707990772455" lon="11.729246198613728"><ele>384.0</ele><time>2026-05-03T06:50:26.999Z</time></trkpt><trkpt lat="43.41718468904035" lon="11.729343572101508"><ele>384.0</ele><time>2026-05-03T06:50:27.999Z</time></trkpt><trkpt lat="43.41731305993171" lon="11.729378914911184"><ele>384.0</ele><time>2026-05-03T06:50:28.999Z</time></trkpt><trkpt lat="43.417449777899286" lon="11.72935606159026"><ele>383.3333333333333</ele><time>2026-05-03T06:50:29.999Z</time></trkpt><trkpt lat="43.417596860904936" lon="11.729275725956072"><ele>382.66666666666663</ele><time>2026-05-03T06:50:30.999Z</time></trkpt><trkpt lat="43.41775006378099" lon="11.729158487887071"><ele>382.0</ele><time>2026-05-03T06:50:31.999Z</time></trkpt><trkpt lat="43.41790745118978" lon="11.729017768018313"><ele>381.25</ele><time>2026-05-03T06:50:32.999Z</time></trkpt><trkpt lat="43.41800663835683" lon="11.728886205194511"><ele>380.5</ele><time>2026-05-03T06:50:33.999Z</time></trkpt><trkpt lat="43.418130813688535" lon="11.728818430779636"><ele>379.75</ele><time>2026-05-03T06:50:34.999Z</time></trkpt><trkpt lat="43.41825410654611" lon="11.728819112130775"><ele>379.0</ele><time>2026-05-03T06:50:35.999Z</time></trkpt><trkpt lat="43.41836195037682" lon="11.728894929905797"><ele>379.0</ele><time>2026-05-03T06:50:37Z</time></trkpt><trkpt lat="43.41843548467731" lon="11.729023956997674"><ele>379.0</ele><time>2026-05-03T06:50:38Z</time></trkpt><trkpt lat="43.41847377473967" lon="11.729191672201653"><ele>379.0</ele><time>2026-05-03T06:50:39Z</time></trkpt><trkpt lat="43.41846685402963" lon="11.729373268074326"><ele>379.0</ele><time>2026-05-03T06:50:40Z</time></trkpt><trkpt lat="43.418414031151144" lon="11.72953924132248"><ele>377.66666666666663</ele><time>2026-05-03T06:50:41Z</time></trkpt><trkpt lat="43.41830681522542" lon="11.729663756698955"><ele>376.3333333333333</ele><time>2026-05-03T06:50:42Z</time></trkpt><trkpt lat="43.41819272483465" lon="11.729809009914055"><ele>375.0</ele><time>2026-05-03T06:50:43Z</time></trkpt><trkpt lat="43.418048378205285" lon="11.729946288847273"><ele>372.0</ele><time>2026-05-03T06:50:44Z</time></trkpt><trkpt lat="43.41791198669739" lon="11.7301187186186"><ele>369.0</ele><time>2026-05-03T06:50:45Z</time></trkpt><trkpt lat="43.41780798438283" lon="11.730331642517877"><ele>366.0</ele><time>2026-05-03T06:50:46Z</time></trkpt><trkpt lat="43.41773139659806" lon="11.730572025239525"><ele>362.6666666666667</ele><time>2026-05-03T06:50:47Z</time></trkpt><trkpt lat="43.41767834850259" lon="11.73083266831706"><ele>359.33333333333337</ele><time>2026-05-03T06:50:48Z</time></trkpt><trkpt lat="43.417656238767776" lon="11.731107229371212"><ele>356.0</ele><time>2026-05-03T06:50:49Z</time></trkpt><trkpt lat="43.417667757700464" lon="11.731388785909305"><ele>354.33333333333337</ele><time>2026-05-03T06:50:50Z</time></trkpt><trkpt lat="43.41772475651521" lon="11.731654420933195"><ele>352.6666666666667</ele><time>2026-05-03T06:50:51Z</time></trkpt><trkpt lat="43.41781105581072" lon="11.731903692726553"><ele>351.0</ele><time>2026-05-03T06:50:52Z</time></trkpt><trkpt lat="43.417895782973986" lon="11.7321385004977"><ele>348.3333333333333</ele><time>2026-05-03T06:50:53Z</time></trkpt><trkpt lat="43.41794880187887" lon="11.732380217070943"><ele>345.66666666666663</ele><time>2026-05-03T06:50:54Z</time></trkpt><trkpt lat="43.417951789516636" lon="11.732613878091216"><ele>343.0</ele><time>2026-05-03T06:50:55Z</time></trkpt><trkpt lat="43.41790419369791" lon="11.732827345269804"><ele>342.3333333333333</ele><time>2026-05-03T06:50:56Z</time></trkpt><trkpt lat="43.41781641837583" lon="11.733003069845354"><ele>341.6666666666667</ele><time>2026-05-03T06:50:57Z</time></trkpt><trkpt lat="43.41769388236239" lon="11.733121643957702"><ele>341.0</ele><time>2026-05-03T06:50:58Z</time></trkpt><trkpt lat="43.41756946880308" lon="11.73327802597039"><ele>341.0</ele><time>2026-05-03T06:50:59Z</time></trkpt><trkpt lat="43.417387847743505" lon="11.733365977281075"><ele>341.0</ele><time>2026-05-03T06:51:00Z</time></trkpt><trkpt lat="43.41719602980705" lon="11.733453461191944"><ele>341.0</ele><time>2026-05-03T06:51:01Z</time></trkpt><trkpt lat="43.41700980945625" lon="11.733550764153195"><ele>339.33333333333337</ele><time>2026-05-03T06:51:02Z</time></trkpt><trkpt lat="43.41682422342779" lon="11.733656178620318"><ele>337.6666666666667</ele><time>2026-05-03T06:51:03Z</time></trkpt><trkpt lat="43.41664055384961" lon="11.733765799099352"><ele>336.0</ele><time>2026-05-03T06:51:04Z</time></trkpt><trkpt lat="43.41646521233639" lon="11.733858942545593"><ele>334.0</ele><time>2026-05-03T06:51:05Z</time></trkpt><trkpt lat="43.41630886090187" lon="11.733956516761216"><ele>332.0</ele><time>2026-05-03T06:51:06Z</time></trkpt><trkpt lat="43.41617521070148" lon="11.73409770616179"><ele>330.0</ele><time>2026-05-03T06:51:07Z</time></trkpt><trkpt lat="43.41607781897904" lon="11.734278516141648"><ele>328.0</ele><time>2026-05-03T06:51:08Z</time></trkpt><trkpt lat="43.41603416457375" lon="11.734497365013846"><ele>326.0</ele><time>2026-05-03T06:51:09Z</time></trkpt><trkpt lat="43.41604225663357" lon="11.734718198435155"><ele>324.0</ele><time>2026-05-03T06:51:10Z</time></trkpt><trkpt lat="43.416072975289346" lon="11.734954773223437"><ele>324.0</ele><time>2026-05-03T06:51:11Z</time></trkpt><trkpt lat="43.416094092824075" lon="11.735201418856683"><ele>324.0</ele><time>2026-05-03T06:51:12Z</time></trkpt><trkpt lat="43.41604287148235" lon="11.73543428059325"><ele>324.0</ele><time>2026-05-03T06:51:13Z</time></trkpt><trkpt lat="43.41594386258894" lon="11.735631089023155"><ele>323.3333333333333</ele><time>2026-05-03T06:51:14Z</time></trkpt><trkpt lat="43.41580693196652" lon="11.735789306018694"><ele>322.66666666666663</ele><time>2026-05-03T06:51:15Z</time></trkpt><trkpt lat="43.41564849132053" lon="11.7359368844949"><ele>322.0</ele><time>2026-05-03T06:51:16Z</time></trkpt><trkpt lat="43.41547939078957" lon="11.736088373929636"><ele>322.0</ele><time>2026-05-03T06:51:17Z</time></trkpt><trkpt lat="43.41530032411758" lon="11.736247369864138"><ele>322.0</ele><time>2026-05-03T06:51:18Z</time></trkpt><trkpt lat="43.41512285930074" lon="11.736420558014123"><ele>322.0</ele><time>2026-05-03T06:51:19Z</time></trkpt><trkpt lat="43.414942685183746" lon="11.736577589105993"><ele>322.0</ele><time>2026-05-03T06:51:20Z</time></trkpt><trkpt lat="43.414759398211054" lon="11.736738280291936"><ele>322.0</ele><time>2026-05-03T06:51:21Z</time></trkpt><trkpt lat="43.41459012612481" lon="11.736893855034369"><ele>322.0</ele><time>2026-05-03T06:51:22Z</time></trkpt><trkpt lat="43.41442103447785" lon="11.737042105114986"><ele>323.0</ele><time>2026-05-03T06:51:23Z</time></trkpt><trkpt lat="43.41425295166138" lon="11.737189517311208"><ele>324.0</ele><time>2026-05-03T06:51:24Z</time></trkpt><trkpt lat="43.41409036100557" lon="11.737342853539376"><ele>325.0</ele><time>2026-05-03T06:51:25Z</time></trkpt><trkpt lat="43.41392664522602" lon="11.737518068471717"><ele>324.66666666666663</ele><time>2026-05-03T06:51:26Z</time></trkpt><trkpt lat="43.41376683623287" lon="11.73771583294134"><ele>324.3333333333333</ele><time>2026-05-03T06:51:27Z</time></trkpt><trkpt lat="43.41360790391849" lon="11.737927258609075"><ele>324.0</ele><time>2026-05-03T06:51:28Z</time></trkpt><trkpt lat="43.41344835164245" lon="11.738136405473124"><ele>324.0</ele><time>2026-05-03T06:51:29Z</time></trkpt><trkpt lat="43.413286562698566" lon="11.73834211513867"><ele>324.0</ele><time>2026-05-03T06:51:30Z</time></trkpt><trkpt lat="43.413121644481876" lon="11.73854518037978"><ele>324.0</ele><time>2026-05-03T06:51:31Z</time></trkpt><trkpt lat="43.41295824077807" lon="11.738744813331174"><ele>325.3333333333333</ele><time>2026-05-03T06:51:32Z</time></trkpt><trkpt lat="43.41279515979182" lon="11.738951308985202"><ele>326.66666666666663</ele><time>2026-05-03T06:51:33Z</time></trkpt><trkpt lat="43.41263546160237" lon="11.739150880879736"><ele>328.0</ele><time>2026-05-03T06:51:34Z</time></trkpt><trkpt lat="43.412482778366375" lon="11.739358731338987"><ele>326.66666666666663</ele><time>2026-05-03T06:51:35Z</time></trkpt><trkpt lat="43.412342188397275" lon="11.739579043919376"><ele>325.3333333333333</ele><time>2026-05-03T06:51:36Z</time></trkpt><trkpt lat="43.41221121453772" lon="11.739813287332973"><ele>324.0</ele><time>2026-05-03T06:51:37Z</time></trkpt><trkpt lat="43.41208209381385" lon="11.740046725011377"><ele>328.0</ele><time>2026-05-03T06:51:38Z</time></trkpt><trkpt lat="43.4119532871477" lon="11.740280846300085"><ele>332.0</ele><time>2026-05-03T06:51:39Z</time></trkpt><trkpt lat="43.411823533870134" lon="11.740517059640512"><ele>336.0</ele><time>2026-05-03T06:51:40Z</time></trkpt><trkpt lat="43.41169307104014" lon="11.740750045841661"><ele>336.0</ele><time>2026-05-03T06:51:41Z</time></trkpt><trkpt lat="43.41156362922282" lon="11.74098351514871"><ele>336.0</ele><time>2026-05-03T06:51:42Z</time></trkpt><trkpt lat="43.411431679858076" lon="11.741216827164271"><ele>336.0</ele><time>2026-05-03T06:51:43Z</time></trkpt><trkpt lat="43.411302668370766" lon="11.741447556778903"><ele>337.0</ele><time>2026-05-03T06:51:44Z</time></trkpt><trkpt lat="43.411176499163446" lon="11.741680249905853"><ele>338.0</ele><time>2026-05-03T06:51:45Z</time></trkpt><trkpt lat="43.411048185992385" lon="11.741912924516313"><ele>339.0</ele><time>2026-05-03T06:51:46Z</time></trkpt><trkpt lat="43.41092004666271" lon="11.74214519920111"><ele>339.6666666666667</ele><time>2026-05-03T06:51:47Z</time></trkpt><trkpt lat="43.41079020430411" lon="11.742374481728596"><ele>340.33333333333337</ele><time>2026-05-03T06:51:48Z</time></trkpt><trkpt lat="43.41065905796892" lon="11.74260396055348"><ele>341.0</ele><time>2026-05-03T06:51:49Z</time></trkpt><trkpt lat="43.41053060632773" lon="11.742835568914659"><ele>339.33333333333337</ele><time>2026-05-03T06:51:50Z</time></trkpt><trkpt lat="43.41041145657565" lon="11.743080140658654"><ele>337.6666666666667</ele><time>2026-05-03T06:51:51Z</time></trkpt><trkpt lat="43.41030391962671" lon="11.74333576976223"><ele>336.0</ele><time>2026-05-03T06:51:52Z</time></trkpt><trkpt lat="43.41021674789233" lon="11.743604436213861"><ele>336.0</ele><time>2026-05-03T06:51:53Z</time></trkpt><trkpt lat="43.41014812533828" lon="11.743886853527236"><ele>336.0</ele><time>2026-05-03T06:51:54Z</time></trkpt><trkpt lat="43.41009497952799" lon="11.744171191914162"><ele>336.0</ele><time>2026-05-03T06:51:55Z</time></trkpt><trkpt lat="43.410050516642094" lon="11.744461042343099"><ele>334.6666666666667</ele><time>2026-05-03T06:51:56Z</time></trkpt><trkpt lat="43.41001467851835" lon="11.744752594386268"><ele>333.33333333333337</ele><time>2026-05-03T06:51:57Z</time></trkpt><trkpt lat="43.40997329042351" lon="11.745044883561649"><ele>332.0</ele><time>2026-05-03T06:51:58Z</time></trkpt><trkpt lat="43.40992878087711" lon="11.745340312108704"><ele>331.0</ele><time>2026-05-03T06:51:59Z</time></trkpt><trkpt lat="43.40988331701493" lon="11.745636735813065"><ele>330.0</ele><time>2026-05-03T06:52:00Z</time></trkpt><trkpt lat="43.40984083027938" lon="11.745936706083691"><ele>329.0</ele><time>2026-05-03T06:52:01Z</time></trkpt><trkpt lat="43.40979455277487" lon="11.74623767494"><ele>328.0</ele><time>2026-05-03T06:52:02Z</time></trkpt><trkpt lat="43.40974686755679" lon="11.746540118628886"><ele>327.0</ele><time>2026-05-03T06:52:03Z</time></trkpt><trkpt lat="43.409698420556445" lon="11.746845515340704"><ele>321.5</ele><time>2026-05-03T06:52:04Z</time></trkpt><trkpt lat="43.40965144694914" lon="11.747152004149806"><ele>316.0</ele><time>2026-05-03T06:52:05Z</time></trkpt><trkpt lat="43.40960894173203" lon="11.747452861313185"><ele>315.66666666666663</ele><time>2026-05-03T06:52:06Z</time></trkpt><trkpt lat="43.40956749284174" lon="11.747752548241847"><ele>315.3333333333333</ele><time>2026-05-03T06:52:07Z</time></trkpt><trkpt lat="43.409538382326254" lon="11.74805707616613"><ele>315.0</ele><time>2026-05-03T06:52:08Z</time></trkpt><trkpt lat="43.40952020161901" lon="11.748356902981442"><ele>313.6666666666667</ele><time>2026-05-03T06:52:09Z</time></trkpt><trkpt lat="43.40952408947449" lon="11.748658920811748"><ele>312.33333333333337</ele><time>2026-05-03T06:52:09.999Z</time></trkpt><trkpt lat="43.40956077906973" lon="11.748953646783919"><ele>311.0</ele><time>2026-05-03T06:52:10.999Z</time></trkpt><trkpt lat="43.409622484769955" lon="11.749251563855733"><ele>310.6666666666667</ele><time>2026-05-03T06:52:11.999Z</time></trkpt><trkpt lat="43.409676709455155" lon="11.74954511304739"><ele>310.3333333333333</ele><time>2026-05-03T06:52:12.999Z</time></trkpt><trkpt lat="43.409723600215635" lon="11.749847822242693"><ele>310.0</ele><time>2026-05-03T06:52:13.999Z</time></trkpt><trkpt lat="43.40976797039696" lon="11.750150606307711"><ele>309.3333333333333</ele><time>2026-05-03T06:52:14.999Z</time></trkpt><trkpt lat="43.40981504471594" lon="11.750451640366188"><ele>308.6666666666667</ele><time>2026-05-03T06:52:15.999Z</time></trkpt><trkpt lat="43.409860753397325" lon="11.750751424516986"><ele>308.0</ele><time>2026-05-03T06:52:16.999Z</time></trkpt><trkpt lat="43.40990727206589" lon="11.751044145175289"><ele>309.0</ele><time>2026-05-03T06:52:17.999Z</time></trkpt><trkpt lat="43.40994062166446" lon="11.751338771244932"><ele>310.0</ele><time>2026-05-03T06:52:18.999Z</time></trkpt><trkpt lat="43.40995198697029" lon="11.751625780295793"><ele>311.0</ele><time>2026-05-03T06:52:19.999Z</time></trkpt><trkpt lat="43.409927377959235" lon="11.751912696440709"><ele>311.0</ele><time>2026-05-03T06:52:20.999Z</time></trkpt><trkpt lat="43.40987095866423" lon="11.75218457930038"><ele>311.0</ele><time>2026-05-03T06:52:21.999Z</time></trkpt><trkpt lat="43.40978036281888" lon="11.752434955887523"><ele>311.0</ele><time>2026-05-03T06:52:22.999Z</time></trkpt><trkpt lat="43.40966386740112" lon="11.752667747404697"><ele>310.0</ele><time>2026-05-03T06:52:23.999Z</time></trkpt><trkpt lat="43.4095395964478" lon="11.752894932717687"><ele>309.0</ele><time>2026-05-03T06:52:24.999Z</time></trkpt><trkpt lat="43.4094166263024" lon="11.753127418533364"><ele>308.0</ele><time>2026-05-03T06:52:25.999Z</time></trkpt><trkpt lat="43.40930169742368" lon="11.7533662496614"><ele>308.6666666666667</ele><time>2026-05-03T06:52:26.999Z</time></trkpt><trkpt lat="43.40918705204059" lon="11.753606511308401"><ele>309.3333333333333</ele><time>2026-05-03T06:52:27.999Z</time></trkpt><trkpt lat="43.409070218199325" lon="11.753843963972347"><ele>310.0</ele><time>2026-05-03T06:52:28.999Z</time></trkpt><trkpt lat="43.4089518776168" lon="11.754081196705371"><ele>310.0</ele><time>2026-05-03T06:52:29.999Z</time></trkpt><trkpt lat="43.40883217962675" lon="11.754319711687977"><ele>310.0</ele><time>2026-05-03T06:52:30.999Z</time></trkpt><trkpt lat="43.40871454945512" lon="11.75455848017463"><ele>310.0</ele><time>2026-05-03T06:52:31.999Z</time></trkpt><trkpt lat="43.408593662728364" lon="11.75479724950753"><ele>309.66666666666663</ele><time>2026-05-03T06:52:32.999Z</time></trkpt><trkpt lat="43.40846941997418" lon="11.75502425288155"><ele>309.3333333333333</ele><time>2026-05-03T06:52:33.999Z</time></trkpt><trkpt lat="43.40833966643347" lon="11.755242153022001"><ele>309.0</ele><time>2026-05-03T06:52:34.999Z</time></trkpt><trkpt lat="43.40820667568888" lon="11.755442013291756"><ele>309.3333333333333</ele><time>2026-05-03T06:52:35.999Z</time></trkpt><trkpt lat="43.40807751338082" lon="11.755632535894607"><ele>309.66666666666663</ele><time>2026-05-03T06:52:36.999Z</time></trkpt><trkpt lat="43.40795433245912" lon="11.755827210158651"><ele>310.0</ele><time>2026-05-03T06:52:37.999Z</time></trkpt><trkpt lat="43.407844588124455" lon="11.756033801869359"><ele>310.3333333333333</ele><time>2026-05-03T06:52:38.999Z</time></trkpt><trkpt lat="43.40774941678565" lon="11.756254185199406"><ele>310.6666666666667</ele><time>2026-05-03T06:52:39.999Z</time></trkpt><trkpt lat="43.40766988055814" lon="11.756489670961365"><ele>311.0</ele><time>2026-05-03T06:52:40.999Z</time></trkpt><trkpt lat="43.40760996491805" lon="11.756735584354402"><ele>308.6666666666667</ele><time>2026-05-03T06:52:41.999Z</time></trkpt><trkpt lat="43.40756736830234" lon="11.756993641070418"><ele>306.3333333333333</ele><time>2026-05-03T06:52:43Z</time></trkpt><trkpt lat="43.407545143894524" lon="11.757257710753096"><ele>304.0</ele><time>2026-05-03T06:52:44Z</time></trkpt><trkpt lat="43.40754532335393" lon="11.757531290689153"><ele>302.3333333333333</ele><time>2026-05-03T06:52:45Z</time></trkpt><trkpt lat="43.40757036268869" lon="11.757804451288884"><ele>300.6666666666667</ele><time>2026-05-03T06:52:46Z</time></trkpt><trkpt lat="43.40761988867643" lon="11.758073061566872"><ele>299.0</ele><time>2026-05-03T06:52:47Z</time></trkpt><trkpt lat="43.40769172767505" lon="11.758335869467235"><ele>300.0</ele><time>2026-05-03T06:52:48Z</time></trkpt><trkpt lat="43.407780983264736" lon="11.758593163236439"><ele>301.0</ele><time>2026-05-03T06:52:49Z</time></trkpt><trkpt lat="43.4078886515761" lon="11.758843352174615"><ele>302.0</ele><time>2026-05-03T06:52:50Z</time></trkpt><trkpt lat="43.408000353723835" lon="11.75909366462001"><ele>302.0</ele><time>2026-05-03T06:52:51Z</time></trkpt><trkpt lat="43.40811471307819" lon="11.759344273761428"><ele>302.0</ele><time>2026-05-03T06:52:52Z</time></trkpt><trkpt lat="43.408227043805596" lon="11.75959940980237"><ele>302.0</ele><time>2026-05-03T06:52:53Z</time></trkpt><trkpt lat="43.40833578559111" lon="11.759859792281294"><ele>299.33333333333337</ele><time>2026-05-03T06:52:54Z</time></trkpt><trkpt lat="43.40844429113217" lon="11.760117595721903"><ele>296.6666666666667</ele><time>2026-05-03T06:52:55Z</time></trkpt><trkpt lat="43.40855643806108" lon="11.760377989121828"><ele>294.0</ele><time>2026-05-03T06:52:56Z</time></trkpt><trkpt lat="43.40867072102465" lon="11.760639127575192"><ele>292.3333333333333</ele><time>2026-05-03T06:52:57Z</time></trkpt><trkpt lat="43.408783343064975" lon="11.760905226187512"><ele>290.66666666666663</ele><time>2026-05-03T06:52:58Z</time></trkpt><trkpt lat="43.40889640268474" lon="11.761173216998527"><ele>289.0</ele><time>2026-05-03T06:52:59Z</time></trkpt><trkpt lat="43.40901047472772" lon="11.761442637473063"><ele>287.0</ele><time>2026-05-03T06:53:00Z</time></trkpt><trkpt lat="43.409125098431154" lon="11.761714019740307"><ele>285.0</ele><time>2026-05-03T06:53:01Z</time></trkpt><trkpt lat="43.409239388399286" lon="11.761982897033892"><ele>284.0</ele><time>2026-05-03T06:53:02Z</time></trkpt><trkpt lat="43.409357877998545" lon="11.762251496243834"><ele>283.0</ele><time>2026-05-03T06:53:03Z</time></trkpt><trkpt lat="43.40947228199628" lon="11.762523104025808"><ele>281.0</ele><time>2026-05-03T06:53:04Z</time></trkpt><trkpt lat="43.4095859065622" lon="11.762791554608478"><ele>279.0</ele><time>2026-05-03T06:53:05Z</time></trkpt><trkpt lat="43.40970026784941" lon="11.763061266387735"><ele>279.0</ele><time>2026-05-03T06:53:06Z</time></trkpt><trkpt lat="43.409813709042766" lon="11.763328917657526"><ele>279.0</ele><time>2026-05-03T06:53:07Z</time></trkpt><trkpt lat="43.40992350649352" lon="11.763586693137434"><ele>279.0</ele><time>2026-05-03T06:53:08Z</time></trkpt><trkpt lat="43.41001787848865" lon="11.763835461233759"><ele>278.6666666666667</ele><time>2026-05-03T06:53:09Z</time></trkpt><trkpt lat="43.41006026308016" lon="11.76409375754514"><ele>278.33333333333337</ele><time>2026-05-03T06:53:10Z</time></trkpt><trkpt lat="43.4100708502129" lon="11.764341075622221"><ele>278.0</ele><time>2026-05-03T06:53:11Z</time></trkpt><trkpt lat="43.41004675244334" lon="11.764578184077378"><ele>277.6666666666667</ele><time>2026-05-03T06:53:12Z</time></trkpt><trkpt lat="43.41000574944985" lon="11.764828918598532"><ele>277.3333333333333</ele><time>2026-05-03T06:53:13Z</time></trkpt><trkpt lat="43.409927255983426" lon="11.765072274042794"><ele>277.0</ele><time>2026-05-03T06:53:14Z</time></trkpt><trkpt lat="43.409847298183536" lon="11.765312681319374"><ele>277.0</ele><time>2026-05-03T06:53:15Z</time></trkpt><trkpt lat="43.40977481321146" lon="11.76555476143916"><ele>277.0</ele><time>2026-05-03T06:53:16Z</time></trkpt><trkpt lat="43.40970678221413" lon="11.765802897255934"><ele>277.0</ele><time>2026-05-03T06:53:17Z</time></trkpt><trkpt lat="43.40964366861943" lon="11.76605276836811"><ele>276.3333333333333</ele><time>2026-05-03T06:53:18Z</time></trkpt><trkpt lat="43.409595393645155" lon="11.766312749603529"><ele>275.6666666666667</ele><time>2026-05-03T06:53:19Z</time></trkpt><trkpt lat="43.40956523473666" lon="11.766579794818918"><ele>275.0</ele><time>2026-05-03T06:53:20Z</time></trkpt><trkpt lat="43.409551008596324" lon="11.766851007165691"><ele>274.6666666666667</ele><time>2026-05-03T06:53:21Z</time></trkpt><trkpt lat="43.40954869383549" lon="11.767121308471019"><ele>274.3333333333333</ele><time>2026-05-03T06:53:22Z</time></trkpt><trkpt lat="43.4095484099761" lon="11.767383518268291"><ele>274.0</ele><time>2026-05-03T06:53:23Z</time></trkpt><trkpt lat="43.40954693426586" lon="11.76762649232947"><ele>273.66666666666663</ele><time>2026-05-03T06:53:24Z</time></trkpt><trkpt lat="43.40954254772806" lon="11.767851143172162"><ele>273.3333333333333</ele><time>2026-05-03T06:53:25Z</time></trkpt><trkpt lat="43.40953082335409" lon="11.768059269797636"><ele>273.0</ele><time>2026-05-03T06:53:26Z</time></trkpt><trkpt lat="43.40950191981884" lon="11.768258274042678"><ele>273.0</ele><time>2026-05-03T06:53:27Z</time></trkpt><trkpt lat="43.40945978372704" lon="11.768434600432524"><ele>273.0</ele><time>2026-05-03T06:53:28Z</time></trkpt><trkpt lat="43.409391522917126" lon="11.768578383376063"><ele>273.0</ele><time>2026-05-03T06:53:29Z</time></trkpt><trkpt lat="43.40931493597542" lon="11.76869630339151"><ele>273.0</ele><time>2026-05-03T06:53:30Z</time></trkpt><trkpt lat="43.40925652470471" lon="11.768809525230715"><ele>273.0</ele><time>2026-05-03T06:53:31Z</time></trkpt><trkpt lat="43.40925187900853" lon="11.76894422099707"><ele>273.0</ele><time>2026-05-03T06:53:32Z</time></trkpt><trkpt lat="43.40929196269737" lon="11.769082865771537"><ele>273.0</ele><time>2026-05-03T06:53:33Z</time></trkpt><trkpt lat="43.409360656250634" lon="11.769203377184883"><ele>273.0</ele><time>2026-05-03T06:53:34Z</time></trkpt><trkpt lat="43.409452889565976" lon="11.769309186871551"><ele>273.0</ele><time>2026-05-03T06:53:35Z</time></trkpt><trkpt lat="43.40952035803197" lon="11.769450919452769"><ele>273.0</ele><time>2026-05-03T06:53:36Z</time></trkpt><trkpt lat="43.40955752998411" lon="11.769626899535554"><ele>273.0</ele><time>2026-05-03T06:53:37Z</time></trkpt><trkpt lat="43.409568117668435" lon="11.769820810058159"><ele>273.0</ele><time>2026-05-03T06:53:38Z</time></trkpt><trkpt lat="43.409566156637226" lon="11.770011182337075"><ele>273.0</ele><time>2026-05-03T06:53:39Z</time></trkpt><trkpt lat="43.40956915940887" lon="11.770219751801752"><ele>272.6666666666667</ele><time>2026-05-03T06:53:40Z</time></trkpt><trkpt lat="43.40957783844605" lon="11.770437113892626"><ele>272.33333333333337</ele><time>2026-05-03T06:53:41Z</time></trkpt><trkpt lat="43.40958872122076" lon="11.770661759181024"><ele>272.0</ele><time>2026-05-03T06:53:42Z</time></trkpt><trkpt lat="43.40959629546286" lon="11.77089322515998"><ele>272.0</ele><time>2026-05-03T06:53:43Z</time></trkpt><trkpt lat="43.409602118226346" lon="11.771127148363234"><ele>272.0</ele><time>2026-05-03T06:53:44Z</time></trkpt><trkpt lat="43.40961764636875" lon="11.771352844541239"><ele>272.0</ele><time>2026-05-03T06:53:45Z</time></trkpt><trkpt lat="43.40965384475206" lon="11.771571101860049"><ele>272.0</ele><time>2026-05-03T06:53:46Z</time></trkpt><trkpt lat="43.40970857743743" lon="11.771847060654103"><ele>272.0</ele><time>2026-05-03T06:53:47Z</time></trkpt><trkpt lat="43.40976893878707" lon="11.772081035307849"><ele>272.0</ele><time>2026-05-03T06:53:48Z</time></trkpt><trkpt lat="43.40982685473028" lon="11.772317569822638"><ele>271.33333333333337</ele><time>2026-05-03T06:53:49Z</time></trkpt><trkpt lat="43.40988573920039" lon="11.772551405379568"><ele>270.6666666666667</ele><time>2026-05-03T06:53:50Z</time></trkpt><trkpt lat="43.40994162937567" lon="11.772789526384301"><ele>270.0</ele><time>2026-05-03T06:53:51Z</time></trkpt><trkpt lat="43.40999646217005" lon="11.77302646669564"><ele>269.6666666666667</ele><time>2026-05-03T06:53:52Z</time></trkpt><trkpt lat="43.41005163628977" lon="11.773265892486666"><ele>269.33333333333337</ele><time>2026-05-03T06:53:53Z</time></trkpt><trkpt lat="43.41010478450737" lon="11.773511218432581"><ele>269.0</ele><time>2026-05-03T06:53:54Z</time></trkpt><trkpt lat="43.410160378544" lon="11.77375945652822"><ele>269.0</ele><time>2026-05-03T06:53:55Z</time></trkpt><trkpt lat="43.41021962399861" lon="11.774004547422559"><ele>269.0</ele><time>2026-05-03T06:53:55.999Z</time></trkpt><trkpt lat="43.410278952678524" lon="11.774250312920035"><ele>269.0</ele><time>2026-05-03T06:53:56.999Z</time></trkpt><trkpt lat="43.410338849035014" lon="11.77449805315197"><ele>269.33333333333337</ele><time>2026-05-03T06:53:57.999Z</time></trkpt><trkpt lat="43.41039885135069" lon="11.774745712491297"><ele>269.6666666666667</ele><time>2026-05-03T06:53:58.999Z</time></trkpt><trkpt lat="43.41045814284568" lon="11.774990153710702"><ele>270.0</ele><time>2026-05-03T06:53:59.999Z</time></trkpt><trkpt lat="43.41051549242762" lon="11.775228290228675"><ele>270.0</ele><time>2026-05-03T06:54:00.999Z</time></trkpt><trkpt lat="43.41056771540065" lon="11.775462136266272"><ele>270.0</ele><time>2026-05-03T06:54:01.999Z</time></trkpt><trkpt lat="43.4105994138665" lon="11.775699270927182"><ele>270.0</ele><time>2026-05-03T06:54:02.999Z</time></trkpt><trkpt lat="43.410605766689734" lon="11.775942484851157"><ele>269.0</ele><time>2026-05-03T06:54:03.999Z</time></trkpt><trkpt lat="43.41057649145749" lon="11.776182965556389"><ele>268.0</ele><time>2026-05-03T06:54:04.999Z</time></trkpt><trkpt lat="43.41051513212143" lon="11.77641372589939"><ele>267.0</ele><time>2026-05-03T06:54:05.999Z</time></trkpt><trkpt lat="43.410446855491465" lon="11.776642776555919"><ele>267.0</ele><time>2026-05-03T06:54:06.999Z</time></trkpt><trkpt lat="43.41037996976663" lon="11.776890017946906"><ele>267.0</ele><time>2026-05-03T06:54:07.999Z</time></trkpt><trkpt lat="43.41030886127775" lon="11.777152402230072"><ele>267.0</ele><time>2026-05-03T06:54:08.999Z</time></trkpt><trkpt lat="43.41023782266378" lon="11.77742575640847"><ele>267.6666666666667</ele><time>2026-05-03T06:54:09.999Z</time></trkpt><trkpt lat="43.410165450668295" lon="11.777698997032799"><ele>268.33333333333337</ele><time>2026-05-03T06:54:10.999Z</time></trkpt><trkpt lat="43.410089724799306" lon="11.777976088295507"><ele>269.0</ele><time>2026-05-03T06:54:11.999Z</time></trkpt><trkpt lat="43.410013999625335" lon="11.77825627610468"><ele>268.33333333333337</ele><time>2026-05-03T06:54:12.999Z</time></trkpt><trkpt lat="43.409938105491186" lon="11.778541880321285"><ele>267.6666666666667</ele><time>2026-05-03T06:54:13.999Z</time></trkpt><trkpt lat="43.40986251983166" lon="11.778824367734208"><ele>267.0</ele><time>2026-05-03T06:54:14.999Z</time></trkpt><trkpt lat="43.409788091724" lon="11.77911013815307"><ele>266.6666666666667</ele><time>2026-05-03T06:54:15.999Z</time></trkpt><trkpt lat="43.409712619801724" lon="11.779394595729586"><ele>266.33333333333337</ele><time>2026-05-03T06:54:16.999Z</time></trkpt><trkpt lat="43.40963469418743" lon="11.779683790007764"><ele>266.0</ele><time>2026-05-03T06:54:17.999Z</time></trkpt><trkpt lat="43.40955535562724" lon="11.779973050072556"><ele>265.0</ele><time>2026-05-03T06:54:18.999Z</time></trkpt><trkpt lat="43.40947719106884" lon="11.780263062840712"><ele>264.0</ele><time>2026-05-03T06:54:19.999Z</time></trkpt><trkpt lat="43.409400631632664" lon="11.780559057197243"><ele>264.0</ele><time>2026-05-03T06:54:20.999Z</time></trkpt><trkpt lat="43.409324687986526" lon="11.780854154380865"><ele>264.0</ele><time>2026-05-03T06:54:21.999Z</time></trkpt><trkpt lat="43.4092497108011" lon="11.781146343513145"><ele>264.0</ele><time>2026-05-03T06:54:22.999Z</time></trkpt><trkpt lat="43.40917078556949" lon="11.781440760109547"><ele>264.0</ele><time>2026-05-03T06:54:23.999Z</time></trkpt><trkpt lat="43.409090592388786" lon="11.781734408547036"><ele>265.0</ele><time>2026-05-03T06:54:24.999Z</time></trkpt><trkpt lat="43.40901030174187" lon="11.782027618149984"><ele>266.0</ele><time>2026-05-03T06:54:25.999Z</time></trkpt><trkpt lat="43.40893392402378" lon="11.78231617389961"><ele>266.0</ele><time>2026-05-03T06:54:26.999Z</time></trkpt><trkpt lat="43.40886200490536" lon="11.78260973946286"><ele>266.0</ele><time>2026-05-03T06:54:27.999Z</time></trkpt><trkpt lat="43.40879845224834" lon="11.782906468500226"><ele>265.6666666666667</ele><time>2026-05-03T06:54:28.999Z</time></trkpt><trkpt lat="43.4087578000225" lon="11.783206829778154"><ele>265.3333333333333</ele><time>2026-05-03T06:54:29.999Z</time></trkpt><trkpt lat="43.40873634981812" lon="11.783508734891184"><ele>265.0</ele><time>2026-05-03T06:54:30.999Z</time></trkpt><trkpt lat="43.40872667864921" lon="11.783814863275618"><ele>265.0</ele><time>2026-05-03T06:54:31.999Z</time></trkpt><trkpt lat="43.408710872765845" lon="11.784115319214395"><ele>265.0</ele><time>2026-05-03T06:54:32.999Z</time></trkpt><trkpt lat="43.40869210063679" lon="11.784416940397406"><ele>265.0</ele><time>2026-05-03T06:54:33.999Z</time></trkpt><trkpt lat="43.408672253757665" lon="11.784716228771599"><ele>264.3333333333333</ele><time>2026-05-03T06:54:34.999Z</time></trkpt><trkpt lat="43.40864954039782" lon="11.78501247086802"><ele>263.6666666666667</ele><time>2026-05-03T06:54:35.999Z</time></trkpt><trkpt lat="43.408623216436254" lon="11.785305805089449"><ele>263.0</ele><time>2026-05-03T06:54:36.999Z</time></trkpt><trkpt lat="43.40858945992834" lon="11.785595376743297"><ele>262.6666666666667</ele><time>2026-05-03T06:54:37.999Z</time></trkpt><trkpt lat="43.40856596776158" lon="11.78588758437448"><ele>262.3333333333333</ele><time>2026-05-03T06:54:38.999Z</time></trkpt><trkpt lat="43.40854621330617" lon="11.786180756241114"><ele>262.0</ele><time>2026-05-03T06:54:39.999Z</time></trkpt><trkpt lat="43.40853035695307" lon="11.786474715628547"><ele>261.66666666666663</ele><time>2026-05-03T06:54:40.999Z</time></trkpt><trkpt lat="43.40852774602237" lon="11.786767136102064"><ele>261.3333333333333</ele><time>2026-05-03T06:54:41.999Z</time></trkpt><trkpt lat="43.408550190784965" lon="11.787061098242356"><ele>261.0</ele><time>2026-05-03T06:54:42.999Z</time></trkpt><trkpt lat="43.40860532651345" lon="11.787349339856119"><ele>260.3333333333333</ele><time>2026-05-03T06:54:43.999Z</time></trkpt><trkpt lat="43.40869071837309" lon="11.787619291812124"><ele>259.66666666666663</ele><time>2026-05-03T06:54:44.999Z</time></trkpt><trkpt lat="43.40880262689261" lon="11.787878213753396"><ele>259.0</ele><time>2026-05-03T06:54:45.999Z</time></trkpt><trkpt lat="43.4089254316657" lon="11.788132534443656"><ele>258.66666666666663</ele><time>2026-05-03T06:54:46.999Z</time></trkpt><trkpt lat="43.409043348263616" lon="11.788391312850285"><ele>258.3333333333333</ele><time>2026-05-03T06:54:47.999Z</time></trkpt><trkpt lat="43.409155035037784" lon="11.78865691123131"><ele>258.0</ele><time>2026-05-03T06:54:49Z</time></trkpt><trkpt lat="43.4092661741649" lon="11.788919623057284"><ele>257.3333333333333</ele><time>2026-05-03T06:54:50Z</time></trkpt><trkpt lat="43.409375754420246" lon="11.789182422552422"><ele>256.66666666666663</ele><time>2026-05-03T06:54:51Z</time></trkpt><trkpt lat="43.409479601406" lon="11.789439828688783"><ele>256.0</ele><time>2026-05-03T06:54:52Z</time></trkpt><trkpt lat="43.40957470377586" lon="11.789683092079738"><ele>254.33333333333331</ele><time>2026-05-03T06:54:53Z</time></trkpt><trkpt lat="43.40966443409341" lon="11.789912907913632"><ele>252.66666666666669</ele><time>2026-05-03T06:54:54Z</time></trkpt><trkpt lat="43.40975183392595" lon="11.790127630066623"><ele>251.0</ele><time>2026-05-03T06:54:55Z</time></trkpt><trkpt lat="43.40982949380191" lon="11.790332590922178"><ele>250.66666666666669</ele><time>2026-05-03T06:54:56Z</time></trkpt><trkpt lat="43.40988955128067" lon="11.790539527533504"><ele>250.33333333333331</ele><time>2026-05-03T06:54:57Z</time></trkpt><trkpt lat="43.40992775731337" lon="11.790760270428304"><ele>250.0</ele><time>2026-05-03T06:54:58Z</time></trkpt><trkpt lat="43.409945002188216" lon="11.790989284794867"><ele>250.0</ele><time>2026-05-03T06:54:59Z</time></trkpt><trkpt lat="43.40993619935881" lon="11.791214216730907"><ele>250.0</ele><time>2026-05-03T06:55:00Z</time></trkpt><trkpt lat="43.40990114482492" lon="11.791425311334317"><ele>250.0</ele><time>2026-05-03T06:55:01Z</time></trkpt><trkpt lat="43.409880376740226" lon="11.791645382980233"><ele>249.33333333333331</ele><time>2026-05-03T06:55:02Z</time></trkpt><trkpt lat="43.40990039841236" lon="11.791883099862023"><ele>248.66666666666669</ele><time>2026-05-03T06:55:03Z</time></trkpt><trkpt lat="43.40992454699535" lon="11.792133131006434"><ele>248.0</ele><time>2026-05-03T06:55:04Z</time></trkpt><trkpt lat="43.40994002844144" lon="11.792392191622723"><ele>248.0</ele><time>2026-05-03T06:55:05Z</time></trkpt><trkpt lat="43.40995328906999" lon="11.792654082517872"><ele>248.0</ele><time>2026-05-03T06:55:06Z</time></trkpt><trkpt lat="43.40996894673963" lon="11.792919459790841"><ele>248.0</ele><time>2026-05-03T06:55:07Z</time></trkpt><trkpt lat="43.40998401127813" lon="11.79318560220748"><ele>247.66666666666669</ele><time>2026-05-03T06:55:08Z</time></trkpt><trkpt lat="43.409998953910396" lon="11.793450347503411"><ele>247.33333333333331</ele><time>2026-05-03T06:55:09Z</time></trkpt><trkpt lat="43.41001427301395" lon="11.793712635304159"><ele>247.0</ele><time>2026-05-03T06:55:10Z</time></trkpt><trkpt lat="43.410028486034776" lon="11.793960818321267"><ele>246.66666666666666</ele><time>2026-05-03T06:55:11Z</time></trkpt><trkpt lat="43.41003507441876" lon="11.794190865120216"><ele>246.33333333333331</ele><time>2026-05-03T06:55:12Z</time></trkpt><trkpt lat="43.410031080706325" lon="11.794406089873538"><ele>246.0</ele><time>2026-05-03T06:55:13Z</time></trkpt><trkpt lat="43.41002150604493" lon="11.794612612771912"><ele>246.5</ele><time>2026-05-03T06:55:14Z</time></trkpt><trkpt lat="43.41001068996743" lon="11.79480757096118"><ele>247.0</ele><time>2026-05-03T06:55:15Z</time></trkpt><trkpt lat="43.41000027776387" lon="11.794992243140412"><ele>247.5</ele><time>2026-05-03T06:55:16Z</time></trkpt><trkpt lat="43.40999080992511" lon="11.795172224729125"><ele>248.0</ele><time>2026-05-03T06:55:17Z</time></trkpt><trkpt lat="43.409980373440206" lon="11.79535454539164"><ele>248.0</ele><time>2026-05-03T06:55:18Z</time></trkpt><trkpt lat="43.409966290032656" lon="11.795539531168748"><ele>248.0</ele><time>2026-05-03T06:55:19Z</time></trkpt><trkpt lat="43.40995712992213" lon="11.79572474959123"><ele>248.0</ele><time>2026-05-03T06:55:20Z</time></trkpt><trkpt lat="43.40994920467397" lon="11.79591046096012"><ele>248.0</ele><time>2026-05-03T06:55:21Z</time></trkpt><trkpt lat="43.409936729537634" lon="11.796092347441233"><ele>248.25</ele><time>2026-05-03T06:55:22Z</time></trkpt><trkpt lat="43.40992404760261" lon="11.796273605087178"><ele>248.5</ele><time>2026-05-03T06:55:23Z</time></trkpt><trkpt lat="43.40991115238479" lon="11.796450476730396"><ele>248.75</ele><time>2026-05-03T06:55:24Z</time></trkpt><trkpt lat="43.40989915309661" lon="11.796622851019677"><ele>249.0</ele><time>2026-05-03T06:55:25Z</time></trkpt><trkpt lat="43.40988795338433" lon="11.796794948276075"><ele>249.25</ele><time>2026-05-03T06:55:26Z</time></trkpt><trkpt lat="43.40988254361014" lon="11.796964931247913"><ele>249.5</ele><time>2026-05-03T06:55:27Z</time></trkpt><trkpt lat="43.409874026180916" lon="11.797132552324967"><ele>249.75</ele><time>2026-05-03T06:55:28Z</time></trkpt><trkpt lat="43.409866893723645" lon="11.797298141962528"><ele>250.0</ele><time>2026-05-03T06:55:29Z</time></trkpt><trkpt lat="43.40986507482146" lon="11.797450383235102"><ele>249.99999999999997</ele><time>2026-05-03T06:55:30Z</time></trkpt><trkpt lat="43.40985914279395" lon="11.797588649052791"><ele>250.0</ele><time>2026-05-03T06:55:31Z</time></trkpt><trkpt lat="43.409834438187076" lon="11.797697211185145"><ele>250.0</ele><time>2026-05-03T06:55:32Z</time></trkpt><trkpt lat="43.409784310848096" lon="11.797779055208338"><ele>250.0</ele><time>2026-05-03T06:55:33Z</time></trkpt><trkpt lat="43.40971455926744" lon="11.797815534327565"><ele>249.99999999999997</ele><time>2026-05-03T06:55:34Z</time></trkpt><trkpt lat="43.40964555667876" lon="11.797816329624812"><ele>250.0</ele><time>2026-05-03T06:55:35Z</time></trkpt><trkpt lat="43.409560344617134" lon="11.797921889785904"><ele>249.85714285714283</ele><time>2026-05-03T06:55:37Z</time></trkpt><trkpt lat="43.40955711726017" lon="11.798013099776457"><ele>249.71428571428572</ele><time>2026-05-03T06:55:38Z</time></trkpt><trkpt lat="43.4095769140685" lon="11.798097258019185"><ele>249.57142857142856</ele><time>2026-05-03T06:55:39Z</time></trkpt><trkpt lat="43.409614445368206" lon="11.798170631140287"><ele>249.42857142857142</ele><time>2026-05-03T06:55:40Z</time></trkpt><trkpt lat="43.40966533048427" lon="11.798238009694169"><ele>249.28571428571428</ele><time>2026-05-03T06:55:41Z</time></trkpt><trkpt lat="43.4097302051741" lon="11.79829664040997"><ele>249.14285714285714</ele><time>2026-05-03T06:55:42Z</time></trkpt><trkpt lat="43.409805223265835" lon="11.798346271322986"><ele>249.0</ele><time>2026-05-03T06:55:43Z</time></trkpt><trkpt lat="43.409885622144216" lon="11.798394861574057"><ele>248.79999999999998</ele><time>2026-05-03T06:55:44Z</time></trkpt><trkpt lat="43.40996780139167" lon="11.798456173550528"><ele>248.59999999999997</ele><time>2026-05-03T06:55:45Z</time></trkpt><trkpt lat="43.410048248818924" lon="11.798533307590402"><ele>248.4</ele><time>2026-05-03T06:55:46Z</time></trkpt><trkpt lat="43.41012291994229" lon="11.798624260167326"><ele>248.2</ele><time>2026-05-03T06:55:47Z</time></trkpt><trkpt lat="43.41019376977042" lon="11.798721989557768"><ele>248.0</ele><time>2026-05-03T06:55:48Z</time></trkpt><trkpt lat="43.410259433795126" lon="11.798825284796123"><ele>248.0</ele><time>2026-05-03T06:55:49Z</time></trkpt><trkpt lat="43.41032241135488" lon="11.798934343654377"><ele>248.0</ele><time>2026-05-03T06:55:50Z</time></trkpt><trkpt lat="43.41038178455184" lon="11.79905074088887"><ele>248.0</ele><time>2026-05-03T06:55:50.999Z</time></trkpt><trkpt lat="43.410438586347546" lon="11.799170112787833"><ele>248.0</ele><time>2026-05-03T06:55:51.999Z</time></trkpt><trkpt lat="43.41049561241885" lon="11.799288109278596"><ele>248.0</ele><time>2026-05-03T06:55:52.999Z</time></trkpt><trkpt lat="43.41053826345161" lon="11.799404822037104"><ele>248.60000000000002</ele><time>2026-05-03T06:55:53.999Z</time></trkpt><trkpt lat="43.410579330179765" lon="11.799514531219133"><ele>249.20000000000002</ele><time>2026-05-03T06:55:54.999Z</time></trkpt><trkpt lat="43.41063663893757" lon="11.799630141623414"><ele>249.8</ele><time>2026-05-03T06:55:55.999Z</time></trkpt><trkpt lat="43.41070143557815" lon="11.799750292459292"><ele>250.4</ele><time>2026-05-03T06:55:56.999Z</time></trkpt><trkpt lat="43.41077386898819" lon="11.799873803326651"><ele>251.0</ele><time>2026-05-03T06:55:57.999Z</time></trkpt><trkpt lat="43.410843538872314" lon="11.800001168574868"><ele>251.0</ele><time>2026-05-03T06:55:58.999Z</time></trkpt><trkpt lat="43.41091256346524" lon="11.800139116415096"><ele>251.0</ele><time>2026-05-03T06:55:59.999Z</time></trkpt><trkpt lat="43.41098338043028" lon="11.800280835466493"><ele>251.0</ele><time>2026-05-03T06:56:00.999Z</time></trkpt><trkpt lat="43.41105317162754" lon="11.800420981774739"><ele>251.0</ele><time>2026-05-03T06:56:01.999Z</time></trkpt><trkpt lat="43.411121604591855" lon="11.800562791898477"><ele>250.5</ele><time>2026-05-03T06:56:02.999Z</time></trkpt><trkpt lat="43.41118992317318" lon="11.800710833969655"><ele>250.0</ele><time>2026-05-03T06:56:03.999Z</time></trkpt><trkpt lat="43.411262314698334" lon="11.800864090825291"><ele>249.5</ele><time>2026-05-03T06:56:04.999Z</time></trkpt><trkpt lat="43.411338384809675" lon="11.801018757853058"><ele>249.0</ele><time>2026-05-03T06:56:05.999Z</time></trkpt><trkpt lat="43.41141789150397" lon="11.801174757091228"><ele>248.25</ele><time>2026-05-03T06:56:06.999Z</time></trkpt><trkpt lat="43.41149721938576" lon="11.801335061120211"><ele>247.5</ele><time>2026-05-03T06:56:07.999Z</time></trkpt><trkpt lat="43.41157514498757" lon="11.801498514926925"><ele>246.75</ele><time>2026-05-03T06:56:08.999Z</time></trkpt><trkpt lat="43.41165360894906" lon="11.801665255155635"><ele>246.0</ele><time>2026-05-03T06:56:09.999Z</time></trkpt><trkpt lat="43.41173203869662" lon="11.801833576889244"><ele>246.0</ele><time>2026-05-03T06:56:10.999Z</time></trkpt><trkpt lat="43.41181488627934" lon="11.80200294004319"><ele>246.0</ele><time>2026-05-03T06:56:11.999Z</time></trkpt><trkpt lat="43.411898434669" lon="11.802171351997279"><ele>246.0</ele><time>2026-05-03T06:56:12.999Z</time></trkpt><trkpt lat="43.411982778919665" lon="11.802345682102246"><ele>246.0</ele><time>2026-05-03T06:56:13.999Z</time></trkpt><trkpt lat="43.412068749557406" lon="11.802524975687035"><ele>245.66666666666669</ele><time>2026-05-03T06:56:14.999Z</time></trkpt><trkpt lat="43.41215622859992" lon="11.802705100651858"><ele>245.33333333333334</ele><time>2026-05-03T06:56:15.999Z</time></trkpt><trkpt lat="43.412245661861604" lon="11.802890245479892"><ele>245.0</ele><time>2026-05-03T06:56:16.999Z</time></trkpt><trkpt lat="43.41233471498898" lon="11.803076544663027"><ele>245.66666666666669</ele><time>2026-05-03T06:56:17.999Z</time></trkpt><trkpt lat="43.412426945149" lon="11.80327071345421"><ele>246.33333333333331</ele><time>2026-05-03T06:56:18.999Z</time></trkpt><trkpt lat="43.412518203522396" lon="11.80346638344774"><ele>247.0</ele><time>2026-05-03T06:56:19.999Z</time></trkpt><trkpt lat="43.41261203898315" lon="11.803663505486448"><ele>247.0</ele><time>2026-05-03T06:56:20.999Z</time></trkpt><trkpt lat="43.412707021696406" lon="11.803862040989966"><ele>247.0</ele><time>2026-05-03T06:56:21.999Z</time></trkpt><trkpt lat="43.412803266271695" lon="11.804062427179954"><ele>247.0</ele><time>2026-05-03T06:56:22.999Z</time></trkpt><trkpt lat="43.41290281428266" lon="11.804267787999827"><ele>246.66666666666666</ele><time>2026-05-03T06:56:23.999Z</time></trkpt><trkpt lat="43.41300203459156" lon="11.804474985780844"><ele>246.33333333333331</ele><time>2026-05-03T06:56:24.999Z</time></trkpt><trkpt lat="43.41310438925154" lon="11.804684181935391"><ele>246.0</ele><time>2026-05-03T06:56:25.999Z</time></trkpt><trkpt lat="43.41320267705271" lon="11.804896019006135"><ele>246.0</ele><time>2026-05-03T06:56:26.999Z</time></trkpt><trkpt lat="43.41330435370148" lon="11.805109927671507"><ele>246.0</ele><time>2026-05-03T06:56:27.999Z</time></trkpt><trkpt lat="43.41340772539902" lon="11.805329384538284"><ele>246.0</ele><time>2026-05-03T06:56:28.999Z</time></trkpt><trkpt lat="43.41350733348853" lon="11.805548377776022"><ele>246.0</ele><time>2026-05-03T06:56:29.999Z</time></trkpt><trkpt lat="43.413615136119745" lon="11.805768727133994"><ele>246.0</ele><time>2026-05-03T06:56:30.999Z</time></trkpt><trkpt lat="43.41372094117043" lon="11.805989619142862"><ele>246.0</ele><time>2026-05-03T06:56:31.999Z</time></trkpt><trkpt lat="43.413826952906135" lon="11.806213918054903"><ele>246.0</ele><time>2026-05-03T06:56:32.999Z</time></trkpt><trkpt lat="43.413933355750096" lon="11.806439276738054"><ele>246.0</ele><time>2026-05-03T06:56:33.999Z</time></trkpt><trkpt lat="43.41403926161045" lon="11.80666607016596"><ele>246.0</ele><time>2026-05-03T06:56:34.999Z</time></trkpt><trkpt lat="43.41414807044214" lon="11.806893775554308"><ele>245.33333333333331</ele><time>2026-05-03T06:56:35.999Z</time></trkpt><trkpt lat="43.414255917050056" lon="11.80712382726214"><ele>244.66666666666666</ele><time>2026-05-03T06:56:36.999Z</time></trkpt><trkpt lat="43.41436792129825" lon="11.80735503666791"><ele>244.0</ele><time>2026-05-03T06:56:37.999Z</time></trkpt><trkpt lat="43.414474018193594" lon="11.807584452575378"><ele>243.66666666666666</ele><time>2026-05-03T06:56:38.999Z</time></trkpt><trkpt lat="43.4145871148812" lon="11.807821022203125"><ele>243.33333333333331</ele><time>2026-05-03T06:56:39.999Z</time></trkpt><trkpt lat="43.41469764440883" lon="11.808054797140008"><ele>243.0</ele><time>2026-05-03T06:56:40.999Z</time></trkpt><trkpt lat="43.41481272990768" lon="11.80829422873474"><ele>243.66666666666669</ele><time>2026-05-03T06:56:41.999Z</time></trkpt><trkpt lat="43.41492702925554" lon="11.80853289188817"><ele>244.33333333333334</ele><time>2026-05-03T06:56:42.999Z</time></trkpt><trkpt lat="43.41504473246348" lon="11.808774278941494"><ele>245.0</ele><time>2026-05-03T06:56:43.999Z</time></trkpt><trkpt lat="43.41515961026578" lon="11.809018277536094"><ele>245.0</ele><time>2026-05-03T06:56:44.999Z</time></trkpt><trkpt lat="43.41527575603364" lon="11.809263241712845"><ele>245.0</ele><time>2026-05-03T06:56:45.999Z</time></trkpt><trkpt lat="43.415392072735706" lon="11.809510138088186"><ele>245.0</ele><time>2026-05-03T06:56:46.999Z</time></trkpt><trkpt lat="43.41550983356259" lon="11.809759032731407"><ele>244.66666666666669</ele><time>2026-05-03T06:56:47.999Z</time></trkpt><trkpt lat="43.415632187872355" lon="11.81000892751386"><ele>244.33333333333331</ele><time>2026-05-03T06:56:48.999Z</time></trkpt><trkpt lat="43.41575268628078" lon="11.810264103652077"><ele>244.0</ele><time>2026-05-03T06:56:49.999Z</time></trkpt><trkpt lat="43.41587511944315" lon="11.810517381938546"><ele>244.0</ele><time>2026-05-03T06:56:50.999Z</time></trkpt><trkpt lat="43.41599837900079" lon="11.810776771732973"><ele>244.0</ele><time>2026-05-03T06:56:51.999Z</time></trkpt><trkpt lat="43.41612086602946" lon="11.811036430182641"><ele>243.5</ele><time>2026-05-03T06:56:52.999Z</time></trkpt><trkpt lat="43.4162447111015" lon="11.811298867941032"><ele>243.0</ele><time>2026-05-03T06:56:53.999Z</time></trkpt><trkpt lat="43.41636834330312" lon="11.811562814183722"><ele>244.0</ele><time>2026-05-03T06:56:55Z</time></trkpt><trkpt lat="43.416492237035115" lon="11.81182707951114"><ele>245.0</ele><time>2026-05-03T06:56:56Z</time></trkpt><trkpt lat="43.41661917252958" lon="11.812098167506903"><ele>245.0</ele><time>2026-05-03T06:56:57Z</time></trkpt><trkpt lat="43.41674633040969" lon="11.81236580050385"><ele>245.0</ele><time>2026-05-03T06:56:58Z</time></trkpt><trkpt lat="43.41687572542621" lon="11.812631838377664"><ele>245.5</ele><time>2026-05-03T06:56:59Z</time></trkpt><trkpt lat="43.41700652300495" lon="11.812898217037617"><ele>246.0</ele><time>2026-05-03T06:57:00Z</time></trkpt><trkpt lat="43.41713585420939" lon="11.813165030291257"><ele>245.0</ele><time>2026-05-03T06:57:01Z</time></trkpt><trkpt lat="43.417265208194465" lon="11.813433285903885"><ele>244.0</ele><time>2026-05-03T06:57:02Z</time></trkpt><trkpt lat="43.41739320874734" lon="11.813700847170589"><ele>244.0</ele><time>2026-05-03T06:57:03Z</time></trkpt><trkpt lat="43.41751883818949" lon="11.81396485219703"><ele>244.0</ele><time>2026-05-03T06:57:04Z</time></trkpt><trkpt lat="43.417644615316604" lon="11.814222213833212"><ele>243.0</ele><time>2026-05-03T06:57:05Z</time></trkpt><trkpt lat="43.41776667317591" lon="11.814469531995682"><ele>242.0</ele><time>2026-05-03T06:57:06Z</time></trkpt><trkpt lat="43.41788842315778" lon="11.814716513231575"><ele>241.0</ele><time>2026-05-03T06:57:07Z</time></trkpt><trkpt lat="43.41800431155536" lon="11.81495791311813"><ele>241.33333333333331</ele><time>2026-05-03T06:57:08Z</time></trkpt><trkpt lat="43.418115232210155" lon="11.815195835845381"><ele>241.66666666666669</ele><time>2026-05-03T06:57:09Z</time></trkpt><trkpt lat="43.41823188603197" lon="11.815426601739777"><ele>242.0</ele><time>2026-05-03T06:57:10Z</time></trkpt><trkpt lat="43.41834694780575" lon="11.81566433952416"><ele>242.0</ele><time>2026-05-03T06:57:11Z</time></trkpt><trkpt lat="43.41844937306837" lon="11.81588265815102"><ele>242.0</ele><time>2026-05-03T06:57:12Z</time></trkpt><trkpt lat="43.41856370215411" lon="11.81611649085602"><ele>242.0</ele><time>2026-05-03T06:57:13Z</time></trkpt><trkpt lat="43.41867446956274" lon="11.816342741733198"><ele>242.66666666666669</ele><time>2026-05-03T06:57:14Z</time></trkpt><trkpt lat="43.418780577415106" lon="11.816574227647692"><ele>243.33333333333331</ele><time>2026-05-03T06:57:15Z</time></trkpt><trkpt lat="43.418888351692345" lon="11.816803946737355"><ele>244.0</ele><time>2026-05-03T06:57:16Z</time></trkpt><trkpt lat="43.41899261984928" lon="11.817039770400838"><ele>244.0</ele><time>2026-05-03T06:57:17Z</time></trkpt><trkpt lat="43.4190972643146" lon="11.817265635423244"><ele>244.0</ele><time>2026-05-03T06:57:18Z</time></trkpt><trkpt lat="43.419201724147655" lon="11.81747923281682"><ele>244.0</ele><time>2026-05-03T06:57:19Z</time></trkpt><trkpt lat="43.419296991953246" lon="11.817700147281156"><ele>244.0</ele><time>2026-05-03T06:57:20Z</time></trkpt><trkpt lat="43.41940160374262" lon="11.8179210195871"><ele>244.0</ele><time>2026-05-03T06:57:21Z</time></trkpt><trkpt lat="43.41951240142882" lon="11.818145634062594"><ele>244.0</ele><time>2026-05-03T06:57:22Z</time></trkpt><trkpt lat="43.41962985054995" lon="11.818362470818979"><ele>244.33333333333331</ele><time>2026-05-03T06:57:23Z</time></trkpt><trkpt lat="43.41974617582427" lon="11.818585602182123"><ele>244.66666666666669</ele><time>2026-05-03T06:57:24Z</time></trkpt><trkpt lat="43.41985758111447" lon="11.818821290198173"><ele>245.0</ele><time>2026-05-03T06:57:25Z</time></trkpt><trkpt lat="43.41995858801109" lon="11.819063749165842"><ele>245.0</ele><time>2026-05-03T06:57:26Z</time></trkpt><trkpt lat="43.4200635027273" lon="11.81931326387511"><ele>245.0</ele><time>2026-05-03T06:57:27Z</time></trkpt><trkpt lat="43.42016594263787" lon="11.819547793302425"><ele>245.0</ele><time>2026-05-03T06:57:28Z</time></trkpt><trkpt lat="43.42024906732241" lon="11.81972797872983"><ele>245.0</ele><time>2026-05-03T06:57:29Z</time></trkpt><trkpt lat="43.42033885228756" lon="11.819918359398816"><ele>245.0</ele><time>2026-05-03T06:57:30Z</time></trkpt><trkpt lat="43.420437359595354" lon="11.820118920018093"><ele>245.0</ele><time>2026-05-03T06:57:31Z</time></trkpt><trkpt lat="43.4205324277251" lon="11.820329262180955"><ele>245.0</ele><time>2026-05-03T06:57:32Z</time></trkpt><trkpt lat="43.42063083832849" lon="11.820528929398181"><ele>245.0</ele><time>2026-05-03T06:57:33Z</time></trkpt><trkpt lat="43.42073213101932" lon="11.82073760549451"><ele>245.0</ele><time>2026-05-03T06:57:34Z</time></trkpt><trkpt lat="43.4208313691545" lon="11.820946821057717"><ele>244.66666666666669</ele><time>2026-05-03T06:57:35Z</time></trkpt><trkpt lat="43.42092790736484" lon="11.821161014381637"><ele>244.33333333333331</ele><time>2026-05-03T06:57:36Z</time></trkpt><trkpt lat="43.42102870219533" lon="11.821375063371915"><ele>244.0</ele><time>2026-05-03T06:57:37Z</time></trkpt><trkpt lat="43.421135075744196" lon="11.82159292321178"><ele>244.0</ele><time>2026-05-03T06:57:38Z</time></trkpt><trkpt lat="43.42123617918899" lon="11.82180456417011"><ele>244.0</ele><time>2026-05-03T06:57:39Z</time></trkpt><trkpt lat="43.4213415815743" lon="11.822018940142184"><ele>244.0</ele><time>2026-05-03T06:57:40Z</time></trkpt><trkpt lat="43.42144118331784" lon="11.82223698723437"><ele>244.33333333333331</ele><time>2026-05-03T06:57:41Z</time></trkpt><trkpt lat="43.421539579261385" lon="11.82246052739775"><ele>244.66666666666669</ele><time>2026-05-03T06:57:42Z</time></trkpt><trkpt lat="43.4216379250354" lon="11.822677890387544"><ele>245.0</ele><time>2026-05-03T06:57:43Z</time></trkpt><trkpt lat="43.42174375315085" lon="11.822896997247511"><ele>244.33333333333334</ele><time>2026-05-03T06:57:44Z</time></trkpt><trkpt lat="43.421845607331356" lon="11.823111656191319"><ele>243.66666666666669</ele><time>2026-05-03T06:57:45Z</time></trkpt><trkpt lat="43.421948644717396" lon="11.823333191750766"><ele>243.0</ele><time>2026-05-03T06:57:46Z</time></trkpt><trkpt lat="43.422050762564346" lon="11.823553762513722"><ele>243.66666666666669</ele><time>2026-05-03T06:57:47Z</time></trkpt><trkpt lat="43.42215481702346" lon="11.823770864196105"><ele>244.33333333333334</ele><time>2026-05-03T06:57:48Z</time></trkpt><trkpt lat="43.42226045866269" lon="11.823990672396596"><ele>245.0</ele><time>2026-05-03T06:57:49Z</time></trkpt><trkpt lat="43.422360641451334" lon="11.824214387165949"><ele>244.66666666666669</ele><time>2026-05-03T06:57:49.999Z</time></trkpt><trkpt lat="43.422465362419956" lon="11.824433355998817"><ele>244.33333333333331</ele><time>2026-05-03T06:57:50.999Z</time></trkpt><trkpt lat="43.422571415814794" lon="11.824652953047002"><ele>244.0</ele><time>2026-05-03T06:57:51.999Z</time></trkpt><trkpt lat="43.42267589257064" lon="11.824876469755177"><ele>244.0</ele><time>2026-05-03T06:57:52.999Z</time></trkpt><trkpt lat="43.42278132792754" lon="11.825099274519049"><ele>244.0</ele><time>2026-05-03T06:57:53.999Z</time></trkpt><trkpt lat="43.422888444478" lon="11.825320864877563"><ele>244.0</ele><time>2026-05-03T06:57:54.999Z</time></trkpt><trkpt lat="43.42299663864747" lon="11.825541952854714"><ele>245.0</ele><time>2026-05-03T06:57:55.999Z</time></trkpt><trkpt lat="43.42310335904604" lon="11.825762201719536"><ele>246.0</ele><time>2026-05-03T06:57:56.999Z</time></trkpt><trkpt lat="43.4232090739893" lon="11.825986498573924"><ele>247.0</ele><time>2026-05-03T06:57:57.999Z</time></trkpt><trkpt lat="43.423314814241365" lon="11.826214765224384"><ele>247.33333333333331</ele><time>2026-05-03T06:57:58.999Z</time></trkpt><trkpt lat="43.42341467164817" lon="11.826444522832945"><ele>247.66666666666669</ele><time>2026-05-03T06:57:59.999Z</time></trkpt><trkpt lat="43.42352320738923" lon="11.826658007452075"><ele>248.0</ele><time>2026-05-03T06:58:00.999Z</time></trkpt><trkpt lat="43.423627957935885" lon="11.82688103145786"><ele>248.0</ele><time>2026-05-03T06:58:01.999Z</time></trkpt><trkpt lat="43.423732757092885" lon="11.827104107460245"><ele>248.0</ele><time>2026-05-03T06:58:02.999Z</time></trkpt><trkpt lat="43.423840584059796" lon="11.827325349655553"><ele>248.0</ele><time>2026-05-03T06:58:03.999Z</time></trkpt><trkpt lat="43.42394625396872" lon="11.827548272809114"><ele>247.66666666666669</ele><time>2026-05-03T06:58:04.999Z</time></trkpt><trkpt lat="43.424053028107885" lon="11.827766869214678"><ele>247.33333333333331</ele><time>2026-05-03T06:58:05.999Z</time></trkpt><trkpt lat="43.424157965941056" lon="11.827988626997723"><ele>247.0</ele><time>2026-05-03T06:58:06.999Z</time></trkpt><trkpt lat="43.42426263182306" lon="11.828212110305973"><ele>247.0</ele><time>2026-05-03T06:58:07.999Z</time></trkpt><trkpt lat="43.42436647305044" lon="11.828428566862913"><ele>247.0</ele><time>2026-05-03T06:58:08.999Z</time></trkpt><trkpt lat="43.42446993333426" lon="11.82864560740066"><ele>247.0</ele><time>2026-05-03T06:58:09.999Z</time></trkpt><trkpt lat="43.42457543851134" lon="11.828862938597972"><ele>247.0</ele><time>2026-05-03T06:58:10.999Z</time></trkpt><trkpt lat="43.42467834741286" lon="11.82907858833608"><ele>247.0</ele><time>2026-05-03T06:58:11.999Z</time></trkpt><trkpt lat="43.42478269887366" lon="11.829295458236206"><ele>247.0</ele><time>2026-05-03T06:58:12.999Z</time></trkpt><trkpt lat="43.424885215333695" lon="11.829507923097873"><ele>247.0</ele><time>2026-05-03T06:58:13.999Z</time></trkpt><trkpt lat="43.424989903725226" lon="11.82972107309827"><ele>247.0</ele><time>2026-05-03T06:58:14.999Z</time></trkpt><trkpt lat="43.42509290532899" lon="11.829933124974302"><ele>247.0</ele><time>2026-05-03T06:58:15.999Z</time></trkpt><trkpt lat="43.425196627867344" lon="11.830146694755467"><ele>247.0</ele><time>2026-05-03T06:58:16.999Z</time></trkpt><trkpt lat="43.4252982021023" lon="11.830356594862156"><ele>247.0</ele><time>2026-05-03T06:58:17.999Z</time></trkpt><trkpt lat="43.42540335109074" lon="11.830567582109113"><ele>247.0</ele><time>2026-05-03T06:58:18.999Z</time></trkpt><trkpt lat="43.42550537979424" lon="11.830776976493619"><ele>247.0</ele><time>2026-05-03T06:58:19.999Z</time></trkpt><trkpt lat="43.425604882643114" lon="11.830974277042532"><ele>247.0</ele><time>2026-05-03T06:58:20.999Z</time></trkpt><trkpt lat="43.42569995738806" lon="11.831163581561276"><ele>247.0</ele><time>2026-05-03T06:58:21.999Z</time></trkpt><trkpt lat="43.42578951418046" lon="11.831343267402014"><ele>247.0</ele><time>2026-05-03T06:58:22.999Z</time></trkpt><trkpt lat="43.425875562445555" lon="11.831515125914413"><ele>247.0</ele><time>2026-05-03T06:58:23.999Z</time></trkpt><trkpt lat="43.425957145828335" lon="11.831671718545035"><ele>247.0</ele><time>2026-05-03T06:58:24.999Z</time></trkpt><trkpt lat="43.426032723261365" lon="11.831826240014859"><ele>247.0</ele><time>2026-05-03T06:58:25.999Z</time></trkpt><trkpt lat="43.426106168761066" lon="11.831955620911081"><ele>247.0</ele><time>2026-05-03T06:58:26.999Z</time></trkpt><trkpt lat="43.426169361692274" lon="11.832078171403445"><ele>247.0</ele><time>2026-05-03T06:58:27.999Z</time></trkpt><trkpt lat="43.42623299659297" lon="11.832192707987758"><ele>247.0</ele><time>2026-05-03T06:58:28.999Z</time></trkpt><trkpt lat="43.42628783079616" lon="11.832297597695622"><ele>247.0</ele><time>2026-05-03T06:58:29.999Z</time></trkpt><trkpt lat="43.426328870096654" lon="11.832382961683992"><ele>247.0</ele><time>2026-05-03T06:58:30.999Z</time></trkpt><trkpt lat="43.42639242681923" lon="11.832509717474728"><ele>247.16666666666666</ele><time>2026-05-03T06:58:32.999Z</time></trkpt><trkpt lat="43.426427597872134" lon="11.8325906593332"><ele>247.33333333333331</ele><time>2026-05-03T06:58:34.999Z</time></trkpt><trkpt lat="43.42647892395384" lon="11.832695196965192"><ele>247.5</ele><time>2026-05-03T06:58:47.999Z</time></trkpt><trkpt lat="43.42651777679211" lon="11.832781460962284"><ele>247.66666666666669</ele><time>2026-05-03T06:58:48.999Z</time></trkpt><trkpt lat="43.426563355946136" lon="11.832887754518659"><ele>247.83333333333334</ele><time>2026-05-03T06:58:49.999Z</time></trkpt><trkpt lat="43.426618848197045" lon="11.833010882166993"><ele>248.0</ele><time>2026-05-03T06:58:50.999Z</time></trkpt><trkpt lat="43.42667902842643" lon="11.833139076728434"><ele>248.25</ele><time>2026-05-03T06:58:51.999Z</time></trkpt><trkpt lat="43.426750298374095" lon="11.83328245815595"><ele>248.5</ele><time>2026-05-03T06:58:52.999Z</time></trkpt><trkpt lat="43.42682666213242" lon="11.83342725903897"><ele>248.75</ele><time>2026-05-03T06:58:53.999Z</time></trkpt><trkpt lat="43.426904568867535" lon="11.833583669298871"><ele>249.0</ele><time>2026-05-03T06:58:54.999Z</time></trkpt><trkpt lat="43.42698531189868" lon="11.833749037367982"><ele>248.33333333333331</ele><time>2026-05-03T06:58:55.999Z</time></trkpt><trkpt lat="43.42707015964769" lon="11.833919639284941"><ele>247.66666666666666</ele><time>2026-05-03T06:58:56.999Z</time></trkpt><trkpt lat="43.42715815037283" lon="11.834097044133346"><ele>247.0</ele><time>2026-05-03T06:58:57.999Z</time></trkpt><trkpt lat="43.4272492207158" lon="11.834282876790693"><ele>248.33333333333331</ele><time>2026-05-03T06:58:58.999Z</time></trkpt><trkpt lat="43.427342340752794" lon="11.834472041516614"><ele>249.66666666666669</ele><time>2026-05-03T06:59:00Z</time></trkpt><trkpt lat="43.42743460340393" lon="11.83466420632368"><ele>251.0</ele><time>2026-05-03T06:59:01Z</time></trkpt><trkpt lat="43.427530439892685" lon="11.834859983204735"><ele>251.0</ele><time>2026-05-03T06:59:02Z</time></trkpt><trkpt lat="43.4276273473097" lon="11.835056915186168"><ele>251.0</ele><time>2026-05-03T06:59:03Z</time></trkpt><trkpt lat="43.42772606950313" lon="11.835256368169414"><ele>251.0</ele><time>2026-05-03T06:59:04Z</time></trkpt><trkpt lat="43.42782635012922" lon="11.835457425609272"><ele>251.0</ele><time>2026-05-03T06:59:05Z</time></trkpt><trkpt lat="43.427926112965544" lon="11.835657577740267"><ele>251.0</ele><time>2026-05-03T06:59:06Z</time></trkpt><trkpt lat="43.42802783979228" lon="11.835859827585375"><ele>251.0</ele><time>2026-05-03T06:59:07Z</time></trkpt><trkpt lat="43.428125942814376" lon="11.836062623352866"><ele>252.66666666666669</ele><time>2026-05-03T06:59:08Z</time></trkpt><trkpt lat="43.42822653665896" lon="11.83626453876436"><ele>254.33333333333331</ele><time>2026-05-03T06:59:09Z</time></trkpt><trkpt lat="43.42832521557062" lon="11.836465727568962"><ele>256.0</ele><time>2026-05-03T06:59:10Z</time></trkpt><trkpt lat="43.42842415865825" lon="11.836670722356564"><ele>256.3333333333333</ele><time>2026-05-03T06:59:11Z</time></trkpt><trkpt lat="43.428521512006014" lon="11.836870759295687"><ele>256.6666666666667</ele><time>2026-05-03T06:59:12Z</time></trkpt><trkpt lat="43.42862264461841" lon="11.837068901548822"><ele>257.0</ele><time>2026-05-03T06:59:13Z</time></trkpt><trkpt lat="43.428725051149726" lon="11.837266844777748"><ele>258.6666666666667</ele><time>2026-05-03T06:59:14Z</time></trkpt><trkpt lat="43.42882165031917" lon="11.837469755687168"><ele>260.3333333333333</ele><time>2026-05-03T06:59:15Z</time></trkpt><trkpt lat="43.42892060262498" lon="11.837676051262935"><ele>262.0</ele><time>2026-05-03T06:59:16Z</time></trkpt><trkpt lat="43.42902424307434" lon="11.83787864729484"><ele>262.0</ele><time>2026-05-03T06:59:17Z</time></trkpt><trkpt lat="43.42913083362964" lon="11.83808607985393"><ele>262.0</ele><time>2026-05-03T06:59:18Z</time></trkpt><trkpt lat="43.42923947731493" lon="11.838289778471257"><ele>262.0</ele><time>2026-05-03T06:59:19Z</time></trkpt><trkpt lat="43.429348384163646" lon="11.838495240166818"><ele>261.3333333333333</ele><time>2026-05-03T06:59:20Z</time></trkpt><trkpt lat="43.42945745549689" lon="11.838704718345147"><ele>260.6666666666667</ele><time>2026-05-03T06:59:21Z</time></trkpt><trkpt lat="43.429570923906866" lon="11.838908669451756"><ele>260.0</ele><time>2026-05-03T06:59:22Z</time></trkpt><trkpt lat="43.42967866150194" lon="11.839117338351725"><ele>261.6666666666667</ele><time>2026-05-03T06:59:23Z</time></trkpt><trkpt lat="43.42979175674039" lon="11.839323176083807"><ele>263.3333333333333</ele><time>2026-05-03T06:59:24Z</time></trkpt><trkpt lat="43.42990138003666" lon="11.839530216743526"><ele>265.0</ele><time>2026-05-03T06:59:25Z</time></trkpt><trkpt lat="43.43001331044715" lon="11.839732732921535"><ele>265.0</ele><time>2026-05-03T06:59:26Z</time></trkpt><trkpt lat="43.43012004128106" lon="11.839938276227057"><ele>265.0</ele><time>2026-05-03T06:59:27Z</time></trkpt><trkpt lat="43.430233533779685" lon="11.840142862616538"><ele>265.0</ele><time>2026-05-03T06:59:28Z</time></trkpt><trkpt lat="43.43033672680931" lon="11.84034602236252"><ele>265.0</ele><time>2026-05-03T06:59:29Z</time></trkpt><trkpt lat="43.4304441019488" lon="11.840545227799456"><ele>265.0</ele><time>2026-05-03T06:59:30Z</time></trkpt><trkpt lat="43.430547106614114" lon="11.840742128261478"><ele>265.0</ele><time>2026-05-03T06:59:31Z</time></trkpt><trkpt lat="43.43065528604895" lon="11.840942427975769"><ele>264.3333333333333</ele><time>2026-05-03T06:59:32Z</time></trkpt><trkpt lat="43.43076211629986" lon="11.841133951321599"><ele>263.6666666666667</ele><time>2026-05-03T06:59:33Z</time></trkpt><trkpt lat="43.43087660092974" lon="11.84132143965439"><ele>263.0</ele><time>2026-05-03T06:59:34Z</time></trkpt><trkpt lat="43.43100200788405" lon="11.841486019888078"><ele>263.0</ele><time>2026-05-03T06:59:35Z</time></trkpt><trkpt lat="43.43113293874478" lon="11.841632143066157"><ele>263.0</ele><time>2026-05-03T06:59:36Z</time></trkpt><trkpt lat="43.431270292251746" lon="11.841769082698445"><ele>263.0</ele><time>2026-05-03T06:59:37Z</time></trkpt><trkpt lat="43.431403853533425" lon="11.841905429020699"><ele>263.5</ele><time>2026-05-03T06:59:38Z</time></trkpt><trkpt lat="43.431532137196115" lon="11.842038397169928"><ele>264.0</ele><time>2026-05-03T06:59:39Z</time></trkpt><trkpt lat="43.43165253705653" lon="11.842158832988519"><ele>264.5</ele><time>2026-05-03T06:59:40Z</time></trkpt><trkpt lat="43.43176261538312" lon="11.842273911802316"><ele>265.0</ele><time>2026-05-03T06:59:41Z</time></trkpt><trkpt lat="43.43187547097331" lon="11.842389735657326"><ele>265.0</ele><time>2026-05-03T06:59:42Z</time></trkpt><trkpt lat="43.43199074661503" lon="11.842508095776466"><ele>265.0</ele><time>2026-05-03T06:59:43Z</time></trkpt><trkpt lat="43.43210649507718" lon="11.842623284295275"><ele>265.0</ele><time>2026-05-03T06:59:44Z</time></trkpt><trkpt lat="43.4322220067921" lon="11.842741922722952"><ele>265.0</ele><time>2026-05-03T06:59:44.999Z</time></trkpt><trkpt lat="43.43233280542625" lon="11.842856901605487"><ele>265.75</ele><time>2026-05-03T06:59:45.999Z</time></trkpt><trkpt lat="43.43244661938585" lon="11.8429738954318"><ele>266.5</ele><time>2026-05-03T06:59:46.999Z</time></trkpt><trkpt lat="43.43255856948109" lon="11.843093829061614"><ele>267.25</ele><time>2026-05-03T06:59:47.999Z</time></trkpt><trkpt lat="43.43267050688492" lon="11.843214238012719"><ele>268.0</ele><time>2026-05-03T06:59:48.999Z</time></trkpt><trkpt lat="43.4327838651379" lon="11.84333260906765"><ele>268.0</ele><time>2026-05-03T06:59:49.999Z</time></trkpt><trkpt lat="43.43289756428198" lon="11.843457815619383"><ele>268.0</ele><time>2026-05-03T06:59:50.999Z</time></trkpt><trkpt lat="43.43300710424161" lon="11.843593903517984"><ele>268.0</ele><time>2026-05-03T06:59:51.999Z</time></trkpt><trkpt lat="43.43311474235976" lon="11.843743465031782"><ele>268.0</ele><time>2026-05-03T06:59:52.999Z</time></trkpt><trkpt lat="43.43321867782373" lon="11.843899993577768"><ele>268.66666666666663</ele><time>2026-05-03T06:59:53.999Z</time></trkpt><trkpt lat="43.43331803372605" lon="11.844071450446263"><ele>269.3333333333333</ele><time>2026-05-03T06:59:54.999Z</time></trkpt><trkpt lat="43.43340941019998" lon="11.844253431374156"><ele>270.0</ele><time>2026-05-03T06:59:55.999Z</time></trkpt><trkpt lat="43.433500676256784" lon="11.844443378928315"><ele>270.0</ele><time>2026-05-03T06:59:56.999Z</time></trkpt><trkpt lat="43.43359195243426" lon="11.84463304537604"><ele>270.0</ele><time>2026-05-03T06:59:57.999Z</time></trkpt><trkpt lat="43.43368134897349" lon="11.84482369532194"><ele>270.0</ele><time>2026-05-03T06:59:58.999Z</time></trkpt><trkpt lat="43.43377242416252" lon="11.845013271321568"><ele>271.0</ele><time>2026-05-03T06:59:59.999Z</time></trkpt><trkpt lat="43.4338656916923" lon="11.84520256952506"><ele>272.0</ele><time>2026-05-03T07:00:00.999Z</time></trkpt><trkpt lat="43.43395659588387" lon="11.845391587234225"><ele>273.0</ele><time>2026-05-03T07:00:01.999Z</time></trkpt><trkpt lat="43.43404789712427" lon="11.845583235263673"><ele>273.0</ele><time>2026-05-03T07:00:02.999Z</time></trkpt><trkpt lat="43.43413718532537" lon="11.845771394577467"><ele>273.0</ele><time>2026-05-03T07:00:03.999Z</time></trkpt><trkpt lat="43.43422824736242" lon="11.845962544462367"><ele>273.0</ele><time>2026-05-03T07:00:04.999Z</time></trkpt><trkpt lat="43.43431951513287" lon="11.846152462717184"><ele>273.0</ele><time>2026-05-03T07:00:05.999Z</time></trkpt><trkpt lat="43.434409079580725" lon="11.846338246064576"><ele>273.0</ele><time>2026-05-03T07:00:06.999Z</time></trkpt><trkpt lat="43.434498172663176" lon="11.84652653862952"><ele>273.0</ele><time>2026-05-03T07:00:07.999Z</time></trkpt><trkpt lat="43.43458635900347" lon="11.846711440437668"><ele>274.3333333333333</ele><time>2026-05-03T07:00:08.999Z</time></trkpt><trkpt lat="43.43467435418095" lon="11.846898953583445"><ele>275.66666666666663</ele><time>2026-05-03T07:00:09.999Z</time></trkpt><trkpt lat="43.43476170396222" lon="11.847083992697947"><ele>277.0</ele><time>2026-05-03T07:00:10.999Z</time></trkpt><trkpt lat="43.4348487256902" lon="11.847270807011377"><ele>277.0</ele><time>2026-05-03T07:00:11.999Z</time></trkpt><trkpt lat="43.43493594013444" lon="11.847454981912271"><ele>277.0</ele><time>2026-05-03T07:00:12.999Z</time></trkpt><trkpt lat="43.43502349672668" lon="11.847637994406325"><ele>277.0</ele><time>2026-05-03T07:00:13.999Z</time></trkpt><trkpt lat="43.4351118783421" lon="11.847821499777343"><ele>276.66666666666663</ele><time>2026-05-03T07:00:14.999Z</time></trkpt><trkpt lat="43.435196960433814" lon="11.848003413545932"><ele>276.3333333333333</ele><time>2026-05-03T07:00:15.999Z</time></trkpt><trkpt lat="43.43527841827396" lon="11.848183891510208"><ele>276.0</ele><time>2026-05-03T07:00:16.999Z</time></trkpt><trkpt lat="43.43535931274031" lon="11.84835553531188"><ele>277.0</ele><time>2026-05-03T07:00:17.999Z</time></trkpt><trkpt lat="43.435434658181975" lon="11.848518059771193"><ele>278.0</ele><time>2026-05-03T07:00:18.999Z</time></trkpt><trkpt lat="43.43550723167693" lon="11.84867077574419"><ele>279.0</ele><time>2026-05-03T07:00:19.999Z</time></trkpt><trkpt lat="43.43557496178405" lon="11.848810154514299"><ele>280.0</ele><time>2026-05-03T07:00:20.999Z</time></trkpt><trkpt lat="43.435637985355115" lon="11.84894204759999"><ele>280.0</ele><time>2026-05-03T07:00:21.999Z</time></trkpt><trkpt lat="43.435694376913496" lon="11.849065409228018"><ele>280.0</ele><time>2026-05-03T07:00:22.999Z</time></trkpt><trkpt lat="43.435746878382005" lon="11.849176923588821"><ele>280.0</ele><time>2026-05-03T07:00:23.999Z</time></trkpt><trkpt lat="43.43579102793438" lon="11.84928401189349"><ele>280.0</ele><time>2026-05-03T07:00:24.999Z</time></trkpt><trkpt lat="43.43581134420811" lon="11.849388192856598"><ele>280.0</ele><time>2026-05-03T07:00:25.999Z</time></trkpt><trkpt lat="43.43579983120425" lon="11.849488182255554"><ele>280.0</ele><time>2026-05-03T07:00:26.999Z</time></trkpt><trkpt lat="43.43576666053703" lon="11.849571143849515"><ele>280.2</ele><time>2026-05-03T07:00:27.999Z</time></trkpt><trkpt lat="43.43572788116328" lon="11.849642475280588"><ele>280.4</ele><time>2026-05-03T07:00:28.999Z</time></trkpt><trkpt lat="43.435688433641424" lon="11.84976890851739"><ele>280.6</ele><time>2026-05-03T07:00:30.999Z</time></trkpt><trkpt lat="43.43568930495304" lon="11.849913695633136"><ele>280.8</ele><time>2026-05-03T07:00:32.999Z</time></trkpt><trkpt lat="43.435753684101996" lon="11.850066232487373"><ele>281.0</ele><time>2026-05-03T07:00:34.999Z</time></trkpt><trkpt lat="43.435806004235666" lon="11.850158269821646"><ele>281.75</ele><time>2026-05-03T07:00:35.999Z</time></trkpt><trkpt lat="43.43586672899245" lon="11.850276286606375"><ele>282.5</ele><time>2026-05-03T07:00:36.999Z</time></trkpt><trkpt lat="43.43592154438456" lon="11.850414385096677"><ele>283.25</ele><time>2026-05-03T07:00:37.999Z</time></trkpt><trkpt lat="43.43597977469788" lon="11.850552946475222"><ele>284.0</ele><time>2026-05-03T07:00:38.999Z</time></trkpt><trkpt lat="43.43605814002538" lon="11.850675496355802"><ele>284.0</ele><time>2026-05-03T07:00:39.999Z</time></trkpt><trkpt lat="43.43615599826834" lon="11.850797039789548"><ele>284.0</ele><time>2026-05-03T07:00:40.999Z</time></trkpt><trkpt lat="43.43626225555384" lon="11.850914983917242"><ele>284.0</ele><time>2026-05-03T07:00:41.999Z</time></trkpt><trkpt lat="43.436366298338655" lon="11.851038884560637"><ele>284.0</ele><time>2026-05-03T07:00:42.999Z</time></trkpt><trkpt lat="43.43646796481711" lon="11.85115871961625"><ele>284.25</ele><time>2026-05-03T07:00:43.999Z</time></trkpt><trkpt lat="43.43657003522914" lon="11.85127976014345"><ele>284.5</ele><time>2026-05-03T07:00:44.999Z</time></trkpt><trkpt lat="43.43666834989771" lon="11.85140399148299"><ele>284.75</ele><time>2026-05-03T07:00:45.999Z</time></trkpt><trkpt lat="43.43676711971404" lon="11.851527817931926"><ele>285.0</ele><time>2026-05-03T07:00:46.999Z</time></trkpt><trkpt lat="43.436871030082365" lon="11.851649253411832"><ele>285.0</ele><time>2026-05-03T07:00:47.999Z</time></trkpt><trkpt lat="43.436977534549435" lon="11.851771377793632"><ele>285.0</ele><time>2026-05-03T07:00:48.999Z</time></trkpt><trkpt lat="43.437086550670216" lon="11.851890399708187"><ele>285.0</ele><time>2026-05-03T07:00:49.999Z</time></trkpt><trkpt lat="43.43719635959018" lon="11.852007116096944"><ele>285.0</ele><time>2026-05-03T07:00:50.999Z</time></trkpt><trkpt lat="43.43731111595762" lon="11.852127038445893"><ele>283.6666666666667</ele><time>2026-05-03T07:00:51.999Z</time></trkpt><trkpt lat="43.43742994485718" lon="11.85225048612493"><ele>282.33333333333337</ele><time>2026-05-03T07:00:52.999Z</time></trkpt><trkpt lat="43.43755498842428" lon="11.852373673421594"><ele>281.0</ele><time>2026-05-03T07:00:53.999Z</time></trkpt><trkpt lat="43.43768403493403" lon="11.85249511714893"><ele>281.0</ele><time>2026-05-03T07:00:54.999Z</time></trkpt><trkpt lat="43.43781958264172" lon="11.852611640059722"><ele>281.0</ele><time>2026-05-03T07:00:55.999Z</time></trkpt><trkpt lat="43.437967427943505" lon="11.852719026351572"><ele>281.0</ele><time>2026-05-03T07:00:56.999Z</time></trkpt><trkpt lat="43.43812659016999" lon="11.852821337619334"><ele>282.33333333333337</ele><time>2026-05-03T07:00:57.999Z</time></trkpt><trkpt lat="43.43828845230327" lon="11.852920466846276"><ele>283.6666666666667</ele><time>2026-05-03T07:00:58.999Z</time></trkpt><trkpt lat="43.43845170209289" lon="11.853019603988322"><ele>285.0</ele><time>2026-05-03T07:00:59.999Z</time></trkpt><trkpt lat="43.43861396748219" lon="11.853119059036306"><ele>285.0</ele><time>2026-05-03T07:01:00.999Z</time></trkpt><trkpt lat="43.43877819221117" lon="11.853216975658066"><ele>285.0</ele><time>2026-05-03T07:01:01.999Z</time></trkpt><trkpt lat="43.43894264609612" lon="11.853316236145607"><ele>285.0</ele><time>2026-05-03T07:01:02.999Z</time></trkpt><trkpt lat="43.43910745363246" lon="11.853418102082962"><ele>285.0</ele><time>2026-05-03T07:01:03.999Z</time></trkpt><trkpt lat="43.43927367815432" lon="11.853519471937176"><ele>285.0</ele><time>2026-05-03T07:01:04.999Z</time></trkpt><trkpt lat="43.43944274271129" lon="11.853620024304183"><ele>285.0</ele><time>2026-05-03T07:01:06Z</time></trkpt><trkpt lat="43.439611214070716" lon="11.853723632983293"><ele>281.3333333333333</ele><time>2026-05-03T07:01:07Z</time></trkpt><trkpt lat="43.43978119441606" lon="11.853827211960603"><ele>277.66666666666663</ele><time>2026-05-03T07:01:08Z</time></trkpt><trkpt lat="43.439948591792415" lon="11.8539320061229"><ele>274.0</ele><time>2026-05-03T07:01:09Z</time></trkpt><trkpt lat="43.440116037243655" lon="11.85404046075536"><ele>274.0</ele><time>2026-05-03T07:01:10Z</time></trkpt><trkpt lat="43.44028432764634" lon="11.854155590501703"><ele>274.0</ele><time>2026-05-03T07:01:11Z</time></trkpt><trkpt lat="43.44044778578653" lon="11.85428163674919"><ele>274.0</ele><time>2026-05-03T07:01:12Z</time></trkpt><trkpt lat="43.440605954050106" lon="11.854421313234482"><ele>274.66666666666663</ele><time>2026-05-03T07:01:13Z</time></trkpt><trkpt lat="43.4407591806329" lon="11.854572235598958"><ele>275.3333333333333</ele><time>2026-05-03T07:01:14Z</time></trkpt><trkpt lat="43.440909299710604" lon="11.854736964876462"><ele>276.0</ele><time>2026-05-03T07:01:15Z</time></trkpt><trkpt lat="43.441055676902295" lon="11.854912492533241"><ele>276.0</ele><time>2026-05-03T07:01:16Z</time></trkpt><trkpt lat="43.441191725957765" lon="11.855098887929962"><ele>276.0</ele><time>2026-05-03T07:01:17Z</time></trkpt><trkpt lat="43.44132112164301" lon="11.855295982459623"><ele>276.0</ele><time>2026-05-03T07:01:18Z</time></trkpt><trkpt lat="43.44144230026614" lon="11.855505122625932"><ele>272.0</ele><time>2026-05-03T07:01:19Z</time></trkpt><trkpt lat="43.44155429923907" lon="11.855724326685612"><ele>268.0</ele><time>2026-05-03T07:01:20Z</time></trkpt><trkpt lat="43.44165984832605" lon="11.855953026393948"><ele>264.0</ele><time>2026-05-03T07:01:21Z</time></trkpt><trkpt lat="43.44175724607948" lon="11.856189596745315"><ele>263.0</ele><time>2026-05-03T07:01:22Z</time></trkpt><trkpt lat="43.44184981774319" lon="11.856426643296725"><ele>262.0</ele><time>2026-05-03T07:01:23Z</time></trkpt><trkpt lat="43.44194087720406" lon="11.856662310190757"><ele>261.0</ele><time>2026-05-03T07:01:24Z</time></trkpt><trkpt lat="43.4420329700616" lon="11.856898278374599"><ele>259.3333333333333</ele><time>2026-05-03T07:01:25Z</time></trkpt><trkpt lat="43.44212528257282" lon="11.85713315220197"><ele>257.66666666666663</ele><time>2026-05-03T07:01:26Z</time></trkpt><trkpt lat="43.44221668873235" lon="11.857367846798228"><ele>256.0</ele><time>2026-05-03T07:01:27Z</time></trkpt><trkpt lat="43.442307134435076" lon="11.857602659292072"><ele>256.0</ele><time>2026-05-03T07:01:28Z</time></trkpt><trkpt lat="43.4423973743113" lon="11.857837631877326"><ele>256.0</ele><time>2026-05-03T07:01:29Z</time></trkpt><trkpt lat="43.44248520376114" lon="11.858069079448562"><ele>256.0</ele><time>2026-05-03T07:01:30Z</time></trkpt><trkpt lat="43.442573481061046" lon="11.858298418625093"><ele>255.66666666666666</ele><time>2026-05-03T07:01:31Z</time></trkpt><trkpt lat="43.44266016714812" lon="11.858527390068293"><ele>255.33333333333331</ele><time>2026-05-03T07:01:32Z</time></trkpt><trkpt lat="43.442748348007704" lon="11.85875573082372"><ele>255.0</ele><time>2026-05-03T07:01:33Z</time></trkpt><trkpt lat="43.44283642495104" lon="11.858984539269535"><ele>255.0</ele><time>2026-05-03T07:01:34Z</time></trkpt><trkpt lat="43.44292561877531" lon="11.859215715130121"><ele>255.0</ele><time>2026-05-03T07:01:35Z</time></trkpt><trkpt lat="43.4430149218629" lon="11.859448341004043"><ele>255.0</ele><time>2026-05-03T07:01:36Z</time></trkpt><trkpt lat="43.44310581318747" lon="11.85968179398232"><ele>254.66666666666669</ele><time>2026-05-03T07:01:37Z</time></trkpt><trkpt lat="43.443196320882855" lon="11.859914087118979"><ele>254.33333333333334</ele><time>2026-05-03T07:01:38Z</time></trkpt><trkpt lat="43.44328577387448" lon="11.860145145503413"><ele>254.0</ele><time>2026-05-03T07:01:39Z</time></trkpt><trkpt lat="43.44337414016225" lon="11.860369961578282"><ele>254.0</ele><time>2026-05-03T07:01:40Z</time></trkpt><trkpt lat="43.44346304392313" lon="11.86059494259996"><ele>254.0</ele><time>2026-05-03T07:01:41Z</time></trkpt><trkpt lat="43.44355011596718" lon="11.860820120943846"><ele>254.0</ele><time>2026-05-03T07:01:42Z</time></trkpt><trkpt lat="43.44363129444823" lon="11.861034842262857"><ele>254.0</ele><time>2026-05-03T07:01:43Z</time></trkpt><trkpt lat="43.4437095373005" lon="11.861240640633865"><ele>254.0</ele><time>2026-05-03T07:01:44Z</time></trkpt><trkpt lat="43.44378744224032" lon="11.861445592743218"><ele>254.0</ele><time>2026-05-03T07:01:45Z</time></trkpt><trkpt lat="43.443864606832506" lon="11.861652491586561"><ele>255.0</ele><time>2026-05-03T07:01:46Z</time></trkpt><trkpt lat="43.44394502129815" lon="11.861857136749222"><ele>256.0</ele><time>2026-05-03T07:01:47Z</time></trkpt><trkpt lat="43.4440273738669" lon="11.862060849603985"><ele>257.0</ele><time>2026-05-03T07:01:48Z</time></trkpt><trkpt lat="43.44410954535201" lon="11.862266426946332"><ele>257.0</ele><time>2026-05-03T07:01:49Z</time></trkpt><trkpt lat="43.44419371074303" lon="11.862473485772027"><ele>257.0</ele><time>2026-05-03T07:01:50Z</time></trkpt><trkpt lat="43.44428019626062" lon="11.862682638661777"><ele>257.0</ele><time>2026-05-03T07:01:50.999Z</time></trkpt><trkpt lat="43.44436949900163" lon="11.862891365494793"><ele>257.0</ele><time>2026-05-03T07:01:51.999Z</time></trkpt><trkpt lat="43.44446028526539" lon="11.863103971103408"><ele>257.0</ele><time>2026-05-03T07:01:52.999Z</time></trkpt><trkpt lat="43.44454754379323" lon="11.863315525336708"><ele>257.0</ele><time>2026-05-03T07:01:53.999Z</time></trkpt><trkpt lat="43.44463487493572" lon="11.863530088229695"><ele>257.0</ele><time>2026-05-03T07:01:54.999Z</time></trkpt><trkpt lat="43.444725474661965" lon="11.863746038726777"><ele>257.0</ele><time>2026-05-03T07:01:55.999Z</time></trkpt><trkpt lat="43.44481561447077" lon="11.8639581881341"><ele>257.0</ele><time>2026-05-03T07:01:56.999Z</time></trkpt><trkpt lat="43.44490634975733" lon="11.86417397205644"><ele>256.6666666666667</ele><time>2026-05-03T07:01:57.999Z</time></trkpt><trkpt lat="43.44499603745497" lon="11.864389867443807"><ele>256.3333333333333</ele><time>2026-05-03T07:01:58.999Z</time></trkpt><trkpt lat="43.44508576924183" lon="11.864606706504388"><ele>256.0</ele><time>2026-05-03T07:01:59.999Z</time></trkpt><trkpt lat="43.44517064991515" lon="11.864817386462299"><ele>256.0</ele><time>2026-05-03T07:02:00.999Z</time></trkpt><trkpt lat="43.445256058141325" lon="11.865024458341535"><ele>256.0</ele><time>2026-05-03T07:02:01.999Z</time></trkpt><trkpt lat="43.44534105610352" lon="11.865227807570546"><ele>256.0</ele><time>2026-05-03T07:02:02.999Z</time></trkpt><trkpt lat="43.445426912392115" lon="11.865432681280167"><ele>256.66666666666663</ele><time>2026-05-03T07:02:03.999Z</time></trkpt><trkpt lat="43.44551040756679" lon="11.865639182486674"><ele>257.3333333333333</ele><time>2026-05-03T07:02:04.999Z</time></trkpt><trkpt lat="43.445594875655516" lon="11.865845498309582"><ele>258.0</ele><time>2026-05-03T07:02:05.999Z</time></trkpt><trkpt lat="43.44568085377153" lon="11.866048992494731"><ele>258.0</ele><time>2026-05-03T07:02:06.999Z</time></trkpt><trkpt lat="43.44576180951504" lon="11.866242878565545"><ele>258.0</ele><time>2026-05-03T07:02:07.999Z</time></trkpt><trkpt lat="43.4458427216102" lon="11.86643819083175"><ele>258.0</ele><time>2026-05-03T07:02:08.999Z</time></trkpt><trkpt lat="43.4459248839498" lon="11.866638698621891"><ele>257.6666666666667</ele><time>2026-05-03T07:02:09.999Z</time></trkpt><trkpt lat="43.44600946816128" lon="11.866844151176265"><ele>257.33333333333337</ele><time>2026-05-03T07:02:10.999Z</time></trkpt><trkpt lat="43.446095351152195" lon="11.867051081357081"><ele>257.0</ele><time>2026-05-03T07:02:11.999Z</time></trkpt><trkpt lat="43.44618155774077" lon="11.867260828798003"><ele>257.0</ele><time>2026-05-03T07:02:12.999Z</time></trkpt><trkpt lat="43.44626779617033" lon="11.867475477976804"><ele>257.0</ele><time>2026-05-03T07:02:13.999Z</time></trkpt><trkpt lat="43.44635318195778" lon="11.867697383130746"><ele>257.0</ele><time>2026-05-03T07:02:14.999Z</time></trkpt><trkpt lat="43.446437687236156" lon="11.867928100540412"><ele>257.33333333333337</ele><time>2026-05-03T07:02:15.999Z</time></trkpt><trkpt lat="43.446521261058265" lon="11.868166440740987"><ele>257.6666666666667</ele><time>2026-05-03T07:02:16.999Z</time></trkpt><trkpt lat="43.44660532095512" lon="11.86841323881244"><ele>258.0</ele><time>2026-05-03T07:02:17.999Z</time></trkpt><trkpt lat="43.44668862598096" lon="11.868665374622147"><ele>258.0</ele><time>2026-05-03T07:02:18.999Z</time></trkpt><trkpt lat="43.446769383292526" lon="11.86891771707467"><ele>258.0</ele><time>2026-05-03T07:02:19.999Z</time></trkpt><trkpt lat="43.446853270107596" lon="11.86917559212838"><ele>258.0</ele><time>2026-05-03T07:02:20.999Z</time></trkpt><trkpt lat="43.44693709134356" lon="11.869440892061752"><ele>257.3333333333333</ele><time>2026-05-03T07:02:21.999Z</time></trkpt><trkpt lat="43.44700363240443" lon="11.869683486619806"><ele>256.66666666666663</ele><time>2026-05-03T07:02:22.999Z</time></trkpt><trkpt lat="43.44706813565114" lon="11.869942789208524"><ele>256.0</ele><time>2026-05-03T07:02:23.999Z</time></trkpt><trkpt lat="43.447136423672234" lon="11.870197928779096"><ele>255.66666666666666</ele><time>2026-05-03T07:02:24.999Z</time></trkpt><trkpt lat="43.44720136513674" lon="11.870457133591259"><ele>255.33333333333331</ele><time>2026-05-03T07:02:25.999Z</time></trkpt><trkpt lat="43.44726025935701" lon="11.870704448557618"><ele>255.0</ele><time>2026-05-03T07:02:26.999Z</time></trkpt><trkpt lat="43.447315035922" lon="11.870937507591334"><ele>255.0</ele><time>2026-05-03T07:02:27.999Z</time></trkpt><trkpt lat="43.44736463726135" lon="11.871172551410972"><ele>255.0</ele><time>2026-05-03T07:02:28.999Z</time></trkpt><trkpt lat="43.44741244633096" lon="11.871422499962735"><ele>255.0</ele><time>2026-05-03T07:02:29.999Z</time></trkpt><trkpt lat="43.447462680070146" lon="11.871675624085295"><ele>255.66666666666669</ele><time>2026-05-03T07:02:30.999Z</time></trkpt><trkpt lat="43.44750364274303" lon="11.871945185443556"><ele>256.33333333333337</ele><time>2026-05-03T07:02:31.999Z</time></trkpt><trkpt lat="43.4475323078937" lon="11.872233367112168"><ele>257.0</ele><time>2026-05-03T07:02:32.999Z</time></trkpt><trkpt lat="43.44754494482108" lon="11.872532582423757"><ele>256.5</ele><time>2026-05-03T07:02:33.999Z</time></trkpt><trkpt lat="43.44754055832506" lon="11.87284430696421"><ele>256.0</ele><time>2026-05-03T07:02:34.999Z</time></trkpt><trkpt lat="43.44752578422444" lon="11.873160199013638"><ele>256.5</ele><time>2026-05-03T07:02:35.999Z</time></trkpt><trkpt lat="43.447505140035986" lon="11.873476974234267"><ele>257.0</ele><time>2026-05-03T07:02:36.999Z</time></trkpt><trkpt lat="43.447464271081415" lon="11.87378654779038"><ele>257.0</ele><time>2026-05-03T07:02:37.999Z</time></trkpt><trkpt lat="43.44741036921457" lon="11.874088268010034"><ele>257.0</ele><time>2026-05-03T07:02:38.999Z</time></trkpt><trkpt lat="43.44734485376575" lon="11.874383531034402"><ele>257.0</ele><time>2026-05-03T07:02:39.999Z</time></trkpt><trkpt lat="43.44724932674073" lon="11.8746586989909"><ele>257.0</ele><time>2026-05-03T07:02:40.999Z</time></trkpt><trkpt lat="43.44715882324636" lon="11.874932341377688"><ele>257.0</ele><time>2026-05-03T07:02:41.999Z</time></trkpt><trkpt lat="43.44705591983711" lon="11.87519726465998"><ele>257.0</ele><time>2026-05-03T07:02:42.999Z</time></trkpt><trkpt lat="43.4469413358316" lon="11.875444079297445"><ele>257.0</ele><time>2026-05-03T07:02:43.999Z</time></trkpt><trkpt lat="43.44682138048773" lon="11.875684834418502"><ele>257.0</ele><time>2026-05-03T07:02:44.999Z</time></trkpt><trkpt lat="43.446679253044316" lon="11.875907084204053"><ele>257.6666666666667</ele><time>2026-05-03T07:02:45.999Z</time></trkpt><trkpt lat="43.446540182483325" lon="11.876133417335028"><ele>258.3333333333333</ele><time>2026-05-03T07:02:46.999Z</time></trkpt><trkpt lat="43.44640773470001" lon="11.876366471824996"><ele>259.0</ele><time>2026-05-03T07:02:47.999Z</time></trkpt><trkpt lat="43.446266219815634" lon="11.876592570114388"><ele>259.0</ele><time>2026-05-03T07:02:48.999Z</time></trkpt><trkpt lat="43.446127165463544" lon="11.876814708879715"><ele>259.0</ele><time>2026-05-03T07:02:49.999Z</time></trkpt><trkpt lat="43.44598893823093" lon="11.877042380505072"><ele>259.0</ele><time>2026-05-03T07:02:50.999Z</time></trkpt><trkpt lat="43.44585155425147" lon="11.877269031101669"><ele>259.0</ele><time>2026-05-03T07:02:51.999Z</time></trkpt><trkpt lat="43.44572239234057" lon="11.877510782124398"><ele>259.0</ele><time>2026-05-03T07:02:52.999Z</time></trkpt><trkpt lat="43.445591993471155" lon="11.877751063475282"><ele>259.0</ele><time>2026-05-03T07:02:53.999Z</time></trkpt><trkpt lat="43.44546151220626" lon="11.87798991773233"><ele>259.3333333333333</ele><time>2026-05-03T07:02:54.999Z</time></trkpt><trkpt lat="43.44533924808416" lon="11.878239502742765"><ele>259.6666666666667</ele><time>2026-05-03T07:02:55.999Z</time></trkpt><trkpt lat="43.445221308122484" lon="11.878495134667409"><ele>260.0</ele><time>2026-05-03T07:02:56.999Z</time></trkpt><trkpt lat="43.44511287894939" lon="11.878755862083308"><ele>260.33333333333337</ele><time>2026-05-03T07:02:57.999Z</time></trkpt><trkpt lat="43.44500834053786" lon="11.879016452857549"><ele>260.6666666666667</ele><time>2026-05-03T07:02:58.999Z</time></trkpt><trkpt lat="43.44491015934612" lon="11.87927475457028"><ele>261.0</ele><time>2026-05-03T07:02:59.999Z</time></trkpt><trkpt lat="43.44481641135234" lon="11.879542471986516"><ele>261.3333333333333</ele><time>2026-05-03T07:03:00.999Z</time></trkpt><trkpt lat="43.44473138657792" lon="11.879810469463052"><ele>261.66666666666663</ele><time>2026-05-03T07:03:01.999Z</time></trkpt><trkpt lat="43.4446521259117" lon="11.880084008523594"><ele>262.0</ele><time>2026-05-03T07:03:02.999Z</time></trkpt><trkpt lat="43.444577673497314" lon="11.880352911104321"><ele>262.3333333333333</ele><time>2026-05-03T07:03:03.999Z</time></trkpt><trkpt lat="43.44449992728642" lon="11.880620069901756"><ele>262.6666666666667</ele><time>2026-05-03T07:03:04.999Z</time></trkpt><trkpt lat="43.44443170096514" lon="11.880891035769473"><ele>263.0</ele><time>2026-05-03T07:03:05.999Z</time></trkpt><trkpt lat="43.44437579521272" lon="11.881173757933254"><ele>263.0</ele><time>2026-05-03T07:03:06.999Z</time></trkpt><trkpt lat="43.44432047632565" lon="11.881454397842399"><ele>263.0</ele><time>2026-05-03T07:03:07.999Z</time></trkpt><trkpt lat="43.44427131390289" lon="11.881739032926559"><ele>263.0</ele><time>2026-05-03T07:03:08.999Z</time></trkpt><trkpt lat="43.44422458527797" lon="11.882026636145428"><ele>264.0</ele><time>2026-05-03T07:03:09.999Z</time></trkpt><trkpt lat="43.44417624522959" lon="11.882307608931173"><ele>265.0</ele><time>2026-05-03T07:03:10.999Z</time></trkpt><trkpt lat="43.44414436369653" lon="11.882602863044966"><ele>266.0</ele><time>2026-05-03T07:03:12Z</time></trkpt><trkpt lat="43.444122301271356" lon="11.88289509050888"><ele>266.33333333333337</ele><time>2026-05-03T07:03:13Z</time></trkpt><trkpt lat="43.444102246411134" lon="11.883189748404007"><ele>266.6666666666667</ele><time>2026-05-03T07:03:14Z</time></trkpt><trkpt lat="43.44408053533838" lon="11.883480225088986"><ele>267.0</ele><time>2026-05-03T07:03:15Z</time></trkpt><trkpt lat="43.44406701612004" lon="11.88377761902774"><ele>269.6666666666667</ele><time>2026-05-03T07:03:16Z</time></trkpt><trkpt lat="43.444058806557386" lon="11.884076573530914"><ele>272.33333333333337</ele><time>2026-05-03T07:03:17Z</time></trkpt><trkpt lat="43.444058398504474" lon="11.884378228099271"><ele>275.0</ele><time>2026-05-03T07:03:18Z</time></trkpt><trkpt lat="43.44405390833742" lon="11.88467705861799"><ele>276.0</ele><time>2026-05-03T07:03:19Z</time></trkpt><trkpt lat="43.444051349188534" lon="11.88498608736528"><ele>277.0</ele><time>2026-05-03T07:03:20Z</time></trkpt><trkpt lat="43.44404351418613" lon="11.885288226246086"><ele>278.0</ele><time>2026-05-03T07:03:21Z</time></trkpt><trkpt lat="43.444041378386544" lon="11.885597021446957"><ele>278.33333333333337</ele><time>2026-05-03T07:03:22Z</time></trkpt><trkpt lat="43.44404062653562" lon="11.885898553722141"><ele>278.6666666666667</ele><time>2026-05-03T07:03:23Z</time></trkpt><trkpt lat="43.44403153007942" lon="11.88619762924463"><ele>279.0</ele><time>2026-05-03T07:03:24Z</time></trkpt><trkpt lat="43.44402281174608" lon="11.886499889609105"><ele>278.3333333333333</ele><time>2026-05-03T07:03:25Z</time></trkpt><trkpt lat="43.44401310335745" lon="11.886801406754504"><ele>277.66666666666663</ele><time>2026-05-03T07:03:26Z</time></trkpt><trkpt lat="43.443992411067974" lon="11.887099014544498"><ele>277.0</ele><time>2026-05-03T07:03:27Z</time></trkpt><trkpt lat="43.443971408776726" lon="11.8873939047568"><ele>276.3333333333333</ele><time>2026-05-03T07:03:28Z</time></trkpt><trkpt lat="43.44394659155982" lon="11.887692150503106"><ele>275.6666666666667</ele><time>2026-05-03T07:03:29Z</time></trkpt><trkpt lat="43.443916900705354" lon="11.887983901581388"><ele>275.0</ele><time>2026-05-03T07:03:30Z</time></trkpt><trkpt lat="43.443882107664955" lon="11.888279918901087"><ele>274.0</ele><time>2026-05-03T07:03:31Z</time></trkpt><trkpt lat="43.44384675554162" lon="11.888575111113132"><ele>273.0</ele><time>2026-05-03T07:03:32Z</time></trkpt><trkpt lat="43.44381067704364" lon="11.888868857253328"><ele>272.0</ele><time>2026-05-03T07:03:33Z</time></trkpt><trkpt lat="43.443771526382534" lon="11.889160996429906"><ele>277.0</ele><time>2026-05-03T07:03:34Z</time></trkpt><trkpt lat="43.44373767452894" lon="11.889456810438993"><ele>282.0</ele><time>2026-05-03T07:03:35Z</time></trkpt><trkpt lat="43.443699924294584" lon="11.889749877715186"><ele>287.0</ele><time>2026-05-03T07:03:36Z</time></trkpt><trkpt lat="43.44366399400923" lon="11.890039889871534"><ele>287.33333333333337</ele><time>2026-05-03T07:03:37Z</time></trkpt><trkpt lat="43.4436281125295" lon="11.890330522160008"><ele>287.6666666666667</ele><time>2026-05-03T07:03:38Z</time></trkpt><trkpt lat="43.44359031471213" lon="11.890624104207475"><ele>288.0</ele><time>2026-05-03T07:03:39Z</time></trkpt><trkpt lat="43.44355438065391" lon="11.890909958970996"><ele>287.3333333333333</ele><time>2026-05-03T07:03:40Z</time></trkpt><trkpt lat="43.44351994839081" lon="11.89118955598078"><ele>286.66666666666663</ele><time>2026-05-03T07:03:41Z</time></trkpt><trkpt lat="43.443484541189285" lon="11.891468594097718"><ele>286.0</ele><time>2026-05-03T07:03:42Z</time></trkpt><trkpt lat="43.44344803493611" lon="11.891749435662874"><ele>286.0</ele><time>2026-05-03T07:03:43Z</time></trkpt><trkpt lat="43.443412530034635" lon="11.89202692675812"><ele>286.0</ele><time>2026-05-03T07:03:44Z</time></trkpt><trkpt lat="43.443370062828386" lon="11.892299262435843"><ele>286.0</ele><time>2026-05-03T07:03:45Z</time></trkpt><trkpt lat="43.44332900599685" lon="11.892565123151213"><ele>288.3333333333333</ele><time>2026-05-03T07:03:46Z</time></trkpt><trkpt lat="43.44328818148593" lon="11.89283744437695"><ele>290.6666666666667</ele><time>2026-05-03T07:03:47Z</time></trkpt><trkpt lat="43.443243507148054" lon="11.893101176279334"><ele>293.0</ele><time>2026-05-03T07:03:48Z</time></trkpt><trkpt lat="43.44319885091533" lon="11.893364088254371"><ele>296.33333333333337</ele><time>2026-05-03T07:03:49Z</time></trkpt><trkpt lat="43.44315387094618" lon="11.893627004692284"><ele>299.6666666666667</ele><time>2026-05-03T07:03:50Z</time></trkpt><trkpt lat="43.44310836899081" lon="11.893888645971806"><ele>303.0</ele><time>2026-05-03T07:03:51Z</time></trkpt><trkpt lat="43.443059067914014" lon="11.894143786814356"><ele>302.0</ele><time>2026-05-03T07:03:52Z</time></trkpt><trkpt lat="43.44301343114075" lon="11.894401574238808"><ele>301.0</ele><time>2026-05-03T07:03:53Z</time></trkpt><trkpt lat="43.44297357509725" lon="11.894664064471419"><ele>300.0</ele><time>2026-05-03T07:03:54Z</time></trkpt><trkpt lat="43.442935596877234" lon="11.894926775414504"><ele>300.3333333333333</ele><time>2026-05-03T07:03:55Z</time></trkpt><trkpt lat="43.44289714353309" lon="11.895182012914244"><ele>300.66666666666663</ele><time>2026-05-03T07:03:56Z</time></trkpt><trkpt lat="43.44285900341473" lon="11.895438151651835"><ele>301.0</ele><time>2026-05-03T07:03:56.999Z</time></trkpt><trkpt lat="43.4428253384577" lon="11.895698641953667"><ele>302.66666666666663</ele><time>2026-05-03T07:03:57.999Z</time></trkpt><trkpt lat="43.442790435625625" lon="11.895949795725217"><ele>304.3333333333333</ele><time>2026-05-03T07:03:58.999Z</time></trkpt><trkpt lat="43.44274824842347" lon="11.896196420194988"><ele>306.0</ele><time>2026-05-03T07:03:59.999Z</time></trkpt><trkpt lat="43.44271155774297" lon="11.896450888886404"><ele>306.0</ele><time>2026-05-03T07:04:00.999Z</time></trkpt><trkpt lat="43.442665570135766" lon="11.896704214352221"><ele>306.0</ele><time>2026-05-03T07:04:01.999Z</time></trkpt><trkpt lat="43.44259810419756" lon="11.896928176675452"><ele>306.0</ele><time>2026-05-03T07:04:02.999Z</time></trkpt><trkpt lat="43.44252103866412" lon="11.897145826010576"><ele>309.0</ele><time>2026-05-03T07:04:03.999Z</time></trkpt><trkpt lat="43.442428375932785" lon="11.897373947065201"><ele>312.0</ele><time>2026-05-03T07:04:04.999Z</time></trkpt><trkpt lat="43.442332503396585" lon="11.897592438659473"><ele>315.0</ele><time>2026-05-03T07:04:05.999Z</time></trkpt><trkpt lat="43.442226778401256" lon="11.897794661910268"><ele>313.3333333333333</ele><time>2026-05-03T07:04:06.999Z</time></trkpt><trkpt lat="43.442108909263126" lon="11.897982990474938"><ele>311.66666666666663</ele><time>2026-05-03T07:04:07.999Z</time></trkpt><trkpt lat="43.44198133583551" lon="11.898163855890806"><ele>310.0</ele><time>2026-05-03T07:04:08.999Z</time></trkpt><trkpt lat="43.441841471287695" lon="11.898333766032682"><ele>315.0</ele><time>2026-05-03T07:04:09.999Z</time></trkpt><trkpt lat="43.44168980259971" lon="11.898492919980482"><ele>320.0</ele><time>2026-05-03T07:04:10.999Z</time></trkpt><trkpt lat="43.44152515074955" lon="11.898641577129071"><ele>325.0</ele><time>2026-05-03T07:04:11.999Z</time></trkpt><trkpt lat="43.441347103872495" lon="11.898774403673192"><ele>325.0</ele><time>2026-05-03T07:04:12.999Z</time></trkpt><trkpt lat="43.44116534614424" lon="11.898887339629185"><ele>325.0</ele><time>2026-05-03T07:04:13.999Z</time></trkpt><trkpt lat="43.44097042870564" lon="11.898984106281018"><ele>325.0</ele><time>2026-05-03T07:04:14.999Z</time></trkpt><trkpt lat="43.440767415253305" lon="11.899062775380141"><ele>325.0</ele><time>2026-05-03T07:04:15.999Z</time></trkpt><trkpt lat="43.440559667237416" lon="11.899120822080057"><ele>325.0</ele><time>2026-05-03T07:04:16.999Z</time></trkpt><trkpt lat="43.44034686460816" lon="11.899159880150311"><ele>325.0</ele><time>2026-05-03T07:04:17.999Z</time></trkpt><trkpt lat="43.44012864437574" lon="11.899181809040996"><ele>326.5</ele><time>2026-05-03T07:04:18.999Z</time></trkpt><trkpt lat="43.439904733338935" lon="11.899194320563776"><ele>328.0</ele><time>2026-05-03T07:04:19.999Z</time></trkpt><trkpt lat="43.43967882270121" lon="11.899195917189507"><ele>323.0</ele><time>2026-05-03T07:04:20.999Z</time></trkpt><trkpt lat="43.43944785363807" lon="11.899202973455951"><ele>318.0</ele><time>2026-05-03T07:04:21.999Z</time></trkpt><trkpt lat="43.43921799487939" lon="11.89920932865241"><ele>318.0</ele><time>2026-05-03T07:04:22.999Z</time></trkpt><trkpt lat="43.43897868585662" lon="11.899247464921974"><ele>318.0</ele><time>2026-05-03T07:04:23.999Z</time></trkpt><trkpt lat="43.43874194098077" lon="11.8993119973815"><ele>324.0</ele><time>2026-05-03T07:04:24.999Z</time></trkpt><trkpt lat="43.43851504189812" lon="11.899411647771789"><ele>330.0</ele><time>2026-05-03T07:04:25.999Z</time></trkpt><trkpt lat="43.43829688924748" lon="11.899547544159777"><ele>330.0</ele><time>2026-05-03T07:04:26.999Z</time></trkpt><trkpt lat="43.43809133167629" lon="11.899706866683232"><ele>330.0</ele><time>2026-05-03T07:04:27.999Z</time></trkpt><trkpt lat="43.43789570737241" lon="11.89988666276782"><ele>335.0</ele><time>2026-05-03T07:04:28.999Z</time></trkpt><trkpt lat="43.437710381511316" lon="11.90008523935589"><ele>340.0</ele><time>2026-05-03T07:04:29.999Z</time></trkpt><trkpt lat="43.4375408773732" lon="11.900307345781185"><ele>340.0</ele><time>2026-05-03T07:04:30.999Z</time></trkpt><trkpt lat="43.43738620860922" lon="11.900550515187408"><ele>340.0</ele><time>2026-05-03T07:04:31.999Z</time></trkpt><trkpt lat="43.43724433389688" lon="11.900807601529399"><ele>336.0</ele><time>2026-05-03T07:04:32.999Z</time></trkpt><trkpt lat="43.437120217292666" lon="11.90108076971549"><ele>332.0</ele><time>2026-05-03T07:04:33.999Z</time></trkpt><trkpt lat="43.43701578239914" lon="11.901369160129258"><ele>332.0</ele><time>2026-05-03T07:04:34.999Z</time></trkpt><trkpt lat="43.436928607869575" lon="11.901667198161821"><ele>332.0</ele><time>2026-05-03T07:04:35.999Z</time></trkpt><trkpt lat="43.43685834717217" lon="11.901973415843374"><ele>336.0</ele><time>2026-05-03T07:04:36.999Z</time></trkpt><trkpt lat="43.4368080313559" lon="11.90228499311339"><ele>340.0</ele><time>2026-05-03T07:04:37.999Z</time></trkpt><trkpt lat="43.43677785788552" lon="11.90259828755974"><ele>340.5</ele><time>2026-05-03T07:04:38.999Z</time></trkpt><trkpt lat="43.43676837535624" lon="11.90291586923315"><ele>341.0</ele><time>2026-05-03T07:04:39.999Z</time></trkpt><trkpt lat="43.43678141280685" lon="11.903234336366538"><ele>340.0</ele><time>2026-05-03T07:04:40.999Z</time></trkpt><trkpt lat="43.43679577479258" lon="11.903552749970984"><ele>339.0</ele><time>2026-05-03T07:04:41.999Z</time></trkpt><trkpt lat="43.43680552469256" lon="11.90387050885554"><ele>339.0</ele><time>2026-05-03T07:04:42.999Z</time></trkpt><trkpt lat="43.43680630630938" lon="11.904188964825323"><ele>339.0</ele><time>2026-05-03T07:04:43.999Z</time></trkpt><trkpt lat="43.43679782865825" lon="11.90450369136249"><ele>345.5</ele><time>2026-05-03T07:04:44.999Z</time></trkpt><trkpt lat="43.43675525271247" lon="11.904813819284637"><ele>352.0</ele><time>2026-05-03T07:04:45.999Z</time></trkpt><trkpt lat="43.436724825247005" lon="11.905126159566578"><ele>358.5</ele><time>2026-05-03T07:04:46.999Z</time></trkpt><trkpt lat="43.43665669352074" lon="11.905429305616149"><ele>365.0</ele><time>2026-05-03T07:04:47.999Z</time></trkpt><trkpt lat="43.43657570223508" lon="11.905727200664467"><ele>368.5</ele><time>2026-05-03T07:04:48.999Z</time></trkpt><trkpt lat="43.43649515412323" lon="11.906026021605399"><ele>372.0</ele><time>2026-05-03T07:04:49.999Z</time></trkpt><trkpt lat="43.43642226455473" lon="11.906329426544419"><ele>372.0</ele><time>2026-05-03T07:04:50.999Z</time></trkpt><trkpt lat="43.436351588201696" lon="11.906631357391465"><ele>372.0</ele><time>2026-05-03T07:04:51.999Z</time></trkpt><trkpt lat="43.4362842267363" lon="11.906934004607796"><ele>376.5</ele><time>2026-05-03T07:04:52.999Z</time></trkpt><trkpt lat="43.43621628694655" lon="11.907234454340337"><ele>381.0</ele><time>2026-05-03T07:04:53.999Z</time></trkpt><trkpt lat="43.43614224490067" lon="11.907531608043977"><ele>375.5</ele><time>2026-05-03T07:04:54.999Z</time></trkpt><trkpt lat="43.43605332020943" lon="11.907817183063981"><ele>370.0</ele><time>2026-05-03T07:04:55.999Z</time></trkpt><trkpt lat="43.43594807885543" lon="11.908092694266335"><ele>370.0</ele><time>2026-05-03T07:04:56.999Z</time></trkpt><trkpt lat="43.43582776835097" lon="11.908356204884557"><ele>370.0</ele><time>2026-05-03T07:04:57.999Z</time></trkpt><trkpt lat="43.4356870293703" lon="11.908597376835859"><ele>367.0</ele><time>2026-05-03T07:04:58.999Z</time></trkpt><trkpt lat="43.435533525722335" lon="11.908819039430469"><ele>364.0</ele><time>2026-05-03T07:04:59.999Z</time></trkpt><trkpt lat="43.435371135276455" lon="11.909024024108287"><ele>361.0</ele><time>2026-05-03T07:05:00.999Z</time></trkpt><trkpt lat="43.43519640323916" lon="11.909207774099361"><ele>363.0</ele><time>2026-05-03T07:05:01.999Z</time></trkpt><trkpt lat="43.43501340697692" lon="11.909381573781328"><ele>365.0</ele><time>2026-05-03T07:05:02.999Z</time></trkpt><trkpt lat="43.43482322549925" lon="11.909540611683399"><ele>367.0</ele><time>2026-05-03T07:05:03.999Z</time></trkpt><trkpt lat="43.434629878451524" lon="11.90972428844865"><ele>373.5</ele><time>2026-05-03T07:05:04.999Z</time></trkpt><trkpt lat="43.43442520094698" lon="11.909899355606335"><ele>380.0</ele><time>2026-05-03T07:05:05.999Z</time></trkpt><trkpt lat="43.4342156918589" lon="11.910055374887897"><ele>378.5</ele><time>2026-05-03T07:05:06.999Z</time></trkpt><trkpt lat="43.43400795592794" lon="11.9102266081468"><ele>377.0</ele><time>2026-05-03T07:05:07.999Z</time></trkpt><trkpt lat="43.43380468222639" lon="11.910393235320573"><ele>383.5</ele><time>2026-05-03T07:05:08.999Z</time></trkpt><trkpt lat="43.43360894368149" lon="11.910556457857536"><ele>390.0</ele><time>2026-05-03T07:05:09.999Z</time></trkpt><trkpt lat="43.433406683749965" lon="11.910725018399507"><ele>390.0</ele><time>2026-05-03T07:05:10.999Z</time></trkpt><trkpt lat="43.43321084697822" lon="11.910901762526487"><ele>390.0</ele><time>2026-05-03T07:05:11.999Z</time></trkpt><trkpt lat="43.43302566028795" lon="11.911086460790571"><ele>393.0</ele><time>2026-05-03T07:05:12.999Z</time></trkpt><trkpt lat="43.43285044433928" lon="11.911289684772468"><ele>396.0</ele><time>2026-05-03T07:05:13.999Z</time></trkpt><trkpt lat="43.43267964324331" lon="11.911500951005035"><ele>396.0</ele><time>2026-05-03T07:05:14.999Z</time></trkpt><trkpt lat="43.432517027987764" lon="11.911725071695082"><ele>396.0</ele><time>2026-05-03T07:05:15.999Z</time></trkpt><trkpt lat="43.43235753665524" lon="11.91196247020275"><ele>396.0</ele><time>2026-05-03T07:05:16.999Z</time></trkpt><trkpt lat="43.432211262222665" lon="11.912204017671245"><ele>396.0</ele><time>2026-05-03T07:05:18Z</time></trkpt><trkpt lat="43.43207462781435" lon="11.912459239731769"><ele>401.5</ele><time>2026-05-03T07:05:19Z</time></trkpt><trkpt lat="43.431946038549356" lon="11.91272311820833"><ele>407.0</ele><time>2026-05-03T07:05:20Z</time></trkpt><trkpt lat="43.43183297805554" lon="11.913005225513645"><ele>407.0</ele><time>2026-05-03T07:05:21Z</time></trkpt><trkpt lat="43.43173683611395" lon="11.913266012890787"><ele>407.0</ele><time>2026-05-03T07:05:22Z</time></trkpt><trkpt lat="43.43164379226442" lon="11.91353927171957"><ele>407.0</ele><time>2026-05-03T07:05:23Z</time></trkpt><trkpt lat="43.43155294038769" lon="11.913809123901377"><ele>407.5</ele><time>2026-05-03T07:05:24Z</time></trkpt><trkpt lat="43.431496917116434" lon="11.914207468216148"><ele>408.0</ele><time>2026-05-03T07:05:25Z</time></trkpt><trkpt lat="43.431445710964276" lon="11.914504969381134"><ele>404.5</ele><time>2026-05-03T07:05:26Z</time></trkpt><trkpt lat="43.43137341670497" lon="11.914820552632854"><ele>401.0</ele><time>2026-05-03T07:05:27Z</time></trkpt><trkpt lat="43.431294287413586" lon="11.915121534977628"><ele>408.5</ele><time>2026-05-03T07:05:28Z</time></trkpt><trkpt lat="43.43120291776882" lon="11.915418342652853"><ele>416.0</ele><time>2026-05-03T07:05:29Z</time></trkpt><trkpt lat="43.431100173357144" lon="11.915709015761271"><ele>409.5</ele><time>2026-05-03T07:05:30Z</time></trkpt><trkpt lat="43.430985161432204" lon="11.915995310236134"><ele>403.0</ele><time>2026-05-03T07:05:31Z</time></trkpt><trkpt lat="43.43085834214168" lon="11.916268101818215"><ele>403.0</ele><time>2026-05-03T07:05:32Z</time></trkpt><trkpt lat="43.430718556832744" lon="11.916534516046015"><ele>403.0</ele><time>2026-05-03T07:05:33Z</time></trkpt><trkpt lat="43.430563593202734" lon="11.916788548163138"><ele>407.0</ele><time>2026-05-03T07:05:34Z</time></trkpt><trkpt lat="43.430397107745584" lon="11.917031570137594"><ele>411.0</ele><time>2026-05-03T07:05:35Z</time></trkpt><trkpt lat="43.43021617088219" lon="11.91725277280341"><ele>411.0</ele><time>2026-05-03T07:05:36Z</time></trkpt><trkpt lat="43.43002380442573" lon="11.917455561073652"><ele>411.0</ele><time>2026-05-03T07:05:37Z</time></trkpt><trkpt lat="43.42982184168481" lon="11.917648979822893"><ele>409.5</ele><time>2026-05-03T07:05:38Z</time></trkpt><trkpt lat="43.429607049046616" lon="11.917819171706155"><ele>408.0</ele><time>2026-05-03T07:05:39Z</time></trkpt><trkpt lat="43.429385286875416" lon="11.917970473658116"><ele>408.0</ele><time>2026-05-03T07:05:40Z</time></trkpt><trkpt lat="43.42915499722549" lon="11.91809800365182"><ele>408.0</ele><time>2026-05-03T07:05:41Z</time></trkpt><trkpt lat="43.428918976624715" lon="11.918207805940376"><ele>412.0</ele><time>2026-05-03T07:05:42Z</time></trkpt><trkpt lat="43.42867823322399" lon="11.918296370065967"><ele>416.0</ele><time>2026-05-03T07:05:43Z</time></trkpt><trkpt lat="43.42843897986202" lon="11.918373398497677"><ele>410.5</ele><time>2026-05-03T07:05:44Z</time></trkpt><trkpt lat="43.42819741596796" lon="11.918455615212949"><ele>405.0</ele><time>2026-05-03T07:05:45Z</time></trkpt><trkpt lat="43.42795458555117" lon="11.918537630441618"><ele>405.0</ele><time>2026-05-03T07:05:46Z</time></trkpt><trkpt lat="43.42771348721779" lon="11.918619147389236"><ele>405.0</ele><time>2026-05-03T07:05:47Z</time></trkpt><trkpt lat="43.42747241399263" lon="11.918697254322206"><ele>405.0</ele><time>2026-05-03T07:05:48Z</time></trkpt><trkpt lat="43.427230557105915" lon="11.918777502241625"><ele>405.0</ele><time>2026-05-03T07:05:49Z</time></trkpt><trkpt lat="43.426989803376756" lon="11.918857507031332"><ele>412.5</ele><time>2026-05-03T07:05:50Z</time></trkpt><trkpt lat="43.42674960663253" lon="11.918941441993267"><ele>420.0</ele><time>2026-05-03T07:05:51Z</time></trkpt><trkpt lat="43.42651130557557" lon="11.919030489606172"><ele>423.0</ele><time>2026-05-03T07:05:52Z</time></trkpt><trkpt lat="43.42627560237906" lon="11.919131949909028"><ele>426.0</ele><time>2026-05-03T07:05:53Z</time></trkpt><trkpt lat="43.42604689761853" lon="11.9192501754977"><ele>426.0</ele><time>2026-05-03T07:05:54Z</time></trkpt><trkpt lat="43.425821635626775" lon="11.91938233861034"><ele>426.0</ele><time>2026-05-03T07:05:55Z</time></trkpt><trkpt lat="43.42560564656015" lon="11.919529997544217"><ele>431.5</ele><time>2026-05-03T07:05:56Z</time></trkpt><trkpt lat="43.42539011031515" lon="11.919681232116144"><ele>437.0</ele><time>2026-05-03T07:05:57Z</time></trkpt><trkpt lat="43.42517553293113" lon="11.919836387762443"><ele>437.0</ele><time>2026-05-03T07:05:58Z</time></trkpt><trkpt lat="43.424960947829604" lon="11.919987946496493"><ele>437.0</ele><time>2026-05-03T07:05:59Z</time></trkpt><trkpt lat="43.424749330603795" lon="11.920140936661666"><ele>434.0</ele><time>2026-05-03T07:06:00Z</time></trkpt><trkpt lat="43.424539741878725" lon="11.92029009430894"><ele>431.0</ele><time>2026-05-03T07:06:01Z</time></trkpt><trkpt lat="43.4243251240205" lon="11.920442400931261"><ele>431.0</ele><time>2026-05-03T07:06:02Z</time></trkpt><trkpt lat="43.42411316003453" lon="11.920593115488181"><ele>431.0</ele><time>2026-05-03T07:06:03Z</time></trkpt><trkpt lat="43.423904383437176" lon="11.920745859315005"><ele>435.0</ele><time>2026-05-03T07:06:04Z</time></trkpt><trkpt lat="43.42369411690926" lon="11.920898384936212"><ele>439.0</ele><time>2026-05-03T07:06:04.999Z</time></trkpt><trkpt lat="43.423481403342464" lon="11.921048281487801"><ele>439.0</ele><time>2026-05-03T07:06:05.999Z</time></trkpt><trkpt lat="43.42326789942187" lon="11.921197828505376"><ele>439.0</ele><time>2026-05-03T07:06:06.999Z</time></trkpt><trkpt lat="43.4230635794805" lon="11.921346122785511"><ele>445.0</ele><time>2026-05-03T07:06:07.999Z</time></trkpt><trkpt lat="43.42285002101973" lon="11.921491946549839"><ele>451.0</ele><time>2026-05-03T07:06:08.999Z</time></trkpt><trkpt lat="43.42263928946544" lon="11.921641516250737"><ele>445.0</ele><time>2026-05-03T07:06:09.999Z</time></trkpt><trkpt lat="43.422426132838176" lon="11.921790253302367"><ele>439.0</ele><time>2026-05-03T07:06:10.999Z</time></trkpt><trkpt lat="43.422215658264726" lon="11.921944609173483"><ele>449.0</ele><time>2026-05-03T07:06:11.999Z</time></trkpt><trkpt lat="43.42200361661191" lon="11.922103813548473"><ele>459.0</ele><time>2026-05-03T07:06:12.999Z</time></trkpt><trkpt lat="43.421793631328136" lon="11.922272722823116"><ele>459.0</ele><time>2026-05-03T07:06:13.999Z</time></trkpt><trkpt lat="43.42158889271579" lon="11.922446104670902"><ele>459.0</ele><time>2026-05-03T07:06:14.999Z</time></trkpt><trkpt lat="43.42138783217237" lon="11.922628626212266"><ele>453.5</ele><time>2026-05-03T07:06:15.999Z</time></trkpt><trkpt lat="43.42118584847198" lon="11.922819976763552"><ele>448.0</ele><time>2026-05-03T07:06:16.999Z</time></trkpt><trkpt lat="43.42098803999713" lon="11.923018594445592"><ele>448.0</ele><time>2026-05-03T07:06:17.999Z</time></trkpt><trkpt lat="43.420785074240065" lon="11.923220313955314"><ele>448.0</ele><time>2026-05-03T07:06:18.999Z</time></trkpt><trkpt lat="43.42058283874163" lon="11.92341860161344"><ele>451.5</ele><time>2026-05-03T07:06:19.999Z</time></trkpt><trkpt lat="43.42037999866363" lon="11.923618175757028"><ele>455.0</ele><time>2026-05-03T07:06:20.999Z</time></trkpt><trkpt lat="43.42017763719125" lon="11.923816262863605"><ele>455.0</ele><time>2026-05-03T07:06:21.999Z</time></trkpt><trkpt lat="43.41997344201741" lon="11.92401645012069"><ele>455.0</ele><time>2026-05-03T07:06:22.999Z</time></trkpt><trkpt lat="43.41977265572215" lon="11.924218923330153"><ele>467.0</ele><time>2026-05-03T07:06:23.999Z</time></trkpt><trkpt lat="43.41956980161926" lon="11.924416101707083"><ele>479.0</ele><time>2026-05-03T07:06:24.999Z</time></trkpt><trkpt lat="43.419365043291315" lon="11.924619473300861"><ele>479.0</ele><time>2026-05-03T07:06:25.999Z</time></trkpt><trkpt lat="43.41916116778151" lon="11.924818683661467"><ele>479.0</ele><time>2026-05-03T07:06:26.999Z</time></trkpt><trkpt lat="43.41896073865509" lon="11.925022799165447"><ele>477.0</ele><time>2026-05-03T07:06:27.999Z</time></trkpt><trkpt lat="43.418757623442524" lon="11.925220268343184"><ele>475.0</ele><time>2026-05-03T07:06:28.999Z</time></trkpt><trkpt lat="43.418557664063606" lon="11.925421319832491"><ele>475.0</ele><time>2026-05-03T07:06:29.999Z</time></trkpt><trkpt lat="43.41836250651933" lon="11.925627352089943"><ele>475.0</ele><time>2026-05-03T07:06:30.999Z</time></trkpt><trkpt lat="43.41817668736799" lon="11.925847277177871"><ele>470.5</ele><time>2026-05-03T07:06:31.999Z</time></trkpt><trkpt lat="43.41800442698487" lon="11.926090719298085"><ele>466.0</ele><time>2026-05-03T07:06:32.999Z</time></trkpt><trkpt lat="43.41784116035986" lon="11.926341972232997"><ele>473.0</ele><time>2026-05-03T07:06:33.999Z</time></trkpt><trkpt lat="43.41769450269884" lon="11.926612860862802"><ele>480.0</ele><time>2026-05-03T07:06:34.999Z</time></trkpt><trkpt lat="43.41756707739594" lon="11.92687982246051"><ele>480.0</ele><time>2026-05-03T07:06:35.999Z</time></trkpt><trkpt lat="43.41744930465066" lon="11.927168999458376"><ele>480.0</ele><time>2026-05-03T07:06:36.999Z</time></trkpt><trkpt lat="43.417346202882094" lon="11.927469273911884"><ele>478.0</ele><time>2026-05-03T07:06:37.999Z</time></trkpt><trkpt lat="43.41725481701564" lon="11.927772488686173"><ele>476.0</ele><time>2026-05-03T07:06:38.999Z</time></trkpt><trkpt lat="43.41717907187187" lon="11.92808685566617"><ele>490.0</ele><time>2026-05-03T07:06:39.999Z</time></trkpt><trkpt lat="43.4171102103757" lon="11.92840711399505"><ele>504.0</ele><time>2026-05-03T07:06:40.999Z</time></trkpt><trkpt lat="43.417045222950165" lon="11.928731366602843"><ele>504.0</ele><time>2026-05-03T07:06:41.999Z</time></trkpt><trkpt lat="43.41698606565985" lon="11.929058588077577"><ele>504.0</ele><time>2026-05-03T07:06:42.999Z</time></trkpt><trkpt lat="43.416929107124396" lon="11.92938773787045"><ele>505.5</ele><time>2026-05-03T07:06:43.999Z</time></trkpt><trkpt lat="43.41686900993375" lon="11.929718415514909"><ele>507.0</ele><time>2026-05-03T07:06:44.999Z</time></trkpt><trkpt lat="43.416810616930874" lon="11.930047217445683"><ele>505.0</ele><time>2026-05-03T07:06:45.999Z</time></trkpt><trkpt lat="43.41675194089993" lon="11.930372433889364"><ele>503.0</ele><time>2026-05-03T07:06:46.999Z</time></trkpt><trkpt lat="43.416693034648695" lon="11.93069686430853"><ele>505.5</ele><time>2026-05-03T07:06:47.999Z</time></trkpt><trkpt lat="43.416632321212596" lon="11.931018593682882"><ele>508.0</ele><time>2026-05-03T07:06:48.999Z</time></trkpt><trkpt lat="43.41657268456242" lon="11.931338856584137"><ele>508.0</ele><time>2026-05-03T07:06:49.999Z</time></trkpt><trkpt lat="43.41651781194316" lon="11.931660213160967"><ele>508.0</ele><time>2026-05-03T07:06:50.999Z</time></trkpt><trkpt lat="43.4164714953692" lon="11.93198822576652"><ele>509.0</ele><time>2026-05-03T07:06:51.999Z</time></trkpt><trkpt lat="43.41645412402161" lon="11.93231487041851"><ele>510.0</ele><time>2026-05-03T07:06:52.999Z</time></trkpt><trkpt lat="43.41646263600047" lon="11.93264816630625"><ele>510.0</ele><time>2026-05-03T07:06:53.999Z</time></trkpt><trkpt lat="43.4164926883846" lon="11.932982493830808"><ele>510.0</ele><time>2026-05-03T07:06:54.999Z</time></trkpt><trkpt lat="43.41654978210207" lon="11.933312082494325"><ele>505.0</ele><time>2026-05-03T07:06:55.999Z</time></trkpt><trkpt lat="43.41662523783316" lon="11.933631839619347"><ele>500.0</ele><time>2026-05-03T07:06:56.999Z</time></trkpt><trkpt lat="43.41672383059353" lon="11.933946330357733"><ele>495.5</ele><time>2026-05-03T07:06:57.999Z</time></trkpt><trkpt lat="43.41683725657706" lon="11.934247890859146"><ele>491.0</ele><time>2026-05-03T07:06:58.999Z</time></trkpt><trkpt lat="43.41696730139117" lon="11.934540899682116"><ele>491.0</ele><time>2026-05-03T07:06:59.999Z</time></trkpt><trkpt lat="43.41712579000929" lon="11.934810180230782"><ele>491.0</ele><time>2026-05-03T07:07:00.999Z</time></trkpt><trkpt lat="43.41729937995974" lon="11.935065488327238"><ele>491.5</ele><time>2026-05-03T07:07:01.999Z</time></trkpt><trkpt lat="43.417481711197226" lon="11.935311386879704"><ele>492.0</ele><time>2026-05-03T07:07:02.999Z</time></trkpt><trkpt lat="43.417666400663755" lon="11.93556037465698"><ele>492.0</ele><time>2026-05-03T07:07:03.999Z</time></trkpt><trkpt lat="43.41785118962207" lon="11.935808711277705"><ele>492.0</ele><time>2026-05-03T07:07:04.999Z</time></trkpt><trkpt lat="43.418035407998225" lon="11.936061966414039"><ele>492.5</ele><time>2026-05-03T07:07:05.999Z</time></trkpt><trkpt lat="43.4182180707965" lon="11.93632436968246"><ele>493.0</ele><time>2026-05-03T07:07:06.999Z</time></trkpt><trkpt lat="43.418401651687624" lon="11.93658184858113"><ele>489.5</ele><time>2026-05-03T07:07:07.999Z</time></trkpt><trkpt lat="43.41859026930982" lon="11.93683885969978"><ele>486.0</ele><time>2026-05-03T07:07:08.999Z</time></trkpt><trkpt lat="43.418785441235926" lon="11.93708595760392"><ele>493.5</ele><time>2026-05-03T07:07:09.999Z</time></trkpt><trkpt lat="43.41899345211489" lon="11.937324982103705"><ele>501.0</ele><time>2026-05-03T07:07:10.999Z</time></trkpt><trkpt lat="43.419212034830466" lon="11.937549986834446"><ele>494.5</ele><time>2026-05-03T07:07:11.999Z</time></trkpt><trkpt lat="43.41944062659774" lon="11.937761646578357"><ele>488.0</ele><time>2026-05-03T07:07:12.999Z</time></trkpt><trkpt lat="43.41968125887525" lon="11.937951443077603"><ele>488.0</ele><time>2026-05-03T07:07:13.999Z</time></trkpt><trkpt lat="43.41992821785597" lon="11.938124063611019"><ele>488.0</ele><time>2026-05-03T07:07:14.999Z</time></trkpt><trkpt lat="43.42018041361932" lon="11.938285803969025"><ele>484.5</ele><time>2026-05-03T07:07:15.999Z</time></trkpt><trkpt lat="43.42043989019589" lon="11.938432215840352"><ele>481.0</ele><time>2026-05-03T07:07:16.999Z</time></trkpt><trkpt lat="43.42070410234962" lon="11.938557397671017"><ele>479.0</ele><time>2026-05-03T07:07:17.999Z</time></trkpt><trkpt lat="43.42097404649619" lon="11.938665692345365"><ele>477.0</ele><time>2026-05-03T07:07:18.999Z</time></trkpt><trkpt lat="43.421242741486104" lon="11.938767557809053"><ele>482.0</ele><time>2026-05-03T07:07:19.999Z</time></trkpt><trkpt lat="43.42151063739654" lon="11.93887385349193"><ele>487.0</ele><time>2026-05-03T07:07:20.999Z</time></trkpt><trkpt lat="43.4217770602947" lon="11.938988464572374"><ele>487.0</ele><time>2026-05-03T07:07:21.999Z</time></trkpt><trkpt lat="43.422035061504694" lon="11.939103410791622"><ele>487.0</ele><time>2026-05-03T07:07:22.999Z</time></trkpt><trkpt lat="43.422282293002155" lon="11.939211564920884"><ele>480.0</ele><time>2026-05-03T07:07:24Z</time></trkpt><trkpt lat="43.42251534021407" lon="11.939313781166545"><ele>473.0</ele><time>2026-05-03T07:07:25Z</time></trkpt><trkpt lat="43.42272665347437" lon="11.939402801596874"><ele>473.0</ele><time>2026-05-03T07:07:26Z</time></trkpt><trkpt lat="43.4229230911796" lon="11.939483527614042"><ele>473.0</ele><time>2026-05-03T07:07:27Z</time></trkpt><trkpt lat="43.42311718977114" lon="11.939562394345772"><ele>473.0</ele><time>2026-05-03T07:07:28Z</time></trkpt><trkpt lat="43.42330382382157" lon="11.939641658950068"><ele>473.66666666666663</ele><time>2026-05-03T07:07:29Z</time></trkpt><trkpt lat="43.4234911295942" lon="11.939718651618945"><ele>474.33333333333337</ele><time>2026-05-03T07:07:30Z</time></trkpt><trkpt lat="43.4236817880774" lon="11.939796667703146"><ele>475.0</ele><time>2026-05-03T07:07:31Z</time></trkpt><trkpt lat="43.42388150535636" lon="11.939879537023069"><ele>476.0</ele><time>2026-05-03T07:07:32Z</time></trkpt><trkpt lat="43.42408706315442" lon="11.939966415549593"><ele>477.0</ele><time>2026-05-03T07:07:33Z</time></trkpt><trkpt lat="43.42429735489476" lon="11.940057951842292"><ele>478.0</ele><time>2026-05-03T07:07:34Z</time></trkpt><trkpt lat="43.42451555940025" lon="11.940149089056487"><ele>470.0</ele><time>2026-05-03T07:07:35Z</time></trkpt><trkpt lat="43.42474079591151" lon="11.940241443494589"><ele>462.0</ele><time>2026-05-03T07:07:36Z</time></trkpt><trkpt lat="43.424974200470245" lon="11.940340585410194"><ele>462.0</ele><time>2026-05-03T07:07:37Z</time></trkpt><trkpt lat="43.42520472311039" lon="11.940453262686953"><ele>462.0</ele><time>2026-05-03T07:07:38Z</time></trkpt><trkpt lat="43.425433822652494" lon="11.940584369429905"><ele>460.0</ele><time>2026-05-03T07:07:39Z</time></trkpt><trkpt lat="43.425655511928795" lon="11.94073903342876"><ele>458.0</ele><time>2026-05-03T07:07:40Z</time></trkpt><trkpt lat="43.42586654565953" lon="11.940914678228847"><ele>458.0</ele><time>2026-05-03T07:07:41Z</time></trkpt><trkpt lat="43.42607136690091" lon="11.941116271825935"><ele>458.0</ele><time>2026-05-03T07:07:42Z</time></trkpt><trkpt lat="43.426267081683754" lon="11.94133153849888"><ele>460.0</ele><time>2026-05-03T07:07:43Z</time></trkpt><trkpt lat="43.42645552963751" lon="11.941566433494968"><ele>462.0</ele><time>2026-05-03T07:07:44Z</time></trkpt><trkpt lat="43.42663149496864" lon="11.941820139665081"><ele>462.0</ele><time>2026-05-03T07:07:45Z</time></trkpt><trkpt lat="43.42679585954126" lon="11.94208875428079"><ele>462.0</ele><time>2026-05-03T07:07:46Z</time></trkpt><trkpt lat="43.42696234813742" lon="11.942347188016724"><ele>463.0</ele><time>2026-05-03T07:07:47Z</time></trkpt><trkpt lat="43.42707185338819" lon="11.942679761269003"><ele>464.0</ele><time>2026-05-03T07:07:48Z</time></trkpt><trkpt lat="43.4271808497953" lon="11.942991993502833"><ele>461.5</ele><time>2026-05-03T07:07:49Z</time></trkpt><trkpt lat="43.42727140513105" lon="11.943315649073961"><ele>459.0</ele><time>2026-05-03T07:07:50Z</time></trkpt><trkpt lat="43.427345538480516" lon="11.943648272331101"><ele>459.0</ele><time>2026-05-03T07:07:51Z</time></trkpt><trkpt lat="43.427410029890076" lon="11.9439782162443"><ele>459.0</ele><time>2026-05-03T07:07:52Z</time></trkpt><trkpt lat="43.42745796615566" lon="11.944313203056085"><ele>458.0</ele><time>2026-05-03T07:07:53Z</time></trkpt><trkpt lat="43.427488778640445" lon="11.944648829539954"><ele>457.0</ele><time>2026-05-03T07:07:54Z</time></trkpt><trkpt lat="43.42750317326764" lon="11.944983406891087"><ele>459.5</ele><time>2026-05-03T07:07:55Z</time></trkpt><trkpt lat="43.42749558252282" lon="11.945307813696948"><ele>462.0</ele><time>2026-05-03T07:07:56Z</time></trkpt><trkpt lat="43.42747772287094" lon="11.945622890301152"><ele>463.5</ele><time>2026-05-03T07:07:57Z</time></trkpt><trkpt lat="43.42744621450467" lon="11.945933079899294"><ele>465.0</ele><time>2026-05-03T07:07:58Z</time></trkpt><trkpt lat="43.42739713996312" lon="11.946242009197862"><ele>465.0</ele><time>2026-05-03T07:07:59Z</time></trkpt><trkpt lat="43.42733211063804" lon="11.946546768100934"><ele>465.0</ele><time>2026-05-03T07:08:00Z</time></trkpt><trkpt lat="43.42725380597083" lon="11.94684428273102"><ele>465.5</ele><time>2026-05-03T07:08:01Z</time></trkpt><trkpt lat="43.42716151635166" lon="11.947136598901341"><ele>466.0</ele><time>2026-05-03T07:08:02Z</time></trkpt><trkpt lat="43.427062943420985" lon="11.947427380670964"><ele>458.5</ele><time>2026-05-03T07:08:03Z</time></trkpt><trkpt lat="43.4269629627142" lon="11.94771807433915"><ele>451.0</ele><time>2026-05-03T07:08:03.999Z</time></trkpt><trkpt lat="43.42686505976668" lon="11.94801055291363"><ele>451.0</ele><time>2026-05-03T07:08:04.999Z</time></trkpt><trkpt lat="43.426769435389474" lon="11.948304276409614"><ele>451.0</ele><time>2026-05-03T07:08:05.999Z</time></trkpt><trkpt lat="43.42667205596227" lon="11.948596712120837"><ele>450.0</ele><time>2026-05-03T07:08:06.999Z</time></trkpt><trkpt lat="43.42657360593084" lon="11.948889721262711"><ele>449.0</ele><time>2026-05-03T07:08:07.999Z</time></trkpt><trkpt lat="43.42647497291332" lon="11.94918235437237"><ele>449.66666666666663</ele><time>2026-05-03T07:08:08.999Z</time></trkpt><trkpt lat="43.426377373797166" lon="11.949471339026797"><ele>450.33333333333337</ele><time>2026-05-03T07:08:09.999Z</time></trkpt><trkpt lat="43.42628744758927" lon="11.949742795030803"><ele>451.0</ele><time>2026-05-03T07:08:10.999Z</time></trkpt><trkpt lat="43.426202038476866" lon="11.950001473935277"><ele>451.6666666666667</ele><time>2026-05-03T07:08:11.999Z</time></trkpt><trkpt lat="43.42612088784736" lon="11.95024550093418"><ele>452.33333333333337</ele><time>2026-05-03T07:08:12.999Z</time></trkpt><trkpt lat="43.426048590501345" lon="11.950475084817725"><ele>453.0</ele><time>2026-05-03T07:08:13.999Z</time></trkpt><trkpt lat="43.425982292383694" lon="11.95068910700607"><ele>451.33333333333337</ele><time>2026-05-03T07:08:14.999Z</time></trkpt><trkpt lat="43.425922302773486" lon="11.950894251815317"><ele>449.6666666666667</ele><time>2026-05-03T07:08:15.999Z</time></trkpt><trkpt lat="43.425864739645874" lon="11.951090898444676"><ele>448.0</ele><time>2026-05-03T07:08:16.999Z</time></trkpt><trkpt lat="43.425805025977425" lon="11.95127646227164"><ele>448.0</ele><time>2026-05-03T07:08:17.999Z</time></trkpt><trkpt lat="43.4257374326416" lon="11.951442703417102"><ele>448.0</ele><time>2026-05-03T07:08:18.999Z</time></trkpt><trkpt lat="43.42566506039262" lon="11.951587193605262"><ele>448.0</ele><time>2026-05-03T07:08:19.999Z</time></trkpt><trkpt lat="43.42560132940512" lon="11.951731293773099"><ele>448.0</ele><time>2026-05-03T07:08:20.999Z</time></trkpt><trkpt lat="43.42555300892679" lon="11.951866692790658"><ele>446.0</ele><time>2026-05-03T07:08:21.999Z</time></trkpt><trkpt lat="43.425505330029246" lon="11.951996963523682"><ele>444.0</ele><time>2026-05-03T07:08:22.999Z</time></trkpt><trkpt lat="43.4254613278405" lon="11.952137013046098"><ele>442.0</ele><time>2026-05-03T07:08:23.999Z</time></trkpt><trkpt lat="43.42541820067105" lon="11.952286418518257"><ele>440.0</ele><time>2026-05-03T07:08:24.999Z</time></trkpt><trkpt lat="43.42537311179888" lon="11.952441346050945"><ele>441.75</ele><time>2026-05-03T07:08:25.999Z</time></trkpt><trkpt lat="43.425325152857916" lon="11.952601677532982"><ele>443.5</ele><time>2026-05-03T07:08:26.999Z</time></trkpt><trkpt lat="43.425277368641474" lon="11.952767356854212"><ele>445.25</ele><time>2026-05-03T07:08:27.999Z</time></trkpt><trkpt lat="43.42523440388245" lon="11.952940409895161"><ele>447.0</ele><time>2026-05-03T07:08:28.999Z</time></trkpt><trkpt lat="43.42519387475411" lon="11.953117437069704"><ele>447.0</ele><time>2026-05-03T07:08:29.999Z</time></trkpt><trkpt lat="43.42515243856915" lon="11.953296739726971"><ele>447.0</ele><time>2026-05-03T07:08:30.999Z</time></trkpt><trkpt lat="43.42511086922394" lon="11.953477357390263"><ele>447.0</ele><time>2026-05-03T07:08:31.999Z</time></trkpt><trkpt lat="43.425070590794505" lon="11.953662877390029"><ele>447.0</ele><time>2026-05-03T07:08:32.999Z</time></trkpt><trkpt lat="43.425031279445186" lon="11.953854761715633"><ele>445.33333333333337</ele><time>2026-05-03T07:08:33.999Z</time></trkpt><trkpt lat="43.42498791606311" lon="11.95404954129865"><ele>443.6666666666667</ele><time>2026-05-03T07:08:34.999Z</time></trkpt><trkpt lat="43.42493931494489" lon="11.954249040567873"><ele>442.0</ele><time>2026-05-03T07:08:35.999Z</time></trkpt><trkpt lat="43.42488368750397" lon="11.954451992350478"><ele>440.33333333333337</ele><time>2026-05-03T07:08:36.999Z</time></trkpt><trkpt lat="43.42482019461108" lon="11.95466003853519"><ele>438.66666666666663</ele><time>2026-05-03T07:08:37.999Z</time></trkpt><trkpt lat="43.42476264183507" lon="11.954878201485295"><ele>437.0</ele><time>2026-05-03T07:08:38.999Z</time></trkpt><trkpt lat="43.42471175058379" lon="11.955105900294164"><ele>436.3333333333333</ele><time>2026-05-03T07:08:39.999Z</time></trkpt><trkpt lat="43.424662321439946" lon="11.955329887622298"><ele>435.66666666666663</ele><time>2026-05-03T07:08:40.999Z</time></trkpt><trkpt lat="43.424619353345655" lon="11.95556354976217"><ele>435.0</ele><time>2026-05-03T07:08:41.999Z</time></trkpt><trkpt lat="43.42458138482844" lon="11.955790904933906"><ele>437.0</ele><time>2026-05-03T07:08:42.999Z</time></trkpt><trkpt lat="43.424546210591146" lon="11.956028429660048"><ele>439.0</ele><time>2026-05-03T07:08:43.999Z</time></trkpt><trkpt lat="43.42448550932855" lon="11.95626141528353"><ele>441.0</ele><time>2026-05-03T07:08:44.999Z</time></trkpt><trkpt lat="43.424410726303954" lon="11.956487961562154"><ele>437.66666666666663</ele><time>2026-05-03T07:08:45.999Z</time></trkpt><trkpt lat="43.424314536165866" lon="11.956709114972403"><ele>434.3333333333333</ele><time>2026-05-03T07:08:46.999Z</time></trkpt><trkpt lat="43.42422431395594" lon="11.956937512916223"><ele>431.0</ele><time>2026-05-03T07:08:47.999Z</time></trkpt><trkpt lat="43.424136027040845" lon="11.957179443064094"><ele>431.0</ele><time>2026-05-03T07:08:48.999Z</time></trkpt><trkpt lat="43.4240755062881" lon="11.957439898634163"><ele>431.0</ele><time>2026-05-03T07:08:49.999Z</time></trkpt><trkpt lat="43.42402287426451" lon="11.957704077721724"><ele>431.0</ele><time>2026-05-03T07:08:50.999Z</time></trkpt><trkpt lat="43.42397014499176" lon="11.957969970881887"><ele>431.0</ele><time>2026-05-03T07:08:51.999Z</time></trkpt><trkpt lat="43.423919804048616" lon="11.95823786724935"><ele>431.0</ele><time>2026-05-03T07:08:52.999Z</time></trkpt><trkpt lat="43.4238682599424" lon="11.95852066119746"><ele>431.0</ele><time>2026-05-03T07:08:53.999Z</time></trkpt><trkpt lat="43.423813044447996" lon="11.958803515505457"><ele>432.3333333333333</ele><time>2026-05-03T07:08:54.999Z</time></trkpt><trkpt lat="43.423757753911936" lon="11.959083045647805"><ele>433.66666666666663</ele><time>2026-05-03T07:08:55.999Z</time></trkpt><trkpt lat="43.42369786861779" lon="11.959350848829297"><ele>435.0</ele><time>2026-05-03T07:08:56.999Z</time></trkpt><trkpt lat="43.42363577587471" lon="11.959622402639472"><ele>435.33333333333337</ele><time>2026-05-03T07:08:57.999Z</time></trkpt><trkpt lat="43.42357661437256" lon="11.959894792444677"><ele>435.6666666666667</ele><time>2026-05-03T07:08:58.999Z</time></trkpt><trkpt lat="43.42352888076216" lon="11.96016547363659"><ele>436.0</ele><time>2026-05-03T07:08:59.999Z</time></trkpt><trkpt lat="43.42349774394516" lon="11.96044373204647"><ele>437.33333333333337</ele><time>2026-05-03T07:09:00.999Z</time></trkpt><trkpt lat="43.423483344483344" lon="11.960728431766112"><ele>438.66666666666663</ele><time>2026-05-03T07:09:01.999Z</time></trkpt><trkpt lat="43.42347968947891" lon="11.961008540054376"><ele>440.0</ele><time>2026-05-03T07:09:02.999Z</time></trkpt><trkpt lat="43.423474210482034" lon="11.961294890972265"><ele>437.0</ele><time>2026-05-03T07:09:03.999Z</time></trkpt><trkpt lat="43.423466317409996" lon="11.961585876257901"><ele>434.0</ele><time>2026-05-03T07:09:04.999Z</time></trkpt><trkpt lat="43.42345840194377" lon="11.961874510076123"><ele>431.0</ele><time>2026-05-03T07:09:05.999Z</time></trkpt><trkpt lat="43.42343481908976" lon="11.962157623192871"><ele>429.0</ele><time>2026-05-03T07:09:06.999Z</time></trkpt><trkpt lat="43.42336336496265" lon="11.96242241665778"><ele>427.0</ele><time>2026-05-03T07:09:07.999Z</time></trkpt><trkpt lat="43.42327253173036" lon="11.96267499850476"><ele>425.0</ele><time>2026-05-03T07:09:08.999Z</time></trkpt><trkpt lat="43.42317230515184" lon="11.962930826872197"><ele>426.66666666666663</ele><time>2026-05-03T07:09:09.999Z</time></trkpt><trkpt lat="43.42308030614404" lon="11.963188647343433"><ele>428.33333333333337</ele><time>2026-05-03T07:09:10.999Z</time></trkpt><trkpt lat="43.42297017608755" lon="11.963431831179621"><ele>430.0</ele><time>2026-05-03T07:09:11.999Z</time></trkpt><trkpt lat="43.42286316313585" lon="11.963679575652721"><ele>430.0</ele><time>2026-05-03T07:09:12.999Z</time></trkpt><trkpt lat="43.42274381085447" lon="11.963920024022096"><ele>430.0</ele><time>2026-05-03T07:09:13.999Z</time></trkpt><trkpt lat="43.42261657194429" lon="11.964155298936669"><ele>430.0</ele><time>2026-05-03T07:09:14.999Z</time></trkpt><trkpt lat="43.42250273102723" lon="11.964398637524583"><ele>426.33333333333337</ele><time>2026-05-03T07:09:15.999Z</time></trkpt><trkpt lat="43.42240633324031" lon="11.964659579134128"><ele>422.66666666666663</ele><time>2026-05-03T07:09:16.999Z</time></trkpt><trkpt lat="43.42232837702105" lon="11.964926722414456"><ele>419.0</ele><time>2026-05-03T07:09:17.999Z</time></trkpt><trkpt lat="43.42226058781004" lon="11.965198930742856"><ele>417.0</ele><time>2026-05-03T07:09:18.999Z</time></trkpt><trkpt lat="43.4221955706625" lon="11.965467979356363"><ele>415.0</ele><time>2026-05-03T07:09:19.999Z</time></trkpt><trkpt lat="43.422134421510044" lon="11.965735162826638"><ele>413.0</ele><time>2026-05-03T07:09:20.999Z</time></trkpt><trkpt lat="43.42208225061211" lon="11.966004677444605"><ele>417.3333333333333</ele><time>2026-05-03T07:09:21.999Z</time></trkpt><trkpt lat="43.42204281249496" lon="11.966276610929238"><ele>421.66666666666663</ele><time>2026-05-03T07:09:22.999Z</time></trkpt><trkpt lat="43.422005789062226" lon="11.96654189682348"><ele>426.0</ele><time>2026-05-03T07:09:23.999Z</time></trkpt><trkpt lat="43.42195958410338" lon="11.966803109985326"><ele>426.0</ele><time>2026-05-03T07:09:24.999Z</time></trkpt><trkpt lat="43.42192064019626" lon="11.967054005200998"><ele>426.0</ele><time>2026-05-03T07:09:25.999Z</time></trkpt><trkpt lat="43.42190727466068" lon="11.967298133343514"><ele>426.0</ele><time>2026-05-03T07:09:26.999Z</time></trkpt><trkpt lat="43.4219101046676" lon="11.967542393180924"><ele>425.0</ele><time>2026-05-03T07:09:27.999Z</time></trkpt><trkpt lat="43.421923451129" lon="11.96778884790218"><ele>424.0</ele><time>2026-05-03T07:09:28.999Z</time></trkpt><trkpt lat="43.421938690146874" lon="11.96803898424676"><ele>423.0</ele><time>2026-05-03T07:09:30Z</time></trkpt><trkpt lat="43.42195559714618" lon="11.968284994399603"><ele>422.33333333333337</ele><time>2026-05-03T07:09:31Z</time></trkpt><trkpt lat="43.421972169856836" lon="11.968537026884231"><ele>421.6666666666667</ele><time>2026-05-03T07:09:32Z</time></trkpt><trkpt lat="43.4219846875666" lon="11.968786209090666"><ele>421.0</ele><time>2026-05-03T07:09:33Z</time></trkpt><trkpt lat="43.421998619415625" lon="11.969034757715788"><ele>419.33333333333337</ele><time>2026-05-03T07:09:34Z</time></trkpt><trkpt lat="43.422012759522595" lon="11.969273370367661"><ele>417.66666666666663</ele><time>2026-05-03T07:09:35Z</time></trkpt><trkpt lat="43.42201560389901" lon="11.96950059231368"><ele>416.0</ele><time>2026-05-03T07:09:36Z</time></trkpt><trkpt lat="43.42198502586588" lon="11.969725742436871"><ele>416.0</ele><time>2026-05-03T07:09:37Z</time></trkpt><trkpt lat="43.421918912137706" lon="11.9699457842606"><ele>416.0</ele><time>2026-05-03T07:09:38Z</time></trkpt><trkpt lat="43.42183239055281" lon="11.970170014494219"><ele>416.0</ele><time>2026-05-03T07:09:39Z</time></trkpt><trkpt lat="43.4217453280896" lon="11.970394206773312"><ele>414.3333333333333</ele><time>2026-05-03T07:09:40Z</time></trkpt><trkpt lat="43.421660233487174" lon="11.970606831011617"><ele>412.66666666666663</ele><time>2026-05-03T07:09:41Z</time></trkpt><trkpt lat="43.42158253702831" lon="11.970796852553685"><ele>411.0</ele><time>2026-05-03T07:09:42Z</time></trkpt><trkpt lat="43.42152111249599" lon="11.970976612249046"><ele>410.25</ele><time>2026-05-03T07:09:43Z</time></trkpt><trkpt lat="43.42146853500945" lon="11.971157569042491"><ele>409.5</ele><time>2026-05-03T07:09:44Z</time></trkpt><trkpt lat="43.42143493839256" lon="11.97134055785918"><ele>408.75</ele><time>2026-05-03T07:09:45Z</time></trkpt><trkpt lat="43.421422829204104" lon="11.971529872841268"><ele>408.0</ele><time>2026-05-03T07:09:46Z</time></trkpt><trkpt lat="43.42143272425293" lon="11.971730621723628"><ele>408.0</ele><time>2026-05-03T07:09:47Z</time></trkpt><trkpt lat="43.42145390914538" lon="11.971934366988771"><ele>408.0</ele><time>2026-05-03T07:09:48Z</time></trkpt><trkpt lat="43.421467957352505" lon="11.972138072154108"><ele>408.0</ele><time>2026-05-03T07:09:49Z</time></trkpt><trkpt lat="43.42147812647367" lon="11.9723432220972"><ele>408.0</ele><time>2026-05-03T07:09:50Z</time></trkpt><trkpt lat="43.42148893017057" lon="11.97254550281404"><ele>408.0</ele><time>2026-05-03T07:09:51Z</time></trkpt><trkpt lat="43.42150233613237" lon="11.972746367633748"><ele>408.0</ele><time>2026-05-03T07:09:52Z</time></trkpt><trkpt lat="43.42151438494549" lon="11.972936679019448"><ele>408.0</ele><time>2026-05-03T07:09:53Z</time></trkpt><trkpt lat="43.42152986692285" lon="11.973122041747878"><ele>408.0</ele><time>2026-05-03T07:09:54Z</time></trkpt><trkpt lat="43.42154481200348" lon="11.973307701834468"><ele>407.5</ele><time>2026-05-03T07:09:55Z</time></trkpt><trkpt lat="43.42155701833481" lon="11.97349226863218"><ele>407.0</ele><time>2026-05-03T07:09:56Z</time></trkpt><trkpt lat="43.421566645979055" lon="11.973664762429664"><ele>406.5</ele><time>2026-05-03T07:09:57Z</time></trkpt><trkpt lat="43.42157998538245" lon="11.973821547507546"><ele>406.0</ele><time>2026-05-03T07:09:58Z</time></trkpt><trkpt lat="43.42159942864244" lon="11.973969582947023"><ele>406.0</ele><time>2026-05-03T07:09:59Z</time></trkpt><trkpt lat="43.421624381560115" lon="11.974113188974698"><ele>406.0</ele><time>2026-05-03T07:10:00Z</time></trkpt><trkpt lat="43.421650707654045" lon="11.974257403653068"><ele>406.0</ele><time>2026-05-03T07:10:01Z</time></trkpt><trkpt lat="43.421680520360674" lon="11.974402731129508"><ele>406.0</ele><time>2026-05-03T07:10:02Z</time></trkpt><trkpt lat="43.421715748619384" lon="11.974543361216437"><ele>406.0</ele><time>2026-05-03T07:10:03Z</time></trkpt><trkpt lat="43.42176027804868" lon="11.974689750037621"><ele>405.6</ele><time>2026-05-03T07:10:04Z</time></trkpt><trkpt lat="43.421783814753375" lon="11.974830020980772"><ele>405.20000000000005</ele><time>2026-05-03T07:10:04.999Z</time></trkpt><trkpt lat="43.42180934754673" lon="11.974978713843809"><ele>404.79999999999995</ele><time>2026-05-03T07:10:05.999Z</time></trkpt><trkpt lat="43.42183743677755" lon="11.975119281315916"><ele>404.4</ele><time>2026-05-03T07:10:06.999Z</time></trkpt><trkpt lat="43.42186902413123" lon="11.975257104020871"><ele>404.0</ele><time>2026-05-03T07:10:07.999Z</time></trkpt><trkpt lat="43.421900998233106" lon="11.975398563412401"><ele>403.79999999999995</ele><time>2026-05-03T07:10:08.999Z</time></trkpt><trkpt lat="43.42193194653251" lon="11.975541094148676"><ele>403.59999999999997</ele><time>2026-05-03T07:10:09.999Z</time></trkpt><trkpt lat="43.42196391755759" lon="11.975681058021282"><ele>403.4</ele><time>2026-05-03T07:10:10.999Z</time></trkpt><trkpt lat="43.421992309031076" lon="11.975809612687344"><ele>403.2</ele><time>2026-05-03T07:10:11.999Z</time></trkpt><trkpt lat="43.42201769112196" lon="11.975928975394167"><ele>403.0</ele><time>2026-05-03T07:10:12.999Z</time></trkpt><trkpt lat="43.42204254618129" lon="11.976044055024811"><ele>403.0</ele><time>2026-05-03T07:10:13.999Z</time></trkpt><trkpt lat="43.42206942335359" lon="11.976158467907364"><ele>403.0</ele><time>2026-05-03T07:10:14.999Z</time></trkpt><trkpt lat="43.42209797637653" lon="11.976275825771598"><ele>403.0</ele><time>2026-05-03T07:10:15.999Z</time></trkpt><trkpt lat="43.42212362587615" lon="11.97639323137519"><ele>403.0</ele><time>2026-05-03T07:10:16.999Z</time></trkpt><trkpt lat="43.42215040579762" lon="11.976517306565757"><ele>403.0</ele><time>2026-05-03T07:10:17.999Z</time></trkpt><trkpt lat="43.42219506721076" lon="11.976639623851938"><ele>403.4</ele><time>2026-05-03T07:10:18.999Z</time></trkpt><trkpt lat="43.42225736944177" lon="11.976744633517383"><ele>403.79999999999995</ele><time>2026-05-03T07:10:19.999Z</time></trkpt><trkpt lat="43.422339522979804" lon="11.976823147055883"><ele>404.2</ele><time>2026-05-03T07:10:20.999Z</time></trkpt><trkpt lat="43.42243492609303" lon="11.976866066843364"><ele>404.6</ele><time>2026-05-03T07:10:21.999Z</time></trkpt><trkpt lat="43.4225354507865" lon="11.976876233594915"><ele>405.0</ele><time>2026-05-03T07:10:22.999Z</time></trkpt><trkpt lat="43.42264161078434" lon="11.976866843405947"><ele>405.0</ele><time>2026-05-03T07:10:23.999Z</time></trkpt><trkpt lat="43.42275549808753" lon="11.976843235888861"><ele>405.0</ele><time>2026-05-03T07:10:24.999Z</time></trkpt><trkpt lat="43.4228749026296" lon="11.976818068491044"><ele>405.0</ele><time>2026-05-03T07:10:25.999Z</time></trkpt><trkpt lat="43.42300023460845" lon="11.976801987620542"><ele>405.0</ele><time>2026-05-03T07:10:26.999Z</time></trkpt><trkpt lat="43.423130476152416" lon="11.976784868213693"><ele>404.25</ele><time>2026-05-03T07:10:27.999Z</time></trkpt><trkpt lat="43.423265087043625" lon="11.97676690267949"><ele>403.5</ele><time>2026-05-03T07:10:28.999Z</time></trkpt><trkpt lat="43.42340418915521" lon="11.976746457534263"><ele>402.75</ele><time>2026-05-03T07:10:29.999Z</time></trkpt><trkpt lat="43.423549225743564" lon="11.976726030621984"><ele>402.0</ele><time>2026-05-03T07:10:30.999Z</time></trkpt><trkpt lat="43.42370058790408" lon="11.976703996436322"><ele>403.33333333333337</ele><time>2026-05-03T07:10:31.999Z</time></trkpt><trkpt lat="43.423852029902186" lon="11.97668076189603"><ele>404.6666666666667</ele><time>2026-05-03T07:10:32.999Z</time></trkpt><trkpt lat="43.42400510526101" lon="11.97666007229248"><ele>406.0</ele><time>2026-05-03T07:10:33.999Z</time></trkpt><trkpt lat="43.42416671732293" lon="11.976641096639046"><ele>406.0</ele><time>2026-05-03T07:10:34.999Z</time></trkpt><trkpt lat="43.424323424112075" lon="11.976622699723077"><ele>406.0</ele><time>2026-05-03T07:10:35.999Z</time></trkpt><trkpt lat="43.424481294098875" lon="11.97661217850733"><ele>406.0</ele><time>2026-05-03T07:10:36.999Z</time></trkpt><trkpt lat="43.42464195007544" lon="11.976608640431161"><ele>406.33333333333337</ele><time>2026-05-03T07:10:37.999Z</time></trkpt><trkpt lat="43.42480183064104" lon="11.976620423385594"><ele>406.66666666666663</ele><time>2026-05-03T07:10:38.999Z</time></trkpt><trkpt lat="43.42496256148718" lon="11.976639790782675"><ele>407.0</ele><time>2026-05-03T07:10:39.999Z</time></trkpt><trkpt lat="43.42512621350803" lon="11.976676906597879"><ele>407.66666666666663</ele><time>2026-05-03T07:10:40.999Z</time></trkpt><trkpt lat="43.42528894959887" lon="11.976721322893852"><ele>408.33333333333337</ele><time>2026-05-03T07:10:41.999Z</time></trkpt><trkpt lat="43.42545613475302" lon="11.976771310061483"><ele>409.0</ele><time>2026-05-03T07:10:42.999Z</time></trkpt><trkpt lat="43.42562544654747" lon="11.976820096892814"><ele>409.0</ele><time>2026-05-03T07:10:43.999Z</time></trkpt><trkpt lat="43.425794641466226" lon="11.976873983246152"><ele>409.0</ele><time>2026-05-03T07:10:44.999Z</time></trkpt><trkpt lat="43.425966837915254" lon="11.976925207008113"><ele>409.0</ele><time>2026-05-03T07:10:45.999Z</time></trkpt><trkpt lat="43.42613850786945" lon="11.976976987480807"><ele>409.0</ele><time>2026-05-03T07:10:46.999Z</time></trkpt><trkpt lat="43.42631044601906" lon="11.977040492253"><ele>409.0</ele><time>2026-05-03T07:10:47.999Z</time></trkpt><trkpt lat="43.426475283621066" lon="11.97712567382642"><ele>409.0</ele><time>2026-05-03T07:10:48.999Z</time></trkpt><trkpt lat="43.426633285703" lon="11.977236654400558"><ele>408.0</ele><time>2026-05-03T07:10:49.999Z</time></trkpt><trkpt lat="43.42678499677275" lon="11.977368037406126"><ele>407.0</ele><time>2026-05-03T07:10:50.999Z</time></trkpt><trkpt lat="43.42693013958231" lon="11.97751796784668"><ele>406.0</ele><time>2026-05-03T07:10:51.999Z</time></trkpt><trkpt lat="43.427067745130536" lon="11.977680197610471"><ele>405.6666666666667</ele><time>2026-05-03T07:10:52.999Z</time></trkpt><trkpt lat="43.42720493986801" lon="11.977840902803585"><ele>405.33333333333337</ele><time>2026-05-03T07:10:53.999Z</time></trkpt><trkpt lat="43.42734161670773" lon="11.978001253673611"><ele>405.0</ele><time>2026-05-03T07:10:54.999Z</time></trkpt><trkpt lat="43.427479531363645" lon="11.978155526681057"><ele>405.0</ele><time>2026-05-03T07:10:55.999Z</time></trkpt><trkpt lat="43.427623043564125" lon="11.978299779106198"><ele>405.0</ele><time>2026-05-03T07:10:56.999Z</time></trkpt><trkpt lat="43.42777517593802" lon="11.978429500707376"><ele>405.0</ele><time>2026-05-03T07:10:57.999Z</time></trkpt><trkpt lat="43.42793298093464" lon="11.978542483345455"><ele>404.33333333333337</ele><time>2026-05-03T07:10:58.999Z</time></trkpt><trkpt lat="43.42809020901437" lon="11.978641009726825"><ele>403.6666666666667</ele><time>2026-05-03T07:10:59.999Z</time></trkpt><trkpt lat="43.42823757697414" lon="11.978729272802369"><ele>403.0</ele><time>2026-05-03T07:11:00.999Z</time></trkpt><trkpt lat="43.428364230033075" lon="11.978821695308747"><ele>403.0</ele><time>2026-05-03T07:11:01.999Z</time></trkpt><trkpt lat="43.4284795369663" lon="11.978881304725768"><ele>403.0</ele><time>2026-05-03T07:11:02.999Z</time></trkpt><trkpt lat="43.428585607343706" lon="11.97892712078205"><ele>403.0</ele><time>2026-05-03T07:11:03.999Z</time></trkpt><trkpt lat="43.428674899463275" lon="11.978960739477936"><ele>403.0</ele><time>2026-05-03T07:11:04.999Z</time></trkpt><trkpt lat="43.4287502697412" lon="11.978985439035311"><ele>403.0</ele><time>2026-05-03T07:11:05.999Z</time></trkpt><trkpt lat="43.42880753629601" lon="11.978621933530453"><ele>403.4</ele><time>2026-05-03T07:11:07.999Z</time></trkpt><trkpt lat="43.428851418375466" lon="11.978521933298806"><ele>403.79999999999995</ele><time>2026-05-03T07:11:08.999Z</time></trkpt><trkpt lat="43.428905430019" lon="11.978417823295658"><ele>404.2</ele><time>2026-05-03T07:11:09.999Z</time></trkpt><trkpt lat="43.428968752140904" lon="11.978314243450772"><ele>404.6</ele><time>2026-05-03T07:11:10.999Z</time></trkpt><trkpt lat="43.42906516081964" lon="11.978247007725187"><ele>405.0</ele><time>2026-05-03T07:11:11.999Z</time></trkpt><trkpt lat="43.42915133691414" lon="11.97814649118819"><ele>403.25</ele><time>2026-05-03T07:11:12.999Z</time></trkpt><trkpt lat="43.42924993302114" lon="11.97806094562177"><ele>401.5</ele><time>2026-05-03T07:11:13.999Z</time></trkpt><trkpt lat="43.42934788802139" lon="11.977973779395802"><ele>399.75</ele><time>2026-05-03T07:11:14.999Z</time></trkpt><trkpt lat="43.42945216343136" lon="11.977895801917922"><ele>398.0</ele><time>2026-05-03T07:11:15.999Z</time></trkpt><trkpt lat="43.429567622828046" lon="11.97781747341199"><ele>397.5</ele><time>2026-05-03T07:11:16.999Z</time></trkpt><trkpt lat="43.4296956381896" lon="11.9777390334503"><ele>397.0</ele><time>2026-05-03T07:11:17.999Z</time></trkpt><trkpt lat="43.42983517767722" lon="11.977665498390685"><ele>396.5</ele><time>2026-05-03T07:11:18.999Z</time></trkpt><trkpt lat="43.429982105204324" lon="11.977605184514264"><ele>396.0</ele><time>2026-05-03T07:11:19.999Z</time></trkpt><trkpt lat="43.43013515543169" lon="11.97756082513092"><ele>396.0</ele><time>2026-05-03T07:11:20.999Z</time></trkpt><trkpt lat="43.43029811936293" lon="11.977535122504436"><ele>396.0</ele><time>2026-05-03T07:11:21.999Z</time></trkpt><trkpt lat="43.43046285809262" lon="11.977524588820804"><ele>396.0</ele><time>2026-05-03T07:11:22.999Z</time></trkpt><trkpt lat="43.43062857695257" lon="11.977529682212188"><ele>396.0</ele><time>2026-05-03T07:11:23.999Z</time></trkpt><trkpt lat="43.43079688591153" lon="11.977552323447613"><ele>396.0</ele><time>2026-05-03T07:11:24.999Z</time></trkpt><trkpt lat="43.43097135333862" lon="11.977547495813466"><ele>396.0</ele><time>2026-05-03T07:11:25.999Z</time></trkpt><trkpt lat="43.431154902109334" lon="11.977626534222592"><ele>395.66666666666663</ele><time>2026-05-03T07:11:26.999Z</time></trkpt><trkpt lat="43.43134452035829" lon="11.97764908805922"><ele>395.3333333333333</ele><time>2026-05-03T07:11:27.999Z</time></trkpt><trkpt lat="43.431544814025735" lon="11.977657208114815"><ele>395.0</ele><time>2026-05-03T07:11:28.999Z</time></trkpt><trkpt lat="43.43175315038891" lon="11.977657286713303"><ele>395.0</ele><time>2026-05-03T07:11:29.999Z</time></trkpt><trkpt lat="43.43197194504481" lon="11.97765534757108"><ele>395.0</ele><time>2026-05-03T07:11:30.999Z</time></trkpt><trkpt lat="43.43218856321062" lon="11.977652726682141"><ele>395.0</ele><time>2026-05-03T07:11:31.999Z</time></trkpt><trkpt lat="43.432405826381206" lon="11.977643764260042"><ele>395.3333333333333</ele><time>2026-05-03T07:11:32.999Z</time></trkpt><trkpt lat="43.43262738347733" lon="11.977629265339885"><ele>395.66666666666663</ele><time>2026-05-03T07:11:33.999Z</time></trkpt><trkpt lat="43.4328541429164" lon="11.977610285027811"><ele>396.0</ele><time>2026-05-03T07:11:34.999Z</time></trkpt><trkpt lat="43.433080354996726" lon="11.977590862955864"><ele>398.0</ele><time>2026-05-03T07:11:36Z</time></trkpt><trkpt lat="43.43331221338704" lon="11.977568256827473"><ele>400.0</ele><time>2026-05-03T07:11:37Z</time></trkpt><trkpt lat="43.43354377025324" lon="11.97754658842259"><ele>400.0</ele><time>2026-05-03T07:11:38Z</time></trkpt><trkpt lat="43.433782185764" lon="11.977521445585088"><ele>400.0</ele><time>2026-05-03T07:11:39Z</time></trkpt><trkpt lat="43.43402856842659" lon="11.977492197405002"><ele>414.5</ele><time>2026-05-03T07:11:40Z</time></trkpt><trkpt lat="43.434283498219706" lon="11.977455704207458"><ele>429.0</ele><time>2026-05-03T07:11:41Z</time></trkpt><trkpt lat="43.434546589523684" lon="11.977409836802996"><ele>431.5</ele><time>2026-05-03T07:11:42Z</time></trkpt><trkpt lat="43.43481305560195" lon="11.977345397495707"><ele>434.0</ele><time>2026-05-03T07:11:43Z</time></trkpt><trkpt lat="43.43511909170499" lon="11.977269922356758"><ele>434.0</ele><time>2026-05-03T07:11:44.073Z</time></trkpt><trkpt lat="43.435397046235174" lon="11.977260925355788"><ele>434.0</ele><time>2026-05-03T07:11:45.064Z</time></trkpt><trkpt lat="43.435692186343466" lon="11.977232806987743"><ele>419.5</ele><time>2026-05-03T07:11:46.061Z</time></trkpt><trkpt lat="43.43609693577202" lon="11.977196194562373"><ele>405.0</ele><time>2026-05-03T07:11:47.06Z</time></trkpt><trkpt lat="43.436139101174696" lon="11.97730829374697"><ele>399.5</ele><time>2026-05-03T07:11:49Z</time></trkpt><trkpt lat="43.43637224000914" lon="11.977287841257112"><ele>394.0</ele><time>2026-05-03T07:11:50Z</time></trkpt><trkpt lat="43.436590536591815" lon="11.97726429688142"><ele>394.0</ele><time>2026-05-03T07:11:51Z</time></trkpt><trkpt lat="43.43682833302783" lon="11.977280635350711"><ele>394.0</ele><time>2026-05-03T07:11:52Z</time></trkpt><trkpt lat="43.43705484414691" lon="11.977307034025305"><ele>393.6666666666667</ele><time>2026-05-03T07:11:53Z</time></trkpt><trkpt lat="43.43725834518955" lon="11.977343651391955"><ele>393.33333333333337</ele><time>2026-05-03T07:11:54Z</time></trkpt><trkpt lat="43.43749185816976" lon="11.977395671480572"><ele>393.0</ele><time>2026-05-03T07:11:55Z</time></trkpt><trkpt lat="43.43771947624567" lon="11.977466229631894"><ele>393.5</ele><time>2026-05-03T07:11:56Z</time></trkpt><trkpt lat="43.43794477558119" lon="11.97754769045784"><ele>394.0</ele><time>2026-05-03T07:11:57Z</time></trkpt><trkpt lat="43.43816239661072" lon="11.977648672627119"><ele>394.0</ele><time>2026-05-03T07:11:58Z</time></trkpt><trkpt lat="43.438374218765894" lon="11.977756462103791"><ele>394.0</ele><time>2026-05-03T07:11:59Z</time></trkpt><trkpt lat="43.43856359023966" lon="11.977865198136776"><ele>394.0</ele><time>2026-05-03T07:11:59.999Z</time></trkpt><trkpt lat="43.43876349919149" lon="11.977993734131964"><ele>393.5</ele><time>2026-05-03T07:12:00.999Z</time></trkpt><trkpt lat="43.43895578049381" lon="11.97813921725508"><ele>393.0</ele><time>2026-05-03T07:12:01.999Z</time></trkpt><trkpt lat="43.43917079342177" lon="11.978322083114367"><ele>400.5</ele><time>2026-05-03T07:12:02.999Z</time></trkpt><trkpt lat="43.43936141505147" lon="11.97848945505211"><ele>408.0</ele><time>2026-05-03T07:12:03.999Z</time></trkpt><trkpt lat="43.43954480903691" lon="11.978666245900659"><ele>406.0</ele><time>2026-05-03T07:12:04.999Z</time></trkpt><trkpt lat="43.43971870951789" lon="11.978863911249476"><ele>404.0</ele><time>2026-05-03T07:12:05.999Z</time></trkpt><trkpt lat="43.43989171891002" lon="11.97907071160203"><ele>413.5</ele><time>2026-05-03T07:12:06.999Z</time></trkpt><trkpt lat="43.44005881379249" lon="11.979291283058885"><ele>423.0</ele><time>2026-05-03T07:12:07.999Z</time></trkpt><trkpt lat="43.44021778206002" lon="11.97952158403089"><ele>423.0</ele><time>2026-05-03T07:12:08.999Z</time></trkpt><trkpt lat="43.4403722122341" lon="11.979763248356125"><ele>423.0</ele><time>2026-05-03T07:12:09.999Z</time></trkpt><trkpt lat="43.440516995510144" lon="11.980019856576723"><ele>406.0</ele><time>2026-05-03T07:12:10.999Z</time></trkpt><trkpt lat="43.44065680483447" lon="11.980308414183034"><ele>389.0</ele><time>2026-05-03T07:12:11.999Z</time></trkpt><trkpt lat="43.44078454008345" lon="11.980589664684576"><ele>390.5</ele><time>2026-05-03T07:12:12.999Z</time></trkpt><trkpt lat="43.440903986096316" lon="11.98087899603037"><ele>392.0</ele><time>2026-05-03T07:12:13.999Z</time></trkpt><trkpt lat="43.44101125655536" lon="11.981176923927157"><ele>392.0</ele><time>2026-05-03T07:12:14.999Z</time></trkpt><trkpt lat="43.44111080742987" lon="11.981484623734916"><ele>392.0</ele><time>2026-05-03T07:12:15.999Z</time></trkpt><trkpt lat="43.44120160047089" lon="11.981793510307494"><ele>393.0</ele><time>2026-05-03T07:12:16.999Z</time></trkpt><trkpt lat="43.441285351081966" lon="11.982112599781372"><ele>394.0</ele><time>2026-05-03T07:12:17.999Z</time></trkpt><trkpt lat="43.44136406638889" lon="11.982436488712617"><ele>400.5</ele><time>2026-05-03T07:12:18.999Z</time></trkpt><trkpt lat="43.44144428176583" lon="11.982760553406768"><ele>407.0</ele><time>2026-05-03T07:12:19.999Z</time></trkpt><trkpt lat="43.44152830127804" lon="11.983084150237572"><ele>402.5</ele><time>2026-05-03T07:12:20.999Z</time></trkpt><trkpt lat="43.44161189977589" lon="11.983411970527484"><ele>398.0</ele><time>2026-05-03T07:12:21.999Z</time></trkpt><trkpt lat="43.44169871052189" lon="11.98373937572069"><ele>398.0</ele><time>2026-05-03T07:12:22.999Z</time></trkpt><trkpt lat="43.44178504844545" lon="11.98406589035091"><ele>398.0</ele><time>2026-05-03T07:12:23.999Z</time></trkpt><trkpt lat="43.44187067828689" lon="11.98439420542614"><ele>396.5</ele><time>2026-05-03T07:12:24.999Z</time></trkpt><trkpt lat="43.44195570968121" lon="11.984725608018147"><ele>395.0</ele><time>2026-05-03T07:12:25.999Z</time></trkpt><trkpt lat="43.44204319159284" lon="11.985057530402443"><ele>393.0</ele><time>2026-05-03T07:12:26.999Z</time></trkpt><trkpt lat="43.44213024839908" lon="11.985393071646644"><ele>391.0</ele><time>2026-05-03T07:12:27.999Z</time></trkpt><trkpt lat="43.44221527045381" lon="11.985727676401401"><ele>397.0</ele><time>2026-05-03T07:12:28.999Z</time></trkpt><trkpt lat="43.44230082149742" lon="11.986063484607111"><ele>403.0</ele><time>2026-05-03T07:12:29.999Z</time></trkpt><trkpt lat="43.442388083091245" lon="11.986397444335077"><ele>400.5</ele><time>2026-05-03T07:12:30.999Z</time></trkpt><trkpt lat="43.44247703586918" lon="11.986730950535463"><ele>398.0</ele><time>2026-05-03T07:12:31.999Z</time></trkpt><trkpt lat="43.44257146705613" lon="11.987062616415049"><ele>398.0</ele><time>2026-05-03T07:12:32.999Z</time></trkpt><trkpt lat="43.4426793163961" lon="11.98738584956369"><ele>398.0</ele><time>2026-05-03T07:12:33.999Z</time></trkpt><trkpt lat="43.442800008034304" lon="11.987702207196245"><ele>395.5</ele><time>2026-05-03T07:12:34.999Z</time></trkpt><trkpt lat="43.442934872688" lon="11.988008706590783"><ele>393.0</ele><time>2026-05-03T07:12:35.999Z</time></trkpt><trkpt lat="43.44307673687425" lon="11.988307227631646"><ele>395.5</ele><time>2026-05-03T07:12:36.999Z</time></trkpt><trkpt lat="43.4432329228284" lon="11.9885931967552"><ele>398.0</ele><time>2026-05-03T07:12:37.999Z</time></trkpt><trkpt lat="43.443396258669736" lon="11.988869167423898"><ele>398.0</ele><time>2026-05-03T07:12:38.999Z</time></trkpt><trkpt lat="43.44356925513693" lon="11.989134485743953"><ele>398.0</ele><time>2026-05-03T07:12:39.999Z</time></trkpt><trkpt lat="43.44375207570205" lon="11.98938603277134"><ele>399.0</ele><time>2026-05-03T07:12:40.999Z</time></trkpt><trkpt lat="43.443937525293286" lon="11.989635753818234"><ele>400.0</ele><time>2026-05-03T07:12:41.999Z</time></trkpt><trkpt lat="43.44411908542237" lon="11.989894057494352"><ele>395.5</ele><time>2026-05-03T07:12:42.999Z</time></trkpt><trkpt lat="43.444294829523734" lon="11.990156550780073"><ele>391.0</ele><time>2026-05-03T07:12:43.999Z</time></trkpt><trkpt lat="43.44446986680437" lon="11.990423041069635"><ele>390.5</ele><time>2026-05-03T07:12:44.999Z</time></trkpt><trkpt lat="43.44464268404001" lon="11.990689467216212"><ele>390.0</ele><time>2026-05-03T07:12:45.999Z</time></trkpt><trkpt lat="43.44481730162166" lon="11.990955343951981"><ele>390.0</ele><time>2026-05-03T07:12:46.999Z</time></trkpt><trkpt lat="43.444991333662415" lon="11.99121955171937"><ele>390.0</ele><time>2026-05-03T07:12:47.999Z</time></trkpt><trkpt lat="43.44516702109139" lon="11.991478802967851"><ele>393.0</ele><time>2026-05-03T07:12:48.999Z</time></trkpt><trkpt lat="43.44534313209721" lon="11.991734762583704"><ele>396.0</ele><time>2026-05-03T07:12:49.999Z</time></trkpt><trkpt lat="43.44551903795691" lon="11.991991338974238"><ele>396.0</ele><time>2026-05-03T07:12:50.999Z</time></trkpt><trkpt lat="43.44569231675678" lon="11.992249119560581"><ele>396.0</ele><time>2026-05-03T07:12:51.999Z</time></trkpt><trkpt lat="43.445859965443574" lon="11.992509857280334"><ele>390.0</ele><time>2026-05-03T07:12:52.999Z</time></trkpt><trkpt lat="43.446022692995406" lon="11.992780622172841"><ele>384.0</ele><time>2026-05-03T07:12:53.999Z</time></trkpt><trkpt lat="43.44617809862416" lon="11.993058900700415"><ele>384.5</ele><time>2026-05-03T07:12:54.999Z</time></trkpt><trkpt lat="43.446326141840714" lon="11.993342326461786"><ele>385.0</ele><time>2026-05-03T07:12:55.999Z</time></trkpt><trkpt lat="43.44647649485099" lon="11.993622660126068"><ele>385.0</ele><time>2026-05-03T07:12:56.999Z</time></trkpt><trkpt lat="43.44662864410179" lon="11.993900326643411"><ele>385.0</ele><time>2026-05-03T07:12:57.999Z</time></trkpt><trkpt lat="43.44678066714912" lon="11.994172500542705"><ele>385.5</ele><time>2026-05-03T07:12:58.999Z</time></trkpt><trkpt lat="43.446935320333665" lon="11.994451344420538"><ele>386.0</ele><time>2026-05-03T07:12:59.999Z</time></trkpt><trkpt lat="43.447087426232876" lon="11.994727181270532"><ele>386.0</ele><time>2026-05-03T07:13:00.999Z</time></trkpt><trkpt lat="43.447240387214926" lon="11.99500299713566"><ele>386.0</ele><time>2026-05-03T07:13:01.999Z</time></trkpt><trkpt lat="43.44739294742506" lon="11.995272368767296"><ele>395.5</ele><time>2026-05-03T07:13:02.999Z</time></trkpt><trkpt lat="43.44754812371195" lon="11.995542785501222"><ele>405.0</ele><time>2026-05-03T07:13:03.999Z</time></trkpt><trkpt lat="43.44769874567801" lon="11.995813436709888"><ele>411.0</ele><time>2026-05-03T07:13:04.999Z</time></trkpt><trkpt lat="43.447848364956364" lon="11.99608558685977"><ele>417.0</ele><time>2026-05-03T07:13:05.999Z</time></trkpt><trkpt lat="43.44799729914891" lon="11.99635983834011"><ele>400.5</ele><time>2026-05-03T07:13:06.999Z</time></trkpt><trkpt lat="43.44814500579463" lon="11.996630186417903"><ele>384.0</ele><time>2026-05-03T07:13:07.999Z</time></trkpt><trkpt lat="43.448295471384085" lon="11.996899441409951"><ele>383.5</ele><time>2026-05-03T07:13:08.999Z</time></trkpt><trkpt lat="43.448445469856146" lon="11.997166988915765"><ele>383.0</ele><time>2026-05-03T07:13:09.999Z</time></trkpt><trkpt lat="43.448595984208495" lon="11.997428792253343"><ele>386.5</ele><time>2026-05-03T07:13:10.999Z</time></trkpt><trkpt lat="43.44874384633196" lon="11.997695185318209"><ele>390.0</ele><time>2026-05-03T07:13:11.999Z</time></trkpt><trkpt lat="43.44888805522256" lon="11.997964593355054"><ele>390.0</ele><time>2026-05-03T07:13:12.999Z</time></trkpt><trkpt lat="43.44903691298574" lon="11.998232046737566"><ele>390.0</ele><time>2026-05-03T07:13:13.999Z</time></trkpt><trkpt lat="43.449184044644774" lon="11.998497949597557"><ele>388.0</ele><time>2026-05-03T07:13:14.999Z</time></trkpt><trkpt lat="43.44933427805699" lon="11.998763753529909"><ele>386.0</ele><time>2026-05-03T07:13:15.999Z</time></trkpt><trkpt lat="43.44947802590875" lon="11.999029500887206"><ele>381.0</ele><time>2026-05-03T07:13:16.999Z</time></trkpt><trkpt lat="43.449623598366955" lon="11.999303935432234"><ele>376.0</ele><time>2026-05-03T07:13:17.999Z</time></trkpt><trkpt lat="43.44977068133577" lon="11.999582273769512"><ele>376.0</ele><time>2026-05-03T07:13:18.999Z</time></trkpt><trkpt lat="43.44992550572214" lon="11.999841851924698"><ele>376.0</ele><time>2026-05-03T07:13:19.999Z</time></trkpt><trkpt lat="43.45007649008325" lon="12.000124837206155"><ele>376.0</ele><time>2026-05-03T07:13:20.999Z</time></trkpt><trkpt lat="43.45022417941803" lon="12.000384203561037"><ele>376.0</ele><time>2026-05-03T07:13:21.999Z</time></trkpt><trkpt lat="43.45037533348698" lon="12.000654518028952"><ele>373.0</ele><time>2026-05-03T07:13:22.999Z</time></trkpt><trkpt lat="43.4505251100907" lon="12.000923417798754"><ele>370.0</ele><time>2026-05-03T07:13:23.999Z</time></trkpt><trkpt lat="43.45067778931292" lon="12.001196960656106"><ele>370.0</ele><time>2026-05-03T07:13:24.999Z</time></trkpt><trkpt lat="43.45083070293057" lon="12.001465576900628"><ele>370.0</ele><time>2026-05-03T07:13:25.999Z</time></trkpt><trkpt lat="43.450985928774195" lon="12.001741013777915"><ele>366.5</ele><time>2026-05-03T07:13:26.999Z</time></trkpt><trkpt lat="43.45114121888006" lon="12.00201304144628"><ele>363.0</ele><time>2026-05-03T07:13:27.999Z</time></trkpt><trkpt lat="43.45129882651759" lon="12.002286848357446"><ele>366.0</ele><time>2026-05-03T07:13:28.999Z</time></trkpt><trkpt lat="43.45145388568959" lon="12.002564982074977"><ele>369.0</ele><time>2026-05-03T07:13:29.999Z</time></trkpt><trkpt lat="43.451607668570006" lon="12.002840887178184"><ele>369.0</ele><time>2026-05-03T07:13:30.999Z</time></trkpt><trkpt lat="43.45175932581573" lon="12.003124023243325"><ele>369.0</ele><time>2026-05-03T07:13:31.999Z</time></trkpt><trkpt lat="43.451909876077686" lon="12.003410393885485"><ele>363.0</ele><time>2026-05-03T07:13:32.999Z</time></trkpt><trkpt lat="43.45205064047155" lon="12.003705465199983"><ele>357.0</ele><time>2026-05-03T07:13:33.999Z</time></trkpt><trkpt lat="43.452185937947014" lon="12.004002051978029"><ele>359.5</ele><time>2026-05-03T07:13:34.999Z</time></trkpt><trkpt lat="43.45231689990814" lon="12.004301909973114"><ele>362.0</ele><time>2026-05-03T07:13:35.999Z</time></trkpt><trkpt lat="43.45244494631909" lon="12.004609389509634"><ele>362.0</ele><time>2026-05-03T07:13:36.999Z</time></trkpt><trkpt lat="43.452573175737996" lon="12.004908654366625"><ele>362.0</ele><time>2026-05-03T07:13:37.999Z</time></trkpt><trkpt lat="43.45270055510096" lon="12.005206858364707"><ele>363.5</ele><time>2026-05-03T07:13:38.999Z</time></trkpt><trkpt lat="43.45282836529594" lon="12.005498787535219"><ele>365.0</ele><time>2026-05-03T07:13:39.999Z</time></trkpt><trkpt lat="43.452958938862174" lon="12.005793402853373"><ele>369.5</ele><time>2026-05-03T07:13:40.999Z</time></trkpt><trkpt lat="43.453081281613755" lon="12.006086722121902"><ele>374.0</ele><time>2026-05-03T07:13:42Z</time></trkpt><trkpt lat="43.453204601078696" lon="12.006381927080689"><ele>373.5</ele><time>2026-05-03T07:13:43Z</time></trkpt><trkpt lat="43.45332692893628" lon="12.006676592256207"><ele>373.0</ele><time>2026-05-03T07:13:44Z</time></trkpt><trkpt lat="43.453447180325604" lon="12.006969181002969"><ele>373.0</ele><time>2026-05-03T07:13:45Z</time></trkpt><trkpt lat="43.45357378500572" lon="12.007259367165874"><ele>373.0</ele><time>2026-05-03T07:13:46Z</time></trkpt><trkpt lat="43.453705657079766" lon="12.007549841092516"><ele>370.0</ele><time>2026-05-03T07:13:47Z</time></trkpt><trkpt lat="43.45383868426147" lon="12.007836588188646"><ele>367.0</ele><time>2026-05-03T07:13:48Z</time></trkpt><trkpt lat="43.45397982521057" lon="12.008124584702868"><ele>363.5</ele><time>2026-05-03T07:13:49Z</time></trkpt><trkpt lat="43.45412528961055" lon="12.008403815183886"><ele>360.0</ele><time>2026-05-03T07:13:50Z</time></trkpt><trkpt lat="43.45427698527257" lon="12.008681271625647"><ele>360.0</ele><time>2026-05-03T07:13:51Z</time></trkpt><trkpt lat="43.454429094905414" lon="12.008956677327129"><ele>360.0</ele><time>2026-05-03T07:13:52Z</time></trkpt><trkpt lat="43.45458828465333" lon="12.009233007514712"><ele>364.0</ele><time>2026-05-03T07:13:53Z</time></trkpt><trkpt lat="43.45474755284352" lon="12.009504937271194"><ele>368.0</ele><time>2026-05-03T07:13:54Z</time></trkpt><trkpt lat="43.45491175217712" lon="12.0097774239229"><ele>365.5</ele><time>2026-05-03T07:13:55Z</time></trkpt><trkpt lat="43.455075244365894" lon="12.010045921817351"><ele>363.0</ele><time>2026-05-03T07:13:56Z</time></trkpt><trkpt lat="43.45524321876077" lon="12.0103182119161"><ele>363.0</ele><time>2026-05-03T07:13:57Z</time></trkpt><trkpt lat="43.455409959153" lon="12.01058507267055"><ele>363.0</ele><time>2026-05-03T07:13:58Z</time></trkpt><trkpt lat="43.455577778033074" lon="12.010859106520776"><ele>374.5</ele><time>2026-05-03T07:13:59Z</time></trkpt><trkpt lat="43.45574296886013" lon="12.01113153430144"><ele>386.0</ele><time>2026-05-03T07:14:00Z</time></trkpt><trkpt lat="43.455906820028595" lon="12.011406685423744"><ele>379.5</ele><time>2026-05-03T07:14:01Z</time></trkpt><trkpt lat="43.45606683458231" lon="12.011685355351469"><ele>373.0</ele><time>2026-05-03T07:14:02Z</time></trkpt><trkpt lat="43.45621880185085" lon="12.011972152332268"><ele>377.5</ele><time>2026-05-03T07:14:03Z</time></trkpt><trkpt lat="43.45636388452614" lon="12.012266335265782"><ele>382.0</ele><time>2026-05-03T07:14:04Z</time></trkpt><trkpt lat="43.4565052727454" lon="12.012565978024531"><ele>382.0</ele><time>2026-05-03T07:14:05Z</time></trkpt><trkpt lat="43.45663904935281" lon="12.01286384539467"><ele>382.0</ele><time>2026-05-03T07:14:06Z</time></trkpt><trkpt lat="43.456770950775" lon="12.013176166027844"><ele>372.5</ele><time>2026-05-03T07:14:07Z</time></trkpt><trkpt lat="43.45689454122766" lon="12.013481286607016"><ele>363.0</ele><time>2026-05-03T07:14:08Z</time></trkpt><trkpt lat="43.457019442008665" lon="12.013784138717183"><ele>375.0</ele><time>2026-05-03T07:14:08.999Z</time></trkpt><trkpt lat="43.45715009813762" lon="12.014091688125406"><ele>387.0</ele><time>2026-05-03T07:14:09.999Z</time></trkpt><trkpt lat="43.4572857889308" lon="12.014395338741386"><ele>387.0</ele><time>2026-05-03T07:14:10.999Z</time></trkpt><trkpt lat="43.45742253661064" lon="12.014696001346506"><ele>387.0</ele><time>2026-05-03T07:14:11.999Z</time></trkpt><trkpt lat="43.45757726192358" lon="12.014984220682935"><ele>379.0</ele><time>2026-05-03T07:14:12.999Z</time></trkpt><trkpt lat="43.45775236216677" lon="12.015259097593315"><ele>371.0</ele><time>2026-05-03T07:14:13.999Z</time></trkpt><trkpt lat="43.45793910942085" lon="12.015527004549472"><ele>368.5</ele><time>2026-05-03T07:14:14.999Z</time></trkpt><trkpt lat="43.4581262720214" lon="12.015788056693264"><ele>366.0</ele><time>2026-05-03T07:14:15.999Z</time></trkpt><trkpt lat="43.45834156107406" lon="12.015990355780046"><ele>366.0</ele><time>2026-05-03T07:14:16.999Z</time></trkpt><trkpt lat="43.458523624907905" lon="12.016112774642362"><ele>366.0</ele><time>2026-05-03T07:14:17.999Z</time></trkpt><trkpt lat="43.45875447424802" lon="12.016250248102464"><ele>367.5</ele><time>2026-05-03T07:14:18.999Z</time></trkpt><trkpt lat="43.45903269499383" lon="12.01641634442999"><ele>369.0</ele><time>2026-05-03T07:14:19.999Z</time></trkpt><trkpt lat="43.45927255744316" lon="12.016521283184616"><ele>369.0</ele><time>2026-05-03T07:14:20.999Z</time></trkpt><trkpt lat="43.45952826419344" lon="12.016641703081433"><ele>369.0</ele><time>2026-05-03T07:14:21.999Z</time></trkpt><trkpt lat="43.45976107349831" lon="12.016803734227235"><ele>362.5</ele><time>2026-05-03T07:14:22.999Z</time></trkpt><trkpt lat="43.45998236459477" lon="12.016985528884065"><ele>356.0</ele><time>2026-05-03T07:14:23.999Z</time></trkpt><trkpt lat="43.46018171290481" lon="12.01719526993531"><ele>356.0</ele><time>2026-05-03T07:14:24.999Z</time></trkpt><trkpt lat="43.46036855901476" lon="12.017427057040857"><ele>356.0</ele><time>2026-05-03T07:14:25.999Z</time></trkpt><trkpt lat="43.460542978231956" lon="12.01767335476519"><ele>357.0</ele><time>2026-05-03T07:14:26.999Z</time></trkpt><trkpt lat="43.46069971919922" lon="12.01793758789978"><ele>358.0</ele><time>2026-05-03T07:14:27.999Z</time></trkpt><trkpt lat="43.46084336578178" lon="12.018219306045209"><ele>350.0</ele><time>2026-05-03T07:14:28.999Z</time></trkpt><trkpt lat="43.46098069482051" lon="12.018503079143368"><ele>342.0</ele><time>2026-05-03T07:14:29.999Z</time></trkpt><trkpt lat="43.4611287393851" lon="12.01878311923481"><ele>342.0</ele><time>2026-05-03T07:14:30.999Z</time></trkpt><trkpt lat="43.46127522278543" lon="12.01906453420635"><ele>342.0</ele><time>2026-05-03T07:14:31.999Z</time></trkpt><trkpt lat="43.461420812589395" lon="12.019343410675194"><ele>337.0</ele><time>2026-05-03T07:14:32.999Z</time></trkpt><trkpt lat="43.461564551125456" lon="12.019621560778482"><ele>332.0</ele><time>2026-05-03T07:14:33.999Z</time></trkpt><trkpt lat="43.46170694181232" lon="12.019902072939091"><ele>330.5</ele><time>2026-05-03T07:14:34.999Z</time></trkpt><trkpt lat="43.46185308220655" lon="12.02018028476589"><ele>329.0</ele><time>2026-05-03T07:14:35.999Z</time></trkpt><trkpt lat="43.46199995846296" lon="12.02045501962964"><ele>330.0</ele><time>2026-05-03T07:14:36.999Z</time></trkpt><trkpt lat="43.46214646957698" lon="12.02073205274804"><ele>331.0</ele><time>2026-05-03T07:14:37.999Z</time></trkpt><trkpt lat="43.462292042969985" lon="12.02100862375551"><ele>331.0</ele><time>2026-05-03T07:14:38.999Z</time></trkpt><trkpt lat="43.46243259585285" lon="12.02128565843055"><ele>331.0</ele><time>2026-05-03T07:14:39.999Z</time></trkpt><trkpt lat="43.4625691190093" lon="12.021562518526128"><ele>331.0</ele><time>2026-05-03T07:14:40.999Z</time></trkpt><trkpt lat="43.462704946882795" lon="12.021843390959436"><ele>331.0</ele><time>2026-05-03T07:14:41.999Z</time></trkpt><trkpt lat="43.46283856163735" lon="12.02212290454715"><ele>334.0</ele><time>2026-05-03T07:14:42.999Z</time></trkpt><trkpt lat="43.46297197617212" lon="12.022402587373506"><ele>337.0</ele><time>2026-05-03T07:14:43.999Z</time></trkpt><trkpt lat="43.46310675125131" lon="12.022683003278315"><ele>337.0</ele><time>2026-05-03T07:14:44.999Z</time></trkpt><trkpt lat="43.4632420729444" lon="12.022962592594078"><ele>337.0</ele><time>2026-05-03T07:14:45.999Z</time></trkpt><trkpt lat="43.46336759592172" lon="12.023249180785811"><ele>333.5</ele><time>2026-05-03T07:14:46.999Z</time></trkpt><trkpt lat="43.46347072320797" lon="12.02354564430381"><ele>330.0</ele><time>2026-05-03T07:14:47.999Z</time></trkpt><trkpt lat="43.463551926747535" lon="12.023854750502021"><ele>328.5</ele><time>2026-05-03T07:14:48.999Z</time></trkpt><trkpt lat="43.463607486237535" lon="12.024175667396506"><ele>327.0</ele><time>2026-05-03T07:14:49.999Z</time></trkpt><trkpt lat="43.46364309642179" lon="12.024499438070864"><ele>327.0</ele><time>2026-05-03T07:14:50.999Z</time></trkpt><trkpt lat="43.46366982858456" lon="12.02482600208602"><ele>327.0</ele><time>2026-05-03T07:14:51.999Z</time></trkpt><trkpt lat="43.463683793637486" lon="12.025155546088138"><ele>327.0</ele><time>2026-05-03T07:14:52.999Z</time></trkpt><trkpt lat="43.46368272311877" lon="12.025487249538054"><ele>327.0</ele><time>2026-05-03T07:14:53.999Z</time></trkpt><trkpt lat="43.463665060221125" lon="12.025823873310545"><ele>328.0</ele><time>2026-05-03T07:14:54.999Z</time></trkpt><trkpt lat="43.46362945274063" lon="12.026157177528033"><ele>329.0</ele><time>2026-05-03T07:14:55.999Z</time></trkpt><trkpt lat="43.46357544357505" lon="12.026487736739098"><ele>328.5</ele><time>2026-05-03T07:14:56.999Z</time></trkpt><trkpt lat="43.46350197329143" lon="12.026814381897925"><ele>328.0</ele><time>2026-05-03T07:14:57.999Z</time></trkpt><trkpt lat="43.46341417890982" lon="12.027132510835086"><ele>328.0</ele><time>2026-05-03T07:14:58.999Z</time></trkpt><trkpt lat="43.46330835390063" lon="12.027440783069244"><ele>328.0</ele><time>2026-05-03T07:14:59.999Z</time></trkpt><trkpt lat="43.46319246265809" lon="12.027743740056593"><ele>327.5</ele><time>2026-05-03T07:15:00.999Z</time></trkpt><trkpt lat="43.46307180752575" lon="12.028043279182816"><ele>327.0</ele><time>2026-05-03T07:15:01.999Z</time></trkpt><trkpt lat="43.46295286962263" lon="12.02834534358821"><ele>328.0</ele><time>2026-05-03T07:15:02.999Z</time></trkpt><trkpt lat="43.46284205018648" lon="12.028652102306781"><ele>329.0</ele><time>2026-05-03T07:15:03.999Z</time></trkpt><trkpt lat="43.46274674031535" lon="12.028966801771169"><ele>328.0</ele><time>2026-05-03T07:15:04.999Z</time></trkpt><trkpt lat="43.462670196955195" lon="12.029288987088522"><ele>327.0</ele><time>2026-05-03T07:15:05.999Z</time></trkpt><trkpt lat="43.46261031441192" lon="12.029616216810838"><ele>327.0</ele><time>2026-05-03T07:15:06.999Z</time></trkpt><trkpt lat="43.46256861048556" lon="12.029947907966337"><ele>327.0</ele><time>2026-05-03T07:15:07.999Z</time></trkpt><trkpt lat="43.46254289832934" lon="12.03028327059382"><ele>327.0</ele><time>2026-05-03T07:15:08.999Z</time></trkpt><trkpt lat="43.46253231561475" lon="12.030619182846415"><ele>327.0</ele><time>2026-05-03T07:15:09.999Z</time></trkpt><trkpt lat="43.46253572456669" lon="12.030952394819218"><ele>326.0</ele><time>2026-05-03T07:15:10.999Z</time></trkpt><trkpt lat="43.462556985846675" lon="12.03128468777612"><ele>325.0</ele><time>2026-05-03T07:15:11.999Z</time></trkpt><trkpt lat="43.46259091213001" lon="12.031612593848257"><ele>325.5</ele><time>2026-05-03T07:15:12.999Z</time></trkpt><trkpt lat="43.46263841838697" lon="12.03193691579054"><ele>326.0</ele><time>2026-05-03T07:15:13.999Z</time></trkpt><trkpt lat="43.46269390478307" lon="12.03226055791336"><ele>325.5</ele><time>2026-05-03T07:15:14.999Z</time></trkpt><trkpt lat="43.462756130359026" lon="12.03258493566732"><ele>325.0</ele><time>2026-05-03T07:15:15.999Z</time></trkpt><trkpt lat="43.4628235521895" lon="12.032909295278504"><ele>325.0</ele><time>2026-05-03T07:15:16.999Z</time></trkpt><trkpt lat="43.46289687092541" lon="12.033234553188416"><ele>325.0</ele><time>2026-05-03T07:15:17.999Z</time></trkpt><trkpt lat="43.462975537576355" lon="12.033557574044634"><ele>325.0</ele><time>2026-05-03T07:15:18.999Z</time></trkpt><trkpt lat="43.4630581390711" lon="12.033877650979653"><ele>325.0</ele><time>2026-05-03T07:15:19.999Z</time></trkpt><trkpt lat="43.46314246905662" lon="12.034196881020428"><ele>325.0</ele><time>2026-05-03T07:15:20.999Z</time></trkpt><trkpt lat="43.46323055782613" lon="12.034517708757141"><ele>325.0</ele><time>2026-05-03T07:15:21.999Z</time></trkpt><trkpt lat="43.46331966996293" lon="12.034835409605238"><ele>324.0</ele><time>2026-05-03T07:15:22.999Z</time></trkpt><trkpt lat="43.46341079705128" lon="12.035153276310938"><ele>323.0</ele><time>2026-05-03T07:15:23.999Z</time></trkpt><trkpt lat="43.463502641513905" lon="12.035473420734661"><ele>323.0</ele><time>2026-05-03T07:15:24.999Z</time></trkpt><trkpt lat="43.46359426078169" lon="12.035792978393642"><ele>323.0</ele><time>2026-05-03T07:15:25.999Z</time></trkpt><trkpt lat="43.46368638942313" lon="12.036111579532113"><ele>322.5</ele><time>2026-05-03T07:15:26.999Z</time></trkpt><trkpt lat="43.46377878408801" lon="12.036431985197677"><ele>322.0</ele><time>2026-05-03T07:15:27.999Z</time></trkpt><trkpt lat="43.46387195891916" lon="12.036752339251821"><ele>323.0</ele><time>2026-05-03T07:15:28.999Z</time></trkpt><trkpt lat="43.46396613019954" lon="12.03707081764619"><ele>324.0</ele><time>2026-05-03T07:15:29.999Z</time></trkpt><trkpt lat="43.464060916762264" lon="12.037390140627167"><ele>323.0</ele><time>2026-05-03T07:15:30.999Z</time></trkpt><trkpt lat="43.46415426725059" lon="12.03771212538628"><ele>322.0</ele><time>2026-05-03T07:15:31.999Z</time></trkpt><trkpt lat="43.46424657056789" lon="12.038033537474723"><ele>321.5</ele><time>2026-05-03T07:15:32.999Z</time></trkpt><trkpt lat="43.46433956793702" lon="12.038356827369928"><ele>321.0</ele><time>2026-05-03T07:15:33.999Z</time></trkpt><trkpt lat="43.46443331181808" lon="12.038679352709284"><ele>321.0</ele><time>2026-05-03T07:15:34.999Z</time></trkpt><trkpt lat="43.46452845254014" lon="12.039000018390603"><ele>321.0</ele><time>2026-05-03T07:15:35.999Z</time></trkpt><trkpt lat="43.4646239950774" lon="12.039320041921812"><ele>320.5</ele><time>2026-05-03T07:15:36.999Z</time></trkpt><trkpt lat="43.464718254002605" lon="12.039642744741114"><ele>320.0</ele><time>2026-05-03T07:15:37.999Z</time></trkpt><trkpt lat="43.464811314643555" lon="12.039965350878127"><ele>320.0</ele><time>2026-05-03T07:15:38.999Z</time></trkpt><trkpt lat="43.46490468978286" lon="12.040289785358123"><ele>320.0</ele><time>2026-05-03T07:15:39.999Z</time></trkpt><trkpt lat="43.46499915522322" lon="12.04061323685987"><ele>320.0</ele><time>2026-05-03T07:15:40.999Z</time></trkpt><trkpt lat="43.465093723585014" lon="12.040937769111054"><ele>320.0</ele><time>2026-05-03T07:15:41.999Z</time></trkpt><trkpt lat="43.46518771557272" lon="12.041260618766094"><ele>320.0</ele><time>2026-05-03T07:15:42.999Z</time></trkpt><trkpt lat="43.46528222723392" lon="12.041586669758468"><ele>320.0</ele><time>2026-05-03T07:15:43.999Z</time></trkpt><trkpt lat="43.46537704361703" lon="12.041913400874835"><ele>321.0</ele><time>2026-05-03T07:15:44.999Z</time></trkpt><trkpt lat="43.46547224156222" lon="12.042241764746302"><ele>322.0</ele><time>2026-05-03T07:15:45.999Z</time></trkpt><trkpt lat="43.46556710248404" lon="12.042569126787077"><ele>320.0</ele><time>2026-05-03T07:15:46.999Z</time></trkpt><trkpt lat="43.46566152795934" lon="12.042897346825281"><ele>318.0</ele><time>2026-05-03T07:15:47.999Z</time></trkpt><trkpt lat="43.4657568377279" lon="12.04322946072281"><ele>318.0</ele><time>2026-05-03T07:15:48.999Z</time></trkpt><trkpt lat="43.46585265028535" lon="12.043562607016774"><ele>318.0</ele><time>2026-05-03T07:15:49.999Z</time></trkpt><trkpt lat="43.46594930622626" lon="12.043893629124474"><ele>318.0</ele><time>2026-05-03T07:15:50.999Z</time></trkpt><trkpt lat="43.466045873358325" lon="12.044222273593947"><ele>318.0</ele><time>2026-05-03T07:15:51.999Z</time></trkpt><trkpt lat="43.46614175285248" lon="12.04455157060645"><ele>318.0</ele><time>2026-05-03T07:15:52.999Z</time></trkpt><trkpt lat="43.46623655350134" lon="12.044877807396688"><ele>318.0</ele><time>2026-05-03T07:15:54Z</time></trkpt><trkpt lat="43.46633054720635" lon="12.04520262872324"><ele>322.0</ele><time>2026-05-03T07:15:55Z</time></trkpt><trkpt lat="43.466424678004245" lon="12.045525923583174"><ele>326.0</ele><time>2026-05-03T07:15:56Z</time></trkpt><trkpt lat="43.46651915846397" lon="12.045848081631151"><ele>326.0</ele><time>2026-05-03T07:15:57Z</time></trkpt><trkpt lat="43.46661280423242" lon="12.046169078554591"><ele>326.0</ele><time>2026-05-03T07:15:58Z</time></trkpt><trkpt lat="43.466704364336074" lon="12.046490268857657"><ele>322.5</ele><time>2026-05-03T07:15:59Z</time></trkpt><trkpt lat="43.46679537910443" lon="12.046812505813065"><ele>319.0</ele><time>2026-05-03T07:16:00Z</time></trkpt><trkpt lat="43.46688633723426" lon="12.047131735344228"><ele>319.0</ele><time>2026-05-03T07:16:01Z</time></trkpt><trkpt lat="43.46697755984893" lon="12.0474522732814"><ele>319.0</ele><time>2026-05-03T07:16:02Z</time></trkpt><trkpt lat="43.46706964002436" lon="12.047770504555977"><ele>317.5</ele><time>2026-05-03T07:16:03Z</time></trkpt><trkpt lat="43.46716363306898" lon="12.048085283500441"><ele>316.0</ele><time>2026-05-03T07:16:03.999Z</time></trkpt><trkpt lat="43.46726247551192" lon="12.048399723011757"><ele>316.0</ele><time>2026-05-03T07:16:04.999Z</time></trkpt><trkpt lat="43.46736971561305" lon="12.048711517796292"><ele>316.0</ele><time>2026-05-03T07:16:05.999Z</time></trkpt><trkpt lat="43.46748412985591" lon="12.049018312816267"><ele>315.5</ele><time>2026-05-03T07:16:06.999Z</time></trkpt><trkpt lat="43.46760803427961" lon="12.049319738235196"><ele>315.0</ele><time>2026-05-03T07:16:07.999Z</time></trkpt><trkpt lat="43.4677391874311" lon="12.049611257671991"><ele>315.0</ele><time>2026-05-03T07:16:08.999Z</time></trkpt><trkpt lat="43.4678789507571" lon="12.04989405754103"><ele>315.0</ele><time>2026-05-03T07:16:09.999Z</time></trkpt><trkpt lat="43.46802589833253" lon="12.050168641964126"><ele>317.5</ele><time>2026-05-03T07:16:10.999Z</time></trkpt><trkpt lat="43.46818130017485" lon="12.050435748454133"><ele>320.0</ele><time>2026-05-03T07:16:11.999Z</time></trkpt><trkpt lat="43.468344149347125" lon="12.050693710773725"><ele>317.5</ele><time>2026-05-03T07:16:12.999Z</time></trkpt><trkpt lat="43.46851180664612" lon="12.050942664851943"><ele>315.0</ele><time>2026-05-03T07:16:13.999Z</time></trkpt><trkpt lat="43.46868703010526" lon="12.051185673500193"><ele>315.0</ele><time>2026-05-03T07:16:14.999Z</time></trkpt><trkpt lat="43.46886956608305" lon="12.051416082635619"><ele>315.0</ele><time>2026-05-03T07:16:15.999Z</time></trkpt><trkpt lat="43.46905914937011" lon="12.05163507239703"><ele>315.0</ele><time>2026-05-03T07:16:16.999Z</time></trkpt><trkpt lat="43.46925697748609" lon="12.051848690984025"><ele>315.0</ele><time>2026-05-03T07:16:17.999Z</time></trkpt><trkpt lat="43.469459323758294" lon="12.052051306166282"><ele>317.0</ele><time>2026-05-03T07:16:18.999Z</time></trkpt><trkpt lat="43.46966896258881" lon="12.052244002750967"><ele>319.0</ele><time>2026-05-03T07:16:19.999Z</time></trkpt><trkpt lat="43.46988470433561" lon="12.052426793813497"><ele>316.5</ele><time>2026-05-03T07:16:20.999Z</time></trkpt><trkpt lat="43.47010259936486" lon="12.052602603459537"><ele>314.0</ele><time>2026-05-03T07:16:21.999Z</time></trkpt><trkpt lat="43.47032320880498" lon="12.052774557586082"><ele>316.0</ele><time>2026-05-03T07:16:22.999Z</time></trkpt><trkpt lat="43.47054522329143" lon="12.052943332482476"><ele>318.0</ele><time>2026-05-03T07:16:23.999Z</time></trkpt><trkpt lat="43.47076993883905" lon="12.053112015407631"><ele>318.0</ele><time>2026-05-03T07:16:24.999Z</time></trkpt><trkpt lat="43.47099089387589" lon="12.053275255912643"><ele>318.0</ele><time>2026-05-03T07:16:25.999Z</time></trkpt><trkpt lat="43.471200540454106" lon="12.053431562753639"><ele>316.6666666666667</ele><time>2026-05-03T07:16:26.999Z</time></trkpt><trkpt lat="43.471396838411465" lon="12.053581162228598"><ele>315.33333333333337</ele><time>2026-05-03T07:16:27.999Z</time></trkpt><trkpt lat="43.47158278981321" lon="12.053722884185447"><ele>314.0</ele><time>2026-05-03T07:16:28.999Z</time></trkpt><trkpt lat="43.47176014632536" lon="12.053858623984663"><ele>314.0</ele><time>2026-05-03T07:16:29.999Z</time></trkpt><trkpt lat="43.471926835820106" lon="12.053986241593599"><ele>314.0</ele><time>2026-05-03T07:16:30.999Z</time></trkpt><trkpt lat="43.47208453644461" lon="12.054111049230123"><ele>314.0</ele><time>2026-05-03T07:16:31.999Z</time></trkpt><trkpt lat="43.47223351284004" lon="12.0542284146285"><ele>313.5</ele><time>2026-05-03T07:16:32.999Z</time></trkpt><trkpt lat="43.47236786359979" lon="12.054333428794317"><ele>313.0</ele><time>2026-05-03T07:16:33.999Z</time></trkpt><trkpt lat="43.472489191976834" lon="12.054430227077617"><ele>312.5</ele><time>2026-05-03T07:16:34.999Z</time></trkpt><trkpt lat="43.47259343797984" lon="12.054531120229704"><ele>312.0</ele><time>2026-05-03T07:16:35.999Z</time></trkpt><trkpt lat="43.47267486811996" lon="12.054636004620686"><ele>312.0</ele><time>2026-05-03T07:16:36.999Z</time></trkpt><trkpt lat="43.47276859973449" lon="12.054735419534474"><ele>312.0</ele><time>2026-05-03T07:16:37.999Z</time></trkpt><trkpt lat="43.47280405613709" lon="12.054840879944992"><ele>312.0</ele><time>2026-05-03T07:16:38.999Z</time></trkpt><trkpt lat="43.47282891455443" lon="12.054936744221342"><ele>312.0</ele><time>2026-05-03T07:16:39.999Z</time></trkpt><trkpt lat="43.47287082143837" lon="12.0550520184339"><ele>312.0</ele><time>2026-05-03T07:16:41.999Z</time></trkpt><trkpt lat="43.472936804860055" lon="12.054989782401824"><ele>311.8</ele><time>2026-05-03T07:19:33Z</time></trkpt><trkpt lat="43.47302169164977" lon="12.054964735889152"><ele>311.6</ele><time>2026-05-03T07:20:03Z</time></trkpt><trkpt lat="43.4731137945849" lon="12.055008440589216"><ele>311.40000000000003</ele><time>2026-05-03T07:20:05Z</time></trkpt><trkpt lat="43.47319582408156" lon="12.055002478930708"><ele>311.2</ele><time>2026-05-03T07:20:06Z</time></trkpt><trkpt lat="43.4732813688377" lon="12.055020676422425"><ele>311.0</ele><time>2026-05-03T07:20:07Z</time></trkpt><trkpt lat="43.47337575067116" lon="12.055085189241236"><ele>311.0</ele><time>2026-05-03T07:20:08Z</time></trkpt><trkpt lat="43.47347441775595" lon="12.055160784460968"><ele>311.0</ele><time>2026-05-03T07:20:09Z</time></trkpt><trkpt lat="43.473581512258654" lon="12.055245674667491"><ele>311.0</ele><time>2026-05-03T07:20:10Z</time></trkpt><trkpt lat="43.47370161512604" lon="12.055335215101364"><ele>311.0</ele><time>2026-05-03T07:20:11Z</time></trkpt><trkpt lat="43.473821364698075" lon="12.055414805669356"><ele>310.75</ele><time>2026-05-03T07:20:12Z</time></trkpt><trkpt lat="43.47394485822194" lon="12.055507867314697"><ele>310.5</ele><time>2026-05-03T07:20:13Z</time></trkpt><trkpt lat="43.47407379731281" lon="12.055607821777336"><ele>310.25</ele><time>2026-05-03T07:20:14Z</time></trkpt><trkpt lat="43.47420794408087" lon="12.055706889154411"><ele>310.0</ele><time>2026-05-03T07:20:15Z</time></trkpt><trkpt lat="43.4743490021035" lon="12.05581066040462"><ele>310.0</ele><time>2026-05-03T07:20:16Z</time></trkpt><trkpt lat="43.47449151371127" lon="12.055910638987818"><ele>310.0</ele><time>2026-05-03T07:20:17Z</time></trkpt><trkpt lat="43.47463959331225" lon="12.05602029439666"><ele>310.0</ele><time>2026-05-03T07:20:18Z</time></trkpt><trkpt lat="43.47478971017527" lon="12.056130772713402"><ele>311.3333333333333</ele><time>2026-05-03T07:20:19Z</time></trkpt><trkpt lat="43.47494206848879" lon="12.056249025607574"><ele>312.6666666666667</ele><time>2026-05-03T07:20:20Z</time></trkpt><trkpt lat="43.47509263194509" lon="12.056366072240417"><ele>314.0</ele><time>2026-05-03T07:20:21Z</time></trkpt><trkpt lat="43.47524195811698" lon="12.056500274000438"><ele>313.6666666666667</ele><time>2026-05-03T07:20:22Z</time></trkpt><trkpt lat="43.47538131638756" lon="12.056642016859122"><ele>313.3333333333333</ele><time>2026-05-03T07:20:23Z</time></trkpt><trkpt lat="43.4755232035542" lon="12.056790877626357"><ele>313.0</ele><time>2026-05-03T07:20:24Z</time></trkpt><trkpt lat="43.47566217991138" lon="12.056956567805162"><ele>312.66666666666663</ele><time>2026-05-03T07:20:25Z</time></trkpt><trkpt lat="43.475798040432025" lon="12.057128200323216"><ele>312.3333333333333</ele><time>2026-05-03T07:20:26Z</time></trkpt><trkpt lat="43.47593116903507" lon="12.057304975933517"><ele>312.0</ele><time>2026-05-03T07:20:27Z</time></trkpt><trkpt lat="43.47605887049792" lon="12.057484164459984"><ele>311.6666666666667</ele><time>2026-05-03T07:20:28Z</time></trkpt><trkpt lat="43.4761794644334" lon="12.057678213308243"><ele>311.33333333333337</ele><time>2026-05-03T07:20:29Z</time></trkpt><trkpt lat="43.47629046301008" lon="12.057886936506804"><ele>311.0</ele><time>2026-05-03T07:20:30Z</time></trkpt><trkpt lat="43.47640508106039" lon="12.058100597375491"><ele>311.33333333333337</ele><time>2026-05-03T07:20:31Z</time></trkpt><trkpt lat="43.47650760484355" lon="12.058339373484536"><ele>311.6666666666667</ele><time>2026-05-03T07:20:32Z</time></trkpt><trkpt lat="43.476599039465164" lon="12.058581794634307"><ele>312.0</ele><time>2026-05-03T07:20:33Z</time></trkpt><trkpt lat="43.476693062949415" lon="12.058828111945193"><ele>312.0</ele><time>2026-05-03T07:20:34Z</time></trkpt><trkpt lat="43.47678027862488" lon="12.059089948779112"><ele>312.0</ele><time>2026-05-03T07:20:35Z</time></trkpt><trkpt lat="43.47685959488898" lon="12.059361834409911"><ele>312.0</ele><time>2026-05-03T07:20:36Z</time></trkpt><trkpt lat="43.476926818442934" lon="12.059643290572469"><ele>311.3333333333333</ele><time>2026-05-03T07:20:37Z</time></trkpt><trkpt lat="43.476989148994" lon="12.059931649081566"><ele>310.66666666666663</ele><time>2026-05-03T07:20:38Z</time></trkpt><trkpt lat="43.47705559740504" lon="12.060223024564399"><ele>310.0</ele><time>2026-05-03T07:20:39Z</time></trkpt><trkpt lat="43.47712014646266" lon="12.060499647367822"><ele>309.66666666666663</ele><time>2026-05-03T07:20:40Z</time></trkpt><trkpt lat="43.477177203516526" lon="12.060775485521226"><ele>309.3333333333333</ele><time>2026-05-03T07:20:41Z</time></trkpt><trkpt lat="43.47723701748604" lon="12.061055390034364"><ele>309.0</ele><time>2026-05-03T07:20:42Z</time></trkpt><trkpt lat="43.4773165366633" lon="12.061332426733884"><ele>309.0</ele><time>2026-05-03T07:20:43Z</time></trkpt><trkpt lat="43.477391345401436" lon="12.061598714551328"><ele>309.0</ele><time>2026-05-03T07:20:44Z</time></trkpt><trkpt lat="43.477467408189895" lon="12.061859698540955"><ele>309.0</ele><time>2026-05-03T07:20:45Z</time></trkpt><trkpt lat="43.47753729420802" lon="12.06206406709717"><ele>309.0</ele><time>2026-05-03T07:20:46Z</time></trkpt><trkpt lat="43.47764775545344" lon="12.062248359743878"><ele>309.0</ele><time>2026-05-03T07:20:47Z</time></trkpt><trkpt lat="43.4777825364746" lon="12.062428271815577"><ele>309.0</ele><time>2026-05-03T07:20:48Z</time></trkpt><trkpt lat="43.477924433328106" lon="12.062595588326726"><ele>309.0</ele><time>2026-05-03T07:20:49Z</time></trkpt><trkpt lat="43.47809030439861" lon="12.062643581758058"><ele>309.0</ele><time>2026-05-03T07:20:50Z</time></trkpt><trkpt lat="43.47826467650377" lon="12.06268152334363"><ele>309.0</ele><time>2026-05-03T07:20:51Z</time></trkpt><trkpt lat="43.47844330689925" lon="12.062679569668846"><ele>309.0</ele><time>2026-05-03T07:20:52Z</time></trkpt><trkpt lat="43.4786199640248" lon="12.062629688038154"><ele>309.0</ele><time>2026-05-03T07:20:53Z</time></trkpt><trkpt lat="43.47879606172376" lon="12.0625624848802"><ele>309.0</ele><time>2026-05-03T07:20:54Z</time></trkpt><trkpt lat="43.478967938507516" lon="12.062492113338921"><ele>308.6666666666667</ele><time>2026-05-03T07:20:55Z</time></trkpt><trkpt lat="43.479143178539715" lon="12.062428896711538"><ele>308.33333333333337</ele><time>2026-05-03T07:20:56Z</time></trkpt><trkpt lat="43.47931507600191" lon="12.062367497355025"><ele>308.0</ele><time>2026-05-03T07:20:57Z</time></trkpt><trkpt lat="43.479484489741616" lon="12.062302999499392"><ele>311.0</ele><time>2026-05-03T07:20:58Z</time></trkpt><trkpt lat="43.47965122742555" lon="12.062238553433508"><ele>314.0</ele><time>2026-05-03T07:20:59Z</time></trkpt><trkpt lat="43.47981501075894" lon="12.062215988175744"><ele>317.0</ele><time>2026-05-03T07:21:00Z</time></trkpt><trkpt lat="43.47997064567979" lon="12.062244636769115"><ele>317.0</ele><time>2026-05-03T07:21:01Z</time></trkpt><trkpt lat="43.48010241059989" lon="12.062351557115099"><ele>317.0</ele><time>2026-05-03T07:21:02Z</time></trkpt><trkpt lat="43.48021922709649" lon="12.062489740319663"><ele>317.0</ele><time>2026-05-03T07:21:03Z</time></trkpt><trkpt lat="43.48033351104367" lon="12.062651393103991"><ele>318.0</ele><time>2026-05-03T07:21:04Z</time></trkpt><trkpt lat="43.480418093606055" lon="12.062872944257565"><ele>319.0</ele><time>2026-05-03T07:21:05Z</time></trkpt><trkpt lat="43.48051758885358" lon="12.063077886340553"><ele>320.0</ele><time>2026-05-03T07:21:06Z</time></trkpt><trkpt lat="43.48059860048847" lon="12.063311887956903"><ele>320.0</ele><time>2026-05-03T07:21:07Z</time></trkpt><trkpt lat="43.48067218792124" lon="12.063564865887177"><ele>320.0</ele><time>2026-05-03T07:21:08Z</time></trkpt><trkpt lat="43.480735875353666" lon="12.063817414284138"><ele>320.0</ele><time>2026-05-03T07:21:09Z</time></trkpt><trkpt lat="43.480795290792244" lon="12.064080640436856"><ele>317.6666666666667</ele><time>2026-05-03T07:21:10Z</time></trkpt><trkpt lat="43.48084748689196" lon="12.064349706165066"><ele>315.3333333333333</ele><time>2026-05-03T07:21:11Z</time></trkpt><trkpt lat="43.4808788575234" lon="12.064635937542564"><ele>313.0</ele><time>2026-05-03T07:21:12Z</time></trkpt><trkpt lat="43.48091930059982" lon="12.064906348678836"><ele>312.3333333333333</ele><time>2026-05-03T07:21:13Z</time></trkpt><trkpt lat="43.480961813804704" lon="12.065182150682697"><ele>311.6666666666667</ele><time>2026-05-03T07:21:14Z</time></trkpt><trkpt lat="43.481001203240815" lon="12.065457604309387"><ele>311.0</ele><time>2026-05-03T07:21:15Z</time></trkpt><trkpt lat="43.48104115710714" lon="12.065733835363652"><ele>310.6666666666667</ele><time>2026-05-03T07:21:16Z</time></trkpt><trkpt lat="43.481081140170566" lon="12.066011207086985"><ele>310.3333333333333</ele><time>2026-05-03T07:21:17Z</time></trkpt><trkpt lat="43.48112040234614" lon="12.06628610004695"><ele>310.0</ele><time>2026-05-03T07:21:18Z</time></trkpt><trkpt lat="43.481149859852344" lon="12.066560003198989"><ele>309.66666666666663</ele><time>2026-05-03T07:21:19Z</time></trkpt><trkpt lat="43.481163396856545" lon="12.066837313829094"><ele>309.3333333333333</ele><time>2026-05-03T07:21:20Z</time></trkpt><trkpt lat="43.48116717897386" lon="12.067114183902344"><ele>309.0</ele><time>2026-05-03T07:21:21Z</time></trkpt><trkpt lat="43.481166901427095" lon="12.067393989796322"><ele>308.6666666666667</ele><time>2026-05-03T07:21:22Z</time></trkpt><trkpt lat="43.48116540778826" lon="12.067673933297923"><ele>308.33333333333337</ele><time>2026-05-03T07:21:23Z</time></trkpt><trkpt lat="43.48116484447326" lon="12.067954888735434"><ele>308.0</ele><time>2026-05-03T07:21:24Z</time></trkpt><trkpt lat="43.48117328938609" lon="12.068233753057555"><ele>308.0</ele><time>2026-05-03T07:21:25Z</time></trkpt><trkpt lat="43.48119452153719" lon="12.068514534506848"><ele>308.0</ele><time>2026-05-03T07:21:26Z</time></trkpt><trkpt lat="43.481227162840625" lon="12.068791818711079"><ele>308.0</ele><time>2026-05-03T07:21:27Z</time></trkpt><trkpt lat="43.48127305123797" lon="12.06906520623238"><ele>311.6666666666667</ele><time>2026-05-03T07:21:28Z</time></trkpt><trkpt lat="43.481329095763506" lon="12.069327889656273"><ele>315.3333333333333</ele><time>2026-05-03T07:21:29Z</time></trkpt><trkpt lat="43.481391863314315" lon="12.069583590545838"><ele>319.0</ele><time>2026-05-03T07:21:30Z</time></trkpt><trkpt lat="43.48146099239251" lon="12.069830261632232"><ele>316.0</ele><time>2026-05-03T07:21:31Z</time></trkpt><trkpt lat="43.481544155354385" lon="12.070069032578362"><ele>313.0</ele><time>2026-05-03T07:21:32Z</time></trkpt><trkpt lat="43.48163277494886" lon="12.070302008344422"><ele>310.0</ele><time>2026-05-03T07:21:33Z</time></trkpt><trkpt lat="43.48172833745909" lon="12.070526495301385"><ele>310.0</ele><time>2026-05-03T07:21:34Z</time></trkpt><trkpt lat="43.48181932467582" lon="12.070753015957706"><ele>310.0</ele><time>2026-05-03T07:21:35Z</time></trkpt><trkpt lat="43.48190755646072" lon="12.070981145209084"><ele>310.0</ele><time>2026-05-03T07:21:36Z</time></trkpt><trkpt lat="43.481994963796026" lon="12.071210126635206"><ele>310.0</ele><time>2026-05-03T07:21:37Z</time></trkpt><trkpt lat="43.48208295092365" lon="12.071436789047418"><ele>310.0</ele><time>2026-05-03T07:21:38Z</time></trkpt><trkpt lat="43.482172674111006" lon="12.071661251097368"><ele>310.0</ele><time>2026-05-03T07:21:39Z</time></trkpt><trkpt lat="43.48226314421716" lon="12.071883953606559"><ele>311.66666666666663</ele><time>2026-05-03T07:21:40Z</time></trkpt><trkpt lat="43.48235075190998" lon="12.072104603722405"><ele>313.3333333333333</ele><time>2026-05-03T07:21:41Z</time></trkpt><trkpt lat="43.482436575500884" lon="12.07232742104774"><ele>315.0</ele><time>2026-05-03T07:21:42Z</time></trkpt><trkpt lat="43.482520992525586" lon="12.072549785846915"><ele>315.0</ele><time>2026-05-03T07:21:43Z</time></trkpt><trkpt lat="43.48260977731605" lon="12.072770776431087"><ele>315.0</ele><time>2026-05-03T07:21:44Z</time></trkpt><trkpt lat="43.48270069111613" lon="12.072988369913437"><ele>315.0</ele><time>2026-05-03T07:21:45Z</time></trkpt><trkpt lat="43.48279525301762" lon="12.073205189421047"><ele>316.3333333333333</ele><time>2026-05-03T07:21:46Z</time></trkpt><trkpt lat="43.482894785451556" lon="12.073414797780275"><ele>317.66666666666663</ele><time>2026-05-03T07:21:47Z</time></trkpt><trkpt lat="43.483001486228794" lon="12.073623866585798"><ele>319.0</ele><time>2026-05-03T07:21:48Z</time></trkpt><trkpt lat="43.483112901500434" lon="12.073826525803986"><ele>319.0</ele><time>2026-05-03T07:21:49Z</time></trkpt><trkpt lat="43.483228590321986" lon="12.074025494848463"><ele>319.0</ele><time>2026-05-03T07:21:50Z</time></trkpt><trkpt lat="43.48334679678668" lon="12.074221195260725"><ele>319.0</ele><time>2026-05-03T07:21:51Z</time></trkpt><trkpt lat="43.48346305676647" lon="12.074413066745738"><ele>317.66666666666663</ele><time>2026-05-03T07:21:52Z</time></trkpt><trkpt lat="43.48356429335951" lon="12.074602493159457"><ele>316.3333333333333</ele><time>2026-05-03T07:21:53Z</time></trkpt><trkpt lat="43.483652720887676" lon="12.07478837448177"><ele>315.0</ele><time>2026-05-03T07:21:54Z</time></trkpt><trkpt lat="43.48373341801388" lon="12.074970141483506"><ele>315.75</ele><time>2026-05-03T07:21:55Z</time></trkpt><trkpt lat="43.48380445684559" lon="12.075151680293821"><ele>316.5</ele><time>2026-05-03T07:21:56Z</time></trkpt><trkpt lat="43.48387317572862" lon="12.075335330441963"><ele>317.25</ele><time>2026-05-03T07:21:57Z</time></trkpt><trkpt lat="43.48393673470115" lon="12.075519744742612"><ele>318.0</ele><time>2026-05-03T07:21:58Z</time></trkpt><trkpt lat="43.484001980199245" lon="12.075705842295728"><ele>316.3333333333333</ele><time>2026-05-03T07:21:59Z</time></trkpt><trkpt lat="43.484071030623475" lon="12.075891038575724"><ele>314.66666666666663</ele><time>2026-05-03T07:22:00Z</time></trkpt><trkpt lat="43.4841341411412" lon="12.076076714462513"><ele>313.0</ele><time>2026-05-03T07:22:01Z</time></trkpt><trkpt lat="43.484198844711216" lon="12.076264467820142"><ele>313.0</ele><time>2026-05-03T07:22:02Z</time></trkpt><trkpt lat="43.4842627480522" lon="12.076461148443647"><ele>313.0</ele><time>2026-05-03T07:22:03Z</time></trkpt><trkpt lat="43.48432888094743" lon="12.076648697300941"><ele>313.0</ele><time>2026-05-03T07:22:04Z</time></trkpt><trkpt lat="43.48439364732448" lon="12.0768361003507"><ele>311.66666666666663</ele><time>2026-05-03T07:22:05Z</time></trkpt><trkpt lat="43.48445783380371" lon="12.077024764920294"><ele>310.3333333333333</ele><time>2026-05-03T07:22:06Z</time></trkpt><trkpt lat="43.484521886495266" lon="12.077209419338642"><ele>309.0</ele><time>2026-05-03T07:22:07Z</time></trkpt><trkpt lat="43.48458255989916" lon="12.077400682757194"><ele>310.75</ele><time>2026-05-03T07:22:08Z</time></trkpt><trkpt lat="43.48465052868534" lon="12.077583175389401"><ele>312.5</ele><time>2026-05-03T07:22:09Z</time></trkpt><trkpt lat="43.484719407147814" lon="12.077761620700501"><ele>314.25</ele><time>2026-05-03T07:22:10Z</time></trkpt><trkpt lat="43.48479155577291" lon="12.077937857287033"><ele>316.0</ele><time>2026-05-03T07:22:11Z</time></trkpt><trkpt lat="43.4848793090058" lon="12.078095431900184"><ele>316.0</ele><time>2026-05-03T07:22:12Z</time></trkpt><trkpt lat="43.48498118480076" lon="12.078230209256192"><ele>316.0</ele><time>2026-05-03T07:22:13Z</time></trkpt><trkpt lat="43.48509799865616" lon="12.07833268836945"><ele>316.0</ele><time>2026-05-03T07:22:14Z</time></trkpt><trkpt lat="43.48522450562599" lon="12.078419755519784"><ele>316.0</ele><time>2026-05-03T07:22:15Z</time></trkpt><trkpt lat="43.48535325470155" lon="12.07848119158625"><ele>316.75</ele><time>2026-05-03T07:22:16Z</time></trkpt><trkpt lat="43.485486418867985" lon="12.078540662751895"><ele>317.5</ele><time>2026-05-03T07:22:17Z</time></trkpt><trkpt lat="43.4856180297174" lon="12.0786049618844"><ele>318.25</ele><time>2026-05-03T07:22:18Z</time></trkpt><trkpt lat="43.48574293878333" lon="12.07867774901393"><ele>319.0</ele><time>2026-05-03T07:22:19Z</time></trkpt><trkpt lat="43.48586916485172" lon="12.078763853248498"><ele>319.0</ele><time>2026-05-03T07:22:20Z</time></trkpt><trkpt lat="43.48599213176302" lon="12.078867904927865"><ele>319.0</ele><time>2026-05-03T07:22:21Z</time></trkpt><trkpt lat="43.486114042316444" lon="12.078989452604786"><ele>319.0</ele><time>2026-05-03T07:22:22Z</time></trkpt><trkpt lat="43.48623572996159" lon="12.07912144118428"><ele>320.3333333333333</ele><time>2026-05-03T07:22:23Z</time></trkpt><trkpt lat="43.48636005719032" lon="12.0792514071558"><ele>321.6666666666667</ele><time>2026-05-03T07:22:24Z</time></trkpt><trkpt lat="43.4864882053342" lon="12.07938329345071"><ele>323.0</ele><time>2026-05-03T07:22:25Z</time></trkpt><trkpt lat="43.48661556874755" lon="12.079519379595459"><ele>323.0</ele><time>2026-05-03T07:22:26Z</time></trkpt><trkpt lat="43.48674518996632" lon="12.079654646025094"><ele>323.0</ele><time>2026-05-03T07:22:27Z</time></trkpt><trkpt lat="43.486875702335176" lon="12.079774518743758"><ele>323.0</ele><time>2026-05-03T07:22:28Z</time></trkpt><trkpt lat="43.48702198509026" lon="12.07985368942758"><ele>326.0</ele><time>2026-05-03T07:22:29Z</time></trkpt><trkpt lat="43.48717917077775" lon="12.079891991587564"><ele>329.0</ele><time>2026-05-03T07:22:30Z</time></trkpt><trkpt lat="43.48733431461173" lon="12.07999416983452"><ele>332.0</ele><time>2026-05-03T07:22:31Z</time></trkpt><trkpt lat="43.48749663403229" lon="12.079850261431531"><ele>331.6666666666667</ele><time>2026-05-03T07:22:32Z</time></trkpt><trkpt lat="43.487649384008826" lon="12.079772076238374"><ele>331.3333333333333</ele><time>2026-05-03T07:22:33Z</time></trkpt><trkpt lat="43.48779517260723" lon="12.07966635694275"><ele>331.0</ele><time>2026-05-03T07:22:34Z</time></trkpt><trkpt lat="43.487938724826215" lon="12.07955011920331"><ele>331.0</ele><time>2026-05-03T07:22:35Z</time></trkpt><trkpt lat="43.48808400697367" lon="12.079441425509476"><ele>331.0</ele><time>2026-05-03T07:22:36Z</time></trkpt><trkpt lat="43.4882383644471" lon="12.079341729059472"><ele>331.0</ele><time>2026-05-03T07:22:37Z</time></trkpt><trkpt lat="43.4884016391285" lon="12.079258149102042"><ele>331.0</ele><time>2026-05-03T07:22:38Z</time></trkpt><trkpt lat="43.48857109982766" lon="12.079195294877943"><ele>331.0</ele><time>2026-05-03T07:22:39Z</time></trkpt><trkpt lat="43.48874376448902" lon="12.079163788392652"><ele>331.0</ele><time>2026-05-03T07:22:40Z</time></trkpt><trkpt lat="43.488921760685194" lon="12.079154010366155"><ele>328.3333333333333</ele><time>2026-05-03T07:22:41Z</time></trkpt><trkpt lat="43.48910219437652" lon="12.07916800396862"><ele>325.6666666666667</ele><time>2026-05-03T07:22:42Z</time></trkpt><trkpt lat="43.489285375229244" lon="12.079202181008588"><ele>323.0</ele><time>2026-05-03T07:22:43Z</time></trkpt><trkpt lat="43.489474255371476" lon="12.079250189276708"><ele>322.0</ele><time>2026-05-03T07:22:44Z</time></trkpt><trkpt lat="43.489665608182555" lon="12.079303909105686"><ele>321.0</ele><time>2026-05-03T07:22:45Z</time></trkpt><trkpt lat="43.489862929448954" lon="12.079357017744845"><ele>320.0</ele><time>2026-05-03T07:22:46Z</time></trkpt><trkpt lat="43.4900594722621" lon="12.079407434521448"><ele>320.0</ele><time>2026-05-03T07:22:47Z</time></trkpt><trkpt lat="43.490257303428365" lon="12.079463984929198"><ele>320.0</ele><time>2026-05-03T07:22:48Z</time></trkpt><trkpt lat="43.490458870188675" lon="12.07951401837438"><ele>320.0</ele><time>2026-05-03T07:22:49Z</time></trkpt><trkpt lat="43.490661780600924" lon="12.079563114435407"><ele>319.33333333333337</ele><time>2026-05-03T07:22:50Z</time></trkpt><trkpt lat="43.49086191438049" lon="12.079618160334762"><ele>318.6666666666667</ele><time>2026-05-03T07:22:51Z</time></trkpt><trkpt lat="43.4910592243705" lon="12.07969094811041"><ele>318.0</ele><time>2026-05-03T07:22:52Z</time></trkpt><trkpt lat="43.49125029861471" lon="12.07979218374437"><ele>319.6666666666667</ele><time>2026-05-03T07:22:53Z</time></trkpt><trkpt lat="43.49143424732419" lon="12.079913170252716"><ele>321.33333333333337</ele><time>2026-05-03T07:22:54Z</time></trkpt><trkpt lat="43.49161159780248" lon="12.08005077997694"><ele>323.0</ele><time>2026-05-03T07:22:55Z</time></trkpt><trkpt lat="43.491777306090405" lon="12.080206135215983"><ele>323.0</ele><time>2026-05-03T07:22:56Z</time></trkpt><trkpt lat="43.49193880534501" lon="12.080379096590555"><ele>323.0</ele><time>2026-05-03T07:22:57Z</time></trkpt><trkpt lat="43.49209062258769" lon="12.08056959000034"><ele>323.0</ele><time>2026-05-03T07:22:58Z</time></trkpt><trkpt lat="43.49222905208478" lon="12.080774221904667"><ele>322.33333333333337</ele><time>2026-05-03T07:22:59Z</time></trkpt><trkpt lat="43.49235782531783" lon="12.080987345752975"><ele>321.6666666666667</ele><time>2026-05-03T07:23:00Z</time></trkpt><trkpt lat="43.49248485984557" lon="12.081200850321634"><ele>321.0</ele><time>2026-05-03T07:23:01Z</time></trkpt><trkpt lat="43.492610594032776" lon="12.081407429765221"><ele>319.6666666666667</ele><time>2026-05-03T07:23:02Z</time></trkpt><trkpt lat="43.49273461024971" lon="12.081607343941997"><ele>318.33333333333337</ele><time>2026-05-03T07:23:03Z</time></trkpt><trkpt lat="43.4928610173325" lon="12.081792073075087"><ele>317.0</ele><time>2026-05-03T07:23:04Z</time></trkpt><trkpt lat="43.492988388167745" lon="12.081961086819009"><ele>321.6666666666667</ele><time>2026-05-03T07:23:05Z</time></trkpt><trkpt lat="43.49312655596082" lon="12.082108947792218"><ele>326.3333333333333</ele><time>2026-05-03T07:23:06Z</time></trkpt><trkpt lat="43.49327823416296" lon="12.082237154480596"><ele>331.0</ele><time>2026-05-03T07:23:07Z</time></trkpt><trkpt lat="43.493443966154125" lon="12.082344109821115"><ele>331.0</ele><time>2026-05-03T07:23:08Z</time></trkpt><trkpt lat="43.493621255956796" lon="12.082421085428017"><ele>331.0</ele><time>2026-05-03T07:23:09Z</time></trkpt><trkpt lat="43.49380812477755" lon="12.082483093635949"><ele>331.0</ele><time>2026-05-03T07:23:10Z</time></trkpt><trkpt lat="43.493997376428695" lon="12.082574276457084"><ele>329.3333333333333</ele><time>2026-05-03T07:23:11Z</time></trkpt><trkpt lat="43.494195703727875" lon="12.08265659444248"><ele>327.6666666666667</ele><time>2026-05-03T07:23:12Z</time></trkpt><trkpt lat="43.49439738205321" lon="12.082739411183402"><ele>326.0</ele><time>2026-05-03T07:23:13Z</time></trkpt><trkpt lat="43.49460012494949" lon="12.082822089470145"><ele>326.0</ele><time>2026-05-03T07:23:14Z</time></trkpt><trkpt lat="43.49480205917902" lon="12.082890399474287"><ele>326.0</ele><time>2026-05-03T07:23:15Z</time></trkpt><trkpt lat="43.49499831743322" lon="12.082983082084152"><ele>326.0</ele><time>2026-05-03T07:23:16Z</time></trkpt><trkpt lat="43.495194381867535" lon="12.083067951582413"><ele>326.0</ele><time>2026-05-03T07:23:17Z</time></trkpt><trkpt lat="43.49539143416474" lon="12.083146313577988"><ele>326.0</ele><time>2026-05-03T07:23:18Z</time></trkpt><trkpt lat="43.495586057607305" lon="12.083227576878048"><ele>326.0</ele><time>2026-05-03T07:23:19Z</time></trkpt><trkpt lat="43.4957786792294" lon="12.083309422984087"><ele>326.0</ele><time>2026-05-03T07:23:20Z</time></trkpt><trkpt lat="43.495971795806945" lon="12.08339249710729"><ele>326.0</ele><time>2026-05-03T07:23:21Z</time></trkpt><trkpt lat="43.49615944652706" lon="12.083483089262426"><ele>326.0</ele><time>2026-05-03T07:23:22Z</time></trkpt><trkpt lat="43.49633965617988" lon="12.083593652713596"><ele>329.0</ele><time>2026-05-03T07:23:23Z</time></trkpt><trkpt lat="43.49651527147607" lon="12.083718710304124"><ele>332.0</ele><time>2026-05-03T07:23:24Z</time></trkpt><trkpt lat="43.49669865120169" lon="12.083847500370018"><ele>335.0</ele><time>2026-05-03T07:23:25Z</time></trkpt><trkpt lat="43.4968636235079" lon="12.083998861264151"><ele>333.33333333333337</ele><time>2026-05-03T07:23:26Z</time></trkpt><trkpt lat="43.49702809201194" lon="12.08415739396023"><ele>331.6666666666667</ele><time>2026-05-03T07:23:27Z</time></trkpt><trkpt lat="43.49719221183809" lon="12.084303406777412"><ele>330.0</ele><time>2026-05-03T07:23:28Z</time></trkpt><trkpt lat="43.497352173181284" lon="12.084445847141057"><ele>335.0</ele><time>2026-05-03T07:23:29Z</time></trkpt><trkpt lat="43.4975143536867" lon="12.08457381971849"><ele>340.0</ele><time>2026-05-03T07:23:30Z</time></trkpt><trkpt lat="43.49769168347444" lon="12.08467547785852"><ele>345.0</ele><time>2026-05-03T07:23:31Z</time></trkpt><trkpt lat="43.49787709002964" lon="12.08475830534515"><ele>345.3333333333333</ele><time>2026-05-03T07:23:32Z</time></trkpt><trkpt lat="43.49806721977772" lon="12.084835090761857"><ele>345.66666666666663</ele><time>2026-05-03T07:23:33Z</time></trkpt><trkpt lat="43.498259726718906" lon="12.0849099199519"><ele>346.0</ele><time>2026-05-03T07:23:34Z</time></trkpt><trkpt lat="43.49845334304815" lon="12.0849858863171"><ele>344.3333333333333</ele><time>2026-05-03T07:23:35Z</time></trkpt><trkpt lat="43.498643205992956" lon="12.085053584302836"><ele>342.6666666666667</ele><time>2026-05-03T07:23:36Z</time></trkpt><trkpt lat="43.49884169351992" lon="12.085081046827277"><ele>341.0</ele><time>2026-05-03T07:23:37Z</time></trkpt><trkpt lat="43.49903407067382" lon="12.085068902287427"><ele>339.33333333333337</ele><time>2026-05-03T07:23:38Z</time></trkpt><trkpt lat="43.49923162096841" lon="12.085034667964079"><ele>337.6666666666667</ele><time>2026-05-03T07:23:39Z</time></trkpt><trkpt lat="43.499420202204" lon="12.084958224115269"><ele>336.0</ele><time>2026-05-03T07:23:40Z</time></trkpt><trkpt lat="43.49960503923612" lon="12.084843364197914"><ele>335.6666666666667</ele><time>2026-05-03T07:23:41Z</time></trkpt><trkpt lat="43.49977542320676" lon="12.08467882213736"><ele>335.33333333333337</ele><time>2026-05-03T07:23:42Z</time></trkpt><trkpt lat="43.499942755688124" lon="12.084498513348242"><ele>335.0</ele><time>2026-05-03T07:23:43Z</time></trkpt><trkpt lat="43.5000977875161" lon="12.08430469720621"><ele>336.6666666666667</ele><time>2026-05-03T07:23:44Z</time></trkpt><trkpt lat="43.500239000995705" lon="12.084087115067899"><ele>338.3333333333333</ele><time>2026-05-03T07:23:45Z</time></trkpt><trkpt lat="43.50038095072516" lon="12.083867322802913"><ele>340.0</ele><time>2026-05-03T07:23:46Z</time></trkpt><trkpt lat="43.50052064556149" lon="12.08364590868394"><ele>333.3333333333333</ele><time>2026-05-03T07:23:47Z</time></trkpt><trkpt lat="43.500665806226664" lon="12.083424087879461"><ele>326.6666666666667</ele><time>2026-05-03T07:23:48Z</time></trkpt><trkpt lat="43.50080793964891" lon="12.083219731214044"><ele>320.0</ele><time>2026-05-03T07:23:49Z</time></trkpt><trkpt lat="43.500944743831205" lon="12.083022926311639"><ele>320.0</ele><time>2026-05-03T07:23:50Z</time></trkpt><trkpt lat="43.501073410234895" lon="12.08283665584753"><ele>320.0</ele><time>2026-05-03T07:23:51Z</time></trkpt><trkpt lat="43.501197002085554" lon="12.082660207954852"><ele>320.0</ele><time>2026-05-03T07:23:52Z</time></trkpt><trkpt lat="43.50132947106668" lon="12.082522523099453"><ele>317.0</ele><time>2026-05-03T07:23:53Z</time></trkpt><trkpt lat="43.50144973955712" lon="12.082396554613855"><ele>314.0</ele><time>2026-05-03T07:23:54Z</time></trkpt><trkpt lat="43.50158024012492" lon="12.082282847678892"><ele>311.0</ele><time>2026-05-03T07:23:55Z</time></trkpt><trkpt lat="43.501723354930654" lon="12.082175043444504"><ele>311.0</ele><time>2026-05-03T07:23:56Z</time></trkpt><trkpt lat="43.501870490049164" lon="12.08205520314378"><ele>311.0</ele><time>2026-05-03T07:23:57Z</time></trkpt><trkpt lat="43.50203606020812" lon="12.08197508585654"><ele>311.0</ele><time>2026-05-03T07:23:58Z</time></trkpt><trkpt lat="43.50220792459443" lon="12.081911097476484"><ele>311.0</ele><time>2026-05-03T07:23:59Z</time></trkpt><trkpt lat="43.502384946519" lon="12.081865485574765"><ele>311.0</ele><time>2026-05-03T07:24:00Z</time></trkpt><trkpt lat="43.50256597164999" lon="12.08183999559196"><ele>311.0</ele><time>2026-05-03T07:24:01Z</time></trkpt><trkpt lat="43.502749349485676" lon="12.081840491785801"><ele>310.33333333333337</ele><time>2026-05-03T07:24:02Z</time></trkpt><trkpt lat="43.502936205752704" lon="12.081867587391455"><ele>309.6666666666667</ele><time>2026-05-03T07:24:03Z</time></trkpt><trkpt lat="43.50312503283197" lon="12.081917065248906"><ele>309.0</ele><time>2026-05-03T07:24:04Z</time></trkpt><trkpt lat="43.503313018340336" lon="12.08198947060943"><ele>309.0</ele><time>2026-05-03T07:24:05Z</time></trkpt><trkpt lat="43.50350068249502" lon="12.082068550523324"><ele>309.0</ele><time>2026-05-03T07:24:06Z</time></trkpt><trkpt lat="43.50369011475827" lon="12.08214221634871"><ele>309.0</ele><time>2026-05-03T07:24:07Z</time></trkpt><trkpt lat="43.503882755337635" lon="12.08221183473297"><ele>309.0</ele><time>2026-05-03T07:24:08Z</time></trkpt><trkpt lat="43.50407391083694" lon="12.08228584345234"><ele>309.0</ele><time>2026-05-03T07:24:09Z</time></trkpt><trkpt lat="43.50426418140723" lon="12.082359729529914"><ele>309.0</ele><time>2026-05-03T07:24:10Z</time></trkpt><trkpt lat="43.504454419889754" lon="12.082428682665157"><ele>309.3333333333333</ele><time>2026-05-03T07:24:11Z</time></trkpt><trkpt lat="43.504641192179996" lon="12.082495760054643"><ele>309.66666666666663</ele><time>2026-05-03T07:24:12Z</time></trkpt><trkpt lat="43.50482390559692" lon="12.082563096374749"><ele>310.0</ele><time>2026-05-03T07:24:13Z</time></trkpt><trkpt lat="43.50500587648887" lon="12.082630905330342"><ele>310.0</ele><time>2026-05-03T07:24:14Z</time></trkpt><trkpt lat="43.50518363053856" lon="12.082700598814265"><ele>310.0</ele><time>2026-05-03T07:24:15Z</time></trkpt><trkpt lat="43.50536414501744" lon="12.082770013199656"><ele>310.0</ele><time>2026-05-03T07:24:16Z</time></trkpt><trkpt lat="43.50554462191332" lon="12.082834910032387"><ele>310.0</ele><time>2026-05-03T07:24:17Z</time></trkpt><trkpt lat="43.50572771705807" lon="12.082900955987686"><ele>310.0</ele><time>2026-05-03T07:24:18Z</time></trkpt><trkpt lat="43.50591233785278" lon="12.082974853739799"><ele>310.0</ele><time>2026-05-03T07:24:19Z</time></trkpt><trkpt lat="43.5061006436147" lon="12.083049117777879"><ele>309.66666666666663</ele><time>2026-05-03T07:24:20Z</time></trkpt><trkpt lat="43.50629110988181" lon="12.08312085698803"><ele>309.3333333333333</ele><time>2026-05-03T07:24:21Z</time></trkpt><trkpt lat="43.506484427496886" lon="12.083194161372028"><ele>309.0</ele><time>2026-05-03T07:24:22Z</time></trkpt><trkpt lat="43.506677042470464" lon="12.083266045262551"><ele>308.6666666666667</ele><time>2026-05-03T07:24:23Z</time></trkpt><trkpt lat="43.50687241282518" lon="12.083340486829144"><ele>308.33333333333337</ele><time>2026-05-03T07:24:24Z</time></trkpt><trkpt lat="43.50707060618483" lon="12.083414086874859"><ele>308.0</ele><time>2026-05-03T07:24:25Z</time></trkpt><trkpt lat="43.50726750196165" lon="12.08349052260603"><ele>308.0</ele><time>2026-05-03T07:24:26Z</time></trkpt><trkpt lat="43.507467851118" lon="12.083566051494689"><ele>308.0</ele><time>2026-05-03T07:24:27Z</time></trkpt><trkpt lat="43.50766672818868" lon="12.08364384473038"><ele>308.0</ele><time>2026-05-03T07:24:28Z</time></trkpt><trkpt lat="43.50786917054011" lon="12.083722914841841"><ele>308.6666666666667</ele><time>2026-05-03T07:24:29Z</time></trkpt><trkpt lat="43.5080710932551" lon="12.083798683514699"><ele>309.3333333333333</ele><time>2026-05-03T07:24:30Z</time></trkpt><trkpt lat="43.508272859089374" lon="12.083875636908267"><ele>310.0</ele><time>2026-05-03T07:24:31Z</time></trkpt><trkpt lat="43.50847357277807" lon="12.083952103256832"><ele>310.0</ele><time>2026-05-03T07:24:32Z</time></trkpt><trkpt lat="43.508673881299565" lon="12.084022754041674"><ele>310.0</ele><time>2026-05-03T07:24:33Z</time></trkpt><trkpt lat="43.50887236341129" lon="12.084095810660177"><ele>310.0</ele><time>2026-05-03T07:24:34Z</time></trkpt><trkpt lat="43.509068735795175" lon="12.084171190821069"><ele>310.0</ele><time>2026-05-03T07:24:35Z</time></trkpt><trkpt lat="43.50926547553917" lon="12.084237176506475"><ele>310.0</ele><time>2026-05-03T07:24:36Z</time></trkpt><trkpt lat="43.50946369776875" lon="12.084294960170052"><ele>310.0</ele><time>2026-05-03T07:24:37Z</time></trkpt><trkpt lat="43.50966331985179" lon="12.084344531483165"><ele>310.3333333333333</ele><time>2026-05-03T07:24:38Z</time></trkpt><trkpt lat="43.509863497963046" lon="12.084382686338678"><ele>310.6666666666667</ele><time>2026-05-03T07:24:39Z</time></trkpt><trkpt lat="43.510063270610125" lon="12.084413971865663"><ele>311.0</ele><time>2026-05-03T07:24:40Z</time></trkpt><trkpt lat="43.510265690472764" lon="12.084442683526811"><ele>311.0</ele><time>2026-05-03T07:24:41Z</time></trkpt><trkpt lat="43.51045878944829" lon="12.084472304527798"><ele>311.0</ele><time>2026-05-03T07:24:42Z</time></trkpt><trkpt lat="43.5106563324473" lon="12.08449873062562"><ele>311.0</ele><time>2026-05-03T07:24:43Z</time></trkpt><trkpt lat="43.51085191381271" lon="12.084509574441562"><ele>311.0</ele><time>2026-05-03T07:24:44Z</time></trkpt><trkpt lat="43.51104871210677" lon="12.084502124088644"><ele>311.0</ele><time>2026-05-03T07:24:45Z</time></trkpt><trkpt lat="43.511247582232386" lon="12.084476598119224"><ele>311.0</ele><time>2026-05-03T07:24:46Z</time></trkpt><trkpt lat="43.511436167175255" lon="12.084413427692445"><ele>313.0</ele><time>2026-05-03T07:24:47Z</time></trkpt><trkpt lat="43.511623279679505" lon="12.084314535767104"><ele>315.0</ele><time>2026-05-03T07:24:48Z</time></trkpt><trkpt lat="43.51179885434331" lon="12.084189393199532"><ele>317.0</ele><time>2026-05-03T07:24:49Z</time></trkpt><trkpt lat="43.511968258681605" lon="12.084044366678317"><ele>320.33333333333337</ele><time>2026-05-03T07:24:50Z</time></trkpt><trkpt lat="43.512126807359685" lon="12.083874413584855"><ele>323.6666666666667</ele><time>2026-05-03T07:24:51Z</time></trkpt><trkpt lat="43.51227624993961" lon="12.083683414053324"><ele>327.0</ele><time>2026-05-03T07:24:52Z</time></trkpt><trkpt lat="43.51241363956456" lon="12.083479614817835"><ele>327.0</ele><time>2026-05-03T07:24:53Z</time></trkpt><trkpt lat="43.51255366804242" lon="12.083275967833172"><ele>327.0</ele><time>2026-05-03T07:24:54Z</time></trkpt><trkpt lat="43.51270539060486" lon="12.08309241284826"><ele>327.0</ele><time>2026-05-03T07:24:55Z</time></trkpt><trkpt lat="43.51285693733268" lon="12.082900195465593"><ele>329.0</ele><time>2026-05-03T07:24:56Z</time></trkpt><trkpt lat="43.51300082980266" lon="12.082699155523741"><ele>331.0</ele><time>2026-05-03T07:24:57Z</time></trkpt><trkpt lat="43.51315685868597" lon="12.082510434602597"><ele>333.0</ele><time>2026-05-03T07:24:58Z</time></trkpt><trkpt lat="43.51332103591281" lon="12.082336219855318"><ele>334.0</ele><time>2026-05-03T07:24:59Z</time></trkpt><trkpt lat="43.51349271750733" lon="12.082180619171407"><ele>335.0</ele><time>2026-05-03T07:25:00Z</time></trkpt><trkpt lat="43.513678391415816" lon="12.082060651759424"><ele>336.0</ele><time>2026-05-03T07:25:01Z</time></trkpt><trkpt lat="43.513874254749936" lon="12.081977998675923"><ele>337.0</ele><time>2026-05-03T07:25:02Z</time></trkpt><trkpt lat="43.514077869554455" lon="12.081932561412252"><ele>338.0</ele><time>2026-05-03T07:25:03Z</time></trkpt><trkpt lat="43.51428405424193" lon="12.081922415269522"><ele>339.0</ele><time>2026-05-03T07:25:04Z</time></trkpt><trkpt lat="43.51449010166726" lon="12.08193233539119"><ele>342.0</ele><time>2026-05-03T07:25:05Z</time></trkpt><trkpt lat="43.51469026681434" lon="12.081942987097696"><ele>345.0</ele><time>2026-05-03T07:25:06Z</time></trkpt><trkpt lat="43.51487765017111" lon="12.081945210039638"><ele>348.0</ele><time>2026-05-03T07:25:07Z</time></trkpt><trkpt lat="43.51504205565926" lon="12.08194496347308"><ele>348.0</ele><time>2026-05-03T07:25:08Z</time></trkpt><trkpt lat="43.51518782569487" lon="12.081945374809148"><ele>348.0</ele><time>2026-05-03T07:25:09Z</time></trkpt><trkpt lat="43.51531753016294" lon="12.081933318242067"><ele>348.0</ele><time>2026-05-03T07:25:10Z</time></trkpt><trkpt lat="43.515437710547765" lon="12.081946984879501"><ele>348.0</ele><time>2026-05-03T07:25:11Z</time></trkpt><trkpt lat="43.5155466794144" lon="12.081970699730208"><ele>348.79999999999995</ele><time>2026-05-03T07:25:12Z</time></trkpt><trkpt lat="43.515649982897266" lon="12.082020835122844"><ele>349.6</ele><time>2026-05-03T07:25:13Z</time></trkpt><trkpt lat="43.51574161295979" lon="12.082093121101996"><ele>350.4</ele><time>2026-05-03T07:25:14Z</time></trkpt><trkpt lat="43.51583197093156" lon="12.082155657027496"><ele>351.20000000000005</ele><time>2026-05-03T07:25:15Z</time></trkpt><trkpt lat="43.51592722507238" lon="12.08218056746724"><ele>352.0</ele><time>2026-05-03T07:25:16Z</time></trkpt><trkpt lat="43.516020563952644" lon="12.082152082170037"><ele>352.0</ele><time>2026-05-03T07:25:17Z</time></trkpt><trkpt lat="43.51609550404609" lon="12.082073602015836"><ele>352.0</ele><time>2026-05-03T07:25:18Z</time></trkpt><trkpt lat="43.51613656604869" lon="12.081953599884454"><ele>352.0</ele><time>2026-05-03T07:25:19Z</time></trkpt><trkpt lat="43.516133093402544" lon="12.081821057921568"><ele>352.0</ele><time>2026-05-03T07:25:20Z</time></trkpt><trkpt lat="43.516094918198526" lon="12.08168553943054"><ele>352.0</ele><time>2026-05-03T07:25:21Z</time></trkpt><trkpt lat="43.516040707572515" lon="12.081551651975454"><ele>352.0</ele><time>2026-05-03T07:25:22Z</time></trkpt><trkpt lat="43.516011232798746" lon="12.081408869283049"><ele>352.0</ele><time>2026-05-03T07:25:23Z</time></trkpt><trkpt lat="43.51599342270551" lon="12.081274523426133"><ele>352.0</ele><time>2026-05-03T07:25:24Z</time></trkpt><trkpt lat="43.51612995838242" lon="12.081138440840082"><ele>352.0</ele><time>2026-05-03T07:25:25Z</time></trkpt><trkpt lat="43.51621230996874" lon="12.080984137534678"><ele>352.5</ele><time>2026-05-03T07:25:26Z</time></trkpt><trkpt lat="43.51628761211857" lon="12.080805979211307"><ele>353.0</ele><time>2026-05-03T07:25:27Z</time></trkpt><trkpt lat="43.51637943263251" lon="12.080645083303075"><ele>353.5</ele><time>2026-05-03T07:25:28Z</time></trkpt><trkpt lat="43.51646475560311" lon="12.080473077365202"><ele>354.0</ele><time>2026-05-03T07:25:29Z</time></trkpt><trkpt lat="43.51655875296578" lon="12.080300053406976"><ele>354.6666666666667</ele><time>2026-05-03T07:25:30Z</time></trkpt><trkpt lat="43.516656581351164" lon="12.080119769482996"><ele>355.33333333333337</ele><time>2026-05-03T07:25:31Z</time></trkpt><trkpt lat="43.51675235787962" lon="12.079931045798274"><ele>356.0</ele><time>2026-05-03T07:25:32Z</time></trkpt><trkpt lat="43.51685420226078" lon="12.079742942255153"><ele>356.33333333333337</ele><time>2026-05-03T07:25:33Z</time></trkpt><trkpt lat="43.51695471641014" lon="12.079543981314767"><ele>356.6666666666667</ele><time>2026-05-03T07:25:34Z</time></trkpt><trkpt lat="43.51706171502967" lon="12.079350387539506"><ele>357.0</ele><time>2026-05-03T07:25:35Z</time></trkpt><trkpt lat="43.517164318732014" lon="12.07915530682004"><ele>356.0</ele><time>2026-05-03T07:25:36Z</time></trkpt><trkpt lat="43.51726396454746" lon="12.078961909174232"><ele>355.0</ele><time>2026-05-03T07:25:37Z</time></trkpt><trkpt lat="43.51736416209768" lon="12.078771048657591"><ele>354.0</ele><time>2026-05-03T07:25:38Z</time></trkpt><trkpt lat="43.51746609523688" lon="12.078579664337095"><ele>354.0</ele><time>2026-05-03T07:25:39Z</time></trkpt><trkpt lat="43.517571724379195" lon="12.078385175117164"><ele>354.0</ele><time>2026-05-03T07:25:40Z</time></trkpt><trkpt lat="43.517677827626144" lon="12.078187122917903"><ele>354.0</ele><time>2026-05-03T07:25:41Z</time></trkpt><trkpt lat="43.51778214520649" lon="12.077987150735284"><ele>354.3333333333333</ele><time>2026-05-03T07:25:42Z</time></trkpt><trkpt lat="43.517887479972046" lon="12.07778491377636"><ele>354.66666666666663</ele><time>2026-05-03T07:25:43Z</time></trkpt><trkpt lat="43.51799494238465" lon="12.077582248356732"><ele>355.0</ele><time>2026-05-03T07:25:44Z</time></trkpt><trkpt lat="43.518105872443016" lon="12.07737352843399"><ele>355.0</ele><time>2026-05-03T07:25:45Z</time></trkpt><trkpt lat="43.518217960831684" lon="12.077162392879652"><ele>355.0</ele><time>2026-05-03T07:25:46Z</time></trkpt><trkpt lat="43.51833228022272" lon="12.076948863335254"><ele>355.0</ele><time>2026-05-03T07:25:47Z</time></trkpt><trkpt lat="43.51844585258298" lon="12.076731060675003"><ele>354.66666666666663</ele><time>2026-05-03T07:25:48Z</time></trkpt><trkpt lat="43.51856114342471" lon="12.076509402715454"><ele>354.3333333333333</ele><time>2026-05-03T07:25:49Z</time></trkpt><trkpt lat="43.51867688878307" lon="12.076270116095383"><ele>354.0</ele><time>2026-05-03T07:25:50Z</time></trkpt><trkpt lat="43.51880222816498" lon="12.076049734710004"><ele>354.0</ele><time>2026-05-03T07:25:51Z</time></trkpt><trkpt lat="43.51892925266284" lon="12.075817099077742"><ele>354.0</ele><time>2026-05-03T07:25:52Z</time></trkpt><trkpt lat="43.51905726287298" lon="12.075575165177185"><ele>354.0</ele><time>2026-05-03T07:25:53Z</time></trkpt><trkpt lat="43.51918630897945" lon="12.075332147204163"><ele>354.0</ele><time>2026-05-03T07:25:54Z</time></trkpt><trkpt lat="43.51932051607542" lon="12.075085793786103"><ele>354.0</ele><time>2026-05-03T07:25:55Z</time></trkpt><trkpt lat="43.51945228924162" lon="12.074838779008793"><ele>354.0</ele><time>2026-05-03T07:25:56Z</time></trkpt><trkpt lat="43.51958675267613" lon="12.07459156541367"><ele>356.0</ele><time>2026-05-03T07:25:57Z</time></trkpt><trkpt lat="43.51972091345018" lon="12.07434110450633"><ele>358.0</ele><time>2026-05-03T07:25:58Z</time></trkpt><trkpt lat="43.51985878079874" lon="12.074086385748782"><ele>358.0</ele><time>2026-05-03T07:25:59Z</time></trkpt><trkpt lat="43.51999679794151" lon="12.073825358896325"><ele>358.0</ele><time>2026-05-03T07:26:00Z</time></trkpt><trkpt lat="43.52013875364207" lon="12.073560030768109"><ele>358.0</ele><time>2026-05-03T07:26:01Z</time></trkpt><trkpt lat="43.520281619315355" lon="12.073293970641593"><ele>358.0</ele><time>2026-05-03T07:26:02Z</time></trkpt><trkpt lat="43.520426013321945" lon="12.073029165193072"><ele>361.0</ele><time>2026-05-03T07:26:03Z</time></trkpt><trkpt lat="43.520572056677146" lon="12.072763761745247"><ele>364.0</ele><time>2026-05-03T07:26:04Z</time></trkpt><trkpt lat="43.520716796704555" lon="12.072498980620091"><ele>365.0</ele><time>2026-05-03T07:26:05Z</time></trkpt><trkpt lat="43.52086077172094" lon="12.072236140312684"><ele>366.0</ele><time>2026-05-03T07:26:06Z</time></trkpt><trkpt lat="43.52100172401009" lon="12.071975348235382"><ele>366.0</ele><time>2026-05-03T07:26:07Z</time></trkpt><trkpt lat="43.52114002887508" lon="12.071714714858919"><ele>366.0</ele><time>2026-05-03T07:26:08Z</time></trkpt><trkpt lat="43.52127649758009" lon="12.071456302705581"><ele>370.5</ele><time>2026-05-03T07:26:09Z</time></trkpt><trkpt lat="43.521412328524626" lon="12.071205111440701"><ele>375.0</ele><time>2026-05-03T07:26:10Z</time></trkpt><trkpt lat="43.52154540043998" lon="12.070958309232939"><ele>377.0</ele><time>2026-05-03T07:26:11Z</time></trkpt><trkpt lat="43.521674380549584" lon="12.070712483627448"><ele>379.0</ele><time>2026-05-03T07:26:12Z</time></trkpt><trkpt lat="43.52180251899425" lon="12.070473571446163"><ele>381.0</ele><time>2026-05-03T07:26:13Z</time></trkpt><trkpt lat="43.52193054007767" lon="12.070247554027585"><ele>381.3333333333333</ele><time>2026-05-03T07:26:14Z</time></trkpt><trkpt lat="43.52207345467494" lon="12.070044854903761"><ele>381.66666666666663</ele><time>2026-05-03T07:26:15Z</time></trkpt><trkpt lat="43.522233521434785" lon="12.069865934447996"><ele>382.0</ele><time>2026-05-03T07:26:16Z</time></trkpt><trkpt lat="43.52241079826316" lon="12.069711696162512"><ele>383.0</ele><time>2026-05-03T07:26:17Z</time></trkpt><trkpt lat="43.52259971181238" lon="12.069575529933042"><ele>384.0</ele><time>2026-05-03T07:26:18Z</time></trkpt><trkpt lat="43.52279942000529" lon="12.06945484152351"><ele>385.0</ele><time>2026-05-03T07:26:19Z</time></trkpt><trkpt lat="43.52300431541943" lon="12.069333268439262"><ele>385.5</ele><time>2026-05-03T07:26:20Z</time></trkpt><trkpt lat="43.52321024822968" lon="12.069209466966235"><ele>386.0</ele><time>2026-05-03T07:26:21Z</time></trkpt><trkpt lat="43.52341931447471" lon="12.069084512237442"><ele>386.0</ele><time>2026-05-03T07:26:22Z</time></trkpt><trkpt lat="43.52363055271979" lon="12.068958713184234"><ele>386.0</ele><time>2026-05-03T07:26:23Z</time></trkpt><trkpt lat="43.52384396462183" lon="12.068833800792005"><ele>388.5</ele><time>2026-05-03T07:26:24Z</time></trkpt><trkpt lat="43.524057445306234" lon="12.068710331171731"><ele>391.0</ele><time>2026-05-03T07:26:25Z</time></trkpt><trkpt lat="43.52426896491668" lon="12.068586165925884"><ele>391.0</ele><time>2026-05-03T07:26:26Z</time></trkpt><trkpt lat="43.524475547701556" lon="12.068464637076744"><ele>391.0</ele><time>2026-05-03T07:26:27Z</time></trkpt><trkpt lat="43.52465918560858" lon="12.06834579086353"><ele>391.0</ele><time>2026-05-03T07:26:28Z</time></trkpt><trkpt lat="43.52482643177659" lon="12.068227269606991"><ele>391.33333333333337</ele><time>2026-05-03T07:26:29Z</time></trkpt><trkpt lat="43.5249778229917" lon="12.068107645718278"><ele>391.66666666666663</ele><time>2026-05-03T07:26:30Z</time></trkpt><trkpt lat="43.5251225632615" lon="12.06798103547056"><ele>392.0</ele><time>2026-05-03T07:26:31Z</time></trkpt><trkpt lat="43.525262498819636" lon="12.067847501094615"><ele>392.66666666666663</ele><time>2026-05-03T07:26:32Z</time></trkpt><trkpt lat="43.52539755281636" lon="12.067705607393483"><ele>393.33333333333337</ele><time>2026-05-03T07:26:33Z</time></trkpt><trkpt lat="43.5255271945178" lon="12.06755452008739"><ele>394.0</ele><time>2026-05-03T07:26:34Z</time></trkpt><trkpt lat="43.5256492897633" lon="12.067394146903275"><ele>394.0</ele><time>2026-05-03T07:26:35Z</time></trkpt><trkpt lat="43.525765716421354" lon="12.067221101207478"><ele>394.0</ele><time>2026-05-03T07:26:36Z</time></trkpt><trkpt lat="43.525881035524826" lon="12.067041310605667"><ele>394.0</ele><time>2026-05-03T07:26:37Z</time></trkpt><trkpt lat="43.525999782211244" lon="12.06685789461733"><ele>394.0</ele><time>2026-05-03T07:26:38Z</time></trkpt><trkpt lat="43.52612134258291" lon="12.066678589030316"><ele>394.0</ele><time>2026-05-03T07:26:39Z</time></trkpt><trkpt lat="43.526243761210985" lon="12.066494099273843"><ele>394.0</ele><time>2026-05-03T07:26:40Z</time></trkpt><trkpt lat="43.52636605888673" lon="12.066306342668637"><ele>393.6666666666667</ele><time>2026-05-03T07:26:41Z</time></trkpt><trkpt lat="43.526487778102805" lon="12.06611307160911"><ele>393.33333333333337</ele><time>2026-05-03T07:26:42Z</time></trkpt><trkpt lat="43.526615131425594" lon="12.065922662963137"><ele>393.0</ele><time>2026-05-03T07:26:43Z</time></trkpt><trkpt lat="43.52675166423347" lon="12.065739926555564"><ele>393.0</ele><time>2026-05-03T07:26:44Z</time></trkpt><trkpt lat="43.526895801807335" lon="12.06556783055075"><ele>393.0</ele><time>2026-05-03T07:26:45Z</time></trkpt><trkpt lat="43.52704531701162" lon="12.06539663338297"><ele>393.0</ele><time>2026-05-03T07:26:46Z</time></trkpt><trkpt lat="43.52720194254181" lon="12.065227455771574"><ele>394.0</ele><time>2026-05-03T07:26:47Z</time></trkpt><trkpt lat="43.52735816712112" lon="12.065058685817972"><ele>395.0</ele><time>2026-05-03T07:26:48Z</time></trkpt><trkpt lat="43.5275143378476" lon="12.064883830923053"><ele>396.0</ele><time>2026-05-03T07:26:49Z</time></trkpt><trkpt lat="43.52768179128522" lon="12.064708066987041"><ele>396.0</ele><time>2026-05-03T07:26:50Z</time></trkpt><trkpt lat="43.52785026008523" lon="12.064532785596736"><ele>396.0</ele><time>2026-05-03T07:26:51Z</time></trkpt><trkpt lat="43.52801380697703" lon="12.064352947653168"><ele>396.0</ele><time>2026-05-03T07:26:52Z</time></trkpt><trkpt lat="43.5281770793082" lon="12.064169861904304"><ele>396.66666666666663</ele><time>2026-05-03T07:26:53Z</time></trkpt><trkpt lat="43.52834127811991" lon="12.063990587888057"><ele>397.3333333333333</ele><time>2026-05-03T07:26:54Z</time></trkpt><trkpt lat="43.52850773942039" lon="12.06381575664908"><ele>398.0</ele><time>2026-05-03T07:26:55Z</time></trkpt><trkpt lat="43.52867024459677" lon="12.063638211599008"><ele>399.66666666666663</ele><time>2026-05-03T07:26:56Z</time></trkpt><trkpt lat="43.52883505372614" lon="12.063465112084616"><ele>401.33333333333337</ele><time>2026-05-03T07:26:57Z</time></trkpt><trkpt lat="43.52899849393798" lon="12.063297023659002"><ele>403.0</ele><time>2026-05-03T07:26:58Z</time></trkpt><trkpt lat="43.52916289519166" lon="12.063111378482851"><ele>403.0</ele><time>2026-05-03T07:26:59Z</time></trkpt><trkpt lat="43.52932905238846" lon="12.06293194828809"><ele>403.0</ele><time>2026-05-03T07:27:00Z</time></trkpt><trkpt lat="43.52949500770414" lon="12.062756434418779"><ele>403.0</ele><time>2026-05-03T07:27:01Z</time></trkpt><trkpt lat="43.529663085125456" lon="12.062580911539406"><ele>403.33333333333337</ele><time>2026-05-03T07:27:02Z</time></trkpt><trkpt lat="43.52982303473216" lon="12.062404070513855"><ele>403.66666666666663</ele><time>2026-05-03T07:27:03Z</time></trkpt><trkpt lat="43.52996489743597" lon="12.062203816598506"><ele>404.0</ele><time>2026-05-03T07:27:04Z</time></trkpt><trkpt lat="43.53009140401942" lon="12.061974899231737"><ele>404.0</ele><time>2026-05-03T07:27:05Z</time></trkpt><trkpt lat="43.53020004082861" lon="12.061727620617155"><ele>404.0</ele><time>2026-05-03T07:27:06Z</time></trkpt><trkpt lat="43.530294580568324" lon="12.061469204247238"><ele>404.0</ele><time>2026-05-03T07:27:07Z</time></trkpt><trkpt lat="43.530365738533064" lon="12.06120628822953"><ele>405.0</ele><time>2026-05-03T07:27:08Z</time></trkpt><trkpt lat="43.53043326920478" lon="12.060939671308798"><ele>406.0</ele><time>2026-05-03T07:27:09Z</time></trkpt><trkpt lat="43.530509831997726" lon="12.06068714216654"><ele>407.0</ele><time>2026-05-03T07:27:10Z</time></trkpt><trkpt lat="43.530589426233284" lon="12.06044254374106"><ele>407.0</ele><time>2026-05-03T07:27:11Z</time></trkpt><trkpt lat="43.53066161408227" lon="12.060196904840335"><ele>407.0</ele><time>2026-05-03T07:27:12Z</time></trkpt><trkpt lat="43.53074895616252" lon="12.0599616573871"><ele>407.0</ele><time>2026-05-03T07:27:13Z</time></trkpt><trkpt lat="43.53082585237649" lon="12.059718769062115"><ele>406.66666666666663</ele><time>2026-05-03T07:27:14Z</time></trkpt><trkpt lat="43.53089535904567" lon="12.05947316733063"><ele>406.33333333333337</ele><time>2026-05-03T07:27:15Z</time></trkpt><trkpt lat="43.530985351681366" lon="12.059242610210168"><ele>406.0</ele><time>2026-05-03T07:27:16Z</time></trkpt><trkpt lat="43.53110494897391" lon="12.059037111704074"><ele>406.0</ele><time>2026-05-03T07:27:17Z</time></trkpt><trkpt lat="43.53122262348449" lon="12.058837951273782"><ele>406.0</ele><time>2026-05-03T07:27:18Z</time></trkpt><trkpt lat="43.5313434504282" lon="12.058642879852433"><ele>406.0</ele><time>2026-05-03T07:27:19Z</time></trkpt><trkpt lat="43.531471595726224" lon="12.0584437079883"><ele>409.33333333333337</ele><time>2026-05-03T07:27:20Z</time></trkpt><trkpt lat="43.53159643738825" lon="12.058250596136334"><ele>412.66666666666663</ele><time>2026-05-03T07:27:21Z</time></trkpt><trkpt lat="43.53171264632148" lon="12.058059092830277"><ele>416.0</ele><time>2026-05-03T07:27:22Z</time></trkpt><trkpt lat="43.53183597160046" lon="12.057869051705943"><ele>416.0</ele><time>2026-05-03T07:27:23Z</time></trkpt><trkpt lat="43.53195965635108" lon="12.057687654924633"><ele>416.0</ele><time>2026-05-03T07:27:24Z</time></trkpt><trkpt lat="43.532085993188744" lon="12.05750734636759"><ele>416.0</ele><time>2026-05-03T07:27:25Z</time></trkpt><trkpt lat="43.53222130820983" lon="12.057349620260618"><ele>417.3333333333333</ele><time>2026-05-03T07:27:26Z</time></trkpt><trkpt lat="43.5323724630887" lon="12.057208503162544"><ele>418.66666666666663</ele><time>2026-05-03T07:27:27Z</time></trkpt><trkpt lat="43.53253442039096" lon="12.05708019716946"><ele>420.0</ele><time>2026-05-03T07:27:28Z</time></trkpt><trkpt lat="43.53269960453843" lon="12.056965887699574"><ele>420.0</ele><time>2026-05-03T07:27:29Z</time></trkpt><trkpt lat="43.53287289809393" lon="12.056865250255322"><ele>420.0</ele><time>2026-05-03T07:27:30Z</time></trkpt><trkpt lat="43.53305640876331" lon="12.056784667888971"><ele>420.0</ele><time>2026-05-03T07:27:31Z</time></trkpt><trkpt lat="43.53324066707491" lon="12.056717062874002"><ele>421.0</ele><time>2026-05-03T07:27:32Z</time></trkpt><trkpt lat="43.53341931476133" lon="12.056631826870156"><ele>422.0</ele><time>2026-05-03T07:27:33Z</time></trkpt><trkpt lat="43.53360071945369" lon="12.056578075388337"><ele>423.0</ele><time>2026-05-03T07:27:34Z</time></trkpt><trkpt lat="43.5337796045789" lon="12.056507029816782"><ele>423.66666666666663</ele><time>2026-05-03T07:27:35Z</time></trkpt><trkpt lat="43.53396323636268" lon="12.056437587156484"><ele>424.3333333333333</ele><time>2026-05-03T07:27:36Z</time></trkpt><trkpt lat="43.5341465829286" lon="12.056366673634116"><ele>425.0</ele><time>2026-05-03T07:27:37Z</time></trkpt><trkpt lat="43.53433054202449" lon="12.05630051786388"><ele>425.0</ele><time>2026-05-03T07:27:38Z</time></trkpt><trkpt lat="43.53451451621976" lon="12.056230663860307"><ele>425.0</ele><time>2026-05-03T07:27:39Z</time></trkpt><trkpt lat="43.53469450567086" lon="12.056167145485212"><ele>425.0</ele><time>2026-05-03T07:27:40Z</time></trkpt><trkpt lat="43.53487095333141" lon="12.05610300499311"><ele>428.3333333333333</ele><time>2026-05-03T07:27:41Z</time></trkpt><trkpt lat="43.53504834008173" lon="12.05603558564028"><ele>431.66666666666663</ele><time>2026-05-03T07:27:42Z</time></trkpt><trkpt lat="43.53522722974265" lon="12.05597296455981"><ele>435.0</ele><time>2026-05-03T07:27:43Z</time></trkpt><trkpt lat="43.535410899990666" lon="12.055906924687084"><ele>436.66666666666663</ele><time>2026-05-03T07:27:44Z</time></trkpt><trkpt lat="43.53558269594588" lon="12.055887134924157"><ele>438.3333333333333</ele><time>2026-05-03T07:27:45Z</time></trkpt><trkpt lat="43.53575903051009" lon="12.055905326587645"><ele>440.0</ele><time>2026-05-03T07:27:46Z</time></trkpt><trkpt lat="43.53592667334149" lon="12.055949414704587"><ele>440.0</ele><time>2026-05-03T07:27:47Z</time></trkpt><trkpt lat="43.536077147405514" lon="12.056013440040228"><ele>440.0</ele><time>2026-05-03T07:27:48Z</time></trkpt><trkpt lat="43.53621608031713" lon="12.056066238246464"><ele>440.0</ele><time>2026-05-03T07:27:49Z</time></trkpt><trkpt lat="43.53634179640616" lon="12.05610939586287"><ele>440.0</ele><time>2026-05-03T07:27:50Z</time></trkpt><trkpt lat="43.53645599416574" lon="12.056145775149941"><ele>440.6</ele><time>2026-05-03T07:27:51Z</time></trkpt><trkpt lat="43.53656120791892" lon="12.056182816976628"><ele>441.2</ele><time>2026-05-03T07:27:52Z</time></trkpt><trkpt lat="43.53665157577252" lon="12.056216850434694"><ele>441.79999999999995</ele><time>2026-05-03T07:27:53Z</time></trkpt><trkpt lat="43.53673992144418" lon="12.056244943012269"><ele>442.4</ele><time>2026-05-03T07:27:54Z</time></trkpt><trkpt lat="43.53682896772287" lon="12.056264045908824"><ele>443.0</ele><time>2026-05-03T07:27:55Z</time></trkpt><trkpt lat="43.53692523950349" lon="12.056274826084465"><ele>443.0</ele><time>2026-05-03T07:27:56Z</time></trkpt><trkpt lat="43.53702097470267" lon="12.056263427727037"><ele>442.99999999999994</ele><time>2026-05-03T07:27:57Z</time></trkpt><trkpt lat="43.53711380495844" lon="12.056225137587543"><ele>442.99999999999994</ele><time>2026-05-03T07:27:58Z</time></trkpt><trkpt lat="43.537207849157745" lon="12.056188263938653"><ele>443.0</ele><time>2026-05-03T07:27:59Z</time></trkpt><trkpt lat="43.53729608855132" lon="12.056107050011178"><ele>443.0</ele><time>2026-05-03T07:28:00Z</time></trkpt><trkpt lat="43.53739066575334" lon="12.056017783350521"><ele>443.25</ele><time>2026-05-03T07:28:01Z</time></trkpt><trkpt lat="43.53748363058032" lon="12.055911687509026"><ele>443.5</ele><time>2026-05-03T07:28:02Z</time></trkpt><trkpt lat="43.537579266685846" lon="12.05579918598298"><ele>443.75</ele><time>2026-05-03T07:28:03Z</time></trkpt><trkpt lat="43.53767096292021" lon="12.055679119782395"><ele>444.0</ele><time>2026-05-03T07:28:04Z</time></trkpt><trkpt lat="43.53776190341199" lon="12.055569104806764"><ele>444.0</ele><time>2026-05-03T07:28:05Z</time></trkpt><trkpt lat="43.53784240021768" lon="12.055453483532174"><ele>444.0</ele><time>2026-05-03T07:28:06Z</time></trkpt><trkpt lat="43.53792868819529" lon="12.05535715132401"><ele>444.0</ele><time>2026-05-03T07:28:07Z</time></trkpt><trkpt lat="43.53800850198737" lon="12.055243921688383"><ele>444.0</ele><time>2026-05-03T07:28:08Z</time></trkpt><trkpt lat="43.53809224178892" lon="12.055126592473341"><ele>444.25</ele><time>2026-05-03T07:28:09Z</time></trkpt><trkpt lat="43.53817843061973" lon="12.055006507323556"><ele>444.5</ele><time>2026-05-03T07:28:10Z</time></trkpt><trkpt lat="43.53826779305514" lon="12.054882979503251"><ele>444.75</ele><time>2026-05-03T07:28:11Z</time></trkpt><trkpt lat="43.53835547199359" lon="12.054760927798458"><ele>445.0</ele><time>2026-05-03T07:28:12Z</time></trkpt><trkpt lat="43.5384418127212" lon="12.054641479879894"><ele>446.25</ele><time>2026-05-03T07:28:13Z</time></trkpt><trkpt lat="43.53852615510731" lon="12.054524736981755"><ele>447.5</ele><time>2026-05-03T07:28:14Z</time></trkpt><trkpt lat="43.538610767957785" lon="12.054407619730716"><ele>448.75</ele><time>2026-05-03T07:28:15Z</time></trkpt><trkpt lat="43.53869396368114" lon="12.054292071582696"><ele>450.0</ele><time>2026-05-03T07:28:16Z</time></trkpt><trkpt lat="43.53876484596231" lon="12.054163341855238"><ele>449.6</ele><time>2026-05-03T07:28:17Z</time></trkpt><trkpt lat="43.5388405051503" lon="12.054061902504587"><ele>449.2</ele><time>2026-05-03T07:28:18Z</time></trkpt><trkpt lat="43.53890846221462" lon="12.053973326582222"><ele>448.79999999999995</ele><time>2026-05-03T07:28:19Z</time></trkpt><trkpt lat="43.53896447548515" lon="12.05387751930169"><ele>448.4</ele><time>2026-05-03T07:28:20Z</time></trkpt><trkpt lat="43.53902143344499" lon="12.053781704185239"><ele>448.0</ele><time>2026-05-03T07:28:21Z</time></trkpt><trkpt lat="43.53907664222437" lon="12.053682045946058"><ele>448.00000000000006</ele><time>2026-05-03T07:28:22Z</time></trkpt><trkpt lat="43.53913254470065" lon="12.05358728683375"><ele>448.0</ele><time>2026-05-03T07:28:23Z</time></trkpt><trkpt lat="43.539188594881544" lon="12.053502694285527"><ele>448.0</ele><time>2026-05-03T07:28:24Z</time></trkpt><trkpt lat="43.539238967990684" lon="12.053423125188187"><ele>448.0</ele><time>2026-05-03T07:28:25Z</time></trkpt><trkpt lat="43.53928220947872" lon="12.053348545139503"><ele>448.00000000000006</ele><time>2026-05-03T07:28:26Z</time></trkpt><trkpt lat="43.53936703418215" lon="12.05325553007791"><ele>448.0</ele><time>2026-05-03T07:28:28Z</time></trkpt><trkpt lat="43.539250500966574" lon="12.053033171196326"><ele>448.00000000000006</ele><time>2026-05-03T07:28:30Z</time></trkpt><trkpt lat="43.539196253873136" lon="12.05298205960021"><ele>448.0</ele><time>2026-05-03T07:28:31Z</time></trkpt><trkpt lat="43.539131506833705" lon="12.052959514234821"><ele>448.0</ele><time>2026-05-03T07:28:32Z</time></trkpt><trkpt lat="43.53906767206739" lon="12.052975830024115"><ele>448.0</ele><time>2026-05-03T07:28:33Z</time></trkpt><trkpt lat="43.53898251329655" lon="12.05309067741283"><ele>448.00000000000006</ele><time>2026-05-03T07:28:35Z</time></trkpt><trkpt lat="43.53891883036935" lon="12.053199587217346"><ele>448.0</ele><time>2026-05-03T07:28:37Z</time></trkpt><trkpt lat="43.538897914788826" lon="12.053327701228792"><ele>448.0</ele><time>2026-05-03T07:28:39Z</time></trkpt><trkpt lat="43.538920532953554" lon="12.053443140173595"><ele>447.99999999999994</ele><time>2026-05-03T07:28:41Z</time></trkpt><trkpt lat="43.53897817628553" lon="12.053486846704248"><ele>447.99999999999994</ele><time>2026-05-03T07:28:43Z</time></trkpt><trkpt lat="43.539041328853585" lon="12.053556719510379"><ele>448.0</ele><time>2026-05-03T07:29:03Z</time></trkpt><trkpt lat="43.53910339793266" lon="12.053604096136443"><ele>448.0</ele><time>2026-05-03T07:29:07Z</time></trkpt><trkpt lat="43.53920920066148" lon="12.053462412046125"><ele>448.00000000000006</ele><time>2026-05-03T07:29:08Z</time></trkpt><trkpt lat="43.539261731777046" lon="12.053391832571238"><ele>448.0</ele><time>2026-05-03T07:29:09Z</time></trkpt><trkpt lat="43.53931944543295" lon="12.05331058355533"><ele>448.0</ele><time>2026-05-03T07:29:10Z</time></trkpt><trkpt lat="43.53938398485612" lon="12.053221141454998"><ele>448.0</ele><time>2026-05-03T07:29:11Z</time></trkpt><trkpt lat="43.539455356962385" lon="12.053126065039457"><ele>448.00000000000006</ele><time>2026-05-03T07:29:12Z</time></trkpt><trkpt lat="43.53952901909924" lon="12.053031925851966"><ele>448.0</ele><time>2026-05-03T07:29:13Z</time></trkpt><trkpt lat="43.53960502717252" lon="12.052934114256526"><ele>446.79999999999995</ele><time>2026-05-03T07:29:14Z</time></trkpt><trkpt lat="43.539678445947956" lon="12.052828477580919"><ele>445.59999999999997</ele><time>2026-05-03T07:29:15Z</time></trkpt><trkpt lat="43.539750148080174" lon="12.052723640389459"><ele>444.40000000000003</ele><time>2026-05-03T07:29:16Z</time></trkpt><trkpt lat="43.53981233185267" lon="12.052623379832164"><ele>443.20000000000005</ele><time>2026-05-03T07:29:17Z</time></trkpt><trkpt lat="43.539877553207575" lon="12.052523520684494"><ele>442.0</ele><time>2026-05-03T07:29:18Z</time></trkpt><trkpt lat="43.53994717857497" lon="12.05244004747291"><ele>441.6</ele><time>2026-05-03T07:29:19Z</time></trkpt><trkpt lat="43.53999513548731" lon="12.052338971853262"><ele>441.20000000000005</ele><time>2026-05-03T07:29:20Z</time></trkpt><trkpt lat="43.540039518254375" lon="12.05225123475489"><ele>440.8</ele><time>2026-05-03T07:29:21Z</time></trkpt><trkpt lat="43.54010992595651" lon="12.052136417256456"><ele>440.4</ele><time>2026-05-03T07:29:23Z</time></trkpt><trkpt lat="43.54018616205383" lon="12.052071273023339"><ele>440.0</ele><time>2026-05-03T07:29:25Z</time></trkpt><trkpt lat="43.540269414992466" lon="12.052001157163252"><ele>440.0</ele><time>2026-05-03T07:29:27Z</time></trkpt><trkpt lat="43.540328698054985" lon="12.051948704968131"><ele>440.0</ele><time>2026-05-03T07:29:30Z</time></trkpt><trkpt lat="43.54041194735285" lon="12.051869060518984"><ele>440.0</ele><time>2026-05-03T07:29:34Z</time></trkpt><trkpt lat="43.540487330703286" lon="12.05180023817221"><ele>440.0</ele><time>2026-05-03T07:29:36Z</time></trkpt><trkpt lat="43.54054941697616" lon="12.051744096330223"><ele>440.0</ele><time>2026-05-03T07:29:38Z</time></trkpt><trkpt lat="43.540463520825135" lon="12.051546484444158"><ele>440.0</ele><time>2026-05-03T07:29:39Z</time></trkpt><trkpt lat="43.54039657651228" lon="12.051448730086634"><ele>440.0</ele><time>2026-05-03T07:29:41Z</time></trkpt><trkpt lat="43.54045175773563" lon="12.05152781064394"><ele>440.0</ele><time>2026-05-03T07:30:04Z</time></trkpt><trkpt lat="43.540510282759186" lon="12.0516310967688"><ele>440.0</ele><time>2026-05-03T07:30:07Z</time></trkpt><trkpt lat="43.540296215700465" lon="12.051899130594013"><ele>439.99999999999994</ele><time>2026-05-03T07:30:12Z</time></trkpt><trkpt lat="43.5402258068255" lon="12.051973191060599"><ele>440.0</ele><time>2026-05-03T07:30:14Z</time></trkpt><trkpt lat="43.540160755880834" lon="12.05203442477725"><ele>440.0</ele><time>2026-05-03T07:30:16Z</time></trkpt><trkpt lat="43.54009647530532" lon="12.052087925533707"><ele>440.0</ele><time>2026-05-03T07:30:19Z</time></trkpt><trkpt lat="43.54009284822486" lon="12.052188681473043"><ele>439.99999999999994</ele><time>2026-05-03T07:32:56Z</time></trkpt><trkpt lat="43.5401537883759" lon="12.052262509968095"><ele>440.0</ele><time>2026-05-03T07:32:59Z</time></trkpt><trkpt lat="43.540203701990684" lon="12.052365179910392"><ele>440.3333333333333</ele><time>2026-05-03T07:33:02Z</time></trkpt><trkpt lat="43.54023725376682" lon="12.052459059829545"><ele>440.66666666666663</ele><time>2026-05-03T07:33:04Z</time></trkpt><trkpt lat="43.540275248554025" lon="12.052556597485122"><ele>441.0</ele><time>2026-05-03T07:33:06Z</time></trkpt><trkpt lat="43.540315788672174" lon="12.052660179144661"><ele>441.33333333333337</ele><time>2026-05-03T07:33:08Z</time></trkpt><trkpt lat="43.54036120962777" lon="12.052766493616227"><ele>441.6666666666667</ele><time>2026-05-03T07:33:10Z</time></trkpt><trkpt lat="43.540404169612515" lon="12.052879809842375"><ele>442.0</ele><time>2026-05-03T07:33:12Z</time></trkpt><trkpt lat="43.54045332596198" lon="12.052993675145867"><ele>442.0</ele><time>2026-05-03T07:33:14Z</time></trkpt><trkpt lat="43.54050144492326" lon="12.053110715462855"><ele>442.00000000000006</ele><time>2026-05-03T07:33:16Z</time></trkpt><trkpt lat="43.54054681519974" lon="12.053228853695131"><ele>442.00000000000006</ele><time>2026-05-03T07:33:18Z</time></trkpt><trkpt lat="43.54059455260576" lon="12.053347791212465"><ele>442.0</ele><time>2026-05-03T07:33:20Z</time></trkpt><trkpt lat="43.54064151039134" lon="12.05346593083673"><ele>442.0</ele><time>2026-05-03T07:33:22Z</time></trkpt><trkpt lat="43.540688007177735" lon="12.05358795077864"><ele>439.20000000000005</ele><time>2026-05-03T07:33:24Z</time></trkpt><trkpt lat="43.54073746697053" lon="12.053711432009875"><ele>436.40000000000003</ele><time>2026-05-03T07:33:26Z</time></trkpt><trkpt lat="43.54078871463518" lon="12.05384269884326"><ele>433.59999999999997</ele><time>2026-05-03T07:33:28Z</time></trkpt><trkpt lat="43.54083966722399" lon="12.053974033193441"><ele>430.79999999999995</ele><time>2026-05-03T07:33:30Z</time></trkpt><trkpt lat="43.540886116268815" lon="12.054101680136625"><ele>428.0</ele><time>2026-05-03T07:33:32Z</time></trkpt><trkpt lat="43.54092957679534" lon="12.054224556772942"><ele>426.8571428571429</ele><time>2026-05-03T07:33:34Z</time></trkpt><trkpt lat="43.54098175153835" lon="12.054369392419932"><ele>425.7142857142857</ele><time>2026-05-03T07:33:36Z</time></trkpt><trkpt lat="43.54101234720266" lon="12.054448287589121"><ele>424.57142857142856</ele><time>2026-05-03T07:33:37Z</time></trkpt><trkpt lat="43.541040485348695" lon="12.054529183017616"><ele>423.42857142857144</ele><time>2026-05-03T07:33:38Z</time></trkpt><trkpt lat="43.54107078222046" lon="12.054610034425611"><ele>422.2857142857143</ele><time>2026-05-03T07:33:39Z</time></trkpt><trkpt lat="43.541100845779525" lon="12.054689200852268"><ele>421.14285714285717</ele><time>2026-05-03T07:33:40Z</time></trkpt><trkpt lat="43.54112979378432" lon="12.054769465358499"><ele>420.0</ele><time>2026-05-03T07:33:41Z</time></trkpt><trkpt lat="43.541155997331245" lon="12.054849341671488"><ele>417.6</ele><time>2026-05-03T07:33:42Z</time></trkpt><trkpt lat="43.54121875133701" lon="12.054991058557343"><ele>415.2</ele><time>2026-05-03T07:33:44Z</time></trkpt><trkpt lat="43.54126274048345" lon="12.055156192307809"><ele>412.79999999999995</ele><time>2026-05-03T07:33:46Z</time></trkpt><trkpt lat="43.5412996532334" lon="12.055240160867823"><ele>410.4</ele><time>2026-05-03T07:33:47Z</time></trkpt><trkpt lat="43.541336484132664" lon="12.055326731469803"><ele>408.0</ele><time>2026-05-03T07:33:48Z</time></trkpt><trkpt lat="43.54137356919419" lon="12.055414479545362"><ele>408.0</ele><time>2026-05-03T07:33:49Z</time></trkpt><trkpt lat="43.54140949800826" lon="12.055506642825684"><ele>408.0</ele><time>2026-05-03T07:33:50Z</time></trkpt><trkpt lat="43.54144441314689" lon="12.05560213993216"><ele>408.0</ele><time>2026-05-03T07:33:51Z</time></trkpt><trkpt lat="43.54148079378099" lon="12.055699109256281"><ele>408.0</ele><time>2026-05-03T07:33:52Z</time></trkpt><trkpt lat="43.54152571400375" lon="12.055807318544462"><ele>408.0</ele><time>2026-05-03T07:33:53Z</time></trkpt><trkpt lat="43.54157187084006" lon="12.05591835984465"><ele>408.0</ele><time>2026-05-03T07:33:54Z</time></trkpt><trkpt lat="43.54163431673665" lon="12.056089247018972"><ele>405.4</ele><time>2026-05-03T07:33:56Z</time></trkpt><trkpt lat="43.541670801196965" lon="12.056214396096621"><ele>402.79999999999995</ele><time>2026-05-03T07:33:57Z</time></trkpt><trkpt lat="43.54171156975451" lon="12.05634182348891"><ele>400.2</ele><time>2026-05-03T07:33:58Z</time></trkpt><trkpt lat="43.541763463261795" lon="12.056468696272248"><ele>397.6</ele><time>2026-05-03T07:33:59Z</time></trkpt><trkpt lat="43.541808527796206" lon="12.05660330990168"><ele>395.0</ele><time>2026-05-03T07:34:00Z</time></trkpt><trkpt lat="43.54185986114717" lon="12.056737170823872"><ele>395.5</ele><time>2026-05-03T07:34:01Z</time></trkpt><trkpt lat="43.54191807796886" lon="12.056868592123738"><ele>396.0</ele><time>2026-05-03T07:34:02Z</time></trkpt><trkpt lat="43.541970755926236" lon="12.057006601579245"><ele>396.5</ele><time>2026-05-03T07:34:03Z</time></trkpt><trkpt lat="43.54202423285727" lon="12.05714308885805"><ele>397.0</ele><time>2026-05-03T07:34:04Z</time></trkpt><trkpt lat="43.54208046957778" lon="12.057278967206905"><ele>397.0</ele><time>2026-05-03T07:34:05Z</time></trkpt><trkpt lat="43.54214130676137" lon="12.057422413752928"><ele>397.0</ele><time>2026-05-03T07:34:06Z</time></trkpt><trkpt lat="43.542204927129305" lon="12.057584406797226"><ele>397.0</ele><time>2026-05-03T07:34:07Z</time></trkpt><trkpt lat="43.54226383953193" lon="12.057760389982436"><ele>397.0</ele><time>2026-05-03T07:34:08Z</time></trkpt><trkpt lat="43.54232370368297" lon="12.057926779414467"><ele>393.0</ele><time>2026-05-03T07:34:09Z</time></trkpt><trkpt lat="43.54239099305811" lon="12.058087714236166"><ele>389.0</ele><time>2026-05-03T07:34:10Z</time></trkpt><trkpt lat="43.54244737064929" lon="12.058244096547094"><ele>385.0</ele><time>2026-05-03T07:34:11Z</time></trkpt><trkpt lat="43.54250442372882" lon="12.058396567495306"><ele>381.0</ele><time>2026-05-03T07:34:12Z</time></trkpt><trkpt lat="43.542563366743586" lon="12.05854765865799"><ele>377.0</ele><time>2026-05-03T07:34:13Z</time></trkpt><trkpt lat="43.542627580162794" lon="12.058716284030522"><ele>373.0</ele><time>2026-05-03T07:34:14Z</time></trkpt><trkpt lat="43.54268482218481" lon="12.058881858073015"><ele>369.0</ele><time>2026-05-03T07:34:15Z</time></trkpt><trkpt lat="43.54274321497024" lon="12.059046921803484"><ele>365.0</ele><time>2026-05-03T07:34:16Z</time></trkpt><trkpt lat="43.542804943526086" lon="12.059200019705498"><ele>362.75</ele><time>2026-05-03T07:34:17Z</time></trkpt><trkpt lat="43.54286154799935" lon="12.059359421855099"><ele>360.5</ele><time>2026-05-03T07:34:18Z</time></trkpt><trkpt lat="43.54291625624122" lon="12.059514259213651"><ele>358.25</ele><time>2026-05-03T07:34:19Z</time></trkpt><trkpt lat="43.542971077945914" lon="12.059661648948135"><ele>356.0</ele><time>2026-05-03T07:34:20Z</time></trkpt><trkpt lat="43.54302411739083" lon="12.059807901192164"><ele>354.0</ele><time>2026-05-03T07:34:21Z</time></trkpt><trkpt lat="43.54307562233753" lon="12.059952449903294"><ele>352.0</ele><time>2026-05-03T07:34:22Z</time></trkpt><trkpt lat="43.543127528301255" lon="12.060093073891771"><ele>350.0</ele><time>2026-05-03T07:34:23Z</time></trkpt><trkpt lat="43.54317989701313" lon="12.060232882109958"><ele>348.0</ele><time>2026-05-03T07:34:24Z</time></trkpt><trkpt lat="43.54323212085291" lon="12.060373347248678"><ele>348.0</ele><time>2026-05-03T07:34:25Z</time></trkpt><trkpt lat="43.54328270801091" lon="12.060510454655589"><ele>348.0</ele><time>2026-05-03T07:34:26Z</time></trkpt><trkpt lat="43.54333272286381" lon="12.060642905758984"><ele>348.0</ele><time>2026-05-03T07:34:27Z</time></trkpt><trkpt lat="43.54337621819086" lon="12.060755053304431"><ele>348.0</ele><time>2026-05-03T07:34:28Z</time></trkpt><trkpt lat="43.54341298923114" lon="12.06085108990988"><ele>348.0</ele><time>2026-05-03T07:34:29Z</time></trkpt><trkpt lat="43.543467258598405" lon="12.06099322450781"><ele>347.2</ele><time>2026-05-03T07:34:30.999Z</time></trkpt><trkpt lat="43.54352368493951" lon="12.061142057219064"><ele>346.4</ele><time>2026-05-03T07:34:32.999Z</time></trkpt><trkpt lat="43.54355697284747" lon="12.061232672819706"><ele>345.59999999999997</ele><time>2026-05-03T07:34:33.999Z</time></trkpt><trkpt lat="43.54359232213904" lon="12.061330020999655"><ele>344.79999999999995</ele><time>2026-05-03T07:34:34.999Z</time></trkpt><trkpt lat="43.543631136887626" lon="12.061439015276637"><ele>344.0</ele><time>2026-05-03T07:34:35.999Z</time></trkpt><trkpt lat="43.54367315516039" lon="12.06155427630227"><ele>342.6</ele><time>2026-05-03T07:34:36.999Z</time></trkpt><trkpt lat="43.543718297793966" lon="12.061671303735627"><ele>341.2</ele><time>2026-05-03T07:34:37.999Z</time></trkpt><trkpt lat="43.54376506997131" lon="12.061789646540493"><ele>339.8</ele><time>2026-05-03T07:34:38.999Z</time></trkpt><trkpt lat="43.54381748681113" lon="12.06191228918001"><ele>338.40000000000003</ele><time>2026-05-03T07:34:39.999Z</time></trkpt><trkpt lat="43.543878846785624" lon="12.062052234312542"><ele>337.0</ele><time>2026-05-03T07:34:40.999Z</time></trkpt><trkpt lat="43.543943002560134" lon="12.062205738690444"><ele>337.0</ele><time>2026-05-03T07:34:42.001Z</time></trkpt><trkpt lat="43.54400959657075" lon="12.062385415750404"><ele>337.0</ele><time>2026-05-03T07:34:43.001Z</time></trkpt><trkpt lat="43.5440744675493" lon="12.062571254101469"><ele>337.0</ele><time>2026-05-03T07:34:44.001Z</time></trkpt><trkpt lat="43.54413884408756" lon="12.062768380225524"><ele>336.0</ele><time>2026-05-03T07:34:45.001Z</time></trkpt><trkpt lat="43.54421087620721" lon="12.062971183156465"><ele>335.0</ele><time>2026-05-03T07:34:46.001Z</time></trkpt><trkpt lat="43.544289345903664" lon="12.063181956167803"><ele>334.0</ele><time>2026-05-03T07:34:47.001Z</time></trkpt><trkpt lat="43.54436886325796" lon="12.063399992213014"><ele>333.0</ele><time>2026-05-03T07:34:48.001Z</time></trkpt><trkpt lat="43.544450868998275" lon="12.063625026103704"><ele>332.0</ele><time>2026-05-03T07:34:49.001Z</time></trkpt><trkpt lat="43.54453691918548" lon="12.063852281496667"><ele>331.0</ele><time>2026-05-03T07:34:50.001Z</time></trkpt><trkpt lat="43.54462392880596" lon="12.064079213047712"><ele>329.66666666666663</ele><time>2026-05-03T07:34:51.001Z</time></trkpt><trkpt lat="43.54471223195372" lon="12.064311266766614"><ele>328.3333333333333</ele><time>2026-05-03T07:34:52.001Z</time></trkpt><trkpt lat="43.544799917429934" lon="12.064545613219629"><ele>327.0</ele><time>2026-05-03T07:34:53.001Z</time></trkpt><trkpt lat="43.54488805870331" lon="12.064783125399106"><ele>326.3333333333333</ele><time>2026-05-03T07:34:54.001Z</time></trkpt><trkpt lat="43.5449770745562" lon="12.065021183900049"><ele>325.66666666666663</ele><time>2026-05-03T07:34:55.001Z</time></trkpt><trkpt lat="43.54506719757911" lon="12.065259323884812"><ele>325.0</ele><time>2026-05-03T07:34:56.001Z</time></trkpt><trkpt lat="43.545159369663935" lon="12.065498517210566"><ele>325.0</ele><time>2026-05-03T07:34:57.001Z</time></trkpt><trkpt lat="43.545250924833894" lon="12.065737811186755"><ele>325.0</ele><time>2026-05-03T07:34:58Z</time></trkpt><trkpt lat="43.54534200258351" lon="12.065977289110393"><ele>325.0</ele><time>2026-05-03T07:34:59Z</time></trkpt><trkpt lat="43.54543292387182" lon="12.066217765569029"><ele>324.3333333333333</ele><time>2026-05-03T07:35:00Z</time></trkpt><trkpt lat="43.54552182996892" lon="12.066458758352105"><ele>323.6666666666667</ele><time>2026-05-03T07:35:01Z</time></trkpt><trkpt lat="43.54561140413673" lon="12.066697958390812"><ele>323.0</ele><time>2026-05-03T07:35:02Z</time></trkpt><trkpt lat="43.54570145876675" lon="12.06693868914503"><ele>322.6666666666667</ele><time>2026-05-03T07:35:03Z</time></trkpt><trkpt lat="43.54579192938661" lon="12.067179487390396"><ele>322.3333333333333</ele><time>2026-05-03T07:35:04Z</time></trkpt><trkpt lat="43.54588490531992" lon="12.067421349560309"><ele>322.0</ele><time>2026-05-03T07:35:05Z</time></trkpt><trkpt lat="43.54597825032443" lon="12.067662878849672"><ele>321.0</ele><time>2026-05-03T07:35:06Z</time></trkpt><trkpt lat="43.546069701828436" lon="12.067905684193747"><ele>320.0</ele><time>2026-05-03T07:35:07Z</time></trkpt><trkpt lat="43.54616904875674" lon="12.068151791855978"><ele>319.0</ele><time>2026-05-03T07:35:08Z</time></trkpt><trkpt lat="43.54625525641125" lon="12.068385281675356"><ele>319.0</ele><time>2026-05-03T07:35:09Z</time></trkpt><trkpt lat="43.546347582135084" lon="12.068631287834378"><ele>319.0</ele><time>2026-05-03T07:35:10Z</time></trkpt><trkpt lat="43.54643650844244" lon="12.068872452835285"><ele>319.0</ele><time>2026-05-03T07:35:11Z</time></trkpt><trkpt lat="43.5465283078764" lon="12.069115689289886"><ele>318.66666666666663</ele><time>2026-05-03T07:35:12Z</time></trkpt><trkpt lat="43.5466215139498" lon="12.069359459781316"><ele>318.3333333333333</ele><time>2026-05-03T07:35:13Z</time></trkpt><trkpt lat="43.546712859088" lon="12.06960086002155"><ele>318.0</ele><time>2026-05-03T07:35:14Z</time></trkpt><trkpt lat="43.54680680639384" lon="12.069849063233788"><ele>318.0</ele><time>2026-05-03T07:35:15Z</time></trkpt><trkpt lat="43.546897313318716" lon="12.070091073311152"><ele>318.0</ele><time>2026-05-03T07:35:16Z</time></trkpt><trkpt lat="43.54698507066317" lon="12.07032916425159"><ele>318.0</ele><time>2026-05-03T07:35:17Z</time></trkpt><trkpt lat="43.54707580947795" lon="12.070571810078969"><ele>318.0</ele><time>2026-05-03T07:35:18Z</time></trkpt><trkpt lat="43.54716774343384" lon="12.070814201716654"><ele>318.0</ele><time>2026-05-03T07:35:19Z</time></trkpt><trkpt lat="43.547260701671185" lon="12.071056143329237"><ele>318.0</ele><time>2026-05-03T07:35:20Z</time></trkpt><trkpt lat="43.547351797671006" lon="12.07129648488652"><ele>318.0</ele><time>2026-05-03T07:35:21Z</time></trkpt><trkpt lat="43.54744205700474" lon="12.071536252193736"><ele>318.0</ele><time>2026-05-03T07:35:22Z</time></trkpt><trkpt lat="43.547533404985714" lon="12.071776237606782"><ele>318.0</ele><time>2026-05-03T07:35:23Z</time></trkpt><trkpt lat="43.547623663728785" lon="12.072016296067797"><ele>317.6666666666667</ele><time>2026-05-03T07:35:24Z</time></trkpt><trkpt lat="43.547713136491836" lon="12.07225384865618"><ele>317.33333333333337</ele><time>2026-05-03T07:35:25Z</time></trkpt><trkpt lat="43.54780331886878" lon="12.07249067587249"><ele>317.0</ele><time>2026-05-03T07:35:26Z</time></trkpt><trkpt lat="43.54789154753848" lon="12.07272470062238"><ele>317.6666666666667</ele><time>2026-05-03T07:35:27Z</time></trkpt><trkpt lat="43.5479789577593" lon="12.072957521347288"><ele>318.3333333333333</ele><time>2026-05-03T07:35:28Z</time></trkpt><trkpt lat="43.54806789414418" lon="12.07318883514432"><ele>319.0</ele><time>2026-05-03T07:35:29Z</time></trkpt><trkpt lat="43.54815684308038" lon="12.073419546687573"><ele>319.0</ele><time>2026-05-03T07:35:30Z</time></trkpt><trkpt lat="43.548246581999734" lon="12.07364794725403"><ele>319.0</ele><time>2026-05-03T07:35:31Z</time></trkpt><trkpt lat="43.548333565305406" lon="12.07387560745944"><ele>319.0</ele><time>2026-05-03T07:35:32Z</time></trkpt><trkpt lat="43.548420227506305" lon="12.07410590753776"><ele>319.0</ele><time>2026-05-03T07:35:33Z</time></trkpt><trkpt lat="43.54850625405184" lon="12.074337217852776"><ele>319.0</ele><time>2026-05-03T07:35:34Z</time></trkpt><trkpt lat="43.54859393397723" lon="12.074574026687936"><ele>319.0</ele><time>2026-05-03T07:35:35Z</time></trkpt><trkpt lat="43.54868444565006" lon="12.074811863424591"><ele>319.3333333333333</ele><time>2026-05-03T07:35:36Z</time></trkpt><trkpt lat="43.54877588844266" lon="12.075048205985365"><ele>319.6666666666667</ele><time>2026-05-03T07:35:37Z</time></trkpt><trkpt lat="43.548867862688" lon="12.075285469869037"><ele>320.0</ele><time>2026-05-03T07:35:38Z</time></trkpt><trkpt lat="43.54895752864263" lon="12.075523341129074"><ele>320.0</ele><time>2026-05-03T07:35:39Z</time></trkpt><trkpt lat="43.54904887881163" lon="12.075762623214025"><ele>320.0</ele><time>2026-05-03T07:35:40Z</time></trkpt><trkpt lat="43.549138395734104" lon="12.076002132853244"><ele>320.0</ele><time>2026-05-03T07:35:41Z</time></trkpt><trkpt lat="43.54922818194305" lon="12.076241203075092"><ele>319.0</ele><time>2026-05-03T07:35:42Z</time></trkpt><trkpt lat="43.54931620249681" lon="12.076479751127748"><ele>318.0</ele><time>2026-05-03T07:35:43Z</time></trkpt><trkpt lat="43.54940569758913" lon="12.076719047247778"><ele>317.0</ele><time>2026-05-03T07:35:44Z</time></trkpt><trkpt lat="43.5494976013509" lon="12.076957122346867"><ele>317.33333333333337</ele><time>2026-05-03T07:35:45Z</time></trkpt><trkpt lat="43.54958973994551" lon="12.077194414942628"><ele>317.6666666666667</ele><time>2026-05-03T07:35:46Z</time></trkpt><trkpt lat="43.54968016194155" lon="12.07743090733178"><ele>318.0</ele><time>2026-05-03T07:35:47Z</time></trkpt><trkpt lat="43.549769092317995" lon="12.077667847301251"><ele>318.0</ele><time>2026-05-03T07:35:48Z</time></trkpt><trkpt lat="43.549859369638696" lon="12.077903174485915"><ele>318.0</ele><time>2026-05-03T07:35:49Z</time></trkpt><trkpt lat="43.54994924942859" lon="12.078138051939582"><ele>318.0</ele><time>2026-05-03T07:35:50Z</time></trkpt><trkpt lat="43.55003933667992" lon="12.07837069820523"><ele>317.6666666666667</ele><time>2026-05-03T07:35:51Z</time></trkpt><trkpt lat="43.55012659647105" lon="12.078599413207066"><ele>317.33333333333337</ele><time>2026-05-03T07:35:52Z</time></trkpt><trkpt lat="43.55021056029038" lon="12.078824405731577"><ele>317.0</ele><time>2026-05-03T07:35:53Z</time></trkpt><trkpt lat="43.550296532326115" lon="12.079043362793932"><ele>317.0</ele><time>2026-05-03T07:35:54Z</time></trkpt><trkpt lat="43.550379286384626" lon="12.079266428256995"><ele>317.0</ele><time>2026-05-03T07:35:55Z</time></trkpt><trkpt lat="43.550461841772986" lon="12.079485274843451"><ele>317.0</ele><time>2026-05-03T07:35:56Z</time></trkpt><trkpt lat="43.5505456451606" lon="12.079704413053596"><ele>317.0</ele><time>2026-05-03T07:35:57Z</time></trkpt><trkpt lat="43.55062944689358" lon="12.079923423641114"><ele>317.0</ele><time>2026-05-03T07:35:58Z</time></trkpt><trkpt lat="43.55071059438269" lon="12.080142643189872"><ele>317.0</ele><time>2026-05-03T07:35:59Z</time></trkpt><trkpt lat="43.55079227322773" lon="12.080361859938018"><ele>317.0</ele><time>2026-05-03T07:36:00Z</time></trkpt><trkpt lat="43.55087551484187" lon="12.080578901256612"><ele>317.0</ele><time>2026-05-03T07:36:01Z</time></trkpt><trkpt lat="43.55095705034037" lon="12.080798015754835"><ele>317.0</ele><time>2026-05-03T07:36:02Z</time></trkpt><trkpt lat="43.55103933480097" lon="12.081014833609421"><ele>316.6666666666667</ele><time>2026-05-03T07:36:03Z</time></trkpt><trkpt lat="43.55112168493152" lon="12.08123360963576"><ele>316.3333333333333</ele><time>2026-05-03T07:36:04Z</time></trkpt><trkpt lat="43.55120767985434" lon="12.081453816137387"><ele>316.0</ele><time>2026-05-03T07:36:05Z</time></trkpt><trkpt lat="43.55129168047341" lon="12.081672694828507"><ele>316.0</ele><time>2026-05-03T07:36:06Z</time></trkpt><trkpt lat="43.551377383016856" lon="12.081897342569333"><ele>316.0</ele><time>2026-05-03T07:36:07Z</time></trkpt><trkpt lat="43.5514585712717" lon="12.082107869900904"><ele>316.0</ele><time>2026-05-03T07:36:08Z</time></trkpt><trkpt lat="43.55152503981118" lon="12.082288212500307"><ele>316.0</ele><time>2026-05-03T07:36:09Z</time></trkpt><trkpt lat="43.551592095192966" lon="12.082459530088844"><ele>316.0</ele><time>2026-05-03T07:36:10Z</time></trkpt><trkpt lat="43.5516575731734" lon="12.082636743302501"><ele>316.0</ele><time>2026-05-03T07:36:11Z</time></trkpt><trkpt lat="43.55172617717017" lon="12.08281618206579"><ele>316.0</ele><time>2026-05-03T07:36:12Z</time></trkpt><trkpt lat="43.55179811803547" lon="12.08300115821467"><ele>316.0</ele><time>2026-05-03T07:36:13Z</time></trkpt><trkpt lat="43.551874268531684" lon="12.083189687414391"><ele>316.0</ele><time>2026-05-03T07:36:14Z</time></trkpt><trkpt lat="43.551944817401406" lon="12.083387296843048"><ele>316.0</ele><time>2026-05-03T07:36:15Z</time></trkpt><trkpt lat="43.5520199437563" lon="12.08358184276974"><ele>316.0</ele><time>2026-05-03T07:36:16Z</time></trkpt><trkpt lat="43.552095889110724" lon="12.083780713485776"><ele>316.0</ele><time>2026-05-03T07:36:17Z</time></trkpt><trkpt lat="43.55217376926241" lon="12.083986019312162"><ele>316.0</ele><time>2026-05-03T07:36:18Z</time></trkpt><trkpt lat="43.55225108451485" lon="12.084188553317116"><ele>316.3333333333333</ele><time>2026-05-03T07:36:19Z</time></trkpt><trkpt lat="43.55233111605141" lon="12.084396600450093"><ele>316.6666666666667</ele><time>2026-05-03T07:36:20Z</time></trkpt><trkpt lat="43.552408978405005" lon="12.084605506462161"><ele>317.0</ele><time>2026-05-03T07:36:21Z</time></trkpt><trkpt lat="43.552485664495116" lon="12.084815100115238"><ele>317.0</ele><time>2026-05-03T07:36:22Z</time></trkpt><trkpt lat="43.55256362492944" lon="12.085022777191371"><ele>317.0</ele><time>2026-05-03T07:36:23Z</time></trkpt><trkpt lat="43.55264171994592" lon="12.08522489395429"><ele>317.0</ele><time>2026-05-03T07:36:24Z</time></trkpt><trkpt lat="43.55271559002064" lon="12.08541734957874"><ele>317.0</ele><time>2026-05-03T07:36:25Z</time></trkpt><trkpt lat="43.552789994600396" lon="12.085610102611039"><ele>317.0</ele><time>2026-05-03T07:36:25.999Z</time></trkpt><trkpt lat="43.55286393540256" lon="12.085806970724128"><ele>317.0</ele><time>2026-05-03T07:36:26.999Z</time></trkpt><trkpt lat="43.552939096743465" lon="12.085999813376027"><ele>316.33333333333337</ele><time>2026-05-03T07:36:27.999Z</time></trkpt><trkpt lat="43.55301335910209" lon="12.086193869956514"><ele>315.6666666666667</ele><time>2026-05-03T07:36:28.999Z</time></trkpt><trkpt lat="43.553086208101" lon="12.086385429426775"><ele>315.0</ele><time>2026-05-03T07:36:29.999Z</time></trkpt><trkpt lat="43.5531588332482" lon="12.086575268707936"><ele>314.6666666666667</ele><time>2026-05-03T07:36:30.999Z</time></trkpt><trkpt lat="43.553231805582925" lon="12.086767089517584"><ele>314.33333333333337</ele><time>2026-05-03T07:36:31.999Z</time></trkpt><trkpt lat="43.55330461989102" lon="12.086957293397582"><ele>314.0</ele><time>2026-05-03T07:36:32.999Z</time></trkpt><trkpt lat="43.55337631937869" lon="12.087148329044128"><ele>314.0</ele><time>2026-05-03T07:36:33.999Z</time></trkpt><trkpt lat="43.55344710045603" lon="12.08734163818146"><ele>314.0</ele><time>2026-05-03T07:36:34.999Z</time></trkpt><trkpt lat="43.55351939405712" lon="12.087535771938493"><ele>314.0</ele><time>2026-05-03T07:36:35.999Z</time></trkpt><trkpt lat="43.55359425843582" lon="12.087730044619638"><ele>314.33333333333337</ele><time>2026-05-03T07:36:36.999Z</time></trkpt><trkpt lat="43.55366670142815" lon="12.087926106447442"><ele>314.6666666666667</ele><time>2026-05-03T07:36:37.999Z</time></trkpt><trkpt lat="43.553742505950446" lon="12.088123559539817"><ele>315.0</ele><time>2026-05-03T07:36:38.999Z</time></trkpt><trkpt lat="43.55382146781248" lon="12.088319170291479"><ele>315.0</ele><time>2026-05-03T07:36:39.999Z</time></trkpt><trkpt lat="43.553899913700356" lon="12.088518202700751"><ele>315.0</ele><time>2026-05-03T07:36:40.999Z</time></trkpt><trkpt lat="43.55398126746926" lon="12.08872377218323"><ele>315.0</ele><time>2026-05-03T07:36:41.999Z</time></trkpt><trkpt lat="43.55406391173245" lon="12.08893174711665"><ele>315.3333333333333</ele><time>2026-05-03T07:36:42.999Z</time></trkpt><trkpt lat="43.55414818971376" lon="12.089146302973775"><ele>315.66666666666663</ele><time>2026-05-03T07:36:43.999Z</time></trkpt><trkpt lat="43.55423559914131" lon="12.08936961156904"><ele>316.0</ele><time>2026-05-03T07:36:44.999Z</time></trkpt><trkpt lat="43.55431890497722" lon="12.089593745500549"><ele>316.0</ele><time>2026-05-03T07:36:45.999Z</time></trkpt><trkpt lat="43.554402639321154" lon="12.08981604521511"><ele>316.0</ele><time>2026-05-03T07:36:46.999Z</time></trkpt><trkpt lat="43.554483935032934" lon="12.090033210365725"><ele>316.0</ele><time>2026-05-03T07:36:48Z</time></trkpt><trkpt lat="43.55456132520335" lon="12.09024589914896"><ele>316.0</ele><time>2026-05-03T07:36:49Z</time></trkpt><trkpt lat="43.554636628306845" lon="12.09045500176897"><ele>316.0</ele><time>2026-05-03T07:36:50Z</time></trkpt><trkpt lat="43.55471038991071" lon="12.090662635086913"><ele>316.0</ele><time>2026-05-03T07:36:51Z</time></trkpt><trkpt lat="43.55478561525305" lon="12.090867535181356"><ele>316.0</ele><time>2026-05-03T07:36:52Z</time></trkpt><trkpt lat="43.55486279359111" lon="12.091070546756606"><ele>316.0</ele><time>2026-05-03T07:36:53Z</time></trkpt><trkpt lat="43.55494063230789" lon="12.091272273960852"><ele>316.0</ele><time>2026-05-03T07:36:54Z</time></trkpt><trkpt lat="43.55501794059181" lon="12.09147595970247"><ele>315.66666666666663</ele><time>2026-05-03T07:36:55Z</time></trkpt><trkpt lat="43.55509420835739" lon="12.091680192468445"><ele>315.3333333333333</ele><time>2026-05-03T07:36:56Z</time></trkpt><trkpt lat="43.55517107729109" lon="12.091881104538707"><ele>315.0</ele><time>2026-05-03T07:36:57Z</time></trkpt><trkpt lat="43.55524573984955" lon="12.092081665253916"><ele>315.0</ele><time>2026-05-03T07:36:58Z</time></trkpt><trkpt lat="43.555321112835266" lon="12.092282918250799"><ele>315.0</ele><time>2026-05-03T07:36:59Z</time></trkpt><trkpt lat="43.555396949513366" lon="12.092485262035998"><ele>315.0</ele><time>2026-05-03T07:37:00Z</time></trkpt><trkpt lat="43.55547510712284" lon="12.092692055203644"><ele>314.3333333333333</ele><time>2026-05-03T07:37:01Z</time></trkpt><trkpt lat="43.5555539516781" lon="12.09289654257469"><ele>313.66666666666663</ele><time>2026-05-03T07:37:02Z</time></trkpt><trkpt lat="43.55563517063085" lon="12.093103635500643"><ele>313.0</ele><time>2026-05-03T07:37:03Z</time></trkpt><trkpt lat="43.555724926989676" lon="12.09331822206572"><ele>313.0</ele><time>2026-05-03T07:37:04Z</time></trkpt><trkpt lat="43.555820466234046" lon="12.093540229870467"><ele>313.0</ele><time>2026-05-03T07:37:05Z</time></trkpt><trkpt lat="43.55589524714366" lon="12.09378134773545"><ele>313.0</ele><time>2026-05-03T07:37:06Z</time></trkpt><trkpt lat="43.555984863021315" lon="12.09401793517293"><ele>313.3333333333333</ele><time>2026-05-03T07:37:07Z</time></trkpt><trkpt lat="43.55608649693573" lon="12.094247865473069"><ele>313.6666666666667</ele><time>2026-05-03T07:37:08Z</time></trkpt><trkpt lat="43.55617079560426" lon="12.094497405299814"><ele>314.0</ele><time>2026-05-03T07:37:09Z</time></trkpt><trkpt lat="43.55625790840697" lon="12.09474944803581"><ele>313.33333333333337</ele><time>2026-05-03T07:37:10Z</time></trkpt><trkpt lat="43.556346300456504" lon="12.095010405684066"><ele>312.6666666666667</ele><time>2026-05-03T07:37:11Z</time></trkpt><trkpt lat="43.55645252278842" lon="12.095289760411077"><ele>312.0</ele><time>2026-05-03T07:37:12Z</time></trkpt><trkpt lat="43.556565430168135" lon="12.095578489863929"><ele>311.5</ele><time>2026-05-03T07:37:13Z</time></trkpt><trkpt lat="43.55667068038869" lon="12.095862314882133"><ele>311.0</ele><time>2026-05-03T07:37:14Z</time></trkpt><trkpt lat="43.55677657146276" lon="12.09614264376794"><ele>311.0</ele><time>2026-05-03T07:37:15Z</time></trkpt><trkpt lat="43.55688219873563" lon="12.096420950937393"><ele>311.0</ele><time>2026-05-03T07:37:16Z</time></trkpt><trkpt lat="43.55698531002191" lon="12.096697905454704"><ele>311.5</ele><time>2026-05-03T07:37:17Z</time></trkpt><trkpt lat="43.55708943232094" lon="12.09697581907897"><ele>312.0</ele><time>2026-05-03T07:37:18Z</time></trkpt><trkpt lat="43.55719761700824" lon="12.097254416909289"><ele>311.6666666666667</ele><time>2026-05-03T07:37:19Z</time></trkpt><trkpt lat="43.55729570598035" lon="12.097530997244045"><ele>311.33333333333337</ele><time>2026-05-03T07:37:20Z</time></trkpt><trkpt lat="43.55739798037627" lon="12.097805589944814"><ele>311.0</ele><time>2026-05-03T07:37:21Z</time></trkpt><trkpt lat="43.55750042824695" lon="12.098071441030044"><ele>311.0</ele><time>2026-05-03T07:37:22Z</time></trkpt><trkpt lat="43.557607174642726" lon="12.098351613557465"><ele>311.0</ele><time>2026-05-03T07:37:23Z</time></trkpt><trkpt lat="43.55771576790904" lon="12.098618465331063"><ele>311.0</ele><time>2026-05-03T07:37:24Z</time></trkpt><trkpt lat="43.55782109350101" lon="12.098893463027643"><ele>311.0</ele><time>2026-05-03T07:37:25Z</time></trkpt><trkpt lat="43.55792542008588" lon="12.099162295643614"><ele>311.0</ele><time>2026-05-03T07:37:26Z</time></trkpt><trkpt lat="43.5580300148729" lon="12.099433757712102"><ele>311.33333333333337</ele><time>2026-05-03T07:37:27Z</time></trkpt><trkpt lat="43.558131765464005" lon="12.099702427670767"><ele>311.6666666666667</ele><time>2026-05-03T07:37:28Z</time></trkpt><trkpt lat="43.558230195382905" lon="12.099964265688927"><ele>312.0</ele><time>2026-05-03T07:37:29Z</time></trkpt><trkpt lat="43.55832639489978" lon="12.100222070193587"><ele>312.3333333333333</ele><time>2026-05-03T07:37:30Z</time></trkpt><trkpt lat="43.558415775873705" lon="12.10047378239935"><ele>312.66666666666663</ele><time>2026-05-03T07:37:31Z</time></trkpt><trkpt lat="43.558507197837564" lon="12.100712719598164"><ele>313.0</ele><time>2026-05-03T07:37:32Z</time></trkpt><trkpt lat="43.558590954720756" lon="12.100934215959365"><ele>313.0</ele><time>2026-05-03T07:37:33Z</time></trkpt><trkpt lat="43.55867565686672" lon="12.101136911690645"><ele>313.0</ele><time>2026-05-03T07:37:34Z</time></trkpt><trkpt lat="43.558758121486655" lon="12.10134909403695"><ele>313.0</ele><time>2026-05-03T07:37:35Z</time></trkpt><trkpt lat="43.558833815241414" lon="12.101558210968722"><ele>313.3333333333333</ele><time>2026-05-03T07:37:36Z</time></trkpt><trkpt lat="43.558903599170705" lon="12.101750668439358"><ele>313.6666666666667</ele><time>2026-05-03T07:37:37Z</time></trkpt><trkpt lat="43.55897199293573" lon="12.101935091863735"><ele>314.0</ele><time>2026-05-03T07:37:38Z</time></trkpt><trkpt lat="43.55904147019624" lon="12.102108324411503"><ele>314.0</ele><time>2026-05-03T07:37:39Z</time></trkpt><trkpt lat="43.5591062310882" lon="12.10227218685142"><ele>314.0</ele><time>2026-05-03T07:37:40Z</time></trkpt><trkpt lat="43.559161870470106" lon="12.102429976689123"><ele>314.0</ele><time>2026-05-03T07:37:41Z</time></trkpt><trkpt lat="43.55921406178061" lon="12.10260374948038"><ele>314.0</ele><time>2026-05-03T07:37:42Z</time></trkpt><trkpt lat="43.559253575760835" lon="12.102790786925281"><ele>314.0</ele><time>2026-05-03T07:37:43Z</time></trkpt><trkpt lat="43.559275015480324" lon="12.102980873178304"><ele>314.0</ele><time>2026-05-03T07:37:44Z</time></trkpt><trkpt lat="43.55927496026582" lon="12.103174185000693"><ele>314.0</ele><time>2026-05-03T07:37:45Z</time></trkpt><trkpt lat="43.559251184402" lon="12.10337256487425"><ele>314.0</ele><time>2026-05-03T07:37:46Z</time></trkpt><trkpt lat="43.55921786961945" lon="12.103555453546933"><ele>314.0</ele><time>2026-05-03T07:37:47Z</time></trkpt><trkpt lat="43.559069457306435" lon="12.103680310700703"><ele>314.0</ele><time>2026-05-03T07:37:48Z</time></trkpt><trkpt lat="43.55895362196106" lon="12.103799643691946"><ele>314.0</ele><time>2026-05-03T07:37:49Z</time></trkpt><trkpt lat="43.558822731321946" lon="12.103901292905748"><ele>313.6666666666667</ele><time>2026-05-03T07:37:50Z</time></trkpt><trkpt lat="43.55868457374117" lon="12.103999249425927"><ele>313.3333333333333</ele><time>2026-05-03T07:37:51Z</time></trkpt><trkpt lat="43.55854584091402" lon="12.104104736826057"><ele>313.0</ele><time>2026-05-03T07:37:52Z</time></trkpt><trkpt lat="43.55840414046516" lon="12.104218308048278"><ele>312.3333333333333</ele><time>2026-05-03T07:37:53Z</time></trkpt><trkpt lat="43.55825931274964" lon="12.104333406884624"><ele>311.6666666666667</ele><time>2026-05-03T07:37:54Z</time></trkpt><trkpt lat="43.55811656324112" lon="12.104454712264067"><ele>311.0</ele><time>2026-05-03T07:37:55Z</time></trkpt><trkpt lat="43.55797746704823" lon="12.104575029051293"><ele>311.0</ele><time>2026-05-03T07:37:56Z</time></trkpt><trkpt lat="43.55783816401794" lon="12.104691803591429"><ele>311.0</ele><time>2026-05-03T07:37:57Z</time></trkpt><trkpt lat="43.55770093354696" lon="12.104805982708791"><ele>311.0</ele><time>2026-05-03T07:37:58Z</time></trkpt><trkpt lat="43.557563840341615" lon="12.104916492043532"><ele>311.0</ele><time>2026-05-03T07:37:59Z</time></trkpt><trkpt lat="43.557425476034744" lon="12.105025097140137"><ele>311.0</ele><time>2026-05-03T07:38:00Z</time></trkpt><trkpt lat="43.55728995500817" lon="12.105137243806146"><ele>311.0</ele><time>2026-05-03T07:38:01Z</time></trkpt><trkpt lat="43.55715378826201" lon="12.105250360858735"><ele>312.33333333333337</ele><time>2026-05-03T07:38:02Z</time></trkpt><trkpt lat="43.557017391183955" lon="12.10536366414732"><ele>313.6666666666667</ele><time>2026-05-03T07:38:03Z</time></trkpt><trkpt lat="43.556881588204945" lon="12.105476908630491"><ele>315.0</ele><time>2026-05-03T07:38:04Z</time></trkpt><trkpt lat="43.55674451096397" lon="12.105586209762162"><ele>315.0</ele><time>2026-05-03T07:38:05Z</time></trkpt><trkpt lat="43.55660778466689" lon="12.105695873189005"><ele>315.0</ele><time>2026-05-03T07:38:06Z</time></trkpt><trkpt lat="43.55647199624134" lon="12.105802893145935"><ele>315.0</ele><time>2026-05-03T07:38:07Z</time></trkpt><trkpt lat="43.55633564770285" lon="12.105912457694789"><ele>314.6666666666667</ele><time>2026-05-03T07:38:08Z</time></trkpt><trkpt lat="43.55620320709175" lon="12.106020687986353"><ele>314.33333333333337</ele><time>2026-05-03T07:38:09Z</time></trkpt><trkpt lat="43.5560733489061" lon="12.106128755845047"><ele>314.0</ele><time>2026-05-03T07:38:10Z</time></trkpt><trkpt lat="43.55594711868126" lon="12.106240516568716"><ele>313.0</ele><time>2026-05-03T07:38:11Z</time></trkpt><trkpt lat="43.55581989432657" lon="12.106352300250425"><ele>312.0</ele><time>2026-05-03T07:38:12Z</time></trkpt><trkpt lat="43.555690982161295" lon="12.106453962932646"><ele>311.0</ele><time>2026-05-03T07:38:13Z</time></trkpt><trkpt lat="43.55556483621045" lon="12.106549441543638"><ele>310.0</ele><time>2026-05-03T07:38:13.999Z</time></trkpt><trkpt lat="43.55544425164121" lon="12.106638899796849"><ele>310.0</ele><time>2026-05-03T07:38:14.999Z</time></trkpt><trkpt lat="43.555327029448506" lon="12.106729560447267"><ele>310.0</ele><time>2026-05-03T07:38:15.999Z</time></trkpt><trkpt lat="43.555214236785446" lon="12.106822041551023"><ele>310.0</ele><time>2026-05-03T07:38:16.999Z</time></trkpt><trkpt lat="43.55510649790209" lon="12.106913389700185"><ele>310.0</ele><time>2026-05-03T07:38:17.999Z</time></trkpt><trkpt lat="43.55500404585723" lon="12.106999669474408"><ele>310.0</ele><time>2026-05-03T07:38:18.999Z</time></trkpt><trkpt lat="43.554907668192705" lon="12.107077219345294"><ele>310.0</ele><time>2026-05-03T07:38:19.999Z</time></trkpt><trkpt lat="43.55482783359792" lon="12.10716909941811"><ele>310.0</ele><time>2026-05-03T07:38:20.999Z</time></trkpt><trkpt lat="43.55475138821174" lon="12.10725677044832"><ele>310.0</ele><time>2026-05-03T07:38:21.999Z</time></trkpt><trkpt lat="43.55462333451167" lon="12.107254944254473"><ele>310.0</ele><time>2026-05-03T07:38:22.999Z</time></trkpt><trkpt lat="43.55453266194389" lon="12.107322522958537"><ele>309.8</ele><time>2026-05-03T07:38:23.999Z</time></trkpt><trkpt lat="43.55445836212425" lon="12.10740930618136"><ele>309.6</ele><time>2026-05-03T07:38:24.999Z</time></trkpt><trkpt lat="43.55441051785398" lon="12.107521370375139"><ele>309.4</ele><time>2026-05-03T07:38:25.999Z</time></trkpt><trkpt lat="43.55441369030858" lon="12.10764226488959"><ele>309.2</ele><time>2026-05-03T07:38:26.999Z</time></trkpt><trkpt lat="43.55445566477818" lon="12.107757703168005"><ele>309.0</ele><time>2026-05-03T07:38:27.999Z</time></trkpt><trkpt lat="43.55452896660566" lon="12.107845606772553"><ele>309.4</ele><time>2026-05-03T07:38:28.999Z</time></trkpt><trkpt lat="43.55462330093228" lon="12.107890899002422"><ele>309.79999999999995</ele><time>2026-05-03T07:38:29.999Z</time></trkpt><trkpt lat="43.55472480391906" lon="12.10791224038751"><ele>310.20000000000005</ele><time>2026-05-03T07:38:30.999Z</time></trkpt><trkpt lat="43.554825580413706" lon="12.107911778736447"><ele>310.6</ele><time>2026-05-03T07:38:31.999Z</time></trkpt><trkpt lat="43.55490086518284" lon="12.107854660810105"><ele>311.0</ele><time>2026-05-03T07:38:32.999Z</time></trkpt><trkpt lat="43.55502305780202" lon="12.108071155835985"><ele>311.0</ele><time>2026-05-03T07:38:33.999Z</time></trkpt><trkpt lat="43.555114651493305" lon="12.108168827192614"><ele>311.0</ele><time>2026-05-03T07:38:34.999Z</time></trkpt><trkpt lat="43.55519957334655" lon="12.1082796449131"><ele>311.0</ele><time>2026-05-03T07:38:35.999Z</time></trkpt><trkpt lat="43.55528700865313" lon="12.108388971490673"><ele>311.0</ele><time>2026-05-03T07:38:36.999Z</time></trkpt><trkpt lat="43.55537672874941" lon="12.108498418212426"><ele>311.0</ele><time>2026-05-03T07:38:37.999Z</time></trkpt><trkpt lat="43.555467128554255" lon="12.108609087324623"><ele>311.0</ele><time>2026-05-03T07:38:38.999Z</time></trkpt><trkpt lat="43.55555864630485" lon="12.10872116578093"><ele>311.0</ele><time>2026-05-03T07:38:39.999Z</time></trkpt><trkpt lat="43.55565039121228" lon="12.108835432016127"><ele>311.0</ele><time>2026-05-03T07:38:40.999Z</time></trkpt><trkpt lat="43.55574313100763" lon="12.108955151902322"><ele>311.0</ele><time>2026-05-03T07:38:41.999Z</time></trkpt><trkpt lat="43.555834893298794" lon="12.10907480475564"><ele>311.0</ele><time>2026-05-03T07:38:42.999Z</time></trkpt><trkpt lat="43.55593155048253" lon="12.109193852347383"><ele>311.0</ele><time>2026-05-03T07:38:43.999Z</time></trkpt><trkpt lat="43.55602623855056" lon="12.109312295436414"><ele>311.0</ele><time>2026-05-03T07:38:44.999Z</time></trkpt><trkpt lat="43.55611845348517" lon="12.1094287920516"><ele>310.5</ele><time>2026-05-03T07:38:45.999Z</time></trkpt><trkpt lat="43.55620900237657" lon="12.109543283128408"><ele>310.0</ele><time>2026-05-03T07:38:46.999Z</time></trkpt><trkpt lat="43.55629937140146" lon="12.109658841706056"><ele>309.5</ele><time>2026-05-03T07:38:47.999Z</time></trkpt><trkpt lat="43.556389712001696" lon="12.109769048965418"><ele>309.0</ele><time>2026-05-03T07:38:48.999Z</time></trkpt><trkpt lat="43.55647852298046" lon="12.109875229122578"><ele>309.0</ele><time>2026-05-03T07:38:49.999Z</time></trkpt><trkpt lat="43.55656358288768" lon="12.10997847242028"><ele>309.0</ele><time>2026-05-03T07:38:50.999Z</time></trkpt><trkpt lat="43.55663988719022" lon="12.110072545737571"><ele>309.0</ele><time>2026-05-03T07:38:51.999Z</time></trkpt><trkpt lat="43.556709897155386" lon="12.110161643518596"><ele>309.0</ele><time>2026-05-03T07:38:53Z</time></trkpt><trkpt lat="43.556781529418835" lon="12.110254343362982"><ele>309.0</ele><time>2026-05-03T07:38:54Z</time></trkpt><trkpt lat="43.55685739160083" lon="12.11034720042026"><ele>309.0</ele><time>2026-05-03T07:38:55Z</time></trkpt><trkpt lat="43.556935366300436" lon="12.11043933224562"><ele>309.0</ele><time>2026-05-03T07:38:56Z</time></trkpt><trkpt lat="43.557011351131294" lon="12.110533354882474"><ele>309.0</ele><time>2026-05-03T07:38:57Z</time></trkpt><trkpt lat="43.55708815651648" lon="12.11063115558171"><ele>309.0</ele><time>2026-05-03T07:38:58Z</time></trkpt><trkpt lat="43.557164702963505" lon="12.11072725850149"><ele>309.0</ele><time>2026-05-03T07:38:59Z</time></trkpt><trkpt lat="43.55724094611088" lon="12.110823096500997"><ele>309.4</ele><time>2026-05-03T07:39:00Z</time></trkpt><trkpt lat="43.55731507924493" lon="12.110917657293747"><ele>309.79999999999995</ele><time>2026-05-03T07:39:01Z</time></trkpt><trkpt lat="43.55739058943519" lon="12.111010383378144"><ele>310.20000000000005</ele><time>2026-05-03T07:39:02Z</time></trkpt><trkpt lat="43.557464451336244" lon="12.111099989083328"><ele>310.6</ele><time>2026-05-03T07:39:03Z</time></trkpt><trkpt lat="43.55753547863141" lon="12.111190279901573"><ele>311.0</ele><time>2026-05-03T07:39:04Z</time></trkpt><trkpt lat="43.55760696005988" lon="12.111280505552445"><ele>311.0</ele><time>2026-05-03T07:39:05Z</time></trkpt><trkpt lat="43.55768020885689" lon="12.111366023544402"><ele>311.0</ele><time>2026-05-03T07:39:06Z</time></trkpt><trkpt lat="43.5577478173613" lon="12.111450630637258"><ele>311.0</ele><time>2026-05-03T07:39:07Z</time></trkpt><trkpt lat="43.5578130628404" lon="12.111535812172425"><ele>311.0</ele><time>2026-05-03T07:39:08Z</time></trkpt><trkpt lat="43.55787114829181" lon="12.111626960501898"><ele>311.0</ele><time>2026-05-03T07:39:09Z</time></trkpt><trkpt lat="43.557923466476865" lon="12.111729268254528"><ele>311.0</ele><time>2026-05-03T07:39:10Z</time></trkpt><trkpt lat="43.557966032335116" lon="12.111839131062785"><ele>311.0</ele><time>2026-05-03T07:39:11Z</time></trkpt><trkpt lat="43.55799640492934" lon="12.111956660603784"><ele>311.0</ele><time>2026-05-03T07:39:12Z</time></trkpt><trkpt lat="43.558016406646956" lon="12.112076850765638"><ele>311.0</ele><time>2026-05-03T07:39:13Z</time></trkpt><trkpt lat="43.55803828425096" lon="12.112196383498514"><ele>311.0</ele><time>2026-05-03T07:39:14Z</time></trkpt><trkpt lat="43.55806865032134" lon="12.112312608017621"><ele>311.0</ele><time>2026-05-03T07:39:15Z</time></trkpt><trkpt lat="43.558112749274656" lon="12.112415914004767"><ele>310.83333333333337</ele><time>2026-05-03T07:39:16Z</time></trkpt><trkpt lat="43.55816579442367" lon="12.112501084088295"><ele>310.6666666666667</ele><time>2026-05-03T07:39:17Z</time></trkpt><trkpt lat="43.55823208393831" lon="12.112557479991613"><ele>310.5</ele><time>2026-05-03T07:39:18Z</time></trkpt><trkpt lat="43.55831025243275" lon="12.112574529023629"><ele>310.3333333333333</ele><time>2026-05-03T07:39:19Z</time></trkpt><trkpt lat="43.55838915111049" lon="12.112576715493052"><ele>310.16666666666663</ele><time>2026-05-03T07:39:20Z</time></trkpt><trkpt lat="43.55846073464943" lon="12.112592803968642"><ele>310.0</ele><time>2026-05-03T07:39:21Z</time></trkpt><trkpt lat="43.55853386837874" lon="12.112619995623566"><ele>310.0</ele><time>2026-05-03T07:39:22Z</time></trkpt><trkpt lat="43.558603475032776" lon="12.112660066513774"><ele>310.0</ele><time>2026-05-03T07:39:23Z</time></trkpt><trkpt lat="43.55867343560341" lon="12.112707162796431"><ele>310.0</ele><time>2026-05-03T07:39:24Z</time></trkpt><trkpt lat="43.55874338435888" lon="12.112760134622716"><ele>310.0</ele><time>2026-05-03T07:39:25Z</time></trkpt><trkpt lat="43.558811745776126" lon="12.112822223362901"><ele>310.0</ele><time>2026-05-03T07:39:26Z</time></trkpt><trkpt lat="43.5588778303912" lon="12.112896764538938"><ele>310.0</ele><time>2026-05-03T07:39:27Z</time></trkpt><trkpt lat="43.558943198838314" lon="12.112982180471638"><ele>310.0</ele><time>2026-05-03T07:39:28Z</time></trkpt><trkpt lat="43.55901091512241" lon="12.113071788259193"><ele>310.0</ele><time>2026-05-03T07:39:29Z</time></trkpt><trkpt lat="43.55907785412282" lon="12.113170816775325"><ele>310.0</ele><time>2026-05-03T07:39:30Z</time></trkpt><trkpt lat="43.5591390339346" lon="12.113283884699312"><ele>310.0</ele><time>2026-05-03T07:39:31Z</time></trkpt><trkpt lat="43.5591965139039" lon="12.113403677501328"><ele>310.0</ele><time>2026-05-03T07:39:32Z</time></trkpt><trkpt lat="43.55926502181642" lon="12.113519351496397"><ele>310.0</ele><time>2026-05-03T07:39:33Z</time></trkpt><trkpt lat="43.55934107184923" lon="12.11362903530617"><ele>310.0</ele><time>2026-05-03T07:39:34Z</time></trkpt><trkpt lat="43.559412868922564" lon="12.113729720596483"><ele>310.0</ele><time>2026-05-03T07:39:35Z</time></trkpt><trkpt lat="43.559476159446355" lon="12.113822298685422"><ele>310.0</ele><time>2026-05-03T07:39:36Z</time></trkpt><trkpt lat="43.55954043708847" lon="12.113909454413632"><ele>310.0</ele><time>2026-05-03T07:39:37Z</time></trkpt><trkpt lat="43.559626036249206" lon="12.114011698799981"><ele>310.0</ele><time>2026-05-03T07:39:38Z</time></trkpt><trkpt lat="43.55972958819238" lon="12.114127650170676"><ele>310.0</ele><time>2026-05-03T07:39:39Z</time></trkpt><trkpt lat="43.559839178937835" lon="12.114245770809086"><ele>310.0</ele><time>2026-05-03T07:39:40Z</time></trkpt><trkpt lat="43.55994490688866" lon="12.114366956268706"><ele>310.0</ele><time>2026-05-03T07:39:41Z</time></trkpt><trkpt lat="43.56004679155802" lon="12.114494387838263"><ele>310.0</ele><time>2026-05-03T07:39:42Z</time></trkpt><trkpt lat="43.56014233320874" lon="12.114611617767492"><ele>310.0</ele><time>2026-05-03T07:39:43Z</time></trkpt><trkpt lat="43.56023036139083" lon="12.114719106279754"><ele>310.0</ele><time>2026-05-03T07:39:44Z</time></trkpt><trkpt lat="43.56030962782636" lon="12.114818138037066"><ele>310.0</ele><time>2026-05-03T07:39:45Z</time></trkpt><trkpt lat="43.560384708006374" lon="12.114904741655469"><ele>309.66666666666663</ele><time>2026-05-03T07:39:46Z</time></trkpt><trkpt lat="43.560456514844496" lon="12.114987476443252"><ele>309.3333333333333</ele><time>2026-05-03T07:39:47Z</time></trkpt><trkpt lat="43.560521254220596" lon="12.115059497013762"><ele>309.0</ele><time>2026-05-03T07:39:48Z</time></trkpt><trkpt lat="43.5605864775699" lon="12.1151255401853"><ele>308.6666666666667</ele><time>2026-05-03T07:39:49Z</time></trkpt><trkpt lat="43.560649736591614" lon="12.115188773532095"><ele>308.33333333333337</ele><time>2026-05-03T07:39:50Z</time></trkpt><trkpt lat="43.560709298907156" lon="12.115249877695401"><ele>308.0</ele><time>2026-05-03T07:39:51Z</time></trkpt><trkpt lat="43.56076474579937" lon="12.115304430491266"><ele>308.0</ele><time>2026-05-03T07:39:52Z</time></trkpt><trkpt lat="43.56085585217039" lon="12.115401936103083"><ele>308.0</ele><time>2026-05-03T07:39:54Z</time></trkpt><trkpt lat="43.56090946993316" lon="12.115546211401764"><ele>308.0</ele><time>2026-05-03T07:39:56Z</time></trkpt><trkpt lat="43.56095856840166" lon="12.11563166495693"><ele>308.0</ele><time>2026-05-03T07:39:57Z</time></trkpt><trkpt lat="43.561025501436745" lon="12.115692450629904"><ele>308.0</ele><time>2026-05-03T07:39:58Z</time></trkpt><trkpt lat="43.561102543672455" lon="12.115720991516204"><ele>308.0</ele><time>2026-05-03T07:39:59Z</time></trkpt><trkpt lat="43.56119152244146" lon="12.11575220717408"><ele>308.0</ele><time>2026-05-03T07:40:00Z</time></trkpt><trkpt lat="43.561277213724324" lon="12.11583928804736"><ele>308.0</ele><time>2026-05-03T07:40:01Z</time></trkpt><trkpt lat="43.56137108944794" lon="12.11595150683027"><ele>308.0</ele><time>2026-05-03T07:40:02Z</time></trkpt><trkpt lat="43.561466723167236" lon="12.116071951675199"><ele>308.0</ele><time>2026-05-03T07:40:03Z</time></trkpt><trkpt lat="43.56156486556643" lon="12.116199958593489"><ele>308.0</ele><time>2026-05-03T07:40:04Z</time></trkpt><trkpt lat="43.56166738056034" lon="12.11633085078086"><ele>308.0</ele><time>2026-05-03T07:40:04.999Z</time></trkpt><trkpt lat="43.561775762822144" lon="12.116472099191222"><ele>308.0</ele><time>2026-05-03T07:40:05.999Z</time></trkpt><trkpt lat="43.56188430895427" lon="12.116618110984438"><ele>308.0</ele><time>2026-05-03T07:40:06.999Z</time></trkpt><trkpt lat="43.56199691825515" lon="12.11677121092367"><ele>308.0</ele><time>2026-05-03T07:40:07.999Z</time></trkpt><trkpt lat="43.56210653716652" lon="12.116921188824438"><ele>308.0</ele><time>2026-05-03T07:40:08.999Z</time></trkpt><trkpt lat="43.56221887917003" lon="12.117072624546358"><ele>308.33333333333337</ele><time>2026-05-03T07:40:09.999Z</time></trkpt><trkpt lat="43.56233393587389" lon="12.117226572078994"><ele>308.6666666666667</ele><time>2026-05-03T07:40:10.999Z</time></trkpt><trkpt lat="43.562448508549956" lon="12.117386326873214"><ele>309.0</ele><time>2026-05-03T07:40:11.999Z</time></trkpt><trkpt lat="43.562563983160985" lon="12.117551798270604"><ele>309.0</ele><time>2026-05-03T07:40:12.999Z</time></trkpt><trkpt lat="43.56267918111244" lon="12.117720059153593"><ele>309.0</ele><time>2026-05-03T07:40:13.999Z</time></trkpt><trkpt lat="43.562796898231575" lon="12.11788943980115"><ele>309.0</ele><time>2026-05-03T07:40:14.999Z</time></trkpt><trkpt lat="43.562915763165364" lon="12.11806756345041"><ele>308.6666666666667</ele><time>2026-05-03T07:40:15.999Z</time></trkpt><trkpt lat="43.563034255365224" lon="12.118247941022616"><ele>308.33333333333337</ele><time>2026-05-03T07:40:16.999Z</time></trkpt><trkpt lat="43.56315332562914" lon="12.118428030100672"><ele>308.0</ele><time>2026-05-03T07:40:17.999Z</time></trkpt><trkpt lat="43.56327383247893" lon="12.118613092014755"><ele>308.0</ele><time>2026-05-03T07:40:18.999Z</time></trkpt><trkpt lat="43.56339415941253" lon="12.118800434945529"><ele>308.0</ele><time>2026-05-03T07:40:19.999Z</time></trkpt><trkpt lat="43.56351641681324" lon="12.118989525575367"><ele>308.0</ele><time>2026-05-03T07:40:20.999Z</time></trkpt><trkpt lat="43.56363927875307" lon="12.119175957033965"><ele>308.6666666666667</ele><time>2026-05-03T07:40:21.999Z</time></trkpt><trkpt lat="43.56376319963455" lon="12.119361547346612"><ele>309.3333333333333</ele><time>2026-05-03T07:40:22.999Z</time></trkpt><trkpt lat="43.563888032379865" lon="12.119545831196124"><ele>310.0</ele><time>2026-05-03T07:40:23.999Z</time></trkpt><trkpt lat="43.56401394868861" lon="12.119729932706873"><ele>309.66666666666663</ele><time>2026-05-03T07:40:24.999Z</time></trkpt><trkpt lat="43.56414375734489" lon="12.119911687691907"><ele>309.3333333333333</ele><time>2026-05-03T07:40:25.999Z</time></trkpt><trkpt lat="43.56428014301066" lon="12.120084410899585"><ele>309.0</ele><time>2026-05-03T07:40:26.999Z</time></trkpt><trkpt lat="43.56442641060057" lon="12.120242290369884"><ele>309.0</ele><time>2026-05-03T07:40:27.999Z</time></trkpt><trkpt lat="43.56458166500154" lon="12.120380293869161"><ele>309.0</ele><time>2026-05-03T07:40:28.999Z</time></trkpt><trkpt lat="43.564746760388665" lon="12.120497228459968"><ele>309.0</ele><time>2026-05-03T07:40:29.999Z</time></trkpt><trkpt lat="43.564917178466594" lon="12.12059421127904"><ele>309.0</ele><time>2026-05-03T07:40:30.999Z</time></trkpt><trkpt lat="43.56509033337993" lon="12.120678578876593"><ele>309.0</ele><time>2026-05-03T07:40:31.999Z</time></trkpt><trkpt lat="43.565262094086656" lon="12.12076996959718"><ele>309.0</ele><time>2026-05-03T07:40:32.999Z</time></trkpt><trkpt lat="43.565436676734585" lon="12.120859198289834"><ele>309.3333333333333</ele><time>2026-05-03T07:40:33.999Z</time></trkpt><trkpt lat="43.56561124356666" lon="12.120945889677268"><ele>309.66666666666663</ele><time>2026-05-03T07:40:34.999Z</time></trkpt><trkpt lat="43.5657850281078" lon="12.121031696131906"><ele>310.0</ele><time>2026-05-03T07:40:35.999Z</time></trkpt><trkpt lat="43.56595760646312" lon="12.121119770561378"><ele>310.0</ele><time>2026-05-03T07:40:36.999Z</time></trkpt><trkpt lat="43.56613172692839" lon="12.121205920498491"><ele>310.0</ele><time>2026-05-03T07:40:37.999Z</time></trkpt><trkpt lat="43.56630558977017" lon="12.121291827856073"><ele>310.0</ele><time>2026-05-03T07:40:38.999Z</time></trkpt><trkpt lat="43.566477865982286" lon="12.121377434495638"><ele>309.66666666666663</ele><time>2026-05-03T07:40:39.999Z</time></trkpt><trkpt lat="43.56664573839052" lon="12.121463488379105"><ele>309.3333333333333</ele><time>2026-05-03T07:40:40.999Z</time></trkpt><trkpt lat="43.56680778840525" lon="12.121551182888492"><ele>309.0</ele><time>2026-05-03T07:40:41.999Z</time></trkpt><trkpt lat="43.5669642039623" lon="12.121635989907118"><ele>308.75</ele><time>2026-05-03T07:40:42.999Z</time></trkpt><trkpt lat="43.56710464678409" lon="12.121719036390294"><ele>308.5</ele><time>2026-05-03T07:40:43.999Z</time></trkpt><trkpt lat="43.56723632829574" lon="12.121806063519763"><ele>308.25</ele><time>2026-05-03T07:40:44.999Z</time></trkpt><trkpt lat="43.56736027127972" lon="12.121907802939667"><ele>308.0</ele><time>2026-05-03T07:40:45.999Z</time></trkpt><trkpt lat="43.56748007663689" lon="12.122025819343014"><ele>308.0</ele><time>2026-05-03T07:40:46.999Z</time></trkpt><trkpt lat="43.567596692889936" lon="12.122160367159156"><ele>308.0</ele><time>2026-05-03T07:40:47.999Z</time></trkpt><trkpt lat="43.56770984412705" lon="12.122307046460877"><ele>308.0</ele><time>2026-05-03T07:40:48.999Z</time></trkpt><trkpt lat="43.56782029537793" lon="12.122464109647005"><ele>309.0</ele><time>2026-05-03T07:40:49.999Z</time></trkpt><trkpt lat="43.56792731146775" lon="12.12263168295135"><ele>310.0</ele><time>2026-05-03T07:40:50.999Z</time></trkpt><trkpt lat="43.568027489170156" lon="12.12280800461922"><ele>311.0</ele><time>2026-05-03T07:40:51.999Z</time></trkpt><trkpt lat="43.5681156606809" lon="12.123003138394843"><ele>311.0</ele><time>2026-05-03T07:40:52.999Z</time></trkpt><trkpt lat="43.56819765343156" lon="12.123201046145512"><ele>311.0</ele><time>2026-05-03T07:40:53.999Z</time></trkpt><trkpt lat="43.568279557546596" lon="12.123397566266432"><ele>311.0</ele><time>2026-05-03T07:40:54.999Z</time></trkpt><trkpt lat="43.56836130933558" lon="12.123591963580852"><ele>311.0</ele><time>2026-05-03T07:40:55.999Z</time></trkpt><trkpt lat="43.568431812367585" lon="12.12377457155108"><ele>311.0</ele><time>2026-05-03T07:40:56.999Z</time></trkpt><trkpt lat="43.56848819186263" lon="12.123955831167459"><ele>311.0</ele><time>2026-05-03T07:40:57.999Z</time></trkpt><trkpt lat="43.56851596536661" lon="12.124136625197831"><ele>311.0</ele><time>2026-05-03T07:40:59Z</time></trkpt><trkpt lat="43.56851573270343" lon="12.124314631898452"><ele>311.0</ele><time>2026-05-03T07:41:00Z</time></trkpt><trkpt lat="43.56848252520167" lon="12.124483591159837"><ele>311.0</ele><time>2026-05-03T07:41:01Z</time></trkpt><trkpt lat="43.56841347433387" lon="12.124634142929201"><ele>311.0</ele><time>2026-05-03T07:41:02Z</time></trkpt><trkpt lat="43.568317650910686" lon="12.124767678444362"><ele>311.0</ele><time>2026-05-03T07:41:03Z</time></trkpt><trkpt lat="43.56820180640443" lon="12.124885588031427"><ele>311.33333333333337</ele><time>2026-05-03T07:41:04Z</time></trkpt><trkpt lat="43.568073817790406" lon="12.125000760224781"><ele>311.6666666666667</ele><time>2026-05-03T07:41:05Z</time></trkpt><trkpt lat="43.56794748284585" lon="12.125121441285225"><ele>312.0</ele><time>2026-05-03T07:41:06Z</time></trkpt><trkpt lat="43.567827304421634" lon="12.12524804439143"><ele>311.0</ele><time>2026-05-03T07:41:07Z</time></trkpt><trkpt lat="43.56771307465268" lon="12.125363620412996"><ele>310.0</ele><time>2026-05-03T07:41:08Z</time></trkpt><trkpt lat="43.56759659368222" lon="12.125437845128054"><ele>309.0</ele><time>2026-05-03T07:41:09Z</time></trkpt><trkpt lat="43.56747550254931" lon="12.125470416883545"><ele>308.0</ele><time>2026-05-03T07:41:10Z</time></trkpt><trkpt lat="43.56735034571971" lon="12.125450864056994"><ele>308.0</ele><time>2026-05-03T07:41:11Z</time></trkpt><trkpt lat="43.56723300112219" lon="12.125392267221113"><ele>308.0</ele><time>2026-05-03T07:41:12Z</time></trkpt><trkpt lat="43.56713836297238" lon="12.125295475682178"><ele>308.0</ele><time>2026-05-03T07:41:13Z</time></trkpt><trkpt lat="43.567066258314945" lon="12.12517946358523"><ele>308.0</ele><time>2026-05-03T07:41:14Z</time></trkpt><trkpt lat="43.56701663176647" lon="12.125040615381161"><ele>308.25</ele><time>2026-05-03T07:41:15Z</time></trkpt><trkpt lat="43.5669869878629" lon="12.12488855917375"><ele>308.5</ele><time>2026-05-03T07:41:16Z</time></trkpt><trkpt lat="43.56698022080031" lon="12.1247306012068"><ele>308.75</ele><time>2026-05-03T07:41:17Z</time></trkpt><trkpt lat="43.56700621592384" lon="12.124573215594332"><ele>309.0</ele><time>2026-05-03T07:41:18Z</time></trkpt><trkpt lat="43.56706634523601" lon="12.124428223915315"><ele>309.25</ele><time>2026-05-03T07:41:19Z</time></trkpt><trkpt lat="43.5671503105302" lon="12.124297954524778"><ele>309.5</ele><time>2026-05-03T07:41:20Z</time></trkpt><trkpt lat="43.567260517489544" lon="12.124185856468396"><ele>309.75</ele><time>2026-05-03T07:41:21Z</time></trkpt><trkpt lat="43.56739520220682" lon="12.124074019534396"><ele>310.0</ele><time>2026-05-03T07:41:22Z</time></trkpt><trkpt lat="43.567539066375325" lon="12.123946338877118"><ele>310.0</ele><time>2026-05-03T07:41:23Z</time></trkpt><trkpt lat="43.56768983539253" lon="12.123813139849135"><ele>310.0</ele><time>2026-05-03T07:41:24Z</time></trkpt><trkpt lat="43.5678424663618" lon="12.123681169915828"><ele>310.0</ele><time>2026-05-03T07:41:25Z</time></trkpt><trkpt lat="43.567996825471184" lon="12.123548535780976"><ele>310.3333333333333</ele><time>2026-05-03T07:41:26Z</time></trkpt><trkpt lat="43.568145360249275" lon="12.12342484657246"><ele>310.6666666666667</ele><time>2026-05-03T07:41:27Z</time></trkpt><trkpt lat="43.56828789445102" lon="12.123309771046832"><ele>311.0</ele><time>2026-05-03T07:41:28Z</time></trkpt><trkpt lat="43.56843088121925" lon="12.123192437834621"><ele>311.0</ele><time>2026-05-03T07:41:29Z</time></trkpt><trkpt lat="43.56857706700881" lon="12.123068094714974"><ele>311.0</ele><time>2026-05-03T07:41:30Z</time></trkpt><trkpt lat="43.568729612968134" lon="12.122939987660699"><ele>311.0</ele><time>2026-05-03T07:41:31Z</time></trkpt><trkpt lat="43.568887083165876" lon="12.122811310942662"><ele>311.33333333333337</ele><time>2026-05-03T07:41:32Z</time></trkpt><trkpt lat="43.56904889130833" lon="12.122688042911653"><ele>311.6666666666667</ele><time>2026-05-03T07:41:33Z</time></trkpt><trkpt lat="43.56921676109648" lon="12.122567515030164"><ele>312.0</ele><time>2026-05-03T07:41:34Z</time></trkpt><trkpt lat="43.569388611750796" lon="12.122452438222874"><ele>313.0</ele><time>2026-05-03T07:41:35Z</time></trkpt><trkpt lat="43.56956176946939" lon="12.122339444337522"><ele>314.0</ele><time>2026-05-03T07:41:36Z</time></trkpt><trkpt lat="43.56973508039345" lon="12.122225660069114"><ele>315.0</ele><time>2026-05-03T07:41:37Z</time></trkpt><trkpt lat="43.56990887966151" lon="12.122113222293807"><ele>315.0</ele><time>2026-05-03T07:41:38Z</time></trkpt><trkpt lat="43.57008728635354" lon="12.122004689024637"><ele>315.0</ele><time>2026-05-03T07:41:39Z</time></trkpt><trkpt lat="43.57026654630048" lon="12.121896818411708"><ele>315.0</ele><time>2026-05-03T07:41:40Z</time></trkpt><trkpt lat="43.57044623429531" lon="12.121789335902493"><ele>315.0</ele><time>2026-05-03T07:41:41Z</time></trkpt><trkpt lat="43.5706246335042" lon="12.12168058191301"><ele>315.0</ele><time>2026-05-03T07:41:42Z</time></trkpt><trkpt lat="43.57080538294609" lon="12.121569669481035"><ele>315.0</ele><time>2026-05-03T07:41:43Z</time></trkpt><trkpt lat="43.5709892310016" lon="12.1214509092075"><ele>315.0</ele><time>2026-05-03T07:41:44Z</time></trkpt><trkpt lat="43.57117358131182" lon="12.12133293999883"><ele>315.0</ele><time>2026-05-03T07:41:45Z</time></trkpt><trkpt lat="43.571363128560826" lon="12.121216508409795"><ele>315.0</ele><time>2026-05-03T07:41:46Z</time></trkpt><trkpt lat="43.57155570030929" lon="12.121099721091676"><ele>315.0</ele><time>2026-05-03T07:41:47Z</time></trkpt><trkpt lat="43.57175293367998" lon="12.120978187162534"><ele>315.0</ele><time>2026-05-03T07:41:48Z</time></trkpt><trkpt lat="43.571945961581584" lon="12.120858280931289"><ele>315.0</ele><time>2026-05-03T07:41:49Z</time></trkpt><trkpt lat="43.572139069293186" lon="12.1207404078557"><ele>315.3333333333333</ele><time>2026-05-03T07:41:50Z</time></trkpt><trkpt lat="43.57233260970581" lon="12.120623826987147"><ele>315.66666666666663</ele><time>2026-05-03T07:41:51Z</time></trkpt><trkpt lat="43.57252670035256" lon="12.120509849661358"><ele>316.0</ele><time>2026-05-03T07:41:52Z</time></trkpt><trkpt lat="43.57272032285498" lon="12.120395573686482"><ele>316.3333333333333</ele><time>2026-05-03T07:41:53Z</time></trkpt><trkpt lat="43.57291409468929" lon="12.120281638922009"><ele>316.6666666666667</ele><time>2026-05-03T07:41:54Z</time></trkpt><trkpt lat="43.573108600050986" lon="12.120168294319804"><ele>317.0</ele><time>2026-05-03T07:41:55Z</time></trkpt><trkpt lat="43.573303255612295" lon="12.120053891702009"><ele>317.0</ele><time>2026-05-03T07:41:56Z</time></trkpt><trkpt lat="43.57349838207615" lon="12.11994046427701"><ele>317.0</ele><time>2026-05-03T07:41:57Z</time></trkpt><trkpt lat="43.573693355494434" lon="12.11982950106582"><ele>317.0</ele><time>2026-05-03T07:41:58Z</time></trkpt><trkpt lat="43.5738893909992" lon="12.119719705202707"><ele>316.6666666666667</ele><time>2026-05-03T07:41:59Z</time></trkpt><trkpt lat="43.5740849551951" lon="12.119609243314981"><ele>316.3333333333333</ele><time>2026-05-03T07:42:00Z</time></trkpt><trkpt lat="43.57428017825562" lon="12.119496968410647"><ele>316.0</ele><time>2026-05-03T07:42:01Z</time></trkpt><trkpt lat="43.57447442830811" lon="12.119382455902397"><ele>316.3333333333333</ele><time>2026-05-03T07:42:02Z</time></trkpt><trkpt lat="43.57466657436208" lon="12.119267258071888"><ele>316.6666666666667</ele><time>2026-05-03T07:42:02.999Z</time></trkpt><trkpt lat="43.574859283619034" lon="12.119150735981052"><ele>317.0</ele><time>2026-05-03T07:42:03.999Z</time></trkpt><trkpt lat="43.57505181024265" lon="12.119034347527114"><ele>317.0</ele><time>2026-05-03T07:42:04.999Z</time></trkpt><trkpt lat="43.57524386125602" lon="12.118919257914316"><ele>317.0</ele><time>2026-05-03T07:42:05.999Z</time></trkpt><trkpt lat="43.57543628551754" lon="12.118804711008329"><ele>317.0</ele><time>2026-05-03T07:42:06.999Z</time></trkpt><trkpt lat="43.575630165829246" lon="12.118690660969357"><ele>317.6666666666667</ele><time>2026-05-03T07:42:07.999Z</time></trkpt><trkpt lat="43.57582367237724" lon="12.118576690303"><ele>318.3333333333333</ele><time>2026-05-03T07:42:08.999Z</time></trkpt><trkpt lat="43.57601801521075" lon="12.11846183548919"><ele>319.0</ele><time>2026-05-03T07:42:09.999Z</time></trkpt><trkpt lat="43.576213726005285" lon="12.118346175492162"><ele>319.0</ele><time>2026-05-03T07:42:10.999Z</time></trkpt><trkpt lat="43.576408477455004" lon="12.118231256849672"><ele>319.0</ele><time>2026-05-03T07:42:11.999Z</time></trkpt><trkpt lat="43.57660268612339" lon="12.118113962598224"><ele>319.0</ele><time>2026-05-03T07:42:12.999Z</time></trkpt><trkpt lat="43.57679580947285" lon="12.117998242143393"><ele>319.0</ele><time>2026-05-03T07:42:13.999Z</time></trkpt><trkpt lat="43.576990011356976" lon="12.117887638736805"><ele>319.0</ele><time>2026-05-03T07:42:14.999Z</time></trkpt><trkpt lat="43.57718386172873" lon="12.11777704063581"><ele>319.0</ele><time>2026-05-03T07:42:15.999Z</time></trkpt><trkpt lat="43.57737920962938" lon="12.117663609136448"><ele>319.3333333333333</ele><time>2026-05-03T07:42:16.999Z</time></trkpt><trkpt lat="43.57757417762365" lon="12.117547385828717"><ele>319.6666666666667</ele><time>2026-05-03T07:42:17.999Z</time></trkpt><trkpt lat="43.57776980252706" lon="12.11742944316605"><ele>320.0</ele><time>2026-05-03T07:42:18.999Z</time></trkpt><trkpt lat="43.5779662356244" lon="12.117310173095442"><ele>320.6666666666667</ele><time>2026-05-03T07:42:19.999Z</time></trkpt><trkpt lat="43.57816294136545" lon="12.117192234557079"><ele>321.3333333333333</ele><time>2026-05-03T07:42:20.999Z</time></trkpt><trkpt lat="43.578361529569385" lon="12.117073533431235"><ele>322.0</ele><time>2026-05-03T07:42:21.999Z</time></trkpt><trkpt lat="43.578560489931384" lon="12.116954507924467"><ele>322.66666666666663</ele><time>2026-05-03T07:42:22.999Z</time></trkpt><trkpt lat="43.57875828363504" lon="12.116834978361602"><ele>323.3333333333333</ele><time>2026-05-03T07:42:23.999Z</time></trkpt><trkpt lat="43.57895615871766" lon="12.116716160548643"><ele>324.0</ele><time>2026-05-03T07:42:24.999Z</time></trkpt><trkpt lat="43.579153054912524" lon="12.11659935277603"><ele>323.3333333333333</ele><time>2026-05-03T07:42:25.999Z</time></trkpt><trkpt lat="43.57934876328989" lon="12.116481422296491"><ele>322.66666666666663</ele><time>2026-05-03T07:42:26.999Z</time></trkpt><trkpt lat="43.579543476545965" lon="12.116364223698481"><ele>322.0</ele><time>2026-05-03T07:42:27.999Z</time></trkpt><trkpt lat="43.5797387226942" lon="12.11625033272"><ele>322.0</ele><time>2026-05-03T07:42:28.999Z</time></trkpt><trkpt lat="43.57993281574191" lon="12.116135471059836"><ele>322.0</ele><time>2026-05-03T07:42:29.999Z</time></trkpt><trkpt lat="43.58012582918335" lon="12.116016228516337"><ele>322.0</ele><time>2026-05-03T07:42:30.999Z</time></trkpt><trkpt lat="43.580315193524285" lon="12.11588758614952"><ele>321.66666666666663</ele><time>2026-05-03T07:42:31.999Z</time></trkpt><trkpt lat="43.580500910976575" lon="12.115747610457904"><ele>321.3333333333333</ele><time>2026-05-03T07:42:32.999Z</time></trkpt><trkpt lat="43.58068391497097" lon="12.115597358192538"><ele>321.0</ele><time>2026-05-03T07:42:33.999Z</time></trkpt><trkpt lat="43.58086420537639" lon="12.115443190914453"><ele>321.0</ele><time>2026-05-03T07:42:34.999Z</time></trkpt><trkpt lat="43.58104127910992" lon="12.115279894913183"><ele>321.0</ele><time>2026-05-03T07:42:35.999Z</time></trkpt><trkpt lat="43.581212125234345" lon="12.115107129419275"><ele>321.0</ele><time>2026-05-03T07:42:36.999Z</time></trkpt><trkpt lat="43.58137765282297" lon="12.114925233710807"><ele>322.3333333333333</ele><time>2026-05-03T07:42:37.999Z</time></trkpt><trkpt lat="43.58153962644494" lon="12.114737003986027"><ele>323.66666666666663</ele><time>2026-05-03T07:42:38.999Z</time></trkpt><trkpt lat="43.581698858020644" lon="12.11454328493859"><ele>325.0</ele><time>2026-05-03T07:42:39.999Z</time></trkpt><trkpt lat="43.581857255502555" lon="12.114343400801292"><ele>325.0</ele><time>2026-05-03T07:42:40.999Z</time></trkpt><trkpt lat="43.5820155166546" lon="12.114139428132074"><ele>325.0</ele><time>2026-05-03T07:42:41.999Z</time></trkpt><trkpt lat="43.58217348626725" lon="12.113927286187327"><ele>325.0</ele><time>2026-05-03T07:42:42.999Z</time></trkpt><trkpt lat="43.582335520416635" lon="12.113711815169465"><ele>324.5</ele><time>2026-05-03T07:42:43.999Z</time></trkpt><trkpt lat="43.582494646932965" lon="12.11349831743149"><ele>324.0</ele><time>2026-05-03T07:42:44.999Z</time></trkpt><trkpt lat="43.582660312374095" lon="12.113280546074652"><ele>324.0</ele><time>2026-05-03T07:42:45.999Z</time></trkpt><trkpt lat="43.58282431152459" lon="12.113057544900936"><ele>324.0</ele><time>2026-05-03T07:42:46.999Z</time></trkpt><trkpt lat="43.582994264390166" lon="12.112836300851722"><ele>324.0</ele><time>2026-05-03T07:42:47.999Z</time></trkpt><trkpt lat="43.58316153354356" lon="12.112611330835918"><ele>324.0</ele><time>2026-05-03T07:42:48.999Z</time></trkpt><trkpt lat="43.58333124951103" lon="12.112382558611692"><ele>323.5</ele><time>2026-05-03T07:42:49.999Z</time></trkpt><trkpt lat="43.58349705386724" lon="12.11215685712529"><ele>323.0</ele><time>2026-05-03T07:42:50.999Z</time></trkpt><trkpt lat="43.58366418455946" lon="12.11193385513206"><ele>326.5</ele><time>2026-05-03T07:42:51.999Z</time></trkpt><trkpt lat="43.58383378876861" lon="12.111711655092959"><ele>330.0</ele><time>2026-05-03T07:42:52.999Z</time></trkpt><trkpt lat="43.58400054822316" lon="12.111491234057171"><ele>330.0</ele><time>2026-05-03T07:42:53.999Z</time></trkpt><trkpt lat="43.58416041652795" lon="12.111260205311531"><ele>330.0</ele><time>2026-05-03T07:42:54.999Z</time></trkpt><trkpt lat="43.58432350058136" lon="12.111034363489525"><ele>330.0</ele><time>2026-05-03T07:42:55.999Z</time></trkpt><trkpt lat="43.58449244897517" lon="12.110815564361756"><ele>330.0</ele><time>2026-05-03T07:42:56.999Z</time></trkpt><trkpt lat="43.584660960512444" lon="12.110601927470984"><ele>332.5</ele><time>2026-05-03T07:42:57.999Z</time></trkpt><trkpt lat="43.584828307567875" lon="12.110397428112984"><ele>335.0</ele><time>2026-05-03T07:42:58.999Z</time></trkpt><trkpt lat="43.58499426492327" lon="12.110177970234753"><ele>335.0</ele><time>2026-05-03T07:42:59.999Z</time></trkpt><trkpt lat="43.585155916300735" lon="12.10996404291214"><ele>335.0</ele><time>2026-05-03T07:43:00.999Z</time></trkpt><trkpt lat="43.58531667997151" lon="12.109743818925477"><ele>335.5</ele><time>2026-05-03T07:43:01.999Z</time></trkpt><trkpt lat="43.58547809364803" lon="12.109523911069532"><ele>336.0</ele><time>2026-05-03T07:43:02.999Z</time></trkpt><trkpt lat="43.585646437155205" lon="12.109308627699306"><ele>336.0</ele><time>2026-05-03T07:43:04Z</time></trkpt><trkpt lat="43.585814216080976" lon="12.10909361602642"><ele>336.0</ele><time>2026-05-03T07:43:05Z</time></trkpt><trkpt lat="43.585984873720214" lon="12.108874519639054"><ele>335.0</ele><time>2026-05-03T07:43:06Z</time></trkpt><trkpt lat="43.58615087719732" lon="12.108651396469288"><ele>334.0</ele><time>2026-05-03T07:43:07Z</time></trkpt><trkpt lat="43.58631858392583" lon="12.108433120942873"><ele>338.0</ele><time>2026-05-03T07:43:08Z</time></trkpt><trkpt lat="43.58649253860076" lon="12.108202274499796"><ele>342.0</ele><time>2026-05-03T07:43:09Z</time></trkpt><trkpt lat="43.586666739461094" lon="12.107959109689466"><ele>342.0</ele><time>2026-05-03T07:43:10Z</time></trkpt><trkpt lat="43.58684274563835" lon="12.10772757873899"><ele>342.0</ele><time>2026-05-03T07:43:11Z</time></trkpt><trkpt lat="43.58702058623692" lon="12.107493498303265"><ele>347.0</ele><time>2026-05-03T07:43:12Z</time></trkpt><trkpt lat="43.58720031802223" lon="12.107259410093043"><ele>352.0</ele><time>2026-05-03T07:43:13Z</time></trkpt><trkpt lat="43.5873795258975" lon="12.107020586152043"><ele>352.0</ele><time>2026-05-03T07:43:14Z</time></trkpt><trkpt lat="43.5875608218163" lon="12.106777359938276"><ele>352.0</ele><time>2026-05-03T07:43:15Z</time></trkpt><trkpt lat="43.58774552691088" lon="12.106532751267007"><ele>354.5</ele><time>2026-05-03T07:43:16Z</time></trkpt><trkpt lat="43.58793136399879" lon="12.106288672505194"><ele>357.0</ele><time>2026-05-03T07:43:17Z</time></trkpt><trkpt lat="43.58811764430222" lon="12.106041447974603"><ele>357.0</ele><time>2026-05-03T07:43:18Z</time></trkpt><trkpt lat="43.58830352645137" lon="12.105793051330439"><ele>357.0</ele><time>2026-05-03T07:43:19Z</time></trkpt><trkpt lat="43.58849154504174" lon="12.105543467843656"><ele>358.5</ele><time>2026-05-03T07:43:20Z</time></trkpt><trkpt lat="43.588681327589775" lon="12.105291894479722"><ele>360.0</ele><time>2026-05-03T07:43:21Z</time></trkpt><trkpt lat="43.58887012901084" lon="12.105040013920204"><ele>358.0</ele><time>2026-05-03T07:43:22Z</time></trkpt><trkpt lat="43.58905888305048" lon="12.104789318450376"><ele>356.0</ele><time>2026-05-03T07:43:23Z</time></trkpt><trkpt lat="43.58924703012562" lon="12.104539698403327"><ele>356.0</ele><time>2026-05-03T07:43:24Z</time></trkpt><trkpt lat="43.589436053057696" lon="12.104287594804969"><ele>356.0</ele><time>2026-05-03T07:43:25Z</time></trkpt><trkpt lat="43.5896233113056" lon="12.104038742030145"><ele>358.5</ele><time>2026-05-03T07:43:26Z</time></trkpt><trkpt lat="43.58980952819608" lon="12.103784602583254"><ele>361.0</ele><time>2026-05-03T07:43:27Z</time></trkpt><trkpt lat="43.589993182501615" lon="12.103525658665758"><ele>361.0</ele><time>2026-05-03T07:43:28Z</time></trkpt><trkpt lat="43.59017291272127" lon="12.10326548627392"><ele>361.0</ele><time>2026-05-03T07:43:29Z</time></trkpt><trkpt lat="43.59035031196579" lon="12.102997993961807"><ele>359.0</ele><time>2026-05-03T07:43:30Z</time></trkpt><trkpt lat="43.59052208055332" lon="12.102729792027674"><ele>357.0</ele><time>2026-05-03T07:43:31Z</time></trkpt><trkpt lat="43.59069450180596" lon="12.102459400054887"><ele>355.0</ele><time>2026-05-03T07:43:32Z</time></trkpt><trkpt lat="43.59086670875194" lon="12.102187440090768"><ele>353.0</ele><time>2026-05-03T07:43:33Z</time></trkpt><trkpt lat="43.5910367106778" lon="12.101918579857356"><ele>358.5</ele><time>2026-05-03T07:43:34Z</time></trkpt><trkpt lat="43.59120670775121" lon="12.101650874235414"><ele>364.0</ele><time>2026-05-03T07:43:35Z</time></trkpt><trkpt lat="43.59137644724804" lon="12.101384226501908"><ele>367.0</ele><time>2026-05-03T07:43:36Z</time></trkpt><trkpt lat="43.59154600525834" lon="12.101121631937296"><ele>370.0</ele><time>2026-05-03T07:43:37Z</time></trkpt><trkpt lat="43.59171628551751" lon="12.100863306721955"><ele>369.5</ele><time>2026-05-03T07:43:38Z</time></trkpt><trkpt lat="43.591890131048885" lon="12.100605346820863"><ele>369.0</ele><time>2026-05-03T07:43:39Z</time></trkpt><trkpt lat="43.59206601347625" lon="12.10035591057261"><ele>374.5</ele><time>2026-05-03T07:43:40Z</time></trkpt><trkpt lat="43.59224356820309" lon="12.100108909046002"><ele>380.0</ele><time>2026-05-03T07:43:41Z</time></trkpt><trkpt lat="43.592428498917705" lon="12.099872909268832"><ele>380.0</ele><time>2026-05-03T07:43:42Z</time></trkpt><trkpt lat="43.59261684836436" lon="12.09964872543338"><ele>380.0</ele><time>2026-05-03T07:43:43Z</time></trkpt><trkpt lat="43.592817224738575" lon="12.099443300589815"><ele>387.0</ele><time>2026-05-03T07:43:44Z</time></trkpt><trkpt lat="43.59301366115459" lon="12.099238966504887"><ele>394.0</ele><time>2026-05-03T07:43:45Z</time></trkpt><trkpt lat="43.59322435384982" lon="12.099052064535691"><ele>394.0</ele><time>2026-05-03T07:43:46Z</time></trkpt><trkpt lat="43.59343541456767" lon="12.098875976706767"><ele>394.0</ele><time>2026-05-03T07:43:47Z</time></trkpt><trkpt lat="43.59364545843786" lon="12.098705352821854"><ele>397.0</ele><time>2026-05-03T07:43:48Z</time></trkpt><trkpt lat="43.59386004548029" lon="12.098548777823888"><ele>400.0</ele><time>2026-05-03T07:43:49Z</time></trkpt><trkpt lat="43.59408164141777" lon="12.0984023993993"><ele>400.0</ele><time>2026-05-03T07:43:50Z</time></trkpt><trkpt lat="43.594297725442765" lon="12.098263590624352"><ele>400.0</ele><time>2026-05-03T07:43:51Z</time></trkpt><trkpt lat="43.594523923347694" lon="12.098138695388775"><ele>398.0</ele><time>2026-05-03T07:43:52Z</time></trkpt><trkpt lat="43.59475040251457" lon="12.098019752641722"><ele>396.0</ele><time>2026-05-03T07:43:53Z</time></trkpt><trkpt lat="43.594974148829195" lon="12.097904602130866"><ele>396.0</ele><time>2026-05-03T07:43:54Z</time></trkpt><trkpt lat="43.59519656022948" lon="12.097784374404116"><ele>396.0</ele><time>2026-05-03T07:43:55Z</time></trkpt><trkpt lat="43.595419532871944" lon="12.097667028214703"><ele>394.5</ele><time>2026-05-03T07:43:56Z</time></trkpt><trkpt lat="43.59564378227815" lon="12.097551978934758"><ele>393.0</ele><time>2026-05-03T07:43:57Z</time></trkpt><trkpt lat="43.59586831863444" lon="12.097440088568591"><ele>392.5</ele><time>2026-05-03T07:43:58Z</time></trkpt><trkpt lat="43.59609113978118" lon="12.097321044176967"><ele>392.0</ele><time>2026-05-03T07:43:59Z</time></trkpt><trkpt lat="43.59631465326048" lon="12.097202393535094"><ele>392.0</ele><time>2026-05-03T07:44:00Z</time></trkpt><trkpt lat="43.59653837092832" lon="12.097083510301704"><ele>392.0</ele><time>2026-05-03T07:44:00.999Z</time></trkpt><trkpt lat="43.59676243847581" lon="12.096965872866008"><ele>392.0</ele><time>2026-05-03T07:44:01.999Z</time></trkpt><trkpt lat="43.596984547567466" lon="12.096849108595238"><ele>392.0</ele><time>2026-05-03T07:44:02.999Z</time></trkpt><trkpt lat="43.597209134826464" lon="12.096732696105134"><ele>392.5</ele><time>2026-05-03T07:44:03.999Z</time></trkpt><trkpt lat="43.597431865104575" lon="12.09661764037186"><ele>393.0</ele><time>2026-05-03T07:44:04.999Z</time></trkpt><trkpt lat="43.597652483819346" lon="12.096501427447171"><ele>392.5</ele><time>2026-05-03T07:44:05.999Z</time></trkpt><trkpt lat="43.597872555616526" lon="12.09638457136448"><ele>392.0</ele><time>2026-05-03T07:44:06.999Z</time></trkpt><trkpt lat="43.5980911938912" lon="12.09627139831536"><ele>392.0</ele><time>2026-05-03T07:44:07.999Z</time></trkpt><trkpt lat="43.59830955420423" lon="12.096158389171652"><ele>392.0</ele><time>2026-05-03T07:44:08.999Z</time></trkpt><trkpt lat="43.598528190378325" lon="12.096042118809848"><ele>394.5</ele><time>2026-05-03T07:44:09.999Z</time></trkpt><trkpt lat="43.598747196134624" lon="12.095919499485591"><ele>397.0</ele><time>2026-05-03T07:44:10.999Z</time></trkpt><trkpt lat="43.59896786875414" lon="12.095791669768236"><ele>396.5</ele><time>2026-05-03T07:44:11.999Z</time></trkpt><trkpt lat="43.59918629504146" lon="12.095652127549178"><ele>396.0</ele><time>2026-05-03T07:44:12.999Z</time></trkpt><trkpt lat="43.599401743029766" lon="12.095501068118585"><ele>400.0</ele><time>2026-05-03T07:44:13.999Z</time></trkpt><trkpt lat="43.59961605079336" lon="12.095339621984783"><ele>404.0</ele><time>2026-05-03T07:44:14.999Z</time></trkpt><trkpt lat="43.5998283085998" lon="12.095168444421848"><ele>404.0</ele><time>2026-05-03T07:44:15.999Z</time></trkpt><trkpt lat="43.600035040053655" lon="12.094984211261997"><ele>404.0</ele><time>2026-05-03T07:44:16.999Z</time></trkpt><trkpt lat="43.60023486478285" lon="12.094785560936181"><ele>407.5</ele><time>2026-05-03T07:44:17.999Z</time></trkpt><trkpt lat="43.6004313329109" lon="12.094579793753821"><ele>411.0</ele><time>2026-05-03T07:44:18.999Z</time></trkpt><trkpt lat="43.60061752131904" lon="12.09435883418544"><ele>411.0</ele><time>2026-05-03T07:44:19.999Z</time></trkpt><trkpt lat="43.600794901552526" lon="12.094125966950592"><ele>411.0</ele><time>2026-05-03T07:44:20.999Z</time></trkpt><trkpt lat="43.600964393122524" lon="12.093885928545795"><ele>416.5</ele><time>2026-05-03T07:44:21.999Z</time></trkpt><trkpt lat="43.601128627981716" lon="12.093640399011026"><ele>422.0</ele><time>2026-05-03T07:44:22.999Z</time></trkpt><trkpt lat="43.60128357655657" lon="12.093386333822604"><ele>440.5</ele><time>2026-05-03T07:44:23.999Z</time></trkpt><trkpt lat="43.60144241548837" lon="12.093130515932032"><ele>459.0</ele><time>2026-05-03T07:44:24.999Z</time></trkpt><trkpt lat="43.60159060892979" lon="12.092872447063113"><ele>459.0</ele><time>2026-05-03T07:44:25.999Z</time></trkpt><trkpt lat="43.60174200420458" lon="12.092611837076934"><ele>459.0</ele><time>2026-05-03T07:44:26.999Z</time></trkpt><trkpt lat="43.601895530282974" lon="12.09235171681703"><ele>469.0</ele><time>2026-05-03T07:44:27.999Z</time></trkpt><trkpt lat="43.60204718782408" lon="12.092098759717965"><ele>479.0</ele><time>2026-05-03T07:44:28.999Z</time></trkpt><trkpt lat="43.60220083043365" lon="12.091840403368526"><ele>480.5</ele><time>2026-05-03T07:44:29.999Z</time></trkpt><trkpt lat="43.602351618674945" lon="12.09158709271401"><ele>482.0</ele><time>2026-05-03T07:44:30.999Z</time></trkpt><trkpt lat="43.60251071059416" lon="12.09131407034152"><ele>482.0</ele><time>2026-05-03T07:44:32.065Z</time></trkpt><trkpt lat="43.60266301593574" lon="12.091059699466795"><ele>482.0</ele><time>2026-05-03T07:44:33.065Z</time></trkpt><trkpt lat="43.602815481863615" lon="12.090803858120537"><ele>472.0</ele><time>2026-05-03T07:44:34.064Z</time></trkpt><trkpt lat="43.602966148995044" lon="12.090548635483792"><ele>462.0</ele><time>2026-05-03T07:44:35.061Z</time></trkpt><trkpt lat="43.60311641022133" lon="12.090293577404573"><ele>445.0</ele><time>2026-05-03T07:44:36.06Z</time></trkpt><trkpt lat="43.60405182169907" lon="12.088574876489805"><ele>445.0</ele><time>2026-05-03T07:44:41.999Z</time></trkpt><trkpt lat="43.6042023832442" lon="12.08830321522059"><ele>445.0</ele><time>2026-05-03T07:44:42.999Z</time></trkpt><trkpt lat="43.60436156680367" lon="12.088027391861253"><ele>447.5</ele><time>2026-05-03T07:44:43.999Z</time></trkpt><trkpt lat="43.60451498555614" lon="12.087767970878673"><ele>450.0</ele><time>2026-05-03T07:44:44.999Z</time></trkpt><trkpt lat="43.60466684556814" lon="12.08750658944641"><ele>444.5</ele><time>2026-05-03T07:44:45.999Z</time></trkpt><trkpt lat="43.6048137503832" lon="12.087227307278656"><ele>439.0</ele><time>2026-05-03T07:44:46.999Z</time></trkpt><trkpt lat="43.60495953656987" lon="12.08695854270239"><ele>439.0</ele><time>2026-05-03T07:44:47.999Z</time></trkpt><trkpt lat="43.60510873949623" lon="12.086692898187726"><ele>439.0</ele><time>2026-05-03T07:44:48.999Z</time></trkpt><trkpt lat="43.60525341379492" lon="12.08642490238119"><ele>438.5</ele><time>2026-05-03T07:44:49.999Z</time></trkpt><trkpt lat="43.60540735178478" lon="12.086154530620542"><ele>438.0</ele><time>2026-05-03T07:44:50.999Z</time></trkpt><trkpt lat="43.6055610403182" lon="12.085886773684633"><ele>438.0</ele><time>2026-05-03T07:44:51.999Z</time></trkpt><trkpt lat="43.605710921434294" lon="12.08562563403871"><ele>438.0</ele><time>2026-05-03T07:44:52.999Z</time></trkpt><trkpt lat="43.60584937371788" lon="12.08536581980139"><ele>438.0</ele><time>2026-05-03T07:44:53.999Z</time></trkpt><trkpt lat="43.605999883444696" lon="12.085096777459063"><ele>438.0</ele><time>2026-05-03T07:44:54.999Z</time></trkpt><trkpt lat="43.60615120964832" lon="12.084827700153884"><ele>442.5</ele><time>2026-05-03T07:44:55.999Z</time></trkpt><trkpt lat="43.60630538402433" lon="12.084564713460011"><ele>447.0</ele><time>2026-05-03T07:44:56.999Z</time></trkpt><trkpt lat="43.60645803587873" lon="12.084302791059336"><ele>448.0</ele><time>2026-05-03T07:44:57.999Z</time></trkpt><trkpt lat="43.606613118960624" lon="12.084039973264296"><ele>449.0</ele><time>2026-05-03T07:44:58.999Z</time></trkpt><trkpt lat="43.606768997851255" lon="12.083776755542853"><ele>449.0</ele><time>2026-05-03T07:44:59.999Z</time></trkpt><trkpt lat="43.60692654865687" lon="12.083508837929145"><ele>449.0</ele><time>2026-05-03T07:45:00.999Z</time></trkpt><trkpt lat="43.60708159425901" lon="12.083244912833313"><ele>447.0</ele><time>2026-05-03T07:45:01.999Z</time></trkpt><trkpt lat="43.607239526262454" lon="12.082996447292087"><ele>445.0</ele><time>2026-05-03T07:45:02.999Z</time></trkpt><trkpt lat="43.6073975690464" lon="12.082740453858557"><ele>445.0</ele><time>2026-05-03T07:45:03.999Z</time></trkpt><trkpt lat="43.60753893385263" lon="12.082455599554523"><ele>445.0</ele><time>2026-05-03T07:45:04.999Z</time></trkpt><trkpt lat="43.60769632567033" lon="12.082169237303896"><ele>445.5</ele><time>2026-05-03T07:45:05.999Z</time></trkpt><trkpt lat="43.60785275925605" lon="12.081894515297753"><ele>446.0</ele><time>2026-05-03T07:45:06.999Z</time></trkpt><trkpt lat="43.608010880369115" lon="12.081619254759948"><ele>444.5</ele><time>2026-05-03T07:45:07.999Z</time></trkpt><trkpt lat="43.608172120008895" lon="12.081346626011342"><ele>443.0</ele><time>2026-05-03T07:45:08.999Z</time></trkpt><trkpt lat="43.60834003325822" lon="12.081083443553752"><ele>443.0</ele><time>2026-05-03T07:45:10Z</time></trkpt><trkpt lat="43.60852229673567" lon="12.08083970872305"><ele>443.0</ele><time>2026-05-03T07:45:11Z</time></trkpt><trkpt lat="43.60871586230883" lon="12.08061393338183"><ele>442.0</ele><time>2026-05-03T07:45:12Z</time></trkpt><trkpt lat="43.6089143107192" lon="12.08039005841246"><ele>441.0</ele><time>2026-05-03T07:45:13Z</time></trkpt><trkpt lat="43.609119351597826" lon="12.080179406597146"><ele>441.0</ele><time>2026-05-03T07:45:14Z</time></trkpt><trkpt lat="43.60932748709724" lon="12.079975653616549"><ele>441.0</ele><time>2026-05-03T07:45:15Z</time></trkpt><trkpt lat="43.609537976260846" lon="12.079784729126052"><ele>437.5</ele><time>2026-05-03T07:45:16Z</time></trkpt><trkpt lat="43.609750338246535" lon="12.07960629473776"><ele>434.0</ele><time>2026-05-03T07:45:17Z</time></trkpt><trkpt lat="43.609962201438734" lon="12.079446490425477"><ele>434.0</ele><time>2026-05-03T07:45:18Z</time></trkpt><trkpt lat="43.610173990917986" lon="12.0793039115448"><ele>434.0</ele><time>2026-05-03T07:45:19Z</time></trkpt><trkpt lat="43.61039182713555" lon="12.079178687124578"><ele>431.0</ele><time>2026-05-03T07:45:20Z</time></trkpt><trkpt lat="43.61061187750218" lon="12.079062258451508"><ele>428.0</ele><time>2026-05-03T07:45:21Z</time></trkpt><trkpt lat="43.61083815353694" lon="12.07895393664801"><ele>428.0</ele><time>2026-05-03T07:45:22Z</time></trkpt><trkpt lat="43.61106401462759" lon="12.078861244571463"><ele>428.0</ele><time>2026-05-03T07:45:23Z</time></trkpt><trkpt lat="43.61129524047379" lon="12.078774077602192"><ele>424.5</ele><time>2026-05-03T07:45:24Z</time></trkpt><trkpt lat="43.61152918195797" lon="12.07869944090482"><ele>421.0</ele><time>2026-05-03T07:45:25Z</time></trkpt><trkpt lat="43.6117648483787" lon="12.07863859704989"><ele>417.5</ele><time>2026-05-03T07:45:26Z</time></trkpt><trkpt lat="43.61200098252238" lon="12.07859016559107"><ele>414.0</ele><time>2026-05-03T07:45:27Z</time></trkpt><trkpt lat="43.61224139488981" lon="12.07855374888886"><ele>414.0</ele><time>2026-05-03T07:45:28Z</time></trkpt><trkpt lat="43.61247965147939" lon="12.078529013698203"><ele>414.0</ele><time>2026-05-03T07:45:29Z</time></trkpt><trkpt lat="43.61272085414794" lon="12.07851694002579"><ele>415.0</ele><time>2026-05-03T07:45:30Z</time></trkpt><trkpt lat="43.61295865298467" lon="12.078519833704148"><ele>416.0</ele><time>2026-05-03T07:45:31Z</time></trkpt><trkpt lat="43.61319693454988" lon="12.078538753055232"><ele>416.0</ele><time>2026-05-03T07:45:32Z</time></trkpt><trkpt lat="43.6134340141284" lon="12.078569919385886"><ele>416.0</ele><time>2026-05-03T07:45:33Z</time></trkpt><trkpt lat="43.61367403613915" lon="12.078608034394867"><ele>417.5</ele><time>2026-05-03T07:45:34Z</time></trkpt><trkpt lat="43.61391256033061" lon="12.0786447078776"><ele>419.0</ele><time>2026-05-03T07:45:35Z</time></trkpt><trkpt lat="43.61415327804139" lon="12.078682440293772"><ele>419.0</ele><time>2026-05-03T07:45:36Z</time></trkpt><trkpt lat="43.614392562731105" lon="12.078726195615998"><ele>419.0</ele><time>2026-05-03T07:45:37Z</time></trkpt><trkpt lat="43.614632316692806" lon="12.07877260609785"><ele>418.5</ele><time>2026-05-03T07:45:38Z</time></trkpt><trkpt lat="43.61487703538923" lon="12.078817694867084"><ele>418.0</ele><time>2026-05-03T07:45:39Z</time></trkpt><trkpt lat="43.615121199872476" lon="12.078858318111855"><ele>412.0</ele><time>2026-05-03T07:45:40Z</time></trkpt><trkpt lat="43.61536845096099" lon="12.078900746935473"><ele>406.0</ele><time>2026-05-03T07:45:41Z</time></trkpt><trkpt lat="43.615614010771495" lon="12.078944249608165"><ele>406.0</ele><time>2026-05-03T07:45:42Z</time></trkpt><trkpt lat="43.61585710065005" lon="12.078989500387609"><ele>406.0</ele><time>2026-05-03T07:45:43Z</time></trkpt><trkpt lat="43.61609472314992" lon="12.079033732294041"><ele>405.0</ele><time>2026-05-03T07:45:44Z</time></trkpt><trkpt lat="43.616329106318496" lon="12.07908180908582"><ele>404.0</ele><time>2026-05-03T07:45:45Z</time></trkpt><trkpt lat="43.61656244408034" lon="12.079127802769321"><ele>409.5</ele><time>2026-05-03T07:45:46Z</time></trkpt><trkpt lat="43.61679285899683" lon="12.07917150232844"><ele>415.0</ele><time>2026-05-03T07:45:47Z</time></trkpt><trkpt lat="43.61702426343698" lon="12.079216923600237"><ele>415.0</ele><time>2026-05-03T07:45:48Z</time></trkpt><trkpt lat="43.61725358460449" lon="12.079263086577276"><ele>415.0</ele><time>2026-05-03T07:45:49Z</time></trkpt><trkpt lat="43.617482870732566" lon="12.079310601995331"><ele>415.0</ele><time>2026-05-03T07:45:50Z</time></trkpt><trkpt lat="43.617710653620485" lon="12.079356498677734"><ele>415.0</ele><time>2026-05-03T07:45:51Z</time></trkpt><trkpt lat="43.61793823568198" lon="12.079401712042458"><ele>411.5</ele><time>2026-05-03T07:45:52Z</time></trkpt><trkpt lat="43.61816562425429" lon="12.079446512885207"><ele>408.0</ele><time>2026-05-03T07:45:53Z</time></trkpt><trkpt lat="43.61839225351403" lon="12.079490115089675"><ele>408.0</ele><time>2026-05-03T07:45:54Z</time></trkpt><trkpt lat="43.61861547775584" lon="12.079533523926507"><ele>408.0</ele><time>2026-05-03T07:45:55Z</time></trkpt><trkpt lat="43.61882967080835" lon="12.079573393747802"><ele>408.0</ele><time>2026-05-03T07:45:56Z</time></trkpt><trkpt lat="43.619027604593015" lon="12.079603705870802"><ele>406.66666666666663</ele><time>2026-05-03T07:45:57Z</time></trkpt><trkpt lat="43.61921277386564" lon="12.079621163371078"><ele>405.3333333333333</ele><time>2026-05-03T07:45:57.999Z</time></trkpt><trkpt lat="43.61939004473098" lon="12.079620653024934"><ele>404.0</ele><time>2026-05-03T07:45:58.999Z</time></trkpt><trkpt lat="43.61955904617251" lon="12.079612443529076"><ele>404.0</ele><time>2026-05-03T07:45:59.999Z</time></trkpt><trkpt lat="43.61971476901972" lon="12.079662633090319"><ele>404.0</ele><time>2026-05-03T07:46:00.999Z</time></trkpt><trkpt lat="43.61986738706819" lon="12.07969062056377"><ele>404.0</ele><time>2026-05-03T07:46:01.999Z</time></trkpt><trkpt lat="43.62000766459292" lon="12.07971191364727"><ele>404.0</ele><time>2026-05-03T07:46:02.999Z</time></trkpt><trkpt lat="43.62061180048425" lon="12.07985990466972"><ele>404.0</ele><time>2026-05-03T07:46:03.999Z</time></trkpt><trkpt lat="43.62083019316364" lon="12.079862030327016"><ele>404.0</ele><time>2026-05-03T07:46:04.999Z</time></trkpt><trkpt lat="43.621047621461294" lon="12.079849867685319"><ele>404.0</ele><time>2026-05-03T07:46:05.999Z</time></trkpt><trkpt lat="43.621271059761284" lon="12.079816839324446"><ele>403.66666666666663</ele><time>2026-05-03T07:46:06.999Z</time></trkpt><trkpt lat="43.62149083140711" lon="12.07977828344593"><ele>403.33333333333337</ele><time>2026-05-03T07:46:07.999Z</time></trkpt><trkpt lat="43.62170574661842" lon="12.079727521010062"><ele>403.0</ele><time>2026-05-03T07:46:08.999Z</time></trkpt><trkpt lat="43.62191415729043" lon="12.079656070778265"><ele>403.6666666666667</ele><time>2026-05-03T07:46:09.999Z</time></trkpt><trkpt lat="43.62212308990216" lon="12.079582822824891"><ele>404.33333333333337</ele><time>2026-05-03T07:46:10.999Z</time></trkpt><trkpt lat="43.62232506456878" lon="12.079494492727209"><ele>405.0</ele><time>2026-05-03T07:46:11.999Z</time></trkpt><trkpt lat="43.62253399431349" lon="12.079405569278208"><ele>405.0</ele><time>2026-05-03T07:46:12.999Z</time></trkpt><trkpt lat="43.62273262559813" lon="12.07929305055389"><ele>405.0</ele><time>2026-05-03T07:46:13.999Z</time></trkpt><trkpt lat="43.62292784092927" lon="12.079168317666948"><ele>405.0</ele><time>2026-05-03T07:46:14.999Z</time></trkpt><trkpt lat="43.62312262274409" lon="12.079037155344084"><ele>403.66666666666663</ele><time>2026-05-03T07:46:15.999Z</time></trkpt><trkpt lat="43.62331930089804" lon="12.078895839840488"><ele>402.3333333333333</ele><time>2026-05-03T07:46:16.999Z</time></trkpt><trkpt lat="43.62351666627626" lon="12.078752996546546"><ele>401.0</ele><time>2026-05-03T07:46:17.999Z</time></trkpt><trkpt lat="43.62371414480078" lon="12.078611256914524"><ele>399.0</ele><time>2026-05-03T07:46:18.999Z</time></trkpt><trkpt lat="43.623903540741395" lon="12.078473524523561"><ele>397.0</ele><time>2026-05-03T07:46:19.999Z</time></trkpt><trkpt lat="43.62409077148283" lon="12.078332912394227"><ele>395.0</ele><time>2026-05-03T07:46:20.999Z</time></trkpt><trkpt lat="43.62428103473066" lon="12.078188085265515"><ele>395.0</ele><time>2026-05-03T07:46:21.999Z</time></trkpt><trkpt lat="43.62447225297755" lon="12.078049208368244"><ele>395.0</ele><time>2026-05-03T07:46:22.999Z</time></trkpt><trkpt lat="43.62465964133649" lon="12.077915978043347"><ele>395.0</ele><time>2026-05-03T07:46:23.999Z</time></trkpt><trkpt lat="43.62485128505734" lon="12.077777780057232"><ele>397.0</ele><time>2026-05-03T07:46:24.999Z</time></trkpt><trkpt lat="43.625040011229856" lon="12.077636556943947"><ele>399.0</ele><time>2026-05-03T07:46:25.999Z</time></trkpt><trkpt lat="43.625231985704104" lon="12.077498226691782"><ele>401.0</ele><time>2026-05-03T07:46:26.999Z</time></trkpt><trkpt lat="43.6254220221339" lon="12.077360709430105"><ele>397.0</ele><time>2026-05-03T07:46:27.999Z</time></trkpt><trkpt lat="43.62561229647822" lon="12.077221919163433"><ele>393.0</ele><time>2026-05-03T07:46:28.999Z</time></trkpt><trkpt lat="43.62580387131064" lon="12.077084254001416"><ele>389.0</ele><time>2026-05-03T07:46:29.999Z</time></trkpt><trkpt lat="43.62599518389484" lon="12.07694224609477"><ele>389.3333333333333</ele><time>2026-05-03T07:46:30.999Z</time></trkpt><trkpt lat="43.62619134590938" lon="12.076797380058863"><ele>389.66666666666663</ele><time>2026-05-03T07:46:31.999Z</time></trkpt><trkpt lat="43.626384567939" lon="12.076656666072958"><ele>390.0</ele><time>2026-05-03T07:46:32.999Z</time></trkpt><trkpt lat="43.62658502626154" lon="12.07651195327896"><ele>390.0</ele><time>2026-05-03T07:46:33.999Z</time></trkpt><trkpt lat="43.626783188830956" lon="12.076366558054165"><ele>390.0</ele><time>2026-05-03T07:46:34.999Z</time></trkpt><trkpt lat="43.62698686377179" lon="12.076222358147431"><ele>393.5</ele><time>2026-05-03T07:46:35.999Z</time></trkpt><trkpt lat="43.627188660857826" lon="12.076074074806195"><ele>397.0</ele><time>2026-05-03T07:46:36.999Z</time></trkpt><trkpt lat="43.62739025939611" lon="12.075923398950774"><ele>397.0</ele><time>2026-05-03T07:46:37.999Z</time></trkpt><trkpt lat="43.62759365451037" lon="12.075772737065854"><ele>397.0</ele><time>2026-05-03T07:46:38.999Z</time></trkpt><trkpt lat="43.62780043734955" lon="12.075623313229034"><ele>398.5</ele><time>2026-05-03T07:46:39.999Z</time></trkpt><trkpt lat="43.62800646846356" lon="12.07547438524359"><ele>400.0</ele><time>2026-05-03T07:46:40.999Z</time></trkpt><trkpt lat="43.628212124057534" lon="12.075321123590701"><ele>400.0</ele><time>2026-05-03T07:46:41.999Z</time></trkpt><trkpt lat="43.628414142705026" lon="12.075159777708967"><ele>400.0</ele><time>2026-05-03T07:46:42.999Z</time></trkpt><trkpt lat="43.62861334680334" lon="12.074985969329864"><ele>400.5</ele><time>2026-05-03T07:46:43.999Z</time></trkpt><trkpt lat="43.62880799299458" lon="12.074803338247454"><ele>401.0</ele><time>2026-05-03T07:46:44.999Z</time></trkpt><trkpt lat="43.628995981950936" lon="12.074607127253921"><ele>401.0</ele><time>2026-05-03T07:46:45.999Z</time></trkpt><trkpt lat="43.629175038826396" lon="12.074393897221135"><ele>401.0</ele><time>2026-05-03T07:46:46.999Z</time></trkpt><trkpt lat="43.62934553716701" lon="12.07416999150343"><ele>402.5</ele><time>2026-05-03T07:46:47.999Z</time></trkpt><trkpt lat="43.6295097886622" lon="12.073939282925743"><ele>404.0</ele><time>2026-05-03T07:46:48.999Z</time></trkpt><trkpt lat="43.6296714788646" lon="12.07370586879391"><ele>404.0</ele><time>2026-05-03T07:46:49.999Z</time></trkpt><trkpt lat="43.629829425673975" lon="12.073472416099964"><ele>404.0</ele><time>2026-05-03T07:46:50.999Z</time></trkpt><trkpt lat="43.62998618333158" lon="12.073240866318933"><ele>400.0</ele><time>2026-05-03T07:46:51.999Z</time></trkpt><trkpt lat="43.6301415255189" lon="12.07300649488971"><ele>396.0</ele><time>2026-05-03T07:46:52.999Z</time></trkpt><trkpt lat="43.630296002576" lon="12.072771244116485"><ele>397.5</ele><time>2026-05-03T07:46:53.999Z</time></trkpt><trkpt lat="43.63045202245584" lon="12.072537725757174"><ele>399.0</ele><time>2026-05-03T07:46:54.999Z</time></trkpt><trkpt lat="43.63060895703026" lon="12.07230310449511"><ele>399.0</ele><time>2026-05-03T07:46:55.999Z</time></trkpt><trkpt lat="43.63076615807282" lon="12.07206797261665"><ele>399.0</ele><time>2026-05-03T07:46:56.999Z</time></trkpt><trkpt lat="43.63092459234391" lon="12.0718325262451"><ele>400.0</ele><time>2026-05-03T07:46:57.999Z</time></trkpt><trkpt lat="43.63108313610429" lon="12.071596759934135"><ele>401.0</ele><time>2026-05-03T07:46:58.999Z</time></trkpt><trkpt lat="43.631241551172025" lon="12.071360645445331"><ele>401.0</ele><time>2026-05-03T07:46:59.999Z</time></trkpt><trkpt lat="43.63140147575101" lon="12.071124211600017"><ele>401.0</ele><time>2026-05-03T07:47:00.999Z</time></trkpt><trkpt lat="43.63156512244217" lon="12.070894951990045"><ele>395.5</ele><time>2026-05-03T07:47:01.999Z</time></trkpt><trkpt lat="43.63173279084416" lon="12.070669568551098"><ele>390.0</ele><time>2026-05-03T07:47:02.999Z</time></trkpt><trkpt lat="43.631904190072284" lon="12.070446934113928"><ele>396.0</ele><time>2026-05-03T07:47:03.999Z</time></trkpt><trkpt lat="43.632077862440816" lon="12.07022905415895"><ele>402.0</ele><time>2026-05-03T07:47:04.999Z</time></trkpt><trkpt lat="43.63225524543236" lon="12.07001659816508"><ele>395.5</ele><time>2026-05-03T07:47:05.999Z</time></trkpt><trkpt lat="43.63243724175063" lon="12.06981219769337"><ele>389.0</ele><time>2026-05-03T07:47:06.999Z</time></trkpt><trkpt lat="43.63262341918507" lon="12.069607633322523"><ele>393.5</ele><time>2026-05-03T07:47:07.999Z</time></trkpt><trkpt lat="43.63281404198159" lon="12.06940989340274"><ele>398.0</ele><time>2026-05-03T07:47:08.999Z</time></trkpt><trkpt lat="43.63300899438537" lon="12.069215729311994"><ele>392.5</ele><time>2026-05-03T07:47:09.999Z</time></trkpt><trkpt lat="43.63321104649247" lon="12.069029810438874"><ele>387.0</ele><time>2026-05-03T07:47:10.999Z</time></trkpt><trkpt lat="43.63341895760664" lon="12.06884826265134"><ele>387.0</ele><time>2026-05-03T07:47:11.999Z</time></trkpt><trkpt lat="43.6336289881086" lon="12.068675352540309"><ele>387.0</ele><time>2026-05-03T07:47:12.999Z</time></trkpt><trkpt lat="43.6338452139264" lon="12.06850621979912"><ele>386.5</ele><time>2026-05-03T07:47:13.999Z</time></trkpt><trkpt lat="43.634064101268294" lon="12.068350804394338"><ele>386.0</ele><time>2026-05-03T07:47:14.999Z</time></trkpt><trkpt lat="43.63428879218162" lon="12.068198326542683"><ele>389.5</ele><time>2026-05-03T07:47:16Z</time></trkpt><trkpt lat="43.63451697808124" lon="12.068056014519684"><ele>393.0</ele><time>2026-05-03T07:47:17Z</time></trkpt><trkpt lat="43.63474995394149" lon="12.067919299210734"><ele>393.0</ele><time>2026-05-03T07:47:18Z</time></trkpt><trkpt lat="43.63498341187953" lon="12.067794016953997"><ele>393.0</ele><time>2026-05-03T07:47:19Z</time></trkpt><trkpt lat="43.63522427357499" lon="12.067673581711306"><ele>396.5</ele><time>2026-05-03T07:47:20Z</time></trkpt><trkpt lat="43.63546810879123" lon="12.067565377675402"><ele>400.0</ele><time>2026-05-03T07:47:21Z</time></trkpt><trkpt lat="43.6357109179431" lon="12.067467194778818"><ele>397.0</ele><time>2026-05-03T07:47:22Z</time></trkpt><trkpt lat="43.63596140176313" lon="12.067371602128024"><ele>394.0</ele><time>2026-05-03T07:47:23Z</time></trkpt><trkpt lat="43.636211788801766" lon="12.067274582362568"><ele>394.0</ele><time>2026-05-03T07:47:24Z</time></trkpt><trkpt lat="43.63645942680304" lon="12.067176189303392"><ele>394.0</ele><time>2026-05-03T07:47:25Z</time></trkpt><trkpt lat="43.63670894623292" lon="12.06707890092637"><ele>394.0</ele><time>2026-05-03T07:47:26Z</time></trkpt><trkpt lat="43.636958157195494" lon="12.066981090294936"><ele>394.0</ele><time>2026-05-03T07:47:27Z</time></trkpt><trkpt lat="43.63720875014341" lon="12.066883598039677"><ele>396.0</ele><time>2026-05-03T07:47:28Z</time></trkpt><trkpt lat="43.63745768314745" lon="12.066787204714142"><ele>398.0</ele><time>2026-05-03T07:47:29Z</time></trkpt><trkpt lat="43.63770753914898" lon="12.066693296421983"><ele>397.0</ele><time>2026-05-03T07:47:30Z</time></trkpt><trkpt lat="43.637956414784526" lon="12.066598598241939"><ele>396.0</ele><time>2026-05-03T07:47:31Z</time></trkpt><trkpt lat="43.63820405208646" lon="12.066507283001727"><ele>396.0</ele><time>2026-05-03T07:47:32Z</time></trkpt><trkpt lat="43.638450770703535" lon="12.066418138639552"><ele>396.0</ele><time>2026-05-03T07:47:33Z</time></trkpt><trkpt lat="43.63869572462351" lon="12.066329857152244"><ele>397.0</ele><time>2026-05-03T07:47:34Z</time></trkpt><trkpt lat="43.63893913289224" lon="12.066243091372664"><ele>398.0</ele><time>2026-05-03T07:47:35Z</time></trkpt><trkpt lat="43.639181152126525" lon="12.066153019918387"><ele>398.0</ele><time>2026-05-03T07:47:36Z</time></trkpt><trkpt lat="43.63941906848962" lon="12.066055093764287"><ele>398.0</ele><time>2026-05-03T07:47:37Z</time></trkpt><trkpt lat="43.639651142331495" lon="12.065945799373074"><ele>398.0</ele><time>2026-05-03T07:47:38Z</time></trkpt><trkpt lat="43.639881792894165" lon="12.065827352464163"><ele>398.0</ele><time>2026-05-03T07:47:39Z</time></trkpt><trkpt lat="43.64011040870956" lon="12.06570430695516"><ele>399.0</ele><time>2026-05-03T07:47:40Z</time></trkpt><trkpt lat="43.640336023845265" lon="12.065574697609938"><ele>400.0</ele><time>2026-05-03T07:47:41Z</time></trkpt><trkpt lat="43.64055582018508" lon="12.065434790793917"><ele>400.0</ele><time>2026-05-03T07:47:42Z</time></trkpt><trkpt lat="43.64077194753795" lon="12.065285622932107"><ele>400.0</ele><time>2026-05-03T07:47:43Z</time></trkpt><trkpt lat="43.64098381134979" lon="12.0651303003471"><ele>402.5</ele><time>2026-05-03T07:47:44Z</time></trkpt><trkpt lat="43.64119246408403" lon="12.064964239246226"><ele>405.0</ele><time>2026-05-03T07:47:45Z</time></trkpt><trkpt lat="43.64140097381318" lon="12.064788244405904"><ele>406.5</ele><time>2026-05-03T07:47:46Z</time></trkpt><trkpt lat="43.64160172650903" lon="12.06460549581154"><ele>408.0</ele><time>2026-05-03T07:47:47Z</time></trkpt><trkpt lat="43.64180168068403" lon="12.064414120588085"><ele>406.0</ele><time>2026-05-03T07:47:48Z</time></trkpt><trkpt lat="43.6419958882756" lon="12.064214429140023"><ele>404.0</ele><time>2026-05-03T07:47:49Z</time></trkpt><trkpt lat="43.64218724005911" lon="12.064004050782328"><ele>404.0</ele><time>2026-05-03T07:47:50Z</time></trkpt><trkpt lat="43.642372144508386" lon="12.06378641616546"><ele>404.0</ele><time>2026-05-03T07:47:51Z</time></trkpt><trkpt lat="43.64255479126321" lon="12.063558856135128"><ele>404.0</ele><time>2026-05-03T07:47:52Z</time></trkpt><trkpt lat="43.6427302573048" lon="12.06332381530174"><ele>404.0</ele><time>2026-05-03T07:47:53Z</time></trkpt><trkpt lat="43.64290372706158" lon="12.063079157990707"><ele>401.0</ele><time>2026-05-03T07:47:54Z</time></trkpt><trkpt lat="43.64306814535743" lon="12.062832788823634"><ele>398.0</ele><time>2026-05-03T07:47:55Z</time></trkpt><trkpt lat="43.643231666423944" lon="12.06257453724952"><ele>397.5</ele><time>2026-05-03T07:47:56Z</time></trkpt><trkpt lat="43.643387068123864" lon="12.062313629162647"><ele>397.0</ele><time>2026-05-03T07:47:56.999Z</time></trkpt><trkpt lat="43.64353812727335" lon="12.062043859350048"><ele>397.5</ele><time>2026-05-03T07:47:57.999Z</time></trkpt><trkpt lat="43.64367954577588" lon="12.061769183935045"><ele>398.0</ele><time>2026-05-03T07:47:58.999Z</time></trkpt><trkpt lat="43.64381670888215" lon="12.061488011666318"><ele>398.0</ele><time>2026-05-03T07:47:59.999Z</time></trkpt><trkpt lat="43.6439476903979" lon="12.06120259377635"><ele>398.0</ele><time>2026-05-03T07:48:00.999Z</time></trkpt><trkpt lat="43.64407274335014" lon="12.060908688283758"><ele>398.5</ele><time>2026-05-03T07:48:01.999Z</time></trkpt><trkpt lat="43.64418993084818" lon="12.060613175520624"><ele>399.0</ele><time>2026-05-03T07:48:02.999Z</time></trkpt><trkpt lat="43.64430509117364" lon="12.060312102296935"><ele>399.0</ele><time>2026-05-03T07:48:03.999Z</time></trkpt><trkpt lat="43.64441932843853" lon="12.060013042256356"><ele>399.0</ele><time>2026-05-03T07:48:04.999Z</time></trkpt><trkpt lat="43.64453566325653" lon="12.059709168394846"><ele>400.0</ele><time>2026-05-03T07:48:05.999Z</time></trkpt><trkpt lat="43.64464930384495" lon="12.059403220691364"><ele>401.0</ele><time>2026-05-03T07:48:06.999Z</time></trkpt><trkpt lat="43.64476111582735" lon="12.05909643436972"><ele>401.0</ele><time>2026-05-03T07:48:07.999Z</time></trkpt><trkpt lat="43.64486971168274" lon="12.058789570713396"><ele>401.0</ele><time>2026-05-03T07:48:08.999Z</time></trkpt><trkpt lat="43.6449785029849" lon="12.058482241282304"><ele>400.5</ele><time>2026-05-03T07:48:09.999Z</time></trkpt><trkpt lat="43.64508632060493" lon="12.058175808283874"><ele>400.0</ele><time>2026-05-03T07:48:10.999Z</time></trkpt><trkpt lat="43.645196141842696" lon="12.057869640420849"><ele>403.0</ele><time>2026-05-03T07:48:11.999Z</time></trkpt><trkpt lat="43.64530955562876" lon="12.05756787551213"><ele>406.0</ele><time>2026-05-03T07:48:12.999Z</time></trkpt><trkpt lat="43.645425941870904" lon="12.057270950621241"><ele>406.0</ele><time>2026-05-03T07:48:13.999Z</time></trkpt><trkpt lat="43.64555293669296" lon="12.056979075442122"><ele>406.0</ele><time>2026-05-03T07:48:14.999Z</time></trkpt><trkpt lat="43.64568864843363" lon="12.056692469974553"><ele>406.5</ele><time>2026-05-03T07:48:15.999Z</time></trkpt><trkpt lat="43.6458419419545" lon="12.056423032853374"><ele>407.0</ele><time>2026-05-03T07:48:16.999Z</time></trkpt><trkpt lat="43.646002608950894" lon="12.056165799595377"><ele>407.5</ele><time>2026-05-03T07:48:17.999Z</time></trkpt><trkpt lat="43.64617523912425" lon="12.055918029959145"><ele>408.0</ele><time>2026-05-03T07:48:18.999Z</time></trkpt><trkpt lat="43.64635548319183" lon="12.055683265533183"><ele>408.0</ele><time>2026-05-03T07:48:19.999Z</time></trkpt><trkpt lat="43.6465503257409" lon="12.055466396949374"><ele>408.0</ele><time>2026-05-03T07:48:20.999Z</time></trkpt><trkpt lat="43.64675514441825" lon="12.055261874965927"><ele>406.5</ele><time>2026-05-03T07:48:21.999Z</time></trkpt><trkpt lat="43.646970541531786" lon="12.055073529618541"><ele>405.0</ele><time>2026-05-03T07:48:22.999Z</time></trkpt><trkpt lat="43.64719287416094" lon="12.054896158241116"><ele>405.0</ele><time>2026-05-03T07:48:23.999Z</time></trkpt><trkpt lat="43.64742281151164" lon="12.054738534610216"><ele>405.0</ele><time>2026-05-03T07:48:24.999Z</time></trkpt><trkpt lat="43.647660562704075" lon="12.054600244115338"><ele>406.0</ele><time>2026-05-03T07:48:25.999Z</time></trkpt><trkpt lat="43.647903500446176" lon="12.054477853614689"><ele>407.0</ele><time>2026-05-03T07:48:26.999Z</time></trkpt><trkpt lat="43.64815117674207" lon="12.054372704990278"><ele>407.0</ele><time>2026-05-03T07:48:27.999Z</time></trkpt><trkpt lat="43.648401535844705" lon="12.054286986354326"><ele>407.0</ele><time>2026-05-03T07:48:28.999Z</time></trkpt><trkpt lat="43.648657164486046" lon="12.054224657961038"><ele>408.0</ele><time>2026-05-03T07:48:29.999Z</time></trkpt><trkpt lat="43.64891672274696" lon="12.054184619022603"><ele>409.0</ele><time>2026-05-03T07:48:30.999Z</time></trkpt><trkpt lat="43.6491746213909" lon="12.054165011111523"><ele>409.0</ele><time>2026-05-03T07:48:31.999Z</time></trkpt><trkpt lat="43.64943441114985" lon="12.05414996838762"><ele>409.0</ele><time>2026-05-03T07:48:32.999Z</time></trkpt><trkpt lat="43.649694476036345" lon="12.054133924520716"><ele>407.5</ele><time>2026-05-03T07:48:33.999Z</time></trkpt><trkpt lat="43.649955016049915" lon="12.05411488630315"><ele>406.0</ele><time>2026-05-03T07:48:34.999Z</time></trkpt><trkpt lat="43.65021343571918" lon="12.054100093108126"><ele>406.5</ele><time>2026-05-03T07:48:35.999Z</time></trkpt><trkpt lat="43.650470685146885" lon="12.054084064181867"><ele>407.0</ele><time>2026-05-03T07:48:36.999Z</time></trkpt><trkpt lat="43.65072328078341" lon="12.05406751242114"><ele>407.0</ele><time>2026-05-03T07:48:37.999Z</time></trkpt><trkpt lat="43.65097651182718" lon="12.054044750432974"><ele>407.0</ele><time>2026-05-03T07:48:38.999Z</time></trkpt><trkpt lat="43.65123059722177" lon="12.05401470436337"><ele>408.0</ele><time>2026-05-03T07:48:39.999Z</time></trkpt><trkpt lat="43.6514830951068" lon="12.053978397827436"><ele>409.0</ele><time>2026-05-03T07:48:40.999Z</time></trkpt><trkpt lat="43.65173612342773" lon="12.05393728721326"><ele>409.5</ele><time>2026-05-03T07:48:41.999Z</time></trkpt><trkpt lat="43.6519899992689" lon="12.053893035944201"><ele>410.0</ele><time>2026-05-03T07:48:42.999Z</time></trkpt><trkpt lat="43.652241594760724" lon="12.053845096473674"><ele>410.0</ele><time>2026-05-03T07:48:43.999Z</time></trkpt><trkpt lat="43.652492834932744" lon="12.05378880401597"><ele>410.0</ele><time>2026-05-03T07:48:44.999Z</time></trkpt><trkpt lat="43.65274185076896" lon="12.053716424817258"><ele>410.0</ele><time>2026-05-03T07:48:45.999Z</time></trkpt><trkpt lat="43.65298806559762" lon="12.053635162888618"><ele>410.0</ele><time>2026-05-03T07:48:46.999Z</time></trkpt><trkpt lat="43.653235182124256" lon="12.053558931649851"><ele>410.0</ele><time>2026-05-03T07:48:47.999Z</time></trkpt><trkpt lat="43.653486333197364" lon="12.053489140978142"><ele>410.0</ele><time>2026-05-03T07:48:48.999Z</time></trkpt><trkpt lat="43.653735199990706" lon="12.053422943941156"><ele>411.0</ele><time>2026-05-03T07:48:49.999Z</time></trkpt><trkpt lat="43.65398622675656" lon="12.053355667296627"><ele>412.0</ele><time>2026-05-03T07:48:50.999Z</time></trkpt><trkpt lat="43.65423674643474" lon="12.05328772665459"><ele>412.0</ele><time>2026-05-03T07:48:51.999Z</time></trkpt><trkpt lat="43.654487039888984" lon="12.053220953680178"><ele>412.0</ele><time>2026-05-03T07:48:52.999Z</time></trkpt><trkpt lat="43.654737786258146" lon="12.053152736057232"><ele>412.0</ele><time>2026-05-03T07:48:53.999Z</time></trkpt><trkpt lat="43.654988170242326" lon="12.053086413461997"><ele>412.0</ele><time>2026-05-03T07:48:54.999Z</time></trkpt><trkpt lat="43.65523782151243" lon="12.053020894299657"><ele>412.5</ele><time>2026-05-03T07:48:55.999Z</time></trkpt><trkpt lat="43.655486170491805" lon="12.05295211613227"><ele>413.0</ele><time>2026-05-03T07:48:56.999Z</time></trkpt><trkpt lat="43.65573415958668" lon="12.052881718567486"><ele>413.0</ele><time>2026-05-03T07:48:57.999Z</time></trkpt><trkpt lat="43.655982884683944" lon="12.052814993212138"><ele>413.0</ele><time>2026-05-03T07:48:58.999Z</time></trkpt><trkpt lat="43.65623230180993" lon="12.052751937946358"><ele>413.0</ele><time>2026-05-03T07:48:59.999Z</time></trkpt><trkpt lat="43.65648177015672" lon="12.052686944039497"><ele>413.0</ele><time>2026-05-03T07:49:00.999Z</time></trkpt><trkpt lat="43.656731930736605" lon="12.05261999164914"><ele>416.0</ele><time>2026-05-03T07:49:01.999Z</time></trkpt><trkpt lat="43.656980938031204" lon="12.052552570953804"><ele>419.0</ele><time>2026-05-03T07:49:02.999Z</time></trkpt><trkpt lat="43.65722892990501" lon="12.052487867392976"><ele>423.5</ele><time>2026-05-03T07:49:03.999Z</time></trkpt><trkpt lat="43.657476939993074" lon="12.052423504990957"><ele>428.0</ele><time>2026-05-03T07:49:04.999Z</time></trkpt><trkpt lat="43.65772426030361" lon="12.05235860805184"><ele>428.5</ele><time>2026-05-03T07:49:05.999Z</time></trkpt><trkpt lat="43.65797127105603" lon="12.052291470046253"><ele>429.0</ele><time>2026-05-03T07:49:06.999Z</time></trkpt><trkpt lat="43.658215074743325" lon="12.052223362437879"><ele>429.0</ele><time>2026-05-03T07:49:07.999Z</time></trkpt><trkpt lat="43.6584569292418" lon="12.052155945745056"><ele>429.0</ele><time>2026-05-03T07:49:08.999Z</time></trkpt><trkpt lat="43.65868927352843" lon="12.052088922468894"><ele>428.33333333333337</ele><time>2026-05-03T07:49:09.999Z</time></trkpt><trkpt lat="43.65890719447289" lon="12.052018586459477"><ele>427.6666666666667</ele><time>2026-05-03T07:49:10.999Z</time></trkpt><trkpt lat="43.65911318915695" lon="12.051940648097064"><ele>427.0</ele><time>2026-05-03T07:49:11.999Z</time></trkpt><trkpt lat="43.65931683003135" lon="12.0518582094536"><ele>425.6666666666667</ele><time>2026-05-03T07:49:12.999Z</time></trkpt><trkpt lat="43.65947936077816" lon="12.051793825919376"><ele>424.33333333333337</ele><time>2026-05-03T07:49:13.999Z</time></trkpt><trkpt lat="43.65963529788252" lon="12.051695048333768"><ele>423.0</ele><time>2026-05-03T07:49:14.999Z</time></trkpt><trkpt lat="43.659772356625055" lon="12.051579439780049"><ele>429.33333333333337</ele><time>2026-05-03T07:49:15.999Z</time></trkpt><trkpt lat="43.65991112333801" lon="12.051452393211267"><ele>435.6666666666667</ele><time>2026-05-03T07:49:16.999Z</time></trkpt><trkpt lat="43.66005344995888" lon="12.051317511625731"><ele>442.0</ele><time>2026-05-03T07:49:17.999Z</time></trkpt><trkpt lat="43.66019761577584" lon="12.05119359797757"><ele>442.6666666666667</ele><time>2026-05-03T07:49:18.999Z</time></trkpt><trkpt lat="43.660344209982505" lon="12.051068575236936"><ele>443.33333333333337</ele><time>2026-05-03T07:49:19.999Z</time></trkpt><trkpt lat="43.66048789565493" lon="12.050926271448983"><ele>444.0</ele><time>2026-05-03T07:49:20.998Z</time></trkpt><trkpt lat="43.66062620577719" lon="12.050778461684569"><ele>444.0</ele><time>2026-05-03T07:49:22Z</time></trkpt><trkpt lat="43.66075978917369" lon="12.050623949025452"><ele>444.0</ele><time>2026-05-03T07:49:23Z</time></trkpt><trkpt lat="43.660890809306764" lon="12.050459983426393"><ele>444.0</ele><time>2026-05-03T07:49:24Z</time></trkpt><trkpt lat="43.66102133687517" lon="12.050292127539638"><ele>440.33333333333337</ele><time>2026-05-03T07:49:25Z</time></trkpt><trkpt lat="43.66114462870844" lon="12.05010928958396"><ele>436.6666666666667</ele><time>2026-05-03T07:49:26Z</time></trkpt><trkpt lat="43.66126367163057" lon="12.049917990277939"><ele>433.0</ele><time>2026-05-03T07:49:27Z</time></trkpt><trkpt lat="43.66138396894905" lon="12.049720846314772"><ele>433.0</ele><time>2026-05-03T07:49:28Z</time></trkpt><trkpt lat="43.66149830567491" lon="12.049507333396308"><ele>433.0</ele><time>2026-05-03T07:49:29Z</time></trkpt><trkpt lat="43.661610768602294" lon="12.049283573565114"><ele>433.0</ele><time>2026-05-03T07:49:30Z</time></trkpt><trkpt lat="43.661725276198936" lon="12.049062395864953"><ele>432.6666666666667</ele><time>2026-05-03T07:49:31Z</time></trkpt><trkpt lat="43.661841942503756" lon="12.048834950071912"><ele>432.33333333333337</ele><time>2026-05-03T07:49:32Z</time></trkpt><trkpt lat="43.661960786581766" lon="12.04860905853031"><ele>432.0</ele><time>2026-05-03T07:49:33Z</time></trkpt><trkpt lat="43.66207595844628" lon="12.048384562987811"><ele>434.33333333333337</ele><time>2026-05-03T07:49:34Z</time></trkpt><trkpt lat="43.66218792168068" lon="12.048153298453931"><ele>436.6666666666667</ele><time>2026-05-03T07:49:35Z</time></trkpt><trkpt lat="43.6623057296092" lon="12.047928343322768"><ele>439.0</ele><time>2026-05-03T07:49:36Z</time></trkpt><trkpt lat="43.66242099557962" lon="12.047700020834405"><ele>439.0</ele><time>2026-05-03T07:49:37Z</time></trkpt><trkpt lat="43.662535022720725" lon="12.047469578659902"><ele>439.0</ele><time>2026-05-03T07:49:38Z</time></trkpt><trkpt lat="43.66264508342701" lon="12.047238244626097"><ele>439.0</ele><time>2026-05-03T07:49:39Z</time></trkpt><trkpt lat="43.662760921389335" lon="12.04701060341502"><ele>439.0</ele><time>2026-05-03T07:49:40Z</time></trkpt><trkpt lat="43.66287304907144" lon="12.046788631319549"><ele>439.0</ele><time>2026-05-03T07:49:41Z</time></trkpt><trkpt lat="43.66298426343834" lon="12.046560745655169"><ele>439.0</ele><time>2026-05-03T07:49:42Z</time></trkpt><trkpt lat="43.66310329613819" lon="12.04632651907532"><ele>439.0</ele><time>2026-05-03T07:49:43Z</time></trkpt><trkpt lat="43.6632249742105" lon="12.046097853287137"><ele>439.0</ele><time>2026-05-03T07:49:44Z</time></trkpt><trkpt lat="43.6633391727656" lon="12.04586981831398"><ele>439.0</ele><time>2026-05-03T07:49:45Z</time></trkpt><trkpt lat="43.663454098055816" lon="12.045644252922015"><ele>438.0</ele><time>2026-05-03T07:49:46Z</time></trkpt><trkpt lat="43.66356938917586" lon="12.045416400731552"><ele>437.0</ele><time>2026-05-03T07:49:47Z</time></trkpt><trkpt lat="43.663685049932354" lon="12.045185210862778"><ele>436.0</ele><time>2026-05-03T07:49:48Z</time></trkpt><trkpt lat="43.66380033725758" lon="12.044959398676585"><ele>436.0</ele><time>2026-05-03T07:49:49Z</time></trkpt><trkpt lat="43.66391612293731" lon="12.044727746529649"><ele>436.0</ele><time>2026-05-03T07:49:50Z</time></trkpt><trkpt lat="43.66403368736484" lon="12.044494752071214"><ele>436.0</ele><time>2026-05-03T07:49:51Z</time></trkpt><trkpt lat="43.66415132455114" lon="12.04426082806215"><ele>436.33333333333337</ele><time>2026-05-03T07:49:52Z</time></trkpt><trkpt lat="43.66427272105321" lon="12.044028977673566"><ele>436.66666666666663</ele><time>2026-05-03T07:49:53Z</time></trkpt><trkpt lat="43.66439379061454" lon="12.043793812812368"><ele>437.0</ele><time>2026-05-03T07:49:54Z</time></trkpt><trkpt lat="43.664515002820806" lon="12.043555289815183"><ele>437.0</ele><time>2026-05-03T07:49:54.999Z</time></trkpt><trkpt lat="43.66464067499637" lon="12.04332119352847"><ele>437.0</ele><time>2026-05-03T07:49:55.999Z</time></trkpt><trkpt lat="43.66477186797633" lon="12.043094310202148"><ele>437.0</ele><time>2026-05-03T07:49:56.999Z</time></trkpt><trkpt lat="43.664908400839025" lon="12.04286724917825"><ele>439.66666666666663</ele><time>2026-05-03T07:49:57.999Z</time></trkpt><trkpt lat="43.66504835728411" lon="12.04264102389296"><ele>442.33333333333337</ele><time>2026-05-03T07:49:58.999Z</time></trkpt><trkpt lat="43.66519483435117" lon="12.042419718993486"><ele>445.0</ele><time>2026-05-03T07:49:59.999Z</time></trkpt><trkpt lat="43.665341316420985" lon="12.04220183747836"><ele>445.0</ele><time>2026-05-03T07:50:00.999Z</time></trkpt><trkpt lat="43.66549582591791" lon="12.041991862406057"><ele>445.0</ele><time>2026-05-03T07:50:01.999Z</time></trkpt><trkpt lat="43.66565496379039" lon="12.041785668117813"><ele>445.0</ele><time>2026-05-03T07:50:02.999Z</time></trkpt><trkpt lat="43.665818595754004" lon="12.041586008622632"><ele>445.6666666666667</ele><time>2026-05-03T07:50:03.999Z</time></trkpt><trkpt lat="43.66598397052756" lon="12.04138836235284"><ele>446.33333333333337</ele><time>2026-05-03T07:50:04.999Z</time></trkpt><trkpt lat="43.66615389220955" lon="12.041193601515555"><ele>447.0</ele><time>2026-05-03T07:50:05.999Z</time></trkpt><trkpt lat="43.666325223866856" lon="12.041006363820578"><ele>447.0</ele><time>2026-05-03T07:50:06.999Z</time></trkpt><trkpt lat="43.66650203389303" lon="12.04082009752811"><ele>447.0</ele><time>2026-05-03T07:50:07.999Z</time></trkpt><trkpt lat="43.666681815832305" lon="12.040642670258295"><ele>447.0</ele><time>2026-05-03T07:50:08.999Z</time></trkpt><trkpt lat="43.666863704408854" lon="12.040468266241476"><ele>446.66666666666663</ele><time>2026-05-03T07:50:09.999Z</time></trkpt><trkpt lat="43.6670455385338" lon="12.040291365890038"><ele>446.3333333333333</ele><time>2026-05-03T07:50:10.999Z</time></trkpt><trkpt lat="43.66722513963718" lon="12.040112062965658"><ele>446.0</ele><time>2026-05-03T07:50:11.999Z</time></trkpt><trkpt lat="43.667407943188536" lon="12.039927369348357"><ele>448.3333333333333</ele><time>2026-05-03T07:50:12.999Z</time></trkpt><trkpt lat="43.667587979358736" lon="12.039750973822244"><ele>450.66666666666663</ele><time>2026-05-03T07:50:13.999Z</time></trkpt><trkpt lat="43.66777545700259" lon="12.039573999658888"><ele>453.0</ele><time>2026-05-03T07:50:14.999Z</time></trkpt><trkpt lat="43.66795890821352" lon="12.039402009914225"><ele>453.0</ele><time>2026-05-03T07:50:15.999Z</time></trkpt><trkpt lat="43.66814357608973" lon="12.039216931153579"><ele>453.0</ele><time>2026-05-03T07:50:16.999Z</time></trkpt><trkpt lat="43.66833012722871" lon="12.039027604495454"><ele>452.0</ele><time>2026-05-03T07:50:17.999Z</time></trkpt><trkpt lat="43.66851684529816" lon="12.038841199286466"><ele>451.0</ele><time>2026-05-03T07:50:18.999Z</time></trkpt><trkpt lat="43.6687056468762" lon="12.038656631200244"><ele>451.0</ele><time>2026-05-03T07:50:19.999Z</time></trkpt><trkpt lat="43.6688962079785" lon="12.038471125201523"><ele>451.0</ele><time>2026-05-03T07:50:20.999Z</time></trkpt><trkpt lat="43.66908599301019" lon="12.0382830960873"><ele>451.5</ele><time>2026-05-03T07:50:21.999Z</time></trkpt><trkpt lat="43.6692778252981" lon="12.038095445168224"><ele>452.0</ele><time>2026-05-03T07:50:22.999Z</time></trkpt><trkpt lat="43.66947058464359" lon="12.037909293245903"><ele>452.0</ele><time>2026-05-03T07:50:23.999Z</time></trkpt><trkpt lat="43.669662621690094" lon="12.03772367613081"><ele>452.0</ele><time>2026-05-03T07:50:24.999Z</time></trkpt><trkpt lat="43.66985547662431" lon="12.037531886881348"><ele>455.5</ele><time>2026-05-03T07:50:25.999Z</time></trkpt><trkpt lat="43.67004657397683" lon="12.037341978947202"><ele>459.0</ele><time>2026-05-03T07:50:26.999Z</time></trkpt><trkpt lat="43.67023865954966" lon="12.037154873165711"><ele>450.5</ele><time>2026-05-03T07:50:27.999Z</time></trkpt><trkpt lat="43.670435389148686" lon="12.03697582654723"><ele>442.0</ele><time>2026-05-03T07:50:28.999Z</time></trkpt><trkpt lat="43.670637500720986" lon="12.036806747715602"><ele>442.0</ele><time>2026-05-03T07:50:29.999Z</time></trkpt><trkpt lat="43.67084579474199" lon="12.036651419870045"><ele>442.0</ele><time>2026-05-03T07:50:30.999Z</time></trkpt><trkpt lat="43.67105892311542" lon="12.03651365464064"><ele>443.0</ele><time>2026-05-03T07:50:31.999Z</time></trkpt><trkpt lat="43.67127809277673" lon="12.036388833892191"><ele>444.0</ele><time>2026-05-03T07:50:32.999Z</time></trkpt><trkpt lat="43.67150184879315" lon="12.036282649466585"><ele>444.0</ele><time>2026-05-03T07:50:33.999Z</time></trkpt><trkpt lat="43.67173090094059" lon="12.036193785490386"><ele>444.0</ele><time>2026-05-03T07:50:34.999Z</time></trkpt><trkpt lat="43.671961843604066" lon="12.036119959211893"><ele>446.0</ele><time>2026-05-03T07:50:35.999Z</time></trkpt><trkpt lat="43.67219826915696" lon="12.03606154141062"><ele>448.0</ele><time>2026-05-03T07:50:36.999Z</time></trkpt><trkpt lat="43.672437232906454" lon="12.036022222012361"><ele>448.0</ele><time>2026-05-03T07:50:37.999Z</time></trkpt><trkpt lat="43.672677066595064" lon="12.036002459740265"><ele>448.0</ele><time>2026-05-03T07:50:38.999Z</time></trkpt><trkpt lat="43.672915864332886" lon="12.03599682113388"><ele>450.0</ele><time>2026-05-03T07:50:39.999Z</time></trkpt><trkpt lat="43.6731562526914" lon="12.036003456385506"><ele>452.0</ele><time>2026-05-03T07:50:40.999Z</time></trkpt><trkpt lat="43.67339741530974" lon="12.036023495243583"><ele>453.0</ele><time>2026-05-03T07:50:41.999Z</time></trkpt><trkpt lat="43.67363801613995" lon="12.036052722834166"><ele>454.0</ele><time>2026-05-03T07:50:42.999Z</time></trkpt><trkpt lat="43.673877797580474" lon="12.036089493656467"><ele>454.0</ele><time>2026-05-03T07:50:43.999Z</time></trkpt><trkpt lat="43.67411559054242" lon="12.036127626762834"><ele>454.0</ele><time>2026-05-03T07:50:44.999Z</time></trkpt><trkpt lat="43.674356815689606" lon="12.036166908021013"><ele>452.0</ele><time>2026-05-03T07:50:45.999Z</time></trkpt><trkpt lat="43.67459613614486" lon="12.036200697160446"><ele>450.0</ele><time>2026-05-03T07:50:46.999Z</time></trkpt><trkpt lat="43.6748310034545" lon="12.03623667227171"><ele>450.0</ele><time>2026-05-03T07:50:47.999Z</time></trkpt><trkpt lat="43.67506727231996" lon="12.036271348876834"><ele>450.0</ele><time>2026-05-03T07:50:48.999Z</time></trkpt><trkpt lat="43.67530165072124" lon="12.03630877538181"><ele>450.5</ele><time>2026-05-03T07:50:49.999Z</time></trkpt><trkpt lat="43.67553288110102" lon="12.036344668834415"><ele>451.0</ele><time>2026-05-03T07:50:50.999Z</time></trkpt><trkpt lat="43.67576345521071" lon="12.036377444577973"><ele>451.0</ele><time>2026-05-03T07:50:51.999Z</time></trkpt><trkpt lat="43.67599319307422" lon="12.036410662946222"><ele>451.0</ele><time>2026-05-03T07:50:52.999Z</time></trkpt><trkpt lat="43.67622047647586" lon="12.036444796418692"><ele>452.0</ele><time>2026-05-03T07:50:53.999Z</time></trkpt><trkpt lat="43.67644550825839" lon="12.03648101058959"><ele>453.0</ele><time>2026-05-03T07:50:54.999Z</time></trkpt><trkpt lat="43.6766740747199" lon="12.0365160465561"><ele>453.0</ele><time>2026-05-03T07:50:55.999Z</time></trkpt><trkpt lat="43.676896168664996" lon="12.036546697130715"><ele>453.0</ele><time>2026-05-03T07:50:56.999Z</time></trkpt><trkpt lat="43.67712009408866" lon="12.036578813929296"><ele>453.0</ele><time>2026-05-03T07:50:57.999Z</time></trkpt><trkpt lat="43.677345706234426" lon="12.0366096604664"><ele>452.66666666666663</ele><time>2026-05-03T07:50:58.999Z</time></trkpt><trkpt lat="43.677568942478224" lon="12.036633718562774"><ele>452.3333333333333</ele><time>2026-05-03T07:50:59.999Z</time></trkpt><trkpt lat="43.67778780970455" lon="12.036649863465163"><ele>452.0</ele><time>2026-05-03T07:51:00.999Z</time></trkpt><trkpt lat="43.6780069063637" lon="12.036657828828824"><ele>452.0</ele><time>2026-05-03T07:51:01.999Z</time></trkpt><trkpt lat="43.67822337119716" lon="12.036663472577459"><ele>452.0</ele><time>2026-05-03T07:51:02.999Z</time></trkpt><trkpt lat="43.67842754353037" lon="12.036671757269838"><ele>452.0</ele><time>2026-05-03T07:51:03.999Z</time></trkpt><trkpt lat="43.678618551749445" lon="12.03669488565258"><ele>451.66666666666663</ele><time>2026-05-03T07:51:04.999Z</time></trkpt><trkpt lat="43.678796037317944" lon="12.036734898744617"><ele>451.33333333333337</ele><time>2026-05-03T07:51:05.999Z</time></trkpt><trkpt lat="43.678978693561156" lon="12.03676307537141"><ele>451.0</ele><time>2026-05-03T07:51:06.999Z</time></trkpt><trkpt lat="43.679169011921886" lon="12.036767753008535"><ele>451.0</ele><time>2026-05-03T07:51:07.999Z</time></trkpt><trkpt lat="43.679355540080486" lon="12.036766113196693"><ele>451.0</ele><time>2026-05-03T07:51:08.999Z</time></trkpt><trkpt lat="43.679537759088696" lon="12.036772268946685"><ele>451.0</ele><time>2026-05-03T07:51:09.999Z</time></trkpt><trkpt lat="43.67970611059594" lon="12.036780779571874"><ele>450.0</ele><time>2026-05-03T07:51:10.999Z</time></trkpt><trkpt lat="43.679873796574334" lon="12.036791854918574"><ele>449.0</ele><time>2026-05-03T07:51:11.999Z</time></trkpt><trkpt lat="43.680042376157466" lon="12.036803810052444"><ele>448.0</ele><time>2026-05-03T07:51:12.999Z</time></trkpt><trkpt lat="43.68021364712116" lon="12.036824387608208"><ele>448.0</ele><time>2026-05-03T07:51:13.999Z</time></trkpt><trkpt lat="43.68039350442583" lon="12.036850032954334"><ele>448.0</ele><time>2026-05-03T07:51:14.999Z</time></trkpt><trkpt lat="43.68057410734911" lon="12.036885596686945"><ele>448.0</ele><time>2026-05-03T07:51:15.999Z</time></trkpt><trkpt lat="43.68075827642411" lon="12.03693080229979"><ele>448.0</ele><time>2026-05-03T07:51:16.999Z</time></trkpt><trkpt lat="43.68094360267648" lon="12.036988602767112"><ele>448.0</ele><time>2026-05-03T07:51:17.999Z</time></trkpt><trkpt lat="43.68112811327189" lon="12.037055868804693"><ele>448.0</ele><time>2026-05-03T07:51:18.998Z</time></trkpt><trkpt lat="43.68131505658175" lon="12.037133827135914"><ele>448.0</ele><time>2026-05-03T07:51:19.998Z</time></trkpt><trkpt lat="43.6815038404299" lon="12.037215871824948"><ele>448.0</ele><time>2026-05-03T07:51:20.998Z</time></trkpt><trkpt lat="43.68169564220795" lon="12.037297230804452"><ele>448.0</ele><time>2026-05-03T07:51:21.998Z</time></trkpt><trkpt lat="43.681890551586925" lon="12.037373729622466"><ele>448.33333333333337</ele><time>2026-05-03T07:51:22.998Z</time></trkpt><trkpt lat="43.68209084553962" lon="12.03744697114931"><ele>448.66666666666663</ele><time>2026-05-03T07:51:23.998Z</time></trkpt><trkpt lat="43.6822902986398" lon="12.037519100272611"><ele>449.0</ele><time>2026-05-03T07:51:24.998Z</time></trkpt><trkpt lat="43.68249132475847" lon="12.037597538757396"><ele>449.0</ele><time>2026-05-03T07:51:25.998Z</time></trkpt><trkpt lat="43.682691076111276" lon="12.037680122299106"><ele>449.0</ele><time>2026-05-03T07:51:27Z</time></trkpt><trkpt lat="43.682891791885986" lon="12.037766959214025"><ele>449.0</ele><time>2026-05-03T07:51:28Z</time></trkpt><trkpt lat="43.68309515538502" lon="12.037855413575574"><ele>448.66666666666663</ele><time>2026-05-03T07:51:29Z</time></trkpt><trkpt lat="43.68329684127203" lon="12.037945991479026"><ele>448.33333333333337</ele><time>2026-05-03T07:51:30Z</time></trkpt><trkpt lat="43.683498202468634" lon="12.038035354501579"><ele>448.0</ele><time>2026-05-03T07:51:31Z</time></trkpt><trkpt lat="43.683702058330205" lon="12.03812294473792"><ele>448.6666666666667</ele><time>2026-05-03T07:51:32Z</time></trkpt><trkpt lat="43.683905907081254" lon="12.038212187670801"><ele>449.33333333333337</ele><time>2026-05-03T07:51:33Z</time></trkpt><trkpt lat="43.6841101920436" lon="12.038290498906697"><ele>450.0</ele><time>2026-05-03T07:51:34Z</time></trkpt><trkpt lat="43.68431748125893" lon="12.038354463001557"><ele>451.0</ele><time>2026-05-03T07:51:35Z</time></trkpt><trkpt lat="43.684524018020426" lon="12.038421374817105"><ele>452.0</ele><time>2026-05-03T07:51:36Z</time></trkpt><trkpt lat="43.68472406583555" lon="12.03850874663517"><ele>453.0</ele><time>2026-05-03T07:51:37Z</time></trkpt><trkpt lat="43.684924296599775" lon="12.03859525634286"><ele>453.0</ele><time>2026-05-03T07:51:38Z</time></trkpt><trkpt lat="43.68512607560165" lon="12.038669042897343"><ele>453.0</ele><time>2026-05-03T07:51:39Z</time></trkpt><trkpt lat="43.68532838320076" lon="12.038731536117313"><ele>453.0</ele><time>2026-05-03T07:51:40Z</time></trkpt><trkpt lat="43.68552859725354" lon="12.038781809087816"><ele>453.33333333333337</ele><time>2026-05-03T07:51:41Z</time></trkpt><trkpt lat="43.68572713510847" lon="12.038813536253649"><ele>453.6666666666667</ele><time>2026-05-03T07:51:42Z</time></trkpt><trkpt lat="43.68592115240742" lon="12.038830661670659"><ele>454.0</ele><time>2026-05-03T07:51:43Z</time></trkpt><trkpt lat="43.68611317480457" lon="12.03884035426645"><ele>454.33333333333337</ele><time>2026-05-03T07:51:44Z</time></trkpt><trkpt lat="43.68630397331461" lon="12.038836649632433"><ele>454.66666666666663</ele><time>2026-05-03T07:51:45Z</time></trkpt><trkpt lat="43.68649084186349" lon="12.038822592518814"><ele>455.0</ele><time>2026-05-03T07:51:46Z</time></trkpt><trkpt lat="43.68667225912366" lon="12.03879922537477"><ele>455.0</ele><time>2026-05-03T07:51:47Z</time></trkpt><trkpt lat="43.686852968152316" lon="12.038765386680646"><ele>455.0</ele><time>2026-05-03T07:51:48Z</time></trkpt><trkpt lat="43.687030776691266" lon="12.038721721260767"><ele>455.0</ele><time>2026-05-03T07:51:49Z</time></trkpt><trkpt lat="43.6872060850461" lon="12.038669202712496"><ele>458.0</ele><time>2026-05-03T07:51:50Z</time></trkpt><trkpt lat="43.687379572593215" lon="12.038609385070654"><ele>461.0</ele><time>2026-05-03T07:51:51Z</time></trkpt><trkpt lat="43.687554008989316" lon="12.038536565861598"><ele>464.0</ele><time>2026-05-03T07:51:52Z</time></trkpt><trkpt lat="43.687725717497564" lon="12.038447286648685"><ele>464.66666666666663</ele><time>2026-05-03T07:51:52.999Z</time></trkpt><trkpt lat="43.687898305067826" lon="12.038342294835756"><ele>465.33333333333337</ele><time>2026-05-03T07:51:53.999Z</time></trkpt><trkpt lat="43.688070818180776" lon="12.038227527785478"><ele>466.0</ele><time>2026-05-03T07:51:54.999Z</time></trkpt><trkpt lat="43.688242300940914" lon="12.038109391658075"><ele>466.0</ele><time>2026-05-03T07:51:55.999Z</time></trkpt><trkpt lat="43.688407619700776" lon="12.037982715491097"><ele>466.0</ele><time>2026-05-03T07:51:56.999Z</time></trkpt><trkpt lat="43.68856563286748" lon="12.03784406613498"><ele>466.0</ele><time>2026-05-03T07:51:57.999Z</time></trkpt><trkpt lat="43.68871957678761" lon="12.037709949003835"><ele>466.0</ele><time>2026-05-03T07:51:58.999Z</time></trkpt><trkpt lat="43.688898265370916" lon="12.037564471744151"><ele>466.0</ele><time>2026-05-03T07:51:59.999Z</time></trkpt><trkpt lat="43.68906107798721" lon="12.037383665969108"><ele>466.0</ele><time>2026-05-03T07:52:00.999Z</time></trkpt><trkpt lat="43.68921329557541" lon="12.03722590585542"><ele>464.6666666666667</ele><time>2026-05-03T07:52:01.999Z</time></trkpt><trkpt lat="43.68936027684012" lon="12.037079757427211"><ele>463.33333333333337</ele><time>2026-05-03T07:52:02.999Z</time></trkpt><trkpt lat="43.689505159437545" lon="12.036939883119247"><ele>462.0</ele><time>2026-05-03T07:52:03.999Z</time></trkpt><trkpt lat="43.68965795771714" lon="12.036808707196304"><ele>462.0</ele><time>2026-05-03T07:52:04.999Z</time></trkpt><trkpt lat="43.68981837911832" lon="12.036688012633658"><ele>462.0</ele><time>2026-05-03T07:52:05.999Z</time></trkpt><trkpt lat="43.689985351538866" lon="12.036576167962387"><ele>462.0</ele><time>2026-05-03T07:52:06.999Z</time></trkpt><trkpt lat="43.69015646681024" lon="12.036475905431093"><ele>466.66666666666663</ele><time>2026-05-03T07:52:07.999Z</time></trkpt><trkpt lat="43.69033381072721" lon="12.036381305274626"><ele>471.3333333333333</ele><time>2026-05-03T07:52:08.999Z</time></trkpt><trkpt lat="43.69051408733672" lon="12.036296291339289"><ele>476.0</ele><time>2026-05-03T07:52:09.999Z</time></trkpt><trkpt lat="43.69069742606785" lon="12.03622095127973"><ele>476.0</ele><time>2026-05-03T07:52:10.999Z</time></trkpt><trkpt lat="43.69088374460534" lon="12.036156433707868"><ele>476.0</ele><time>2026-05-03T07:52:11.999Z</time></trkpt><trkpt lat="43.69107427966321" lon="12.036100954656922"><ele>476.0</ele><time>2026-05-03T07:52:12.999Z</time></trkpt><trkpt lat="43.69127118265442" lon="12.03605848781763"><ele>476.66666666666663</ele><time>2026-05-03T07:52:13.999Z</time></trkpt><trkpt lat="43.69146962432477" lon="12.036024164444441"><ele>477.33333333333337</ele><time>2026-05-03T07:52:14.999Z</time></trkpt><trkpt lat="43.691663642328415" lon="12.036004737018429"><ele>478.0</ele><time>2026-05-03T07:52:15.999Z</time></trkpt><trkpt lat="43.69186045844303" lon="12.035990441851125"><ele>480.6666666666667</ele><time>2026-05-03T07:52:16.999Z</time></trkpt><trkpt lat="43.69205629787153" lon="12.03599500485393"><ele>483.33333333333337</ele><time>2026-05-03T07:52:17.999Z</time></trkpt><trkpt lat="43.692255888055264" lon="12.03601184521232"><ele>486.0</ele><time>2026-05-03T07:52:18.999Z</time></trkpt><trkpt lat="43.69245502343193" lon="12.036038337251671"><ele>486.0</ele><time>2026-05-03T07:52:19.999Z</time></trkpt><trkpt lat="43.69264827109234" lon="12.036076605434996"><ele>486.0</ele><time>2026-05-03T07:52:20.999Z</time></trkpt><trkpt lat="43.692842918460975" lon="12.036128867932495"><ele>486.0</ele><time>2026-05-03T07:52:21.999Z</time></trkpt><trkpt lat="43.693035450573" lon="12.036185360472626"><ele>491.33333333333337</ele><time>2026-05-03T07:52:22.999Z</time></trkpt><trkpt lat="43.69322866998182" lon="12.036240272678231"><ele>496.6666666666667</ele><time>2026-05-03T07:52:23.999Z</time></trkpt><trkpt lat="43.693421386468174" lon="12.036297197268224"><ele>502.0</ele><time>2026-05-03T07:52:24.999Z</time></trkpt><trkpt lat="43.69361384752572" lon="12.036348384031957"><ele>507.6666666666667</ele><time>2026-05-03T07:52:25.999Z</time></trkpt><trkpt lat="43.69380350931125" lon="12.03639450221331"><ele>513.3333333333334</ele><time>2026-05-03T07:52:26.999Z</time></trkpt><trkpt lat="43.69399320603294" lon="12.036424064825546"><ele>519.0</ele><time>2026-05-03T07:52:27.999Z</time></trkpt><trkpt lat="43.6941814620353" lon="12.036442400956394"><ele>519.0</ele><time>2026-05-03T07:52:28.999Z</time></trkpt><trkpt lat="43.694373009176026" lon="12.036452947466698"><ele>519.0</ele><time>2026-05-03T07:52:29.999Z</time></trkpt><trkpt lat="43.69456232280644" lon="12.03645843176969"><ele>519.0</ele><time>2026-05-03T07:52:30.999Z</time></trkpt><trkpt lat="43.69475416752946" lon="12.036451970700924"><ele>510.66666666666663</ele><time>2026-05-03T07:52:31.999Z</time></trkpt><trkpt lat="43.694948209481055" lon="12.036431284559127"><ele>502.3333333333333</ele><time>2026-05-03T07:52:32.999Z</time></trkpt><trkpt lat="43.69514012841312" lon="12.036399061086872"><ele>494.0</ele><time>2026-05-03T07:52:33.999Z</time></trkpt><trkpt lat="43.695333231824414" lon="12.03635275948869"><ele>491.3333333333333</ele><time>2026-05-03T07:52:34.999Z</time></trkpt><trkpt lat="43.69552619905285" lon="12.03629490260103"><ele>488.66666666666663</ele><time>2026-05-03T07:52:35.999Z</time></trkpt><trkpt lat="43.695713711442984" lon="12.03623102019163"><ele>486.0</ele><time>2026-05-03T07:52:36.999Z</time></trkpt><trkpt lat="43.69590194394161" lon="12.036155824549422"><ele>482.33333333333337</ele><time>2026-05-03T07:52:37.999Z</time></trkpt><trkpt lat="43.69608832595426" lon="12.036070105008342"><ele>478.6666666666667</ele><time>2026-05-03T07:52:38.999Z</time></trkpt><trkpt lat="43.696272012591486" lon="12.035977013759926"><ele>475.0</ele><time>2026-05-03T07:52:39.999Z</time></trkpt><trkpt lat="43.69645819455663" lon="12.03588211711433"><ele>478.0</ele><time>2026-05-03T07:52:40.999Z</time></trkpt><trkpt lat="43.69664096380646" lon="12.035791096900839"><ele>481.0</ele><time>2026-05-03T07:52:41.999Z</time></trkpt><trkpt lat="43.696821895561946" lon="12.035704213875636"><ele>484.0</ele><time>2026-05-03T07:52:42.999Z</time></trkpt><trkpt lat="43.696999779935844" lon="12.03561837090831"><ele>484.0</ele><time>2026-05-03T07:52:43.999Z</time></trkpt><trkpt lat="43.69717694970297" lon="12.035540188161324"><ele>484.0</ele><time>2026-05-03T07:52:44.999Z</time></trkpt><trkpt lat="43.697362568796024" lon="12.035481117941414"><ele>484.0</ele><time>2026-05-03T07:52:45.999Z</time></trkpt><trkpt lat="43.69754108115048" lon="12.035438346884993"><ele>484.0</ele><time>2026-05-03T07:52:46.999Z</time></trkpt><trkpt lat="43.69772178985788" lon="12.035372790429033"><ele>484.0</ele><time>2026-05-03T07:52:47.999Z</time></trkpt><trkpt lat="43.69789490371189" lon="12.035292801521031"><ele>484.0</ele><time>2026-05-03T07:52:48.999Z</time></trkpt><trkpt lat="43.69806008508171" lon="12.035207632421317"><ele>482.6666666666667</ele><time>2026-05-03T07:52:49.999Z</time></trkpt><trkpt lat="43.698214884997846" lon="12.03512672957604"><ele>481.33333333333337</ele><time>2026-05-03T07:52:50.999Z</time></trkpt><trkpt lat="43.698367285794916" lon="12.035050133044892"><ele>480.0</ele><time>2026-05-03T07:52:51.999Z</time></trkpt><trkpt lat="43.69851827087953" lon="12.03497280228261"><ele>486.33333333333337</ele><time>2026-05-03T07:52:52.999Z</time></trkpt><trkpt lat="43.6986682087284" lon="12.034895107819814"><ele>492.6666666666667</ele><time>2026-05-03T07:52:53.999Z</time></trkpt><trkpt lat="43.69881867065684" lon="12.034819790449193"><ele>499.0</ele><time>2026-05-03T07:52:54.999Z</time></trkpt><trkpt lat="43.69897014456448" lon="12.03474857315771"><ele>499.0</ele><time>2026-05-03T07:52:55.999Z</time></trkpt><trkpt lat="43.69912371261424" lon="12.034670960542444"><ele>499.0</ele><time>2026-05-03T07:52:56.999Z</time></trkpt><trkpt lat="43.69927807197067" lon="12.034584476324884"><ele>499.0</ele><time>2026-05-03T07:52:57.999Z</time></trkpt><trkpt lat="43.6994330986797" lon="12.034492291602614"><ele>495.33333333333337</ele><time>2026-05-03T07:52:58.999Z</time></trkpt><trkpt lat="43.69958834121398" lon="12.034392661025295"><ele>491.66666666666663</ele><time>2026-05-03T07:52:59.999Z</time></trkpt><trkpt lat="43.69973938421974" lon="12.034278041652948"><ele>488.0</ele><time>2026-05-03T07:53:00.999Z</time></trkpt><trkpt lat="43.699888061869046" lon="12.034152245081263"><ele>489.3333333333333</ele><time>2026-05-03T07:53:01.999Z</time></trkpt><trkpt lat="43.70003729605837" lon="12.034012664580844"><ele>490.66666666666663</ele><time>2026-05-03T07:53:02.999Z</time></trkpt><trkpt lat="43.70018848938059" lon="12.033872753285097"><ele>492.0</ele><time>2026-05-03T07:53:03.999Z</time></trkpt><trkpt lat="43.70033191101527" lon="12.03371992897032"><ele>492.66666666666663</ele><time>2026-05-03T07:53:04.999Z</time></trkpt><trkpt lat="43.70048003781596" lon="12.03356884833499"><ele>493.3333333333333</ele><time>2026-05-03T07:53:05.999Z</time></trkpt><trkpt lat="43.700620227893495" lon="12.033399169772538"><ele>494.0</ele><time>2026-05-03T07:53:06.999Z</time></trkpt><trkpt lat="43.70075787505024" lon="12.033223135558803"><ele>494.0</ele><time>2026-05-03T07:53:07.999Z</time></trkpt><trkpt lat="43.700894996269454" lon="12.033041305648602"><ele>494.0</ele><time>2026-05-03T07:53:08.999Z</time></trkpt><trkpt lat="43.70103331136207" lon="12.032858966482282"><ele>494.0</ele><time>2026-05-03T07:53:09.999Z</time></trkpt><trkpt lat="43.70117099134117" lon="12.03267671023478"><ele>495.0</ele><time>2026-05-03T07:53:10.999Z</time></trkpt><trkpt lat="43.70131032562383" lon="12.032495683769541"><ele>496.0</ele><time>2026-05-03T07:53:11.999Z</time></trkpt><trkpt lat="43.701450372208626" lon="12.03231583368979"><ele>497.0</ele><time>2026-05-03T07:53:12.999Z</time></trkpt><trkpt lat="43.701590273128076" lon="12.032133334454713"><ele>498.0</ele><time>2026-05-03T07:53:13.999Z</time></trkpt><trkpt lat="43.70172984515033" lon="12.031951912825974"><ele>499.0</ele><time>2026-05-03T07:53:14.999Z</time></trkpt><trkpt lat="43.70186794540831" lon="12.031771533144461"><ele>500.0</ele><time>2026-05-03T07:53:15.999Z</time></trkpt><trkpt lat="43.70200677413197" lon="12.031590648049285"><ele>500.0</ele><time>2026-05-03T07:53:16.998Z</time></trkpt><trkpt lat="43.70214623061124" lon="12.03140219982568"><ele>500.0</ele><time>2026-05-03T07:53:17.998Z</time></trkpt><trkpt lat="43.70228965671425" lon="12.031213792306026"><ele>500.0</ele><time>2026-05-03T07:53:18.998Z</time></trkpt><trkpt lat="43.702434691564406" lon="12.031023489914391"><ele>500.0</ele><time>2026-05-03T07:53:19.998Z</time></trkpt><trkpt lat="43.702582963611164" lon="12.030829178397255"><ele>500.0</ele><time>2026-05-03T07:53:20.998Z</time></trkpt><trkpt lat="43.70273405960353" lon="12.03063133956935"><ele>500.0</ele><time>2026-05-03T07:53:21.998Z</time></trkpt><trkpt lat="43.702885215448646" lon="12.030433131336926"><ele>499.66666666666663</ele><time>2026-05-03T07:53:22.998Z</time></trkpt><trkpt lat="43.70303840847553" lon="12.030236207513978"><ele>499.33333333333337</ele><time>2026-05-03T07:53:23.998Z</time></trkpt><trkpt lat="43.70319755672122" lon="12.030044416016375"><ele>499.0</ele><time>2026-05-03T07:53:24.998Z</time></trkpt><trkpt lat="43.70336570223511" lon="12.029863273790388"><ele>498.33333333333337</ele><time>2026-05-03T07:53:25.998Z</time></trkpt><trkpt lat="43.70353781726774" lon="12.029696531700386"><ele>497.66666666666663</ele><time>2026-05-03T07:53:26.998Z</time></trkpt><trkpt lat="43.70371808757869" lon="12.029533082310756"><ele>497.0</ele><time>2026-05-03T07:53:27.998Z</time></trkpt><trkpt lat="43.70390295168581" lon="12.029377978304701"><ele>495.0</ele><time>2026-05-03T07:53:28.998Z</time></trkpt><trkpt lat="43.7040916922317" lon="12.029236331446503"><ele>493.0</ele><time>2026-05-03T07:53:29.998Z</time></trkpt><trkpt lat="43.70428285619805" lon="12.029105691772498"><ele>491.0</ele><time>2026-05-03T07:53:30.998Z</time></trkpt><trkpt lat="43.704480345074714" lon="12.02898604704845"><ele>496.0</ele><time>2026-05-03T07:53:31.998Z</time></trkpt><trkpt lat="43.70468070482267" lon="12.028877739899789"><ele>501.0</ele><time>2026-05-03T07:53:33Z</time></trkpt><trkpt lat="43.70488544942894" lon="12.028783169225745"><ele>506.0</ele><time>2026-05-03T07:53:34Z</time></trkpt><trkpt lat="43.705091239516285" lon="12.028700082359249"><ele>508.3333333333333</ele><time>2026-05-03T07:53:35Z</time></trkpt><trkpt lat="43.70530235222592" lon="12.028630175275433"><ele>510.66666666666663</ele><time>2026-05-03T07:53:36Z</time></trkpt><trkpt lat="43.70551517167338" lon="12.028575677921054"><ele>513.0</ele><time>2026-05-03T07:53:37Z</time></trkpt><trkpt lat="43.70573074162339" lon="12.028536261125536"><ele>513.0</ele><time>2026-05-03T07:53:38Z</time></trkpt><trkpt lat="43.7059468952484" lon="12.028507025112537"><ele>513.0</ele><time>2026-05-03T07:53:39Z</time></trkpt><trkpt lat="43.706167662395025" lon="12.028491678233216"><ele>513.0</ele><time>2026-05-03T07:53:40Z</time></trkpt><trkpt lat="43.70638881269403" lon="12.028492679711366"><ele>514.0</ele><time>2026-05-03T07:53:41Z</time></trkpt><trkpt lat="43.7066100917946" lon="12.02850681369285"><ele>515.0</ele><time>2026-05-03T07:53:42Z</time></trkpt><trkpt lat="43.70683385147814" lon="12.028530935526963"><ele>516.0</ele><time>2026-05-03T07:53:43Z</time></trkpt><trkpt lat="43.70705768519667" lon="12.028558335464982"><ele>516.0</ele><time>2026-05-03T07:53:44Z</time></trkpt><trkpt lat="43.70728093687676" lon="12.028587099114466"><ele>516.0</ele><time>2026-05-03T07:53:45Z</time></trkpt><trkpt lat="43.707504813199215" lon="12.0286118342378"><ele>516.0</ele><time>2026-05-03T07:53:46Z</time></trkpt><trkpt lat="43.70773393685703" lon="12.0286393814216"><ele>515.5</ele><time>2026-05-03T07:53:47Z</time></trkpt><trkpt lat="43.70798256959461" lon="12.028678544998874"><ele>515.0</ele><time>2026-05-03T07:53:48Z</time></trkpt><trkpt lat="43.708253134797765" lon="12.02873779580076"><ele>515.0</ele><time>2026-05-03T07:53:49Z</time></trkpt><trkpt lat="43.70854307840821" lon="12.02880961930936"><ele>515.0</ele><time>2026-05-03T07:53:49.999Z</time></trkpt><trkpt lat="43.70885467928851" lon="12.028841605511635"><ele>514.0</ele><time>2026-05-03T07:53:50.999Z</time></trkpt><trkpt lat="43.709175978047924" lon="12.02888167718175"><ele>513.0</ele><time>2026-05-03T07:53:51.999Z</time></trkpt><trkpt lat="43.70910022719669" lon="12.028794082186245"><ele>512.0</ele><time>2026-05-03T07:53:52.999Z</time></trkpt><trkpt lat="43.7093316910127" lon="12.028825438621324"><ele>508.5</ele><time>2026-05-03T07:53:53.999Z</time></trkpt><trkpt lat="43.70956725302979" lon="12.028858924271201"><ele>505.0</ele><time>2026-05-03T07:53:54.999Z</time></trkpt><trkpt lat="43.70980365611272" lon="12.02888687737575"><ele>505.0</ele><time>2026-05-03T07:53:55.999Z</time></trkpt><trkpt lat="43.71003448044181" lon="12.028915103122685"><ele>505.0</ele><time>2026-05-03T07:53:56.999Z</time></trkpt><trkpt lat="43.71026989786965" lon="12.02893956143987"><ele>504.0</ele><time>2026-05-03T07:53:57.999Z</time></trkpt><trkpt lat="43.71050388748493" lon="12.02897192177877"><ele>503.0</ele><time>2026-05-03T07:53:58.999Z</time></trkpt><trkpt lat="43.71073018151208" lon="12.029004872858787"><ele>503.0</ele><time>2026-05-03T07:53:59.999Z</time></trkpt><trkpt lat="43.71096282190188" lon="12.029032131603802"><ele>503.0</ele><time>2026-05-03T07:54:00.999Z</time></trkpt><trkpt lat="43.71119382290626" lon="12.029063516093332"><ele>503.0</ele><time>2026-05-03T07:54:01.999Z</time></trkpt><trkpt lat="43.711428732203366" lon="12.029095970759627"><ele>503.0</ele><time>2026-05-03T07:54:02.999Z</time></trkpt><trkpt lat="43.71166629330829" lon="12.029127326716655"><ele>504.0</ele><time>2026-05-03T07:54:03.999Z</time></trkpt><trkpt lat="43.711900222222184" lon="12.029148833435428"><ele>505.0</ele><time>2026-05-03T07:54:04.999Z</time></trkpt><trkpt lat="43.712129701619595" lon="12.029183756135367"><ele>506.5</ele><time>2026-05-03T07:54:05.999Z</time></trkpt><trkpt lat="43.71236494968634" lon="12.029206997122289"><ele>508.0</ele><time>2026-05-03T07:54:06.999Z</time></trkpt><trkpt lat="43.71259796294825" lon="12.02923773413096"><ele>508.0</ele><time>2026-05-03T07:54:07.999Z</time></trkpt><trkpt lat="43.71283329615923" lon="12.02926295384666"><ele>508.0</ele><time>2026-05-03T07:54:08.999Z</time></trkpt><trkpt lat="43.71306669633769" lon="12.029291221640328"><ele>508.0</ele><time>2026-05-03T07:54:09.999Z</time></trkpt><trkpt lat="43.713302432208756" lon="12.029321314581562"><ele>508.0</ele><time>2026-05-03T07:54:10.999Z</time></trkpt><trkpt lat="43.71354030622948" lon="12.029344065742043"><ele>508.0</ele><time>2026-05-03T07:54:11.999Z</time></trkpt><trkpt lat="43.71377748265514" lon="12.02936622521619"><ele>508.0</ele><time>2026-05-03T07:54:12.999Z</time></trkpt><trkpt lat="43.71401471017646" lon="12.029399024780863"><ele>508.0</ele><time>2026-05-03T07:54:13.999Z</time></trkpt><trkpt lat="43.71425089255421" lon="12.029429803486108"><ele>508.0</ele><time>2026-05-03T07:54:14.999Z</time></trkpt><trkpt lat="43.7144792181816" lon="12.029461579912597"><ele>508.0</ele><time>2026-05-03T07:54:15.999Z</time></trkpt><trkpt lat="43.71471236249518" lon="12.029490090697351"><ele>508.0</ele><time>2026-05-03T07:54:16.999Z</time></trkpt><trkpt lat="43.714945662284855" lon="12.02952071435623"><ele>508.0</ele><time>2026-05-03T07:54:17.999Z</time></trkpt><trkpt lat="43.7151802199406" lon="12.029551925907091"><ele>508.0</ele><time>2026-05-03T07:54:18.999Z</time></trkpt><trkpt lat="43.7154160352828" lon="12.029581927541056"><ele>510.0</ele><time>2026-05-03T07:54:19.999Z</time></trkpt><trkpt lat="43.71564958830694" lon="12.02961584891706"><ele>512.0</ele><time>2026-05-03T07:54:20.999Z</time></trkpt><trkpt lat="43.71588077305762" lon="12.029657256746047"><ele>516.0</ele><time>2026-05-03T07:54:21.999Z</time></trkpt><trkpt lat="43.716108927902276" lon="12.02971032166835"><ele>520.0</ele><time>2026-05-03T07:54:22.999Z</time></trkpt><trkpt lat="43.716336949849996" lon="12.029760006668608"><ele>520.0</ele><time>2026-05-03T07:54:23.999Z</time></trkpt><trkpt lat="43.71656661805813" lon="12.029804804635972"><ele>520.0</ele><time>2026-05-03T07:54:24.999Z</time></trkpt><trkpt lat="43.71679446433436" lon="12.029855393151932"><ele>522.5</ele><time>2026-05-03T07:54:25.999Z</time></trkpt><trkpt lat="43.71702316293416" lon="12.02990490554956"><ele>525.0</ele><time>2026-05-03T07:54:26.999Z</time></trkpt><trkpt lat="43.71725376789837" lon="12.029954862401285"><ele>520.5</ele><time>2026-05-03T07:54:27.999Z</time></trkpt><trkpt lat="43.71748289477875" lon="12.030006490254788"><ele>516.0</ele><time>2026-05-03T07:54:28.999Z</time></trkpt><trkpt lat="43.717710912979165" lon="12.03005456446064"><ele>514.5</ele><time>2026-05-03T07:54:29.999Z</time></trkpt><trkpt lat="43.71793762915815" lon="12.03010169896036"><ele>513.0</ele><time>2026-05-03T07:54:30.999Z</time></trkpt><trkpt lat="43.71816955411265" lon="12.030151300048312"><ele>513.0</ele><time>2026-05-03T07:54:31.999Z</time></trkpt><trkpt lat="43.718395904601586" lon="12.0301975247334"><ele>513.0</ele><time>2026-05-03T07:54:32.999Z</time></trkpt><trkpt lat="43.71862453024117" lon="12.030247370971177"><ele>514.0</ele><time>2026-05-03T07:54:33.999Z</time></trkpt><trkpt lat="43.718852036168805" lon="12.030298060608"><ele>515.0</ele><time>2026-05-03T07:54:34.999Z</time></trkpt><trkpt lat="43.71908077597868" lon="12.03034776656253"><ele>515.0</ele><time>2026-05-03T07:54:35.999Z</time></trkpt><trkpt lat="43.71930937712705" lon="12.030399949300708"><ele>515.0</ele><time>2026-05-03T07:54:36.999Z</time></trkpt><trkpt lat="43.71954027169947" lon="12.03045097155567"><ele>517.5</ele><time>2026-05-03T07:54:37.999Z</time></trkpt><trkpt lat="43.719770107918755" lon="12.030497668152202"><ele>520.0</ele><time>2026-05-03T07:54:38.999Z</time></trkpt><trkpt lat="43.719999135313515" lon="12.030546976827804"><ele>520.0</ele><time>2026-05-03T07:54:39.999Z</time></trkpt><trkpt lat="43.72022990037335" lon="12.030597492519044"><ele>520.0</ele><time>2026-05-03T07:54:40.999Z</time></trkpt><trkpt lat="43.72045661666753" lon="12.030650418580647"><ele>521.5</ele><time>2026-05-03T07:54:41.999Z</time></trkpt><trkpt lat="43.72068809478362" lon="12.030696306831144"><ele>523.0</ele><time>2026-05-03T07:54:42.999Z</time></trkpt><trkpt lat="43.7209195445166" lon="12.030739830113223"><ele>522.5</ele><time>2026-05-03T07:54:43.999Z</time></trkpt><trkpt lat="43.72114968359101" lon="12.030790370140778"><ele>522.0</ele><time>2026-05-03T07:54:44.999Z</time></trkpt><trkpt lat="43.72137645847267" lon="12.030851721373775"><ele>522.0</ele><time>2026-05-03T07:54:45.999Z</time></trkpt><trkpt lat="43.72160259243564" lon="12.030905770060214"><ele>522.0</ele><time>2026-05-03T07:54:46.999Z</time></trkpt><trkpt lat="43.72183294950632" lon="12.03094414087775"><ele>523.0</ele><time>2026-05-03T07:54:47.999Z</time></trkpt><trkpt lat="43.722062148366945" lon="12.03097897828623"><ele>524.0</ele><time>2026-05-03T07:54:48.999Z</time></trkpt><trkpt lat="43.72228790084667" lon="12.03103149173612"><ele>524.0</ele><time>2026-05-03T07:54:49.999Z</time></trkpt><trkpt lat="43.72251150140976" lon="12.031089864531658"><ele>524.0</ele><time>2026-05-03T07:54:50.999Z</time></trkpt><trkpt lat="43.722736088400055" lon="12.031129557548093"><ele>525.0</ele><time>2026-05-03T07:54:51.999Z</time></trkpt><trkpt lat="43.722958012648434" lon="12.031164694110657"><ele>526.0</ele><time>2026-05-03T07:54:52.999Z</time></trkpt><trkpt lat="43.72317673629574" lon="12.031202597864095"><ele>527.0</ele><time>2026-05-03T07:54:53.999Z</time></trkpt><trkpt lat="43.72339667898834" lon="12.031243026675833"><ele>528.3333333333333</ele><time>2026-05-03T07:54:54.999Z</time></trkpt><trkpt lat="43.7236113216984" lon="12.031269865294156"><ele>529.6666666666666</ele><time>2026-05-03T07:54:55.999Z</time></trkpt><trkpt lat="43.723833027381545" lon="12.0312737427571"><ele>531.0</ele><time>2026-05-03T07:54:56.999Z</time></trkpt><trkpt lat="43.72405739920303" lon="12.031264970103896"><ele>531.0</ele><time>2026-05-03T07:54:57.999Z</time></trkpt><trkpt lat="43.72428083727455" lon="12.031235996170057"><ele>531.0</ele><time>2026-05-03T07:54:58.999Z</time></trkpt><trkpt lat="43.72450898441903" lon="12.031201537530832"><ele>533.0</ele><time>2026-05-03T07:54:59.999Z</time></trkpt><trkpt lat="43.72473832993861" lon="12.031156287065166"><ele>535.0</ele><time>2026-05-03T07:55:00.999Z</time></trkpt><trkpt lat="43.72496605861667" lon="12.03109541432324"><ele>535.0</ele><time>2026-05-03T07:55:01.999Z</time></trkpt><trkpt lat="43.72519554011236" lon="12.031014160725343"><ele>535.0</ele><time>2026-05-03T07:55:02.999Z</time></trkpt><trkpt lat="43.72542101980425" lon="12.030923155795954"><ele>535.5</ele><time>2026-05-03T07:55:03.999Z</time></trkpt><trkpt lat="43.725643533837996" lon="12.030815659757074"><ele>536.0</ele><time>2026-05-03T07:55:04.999Z</time></trkpt><trkpt lat="43.72586048492453" lon="12.0306837375271"><ele>541.5</ele><time>2026-05-03T07:55:05.999Z</time></trkpt><trkpt lat="43.726070834978756" lon="12.030532867558739"><ele>547.0</ele><time>2026-05-03T07:55:06.999Z</time></trkpt><trkpt lat="43.72628044367878" lon="12.030342194524573"><ele>547.0</ele><time>2026-05-03T07:55:07.999Z</time></trkpt><trkpt lat="43.72649517692184" lon="12.030188550786958"><ele>547.0</ele><time>2026-05-03T07:55:08.999Z</time></trkpt><trkpt lat="43.726709697983175" lon="12.030049208205403"><ele>546.0</ele><time>2026-05-03T07:55:09.999Z</time></trkpt><trkpt lat="43.72691703087836" lon="12.029891874817054"><ele>545.0</ele><time>2026-05-03T07:55:10.999Z</time></trkpt><trkpt lat="43.72712476137945" lon="12.029728497066587"><ele>545.0</ele><time>2026-05-03T07:55:11.999Z</time></trkpt><trkpt lat="43.72733191687159" lon="12.029564182903021"><ele>545.0</ele><time>2026-05-03T07:55:12.999Z</time></trkpt><trkpt lat="43.72753413396836" lon="12.029398097295934"><ele>543.5</ele><time>2026-05-03T07:55:13.999Z</time></trkpt><trkpt lat="43.72773556632461" lon="12.029232904145607"><ele>542.0</ele><time>2026-05-03T07:55:14.999Z</time></trkpt><trkpt lat="43.72793960235496" lon="12.02906856338102"><ele>542.0</ele><time>2026-05-03T07:55:15.999Z</time></trkpt><trkpt lat="43.72813830899451" lon="12.028903818264386"><ele>542.0</ele><time>2026-05-03T07:55:16.998Z</time></trkpt><trkpt lat="43.728337484411945" lon="12.028737866650056"><ele>542.0</ele><time>2026-05-03T07:55:17.998Z</time></trkpt><trkpt lat="43.72853612063721" lon="12.028576889374605"><ele>542.0</ele><time>2026-05-03T07:55:18.998Z</time></trkpt><trkpt lat="43.72873468955156" lon="12.028417932988866"><ele>544.0</ele><time>2026-05-03T07:55:19.998Z</time></trkpt><trkpt lat="43.728934834880015" lon="12.02825579415986"><ele>546.0</ele><time>2026-05-03T07:55:20.998Z</time></trkpt><trkpt lat="43.72912948786614" lon="12.028093990438741"><ele>546.0</ele><time>2026-05-03T07:55:21.998Z</time></trkpt><trkpt lat="43.72932428941657" lon="12.027933649551905"><ele>546.0</ele><time>2026-05-03T07:55:22.998Z</time></trkpt><trkpt lat="43.72952717572507" lon="12.027779754364584"><ele>552.5</ele><time>2026-05-03T07:55:23.998Z</time></trkpt><trkpt lat="43.72973199218162" lon="12.027636166548193"><ele>559.0</ele><time>2026-05-03T07:55:24.998Z</time></trkpt><trkpt lat="43.72993978649792" lon="12.02750511120717"><ele>559.0</ele><time>2026-05-03T07:55:25.998Z</time></trkpt><trkpt lat="43.73015406816861" lon="12.027384865970065"><ele>559.0</ele><time>2026-05-03T07:55:26.998Z</time></trkpt><trkpt lat="43.73036583249052" lon="12.027274430561226"><ele>559.0</ele><time>2026-05-03T07:55:27.998Z</time></trkpt><trkpt lat="43.73058408761712" lon="12.027179001904132"><ele>559.0</ele><time>2026-05-03T07:55:28.998Z</time></trkpt><trkpt lat="43.73080489687165" lon="12.027094962954706"><ele>559.0</ele><time>2026-05-03T07:55:29.998Z</time></trkpt><trkpt lat="43.73102952828449" lon="12.027020573075198"><ele>559.0</ele><time>2026-05-03T07:55:30.998Z</time></trkpt><trkpt lat="43.731256156954274" lon="12.026951712532489"><ele>558.5</ele><time>2026-05-03T07:55:31.998Z</time></trkpt><trkpt lat="43.731487162650794" lon="12.026892369264786"><ele>558.0</ele><time>2026-05-03T07:55:32.998Z</time></trkpt><trkpt lat="43.73171865067129" lon="12.026848288025679"><ele>551.0</ele><time>2026-05-03T07:55:33.998Z</time></trkpt><trkpt lat="43.73195628944891" lon="12.026826264749353"><ele>544.0</ele><time>2026-05-03T07:55:34.998Z</time></trkpt><trkpt lat="43.73219419046867" lon="12.026818024951401"><ele>544.0</ele><time>2026-05-03T07:55:35.998Z</time></trkpt><trkpt lat="43.73243612408139" lon="12.026822164479242"><ele>544.0</ele><time>2026-05-03T07:55:36.998Z</time></trkpt><trkpt lat="43.732673031059235" lon="12.026835085944429"><ele>543.5</ele><time>2026-05-03T07:55:37.998Z</time></trkpt><trkpt lat="43.732913511722444" lon="12.026858626611737"><ele>543.0</ele><time>2026-05-03T07:55:38.999Z</time></trkpt><trkpt lat="43.73315183198416" lon="12.026897977821957"><ele>543.0</ele><time>2026-05-03T07:55:39.999Z</time></trkpt><trkpt lat="43.733389305122664" lon="12.02695887918353"><ele>543.0</ele><time>2026-05-03T07:55:40.999Z</time></trkpt><trkpt lat="43.73362190736254" lon="12.027028103868316"><ele>543.5</ele><time>2026-05-03T07:55:41.999Z</time></trkpt><trkpt lat="43.73385209050632" lon="12.027110385520704"><ele>544.0</ele><time>2026-05-03T07:55:42.999Z</time></trkpt><trkpt lat="43.734077881130055" lon="12.02720259275162"><ele>544.0</ele><time>2026-05-03T07:55:43.999Z</time></trkpt><trkpt lat="43.73429921757253" lon="12.027309392822639"><ele>544.0</ele><time>2026-05-03T07:55:44.999Z</time></trkpt><trkpt lat="43.734519176497024" lon="12.027429090131413"><ele>547.0</ele><time>2026-05-03T07:55:45.999Z</time></trkpt><trkpt lat="43.73473334363743" lon="12.027554397823208"><ele>550.0</ele><time>2026-05-03T07:55:46.999Z</time></trkpt><trkpt lat="43.73494300100103" lon="12.027682559797693"><ele>550.0</ele><time>2026-05-03T07:55:47.999Z</time></trkpt><trkpt lat="43.7351498631464" lon="12.027808380213804"><ele>550.0</ele><time>2026-05-03T07:55:48.999Z</time></trkpt><trkpt lat="43.73534636245449" lon="12.027927533166684"><ele>550.0</ele><time>2026-05-03T07:55:49.999Z</time></trkpt><trkpt lat="43.73553985318007" lon="12.028043359977898"><ele>557.3333333333334</ele><time>2026-05-03T07:55:50.999Z</time></trkpt><trkpt lat="43.735729527609294" lon="12.028149833107282"><ele>564.6666666666666</ele><time>2026-05-03T07:55:51.999Z</time></trkpt><trkpt lat="43.735918662759886" lon="12.028237157518397"><ele>572.0</ele><time>2026-05-03T07:55:52.999Z</time></trkpt><trkpt lat="43.736103888313366" lon="12.028316852311974"><ele>573.6666666666666</ele><time>2026-05-03T07:55:53.999Z</time></trkpt><trkpt lat="43.7362861521692" lon="12.028420407635958"><ele>575.3333333333334</ele><time>2026-05-03T07:55:54.999Z</time></trkpt><trkpt lat="43.73646515219599" lon="12.028529123393765"><ele>577.0</ele><time>2026-05-03T07:55:55.999Z</time></trkpt><trkpt lat="43.73664018474432" lon="12.028635648847628"><ele>577.0</ele><time>2026-05-03T07:55:56.999Z</time></trkpt><trkpt lat="43.73681028947252" lon="12.028735258241511"><ele>577.0</ele><time>2026-05-03T07:55:57.999Z</time></trkpt><trkpt lat="43.73697348152697" lon="12.028835353044716"><ele>577.0</ele><time>2026-05-03T07:55:58.999Z</time></trkpt><trkpt lat="43.73712899299259" lon="12.028931715523708"><ele>574.0</ele><time>2026-05-03T07:55:59.999Z</time></trkpt><trkpt lat="43.73727451801362" lon="12.02902030247752"><ele>571.0</ele><time>2026-05-03T07:56:00.999Z</time></trkpt><trkpt lat="43.737419065449096" lon="12.02910607898196"><ele>568.0</ele><time>2026-05-03T07:56:01.999Z</time></trkpt><trkpt lat="43.73756350308555" lon="12.029192764799493"><ele>568.0</ele><time>2026-05-03T07:56:02.999Z</time></trkpt><trkpt lat="43.73770654905901" lon="12.029276636699414"><ele>568.0</ele><time>2026-05-03T07:56:03.999Z</time></trkpt><trkpt lat="43.73784808773579" lon="12.02936151647918"><ele>568.0</ele><time>2026-05-03T07:56:04.999Z</time></trkpt><trkpt lat="43.73798925403632" lon="12.029445850882354"><ele>571.3333333333334</ele><time>2026-05-03T07:56:05.999Z</time></trkpt><trkpt lat="43.73813123373279" lon="12.02953132069191"><ele>574.6666666666666</ele><time>2026-05-03T07:56:06.999Z</time></trkpt><trkpt lat="43.73827569870654" lon="12.029622522405287"><ele>578.0</ele><time>2026-05-03T07:56:07.999Z</time></trkpt><trkpt lat="43.73842282518062" lon="12.029710897494008"><ele>584.6666666666666</ele><time>2026-05-03T07:56:08.999Z</time></trkpt><trkpt lat="43.73857118407183" lon="12.029801658377707"><ele>591.3333333333334</ele><time>2026-05-03T07:56:09.999Z</time></trkpt><trkpt lat="43.73872163835261" lon="12.029889653181893"><ele>598.0</ele><time>2026-05-03T07:56:10.999Z</time></trkpt><trkpt lat="43.73887207325728" lon="12.029983953714993"><ele>598.0</ele><time>2026-05-03T07:56:11.999Z</time></trkpt><trkpt lat="43.73902364106392" lon="12.030075581621341"><ele>598.0</ele><time>2026-05-03T07:56:12.999Z</time></trkpt><trkpt lat="43.739178924954544" lon="12.030167973748485"><ele>598.0</ele><time>2026-05-03T07:56:13.999Z</time></trkpt><trkpt lat="43.739335918648834" lon="12.030261212579536"><ele>604.6666666666667</ele><time>2026-05-03T07:56:14.999Z</time></trkpt><trkpt lat="43.7394969519626" lon="12.030357119500598"><ele>611.3333333333334</ele><time>2026-05-03T07:56:15.999Z</time></trkpt><trkpt lat="43.739657912842276" lon="12.030454200948444"><ele>618.0</ele><time>2026-05-03T07:56:16.999Z</time></trkpt><trkpt lat="43.73982327163488" lon="12.030547809584373"><ele>618.0</ele><time>2026-05-03T07:56:17.999Z</time></trkpt><trkpt lat="43.73999292841602" lon="12.030638813216543"><ele>618.0</ele><time>2026-05-03T07:56:18.999Z</time></trkpt><trkpt lat="43.74016298446199" lon="12.03072438183241"><ele>618.0</ele><time>2026-05-03T07:56:19.999Z</time></trkpt><trkpt lat="43.740336075017666" lon="12.030814671859742"><ele>616.6666666666666</ele><time>2026-05-03T07:56:20.999Z</time></trkpt><trkpt lat="43.74050934455794" lon="12.030892726233906"><ele>615.3333333333333</ele><time>2026-05-03T07:56:21.999Z</time></trkpt><trkpt lat="43.740686132248534" lon="12.03097286548846"><ele>614.0</ele><time>2026-05-03T07:56:22.999Z</time></trkpt><trkpt lat="43.74086439148924" lon="12.031044525821533"><ele>614.0</ele><time>2026-05-03T07:56:23.999Z</time></trkpt><trkpt lat="43.74104286200562" lon="12.031104674511516"><ele>614.0</ele><time>2026-05-03T07:56:24.999Z</time></trkpt><trkpt lat="43.74121649462357" lon="12.031170827827612"><ele>614.0</ele><time>2026-05-03T07:56:25.999Z</time></trkpt><trkpt lat="43.74139546255332" lon="12.031234781098936"><ele>620.6666666666666</ele><time>2026-05-03T07:56:26.999Z</time></trkpt><trkpt lat="43.74157327743541" lon="12.031292000748383"><ele>627.3333333333334</ele><time>2026-05-03T07:56:27.999Z</time></trkpt><trkpt lat="43.741744348066746" lon="12.031352002694318"><ele>634.0</ele><time>2026-05-03T07:56:28.999Z</time></trkpt><trkpt lat="43.741915528188706" lon="12.031411584485916"><ele>634.0</ele><time>2026-05-03T07:56:29.999Z</time></trkpt><trkpt lat="43.74208556417485" lon="12.031466912077768"><ele>634.0</ele><time>2026-05-03T07:56:30.999Z</time></trkpt><trkpt lat="43.74225754670423" lon="12.03152480961133"><ele>634.0</ele><time>2026-05-03T07:56:31.999Z</time></trkpt><trkpt lat="43.74242830330231" lon="12.031582780847753"><ele>621.6666666666667</ele><time>2026-05-03T07:56:32.999Z</time></trkpt><trkpt lat="43.74259764483972" lon="12.031641859225303"><ele>609.3333333333334</ele><time>2026-05-03T07:56:33.999Z</time></trkpt><trkpt lat="43.742767772586774" lon="12.03170050451388"><ele>597.0</ele><time>2026-05-03T07:56:34.999Z</time></trkpt><trkpt lat="43.74293875307177" lon="12.031759004284622"><ele>590.3333333333334</ele><time>2026-05-03T07:56:35.999Z</time></trkpt><trkpt lat="43.74311046685273" lon="12.031819671502864"><ele>583.6666666666667</ele><time>2026-05-03T07:56:36.999Z</time></trkpt><trkpt lat="43.74328117027855" lon="12.031882127097775"><ele>577.0</ele><time>2026-05-03T07:56:37.999Z</time></trkpt><trkpt lat="43.7434549872971" lon="12.031941775068505"><ele>578.6666666666667</ele><time>2026-05-03T07:56:38.999Z</time></trkpt><trkpt lat="43.74362903176372" lon="12.032000126058948"><ele>580.3333333333334</ele><time>2026-05-03T07:56:39.999Z</time></trkpt><trkpt lat="43.7438042943825" lon="12.032059784277031"><ele>582.0</ele><time>2026-05-03T07:56:40.999Z</time></trkpt><trkpt lat="43.743978823415134" lon="12.032123192523784"><ele>582.0</ele><time>2026-05-03T07:56:41.999Z</time></trkpt><trkpt lat="43.744159397132215" lon="12.032185713180539"><ele>582.0</ele><time>2026-05-03T07:56:42.999Z</time></trkpt><trkpt lat="43.74433894368659" lon="12.032247474804077"><ele>582.0</ele><time>2026-05-03T07:56:43.999Z</time></trkpt><trkpt lat="43.744519682185214" lon="12.03230994158204"><ele>583.3333333333334</ele><time>2026-05-03T07:56:44.999Z</time></trkpt><trkpt lat="43.744704290171306" lon="12.032371911676007"><ele>584.6666666666667</ele><time>2026-05-03T07:56:45.999Z</time></trkpt><trkpt lat="43.74489018684481" lon="12.032434821254432"><ele>586.0</ele><time>2026-05-03T07:56:46.999Z</time></trkpt><trkpt lat="43.745078319307275" lon="12.032500227729342"><ele>588.6666666666667</ele><time>2026-05-03T07:56:47.999Z</time></trkpt><trkpt lat="43.74526433640376" lon="12.032566544214609"><ele>591.3333333333334</ele><time>2026-05-03T07:56:48.999Z</time></trkpt><trkpt lat="43.745449949939335" lon="12.032634122296626"><ele>594.0</ele><time>2026-05-03T07:56:49.999Z</time></trkpt><trkpt lat="43.74563708649367" lon="12.032698152596112"><ele>594.0</ele><time>2026-05-03T07:56:50.999Z</time></trkpt><trkpt lat="43.74582529989419" lon="12.032763407257912"><ele>594.0</ele><time>2026-05-03T07:56:51.999Z</time></trkpt><trkpt lat="43.746014424417616" lon="12.032831306389282"><ele>594.0</ele><time>2026-05-03T07:56:52.999Z</time></trkpt><trkpt lat="43.74620106110069" lon="12.032902276636205"><ele>593.6666666666666</ele><time>2026-05-03T07:56:53.999Z</time></trkpt><trkpt lat="43.746387803" lon="12.032973424024375"><ele>593.3333333333333</ele><time>2026-05-03T07:56:54.999Z</time></trkpt><trkpt lat="43.74657496402074" lon="12.03304826806401"><ele>593.0</ele><time>2026-05-03T07:56:55.999Z</time></trkpt><trkpt lat="43.74676135956761" lon="12.033128903334266"><ele>592.6666666666666</ele><time>2026-05-03T07:56:56.999Z</time></trkpt><trkpt lat="43.746943483788236" lon="12.033216517214244"><ele>592.3333333333334</ele><time>2026-05-03T07:56:57.999Z</time></trkpt><trkpt lat="43.747125796917985" lon="12.033305567236358"><ele>592.0</ele><time>2026-05-03T07:56:58.999Z</time></trkpt><trkpt lat="43.74730895080773" lon="12.033397870310834"><ele>595.3333333333334</ele><time>2026-05-03T07:56:59.999Z</time></trkpt><trkpt lat="43.74748925610479" lon="12.033498094529723"><ele>598.6666666666666</ele><time>2026-05-03T07:57:00.999Z</time></trkpt><trkpt lat="43.74766816878891" lon="12.033604234457997"><ele>602.0</ele><time>2026-05-03T07:57:01.999Z</time></trkpt><trkpt lat="43.747843297250775" lon="12.03371466974948"><ele>602.0</ele><time>2026-05-03T07:57:02.999Z</time></trkpt><trkpt lat="43.74801791361843" lon="12.033829649361227"><ele>602.0</ele><time>2026-05-03T07:57:03.999Z</time></trkpt><trkpt lat="43.74819141416278" lon="12.033948838332364"><ele>602.0</ele><time>2026-05-03T07:57:04.999Z</time></trkpt><trkpt lat="43.74836418907606" lon="12.0340670182296"><ele>601.3333333333333</ele><time>2026-05-03T07:57:05.999Z</time></trkpt><trkpt lat="43.748539297960065" lon="12.034187695346814"><ele>600.6666666666666</ele><time>2026-05-03T07:57:06.999Z</time></trkpt><trkpt lat="43.74871016712895" lon="12.034312207094228"><ele>600.0</ele><time>2026-05-03T07:57:07.999Z</time></trkpt><trkpt lat="43.74888119199764" lon="12.034435116634006"><ele>600.0</ele><time>2026-05-03T07:57:08.999Z</time></trkpt><trkpt lat="43.74905488768464" lon="12.034558617504924"><ele>600.0</ele><time>2026-05-03T07:57:09.999Z</time></trkpt><trkpt lat="43.74922986807763" lon="12.034683153946565"><ele>600.0</ele><time>2026-05-03T07:57:10.999Z</time></trkpt><trkpt lat="43.74940682138916" lon="12.034804622065957"><ele>603.3333333333334</ele><time>2026-05-03T07:57:11.999Z</time></trkpt><trkpt lat="43.749583077025896" lon="12.034927458426925"><ele>606.6666666666667</ele><time>2026-05-03T07:57:12.999Z</time></trkpt><trkpt lat="43.749760605241164" lon="12.03504790005981"><ele>610.0</ele><time>2026-05-03T07:57:13.999Z</time></trkpt><trkpt lat="43.749942137287796" lon="12.035164648450031"><ele>610.0</ele><time>2026-05-03T07:57:14.999Z</time></trkpt><trkpt lat="43.750123948529634" lon="12.035281252801639"><ele>610.0</ele><time>2026-05-03T07:57:15.999Z</time></trkpt><trkpt lat="43.7503056508578" lon="12.035393867455419"><ele>610.0</ele><time>2026-05-03T07:57:16.999Z</time></trkpt><trkpt lat="43.7504923946082" lon="12.035505134210496"><ele>609.6666666666667</ele><time>2026-05-03T07:57:17.999Z</time></trkpt><trkpt lat="43.75067730782428" lon="12.035612881767266"><ele>609.3333333333334</ele><time>2026-05-03T07:57:18.999Z</time></trkpt><trkpt lat="43.7508658039876" lon="12.035718731418017"><ele>609.0</ele><time>2026-05-03T07:57:19.998Z</time></trkpt><trkpt lat="43.7510569190068" lon="12.035820034991785"><ele>610.3333333333334</ele><time>2026-05-03T07:57:20.998Z</time></trkpt><trkpt lat="43.7512484459905" lon="12.035919146945151"><ele>611.6666666666667</ele><time>2026-05-03T07:57:21.998Z</time></trkpt><trkpt lat="43.75144184273394" lon="12.036014226784486"><ele>613.0</ele><time>2026-05-03T07:57:22.998Z</time></trkpt><trkpt lat="43.751635532161664" lon="12.036108458322234"><ele>613.0</ele><time>2026-05-03T07:57:23.998Z</time></trkpt><trkpt lat="43.751828392314245" lon="12.036198281041655"><ele>613.0</ele><time>2026-05-03T07:57:24.998Z</time></trkpt><trkpt lat="43.75202266735209" lon="12.036284700340408"><ele>613.0</ele><time>2026-05-03T07:57:25.998Z</time></trkpt><trkpt lat="43.752217540877595" lon="12.036367362990493"><ele>611.6666666666667</ele><time>2026-05-03T07:57:26.998Z</time></trkpt><trkpt lat="43.752413465909974" lon="12.036448763690895"><ele>610.3333333333334</ele><time>2026-05-03T07:57:27.998Z</time></trkpt><trkpt lat="43.752606040956984" lon="12.036528680516168"><ele>609.0</ele><time>2026-05-03T07:57:28.998Z</time></trkpt><trkpt lat="43.7527974618262" lon="12.03660431225337"><ele>614.0</ele><time>2026-05-03T07:57:29.998Z</time></trkpt><trkpt lat="43.75299117914848" lon="12.03667638556563"><ele>619.0</ele><time>2026-05-03T07:57:30.998Z</time></trkpt><trkpt lat="43.7531917265716" lon="12.03674493741368"><ele>624.0</ele><time>2026-05-03T07:57:31.998Z</time></trkpt><trkpt lat="43.75339264077461" lon="12.03681642665535"><ele>626.3333333333334</ele><time>2026-05-03T07:57:32.998Z</time></trkpt><trkpt lat="43.75359528597528" lon="12.036881401033046"><ele>628.6666666666667</ele><time>2026-05-03T07:57:33.998Z</time></trkpt><trkpt lat="43.75380131128757" lon="12.036944352391604"><ele>631.0</ele><time>2026-05-03T07:57:34.998Z</time></trkpt><trkpt lat="43.7540066583986" lon="12.037006407764345"><ele>631.0</ele><time>2026-05-03T07:57:35.998Z</time></trkpt><trkpt lat="43.754216078211044" lon="12.037059729625376"><ele>631.0</ele><time>2026-05-03T07:57:36.998Z</time></trkpt><trkpt lat="43.754425025452804" lon="12.037116694282041"><ele>631.0</ele><time>2026-05-03T07:57:37.998Z</time></trkpt><trkpt lat="43.754631513417685" lon="12.03717372625215"><ele>643.6666666666667</ele><time>2026-05-03T07:57:38.998Z</time></trkpt><trkpt lat="43.75484051752419" lon="12.037227550820667"><ele>656.3333333333334</ele><time>2026-05-03T07:57:39.998Z</time></trkpt><trkpt lat="43.75504967518616" lon="12.037282382194459"><ele>669.0</ele><time>2026-05-03T07:57:40.998Z</time></trkpt><trkpt lat="43.75525897154211" lon="12.037337249690925"><ele>671.3333333333334</ele><time>2026-05-03T07:57:41.998Z</time></trkpt><trkpt lat="43.75546740093852" lon="12.037394702793458"><ele>673.6666666666667</ele><time>2026-05-03T07:57:42.999Z</time></trkpt><trkpt lat="43.755675045075996" lon="12.037452742140184"><ele>676.0</ele><time>2026-05-03T07:57:43.999Z</time></trkpt><trkpt lat="43.7558837747552" lon="12.03751007334932"><ele>671.6666666666667</ele><time>2026-05-03T07:57:45Z</time></trkpt><trkpt lat="43.75609269433388" lon="12.037567186585642"><ele>667.3333333333334</ele><time>2026-05-03T07:57:46Z</time></trkpt><trkpt lat="43.75630088875827" lon="12.03762225721768"><ele>663.0</ele><time>2026-05-03T07:57:47Z</time></trkpt><trkpt lat="43.75650768373806" lon="12.037675202329979"><ele>663.0</ele><time>2026-05-03T07:57:48Z</time></trkpt><trkpt lat="43.75671447922273" lon="12.037729381511005"><ele>663.0</ele><time>2026-05-03T07:57:49Z</time></trkpt><trkpt lat="43.756919677371485" lon="12.037781216536363"><ele>663.0</ele><time>2026-05-03T07:57:50Z</time></trkpt><trkpt lat="43.75712384113222" lon="12.037835630123437"><ele>662.6666666666666</ele><time>2026-05-03T07:57:51Z</time></trkpt><trkpt lat="43.75732580571604" lon="12.037890281906451"><ele>662.3333333333333</ele><time>2026-05-03T07:57:52Z</time></trkpt><trkpt lat="43.757527256382026" lon="12.037943898837268"><ele>662.0</ele><time>2026-05-03T07:57:53Z</time></trkpt><trkpt lat="43.75772596601725" lon="12.037998609960425"><ele>670.0</ele><time>2026-05-03T07:57:54Z</time></trkpt><trkpt lat="43.75792348214603" lon="12.038053190471237"><ele>678.0</ele><time>2026-05-03T07:57:55Z</time></trkpt><trkpt lat="43.758118375668786" lon="12.038105870088115"><ele>686.0</ele><time>2026-05-03T07:57:56Z</time></trkpt><trkpt lat="43.75830936000482" lon="12.038157195706194"><ele>686.0</ele><time>2026-05-03T07:57:57Z</time></trkpt><trkpt lat="43.758499504925844" lon="12.038208126127808"><ele>686.0</ele><time>2026-05-03T07:57:58Z</time></trkpt><trkpt lat="43.75868677156224" lon="12.038256460447117"><ele>686.0</ele><time>2026-05-03T07:57:59Z</time></trkpt><trkpt lat="43.75887430545892" lon="12.038304245629417"><ele>691.0</ele><time>2026-05-03T07:58:00Z</time></trkpt><trkpt lat="43.7590600848934" lon="12.03835087989167"><ele>696.0</ele><time>2026-05-03T07:58:01Z</time></trkpt><trkpt lat="43.7592467891112" lon="12.038399256852294"><ele>701.0</ele><time>2026-05-03T07:58:02Z</time></trkpt><trkpt lat="43.75943505365623" lon="12.038449405105249"><ele>702.0</ele><time>2026-05-03T07:58:03Z</time></trkpt><trkpt lat="43.75962246532822" lon="12.038492981722205"><ele>703.0</ele><time>2026-05-03T07:58:04Z</time></trkpt><trkpt lat="43.759808603436966" lon="12.03853324102086"><ele>704.0</ele><time>2026-05-03T07:58:05Z</time></trkpt><trkpt lat="43.75999683067282" lon="12.038561049921148"><ele>704.0</ele><time>2026-05-03T07:58:06Z</time></trkpt><trkpt lat="43.76018563175572" lon="12.038576925351393"><ele>704.0</ele><time>2026-05-03T07:58:07Z</time></trkpt><trkpt lat="43.7603739946274" lon="12.038584740746401"><ele>704.0</ele><time>2026-05-03T07:58:08Z</time></trkpt><trkpt lat="43.760562627592236" lon="12.038581240000779"><ele>705.3333333333333</ele><time>2026-05-03T07:58:09Z</time></trkpt><trkpt lat="43.76074395445941" lon="12.03856964417898"><ele>706.6666666666666</ele><time>2026-05-03T07:58:10Z</time></trkpt><trkpt lat="43.760925625074485" lon="12.038551025283759"><ele>708.0</ele><time>2026-05-03T07:58:11Z</time></trkpt><trkpt lat="43.76110328080902" lon="12.038523416277723"><ele>708.0</ele><time>2026-05-03T07:58:12Z</time></trkpt><trkpt lat="43.76127738488999" lon="12.038479930450428"><ele>708.0</ele><time>2026-05-03T07:58:13Z</time></trkpt><trkpt lat="43.76144642144892" lon="12.038430804546673"><ele>708.0</ele><time>2026-05-03T07:58:14Z</time></trkpt><trkpt lat="43.76161259910358" lon="12.038375712349808"><ele>708.0</ele><time>2026-05-03T07:58:15Z</time></trkpt><trkpt lat="43.76177376219568" lon="12.038311372840278"><ele>708.0</ele><time>2026-05-03T07:58:16Z</time></trkpt><trkpt lat="43.761928182444144" lon="12.038245136853398"><ele>708.0</ele><time>2026-05-03T07:58:17Z</time></trkpt><trkpt lat="43.76206925901724" lon="12.038179902311839"><ele>709.5999999999999</ele><time>2026-05-03T07:58:18Z</time></trkpt><trkpt lat="43.76216523660977" lon="12.038137990199514"><ele>711.1999999999999</ele><time>2026-05-03T07:58:19Z</time></trkpt><trkpt lat="43.76225823914224" lon="12.03810051953508"><ele>712.8</ele><time>2026-05-03T07:58:20Z</time></trkpt><trkpt lat="43.76234628936061" lon="12.038062967877575"><ele>714.4</ele><time>2026-05-03T07:58:21Z</time></trkpt><trkpt lat="43.76244189473369" lon="12.038006880582648"><ele>716.0</ele><time>2026-05-03T07:58:22Z</time></trkpt><trkpt lat="43.762545528508824" lon="12.03794245613948"><ele>716.0</ele><time>2026-05-03T07:58:23Z</time></trkpt><trkpt lat="43.762650225610294" lon="12.037875985591825"><ele>716.0</ele><time>2026-05-03T07:58:24Z</time></trkpt><trkpt lat="43.76275567152131" lon="12.037811529179566"><ele>716.0</ele><time>2026-05-03T07:58:25Z</time></trkpt><trkpt lat="43.76286439159605" lon="12.037743853597476"><ele>716.0</ele><time>2026-05-03T07:58:26Z</time></trkpt><trkpt lat="43.7629711350101" lon="12.03767762433943"><ele>716.0</ele><time>2026-05-03T07:58:27Z</time></trkpt><trkpt lat="43.7630785322361" lon="12.037610374799893"><ele>716.0</ele><time>2026-05-03T07:58:28Z</time></trkpt><trkpt lat="43.7631901661264" lon="12.037542374073029"><ele>716.0</ele><time>2026-05-03T07:58:29Z</time></trkpt><trkpt lat="43.76330384858423" lon="12.037474343089045"><ele>716.0</ele><time>2026-05-03T07:58:30Z</time></trkpt><trkpt lat="43.7634166362516" lon="12.037399663652856"><ele>717.25</ele><time>2026-05-03T07:58:31Z</time></trkpt><trkpt lat="43.76352865748282" lon="12.037317336434175"><ele>718.5</ele><time>2026-05-03T07:58:32Z</time></trkpt><trkpt lat="43.763642786229234" lon="12.037230160069432"><ele>719.75</ele><time>2026-05-03T07:58:33Z</time></trkpt><trkpt lat="43.76376110902454" lon="12.037138982718592"><ele>721.0</ele><time>2026-05-03T07:58:34Z</time></trkpt><trkpt lat="43.76388473952014" lon="12.037040637936936"><ele>721.0</ele><time>2026-05-03T07:58:35Z</time></trkpt><trkpt lat="43.76401278576769" lon="12.036936188952636"><ele>721.0</ele><time>2026-05-03T07:58:36Z</time></trkpt><trkpt lat="43.76414622887032" lon="12.036820415399909"><ele>721.0</ele><time>2026-05-03T07:58:37Z</time></trkpt><trkpt lat="43.76428435377372" lon="12.036695233177477"><ele>722.0</ele><time>2026-05-03T07:58:38Z</time></trkpt><trkpt lat="43.764422719947035" lon="12.036561096141718"><ele>723.0</ele><time>2026-05-03T07:58:39Z</time></trkpt><trkpt lat="43.76455986199" lon="12.036415104840746"><ele>724.0</ele><time>2026-05-03T07:58:40Z</time></trkpt><trkpt lat="43.76468776258201" lon="12.036263140135363"><ele>724.0</ele><time>2026-05-03T07:58:41Z</time></trkpt><trkpt lat="43.764814431165846" lon="12.036112939666854"><ele>724.0</ele><time>2026-05-03T07:58:42Z</time></trkpt><trkpt lat="43.76493546722637" lon="12.035957385903753"><ele>724.0</ele><time>2026-05-03T07:58:43Z</time></trkpt><trkpt lat="43.76509837817857" lon="12.035794053359776"><ele>722.3333333333334</ele><time>2026-05-03T07:58:44Z</time></trkpt><trkpt lat="43.765227858730526" lon="12.035616076469418"><ele>720.6666666666666</ele><time>2026-05-03T07:58:45Z</time></trkpt><trkpt lat="43.765358770939166" lon="12.035425891218141"><ele>719.0</ele><time>2026-05-03T07:58:46Z</time></trkpt><trkpt lat="43.765482383350395" lon="12.035230389631502"><ele>719.0</ele><time>2026-05-03T07:58:47Z</time></trkpt><trkpt lat="43.7656014476591" lon="12.035024385904599"><ele>719.0</ele><time>2026-05-03T07:58:48Z</time></trkpt><trkpt lat="43.765727576065814" lon="12.034809492495649"><ele>719.0</ele><time>2026-05-03T07:58:49Z</time></trkpt><trkpt lat="43.765857773459224" lon="12.034596395562167"><ele>719.0</ele><time>2026-05-03T07:58:50Z</time></trkpt><trkpt lat="43.76599145287989" lon="12.03437255070985"><ele>719.0</ele><time>2026-05-03T07:58:51Z</time></trkpt><trkpt lat="43.766124135837096" lon="12.034144873442104"><ele>719.0</ele><time>2026-05-03T07:58:52Z</time></trkpt><trkpt lat="43.76625812834162" lon="12.033914635052113"><ele>719.0</ele><time>2026-05-03T07:58:53Z</time></trkpt><trkpt lat="43.76639840841595" lon="12.033677084450366"><ele>719.0</ele><time>2026-05-03T07:58:54Z</time></trkpt><trkpt lat="43.76653924911294" lon="12.033436435559091"><ele>719.0</ele><time>2026-05-03T07:58:55Z</time></trkpt><trkpt lat="43.76668443685244" lon="12.03320304230282"><ele>715.0</ele><time>2026-05-03T07:58:56Z</time></trkpt><trkpt lat="43.76682038844933" lon="12.032960818680255"><ele>711.0</ele><time>2026-05-03T07:58:57Z</time></trkpt><trkpt lat="43.766965674413115" lon="12.032717244640097"><ele>711.0</ele><time>2026-05-03T07:58:58Z</time></trkpt><trkpt lat="43.76711084155653" lon="12.03247454020421"><ele>711.0</ele><time>2026-05-03T07:58:59Z</time></trkpt><trkpt lat="43.76725699581305" lon="12.032224043575383"><ele>710.0</ele><time>2026-05-03T07:59:00Z</time></trkpt><trkpt lat="43.76739819421274" lon="12.031979365540423"><ele>709.0</ele><time>2026-05-03T07:59:01Z</time></trkpt><trkpt lat="43.767531650680034" lon="12.031728455319689"><ele>710.0</ele><time>2026-05-03T07:59:02Z</time></trkpt><trkpt lat="43.767656889594065" lon="12.031476861483226"><ele>711.0</ele><time>2026-05-03T07:59:03Z</time></trkpt><trkpt lat="43.767777046967566" lon="12.031217181470602"><ele>712.0</ele><time>2026-05-03T07:59:04Z</time></trkpt><trkpt lat="43.767889042133305" lon="12.030954798475278"><ele>724.0</ele><time>2026-05-03T07:59:05Z</time></trkpt><trkpt lat="43.76798117232997" lon="12.030682895957586"><ele>736.0</ele><time>2026-05-03T07:59:06Z</time></trkpt><trkpt lat="43.76807454424001" lon="12.030400281377842"><ele>748.0</ele><time>2026-05-03T07:59:07Z</time></trkpt><trkpt lat="43.768155270969395" lon="12.030110488965047"><ele>746.5</ele><time>2026-05-03T07:59:08Z</time></trkpt><trkpt lat="43.7682231531172" lon="12.029811418997788"><ele>745.0</ele><time>2026-05-03T07:59:09Z</time></trkpt><trkpt lat="43.76828140642042" lon="12.029499949527587"><ele>745.0</ele><time>2026-05-03T07:59:10Z</time></trkpt><trkpt lat="43.7683292810838" lon="12.029190330435801"><ele>745.0</ele><time>2026-05-03T07:59:11Z</time></trkpt><trkpt lat="43.76836751643484" lon="12.028883177660134"><ele>747.0</ele><time>2026-05-03T07:59:12Z</time></trkpt><trkpt lat="43.76839665183515" lon="12.028574662223281"><ele>749.0</ele><time>2026-05-03T07:59:13Z</time></trkpt><trkpt lat="43.7684170688817" lon="12.02826054488206"><ele>749.0</ele><time>2026-05-03T07:59:14Z</time></trkpt><trkpt lat="43.76843231798616" lon="12.027946818098288"><ele>749.0</ele><time>2026-05-03T07:59:15Z</time></trkpt><trkpt lat="43.76845044724714" lon="12.027643549410104"><ele>749.0</ele><time>2026-05-03T07:59:16Z</time></trkpt><trkpt lat="43.76846820838237" lon="12.027334707909068"><ele>749.5</ele><time>2026-05-03T07:59:17Z</time></trkpt><trkpt lat="43.76849008543582" lon="12.027021429268814"><ele>750.0</ele><time>2026-05-03T07:59:18Z</time></trkpt><trkpt lat="43.768521371451406" lon="12.026716325115702"><ele>757.0</ele><time>2026-05-03T07:59:19Z</time></trkpt><trkpt lat="43.76855964328012" lon="12.026412440467249"><ele>764.0</ele><time>2026-05-03T07:59:20Z</time></trkpt><trkpt lat="43.76860681151301" lon="12.026105610359588"><ele>771.0</ele><time>2026-05-03T07:59:21Z</time></trkpt><trkpt lat="43.76866725973552" lon="12.02580956179969"><ele>771.0</ele><time>2026-05-03T07:59:22Z</time></trkpt><trkpt lat="43.76873692355956" lon="12.025506895011265"><ele>771.0</ele><time>2026-05-03T07:59:22.999Z</time></trkpt><trkpt lat="43.76882274181477" lon="12.02520984856418"><ele>764.5</ele><time>2026-05-03T07:59:23.999Z</time></trkpt><trkpt lat="43.76892014143602" lon="12.024919915837204"><ele>758.0</ele><time>2026-05-03T07:59:24.999Z</time></trkpt><trkpt lat="43.76902679374073" lon="12.024638553643348"><ele>758.0</ele><time>2026-05-03T07:59:25.999Z</time></trkpt><trkpt lat="43.76914221668997" lon="12.024359545933498"><ele>758.0</ele><time>2026-05-03T07:59:26.999Z</time></trkpt><trkpt lat="43.769270666961376" lon="12.024090717613316"><ele>761.5</ele><time>2026-05-03T07:59:27.999Z</time></trkpt><trkpt lat="43.76940763523457" lon="12.023829522950852"><ele>765.0</ele><time>2026-05-03T07:59:28.999Z</time></trkpt><trkpt lat="43.769559431348526" lon="12.023583138735109"><ele>765.0</ele><time>2026-05-03T07:59:29.999Z</time></trkpt><trkpt lat="43.769716158967675" lon="12.023344301786329"><ele>765.0</ele><time>2026-05-03T07:59:30.999Z</time></trkpt><trkpt lat="43.76988512263028" lon="12.02312068168321"><ele>763.5</ele><time>2026-05-03T07:59:31.999Z</time></trkpt><trkpt lat="43.77005925395475" lon="12.022907647256043"><ele>762.0</ele><time>2026-05-03T07:59:32.999Z</time></trkpt><trkpt lat="43.770244342390484" lon="12.022711753721707"><ele>767.5</ele><time>2026-05-03T07:59:33.999Z</time></trkpt><trkpt lat="43.77043372631242" lon="12.022526229887324"><ele>773.0</ele><time>2026-05-03T07:59:34.999Z</time></trkpt><trkpt lat="43.7706275590095" lon="12.02235324922313"><ele>773.0</ele><time>2026-05-03T07:59:35.999Z</time></trkpt><trkpt lat="43.770825420763636" lon="12.022192649011071"><ele>773.0</ele><time>2026-05-03T07:59:36.999Z</time></trkpt><trkpt lat="43.77102739445966" lon="12.022050818927392"><ele>778.5</ele><time>2026-05-03T07:59:37.999Z</time></trkpt><trkpt lat="43.771233192105356" lon="12.021924357485318"><ele>784.0</ele><time>2026-05-03T07:59:38.999Z</time></trkpt><trkpt lat="43.77144204533725" lon="12.021796324773273"><ele>784.0</ele><time>2026-05-03T07:59:39.999Z</time></trkpt><trkpt lat="43.77164775044878" lon="12.021679492167591"><ele>784.0</ele><time>2026-05-03T07:59:40.999Z</time></trkpt><trkpt lat="43.77185491093886" lon="12.02155628395081"><ele>784.0</ele><time>2026-05-03T07:59:41.999Z</time></trkpt><trkpt lat="43.772061877868076" lon="12.021439263964629"><ele>783.0</ele><time>2026-05-03T07:59:42.999Z</time></trkpt><trkpt lat="43.77226942532523" lon="12.021324155830882"><ele>782.0</ele><time>2026-05-03T07:59:43.999Z</time></trkpt><trkpt lat="43.77247589142999" lon="12.021209211017338"><ele>781.0</ele><time>2026-05-03T07:59:44.999Z</time></trkpt><trkpt lat="43.77268095604481" lon="12.021094249832377"><ele>783.6666666666666</ele><time>2026-05-03T07:59:45.999Z</time></trkpt><trkpt lat="43.772884815061495" lon="12.020978317799397"><ele>786.3333333333333</ele><time>2026-05-03T07:59:46.999Z</time></trkpt><trkpt lat="43.773088839703576" lon="12.020861779414355"><ele>789.0</ele><time>2026-05-03T07:59:47.999Z</time></trkpt><trkpt lat="43.77329453872578" lon="12.020746295139903"><ele>792.0</ele><time>2026-05-03T07:59:48.999Z</time></trkpt><trkpt lat="43.77350300919189" lon="12.020635707170204"><ele>795.0</ele><time>2026-05-03T07:59:49.999Z</time></trkpt><trkpt lat="43.773715111402595" lon="12.020521376988796"><ele>795.5</ele><time>2026-05-03T07:59:51Z</time></trkpt><trkpt lat="43.77392571420923" lon="12.020408973946234"><ele>796.0</ele><time>2026-05-03T07:59:52Z</time></trkpt><trkpt lat="43.77413733777985" lon="12.020302873145736"><ele>796.0</ele><time>2026-05-03T07:59:53Z</time></trkpt><trkpt lat="43.77435297752227" lon="12.02018621846078"><ele>796.0</ele><time>2026-05-03T07:59:54Z</time></trkpt><trkpt lat="43.77456831564819" lon="12.020074424912998"><ele>798.0</ele><time>2026-05-03T07:59:55Z</time></trkpt><trkpt lat="43.77478250372257" lon="12.01996194158118"><ele>800.0</ele><time>2026-05-03T07:59:56Z</time></trkpt><trkpt lat="43.774997972572365" lon="12.019845949878212"><ele>801.5</ele><time>2026-05-03T07:59:57Z</time></trkpt><trkpt lat="43.775213739663734" lon="12.019732311492705"><ele>803.0</ele><time>2026-05-03T07:59:58Z</time></trkpt><trkpt lat="43.77542998918522" lon="12.019616281067716"><ele>803.0</ele><time>2026-05-03T07:59:59Z</time></trkpt><trkpt lat="43.77564456079836" lon="12.019488964449417"><ele>803.0</ele><time>2026-05-03T08:00:00Z</time></trkpt><trkpt lat="43.77585954870106" lon="12.019363581484813"><ele>806.0</ele><time>2026-05-03T08:00:01Z</time></trkpt><trkpt lat="43.776072851336444" lon="12.01924644190889"><ele>809.0</ele><time>2026-05-03T08:00:02Z</time></trkpt><trkpt lat="43.776281060456974" lon="12.019129649602107"><ele>812.6666666666667</ele><time>2026-05-03T08:00:03Z</time></trkpt><trkpt lat="43.77648409815063" lon="12.019014286802776"><ele>816.3333333333333</ele><time>2026-05-03T08:00:04Z</time></trkpt><trkpt lat="43.77667872698648" lon="12.018911154706771"><ele>820.0</ele><time>2026-05-03T08:00:05Z</time></trkpt><trkpt lat="43.776872688738194" lon="12.018808727672404"><ele>820.0</ele><time>2026-05-03T08:00:06Z</time></trkpt><trkpt lat="43.77706695583059" lon="12.018704760905223"><ele>820.0</ele><time>2026-05-03T08:00:07Z</time></trkpt><trkpt lat="43.77726155359175" lon="12.018596985440507"><ele>820.0</ele><time>2026-05-03T08:00:08Z</time></trkpt><trkpt lat="43.77745664230965" lon="12.018484625463463"><ele>820.0</ele><time>2026-05-03T08:00:09Z</time></trkpt><trkpt lat="43.77766246690952" lon="12.018365682809211"><ele>820.0</ele><time>2026-05-03T08:00:10.073Z</time></trkpt><trkpt lat="43.77785649585275" lon="12.018256910000321"><ele>820.0</ele><time>2026-05-03T08:00:11.069Z</time></trkpt><trkpt lat="43.778049324862145" lon="12.018148161741692"><ele>779.0</ele><time>2026-05-03T08:00:12.057Z</time></trkpt><trkpt lat="43.783948906816754" lon="12.014795312721533"><ele>790.0</ele><time>2026-05-03T08:00:36Z</time></trkpt><trkpt lat="43.784419138350806" lon="12.015200974272789"><ele>776.0</ele><time>2026-05-03T08:00:37Z</time></trkpt><trkpt lat="43.78436386169372" lon="12.014525645151327"><ele>776.0</ele><time>2026-05-03T08:00:38Z</time></trkpt><trkpt lat="43.78459753061272" lon="12.01436227448379"><ele>776.0</ele><time>2026-05-03T08:00:39Z</time></trkpt><trkpt lat="43.7848185366965" lon="12.014178301704561"><ele>775.5</ele><time>2026-05-03T08:00:40Z</time></trkpt><trkpt lat="43.78503601129397" lon="12.014000794682294"><ele>775.0</ele><time>2026-05-03T08:00:41Z</time></trkpt><trkpt lat="43.78524602456014" lon="12.013808003382588"><ele>771.5</ele><time>2026-05-03T08:00:42Z</time></trkpt><trkpt lat="43.78545449541143" lon="12.01360631064243"><ele>768.0</ele><time>2026-05-03T08:00:43Z</time></trkpt><trkpt lat="43.785656861587185" lon="12.013401036675267"><ele>771.0</ele><time>2026-05-03T08:00:44Z</time></trkpt><trkpt lat="43.78585502047038" lon="12.013187646616773"><ele>774.0</ele><time>2026-05-03T08:00:45Z</time></trkpt><trkpt lat="43.78604700964801" lon="12.01295512379747"><ele>774.0</ele><time>2026-05-03T08:00:46Z</time></trkpt><trkpt lat="43.78623457418217" lon="12.012716584726892"><ele>774.0</ele><time>2026-05-03T08:00:47Z</time></trkpt><trkpt lat="43.78642791098113" lon="12.012496252553934"><ele>784.5</ele><time>2026-05-03T08:00:48Z</time></trkpt><trkpt lat="43.78661859417381" lon="12.01226412463685"><ele>795.0</ele><time>2026-05-03T08:00:49Z</time></trkpt><trkpt lat="43.78681244578065" lon="12.01203074785084"><ele>784.0</ele><time>2026-05-03T08:00:50Z</time></trkpt><trkpt lat="43.78700404072962" lon="12.011799258108155"><ele>773.0</ele><time>2026-05-03T08:00:51Z</time></trkpt><trkpt lat="43.78719615094614" lon="12.011565139555408"><ele>773.0</ele><time>2026-05-03T08:00:52Z</time></trkpt><trkpt lat="43.78738323989616" lon="12.011328910125211"><ele>773.0</ele><time>2026-05-03T08:00:53Z</time></trkpt><trkpt lat="43.78757175465853" lon="12.011094135829385"><ele>751.5</ele><time>2026-05-03T08:00:54Z</time></trkpt><trkpt lat="43.78776129061067" lon="12.01083970211541"><ele>730.0</ele><time>2026-05-03T08:00:55.071Z</time></trkpt><trkpt lat="43.78779690455329" lon="12.010455955680644"><ele>729.5</ele><time>2026-05-03T08:00:56Z</time></trkpt><trkpt lat="43.78787060759394" lon="12.010041194256916"><ele>729.0</ele><time>2026-05-03T08:00:57Z</time></trkpt><trkpt lat="43.78799785509814" lon="12.00974198081344"><ele>730.0</ele><time>2026-05-03T08:00:58Z</time></trkpt><trkpt lat="43.78813404514092" lon="12.009442655378752"><ele>731.0</ele><time>2026-05-03T08:00:59Z</time></trkpt><trkpt lat="43.7882693481572" lon="12.009153207722907"><ele>730.5</ele><time>2026-05-03T08:01:00Z</time></trkpt><trkpt lat="43.78840588737507" lon="12.008862940517995"><ele>730.0</ele><time>2026-05-03T08:01:01Z</time></trkpt><trkpt lat="43.7885455110397" lon="12.008576242694213"><ele>728.5</ele><time>2026-05-03T08:01:02Z</time></trkpt><trkpt lat="43.78868489504026" lon="12.008291969176438"><ele>727.0</ele><time>2026-05-03T08:01:03Z</time></trkpt><trkpt lat="43.78882572615576" lon="12.008003437811702"><ele>727.0</ele><time>2026-05-03T08:01:04Z</time></trkpt><trkpt lat="43.78896401227222" lon="12.007712677806774"><ele>727.0</ele><time>2026-05-03T08:01:05Z</time></trkpt><trkpt lat="43.78910524253454" lon="12.007426891997614"><ele>722.0</ele><time>2026-05-03T08:01:06Z</time></trkpt><trkpt lat="43.78924686615985" lon="12.007140304719059"><ele>717.0</ele><time>2026-05-03T08:01:07Z</time></trkpt><trkpt lat="43.789388956408224" lon="12.006848400872672"><ele>728.0</ele><time>2026-05-03T08:01:08Z</time></trkpt><trkpt lat="43.78952973769996" lon="12.006563520139466"><ele>739.0</ele><time>2026-05-03T08:01:09Z</time></trkpt><trkpt lat="43.789669978729" lon="12.00627341840768"><ele>739.0</ele><time>2026-05-03T08:01:10Z</time></trkpt><trkpt lat="43.78981328806334" lon="12.005981287617761"><ele>739.0</ele><time>2026-05-03T08:01:11Z</time></trkpt><trkpt lat="43.78995721312177" lon="12.005684263937193"><ele>741.0</ele><time>2026-05-03T08:01:12Z</time></trkpt><trkpt lat="43.79010222629277" lon="12.005388193853053"><ele>743.0</ele><time>2026-05-03T08:01:13Z</time></trkpt><trkpt lat="43.79024609662312" lon="12.005092610771477"><ele>738.5</ele><time>2026-05-03T08:01:14Z</time></trkpt><trkpt lat="43.79039154289505" lon="12.004794672455612"><ele>734.0</ele><time>2026-05-03T08:01:15Z</time></trkpt><trkpt lat="43.790540091974556" lon="12.004496620512858"><ele>734.0</ele><time>2026-05-03T08:01:16Z</time></trkpt><trkpt lat="43.790689098657325" lon="12.004205635474813"><ele>734.0</ele><time>2026-05-03T08:01:17Z</time></trkpt><trkpt lat="43.79085298177821" lon="12.003930240905254"><ele>757.0</ele><time>2026-05-03T08:01:18Z</time></trkpt><trkpt lat="43.791029827471704" lon="12.00365983997198"><ele>780.0</ele><time>2026-05-03T08:01:19Z</time></trkpt><trkpt lat="43.79121426872268" lon="12.003415414414441"><ele>788.0</ele><time>2026-05-03T08:01:20Z</time></trkpt><trkpt lat="43.79141089257407" lon="12.003182334330925"><ele>796.0</ele><time>2026-05-03T08:01:21Z</time></trkpt><trkpt lat="43.79161288829709" lon="12.002952656959241"><ele>796.0</ele><time>2026-05-03T08:01:22Z</time></trkpt><trkpt lat="43.79180965435837" lon="12.002722957966224"><ele>796.0</ele><time>2026-05-03T08:01:23Z</time></trkpt><trkpt lat="43.7920060749648" lon="12.002489536387944"><ele>793.5</ele><time>2026-05-03T08:01:24Z</time></trkpt><trkpt lat="43.79220314233154" lon="12.002258276236917"><ele>791.0</ele><time>2026-05-03T08:01:25Z</time></trkpt><trkpt lat="43.79240161982308" lon="12.002030696913037"><ele>791.0</ele><time>2026-05-03T08:01:26Z</time></trkpt><trkpt lat="43.792581363441805" lon="12.001808585191743"><ele>791.0</ele><time>2026-05-03T08:01:27Z</time></trkpt><trkpt lat="43.79277332160465" lon="12.001586275610498"><ele>768.0</ele><time>2026-05-03T08:01:28Z</time></trkpt><trkpt lat="43.79296484676971" lon="12.001367297356202"><ele>745.0</ele><time>2026-05-03T08:01:28.999Z</time></trkpt><trkpt lat="43.79322298691773" lon="12.000997058353345"><ele>738.5</ele><time>2026-05-03T08:01:29.999Z</time></trkpt><trkpt lat="43.793421280223406" lon="12.000764609978043"><ele>732.0</ele><time>2026-05-03T08:01:30.999Z</time></trkpt><trkpt lat="43.79360188650737" lon="12.00054247098743"><ele>716.0</ele><time>2026-05-03T08:01:31.999Z</time></trkpt><trkpt lat="43.79379181458593" lon="12.000264230811805"><ele>700.0</ele><time>2026-05-03T08:01:32.999Z</time></trkpt><trkpt lat="43.79399302611771" lon="12.000051352142961"><ele>700.0</ele><time>2026-05-03T08:01:33.999Z</time></trkpt><trkpt lat="43.7941849726225" lon="11.999821232954643"><ele>700.0</ele><time>2026-05-03T08:01:34.999Z</time></trkpt><trkpt lat="43.79436700184825" lon="11.999592088942492"><ele>694.0</ele><time>2026-05-03T08:01:35.999Z</time></trkpt><trkpt lat="43.794547278959726" lon="11.999364545809883"><ele>688.0</ele><time>2026-05-03T08:01:36.999Z</time></trkpt><trkpt lat="43.79472964608554" lon="11.999140080915513"><ele>688.0</ele><time>2026-05-03T08:01:37.999Z</time></trkpt><trkpt lat="43.79490833505331" lon="11.998919110494962"><ele>688.0</ele><time>2026-05-03T08:01:38.999Z</time></trkpt><trkpt lat="43.795083166936706" lon="11.998701603244525"><ele>697.0</ele><time>2026-05-03T08:01:39.999Z</time></trkpt><trkpt lat="43.79525820357251" lon="11.99848390672759"><ele>706.0</ele><time>2026-05-03T08:01:40.999Z</time></trkpt><trkpt lat="43.795431918684024" lon="11.99826564277464"><ele>708.0</ele><time>2026-05-03T08:01:41.999Z</time></trkpt><trkpt lat="43.79560835459078" lon="11.998046296990314"><ele>710.0</ele><time>2026-05-03T08:01:42.999Z</time></trkpt><trkpt lat="43.79578730604008" lon="11.997828492125755"><ele>710.0</ele><time>2026-05-03T08:01:43.999Z</time></trkpt><trkpt lat="43.79596680811933" lon="11.997612569626378"><ele>710.0</ele><time>2026-05-03T08:01:44.999Z</time></trkpt><trkpt lat="43.7961487813761" lon="11.997396002736963"><ele>712.5</ele><time>2026-05-03T08:01:45.999Z</time></trkpt><trkpt lat="43.796328075331694" lon="11.997179073106416"><ele>715.0</ele><time>2026-05-03T08:01:46.999Z</time></trkpt><trkpt lat="43.7965062893042" lon="11.996956856535164"><ele>715.0</ele><time>2026-05-03T08:01:47.999Z</time></trkpt><trkpt lat="43.796682680546226" lon="11.996733930902122"><ele>715.0</ele><time>2026-05-03T08:01:48.999Z</time></trkpt><trkpt lat="43.79685995146536" lon="11.99650490184331"><ele>712.0</ele><time>2026-05-03T08:01:49.999Z</time></trkpt><trkpt lat="43.797027529844534" lon="11.99626781367441"><ele>709.0</ele><time>2026-05-03T08:01:50.999Z</time></trkpt><trkpt lat="43.79718668834989" lon="11.996020519093102"><ele>703.5</ele><time>2026-05-03T08:01:51.999Z</time></trkpt><trkpt lat="43.797334596722365" lon="11.995776314890426"><ele>698.0</ele><time>2026-05-03T08:01:52.999Z</time></trkpt><trkpt lat="43.797478117110934" lon="11.995527730408739"><ele>698.0</ele><time>2026-05-03T08:01:53.999Z</time></trkpt><trkpt lat="43.79761094055002" lon="11.995271936254222"><ele>698.0</ele><time>2026-05-03T08:01:54.999Z</time></trkpt><trkpt lat="43.7977338658007" lon="11.995017043505847"><ele>698.0</ele><time>2026-05-03T08:01:55.999Z</time></trkpt><trkpt lat="43.79783664994234" lon="11.994762606964349"><ele>693.3333333333333</ele><time>2026-05-03T08:01:57Z</time></trkpt><trkpt lat="43.79792761465676" lon="11.994513748400664"><ele>688.6666666666666</ele><time>2026-05-03T08:01:58Z</time></trkpt><trkpt lat="43.798007022250566" lon="11.994268227370426"><ele>684.0</ele><time>2026-05-03T08:01:59Z</time></trkpt><trkpt lat="43.798077991830475" lon="11.994030069224621"><ele>678.0</ele><time>2026-05-03T08:02:00Z</time></trkpt><trkpt lat="43.798246828963684" lon="11.993672268093885"><ele>672.0</ele><time>2026-05-03T08:02:01Z</time></trkpt><trkpt lat="43.798323465636464" lon="11.993389054252997"><ele>670.0</ele><time>2026-05-03T08:02:02Z</time></trkpt><trkpt lat="43.7983938124332" lon="11.993094544552925"><ele>668.0</ele><time>2026-05-03T08:02:03Z</time></trkpt><trkpt lat="43.79845332186577" lon="11.992794552124625"><ele>666.0</ele><time>2026-05-03T08:02:04Z</time></trkpt><trkpt lat="43.79850157042312" lon="11.992491279145831"><ele>674.5</ele><time>2026-05-03T08:02:05Z</time></trkpt><trkpt lat="43.79854051225421" lon="11.992182091349719"><ele>683.0</ele><time>2026-05-03T08:02:06Z</time></trkpt><trkpt lat="43.79858010453237" lon="11.991868057580021"><ele>674.0</ele><time>2026-05-03T08:02:07Z</time></trkpt><trkpt lat="43.79861204912283" lon="11.99155570480165"><ele>665.0</ele><time>2026-05-03T08:02:08Z</time></trkpt><trkpt lat="43.79863109466657" lon="11.991234917276016"><ele>665.0</ele><time>2026-05-03T08:02:09Z</time></trkpt><trkpt lat="43.798644546316396" lon="11.99090824709017"><ele>665.0</ele><time>2026-05-03T08:02:10Z</time></trkpt><trkpt lat="43.798650294869034" lon="11.990584328255682"><ele>658.0</ele><time>2026-05-03T08:02:11Z</time></trkpt><trkpt lat="43.79864131315909" lon="11.990252004085944"><ele>651.0</ele><time>2026-05-03T08:02:12Z</time></trkpt><trkpt lat="43.79862810975169" lon="11.989925596303163"><ele>648.5</ele><time>2026-05-03T08:02:13Z</time></trkpt><trkpt lat="43.798611986190366" lon="11.98959589316428"><ele>646.0</ele><time>2026-05-03T08:02:14Z</time></trkpt><trkpt lat="43.79859471083797" lon="11.98926685207467"><ele>642.5</ele><time>2026-05-03T08:02:15Z</time></trkpt><trkpt lat="43.798570788596216" lon="11.988932990161667"><ele>639.0</ele><time>2026-05-03T08:02:16Z</time></trkpt><trkpt lat="43.79854518071352" lon="11.988601812972187"><ele>634.5</ele><time>2026-05-03T08:02:17Z</time></trkpt><trkpt lat="43.79851309540652" lon="11.988275382669842"><ele>630.0</ele><time>2026-05-03T08:02:18Z</time></trkpt><trkpt lat="43.798471210478134" lon="11.987937118499678"><ele>631.5</ele><time>2026-05-03T08:02:19Z</time></trkpt><trkpt lat="43.79842766810628" lon="11.98760643514827"><ele>633.0</ele><time>2026-05-03T08:02:20Z</time></trkpt><trkpt lat="43.79837653034098" lon="11.987278122268433"><ele>633.0</ele><time>2026-05-03T08:02:21Z</time></trkpt><trkpt lat="43.798332229130764" lon="11.986941176552827"><ele>633.0</ele><time>2026-05-03T08:02:22Z</time></trkpt><trkpt lat="43.7982712071123" lon="11.98660524159755"><ele>633.0</ele><time>2026-05-03T08:02:23Z</time></trkpt><trkpt lat="43.79821283605876" lon="11.986275694630903"><ele>633.0</ele><time>2026-05-03T08:02:24Z</time></trkpt><trkpt lat="43.798144656147926" lon="11.985947867913387"><ele>629.5</ele><time>2026-05-03T08:02:25Z</time></trkpt><trkpt lat="43.798066403262325" lon="11.985624769880262"><ele>626.0</ele><time>2026-05-03T08:02:26Z</time></trkpt><trkpt lat="43.797982096693005" lon="11.985302968957878"><ele>628.5</ele><time>2026-05-03T08:02:27Z</time></trkpt><trkpt lat="43.797896858961856" lon="11.984982165566475"><ele>631.0</ele><time>2026-05-03T08:02:28Z</time></trkpt><trkpt lat="43.79781459848632" lon="11.984657718778026"><ele>631.0</ele><time>2026-05-03T08:02:29Z</time></trkpt><trkpt lat="43.79773320506027" lon="11.984337966160798"><ele>631.0</ele><time>2026-05-03T08:02:30Z</time></trkpt><trkpt lat="43.79765102339574" lon="11.984018737165307"><ele>630.0</ele><time>2026-05-03T08:02:31Z</time></trkpt><trkpt lat="43.79757412012624" lon="11.983699520929093"><ele>629.0</ele><time>2026-05-03T08:02:32Z</time></trkpt><trkpt lat="43.79750714729154" lon="11.983378230006215"><ele>622.5</ele><time>2026-05-03T08:02:33Z</time></trkpt><trkpt lat="43.797459054565486" lon="11.983052729408417"><ele>616.0</ele><time>2026-05-03T08:02:34Z</time></trkpt><trkpt lat="43.79743093078615" lon="11.982724500133926"><ele>615.5</ele><time>2026-05-03T08:02:35Z</time></trkpt><trkpt lat="43.79741877127161" lon="11.982396696401091"><ele>615.0</ele><time>2026-05-03T08:02:36Z</time></trkpt><trkpt lat="43.797420894759654" lon="11.98206836156826"><ele>615.0</ele><time>2026-05-03T08:02:37Z</time></trkpt><trkpt lat="43.79744781112279" lon="11.981738551393095"><ele>615.0</ele><time>2026-05-03T08:02:38Z</time></trkpt><trkpt lat="43.7974822354946" lon="11.981411446847002"><ele>616.0</ele><time>2026-05-03T08:02:39Z</time></trkpt><trkpt lat="43.79753211122925" lon="11.9810887804208"><ele>617.0</ele><time>2026-05-03T08:02:40Z</time></trkpt><trkpt lat="43.797600538975864" lon="11.980769143817843"><ele>627.0</ele><time>2026-05-03T08:02:41Z</time></trkpt><trkpt lat="43.7976837026213" lon="11.980461788287265"><ele>637.0</ele><time>2026-05-03T08:02:42Z</time></trkpt><trkpt lat="43.7977806254891" lon="11.980157445518298"><ele>629.5</ele><time>2026-05-03T08:02:43Z</time></trkpt><trkpt lat="43.79788853459733" lon="11.979868635232657"><ele>622.0</ele><time>2026-05-03T08:02:44Z</time></trkpt><trkpt lat="43.798009853548564" lon="11.97959219338071"><ele>622.0</ele><time>2026-05-03T08:02:45Z</time></trkpt><trkpt lat="43.798147518609326" lon="11.979327617216024"><ele>622.0</ele><time>2026-05-03T08:02:46Z</time></trkpt><trkpt lat="43.798296862430476" lon="11.97907603059186"><ele>621.5</ele><time>2026-05-03T08:02:47Z</time></trkpt><trkpt lat="43.798456397367474" lon="11.97883881005147"><ele>621.0</ele><time>2026-05-03T08:02:48Z</time></trkpt><trkpt lat="43.79862987108318" lon="11.978619541198595"><ele>621.0</ele><time>2026-05-03T08:02:49Z</time></trkpt><trkpt lat="43.79880778870049" lon="11.978412300949387"><ele>621.0</ele><time>2026-05-03T08:02:50Z</time></trkpt><trkpt lat="43.798987711367396" lon="11.978213940543583"><ele>611.5</ele><time>2026-05-03T08:02:51Z</time></trkpt><trkpt lat="43.79918092024552" lon="11.978050401484444"><ele>602.0</ele><time>2026-05-03T08:02:52Z</time></trkpt><trkpt lat="43.79938561699683" lon="11.97789609457192"><ele>596.0</ele><time>2026-05-03T08:02:53Z</time></trkpt><trkpt lat="43.79959531229166" lon="11.977766143790816"><ele>590.0</ele><time>2026-05-03T08:02:54Z</time></trkpt><trkpt lat="43.79981335911956" lon="11.977654481302746"><ele>590.0</ele><time>2026-05-03T08:02:55Z</time></trkpt><trkpt lat="43.8000355545956" lon="11.977565031736217"><ele>590.0</ele><time>2026-05-03T08:02:56Z</time></trkpt><trkpt lat="43.80026229032788" lon="11.977490034415869"><ele>591.0</ele><time>2026-05-03T08:02:57Z</time></trkpt><trkpt lat="43.80049190481273" lon="11.977437018008533"><ele>592.0</ele><time>2026-05-03T08:02:58Z</time></trkpt><trkpt lat="43.800725476155485" lon="11.977398770051467"><ele>592.0</ele><time>2026-05-03T08:02:59Z</time></trkpt><trkpt lat="43.80096015039198" lon="11.977377080656856"><ele>592.0</ele><time>2026-05-03T08:03:00Z</time></trkpt><trkpt lat="43.80119691861987" lon="11.977364171370324"><ele>593.0</ele><time>2026-05-03T08:03:01Z</time></trkpt><trkpt lat="43.80143542411362" lon="11.977340548348204"><ele>594.0</ele><time>2026-05-03T08:03:02Z</time></trkpt><trkpt lat="43.8016738827902" lon="11.977303813216942"><ele>591.0</ele><time>2026-05-03T08:03:03Z</time></trkpt><trkpt lat="43.801912846025346" lon="11.97726658105866"><ele>588.0</ele><time>2026-05-03T08:03:04Z</time></trkpt><trkpt lat="43.802149932727616" lon="11.977238935987032"><ele>588.0</ele><time>2026-05-03T08:03:05Z</time></trkpt><trkpt lat="43.80238568296702" lon="11.977214563875862"><ele>588.0</ele><time>2026-05-03T08:03:06Z</time></trkpt><trkpt lat="43.80261559272958" lon="11.977185981255461"><ele>589.6666666666666</ele><time>2026-05-03T08:03:07Z</time></trkpt><trkpt lat="43.80283458344256" lon="11.977144319223996"><ele>591.3333333333333</ele><time>2026-05-03T08:03:08Z</time></trkpt><trkpt lat="43.803045688749854" lon="11.977078814960267"><ele>593.0</ele><time>2026-05-03T08:03:09Z</time></trkpt><trkpt lat="43.80324579366195" lon="11.977001220116021"><ele>593.0</ele><time>2026-05-03T08:03:10Z</time></trkpt><trkpt lat="43.80343707439785" lon="11.976907445589076"><ele>593.0</ele><time>2026-05-03T08:03:11Z</time></trkpt><trkpt lat="43.80362515508835" lon="11.97679743851546"><ele>593.0</ele><time>2026-05-03T08:03:12Z</time></trkpt><trkpt lat="43.80381601325558" lon="11.976670146350203"><ele>591.3333333333333</ele><time>2026-05-03T08:03:13Z</time></trkpt><trkpt lat="43.80400331729339" lon="11.976526575059534"><ele>589.6666666666666</ele><time>2026-05-03T08:03:14Z</time></trkpt><trkpt lat="43.80418693493701" lon="11.976363048095648"><ele>588.0</ele><time>2026-05-03T08:03:15Z</time></trkpt><trkpt lat="43.804363483749526" lon="11.97617903231854"><ele>588.0</ele><time>2026-05-03T08:03:16Z</time></trkpt><trkpt lat="43.80453751266252" lon="11.9759798417434"><ele>588.0</ele><time>2026-05-03T08:03:17Z</time></trkpt><trkpt lat="43.80470639226056" lon="11.97576730064167"><ele>591.0</ele><time>2026-05-03T08:03:18Z</time></trkpt><trkpt lat="43.80486817038567" lon="11.975535294618668"><ele>594.0</ele><time>2026-05-03T08:03:19Z</time></trkpt><trkpt lat="43.8050209948742" lon="11.975288059003086"><ele>594.0</ele><time>2026-05-03T08:03:20Z</time></trkpt><trkpt lat="43.8051601475092" lon="11.97502745317891"><ele>594.0</ele><time>2026-05-03T08:03:21Z</time></trkpt><trkpt lat="43.80528847455706" lon="11.97474853731235"><ele>589.5</ele><time>2026-05-03T08:03:22Z</time></trkpt><trkpt lat="43.80540058229159" lon="11.974456270613064"><ele>585.0</ele><time>2026-05-03T08:03:23Z</time></trkpt><trkpt lat="43.805494333803374" lon="11.97415521740899"><ele>578.5</ele><time>2026-05-03T08:03:24Z</time></trkpt><trkpt lat="43.80557624875981" lon="11.973846249144874"><ele>572.0</ele><time>2026-05-03T08:03:25Z</time></trkpt><trkpt lat="43.805653509715995" lon="11.973537573181444"><ele>572.0</ele><time>2026-05-03T08:03:26Z</time></trkpt><trkpt lat="43.80572579828871" lon="11.973223365302976"><ele>572.0</ele><time>2026-05-03T08:03:27Z</time></trkpt><trkpt lat="43.80579653161105" lon="11.972912912076994"><ele>572.0</ele><time>2026-05-03T08:03:28Z</time></trkpt><trkpt lat="43.805869335375114" lon="11.972597730798235"><ele>572.0</ele><time>2026-05-03T08:03:28.999Z</time></trkpt><trkpt lat="43.80594410077316" lon="11.972286287667155"><ele>576.0</ele><time>2026-05-03T08:03:29.999Z</time></trkpt><trkpt lat="43.806019379065106" lon="11.971974566914353"><ele>580.0</ele><time>2026-05-03T08:03:30.999Z</time></trkpt><trkpt lat="43.806094232226776" lon="11.971666950598022"><ele>580.0</ele><time>2026-05-03T08:03:31.999Z</time></trkpt><trkpt lat="43.80617613779345" lon="11.971361088011921"><ele>580.0</ele><time>2026-05-03T08:03:32.999Z</time></trkpt><trkpt lat="43.806270528719764" lon="11.97106711398878"><ele>574.5</ele><time>2026-05-03T08:03:33.999Z</time></trkpt><trkpt lat="43.80638064627491" lon="11.970779795378514"><ele>569.0</ele><time>2026-05-03T08:03:34.999Z</time></trkpt><trkpt lat="43.80650266059351" lon="11.970501270643746"><ele>569.0</ele><time>2026-05-03T08:03:35.999Z</time></trkpt><trkpt lat="43.80663119689661" lon="11.97023043033266"><ele>569.0</ele><time>2026-05-03T08:03:36.999Z</time></trkpt><trkpt lat="43.80676839298933" lon="11.969968363999136"><ele>581.5</ele><time>2026-05-03T08:03:37.999Z</time></trkpt><trkpt lat="43.80691667312072" lon="11.969715607368208"><ele>594.0</ele><time>2026-05-03T08:03:38.999Z</time></trkpt><trkpt lat="43.80707441756647" lon="11.969474625991245"><ele>594.0</ele><time>2026-05-03T08:03:39.999Z</time></trkpt><trkpt lat="43.80724058255884" lon="11.969245616279146"><ele>594.0</ele><time>2026-05-03T08:03:40.999Z</time></trkpt><trkpt lat="43.80741552127296" lon="11.969034747221459"><ele>596.5</ele><time>2026-05-03T08:03:41.999Z</time></trkpt><trkpt lat="43.8075996299434" lon="11.968834607766619"><ele>599.0</ele><time>2026-05-03T08:03:42.999Z</time></trkpt><trkpt lat="43.807790608918054" lon="11.968644139764345"><ele>599.0</ele><time>2026-05-03T08:03:43.999Z</time></trkpt><trkpt lat="43.80798827263711" lon="11.968463721225588"><ele>599.0</ele><time>2026-05-03T08:03:44.999Z</time></trkpt><trkpt lat="43.80819304153744" lon="11.968297124250308"><ele>587.5</ele><time>2026-05-03T08:03:45.999Z</time></trkpt><trkpt lat="43.808407154319774" lon="11.96814893955762"><ele>576.0</ele><time>2026-05-03T08:03:46.999Z</time></trkpt><trkpt lat="43.80863196392272" lon="11.968025214444848"><ele>576.0</ele><time>2026-05-03T08:03:47.999Z</time></trkpt><trkpt lat="43.80885696128954" lon="11.967913793186295"><ele>576.0</ele><time>2026-05-03T08:03:48.999Z</time></trkpt><trkpt lat="43.80908701512284" lon="11.96781187422518"><ele>576.0</ele><time>2026-05-03T08:03:49.999Z</time></trkpt><trkpt lat="43.809321907544415" lon="11.967726892278478"><ele>576.0</ele><time>2026-05-03T08:03:50.999Z</time></trkpt><trkpt lat="43.80956086656381" lon="11.967659538052278"><ele>574.5</ele><time>2026-05-03T08:03:51.999Z</time></trkpt><trkpt lat="43.80980690802905" lon="11.967609536996767"><ele>573.0</ele><time>2026-05-03T08:03:52.999Z</time></trkpt><trkpt lat="43.81005195079483" lon="11.967581787373733"><ele>575.5</ele><time>2026-05-03T08:03:53.999Z</time></trkpt><trkpt lat="43.810302614232555" lon="11.96757161482861"><ele>578.0</ele><time>2026-05-03T08:03:54.999Z</time></trkpt><trkpt lat="43.810553476894775" lon="11.967570476394345"><ele>578.0</ele><time>2026-05-03T08:03:55.999Z</time></trkpt><trkpt lat="43.810806622440985" lon="11.967571534353176"><ele>578.0</ele><time>2026-05-03T08:03:56.999Z</time></trkpt><trkpt lat="43.81106037335176" lon="11.967569882799772"><ele>585.0</ele><time>2026-05-03T08:03:57.999Z</time></trkpt><trkpt lat="43.81131683136204" lon="11.967568192191921"><ele>592.0</ele><time>2026-05-03T08:03:58.999Z</time></trkpt><trkpt lat="43.81157100662443" lon="11.967564656042605"><ele>579.5</ele><time>2026-05-03T08:03:59.999Z</time></trkpt><trkpt lat="43.811827156373774" lon="11.967563412161448"><ele>567.0</ele><time>2026-05-03T08:04:00.999Z</time></trkpt><trkpt lat="43.81208258628197" lon="11.967559401761685"><ele>567.0</ele><time>2026-05-03T08:04:01.999Z</time></trkpt><trkpt lat="43.81233342538258" lon="11.967557788385355"><ele>567.0</ele><time>2026-05-03T08:04:03Z</time></trkpt><trkpt lat="43.81258643085779" lon="11.96755502516595"><ele>559.5</ele><time>2026-05-03T08:04:04Z</time></trkpt><trkpt lat="43.812833626465434" lon="11.96754497950072"><ele>552.0</ele><time>2026-05-03T08:04:05Z</time></trkpt><trkpt lat="43.813080647803964" lon="11.967508291652184"><ele>551.0</ele><time>2026-05-03T08:04:06Z</time></trkpt><trkpt lat="43.813324344454244" lon="11.96744597653013"><ele>550.0</ele><time>2026-05-03T08:04:07Z</time></trkpt><trkpt lat="43.81356427073659" lon="11.967360911081641"><ele>549.0</ele><time>2026-05-03T08:04:08Z</time></trkpt><trkpt lat="43.81380023972083" lon="11.967254974784046"><ele>548.0</ele><time>2026-05-03T08:04:09Z</time></trkpt><trkpt lat="43.814031273226085" lon="11.96712790951916"><ele>548.0</ele><time>2026-05-03T08:04:10Z</time></trkpt><trkpt lat="43.81425413424593" lon="11.96697483129004"><ele>548.0</ele><time>2026-05-03T08:04:11Z</time></trkpt><trkpt lat="43.81446834701432" lon="11.966800830938078"><ele>551.5</ele><time>2026-05-03T08:04:12Z</time></trkpt><trkpt lat="43.81467083904937" lon="11.966607927511314"><ele>555.0</ele><time>2026-05-03T08:04:13Z</time></trkpt><trkpt lat="43.81486732009603" lon="11.966396484355231"><ele>555.0</ele><time>2026-05-03T08:04:14Z</time></trkpt><trkpt lat="43.81505227263363" lon="11.966170027024194"><ele>555.0</ele><time>2026-05-03T08:04:15Z</time></trkpt><trkpt lat="43.815228400123885" lon="11.965924097480006"><ele>551.5</ele><time>2026-05-03T08:04:16Z</time></trkpt><trkpt lat="43.815390048309204" lon="11.965662005455986"><ele>548.0</ele><time>2026-05-03T08:04:17Z</time></trkpt><trkpt lat="43.81553731743434" lon="11.965382338120598"><ele>548.0</ele><time>2026-05-03T08:04:18Z</time></trkpt><trkpt lat="43.81567361259611" lon="11.965089372962776"><ele>548.0</ele><time>2026-05-03T08:04:19Z</time></trkpt><trkpt lat="43.81580585134141" lon="11.96479215196759"><ele>549.5</ele><time>2026-05-03T08:04:20Z</time></trkpt><trkpt lat="43.815934799557944" lon="11.964490250191455"><ele>551.0</ele><time>2026-05-03T08:04:21Z</time></trkpt><trkpt lat="43.816065885924246" lon="11.964188155502065"><ele>551.0</ele><time>2026-05-03T08:04:22Z</time></trkpt><trkpt lat="43.81621065143518" lon="11.963893948352057"><ele>551.0</ele><time>2026-05-03T08:04:23Z</time></trkpt><trkpt lat="43.81636932098812" lon="11.963612117097108"><ele>551.0</ele><time>2026-05-03T08:04:24Z</time></trkpt><trkpt lat="43.816545898659804" lon="11.963349330750143"><ele>551.0</ele><time>2026-05-03T08:04:25Z</time></trkpt><trkpt lat="43.81673643317573" lon="11.963106713141704"><ele>552.0</ele><time>2026-05-03T08:04:26Z</time></trkpt><trkpt lat="43.81694066771375" lon="11.962877304970457"><ele>553.0</ele><time>2026-05-03T08:04:27Z</time></trkpt><trkpt lat="43.817151045292306" lon="11.962663900721015"><ele>543.5</ele><time>2026-05-03T08:04:28Z</time></trkpt><trkpt lat="43.81736366086999" lon="11.962455949174405"><ele>534.0</ele><time>2026-05-03T08:04:29Z</time></trkpt><trkpt lat="43.817578275912076" lon="11.962246281161795"><ele>540.0</ele><time>2026-05-03T08:04:30Z</time></trkpt><trkpt lat="43.81779445672623" lon="11.962036359393581"><ele>546.0</ele><time>2026-05-03T08:04:31Z</time></trkpt><trkpt lat="43.81800871278777" lon="11.96182432356032"><ele>539.5</ele><time>2026-05-03T08:04:32Z</time></trkpt><trkpt lat="43.81822025233676" lon="11.961609907378431"><ele>533.0</ele><time>2026-05-03T08:04:33Z</time></trkpt><trkpt lat="43.81843204203096" lon="11.961396446235474"><ele>532.5</ele><time>2026-05-03T08:04:34Z</time></trkpt><trkpt lat="43.81864536454618" lon="11.961181866757984"><ele>532.0</ele><time>2026-05-03T08:04:35Z</time></trkpt><trkpt lat="43.81885622986739" lon="11.96097047441458"><ele>529.0</ele><time>2026-05-03T08:04:36Z</time></trkpt><trkpt lat="43.81906962407431" lon="11.96076112804324"><ele>526.0</ele><time>2026-05-03T08:04:37Z</time></trkpt><trkpt lat="43.81928355967533" lon="11.960547572980895"><ele>534.5</ele><time>2026-05-03T08:04:38Z</time></trkpt><trkpt lat="43.81949502847831" lon="11.960338238898574"><ele>543.0</ele><time>2026-05-03T08:04:39Z</time></trkpt><trkpt lat="43.8197067884616" lon="11.960128666466666"><ele>533.5</ele><time>2026-05-03T08:04:40Z</time></trkpt><trkpt lat="43.81991493299599" lon="11.9599215913364"><ele>524.0</ele><time>2026-05-03T08:04:41Z</time></trkpt><trkpt lat="43.820125208384326" lon="11.95971282284675"><ele>526.5</ele><time>2026-05-03T08:04:42Z</time></trkpt><trkpt lat="43.8203354622753" lon="11.959510176493687"><ele>529.0</ele><time>2026-05-03T08:04:43Z</time></trkpt><trkpt lat="43.820543574936735" lon="11.959306683458696"><ele>521.5</ele><time>2026-05-03T08:04:44Z</time></trkpt><trkpt lat="43.820749582183865" lon="11.959102458103105"><ele>514.0</ele><time>2026-05-03T08:04:45Z</time></trkpt><trkpt lat="43.8209594311505" lon="11.958904962829363"><ele>518.0</ele><time>2026-05-03T08:04:46Z</time></trkpt><trkpt lat="43.821180381301886" lon="11.958727535162318"><ele>522.0</ele><time>2026-05-03T08:04:47Z</time></trkpt><trkpt lat="43.82141300523199" lon="11.958579651545893"><ele>522.0</ele><time>2026-05-03T08:04:48Z</time></trkpt><trkpt lat="43.82165394738197" lon="11.958458850096228"><ele>522.0</ele><time>2026-05-03T08:04:49Z</time></trkpt><trkpt lat="43.82190016793799" lon="11.958364670973046"><ele>516.5</ele><time>2026-05-03T08:04:50Z</time></trkpt><trkpt lat="43.822152490134535" lon="11.95829080667187"><ele>511.0</ele><time>2026-05-03T08:04:51Z</time></trkpt><trkpt lat="43.822411107172925" lon="11.95824428718171"><ele>509.0</ele><time>2026-05-03T08:04:52Z</time></trkpt><trkpt lat="43.82267118270335" lon="11.958224015251254"><ele>507.0</ele><time>2026-05-03T08:04:53Z</time></trkpt><trkpt lat="43.82293374578893" lon="11.958226456802105"><ele>507.0</ele><time>2026-05-03T08:04:54Z</time></trkpt><trkpt lat="43.82319370386256" lon="11.958263590681524"><ele>507.0</ele><time>2026-05-03T08:04:55Z</time></trkpt><trkpt lat="43.823452525855835" lon="11.958329501263316"><ele>508.0</ele><time>2026-05-03T08:04:56Z</time></trkpt><trkpt lat="43.82370698010319" lon="11.958421165262758"><ele>509.0</ele><time>2026-05-03T08:04:57Z</time></trkpt><trkpt lat="43.82395747343634" lon="11.958528217719744"><ele>509.0</ele><time>2026-05-03T08:04:58Z</time></trkpt><trkpt lat="43.824203809590216" lon="11.95863749083028"><ele>509.0</ele><time>2026-05-03T08:04:59Z</time></trkpt><trkpt lat="43.824452174242595" lon="11.958746462039286"><ele>507.5</ele><time>2026-05-03T08:05:00Z</time></trkpt><trkpt lat="43.82469852676614" lon="11.958857119676402"><ele>506.0</ele><time>2026-05-03T08:05:01Z</time></trkpt><trkpt lat="43.82494477925233" lon="11.958967891510415"><ele>506.5</ele><time>2026-05-03T08:05:02Z</time></trkpt><trkpt lat="43.82519003074073" lon="11.95907684638243"><ele>507.0</ele><time>2026-05-03T08:05:03Z</time></trkpt><trkpt lat="43.825433765920835" lon="11.959186455980934"><ele>514.5</ele><time>2026-05-03T08:05:04Z</time></trkpt><trkpt lat="43.82567648452366" lon="11.959297084327336"><ele>522.0</ele><time>2026-05-03T08:05:05Z</time></trkpt><trkpt lat="43.825916731468716" lon="11.959405720384375"><ele>516.5</ele><time>2026-05-03T08:05:06Z</time></trkpt><trkpt lat="43.826156409555644" lon="11.959513374049923"><ele>511.0</ele><time>2026-05-03T08:05:07Z</time></trkpt><trkpt lat="43.82639444734839" lon="11.959622285841128"><ele>511.0</ele><time>2026-05-03T08:05:08Z</time></trkpt><trkpt lat="43.8266318832195" lon="11.959731615245909"><ele>511.0</ele><time>2026-05-03T08:05:09Z</time></trkpt><trkpt lat="43.82687088517823" lon="11.959839919824452"><ele>507.0</ele><time>2026-05-03T08:05:10Z</time></trkpt><trkpt lat="43.82710770706827" lon="11.959952048969074"><ele>503.0</ele><time>2026-05-03T08:05:11Z</time></trkpt><trkpt lat="43.82734126507023" lon="11.96007611470619"><ele>514.0</ele><time>2026-05-03T08:05:12Z</time></trkpt><trkpt lat="43.827569578990584" lon="11.960218946546362"><ele>525.0</ele><time>2026-05-03T08:05:13Z</time></trkpt><trkpt lat="43.82779227760509" lon="11.96037726688257"><ele>525.0</ele><time>2026-05-03T08:05:14Z</time></trkpt><trkpt lat="43.82801105281339" lon="11.960542498860498"><ele>525.0</ele><time>2026-05-03T08:05:15Z</time></trkpt><trkpt lat="43.82822880811864" lon="11.960710210614014"><ele>532.0</ele><time>2026-05-03T08:05:16Z</time></trkpt><trkpt lat="43.828445471839565" lon="11.960878688717022"><ele>539.0</ele><time>2026-05-03T08:05:17Z</time></trkpt><trkpt lat="43.828661513734176" lon="11.961046198469413"><ele>539.0</ele><time>2026-05-03T08:05:18Z</time></trkpt><trkpt lat="43.828877593079795" lon="11.961208444676144"><ele>539.0</ele><time>2026-05-03T08:05:19Z</time></trkpt><trkpt lat="43.8290930734521" lon="11.961366398652467"><ele>550.0</ele><time>2026-05-03T08:05:20Z</time></trkpt><trkpt lat="43.82931018369468" lon="11.961531144856792"><ele>561.0</ele><time>2026-05-03T08:05:21Z</time></trkpt><trkpt lat="43.82952602984216" lon="11.96170244313146"><ele>566.0</ele><time>2026-05-03T08:05:22Z</time></trkpt><trkpt lat="43.829742708454866" lon="11.961877520096845"><ele>571.0</ele><time>2026-05-03T08:05:23Z</time></trkpt><trkpt lat="43.829963221909004" lon="11.96204992963896"><ele>583.5</ele><time>2026-05-03T08:05:24Z</time></trkpt><trkpt lat="43.830187319455085" lon="11.962222119034081"><ele>596.0</ele><time>2026-05-03T08:05:25Z</time></trkpt><trkpt lat="43.83041221211565" lon="11.962397197987634"><ele>615.5</ele><time>2026-05-03T08:05:26Z</time></trkpt><trkpt lat="43.830637756117014" lon="11.962573561439761"><ele>635.0</ele><time>2026-05-03T08:05:27Z</time></trkpt><trkpt lat="43.83089117988924" lon="11.962735296366752"><ele>620.0</ele><time>2026-05-03T08:05:28Z</time></trkpt><trkpt lat="43.83112729924527" lon="11.962917824816905"><ele>605.0</ele><time>2026-05-03T08:05:29Z</time></trkpt><trkpt lat="43.83135966379348" lon="11.963108192972722"><ele>605.0</ele><time>2026-05-03T08:05:30Z</time></trkpt><trkpt lat="43.83159891026012" lon="11.963297322472311"><ele>605.0</ele><time>2026-05-03T08:05:31Z</time></trkpt><trkpt lat="43.83184179886133" lon="11.96348119809175"><ele>604.5</ele><time>2026-05-03T08:05:32Z</time></trkpt><trkpt lat="43.83208836986382" lon="11.963673160642479"><ele>604.0</ele><time>2026-05-03T08:05:32.999Z</time></trkpt><trkpt lat="43.83233726094169" lon="11.963859863774298"><ele>604.0</ele><time>2026-05-03T08:05:33.999Z</time></trkpt><trkpt lat="43.832585370921585" lon="11.964047678630592"><ele>604.0</ele><time>2026-05-03T08:05:34.999Z</time></trkpt><trkpt lat="43.832836474906" lon="11.964240975907497"><ele>618.5</ele><time>2026-05-03T08:05:35.999Z</time></trkpt><trkpt lat="43.833089033831484" lon="11.964429739357854"><ele>633.0</ele><time>2026-05-03T08:05:36.999Z</time></trkpt><trkpt lat="43.833345862168976" lon="11.964618009555242"><ele>628.0</ele><time>2026-05-03T08:05:37.999Z</time></trkpt><trkpt lat="43.8336011068579" lon="11.964817324583636"><ele>623.0</ele><time>2026-05-03T08:05:38.999Z</time></trkpt><trkpt lat="43.83385440311671" lon="11.965019494938725"><ele>617.5</ele><time>2026-05-03T08:05:39.999Z</time></trkpt><trkpt lat="43.834114763871845" lon="11.96522213997912"><ele>612.0</ele><time>2026-05-03T08:05:40.999Z</time></trkpt><trkpt lat="43.834377929830836" lon="11.965424163703808"><ele>588.0</ele><time>2026-05-03T08:05:41.999Z</time></trkpt><trkpt lat="43.83463988676251" lon="11.965633148534481"><ele>564.0</ele><time>2026-05-03T08:05:42.999Z</time></trkpt><trkpt lat="43.834905021212826" lon="11.965837830048317"><ele>575.0</ele><time>2026-05-03T08:05:43.999Z</time></trkpt><trkpt lat="43.83517103002459" lon="11.96603883759886"><ele>586.0</ele><time>2026-05-03T08:05:44.999Z</time></trkpt><trkpt lat="43.83543970411271" lon="11.966248634613821"><ele>586.0</ele><time>2026-05-03T08:05:45.999Z</time></trkpt><trkpt lat="43.83570925372472" lon="11.966462276489157"><ele>586.0</ele><time>2026-05-03T08:05:46.999Z</time></trkpt><trkpt lat="43.835984512978705" lon="11.966679400690301"><ele>591.0</ele><time>2026-05-03T08:05:47.999Z</time></trkpt><trkpt lat="43.83625830628258" lon="11.966897382368273"><ele>596.0</ele><time>2026-05-03T08:05:48.999Z</time></trkpt><trkpt lat="43.83653612458297" lon="11.967112402215331"><ele>576.0</ele><time>2026-05-03T08:05:49.999Z</time></trkpt><trkpt lat="43.83682005871807" lon="11.967333737121498"><ele>556.0</ele><time>2026-05-03T08:05:50.999Z</time></trkpt><trkpt lat="43.837107129782645" lon="11.967559440481411"><ele>556.0</ele><time>2026-05-03T08:05:51.999Z</time></trkpt><trkpt lat="43.83740200070688" lon="11.967789291790757"><ele>556.0</ele><time>2026-05-03T08:05:52.999Z</time></trkpt><trkpt lat="43.83768853971684" lon="11.96802212001552"><ele>553.0</ele><time>2026-05-03T08:05:53.999Z</time></trkpt><trkpt lat="43.83797765341314" lon="11.968255618961502"><ele>550.0</ele><time>2026-05-03T08:05:54.999Z</time></trkpt><trkpt lat="43.838276610727924" lon="11.968497188050097"><ele>569.0</ele><time>2026-05-03T08:05:56.009Z</time></trkpt><trkpt lat="43.84007977591832" lon="11.969768136218594"><ele>583.0</ele><time>2026-05-03T08:05:59.207Z</time></trkpt><trkpt lat="43.84078781914959" lon="11.970311379000398"><ele>555.0</ele><time>2026-05-03T08:06:00.207Z</time></trkpt><trkpt lat="43.84149343204024" lon="11.970852757114983"><ele>543.0</ele><time>2026-05-03T08:06:01.204Z</time></trkpt><trkpt lat="43.8422041350552" lon="11.971398040603098"><ele>489.0</ele><time>2026-05-03T08:06:02.207Z</time></trkpt><trkpt lat="43.84291064128594" lon="11.971937362891117"><ele>479.0</ele><time>2026-05-03T08:06:03.204Z</time></trkpt><trkpt lat="43.84358429072085" lon="11.972479567599164"><ele>480.5</ele><time>2026-05-03T08:06:23.999Z</time></trkpt><trkpt lat="43.84379110460353" lon="11.972673074357107"><ele>482.0</ele><time>2026-05-03T08:06:24.999Z</time></trkpt><trkpt lat="43.84400613315275" lon="11.972823994556094"><ele>482.0</ele><time>2026-05-03T08:06:25.999Z</time></trkpt><trkpt lat="43.84423031313009" lon="11.972983800607777"><ele>482.0</ele><time>2026-05-03T08:06:26.999Z</time></trkpt><trkpt lat="43.84444907775862" lon="11.973152316084178"><ele>481.5</ele><time>2026-05-03T08:06:27.999Z</time></trkpt><trkpt lat="43.84466916431775" lon="11.973317973390541"><ele>481.0</ele><time>2026-05-03T08:06:28.999Z</time></trkpt><trkpt lat="43.84488581749441" lon="11.973484752690757"><ele>480.5</ele><time>2026-05-03T08:06:30Z</time></trkpt><trkpt lat="43.84509972288297" lon="11.973661047562661"><ele>480.0</ele><time>2026-05-03T08:06:31Z</time></trkpt><trkpt lat="43.84531221222207" lon="11.973843136608567"><ele>480.0</ele><time>2026-05-03T08:06:32Z</time></trkpt><trkpt lat="43.84552422019981" lon="11.974029588762455"><ele>480.0</ele><time>2026-05-03T08:06:33Z</time></trkpt><trkpt lat="43.8457380787583" lon="11.974220036182087"><ele>478.5</ele><time>2026-05-03T08:06:34Z</time></trkpt><trkpt lat="43.84595130891962" lon="11.974410546495607"><ele>477.0</ele><time>2026-05-03T08:06:35Z</time></trkpt><trkpt lat="43.84616476130668" lon="11.974600302202171"><ele>477.0</ele><time>2026-05-03T08:06:36Z</time></trkpt><trkpt lat="43.846378022762515" lon="11.974787058199448"><ele>477.0</ele><time>2026-05-03T08:06:37Z</time></trkpt><trkpt lat="43.846593100393235" lon="11.974974614568724"><ele>475.0</ele><time>2026-05-03T08:06:38Z</time></trkpt><trkpt lat="43.84680858263375" lon="11.9751657930672"><ele>473.0</ele><time>2026-05-03T08:06:39Z</time></trkpt><trkpt lat="43.847024763397506" lon="11.975359065942316"><ele>473.0</ele><time>2026-05-03T08:06:40Z</time></trkpt><trkpt lat="43.84724298063996" lon="11.975553249491334"><ele>473.0</ele><time>2026-05-03T08:06:41Z</time></trkpt><trkpt lat="43.84746164291483" lon="11.97574629231968"><ele>473.5</ele><time>2026-05-03T08:06:42Z</time></trkpt><trkpt lat="43.84768188646077" lon="11.97594247237973"><ele>474.0</ele><time>2026-05-03T08:06:43Z</time></trkpt><trkpt lat="43.84790199585564" lon="11.97613843388599"><ele>474.0</ele><time>2026-05-03T08:06:44Z</time></trkpt><trkpt lat="43.848122034589885" lon="11.976335244226194"><ele>474.0</ele><time>2026-05-03T08:06:45Z</time></trkpt><trkpt lat="43.848342646476354" lon="11.976531972572563"><ele>475.0</ele><time>2026-05-03T08:06:46Z</time></trkpt><trkpt lat="43.848564122813144" lon="11.976729190955648"><ele>476.0</ele><time>2026-05-03T08:06:47Z</time></trkpt><trkpt lat="43.848784207870146" lon="11.976925885021291"><ele>476.0</ele><time>2026-05-03T08:06:48Z</time></trkpt><trkpt lat="43.849005312437505" lon="11.977122152418808"><ele>476.0</ele><time>2026-05-03T08:06:49Z</time></trkpt><trkpt lat="43.84922581983516" lon="11.9773161378455"><ele>473.5</ele><time>2026-05-03T08:06:50Z</time></trkpt><trkpt lat="43.84944520961348" lon="11.97750808845923"><ele>471.0</ele><time>2026-05-03T08:06:51Z</time></trkpt><trkpt lat="43.849664861343385" lon="11.977698486755981"><ele>478.0</ele><time>2026-05-03T08:06:52Z</time></trkpt><trkpt lat="43.84988674383395" lon="11.977883152280269"><ele>485.0</ele><time>2026-05-03T08:06:53Z</time></trkpt><trkpt lat="43.85010975707448" lon="11.978059854166144"><ele>486.0</ele><time>2026-05-03T08:06:54Z</time></trkpt><trkpt lat="43.85033853614825" lon="11.978233046213415"><ele>487.0</ele><time>2026-05-03T08:06:55Z</time></trkpt><trkpt lat="43.85056921891077" lon="11.978397556505245"><ele>487.0</ele><time>2026-05-03T08:06:56Z</time></trkpt><trkpt lat="43.850801098163444" lon="11.97855254519344"><ele>487.0</ele><time>2026-05-03T08:06:57Z</time></trkpt><trkpt lat="43.85103764389225" lon="11.978702269994745"><ele>481.5</ele><time>2026-05-03T08:06:58Z</time></trkpt><trkpt lat="43.85127587060214" lon="11.978840908152256"><ele>476.0</ele><time>2026-05-03T08:06:59Z</time></trkpt><trkpt lat="43.85151769314662" lon="11.978970686862825"><ele>476.0</ele><time>2026-05-03T08:07:00Z</time></trkpt><trkpt lat="43.85175882500218" lon="11.979093369656521"><ele>476.0</ele><time>2026-05-03T08:07:01Z</time></trkpt><trkpt lat="43.85199876539951" lon="11.979209724506827"><ele>485.0</ele><time>2026-05-03T08:07:02Z</time></trkpt><trkpt lat="43.85224041008325" lon="11.97932014956985"><ele>494.0</ele><time>2026-05-03T08:07:03Z</time></trkpt><trkpt lat="43.85248768514634" lon="11.979424818255985"><ele>494.5</ele><time>2026-05-03T08:07:04Z</time></trkpt><trkpt lat="43.85273413500399" lon="11.979525222012013"><ele>495.0</ele><time>2026-05-03T08:07:05Z</time></trkpt><trkpt lat="43.85298115894309" lon="11.979625765792479"><ele>495.0</ele><time>2026-05-03T08:07:06Z</time></trkpt><trkpt lat="43.8532302060864" lon="11.979726599779925"><ele>495.0</ele><time>2026-05-03T08:07:07Z</time></trkpt><trkpt lat="43.8534793775506" lon="11.97982535714184"><ele>492.0</ele><time>2026-05-03T08:07:08Z</time></trkpt><trkpt lat="43.853726520353824" lon="11.97992077578355"><ele>489.0</ele><time>2026-05-03T08:07:09Z</time></trkpt><trkpt lat="43.853972949770444" lon="11.980016724243368"><ele>493.0</ele><time>2026-05-03T08:07:10Z</time></trkpt><trkpt lat="43.85421921249537" lon="11.980113368795388"><ele>497.0</ele><time>2026-05-03T08:07:11Z</time></trkpt><trkpt lat="43.85446406211707" lon="11.980210400471494"><ele>497.0</ele><time>2026-05-03T08:07:12Z</time></trkpt><trkpt lat="43.8547079804943" lon="11.980309047153236"><ele>497.0</ele><time>2026-05-03T08:07:13Z</time></trkpt><trkpt lat="43.854952429876995" lon="11.980406801049565"><ele>496.0</ele><time>2026-05-03T08:07:14Z</time></trkpt><trkpt lat="43.855196587771694" lon="11.980503747982988"><ele>495.0</ele><time>2026-05-03T08:07:15Z</time></trkpt><trkpt lat="43.85544245818032" lon="11.980600892283608"><ele>495.0</ele><time>2026-05-03T08:07:16Z</time></trkpt><trkpt lat="43.8556878815458" lon="11.980699274187385"><ele>495.0</ele><time>2026-05-03T08:07:17Z</time></trkpt><trkpt lat="43.85593353128168" lon="11.980796119381393"><ele>502.0</ele><time>2026-05-03T08:07:18Z</time></trkpt><trkpt lat="43.85617566766558" lon="11.980890613797538"><ele>509.0</ele><time>2026-05-03T08:07:19Z</time></trkpt><trkpt lat="43.85641883078727" lon="11.980985551755081"><ele>509.0</ele><time>2026-05-03T08:07:20Z</time></trkpt><trkpt lat="43.85666128967394" lon="11.981079713317916"><ele>509.0</ele><time>2026-05-03T08:07:21Z</time></trkpt><trkpt lat="43.856905927080994" lon="11.981168486525558"><ele>506.5</ele><time>2026-05-03T08:07:22Z</time></trkpt><trkpt lat="43.85715088371065" lon="11.981257803888932"><ele>504.0</ele><time>2026-05-03T08:07:23Z</time></trkpt><trkpt lat="43.857394033626576" lon="11.981345892597197"><ele>495.0</ele><time>2026-05-03T08:07:24Z</time></trkpt><trkpt lat="43.857639368396555" lon="11.981435575178146"><ele>486.0</ele><time>2026-05-03T08:07:25Z</time></trkpt><trkpt lat="43.85788295761172" lon="11.981527812046126"><ele>486.0</ele><time>2026-05-03T08:07:26Z</time></trkpt><trkpt lat="43.858130437416754" lon="11.981617928886736"><ele>486.0</ele><time>2026-05-03T08:07:27Z</time></trkpt><trkpt lat="43.85838000752742" lon="11.98169966362203"><ele>484.0</ele><time>2026-05-03T08:07:28Z</time></trkpt><trkpt lat="43.85862948790285" lon="11.981767336660567"><ele>482.0</ele><time>2026-05-03T08:07:29Z</time></trkpt><trkpt lat="43.85888107049239" lon="11.98180923061277"><ele>482.0</ele><time>2026-05-03T08:07:30Z</time></trkpt><trkpt lat="43.859135802232096" lon="11.981824118828808"><ele>482.0</ele><time>2026-05-03T08:07:31Z</time></trkpt><trkpt lat="43.859390153457326" lon="11.98181959224967"><ele>477.0</ele><time>2026-05-03T08:07:32Z</time></trkpt><trkpt lat="43.85964103031602" lon="11.981789876205971"><ele>472.0</ele><time>2026-05-03T08:07:33Z</time></trkpt><trkpt lat="43.85988498582788" lon="11.981731298622332"><ele>464.5</ele><time>2026-05-03T08:07:34Z</time></trkpt><trkpt lat="43.86012947188832" lon="11.98164686316275"><ele>457.0</ele><time>2026-05-03T08:07:35Z</time></trkpt><trkpt lat="43.86036750143736" lon="11.981539556954713"><ele>457.0</ele><time>2026-05-03T08:07:36Z</time></trkpt><trkpt lat="43.86060212008158" lon="11.981410814376812"><ele>457.0</ele><time>2026-05-03T08:07:37Z</time></trkpt><trkpt lat="43.86083287312584" lon="11.981272708766195"><ele>457.5</ele><time>2026-05-03T08:07:38Z</time></trkpt><trkpt lat="43.86106703850766" lon="11.981129313778075"><ele>458.0</ele><time>2026-05-03T08:07:39Z</time></trkpt><trkpt lat="43.86130030641866" lon="11.98098500313429"><ele>457.0</ele><time>2026-05-03T08:07:40Z</time></trkpt><trkpt lat="43.86153469400118" lon="11.980842311632864"><ele>456.0</ele><time>2026-05-03T08:07:41Z</time></trkpt><trkpt lat="43.86176943057728" lon="11.9807017494558"><ele>454.5</ele><time>2026-05-03T08:07:42Z</time></trkpt><trkpt lat="43.86200492475236" lon="11.980573910298315"><ele>453.0</ele><time>2026-05-03T08:07:43Z</time></trkpt><trkpt lat="43.86224599837147" lon="11.980463132142335"><ele>453.0</ele><time>2026-05-03T08:07:44Z</time></trkpt><trkpt lat="43.86249117472826" lon="11.980373955610643"><ele>453.0</ele><time>2026-05-03T08:07:45Z</time></trkpt><trkpt lat="43.862737095081464" lon="11.980301221922824"><ele>454.0</ele><time>2026-05-03T08:07:46Z</time></trkpt><trkpt lat="43.862982918135295" lon="11.980238444731116"><ele>455.0</ele><time>2026-05-03T08:07:47Z</time></trkpt><trkpt lat="43.863230381646304" lon="11.98017716811757"><ele>455.5</ele><time>2026-05-03T08:07:48Z</time></trkpt><trkpt lat="43.86347731122198" lon="11.980120655124303"><ele>456.0</ele><time>2026-05-03T08:07:49Z</time></trkpt><trkpt lat="43.8637241803522" lon="11.980065969635994"><ele>456.0</ele><time>2026-05-03T08:07:50Z</time></trkpt><trkpt lat="43.86397177382478" lon="11.980008867925315"><ele>456.0</ele><time>2026-05-03T08:07:51Z</time></trkpt><trkpt lat="43.86422024246134" lon="11.979951695104987"><ele>454.0</ele><time>2026-05-03T08:07:52Z</time></trkpt><trkpt lat="43.86446976702554" lon="11.979894008623805"><ele>452.0</ele><time>2026-05-03T08:07:52.999Z</time></trkpt><trkpt lat="43.8647179370445" lon="11.979838128108774"><ele>452.0</ele><time>2026-05-03T08:07:53.999Z</time></trkpt><trkpt lat="43.864967313951205" lon="11.979783771151716"><ele>452.0</ele><time>2026-05-03T08:07:54.999Z</time></trkpt><trkpt lat="43.8652170536457" lon="11.979728137806024"><ele>453.0</ele><time>2026-05-03T08:07:55.999Z</time></trkpt><trkpt lat="43.86546616680627" lon="11.979673061939202"><ele>454.0</ele><time>2026-05-03T08:07:56.999Z</time></trkpt><trkpt lat="43.8657120728084" lon="11.979624487043674"><ele>454.0</ele><time>2026-05-03T08:07:57.999Z</time></trkpt><trkpt lat="43.865957561970404" lon="11.97958251713753"><ele>454.0</ele><time>2026-05-03T08:07:58.999Z</time></trkpt><trkpt lat="43.86620203730765" lon="11.97955238901959"><ele>454.0</ele><time>2026-05-03T08:07:59.999Z</time></trkpt><trkpt lat="43.866447038701864" lon="11.979533754019354"><ele>454.0</ele><time>2026-05-03T08:08:00.999Z</time></trkpt><trkpt lat="43.866689416232035" lon="11.979535019651967"><ele>455.5</ele><time>2026-05-03T08:08:01.999Z</time></trkpt><trkpt lat="43.866930209621415" lon="11.979561260201626"><ele>457.0</ele><time>2026-05-03T08:08:02.999Z</time></trkpt><trkpt lat="43.86716815238779" lon="11.979614533077957"><ele>457.0</ele><time>2026-05-03T08:08:03.999Z</time></trkpt><trkpt lat="43.86740335125599" lon="11.979687793781633"><ele>457.0</ele><time>2026-05-03T08:08:04.999Z</time></trkpt><trkpt lat="43.86763621757022" lon="11.97977619547513"><ele>458.0</ele><time>2026-05-03T08:08:05.999Z</time></trkpt><trkpt lat="43.867867310133214" lon="11.979872266005227"><ele>459.0</ele><time>2026-05-03T08:08:06.999Z</time></trkpt><trkpt lat="43.86809899529773" lon="11.97996369064747"><ele>455.5</ele><time>2026-05-03T08:08:07.999Z</time></trkpt><trkpt lat="43.868329515828826" lon="11.980057554502903"><ele>452.0</ele><time>2026-05-03T08:08:08.999Z</time></trkpt><trkpt lat="43.86856046721427" lon="11.98015012653102"><ele>452.0</ele><time>2026-05-03T08:08:09.999Z</time></trkpt><trkpt lat="43.86879203205343" lon="11.980246419560734"><ele>452.0</ele><time>2026-05-03T08:08:10.999Z</time></trkpt><trkpt lat="43.869019473138835" lon="11.980351424333543"><ele>452.0</ele><time>2026-05-03T08:08:11.999Z</time></trkpt><trkpt lat="43.86924557358701" lon="11.980473233274713"><ele>452.0</ele><time>2026-05-03T08:08:12.999Z</time></trkpt><trkpt lat="43.86946640844146" lon="11.980609237325966"><ele>453.0</ele><time>2026-05-03T08:08:13.999Z</time></trkpt><trkpt lat="43.869685285230325" lon="11.980752888815028"><ele>454.0</ele><time>2026-05-03T08:08:14.999Z</time></trkpt><trkpt lat="43.869901737726025" lon="11.980904298876442"><ele>455.0</ele><time>2026-05-03T08:08:15.999Z</time></trkpt><trkpt lat="43.870113527815946" lon="11.981067207209524"><ele>456.0</ele><time>2026-05-03T08:08:16.999Z</time></trkpt><trkpt lat="43.8703189381524" lon="11.98124612354747"><ele>456.0</ele><time>2026-05-03T08:08:17.999Z</time></trkpt><trkpt lat="43.8705182554952" lon="11.981437593425602"><ele>456.0</ele><time>2026-05-03T08:08:18.999Z</time></trkpt><trkpt lat="43.87071161369456" lon="11.98163860721307"><ele>455.5</ele><time>2026-05-03T08:08:19.999Z</time></trkpt><trkpt lat="43.870898915406364" lon="11.981852028237332"><ele>455.0</ele><time>2026-05-03T08:08:20.999Z</time></trkpt><trkpt lat="43.871078800406124" lon="11.982075949872229"><ele>455.0</ele><time>2026-05-03T08:08:21.999Z</time></trkpt><trkpt lat="43.87125020345845" lon="11.982309387921841"><ele>455.0</ele><time>2026-05-03T08:08:22.999Z</time></trkpt><trkpt lat="43.87141111326916" lon="11.98255140691882"><ele>451.0</ele><time>2026-05-03T08:08:23.999Z</time></trkpt><trkpt lat="43.871563782116155" lon="11.982802600115761"><ele>447.0</ele><time>2026-05-03T08:08:24.999Z</time></trkpt><trkpt lat="43.87170279956266" lon="11.983063778052525"><ele>451.66666666666663</ele><time>2026-05-03T08:08:25.999Z</time></trkpt><trkpt lat="43.871831055192494" lon="11.983324536922252"><ele>456.3333333333333</ele><time>2026-05-03T08:08:26.999Z</time></trkpt><trkpt lat="43.871949855819246" lon="11.98357971014199"><ele>461.0</ele><time>2026-05-03T08:08:27.999Z</time></trkpt><trkpt lat="43.87206943152406" lon="11.983837582601268"><ele>461.0</ele><time>2026-05-03T08:08:28.999Z</time></trkpt><trkpt lat="43.87217505493704" lon="11.984050110429388"><ele>461.0</ele><time>2026-05-03T08:08:29.999Z</time></trkpt><trkpt lat="43.872273682538385" lon="11.984280942446766"><ele>461.0</ele><time>2026-05-03T08:08:30.999Z</time></trkpt><trkpt lat="43.87236703089741" lon="11.98449998299758"><ele>458.3333333333333</ele><time>2026-05-03T08:08:31.999Z</time></trkpt><trkpt lat="43.8724573327416" lon="11.984704844956271"><ele>455.66666666666663</ele><time>2026-05-03T08:08:32.999Z</time></trkpt><trkpt lat="43.87254229046197" lon="11.984910815119656"><ele>453.0</ele><time>2026-05-03T08:08:33.999Z</time></trkpt><trkpt lat="43.87263162482541" lon="11.985114520826505"><ele>453.0</ele><time>2026-05-03T08:08:34.999Z</time></trkpt><trkpt lat="43.872730392269546" lon="11.985325890861493"><ele>453.0</ele><time>2026-05-03T08:08:36Z</time></trkpt><trkpt lat="43.87283047765928" lon="11.985561712412961"><ele>453.0</ele><time>2026-05-03T08:08:37Z</time></trkpt><trkpt lat="43.872936876370076" lon="11.985806070939843"><ele>445.0</ele><time>2026-05-03T08:08:38Z</time></trkpt><trkpt lat="43.87304922566983" lon="11.986071540247586"><ele>437.0</ele><time>2026-05-03T08:08:39Z</time></trkpt><trkpt lat="43.87316353317686" lon="11.98634673046479"><ele>437.0</ele><time>2026-05-03T08:08:40Z</time></trkpt><trkpt lat="43.87327676849294" lon="11.98662804565531"><ele>437.0</ele><time>2026-05-03T08:08:41Z</time></trkpt><trkpt lat="43.87339552258" lon="11.9869039671487"><ele>447.0</ele><time>2026-05-03T08:08:42Z</time></trkpt><trkpt lat="43.87351826461868" lon="11.987187136427348"><ele>457.0</ele><time>2026-05-03T08:08:43Z</time></trkpt><trkpt lat="43.87363873663553" lon="11.987465016250484"><ele>453.0</ele><time>2026-05-03T08:08:44Z</time></trkpt><trkpt lat="43.87375821882315" lon="11.987743298722366"><ele>449.0</ele><time>2026-05-03T08:08:45Z</time></trkpt><trkpt lat="43.873877667335385" lon="11.988023653474977"><ele>449.0</ele><time>2026-05-03T08:08:46Z</time></trkpt><trkpt lat="43.87399911880877" lon="11.98829927427724"><ele>449.0</ele><time>2026-05-03T08:08:47Z</time></trkpt><trkpt lat="43.87411871604872" lon="11.988578525079083"><ele>452.0</ele><time>2026-05-03T08:08:48Z</time></trkpt><trkpt lat="43.87423886637753" lon="11.988852528510462"><ele>455.0</ele><time>2026-05-03T08:08:49Z</time></trkpt><trkpt lat="43.8743605227875" lon="11.989119852674625"><ele>449.0</ele><time>2026-05-03T08:08:50Z</time></trkpt><trkpt lat="43.87448623676882" lon="11.98939377918762"><ele>443.0</ele><time>2026-05-03T08:08:51Z</time></trkpt><trkpt lat="43.87461484013357" lon="11.989671817600822"><ele>443.0</ele><time>2026-05-03T08:08:52Z</time></trkpt><trkpt lat="43.87473985626593" lon="11.989947382717395"><ele>443.0</ele><time>2026-05-03T08:08:53Z</time></trkpt><trkpt lat="43.8748708110872" lon="11.99022191264237"><ele>443.5</ele><time>2026-05-03T08:08:54Z</time></trkpt><trkpt lat="43.87500526082803" lon="11.990494060782638"><ele>444.0</ele><time>2026-05-03T08:08:55Z</time></trkpt><trkpt lat="43.87514206212958" lon="11.99076321078061"><ele>436.0</ele><time>2026-05-03T08:08:56Z</time></trkpt><trkpt lat="43.87528050462657" lon="11.991027297131618"><ele>428.0</ele><time>2026-05-03T08:08:57Z</time></trkpt><trkpt lat="43.875417847329935" lon="11.991289722949016"><ele>428.0</ele><time>2026-05-03T08:08:58Z</time></trkpt><trkpt lat="43.875551483882546" lon="11.991552589925496"><ele>428.0</ele><time>2026-05-03T08:08:59Z</time></trkpt><trkpt lat="43.875686672306124" lon="11.99181333666515"><ele>433.5</ele><time>2026-05-03T08:09:00Z</time></trkpt><trkpt lat="43.875826193411555" lon="11.99207222342418"><ele>439.0</ele><time>2026-05-03T08:09:01Z</time></trkpt><trkpt lat="43.87596795967821" lon="11.99233127373421"><ele>429.0</ele><time>2026-05-03T08:09:02Z</time></trkpt><trkpt lat="43.876110978467395" lon="11.992588602544975"><ele>419.0</ele><time>2026-05-03T08:09:03Z</time></trkpt><trkpt lat="43.876258979422225" lon="11.992841987039805"><ele>419.0</ele><time>2026-05-03T08:09:04Z</time></trkpt><trkpt lat="43.87640595243655" lon="11.99309781863851"><ele>419.0</ele><time>2026-05-03T08:09:05Z</time></trkpt><trkpt lat="43.87655700650453" lon="11.993349191200497"><ele>423.5</ele><time>2026-05-03T08:09:06Z</time></trkpt><trkpt lat="43.8767098351002" lon="11.993599984042156"><ele>428.0</ele><time>2026-05-03T08:09:07Z</time></trkpt><trkpt lat="43.876861876472894" lon="11.993854699212223"><ele>428.0</ele><time>2026-05-03T08:09:08Z</time></trkpt><trkpt lat="43.877020417425136" lon="11.994102761447618"><ele>428.0</ele><time>2026-05-03T08:09:09Z</time></trkpt><trkpt lat="43.87717985915607" lon="11.994349500719537"><ele>421.0</ele><time>2026-05-03T08:09:10Z</time></trkpt><trkpt lat="43.87734205517581" lon="11.994602063550396"><ele>414.0</ele><time>2026-05-03T08:09:11Z</time></trkpt><trkpt lat="43.87750836035758" lon="11.994850986756722"><ele>415.0</ele><time>2026-05-03T08:09:12Z</time></trkpt><trkpt lat="43.87767830664644" lon="11.995095627639795"><ele>416.0</ele><time>2026-05-03T08:09:13Z</time></trkpt><trkpt lat="43.877852021432595" lon="11.99533735933145"><ele>416.0</ele><time>2026-05-03T08:09:14Z</time></trkpt><trkpt lat="43.878024375810284" lon="11.995586602736648"><ele>416.0</ele><time>2026-05-03T08:09:15Z</time></trkpt><trkpt lat="43.87819605745336" lon="11.995828508177597"><ele>414.5</ele><time>2026-05-03T08:09:16Z</time></trkpt><trkpt lat="43.87837064949224" lon="11.99607046118686"><ele>413.0</ele><time>2026-05-03T08:09:17Z</time></trkpt><trkpt lat="43.87854933706023" lon="11.996308880692203"><ele>413.0</ele><time>2026-05-03T08:09:18Z</time></trkpt><trkpt lat="43.878729471799254" lon="11.996544629445204"><ele>413.0</ele><time>2026-05-03T08:09:19Z</time></trkpt><trkpt lat="43.8789105429083" lon="11.996774912828823"><ele>408.0</ele><time>2026-05-03T08:09:20Z</time></trkpt><trkpt lat="43.87909479538408" lon="11.99700392858678"><ele>403.0</ele><time>2026-05-03T08:09:21Z</time></trkpt><trkpt lat="43.87927218999086" lon="11.997234887732247"><ele>402.0</ele><time>2026-05-03T08:09:22Z</time></trkpt><trkpt lat="43.87945232918016" lon="11.99746411138171"><ele>401.0</ele><time>2026-05-03T08:09:23Z</time></trkpt><trkpt lat="43.8796314459072" lon="11.997694962366214"><ele>397.0</ele><time>2026-05-03T08:09:24Z</time></trkpt><trkpt lat="43.87981368014524" lon="11.997923641907553"><ele>393.0</ele><time>2026-05-03T08:09:25Z</time></trkpt><trkpt lat="43.87999547353265" lon="11.998150569012001"><ele>388.5</ele><time>2026-05-03T08:09:26Z</time></trkpt><trkpt lat="43.88017769897555" lon="11.998379760614137"><ele>384.0</ele><time>2026-05-03T08:09:27Z</time></trkpt><trkpt lat="43.88035595133596" lon="11.998614198675538"><ele>384.0</ele><time>2026-05-03T08:09:28Z</time></trkpt><trkpt lat="43.88052664492346" lon="11.998859756519321"><ele>384.0</ele><time>2026-05-03T08:09:29Z</time></trkpt><trkpt lat="43.8806885929715" lon="11.999116864866446"><ele>386.5</ele><time>2026-05-03T08:09:30Z</time></trkpt><trkpt lat="43.88083922287299" lon="11.999387565606213"><ele>389.0</ele><time>2026-05-03T08:09:31Z</time></trkpt><trkpt lat="43.88097842245117" lon="11.9996701607882"><ele>389.0</ele><time>2026-05-03T08:09:32Z</time></trkpt><trkpt lat="43.88110926390721" lon="11.99996392463087"><ele>389.0</ele><time>2026-05-03T08:09:33Z</time></trkpt><trkpt lat="43.88122999888825" lon="12.00026572801252"><ele>389.0</ele><time>2026-05-03T08:09:34Z</time></trkpt><trkpt lat="43.88133764550254" lon="12.000577365730992"><ele>389.0</ele><time>2026-05-03T08:09:35Z</time></trkpt><trkpt lat="43.88142787492314" lon="12.000895271797756"><ele>384.5</ele><time>2026-05-03T08:09:36Z</time></trkpt><trkpt lat="43.88150890773334" lon="12.001222364564828"><ele>380.0</ele><time>2026-05-03T08:09:37Z</time></trkpt><trkpt lat="43.88157514337617" lon="12.00155717562171"><ele>378.0</ele><time>2026-05-03T08:09:38Z</time></trkpt><trkpt lat="43.88162573437785" lon="12.001897660321012"><ele>376.0</ele><time>2026-05-03T08:09:39Z</time></trkpt><trkpt lat="43.88166434297805" lon="12.00224043840645"><ele>375.0</ele><time>2026-05-03T08:09:40Z</time></trkpt><trkpt lat="43.88169052964562" lon="12.00258570500328"><ele>374.0</ele><time>2026-05-03T08:09:41Z</time></trkpt><trkpt lat="43.88170543867571" lon="12.002932017144127"><ele>374.0</ele><time>2026-05-03T08:09:42Z</time></trkpt><trkpt lat="43.88171768027044" lon="12.003278628486813"><ele>374.0</ele><time>2026-05-03T08:09:43Z</time></trkpt><trkpt lat="43.881729563812506" lon="12.003626591462718"><ele>374.0</ele><time>2026-05-03T08:09:44Z</time></trkpt><trkpt lat="43.88173838328913" lon="12.00397400412668"><ele>374.0</ele><time>2026-05-03T08:09:45Z</time></trkpt><trkpt lat="43.88174825846629" lon="12.00432277152733"><ele>373.0</ele><time>2026-05-03T08:09:46Z</time></trkpt><trkpt lat="43.88175690682906" lon="12.00466821478777"><ele>372.0</ele><time>2026-05-03T08:09:47Z</time></trkpt><trkpt lat="43.88176558793472" lon="12.005017839390096"><ele>378.5</ele><time>2026-05-03T08:09:48Z</time></trkpt><trkpt lat="43.88177434055689" lon="12.005365180886471"><ele>385.0</ele><time>2026-05-03T08:09:49Z</time></trkpt><trkpt lat="43.881782816226284" lon="12.005713506966169"><ele>382.5</ele><time>2026-05-03T08:09:50Z</time></trkpt><trkpt lat="43.88179168820162" lon="12.006060483989305"><ele>380.0</ele><time>2026-05-03T08:09:50.999Z</time></trkpt><trkpt lat="43.881800280779494" lon="12.006407877548426"><ele>379.0</ele><time>2026-05-03T08:09:51.999Z</time></trkpt><trkpt lat="43.881807899831195" lon="12.006753029688845"><ele>378.0</ele><time>2026-05-03T08:09:52.999Z</time></trkpt><trkpt lat="43.88181499224088" lon="12.007101652809752"><ele>378.0</ele><time>2026-05-03T08:09:53.999Z</time></trkpt><trkpt lat="43.88182291986435" lon="12.007443194935005"><ele>378.0</ele><time>2026-05-03T08:09:54.999Z</time></trkpt><trkpt lat="43.8818329794269" lon="12.007786303377122"><ele>376.0</ele><time>2026-05-03T08:09:55.999Z</time></trkpt><trkpt lat="43.88184280777949" lon="12.008127383496687"><ele>374.0</ele><time>2026-05-03T08:09:56.999Z</time></trkpt><trkpt lat="43.881853509921285" lon="12.008471263917038"><ele>371.0</ele><time>2026-05-03T08:09:57.999Z</time></trkpt><trkpt lat="43.881861155595494" lon="12.008812354294356"><ele>368.0</ele><time>2026-05-03T08:09:58.999Z</time></trkpt><trkpt lat="43.88187002879568" lon="12.009151223311214"><ele>367.0</ele><time>2026-05-03T08:09:59.999Z</time></trkpt><trkpt lat="43.881880005842" lon="12.009486284211514"><ele>366.0</ele><time>2026-05-03T08:10:00.999Z</time></trkpt><trkpt lat="43.8818895536124" lon="12.009827299455116"><ele>365.0</ele><time>2026-05-03T08:10:01.999Z</time></trkpt><trkpt lat="43.88189747916874" lon="12.01015858147959"><ele>364.0</ele><time>2026-05-03T08:10:02.999Z</time></trkpt><trkpt lat="43.8819035924388" lon="12.01049630713466"><ele>363.5</ele><time>2026-05-03T08:10:03.999Z</time></trkpt><trkpt lat="43.88191066349024" lon="12.01083236452983"><ele>363.0</ele><time>2026-05-03T08:10:04.999Z</time></trkpt><trkpt lat="43.881918558659216" lon="12.011169783494855"><ele>363.0</ele><time>2026-05-03T08:10:05.999Z</time></trkpt><trkpt lat="43.88192817817864" lon="12.01150151126536"><ele>363.0</ele><time>2026-05-03T08:10:06.999Z</time></trkpt><trkpt lat="43.88194124999495" lon="12.011843663482543"><ele>363.0</ele><time>2026-05-03T08:10:07.999Z</time></trkpt><trkpt lat="43.88195212704989" lon="12.012172211044561"><ele>363.0</ele><time>2026-05-03T08:10:08.999Z</time></trkpt><trkpt lat="43.8819632229473" lon="12.012509191462202"><ele>364.5</ele><time>2026-05-03T08:10:09.999Z</time></trkpt><trkpt lat="43.88197101866314" lon="12.012841474496373"><ele>366.0</ele><time>2026-05-03T08:10:10.999Z</time></trkpt><trkpt lat="43.88197799576421" lon="12.013179812930247"><ele>366.5</ele><time>2026-05-03T08:10:11.999Z</time></trkpt><trkpt lat="43.881985791066434" lon="12.013516398435925"><ele>367.0</ele><time>2026-05-03T08:10:12.999Z</time></trkpt><trkpt lat="43.88199274477156" lon="12.013854084463965"><ele>367.0</ele><time>2026-05-03T08:10:13.999Z</time></trkpt><trkpt lat="43.88200234558038" lon="12.014191824110735"><ele>367.0</ele><time>2026-05-03T08:10:14.999Z</time></trkpt><trkpt lat="43.882009801851616" lon="12.014527786736435"><ele>367.0</ele><time>2026-05-03T08:10:15.999Z</time></trkpt><trkpt lat="43.88201956549134" lon="12.014861390588237"><ele>367.0</ele><time>2026-05-03T08:10:16.999Z</time></trkpt><trkpt lat="43.882029261975035" lon="12.015190605919564"><ele>364.0</ele><time>2026-05-03T08:10:17.999Z</time></trkpt><trkpt lat="43.882039110387254" lon="12.015521132560758"><ele>361.0</ele><time>2026-05-03T08:10:18.999Z</time></trkpt><trkpt lat="43.88205249055904" lon="12.015851641134049"><ele>358.5</ele><time>2026-05-03T08:10:19.999Z</time></trkpt><trkpt lat="43.88207441923793" lon="12.016185617432871"><ele>356.0</ele><time>2026-05-03T08:10:20.999Z</time></trkpt><trkpt lat="43.88211396635147" lon="12.016511063089654"><ele>356.5</ele><time>2026-05-03T08:10:21.999Z</time></trkpt><trkpt lat="43.88216531569874" lon="12.016831210270304"><ele>357.0</ele><time>2026-05-03T08:10:22.999Z</time></trkpt><trkpt lat="43.8822332349261" lon="12.017148805391168"><ele>357.0</ele><time>2026-05-03T08:10:23.999Z</time></trkpt><trkpt lat="43.88231269160238" lon="12.017463953883274"><ele>357.0</ele><time>2026-05-03T08:10:24.999Z</time></trkpt><trkpt lat="43.88240529516983" lon="12.017772172740019"><ele>357.5</ele><time>2026-05-03T08:10:25.999Z</time></trkpt><trkpt lat="43.88251301722775" lon="12.01807706956006"><ele>358.0</ele><time>2026-05-03T08:10:26.999Z</time></trkpt><trkpt lat="43.882632972280035" lon="12.01837759017566"><ele>358.0</ele><time>2026-05-03T08:10:27.999Z</time></trkpt><trkpt lat="43.88276517615317" lon="12.018669947995154"><ele>358.0</ele><time>2026-05-03T08:10:28.999Z</time></trkpt><trkpt lat="43.882911134686665" lon="12.018948037815267"><ele>358.5</ele><time>2026-05-03T08:10:29.999Z</time></trkpt><trkpt lat="43.883068840096776" lon="12.019214509354612"><ele>359.0</ele><time>2026-05-03T08:10:30.999Z</time></trkpt><trkpt lat="43.88323892921034" lon="12.01946684534909"><ele>359.0</ele><time>2026-05-03T08:10:31.999Z</time></trkpt><trkpt lat="43.88342299538513" lon="12.019703884832595"><ele>359.0</ele><time>2026-05-03T08:10:32.999Z</time></trkpt><trkpt lat="43.88361300477724" lon="12.01992950614058"><ele>359.5</ele><time>2026-05-03T08:10:33.999Z</time></trkpt><trkpt lat="43.883813209744716" lon="12.020139661710225"><ele>360.0</ele><time>2026-05-03T08:10:34.999Z</time></trkpt><trkpt lat="43.88401761566939" lon="12.020344193995873"><ele>360.0</ele><time>2026-05-03T08:10:35.999Z</time></trkpt><trkpt lat="43.88422577328042" lon="12.020545957751166"><ele>360.0</ele><time>2026-05-03T08:10:36.999Z</time></trkpt><trkpt lat="43.884432651768094" lon="12.020741776508807"><ele>358.5</ele><time>2026-05-03T08:10:37.999Z</time></trkpt><trkpt lat="43.88464255714073" lon="12.020947230466922"><ele>357.0</ele><time>2026-05-03T08:10:38.999Z</time></trkpt><trkpt lat="43.884845866581074" lon="12.02115780991542"><ele>357.0</ele><time>2026-05-03T08:10:39.999Z</time></trkpt><trkpt lat="43.88504196086064" lon="12.021378899627006"><ele>357.0</ele><time>2026-05-03T08:10:40.999Z</time></trkpt><trkpt lat="43.88523136877172" lon="12.021619334218455"><ele>353.5</ele><time>2026-05-03T08:10:42Z</time></trkpt><trkpt lat="43.885411610983724" lon="12.02187314358872"><ele>350.0</ele><time>2026-05-03T08:10:43Z</time></trkpt><trkpt lat="43.88557654625041" lon="12.022142581360868"><ele>350.0</ele><time>2026-05-03T08:10:44Z</time></trkpt><trkpt lat="43.885736948597796" lon="12.02242347824775"><ele>350.0</ele><time>2026-05-03T08:10:45Z</time></trkpt><trkpt lat="43.88588043470467" lon="12.022721034937833"><ele>352.0</ele><time>2026-05-03T08:10:46Z</time></trkpt><trkpt lat="43.88601427299947" lon="12.023029157149058"><ele>354.0</ele><time>2026-05-03T08:10:47Z</time></trkpt><trkpt lat="43.88613487749802" lon="12.023339986559943"><ele>354.0</ele><time>2026-05-03T08:10:48Z</time></trkpt><trkpt lat="43.886244898840495" lon="12.02367126655238"><ele>354.0</ele><time>2026-05-03T08:10:49Z</time></trkpt><trkpt lat="43.886337159643794" lon="12.024003104906436"><ele>352.5</ele><time>2026-05-03T08:10:50Z</time></trkpt><trkpt lat="43.88641481718345" lon="12.02434508299385"><ele>351.0</ele><time>2026-05-03T08:10:51Z</time></trkpt><trkpt lat="43.88647723034155" lon="12.02469327411553"><ele>349.0</ele><time>2026-05-03T08:10:52Z</time></trkpt><trkpt lat="43.88652778654774" lon="12.02504635873523"><ele>347.0</ele><time>2026-05-03T08:10:53Z</time></trkpt><trkpt lat="43.88656578389513" lon="12.02539804353005"><ele>347.0</ele><time>2026-05-03T08:10:54Z</time></trkpt><trkpt lat="43.88659616436485" lon="12.02575429474169"><ele>347.0</ele><time>2026-05-03T08:10:55Z</time></trkpt><trkpt lat="43.88662277849964" lon="12.026108716083476"><ele>347.5</ele><time>2026-05-03T08:10:56Z</time></trkpt><trkpt lat="43.88665296465746" lon="12.026465147232788"><ele>348.0</ele><time>2026-05-03T08:10:57Z</time></trkpt><trkpt lat="43.88668232224564" lon="12.026816692149946"><ele>346.0</ele><time>2026-05-03T08:10:58Z</time></trkpt><trkpt lat="43.88671120627164" lon="12.027171309149846"><ele>344.0</ele><time>2026-05-03T08:10:59Z</time></trkpt><trkpt lat="43.886738088806105" lon="12.027528365775686"><ele>364.5</ele><time>2026-05-03T08:11:00Z</time></trkpt><trkpt lat="43.8867726679235" lon="12.027881025106907"><ele>385.0</ele><time>2026-05-03T08:11:01Z</time></trkpt><trkpt lat="43.88681863870931" lon="12.028231428538508"><ele>384.0</ele><time>2026-05-03T08:11:02Z</time></trkpt><trkpt lat="43.88687639779905" lon="12.02857610972716"><ele>383.0</ele><time>2026-05-03T08:11:03Z</time></trkpt><trkpt lat="43.88694630739652" lon="12.028922637546552"><ele>378.0</ele><time>2026-05-03T08:11:04Z</time></trkpt><trkpt lat="43.88702651808448" lon="12.029262380324003"><ele>373.0</ele><time>2026-05-03T08:11:05Z</time></trkpt><trkpt lat="43.887115037673006" lon="12.02960535180109"><ele>373.0</ele><time>2026-05-03T08:11:06Z</time></trkpt><trkpt lat="43.88720874247026" lon="12.029943939791957"><ele>373.0</ele><time>2026-05-03T08:11:07Z</time></trkpt><trkpt lat="43.88730635073655" lon="12.030280473470679"><ele>366.5</ele><time>2026-05-03T08:11:08Z</time></trkpt><trkpt lat="43.88740572590824" lon="12.030620202216262"><ele>360.0</ele><time>2026-05-03T08:11:09Z</time></trkpt><trkpt lat="43.88750588746889" lon="12.030959787659402"><ele>360.0</ele><time>2026-05-03T08:11:10Z</time></trkpt><trkpt lat="43.887604039351295" lon="12.0312994034835"><ele>360.0</ele><time>2026-05-03T08:11:11Z</time></trkpt><trkpt lat="43.887702657259595" lon="12.03164163979988"><ele>360.0</ele><time>2026-05-03T08:11:12Z</time></trkpt><trkpt lat="43.88779974088382" lon="12.031984089789848"><ele>360.0</ele><time>2026-05-03T08:11:13Z</time></trkpt><trkpt lat="43.88789743776341" lon="12.032326764059292"><ele>356.0</ele><time>2026-05-03T08:11:14Z</time></trkpt><trkpt lat="43.887995928162546" lon="12.03266948233779"><ele>352.0</ele><time>2026-05-03T08:11:15Z</time></trkpt><trkpt lat="43.88809517980294" lon="12.03301122755105"><ele>348.0</ele><time>2026-05-03T08:11:16Z</time></trkpt><trkpt lat="43.88819480045901" lon="12.033354015215822"><ele>344.0</ele><time>2026-05-03T08:11:17Z</time></trkpt><trkpt lat="43.888294688154474" lon="12.033697068532893"><ele>344.0</ele><time>2026-05-03T08:11:18Z</time></trkpt><trkpt lat="43.888393162304304" lon="12.034036974656043"><ele>344.0</ele><time>2026-05-03T08:11:19Z</time></trkpt><trkpt lat="43.88849389238409" lon="12.034377091448235"><ele>345.5</ele><time>2026-05-03T08:11:20Z</time></trkpt><trkpt lat="43.888594327011475" lon="12.034716575782364"><ele>347.0</ele><time>2026-05-03T08:11:21Z</time></trkpt><trkpt lat="43.8886947448563" lon="12.035057098502016"><ele>348.5</ele><time>2026-05-03T08:11:22Z</time></trkpt><trkpt lat="43.88879405108441" lon="12.03539748302495"><ele>350.0</ele><time>2026-05-03T08:11:23Z</time></trkpt><trkpt lat="43.888892682521714" lon="12.035737371795628"><ele>347.0</ele><time>2026-05-03T08:11:24Z</time></trkpt><trkpt lat="43.88899138346129" lon="12.036077524731509"><ele>344.0</ele><time>2026-05-03T08:11:25Z</time></trkpt><trkpt lat="43.88909002948439" lon="12.036417910443678"><ele>340.0</ele><time>2026-05-03T08:11:26Z</time></trkpt><trkpt lat="43.889188542096605" lon="12.036758888123227"><ele>336.0</ele><time>2026-05-03T08:11:27Z</time></trkpt><trkpt lat="43.889284724560525" lon="12.037095825428496"><ele>341.5</ele><time>2026-05-03T08:11:28Z</time></trkpt><trkpt lat="43.8893826937497" lon="12.037433075497665"><ele>347.0</ele><time>2026-05-03T08:11:29Z</time></trkpt><trkpt lat="43.88947919544629" lon="12.037767664071774"><ele>347.0</ele><time>2026-05-03T08:11:30Z</time></trkpt><trkpt lat="43.88957362878465" lon="12.038102517981395"><ele>347.0</ele><time>2026-05-03T08:11:31Z</time></trkpt><trkpt lat="43.88966839301018" lon="12.03843673450107"><ele>344.0</ele><time>2026-05-03T08:11:32Z</time></trkpt><trkpt lat="43.88976343755663" lon="12.038768728607632"><ele>341.0</ele><time>2026-05-03T08:11:33Z</time></trkpt><trkpt lat="43.889858869132375" lon="12.039100084941886"><ele>339.5</ele><time>2026-05-03T08:11:34Z</time></trkpt><trkpt lat="43.88995383556358" lon="12.039429616855363"><ele>338.0</ele><time>2026-05-03T08:11:35Z</time></trkpt><trkpt lat="43.890047845201856" lon="12.039758738928157"><ele>343.5</ele><time>2026-05-03T08:11:36Z</time></trkpt><trkpt lat="43.89014428861001" lon="12.040082921003926"><ele>349.0</ele><time>2026-05-03T08:11:37Z</time></trkpt><trkpt lat="43.89024067435189" lon="12.040406656748269"><ele>349.0</ele><time>2026-05-03T08:11:38Z</time></trkpt><trkpt lat="43.890336960466925" lon="12.040730909538597"><ele>349.0</ele><time>2026-05-03T08:11:39Z</time></trkpt><trkpt lat="43.89043218974576" lon="12.041052904442962"><ele>341.0</ele><time>2026-05-03T08:11:40Z</time></trkpt><trkpt lat="43.89052792482023" lon="12.041378402632855"><ele>333.0</ele><time>2026-05-03T08:11:41Z</time></trkpt><trkpt lat="43.89062372347021" lon="12.041702888873651"><ele>332.5</ele><time>2026-05-03T08:11:42Z</time></trkpt><trkpt lat="43.89071532177392" lon="12.04202536735445"><ele>332.0</ele><time>2026-05-03T08:11:43Z</time></trkpt><trkpt lat="43.890804472801875" lon="12.042352162189474"><ele>332.0</ele><time>2026-05-03T08:11:44Z</time></trkpt><trkpt lat="43.89088423660878" lon="12.042682459401243"><ele>332.0</ele><time>2026-05-03T08:11:45Z</time></trkpt><trkpt lat="43.89095770048867" lon="12.043015402230553"><ele>339.0</ele><time>2026-05-03T08:11:46Z</time></trkpt><trkpt lat="43.89101985820267" lon="12.043352550553779"><ele>346.0</ele><time>2026-05-03T08:11:47Z</time></trkpt><trkpt lat="43.89107222123389" lon="12.043690468953123"><ele>346.0</ele><time>2026-05-03T08:11:48Z</time></trkpt><trkpt lat="43.8911225965767" lon="12.044032738533407"><ele>346.0</ele><time>2026-05-03T08:11:49Z</time></trkpt><trkpt lat="43.89116431563508" lon="12.04437734722876"><ele>338.0</ele><time>2026-05-03T08:11:50Z</time></trkpt><trkpt lat="43.89119111076468" lon="12.044720759286356"><ele>330.0</ele><time>2026-05-03T08:11:51Z</time></trkpt><trkpt lat="43.891205240186686" lon="12.045067567491074"><ele>330.0</ele><time>2026-05-03T08:11:52Z</time></trkpt><trkpt lat="43.89120436153885" lon="12.045416304798872"><ele>330.0</ele><time>2026-05-03T08:11:53Z</time></trkpt><trkpt lat="43.891190384793525" lon="12.045764942343068"><ele>328.0</ele><time>2026-05-03T08:11:53.999Z</time></trkpt><trkpt lat="43.89117179678563" lon="12.046113422911892"><ele>326.0</ele><time>2026-05-03T08:11:54.999Z</time></trkpt><trkpt lat="43.89114339262234" lon="12.046462175155398"><ele>325.0</ele><time>2026-05-03T08:11:55.999Z</time></trkpt><trkpt lat="43.89110625267128" lon="12.046810289684045"><ele>324.0</ele><time>2026-05-03T08:11:56.999Z</time></trkpt><trkpt lat="43.89105930078245" lon="12.047154208961468"><ele>330.0</ele><time>2026-05-03T08:11:57.999Z</time></trkpt><trkpt lat="43.89100170689558" lon="12.047503364994093"><ele>336.0</ele><time>2026-05-03T08:11:58.999Z</time></trkpt><trkpt lat="43.890934863163515" lon="12.047843693532643"><ele>332.0</ele><time>2026-05-03T08:11:59.999Z</time></trkpt><trkpt lat="43.89085423561269" lon="12.04818139821345"><ele>328.0</ele><time>2026-05-03T08:12:00.999Z</time></trkpt><trkpt lat="43.89076335682085" lon="12.048513863669063"><ele>328.0</ele><time>2026-05-03T08:12:01.999Z</time></trkpt><trkpt lat="43.89066516361025" lon="12.048845457948708"><ele>328.0</ele><time>2026-05-03T08:12:02.999Z</time></trkpt><trkpt lat="43.89056054519963" lon="12.049173526870776"><ele>331.0</ele><time>2026-05-03T08:12:03.999Z</time></trkpt><trkpt lat="43.89045289741221" lon="12.049500598838554"><ele>334.0</ele><time>2026-05-03T08:12:04.999Z</time></trkpt><trkpt lat="43.89034450222565" lon="12.049826346767052"><ele>338.0</ele><time>2026-05-03T08:12:05.999Z</time></trkpt><trkpt lat="43.8902357349775" lon="12.050150170654849"><ele>342.0</ele><time>2026-05-03T08:12:06.999Z</time></trkpt><trkpt lat="43.89012919902224" lon="12.050472641508325"><ele>337.0</ele><time>2026-05-03T08:12:07.999Z</time></trkpt><trkpt lat="43.89002452606008" lon="12.050796507744888"><ele>332.0</ele><time>2026-05-03T08:12:08.999Z</time></trkpt><trkpt lat="43.88992396338379" lon="12.051119985025878"><ele>332.0</ele><time>2026-05-03T08:12:09.999Z</time></trkpt><trkpt lat="43.88982408559441" lon="12.051443854559743"><ele>332.0</ele><time>2026-05-03T08:12:10.999Z</time></trkpt><trkpt lat="43.889729047496616" lon="12.051770039498006"><ele>330.5</ele><time>2026-05-03T08:12:11.999Z</time></trkpt><trkpt lat="43.88963813582088" lon="12.052099419836704"><ele>329.0</ele><time>2026-05-03T08:12:12.999Z</time></trkpt><trkpt lat="43.889552810246464" lon="12.052427894280312"><ele>329.0</ele><time>2026-05-03T08:12:13.999Z</time></trkpt><trkpt lat="43.88947648709023" lon="12.052758397082172"><ele>329.0</ele><time>2026-05-03T08:12:14.999Z</time></trkpt><trkpt lat="43.88940652997212" lon="12.0530926975397"><ele>332.0</ele><time>2026-05-03T08:12:15.999Z</time></trkpt><trkpt lat="43.88933965287819" lon="12.053427968604831"><ele>335.0</ele><time>2026-05-03T08:12:16.999Z</time></trkpt><trkpt lat="43.889279176446806" lon="12.053764159290395"><ele>329.5</ele><time>2026-05-03T08:12:17.999Z</time></trkpt><trkpt lat="43.88922281618285" lon="12.054100003232579"><ele>324.0</ele><time>2026-05-03T08:12:18.999Z</time></trkpt><trkpt lat="43.8891702514082" lon="12.054435478475432"><ele>324.0</ele><time>2026-05-03T08:12:19.999Z</time></trkpt><trkpt lat="43.88912503358419" lon="12.054771839423614"><ele>324.0</ele><time>2026-05-03T08:12:20.999Z</time></trkpt><trkpt lat="43.889088631670894" lon="12.05510758647189"><ele>325.0</ele><time>2026-05-03T08:12:21.999Z</time></trkpt><trkpt lat="43.88905375172911" lon="12.055443414183339"><ele>326.0</ele><time>2026-05-03T08:12:22.999Z</time></trkpt><trkpt lat="43.88902251748571" lon="12.055779762332344"><ele>324.0</ele><time>2026-05-03T08:12:23.999Z</time></trkpt><trkpt lat="43.888999376912466" lon="12.056118124196775"><ele>322.0</ele><time>2026-05-03T08:12:24.999Z</time></trkpt><trkpt lat="43.88897938716913" lon="12.056457568287916"><ele>322.5</ele><time>2026-05-03T08:12:25.999Z</time></trkpt><trkpt lat="43.888956415121946" lon="12.056797604368114"><ele>323.0</ele><time>2026-05-03T08:12:26.999Z</time></trkpt><trkpt lat="43.88893482922965" lon="12.057136651514362"><ele>323.0</ele><time>2026-05-03T08:12:27.999Z</time></trkpt><trkpt lat="43.88891384029824" lon="12.05747607729091"><ele>323.0</ele><time>2026-05-03T08:12:28.999Z</time></trkpt><trkpt lat="43.88889346995354" lon="12.057814176118633"><ele>323.0</ele><time>2026-05-03T08:12:29.999Z</time></trkpt><trkpt lat="43.888871879708" lon="12.058154756732817"><ele>323.0</ele><time>2026-05-03T08:12:30.999Z</time></trkpt><trkpt lat="43.88885023421415" lon="12.058493144235129"><ele>322.0</ele><time>2026-05-03T08:12:31.999Z</time></trkpt><trkpt lat="43.88882822432478" lon="12.05883363907321"><ele>321.0</ele><time>2026-05-03T08:12:32.999Z</time></trkpt><trkpt lat="43.88880689902773" lon="12.059171703666596"><ele>321.0</ele><time>2026-05-03T08:12:33.999Z</time></trkpt><trkpt lat="43.88878694078488" lon="12.059509500292586"><ele>321.0</ele><time>2026-05-03T08:12:34.999Z</time></trkpt><trkpt lat="43.88876485548364" lon="12.059849739840674"><ele>321.5</ele><time>2026-05-03T08:12:35.999Z</time></trkpt><trkpt lat="43.88874296526597" lon="12.06019139894025"><ele>322.0</ele><time>2026-05-03T08:12:36.999Z</time></trkpt><trkpt lat="43.88872196448048" lon="12.06053257170273"><ele>323.5</ele><time>2026-05-03T08:12:37.999Z</time></trkpt><trkpt lat="43.8886998982759" lon="12.060875876770119"><ele>325.0</ele><time>2026-05-03T08:12:38.999Z</time></trkpt><trkpt lat="43.88867732793364" lon="12.061215248921567"><ele>325.0</ele><time>2026-05-03T08:12:39.999Z</time></trkpt><trkpt lat="43.888656275659585" lon="12.061558651329621"><ele>325.0</ele><time>2026-05-03T08:12:40.999Z</time></trkpt><trkpt lat="43.88863400802279" lon="12.061898268105585"><ele>328.5</ele><time>2026-05-03T08:12:41.999Z</time></trkpt><trkpt lat="43.88861104056016" lon="12.062238667843385"><ele>332.0</ele><time>2026-05-03T08:12:42.999Z</time></trkpt><trkpt lat="43.88858870056375" lon="12.062579635254588"><ele>334.5</ele><time>2026-05-03T08:12:43.999Z</time></trkpt><trkpt lat="43.88856753687821" lon="12.062921811013645"><ele>337.0</ele><time>2026-05-03T08:12:44.999Z</time></trkpt><trkpt lat="43.888548735261764" lon="12.063262948993724"><ele>338.0</ele><time>2026-05-03T08:12:45.999Z</time></trkpt><trkpt lat="43.8885271465295" lon="12.06360440451964"><ele>339.0</ele><time>2026-05-03T08:12:46.999Z</time></trkpt><trkpt lat="43.888503425585064" lon="12.063944381267063"><ele>337.5</ele><time>2026-05-03T08:12:48Z</time></trkpt><trkpt lat="43.888479633588766" lon="12.064285023915167"><ele>336.0</ele><time>2026-05-03T08:12:49Z</time></trkpt><trkpt lat="43.88845856723824" lon="12.064626569096413"><ele>337.0</ele><time>2026-05-03T08:12:50Z</time></trkpt><trkpt lat="43.88844100683518" lon="12.064966308371238"><ele>338.0</ele><time>2026-05-03T08:12:51Z</time></trkpt><trkpt lat="43.8884279113536" lon="12.065306315517557"><ele>330.5</ele><time>2026-05-03T08:12:52Z</time></trkpt><trkpt lat="43.88842122617927" lon="12.065648135852296"><ele>323.0</ele><time>2026-05-03T08:12:53Z</time></trkpt><trkpt lat="43.88841997297998" lon="12.065989312529474"><ele>323.0</ele><time>2026-05-03T08:12:54Z</time></trkpt><trkpt lat="43.88842247831907" lon="12.066329249808966"><ele>323.0</ele><time>2026-05-03T08:12:55Z</time></trkpt><trkpt lat="43.88843008989259" lon="12.06666815700159"><ele>329.5</ele><time>2026-05-03T08:12:56Z</time></trkpt><trkpt lat="43.88843995910262" lon="12.06700825693005"><ele>336.0</ele><time>2026-05-03T08:12:57Z</time></trkpt><trkpt lat="43.888455111741024" lon="12.06734733774696"><ele>336.5</ele><time>2026-05-03T08:12:58Z</time></trkpt><trkpt lat="43.888474576133255" lon="12.067685412009004"><ele>337.0</ele><time>2026-05-03T08:12:59Z</time></trkpt><trkpt lat="43.88849844577241" lon="12.068022737189956"><ele>334.0</ele><time>2026-05-03T08:13:00Z</time></trkpt><trkpt lat="43.88852658195347" lon="12.068359915380698"><ele>331.0</ele><time>2026-05-03T08:13:01Z</time></trkpt><trkpt lat="43.88855936574107" lon="12.06869649083555"><ele>331.0</ele><time>2026-05-03T08:13:02Z</time></trkpt><trkpt lat="43.888595600527744" lon="12.069033451542287"><ele>331.0</ele><time>2026-05-03T08:13:03Z</time></trkpt><trkpt lat="43.888635205011525" lon="12.069368162779776"><ele>332.0</ele><time>2026-05-03T08:13:04Z</time></trkpt><trkpt lat="43.88868082596104" lon="12.069706639885577"><ele>333.0</ele><time>2026-05-03T08:13:05Z</time></trkpt><trkpt lat="43.88872833621112" lon="12.07004312106368"><ele>330.0</ele><time>2026-05-03T08:13:06Z</time></trkpt><trkpt lat="43.8887796955284" lon="12.0703771539716"><ele>327.0</ele><time>2026-05-03T08:13:07Z</time></trkpt><trkpt lat="43.88883507787068" lon="12.070712439011958"><ele>324.0</ele><time>2026-05-03T08:13:08Z</time></trkpt><trkpt lat="43.888890491007864" lon="12.07104497690525"><ele>321.0</ele><time>2026-05-03T08:13:09Z</time></trkpt><trkpt lat="43.888944207260444" lon="12.071384563421603"><ele>320.0</ele><time>2026-05-03T08:13:10Z</time></trkpt><trkpt lat="43.889001405416245" lon="12.071719035723445"><ele>319.0</ele><time>2026-05-03T08:13:11Z</time></trkpt><trkpt lat="43.889069004864155" lon="12.072046368352236"><ele>319.0</ele><time>2026-05-03T08:13:12Z</time></trkpt><trkpt lat="43.88914788505507" lon="12.07237171268066"><ele>319.0</ele><time>2026-05-03T08:13:13Z</time></trkpt><trkpt lat="43.889238099662656" lon="12.072695974193753"><ele>321.5</ele><time>2026-05-03T08:13:14Z</time></trkpt><trkpt lat="43.88933769202757" lon="12.073012708586797"><ele>324.0</ele><time>2026-05-03T08:13:15Z</time></trkpt><trkpt lat="43.88945128412947" lon="12.073322823768228"><ele>324.0</ele><time>2026-05-03T08:13:16Z</time></trkpt><trkpt lat="43.889580230260776" lon="12.07362086699686"><ele>324.0</ele><time>2026-05-03T08:13:17Z</time></trkpt><trkpt lat="43.88971879241433" lon="12.073907757093052"><ele>325.5</ele><time>2026-05-03T08:13:18Z</time></trkpt><trkpt lat="43.88986792031631" lon="12.07418367789146"><ele>327.0</ele><time>2026-05-03T08:13:19Z</time></trkpt><trkpt lat="43.89002642260393" lon="12.074445045550736"><ele>331.5</ele><time>2026-05-03T08:13:20Z</time></trkpt><trkpt lat="43.890195556427884" lon="12.074691320978985"><ele>336.0</ele><time>2026-05-03T08:13:21Z</time></trkpt><trkpt lat="43.89035291514203" lon="12.074939276445754"><ele>336.0</ele><time>2026-05-03T08:13:22Z</time></trkpt><trkpt lat="43.89055924872382" lon="12.075140985984333"><ele>336.0</ele><time>2026-05-03T08:13:23Z</time></trkpt><trkpt lat="43.89075142748281" lon="12.075346739067946"><ele>349.0</ele><time>2026-05-03T08:13:24Z</time></trkpt><trkpt lat="43.89095062116138" lon="12.075548497814209"><ele>362.0</ele><time>2026-05-03T08:13:25Z</time></trkpt><trkpt lat="43.89115566004819" lon="12.075747286885882"><ele>365.5</ele><time>2026-05-03T08:13:26Z</time></trkpt><trkpt lat="43.891361447185275" lon="12.075944705073047"><ele>369.0</ele><time>2026-05-03T08:13:27Z</time></trkpt><trkpt lat="43.891570115629285" lon="12.076138220635283"><ele>377.5</ele><time>2026-05-03T08:13:28Z</time></trkpt><trkpt lat="43.891779948238714" lon="12.076331684081277"><ele>386.0</ele><time>2026-05-03T08:13:29Z</time></trkpt><trkpt lat="43.89198976177149" lon="12.07652723518319"><ele>393.0</ele><time>2026-05-03T08:13:30Z</time></trkpt><trkpt lat="43.892198674354226" lon="12.076724964364566"><ele>400.0</ele><time>2026-05-03T08:13:31Z</time></trkpt><trkpt lat="43.89240646230651" lon="12.076923377685425"><ele>411.5</ele><time>2026-05-03T08:13:32Z</time></trkpt><trkpt lat="43.89262756343429" lon="12.077131558932678"><ele>423.0</ele><time>2026-05-03T08:13:33.068Z</time></trkpt><trkpt lat="43.892833618813306" lon="12.07732343025354"><ele>428.0</ele><time>2026-05-03T08:13:34.066Z</time></trkpt><trkpt lat="43.893036690603246" lon="12.07751118409777"><ele>433.0</ele><time>2026-05-03T08:13:35.059Z</time></trkpt><trkpt lat="43.89323920671837" lon="12.0776986296797"><ele>310.0</ele><time>2026-05-03T08:13:36.059Z</time></trkpt><trkpt lat="43.90015129306354" lon="12.101524455765766"><ele>299.5</ele><time>2026-05-03T08:14:53.999Z</time></trkpt><trkpt lat="43.90019414563422" lon="12.101884040440785"><ele>289.0</ele><time>2026-05-03T08:14:54.999Z</time></trkpt><trkpt lat="43.90024546999191" lon="12.102219563779325"><ele>293.0</ele><time>2026-05-03T08:14:55.999Z</time></trkpt><trkpt lat="43.900303785110424" lon="12.102555285600335"><ele>297.0</ele><time>2026-05-03T08:14:56.999Z</time></trkpt><trkpt lat="43.900355585297085" lon="12.102894132799879"><ele>297.0</ele><time>2026-05-03T08:14:57.999Z</time></trkpt><trkpt lat="43.900412071364364" lon="12.103222898026312"><ele>297.0</ele><time>2026-05-03T08:14:58.999Z</time></trkpt><trkpt lat="43.900464897263014" lon="12.10356239997511"><ele>297.5</ele><time>2026-05-03T08:15:00Z</time></trkpt><trkpt lat="43.90051959142319" lon="12.103902989553875"><ele>298.0</ele><time>2026-05-03T08:15:01Z</time></trkpt><trkpt lat="43.90057684690963" lon="12.104245001655825"><ele>298.0</ele><time>2026-05-03T08:15:02Z</time></trkpt><trkpt lat="43.90063162392116" lon="12.104591097012529"><ele>298.0</ele><time>2026-05-03T08:15:03Z</time></trkpt><trkpt lat="43.90068803153606" lon="12.104938603341454"><ele>292.0</ele><time>2026-05-03T08:15:04Z</time></trkpt><trkpt lat="43.90074471845171" lon="12.105282909179174"><ele>286.0</ele><time>2026-05-03T08:15:05Z</time></trkpt><trkpt lat="43.90080018001404" lon="12.105629428986312"><ele>293.5</ele><time>2026-05-03T08:15:06Z</time></trkpt><trkpt lat="43.900859786305396" lon="12.105975655826123"><ele>301.0</ele><time>2026-05-03T08:15:07Z</time></trkpt><trkpt lat="43.90092236966048" lon="12.106321312485653"><ele>299.0</ele><time>2026-05-03T08:15:08Z</time></trkpt><trkpt lat="43.900991748247165" lon="12.106662840322178"><ele>297.0</ele><time>2026-05-03T08:15:09Z</time></trkpt><trkpt lat="43.90107548546857" lon="12.106998529160048"><ele>297.0</ele><time>2026-05-03T08:15:10Z</time></trkpt><trkpt lat="43.90117183486902" lon="12.107329747278769"><ele>297.0</ele><time>2026-05-03T08:15:11Z</time></trkpt><trkpt lat="43.90127793911988" lon="12.107655765235318"><ele>290.5</ele><time>2026-05-03T08:15:12Z</time></trkpt><trkpt lat="43.90139023706919" lon="12.107973310029942"><ele>284.0</ele><time>2026-05-03T08:15:13Z</time></trkpt><trkpt lat="43.9015095147167" lon="12.10828656781729"><ele>274.5</ele><time>2026-05-03T08:15:14Z</time></trkpt><trkpt lat="43.90163681642514" lon="12.10859482840339"><ele>265.0</ele><time>2026-05-03T08:15:15Z</time></trkpt><trkpt lat="43.90177319368952" lon="12.108895652813084"><ele>272.5</ele><time>2026-05-03T08:15:16Z</time></trkpt><trkpt lat="43.901918713874686" lon="12.109187964303139"><ele>280.0</ele><time>2026-05-03T08:15:17Z</time></trkpt><trkpt lat="43.90207192856559" lon="12.109471828860716"><ele>280.0</ele><time>2026-05-03T08:15:18Z</time></trkpt><trkpt lat="43.90223209452356" lon="12.109747195200164"><ele>280.0</ele><time>2026-05-03T08:15:19Z</time></trkpt><trkpt lat="43.902400361405164" lon="12.110013991147355"><ele>283.0</ele><time>2026-05-03T08:15:20Z</time></trkpt><trkpt lat="43.902577181238144" lon="12.11027547906438"><ele>286.0</ele><time>2026-05-03T08:15:21Z</time></trkpt><trkpt lat="43.90276308161018" lon="12.110531218747875"><ele>290.5</ele><time>2026-05-03T08:15:22Z</time></trkpt><trkpt lat="43.902957645028955" lon="12.110780856771111"><ele>295.0</ele><time>2026-05-03T08:15:23Z</time></trkpt><trkpt lat="43.903160676358624" lon="12.111023573063177"><ele>295.0</ele><time>2026-05-03T08:15:24Z</time></trkpt><trkpt lat="43.90337190609769" lon="12.11125869723428"><ele>295.0</ele><time>2026-05-03T08:15:25Z</time></trkpt><trkpt lat="43.90358827712901" lon="12.111490165235367"><ele>293.5</ele><time>2026-05-03T08:15:26Z</time></trkpt><trkpt lat="43.90382178150336" lon="12.11174231886285"><ele>292.0</ele><time>2026-05-03T08:15:27.07Z</time></trkpt><trkpt lat="43.904039874236695" lon="12.111986416744596"><ele>296.5</ele><time>2026-05-03T08:15:28.063Z</time></trkpt><trkpt lat="43.90426276117847" lon="12.112236647503833"><ele>301.0</ele><time>2026-05-03T08:15:29.069Z</time></trkpt><trkpt lat="43.904489088935826" lon="12.112486704081357"><ele>288.0</ele><time>2026-05-03T08:15:30.066Z</time></trkpt><trkpt lat="43.90471381446521" lon="12.11273316786811"><ele>275.0</ele><time>2026-05-03T08:15:31.059Z</time></trkpt><trkpt lat="43.904961197536494" lon="12.113075870441445"><ele>269.0</ele><time>2026-05-03T08:15:33Z</time></trkpt><trkpt lat="43.90517618952266" lon="12.113201682647995"><ele>263.0</ele><time>2026-05-03T08:15:34Z</time></trkpt><trkpt lat="43.90538400291076" lon="12.113399100280892"><ele>263.0</ele><time>2026-05-03T08:15:35Z</time></trkpt><trkpt lat="43.90558550441998" lon="12.113614506241321"><ele>263.0</ele><time>2026-05-03T08:15:36Z</time></trkpt><trkpt lat="43.905786712579584" lon="12.113829303721769"><ele>261.0</ele><time>2026-05-03T08:15:37Z</time></trkpt><trkpt lat="43.90598677663089" lon="12.114053509410498"><ele>259.0</ele><time>2026-05-03T08:15:38Z</time></trkpt><trkpt lat="43.90617687555977" lon="12.114289730879586"><ele>259.0</ele><time>2026-05-03T08:15:39Z</time></trkpt><trkpt lat="43.90636074706865" lon="12.114536662001091"><ele>259.0</ele><time>2026-05-03T08:15:40Z</time></trkpt><trkpt lat="43.90653420361371" lon="12.114794141992741"><ele>262.0</ele><time>2026-05-03T08:15:41Z</time></trkpt><trkpt lat="43.906702195809075" lon="12.115067483027037"><ele>265.0</ele><time>2026-05-03T08:15:42Z</time></trkpt><trkpt lat="43.90686274721782" lon="12.115348836677777"><ele>265.0</ele><time>2026-05-03T08:15:43Z</time></trkpt><trkpt lat="43.90701351076625" lon="12.115637461792451"><ele>265.0</ele><time>2026-05-03T08:15:44Z</time></trkpt><trkpt lat="43.907157015083754" lon="12.115934220675404"><ele>262.0</ele><time>2026-05-03T08:15:45Z</time></trkpt><trkpt lat="43.90729897408308" lon="12.116233287495737"><ele>259.0</ele><time>2026-05-03T08:15:46Z</time></trkpt><trkpt lat="43.90744209810443" lon="12.116528852854607"><ele>258.0</ele><time>2026-05-03T08:15:47Z</time></trkpt><trkpt lat="43.90758641896575" lon="12.116823028555016"><ele>257.0</ele><time>2026-05-03T08:15:48Z</time></trkpt><trkpt lat="43.90773069748874" lon="12.117117135712402"><ele>253.0</ele><time>2026-05-03T08:15:49Z</time></trkpt><trkpt lat="43.90787487629211" lon="12.117411036830081"><ele>249.0</ele><time>2026-05-03T08:15:50Z</time></trkpt><trkpt lat="43.90802057321413" lon="12.11770394319945"><ele>249.0</ele><time>2026-05-03T08:15:51Z</time></trkpt><trkpt lat="43.90816724404461" lon="12.117995934534187"><ele>249.0</ele><time>2026-05-03T08:15:52Z</time></trkpt><trkpt lat="43.908312944576416" lon="12.118286582355466"><ele>259.5</ele><time>2026-05-03T08:15:53Z</time></trkpt><trkpt lat="43.908458097721706" lon="12.118577459885914"><ele>270.0</ele><time>2026-05-03T08:15:54Z</time></trkpt><trkpt lat="43.908603207025216" lon="12.118869132328838"><ele>265.5</ele><time>2026-05-03T08:15:55Z</time></trkpt><trkpt lat="43.90874857505871" lon="12.119161945326537"><ele>261.0</ele><time>2026-05-03T08:15:56Z</time></trkpt><trkpt lat="43.90889232237381" lon="12.119455296911942"><ele>261.0</ele><time>2026-05-03T08:15:57Z</time></trkpt><trkpt lat="43.90903454591941" lon="12.119746989147147"><ele>261.0</ele><time>2026-05-03T08:15:58Z</time></trkpt><trkpt lat="43.90917701906192" lon="12.120040764499697"><ele>264.5</ele><time>2026-05-03T08:15:59Z</time></trkpt><trkpt lat="43.90931753793756" lon="12.120333818270145"><ele>268.0</ele><time>2026-05-03T08:16:00Z</time></trkpt><trkpt lat="43.90945843770633" lon="12.12062577869734"><ele>262.5</ele><time>2026-05-03T08:16:01Z</time></trkpt><trkpt lat="43.9096001525763" lon="12.120918336969973"><ele>257.0</ele><time>2026-05-03T08:16:02Z</time></trkpt><trkpt lat="43.90974169124012" lon="12.121210242475286"><ele>257.0</ele><time>2026-05-03T08:16:02.999Z</time></trkpt><trkpt lat="43.90988318175313" lon="12.121503618123546"><ele>257.0</ele><time>2026-05-03T08:16:03.999Z</time></trkpt><trkpt lat="43.91002385169976" lon="12.12179384201228"><ele>256.5</ele><time>2026-05-03T08:16:04.999Z</time></trkpt><trkpt lat="43.91016266213808" lon="12.122079441570763"><ele>256.0</ele><time>2026-05-03T08:16:05.999Z</time></trkpt><trkpt lat="43.9102983890776" lon="12.122361645288255"><ele>251.5</ele><time>2026-05-03T08:16:06.999Z</time></trkpt><trkpt lat="43.9104316544974" lon="12.122639121874002"><ele>247.0</ele><time>2026-05-03T08:16:07.999Z</time></trkpt><trkpt lat="43.91056252773118" lon="12.122914796377087"><ele>247.0</ele><time>2026-05-03T08:16:08.999Z</time></trkpt><trkpt lat="43.91069164673202" lon="12.123180949373221"><ele>247.0</ele><time>2026-05-03T08:16:09.999Z</time></trkpt><trkpt lat="43.91081933355408" lon="12.123443073392474"><ele>246.66666666666666</ele><time>2026-05-03T08:16:10.999Z</time></trkpt><trkpt lat="43.91094086576724" lon="12.123694433626486"><ele>246.33333333333331</ele><time>2026-05-03T08:16:11.999Z</time></trkpt><trkpt lat="43.91105768460593" lon="12.123935490794842"><ele>246.0</ele><time>2026-05-03T08:16:12.999Z</time></trkpt><trkpt lat="43.91118242378071" lon="12.1242019227687"><ele>246.0</ele><time>2026-05-03T08:16:13.999Z</time></trkpt><trkpt lat="43.91128870126228" lon="12.12443553947577"><ele>246.0</ele><time>2026-05-03T08:16:14.999Z</time></trkpt><trkpt lat="43.911409658220215" lon="12.12465954634268"><ele>246.0</ele><time>2026-05-03T08:16:15.999Z</time></trkpt><trkpt lat="43.911517529397635" lon="12.124878826612528"><ele>247.0</ele><time>2026-05-03T08:16:16.999Z</time></trkpt><trkpt lat="43.91162467607232" lon="12.125099835273096"><ele>248.0</ele><time>2026-05-03T08:16:17.999Z</time></trkpt><trkpt lat="43.91173120987048" lon="12.125330059654813"><ele>249.0</ele><time>2026-05-03T08:16:18.999Z</time></trkpt><trkpt lat="43.9118282196474" lon="12.125564300544642"><ele>248.0</ele><time>2026-05-03T08:16:19.999Z</time></trkpt><trkpt lat="43.91192265320076" lon="12.12580779862994"><ele>247.0</ele><time>2026-05-03T08:16:20.999Z</time></trkpt><trkpt lat="43.91201403525064" lon="12.12606474497651"><ele>246.0</ele><time>2026-05-03T08:16:21.999Z</time></trkpt><trkpt lat="43.91210504437634" lon="12.126323850774895"><ele>244.0</ele><time>2026-05-03T08:16:22.999Z</time></trkpt><trkpt lat="43.91218345577432" lon="12.126598146488671"><ele>242.0</ele><time>2026-05-03T08:16:23.999Z</time></trkpt><trkpt lat="43.912260756543354" lon="12.126879714312077"><ele>240.0</ele><time>2026-05-03T08:16:24.999Z</time></trkpt><trkpt lat="43.91233843583832" lon="12.127168496566071"><ele>236.66666666666669</ele><time>2026-05-03T08:16:25.999Z</time></trkpt><trkpt lat="43.912404143826095" lon="12.127458191254027"><ele>233.33333333333334</ele><time>2026-05-03T08:16:26.999Z</time></trkpt><trkpt lat="43.9124656255601" lon="12.127753770539956"><ele>230.0</ele><time>2026-05-03T08:16:27.999Z</time></trkpt><trkpt lat="43.9125140180743" lon="12.128060003083059"><ele>230.66666666666669</ele><time>2026-05-03T08:16:28.999Z</time></trkpt><trkpt lat="43.91255812374902" lon="12.128364543527393"><ele>231.33333333333331</ele><time>2026-05-03T08:16:29.999Z</time></trkpt><trkpt lat="43.91259926577825" lon="12.128664815839347"><ele>232.0</ele><time>2026-05-03T08:16:30.999Z</time></trkpt><trkpt lat="43.912626388150144" lon="12.128959554153909"><ele>225.0</ele><time>2026-05-03T08:16:31.999Z</time></trkpt><trkpt lat="43.91264237651067" lon="12.129250512951431"><ele>218.0</ele><time>2026-05-03T08:16:32.999Z</time></trkpt><trkpt lat="43.912655186904715" lon="12.129514452184383"><ele>211.0</ele><time>2026-05-03T08:16:33.999Z</time></trkpt><trkpt lat="43.912661698551304" lon="12.12977057129122"><ele>204.66666666666666</ele><time>2026-05-03T08:16:34.999Z</time></trkpt><trkpt lat="43.91266093037065" lon="12.130022503490956"><ele>198.33333333333331</ele><time>2026-05-03T08:16:35.999Z</time></trkpt><trkpt lat="43.9126600905861" lon="12.130273424393788"><ele>192.0</ele><time>2026-05-03T08:16:36.999Z</time></trkpt><trkpt lat="43.91265254497633" lon="12.130527230899212"><ele>190.66666666666666</ele><time>2026-05-03T08:16:37.999Z</time></trkpt><trkpt lat="43.91264109811783" lon="12.130774717743021"><ele>189.33333333333331</ele><time>2026-05-03T08:16:38.999Z</time></trkpt><trkpt lat="43.91262321470864" lon="12.131014729131616"><ele>188.0</ele><time>2026-05-03T08:16:39.999Z</time></trkpt><trkpt lat="43.91260617194958" lon="12.131248739195522"><ele>188.0</ele><time>2026-05-03T08:16:40.999Z</time></trkpt><trkpt lat="43.91258970008114" lon="12.131480779343503"><ele>188.0</ele><time>2026-05-03T08:16:41.999Z</time></trkpt><trkpt lat="43.9125728348536" lon="12.131706737644931"><ele>188.0</ele><time>2026-05-03T08:16:42.999Z</time></trkpt><trkpt lat="43.9125552144918" lon="12.131927000749178"><ele>192.66666666666666</ele><time>2026-05-03T08:16:43.999Z</time></trkpt><trkpt lat="43.91254166952331" lon="12.13213829168989"><ele>197.33333333333331</ele><time>2026-05-03T08:16:44.999Z</time></trkpt><trkpt lat="43.91252882921935" lon="12.132347634227399"><ele>202.0</ele><time>2026-05-03T08:16:45.999Z</time></trkpt><trkpt lat="43.912518696529155" lon="12.132553283716508"><ele>202.0</ele><time>2026-05-03T08:16:46.999Z</time></trkpt><trkpt lat="43.91250632628584" lon="12.132767948115122"><ele>202.0</ele><time>2026-05-03T08:16:47.999Z</time></trkpt><trkpt lat="43.912493096440876" lon="12.132989350570123"><ele>202.0</ele><time>2026-05-03T08:16:48.999Z</time></trkpt><trkpt lat="43.91248192505224" lon="12.13321211977416"><ele>201.0</ele><time>2026-05-03T08:16:49.999Z</time></trkpt><trkpt lat="43.912470623075166" lon="12.133434168876567"><ele>200.0</ele><time>2026-05-03T08:16:50.999Z</time></trkpt><trkpt lat="43.91246138807176" lon="12.133660641031945"><ele>199.0</ele><time>2026-05-03T08:16:51.999Z</time></trkpt><trkpt lat="43.91245962502159" lon="12.133887413676366"><ele>199.33333333333331</ele><time>2026-05-03T08:16:52.999Z</time></trkpt><trkpt lat="43.91246221216477" lon="12.134110473129294"><ele>199.66666666666669</ele><time>2026-05-03T08:16:53.999Z</time></trkpt><trkpt lat="43.912464313008115" lon="12.134333813399843"><ele>200.0</ele><time>2026-05-03T08:16:54.999Z</time></trkpt><trkpt lat="43.91246995188551" lon="12.134554825515142"><ele>200.0</ele><time>2026-05-03T08:16:55.999Z</time></trkpt><trkpt lat="43.91248002809334" lon="12.134779307488222"><ele>200.0</ele><time>2026-05-03T08:16:56.999Z</time></trkpt><trkpt lat="43.91249504589971" lon="12.135007015351336"><ele>200.0</ele><time>2026-05-03T08:16:57.999Z</time></trkpt><trkpt lat="43.91251241600726" lon="12.135241855685129"><ele>200.66666666666669</ele><time>2026-05-03T08:16:58.999Z</time></trkpt><trkpt lat="43.91253654480625" lon="12.135484003903702"><ele>201.33333333333331</ele><time>2026-05-03T08:16:59.999Z</time></trkpt><trkpt lat="43.91256160775378" lon="12.135727234268975"><ele>202.0</ele><time>2026-05-03T08:17:00.999Z</time></trkpt><trkpt lat="43.91258974689886" lon="12.135969352017165"><ele>202.0</ele><time>2026-05-03T08:17:01.999Z</time></trkpt><trkpt lat="43.91262141811101" lon="12.136206761720322"><ele>202.0</ele><time>2026-05-03T08:17:02.999Z</time></trkpt><trkpt lat="43.91265062038685" lon="12.136446201305436"><ele>202.0</ele><time>2026-05-03T08:17:03.999Z</time></trkpt><trkpt lat="43.912680814856365" lon="12.136689569215545"><ele>208.66666666666666</ele><time>2026-05-03T08:17:05Z</time></trkpt><trkpt lat="43.91271068559711" lon="12.136948965739219"><ele>215.33333333333331</ele><time>2026-05-03T08:17:06.061Z</time></trkpt><trkpt lat="43.91274191079327" lon="12.137194870966507"><ele>222.0</ele><time>2026-05-03T08:17:07.059Z</time></trkpt><trkpt lat="43.91277563885609" lon="12.137448474970471"><ele>224.33333333333331</ele><time>2026-05-03T08:17:08.06Z</time></trkpt><trkpt lat="43.912810690499064" lon="12.137697699010793"><ele>226.66666666666666</ele><time>2026-05-03T08:17:09.055Z</time></trkpt><trkpt lat="43.912845919859514" lon="12.137948991751092"><ele>229.0</ele><time>2026-05-03T08:17:10.053Z</time></trkpt><trkpt lat="43.912877275454086" lon="12.138187742201568"><ele>188.0</ele><time>2026-05-03T08:17:11.028Z</time></trkpt><trkpt lat="43.91381064833525" lon="12.140303582482595"><ele>188.0</ele><time>2026-05-03T08:17:20Z</time></trkpt><trkpt lat="43.914141897120665" lon="12.140489011954712"><ele>188.0</ele><time>2026-05-03T08:17:21Z</time></trkpt><trkpt lat="43.9142199968571" lon="12.140695917475579"><ele>189.0</ele><time>2026-05-03T08:17:22Z</time></trkpt><trkpt lat="43.91430540834328" lon="12.140930023431023"><ele>190.0</ele><time>2026-05-03T08:17:23Z</time></trkpt><trkpt lat="43.914417915523295" lon="12.141145725176813"><ele>191.0</ele><time>2026-05-03T08:17:24Z</time></trkpt><trkpt lat="43.91452776969044" lon="12.141356510083762"><ele>190.66666666666666</ele><time>2026-05-03T08:17:25Z</time></trkpt><trkpt lat="43.91464985638715" lon="12.141551092437473"><ele>190.33333333333334</ele><time>2026-05-03T08:17:26Z</time></trkpt><trkpt lat="43.914780979433644" lon="12.141743185960163"><ele>190.0</ele><time>2026-05-03T08:17:27Z</time></trkpt><trkpt lat="43.91491752636864" lon="12.141934581630052"><ele>190.0</ele><time>2026-05-03T08:17:28Z</time></trkpt><trkpt lat="43.915058989305315" lon="12.142123274422715"><ele>190.0</ele><time>2026-05-03T08:17:29Z</time></trkpt><trkpt lat="43.91521295791617" lon="12.142315450426269"><ele>190.0</ele><time>2026-05-03T08:17:30Z</time></trkpt><trkpt lat="43.91537802991336" lon="12.142496530710883"><ele>190.66666666666669</ele><time>2026-05-03T08:17:31Z</time></trkpt><trkpt lat="43.915542086614025" lon="12.142680934308071"><ele>191.33333333333334</ele><time>2026-05-03T08:17:32Z</time></trkpt><trkpt lat="43.915694642380146" lon="12.142895010161546"><ele>192.0</ele><time>2026-05-03T08:17:33Z</time></trkpt><trkpt lat="43.91586795033536" lon="12.143137183224619"><ele>201.0</ele><time>2026-05-03T08:17:34Z</time></trkpt><trkpt lat="43.91603900391426" lon="12.143345336754031"><ele>210.0</ele><time>2026-05-03T08:17:35Z</time></trkpt><trkpt lat="43.91621482082793" lon="12.143534421661307"><ele>210.0</ele><time>2026-05-03T08:17:36Z</time></trkpt><trkpt lat="43.91637827401479" lon="12.143703051573615"><ele>210.0</ele><time>2026-05-03T08:17:37Z</time></trkpt><trkpt lat="43.916553591254804" lon="12.143866046931569"><ele>210.0</ele><time>2026-05-03T08:17:38Z</time></trkpt><trkpt lat="43.91670962462031" lon="12.144058644307343"><ele>215.33333333333331</ele><time>2026-05-03T08:17:39Z</time></trkpt><trkpt lat="43.91686665917409" lon="12.144251924775501"><ele>220.66666666666666</ele><time>2026-05-03T08:17:40Z</time></trkpt><trkpt lat="43.917032706795354" lon="12.144456413542615"><ele>226.0</ele><time>2026-05-03T08:17:41.055Z</time></trkpt><trkpt lat="43.91718999494354" lon="12.144650317298396"><ele>204.0</ele><time>2026-05-03T08:17:42.058Z</time></trkpt><trkpt lat="43.91859438962491" lon="12.146522560501278"><ele>190.5</ele><time>2026-05-03T08:17:50Z</time></trkpt><trkpt lat="43.91875880252085" lon="12.146740330088562"><ele>177.0</ele><time>2026-05-03T08:17:51Z</time></trkpt><trkpt lat="43.91892220260902" lon="12.146963188006072"><ele>177.0</ele><time>2026-05-03T08:17:52Z</time></trkpt><trkpt lat="43.91908192486147" lon="12.147183666146127"><ele>177.0</ele><time>2026-05-03T08:17:53Z</time></trkpt><trkpt lat="43.91924835533217" lon="12.147389824334153"><ele>177.0</ele><time>2026-05-03T08:17:53.999Z</time></trkpt><trkpt lat="43.91942017597011" lon="12.147598606470536"><ele>177.33333333333334</ele><time>2026-05-03T08:17:54.999Z</time></trkpt><trkpt lat="43.919586821422975" lon="12.147796592018533"><ele>177.66666666666669</ele><time>2026-05-03T08:17:55.999Z</time></trkpt><trkpt lat="43.91974453001733" lon="12.148006090101182"><ele>178.0</ele><time>2026-05-03T08:17:56.999Z</time></trkpt><trkpt lat="43.91989770992107" lon="12.14820754135417"><ele>177.66666666666669</ele><time>2026-05-03T08:17:57.999Z</time></trkpt><trkpt lat="43.920048070032884" lon="12.148402728696885"><ele>177.33333333333334</ele><time>2026-05-03T08:17:58.999Z</time></trkpt><trkpt lat="43.92018758432268" lon="12.148585247786935"><ele>177.0</ele><time>2026-05-03T08:17:59.999Z</time></trkpt><trkpt lat="43.92032129726856" lon="12.148760352075174"><ele>177.0</ele><time>2026-05-03T08:18:00.999Z</time></trkpt><trkpt lat="43.920449910969936" lon="12.148930215199155"><ele>177.0</ele><time>2026-05-03T08:18:01.999Z</time></trkpt><trkpt lat="43.92057248890192" lon="12.14910709667515"><ele>177.0</ele><time>2026-05-03T08:18:02.999Z</time></trkpt><trkpt lat="43.920689016798356" lon="12.149298731795412"><ele>176.0</ele><time>2026-05-03T08:18:03.999Z</time></trkpt><trkpt lat="43.92079993707049" lon="12.149499866223954"><ele>175.0</ele><time>2026-05-03T08:18:04.999Z</time></trkpt><trkpt lat="43.92091246983262" lon="12.149709549468898"><ele>174.0</ele><time>2026-05-03T08:18:05.999Z</time></trkpt><trkpt lat="43.92102965058965" lon="12.149921854804887"><ele>174.0</ele><time>2026-05-03T08:18:06.999Z</time></trkpt><trkpt lat="43.92114436345916" lon="12.1501294725433"><ele>174.0</ele><time>2026-05-03T08:18:07.999Z</time></trkpt><trkpt lat="43.921250750820896" lon="12.150339042816757"><ele>174.0</ele><time>2026-05-03T08:18:08.999Z</time></trkpt><trkpt lat="43.92134944389881" lon="12.150557874838064"><ele>174.0</ele><time>2026-05-03T08:18:09.999Z</time></trkpt><trkpt lat="43.92144076416064" lon="12.1507810460809"><ele>174.0</ele><time>2026-05-03T08:18:10.999Z</time></trkpt><trkpt lat="43.92152158382501" lon="12.151008659559093"><ele>174.0</ele><time>2026-05-03T08:18:11.999Z</time></trkpt><trkpt lat="43.92159240501937" lon="12.151245807661633"><ele>174.0</ele><time>2026-05-03T08:18:12.999Z</time></trkpt><trkpt lat="43.92165290978322" lon="12.151491274499367"><ele>174.0</ele><time>2026-05-03T08:18:13.999Z</time></trkpt><trkpt lat="43.9217094228324" lon="12.15174051342921"><ele>174.0</ele><time>2026-05-03T08:18:14.999Z</time></trkpt><trkpt lat="43.92176869253835" lon="12.151994846402264"><ele>173.66666666666666</ele><time>2026-05-03T08:18:15.999Z</time></trkpt><trkpt lat="43.921830890452334" lon="12.152249358602424"><ele>173.33333333333331</ele><time>2026-05-03T08:18:16.999Z</time></trkpt><trkpt lat="43.92189368472701" lon="12.152499629301058"><ele>173.0</ele><time>2026-05-03T08:18:17.999Z</time></trkpt><trkpt lat="43.921955805762785" lon="12.152748124608163"><ele>173.0</ele><time>2026-05-03T08:18:18.999Z</time></trkpt><trkpt lat="43.922016727521644" lon="12.1529882363297"><ele>173.0</ele><time>2026-05-03T08:18:19.999Z</time></trkpt><trkpt lat="43.92207315975476" lon="12.153212117901731"><ele>173.0</ele><time>2026-05-03T08:18:20.999Z</time></trkpt><trkpt lat="43.92213020062912" lon="12.153408471302056"><ele>172.75</ele><time>2026-05-03T08:18:21.999Z</time></trkpt><trkpt lat="43.92220290007001" lon="12.153578769448089"><ele>172.5</ele><time>2026-05-03T08:18:22.999Z</time></trkpt><trkpt lat="43.92230125510348" lon="12.153720703223025"><ele>172.25</ele><time>2026-05-03T08:18:23.999Z</time></trkpt><trkpt lat="43.92242132298988" lon="12.153836415950165"><ele>172.0</ele><time>2026-05-03T08:18:24.999Z</time></trkpt><trkpt lat="43.922560208937234" lon="12.153915835858914"><ele>174.0</ele><time>2026-05-03T08:18:25.999Z</time></trkpt><trkpt lat="43.922710624144756" lon="12.153957629541752"><ele>176.0</ele><time>2026-05-03T08:18:26.999Z</time></trkpt><trkpt lat="43.92286453145544" lon="12.15395640734182"><ele>178.0</ele><time>2026-05-03T08:18:27.999Z</time></trkpt><trkpt lat="43.923015877523675" lon="12.15390744964796"><ele>178.0</ele><time>2026-05-03T08:18:28.999Z</time></trkpt><trkpt lat="43.92315571971078" lon="12.153811809785088"><ele>178.0</ele><time>2026-05-03T08:18:29.999Z</time></trkpt><trkpt lat="43.923279280061585" lon="12.153679681298838"><ele>178.0</ele><time>2026-05-03T08:18:30.999Z</time></trkpt><trkpt lat="43.92339372963608" lon="12.153530072237585"><ele>180.0</ele><time>2026-05-03T08:18:31.999Z</time></trkpt><trkpt lat="43.92350500302596" lon="12.153379959587074"><ele>182.0</ele><time>2026-05-03T08:18:32.999Z</time></trkpt><trkpt lat="43.92362876376219" lon="12.15326931141612"><ele>184.0</ele><time>2026-05-03T08:18:33.999Z</time></trkpt><trkpt lat="43.92372610230454" lon="12.153140132368563"><ele>186.0</ele><time>2026-05-03T08:18:34.999Z</time></trkpt><trkpt lat="43.92381512081346" lon="12.153069643397883"><ele>186.0</ele><time>2026-05-03T08:18:35.999Z</time></trkpt><trkpt lat="43.9238822216738" lon="12.153022405137106"><ele>186.0</ele><time>2026-05-03T08:18:36.999Z</time></trkpt><trkpt lat="43.923989238448954" lon="12.152950567960636"><ele>186.0</ele><time>2026-05-03T08:18:38.999Z</time></trkpt><trkpt lat="43.92405234812944" lon="12.152905674891699"><ele>186.0</ele><time>2026-05-03T08:18:39.999Z</time></trkpt><trkpt lat="43.92412013866088" lon="12.152839302392136"><ele>186.0</ele><time>2026-05-03T08:18:40.999Z</time></trkpt><trkpt lat="43.924207501663425" lon="12.152777859402082"><ele>186.0</ele><time>2026-05-03T08:18:41.999Z</time></trkpt><trkpt lat="43.92427175101187" lon="12.152658963705194"><ele>190.0</ele><time>2026-05-03T08:18:42.999Z</time></trkpt><trkpt lat="43.9243441492335" lon="12.152538777326505"><ele>194.0</ele><time>2026-05-03T08:18:43.999Z</time></trkpt><trkpt lat="43.924402611979666" lon="12.152395970185873"><ele>198.0</ele><time>2026-05-03T08:18:44.999Z</time></trkpt><trkpt lat="43.924467782650325" lon="12.152248707678812"><ele>202.0</ele><time>2026-05-03T08:18:45.999Z</time></trkpt><trkpt lat="43.924500063218" lon="12.152072459295555"><ele>202.0</ele><time>2026-05-03T08:18:46.999Z</time></trkpt><trkpt lat="43.924515547518745" lon="12.151890096013119"><ele>202.0</ele><time>2026-05-03T08:18:47.999Z</time></trkpt><trkpt lat="43.924493124575555" lon="12.15171338173716"><ele>202.0</ele><time>2026-05-03T08:18:48.999Z</time></trkpt><trkpt lat="43.92447642411109" lon="12.151542643579232"><ele>202.0</ele><time>2026-05-03T08:18:49.999Z</time></trkpt><trkpt lat="43.9244550928379" lon="12.151373397627053"><ele>202.39999999999998</ele><time>2026-05-03T08:18:50.999Z</time></trkpt><trkpt lat="43.92443928036326" lon="12.151208417712686"><ele>202.79999999999998</ele><time>2026-05-03T08:18:51.999Z</time></trkpt><trkpt lat="43.92444640065845" lon="12.151052288678228"><ele>203.2</ele><time>2026-05-03T08:18:52.999Z</time></trkpt><trkpt lat="43.924478528256195" lon="12.150907612521738"><ele>203.6</ele><time>2026-05-03T08:18:53.999Z</time></trkpt><trkpt lat="43.92452533856461" lon="12.150783465496156"><ele>204.0</ele><time>2026-05-03T08:18:54.999Z</time></trkpt><trkpt lat="43.92458263797934" lon="12.150687838099534"><ele>206.66666666666666</ele><time>2026-05-03T08:18:55.999Z</time></trkpt><trkpt lat="43.92464449523681" lon="12.150612339607063"><ele>209.33333333333331</ele><time>2026-05-03T08:18:56.999Z</time></trkpt><trkpt lat="43.9247060108436" lon="12.150555292800856"><ele>212.0</ele><time>2026-05-03T08:18:57.999Z</time></trkpt><trkpt lat="43.92477254911757" lon="12.150520961638833"><ele>214.66666666666666</ele><time>2026-05-03T08:18:58.999Z</time></trkpt><trkpt lat="43.924853858919604" lon="12.150514206472142"><ele>217.33333333333331</ele><time>2026-05-03T08:18:59.999Z</time></trkpt><trkpt lat="43.92494268545723" lon="12.150539783017193"><ele>220.0</ele><time>2026-05-03T08:19:00.999Z</time></trkpt><trkpt lat="43.92503340107781" lon="12.15058920339595"><ele>220.2</ele><time>2026-05-03T08:19:01.999Z</time></trkpt><trkpt lat="43.92512524361412" lon="12.150653636428865"><ele>220.4</ele><time>2026-05-03T08:19:02.999Z</time></trkpt><trkpt lat="43.92521979844435" lon="12.15072837643348"><ele>220.60000000000002</ele><time>2026-05-03T08:19:03.999Z</time></trkpt><trkpt lat="43.925314994391464" lon="12.150819151469175"><ele>220.8</ele><time>2026-05-03T08:19:04.999Z</time></trkpt><trkpt lat="43.92539489617476" lon="12.150937435458914"><ele>221.0</ele><time>2026-05-03T08:19:05.999Z</time></trkpt><trkpt lat="43.92545348361562" lon="12.151078893006613"><ele>221.0</ele><time>2026-05-03T08:19:06.999Z</time></trkpt><trkpt lat="43.92547752149687" lon="12.151244667842882"><ele>221.0</ele><time>2026-05-03T08:19:07.999Z</time></trkpt><trkpt lat="43.92545957325731" lon="12.151416358689042"><ele>221.0</ele><time>2026-05-03T08:19:08.999Z</time></trkpt><trkpt lat="43.925389701993765" lon="12.151582867013728"><ele>221.0</ele><time>2026-05-03T08:19:09.999Z</time></trkpt><trkpt lat="43.92529898432486" lon="12.1517495951499"><ele>225.66666666666669</ele><time>2026-05-03T08:19:11Z</time></trkpt><trkpt lat="43.925210278854635" lon="12.151936569027669"><ele>230.33333333333331</ele><time>2026-05-03T08:19:12Z</time></trkpt><trkpt lat="43.92513535522871" lon="12.152132867705701"><ele>235.0</ele><time>2026-05-03T08:19:13Z</time></trkpt><trkpt lat="43.9250876837551" lon="12.15234644142407"><ele>236.66666666666666</ele><time>2026-05-03T08:19:14Z</time></trkpt><trkpt lat="43.925065698200726" lon="12.152573618092108"><ele>238.33333333333331</ele><time>2026-05-03T08:19:15Z</time></trkpt><trkpt lat="43.92504130250575" lon="12.152806621814491"><ele>240.0</ele><time>2026-05-03T08:19:16Z</time></trkpt><trkpt lat="43.92498850472217" lon="12.15303795627683"><ele>233.0</ele><time>2026-05-03T08:19:17Z</time></trkpt><trkpt lat="43.92491255377281" lon="12.15323370483615"><ele>226.0</ele><time>2026-05-03T08:19:18Z</time></trkpt><trkpt lat="43.924836043674674" lon="12.153396792183685"><ele>219.0</ele><time>2026-05-03T08:19:19Z</time></trkpt><trkpt lat="43.924763332894365" lon="12.153558167081208"><ele>212.0</ele><time>2026-05-03T08:19:20Z</time></trkpt><trkpt lat="43.92471944728979" lon="12.153730722396991"><ele>212.0</ele><time>2026-05-03T08:19:21Z</time></trkpt><trkpt lat="43.92472876373034" lon="12.1539108133385"><ele>212.0</ele><time>2026-05-03T08:19:22Z</time></trkpt><trkpt lat="43.9247763595484" lon="12.154082054395413"><ele>212.0</ele><time>2026-05-03T08:19:23Z</time></trkpt><trkpt lat="43.924827878495456" lon="12.154242626046285"><ele>212.0</ele><time>2026-05-03T08:19:24Z</time></trkpt><trkpt lat="43.92486560113871" lon="12.154403338094232"><ele>212.2</ele><time>2026-05-03T08:19:25Z</time></trkpt><trkpt lat="43.924873986878936" lon="12.154563253677923"><ele>212.39999999999998</ele><time>2026-05-03T08:19:26Z</time></trkpt><trkpt lat="43.92485461326515" lon="12.154716853054765"><ele>212.60000000000002</ele><time>2026-05-03T08:19:27Z</time></trkpt><trkpt lat="43.92481341989108" lon="12.15486221814009"><ele>212.8</ele><time>2026-05-03T08:19:28Z</time></trkpt><trkpt lat="43.92475778143518" lon="12.154983558713871"><ele>213.0</ele><time>2026-05-03T08:19:29Z</time></trkpt><trkpt lat="43.924703610146324" lon="12.155086475574725"><ele>212.66666666666666</ele><time>2026-05-03T08:19:30Z</time></trkpt><trkpt lat="43.92465662077555" lon="12.155184558953582"><ele>212.33333333333331</ele><time>2026-05-03T08:19:31Z</time></trkpt><trkpt lat="43.9246175253888" lon="12.155280250172092"><ele>212.0</ele><time>2026-05-03T08:19:32Z</time></trkpt><trkpt lat="43.92458679273103" lon="12.15536929859403"><ele>211.66666666666666</ele><time>2026-05-03T08:19:33Z</time></trkpt><trkpt lat="43.924560315307794" lon="12.155458979894458"><ele>211.33333333333331</ele><time>2026-05-03T08:19:34Z</time></trkpt><trkpt lat="43.92453304843985" lon="12.155563090352635"><ele>211.0</ele><time>2026-05-03T08:19:35Z</time></trkpt><trkpt lat="43.92450903651542" lon="12.155685313272036"><ele>213.25</ele><time>2026-05-03T08:19:36Z</time></trkpt><trkpt lat="43.92449008471305" lon="12.155824068755308"><ele>215.5</ele><time>2026-05-03T08:19:37Z</time></trkpt><trkpt lat="43.92447301535393" lon="12.155978478883268"><ele>217.75</ele><time>2026-05-03T08:19:38Z</time></trkpt><trkpt lat="43.92446083723435" lon="12.156147029047052"><ele>220.0</ele><time>2026-05-03T08:19:39Z</time></trkpt><trkpt lat="43.9244439927856" lon="12.156324842406924"><ele>220.0</ele><time>2026-05-03T08:19:40Z</time></trkpt><trkpt lat="43.924424754081926" lon="12.156501149718578"><ele>220.0</ele><time>2026-05-03T08:19:41Z</time></trkpt><trkpt lat="43.92440635694012" lon="12.15667645738324"><ele>220.0</ele><time>2026-05-03T08:19:42Z</time></trkpt><trkpt lat="43.924384803635384" lon="12.1568569940762"><ele>220.0</ele><time>2026-05-03T08:19:43Z</time></trkpt><trkpt lat="43.92436361523789" lon="12.157040582343422"><ele>221.5</ele><time>2026-05-03T08:19:44Z</time></trkpt><trkpt lat="43.92434831336554" lon="12.157214665154674"><ele>223.0</ele><time>2026-05-03T08:19:45Z</time></trkpt><trkpt lat="43.92433161450696" lon="12.157375685711667"><ele>224.5</ele><time>2026-05-03T08:19:46Z</time></trkpt><trkpt lat="43.92430225694764" lon="12.157526769926994"><ele>226.0</ele><time>2026-05-03T08:19:47Z</time></trkpt><trkpt lat="43.924255537761404" lon="12.157675237434825"><ele>222.25</ele><time>2026-05-03T08:19:48Z</time></trkpt><trkpt lat="43.924191055400634" lon="12.157812190102959"><ele>218.5</ele><time>2026-05-03T08:19:49Z</time></trkpt><trkpt lat="43.924119288633555" lon="12.157948836023934"><ele>214.75</ele><time>2026-05-03T08:19:50Z</time></trkpt><trkpt lat="43.92405587263628" lon="12.158097610954222"><ele>211.0</ele><time>2026-05-03T08:19:51Z</time></trkpt><trkpt lat="43.92400981593446" lon="12.158259868339464"><ele>211.0</ele><time>2026-05-03T08:19:52Z</time></trkpt><trkpt lat="43.92398558733519" lon="12.158430103064962"><ele>211.0</ele><time>2026-05-03T08:19:53Z</time></trkpt><trkpt lat="43.92398190890305" lon="12.158606724334762"><ele>211.0</ele><time>2026-05-03T08:19:54Z</time></trkpt><trkpt lat="43.92398231463664" lon="12.158799134650604"><ele>211.0</ele><time>2026-05-03T08:19:55Z</time></trkpt><trkpt lat="43.92398387489739" lon="12.158994971535533"><ele>211.25</ele><time>2026-05-03T08:19:56Z</time></trkpt><trkpt lat="43.923983961921735" lon="12.159193548989554"><ele>211.5</ele><time>2026-05-03T08:19:57Z</time></trkpt><trkpt lat="43.9239827445096" lon="12.159393281098241"><ele>211.75</ele><time>2026-05-03T08:19:58Z</time></trkpt><trkpt lat="43.92397802950426" lon="12.159596823638353"><ele>212.0</ele><time>2026-05-03T08:19:59Z</time></trkpt><trkpt lat="43.92397630067747" lon="12.159801409159341"><ele>211.0</ele><time>2026-05-03T08:20:00Z</time></trkpt><trkpt lat="43.923977652914665" lon="12.160007381013722"><ele>210.0</ele><time>2026-05-03T08:20:01Z</time></trkpt><trkpt lat="43.92398763813834" lon="12.160211605542719"><ele>209.0</ele><time>2026-05-03T08:20:02Z</time></trkpt><trkpt lat="43.924021901077886" lon="12.160408763058621"><ele>208.0</ele><time>2026-05-03T08:20:03Z</time></trkpt><trkpt lat="43.924067218468494" lon="12.16061102176431"><ele>206.33333333333331</ele><time>2026-05-03T08:20:04Z</time></trkpt><trkpt lat="43.924105975980936" lon="12.160816639120785"><ele>204.66666666666669</ele><time>2026-05-03T08:20:04.999Z</time></trkpt><trkpt lat="43.924131377299695" lon="12.161030616886642"><ele>203.0</ele><time>2026-05-03T08:20:05.999Z</time></trkpt><trkpt lat="43.92415172459862" lon="12.161245711521033"><ele>203.0</ele><time>2026-05-03T08:20:06.999Z</time></trkpt><trkpt lat="43.92416542507039" lon="12.161466171068215"><ele>203.0</ele><time>2026-05-03T08:20:07.999Z</time></trkpt><trkpt lat="43.92416734024769" lon="12.161689045717305"><ele>203.0</ele><time>2026-05-03T08:20:08.999Z</time></trkpt><trkpt lat="43.92415296623401" lon="12.16190937020907"><ele>200.66666666666669</ele><time>2026-05-03T08:20:09.999Z</time></trkpt><trkpt lat="43.92412763306324" lon="12.162129532762064"><ele>198.33333333333331</ele><time>2026-05-03T08:20:10.999Z</time></trkpt><trkpt lat="43.92409754977124" lon="12.162347737999987"><ele>196.0</ele><time>2026-05-03T08:20:11.999Z</time></trkpt><trkpt lat="43.92406835158008" lon="12.162562888604079"><ele>192.0</ele><time>2026-05-03T08:20:12.999Z</time></trkpt><trkpt lat="43.9240379990774" lon="12.162776040877365"><ele>188.0</ele><time>2026-05-03T08:20:13.999Z</time></trkpt><trkpt lat="43.9240098057216" lon="12.162990910249206"><ele>184.0</ele><time>2026-05-03T08:20:14.999Z</time></trkpt><trkpt lat="43.923983073310836" lon="12.16321076067365"><ele>181.66666666666669</ele><time>2026-05-03T08:20:15.999Z</time></trkpt><trkpt lat="43.92395569743548" lon="12.163430210294397"><ele>179.33333333333334</ele><time>2026-05-03T08:20:16.999Z</time></trkpt><trkpt lat="43.92392582088929" lon="12.163649507881951"><ele>177.0</ele><time>2026-05-03T08:20:17.999Z</time></trkpt><trkpt lat="43.92389309093166" lon="12.163870565100677"><ele>181.0</ele><time>2026-05-03T08:20:18.999Z</time></trkpt><trkpt lat="43.923863202716774" lon="12.16409406523974"><ele>185.0</ele><time>2026-05-03T08:20:19.999Z</time></trkpt><trkpt lat="43.92383693920074" lon="12.164320808122683"><ele>189.0</ele><time>2026-05-03T08:20:20.999Z</time></trkpt><trkpt lat="43.923808401056306" lon="12.164546276764455"><ele>189.0</ele><time>2026-05-03T08:20:21.999Z</time></trkpt><trkpt lat="43.92377940833603" lon="12.16477003342876"><ele>189.0</ele><time>2026-05-03T08:20:22.999Z</time></trkpt><trkpt lat="43.92375344361464" lon="12.164943752856685"><ele>189.0</ele><time>2026-05-03T08:20:23.999Z</time></trkpt><trkpt lat="43.92372570080389" lon="12.165058871854345"><ele>189.0</ele><time>2026-05-03T08:20:24.999Z</time></trkpt><trkpt lat="43.923689081499205" lon="12.165131928689679"><ele>189.0</ele><time>2026-05-03T08:20:25.999Z</time></trkpt><trkpt lat="43.92349630452049" lon="12.16514496113323"><ele>190.39999999999998</ele><time>2026-05-03T08:20:28.999Z</time></trkpt><trkpt lat="43.92340309645289" lon="12.165107386535997"><ele>191.8</ele><time>2026-05-03T08:20:29.999Z</time></trkpt><trkpt lat="43.92329458508015" lon="12.16505617195186"><ele>193.2</ele><time>2026-05-03T08:20:30.999Z</time></trkpt><trkpt lat="43.9231843917702" lon="12.165012304702126"><ele>194.60000000000002</ele><time>2026-05-03T08:20:31.999Z</time></trkpt><trkpt lat="43.923065253367305" lon="12.164970234377995"><ele>196.0</ele><time>2026-05-03T08:20:32.999Z</time></trkpt><trkpt lat="43.92294000905896" lon="12.164925914830263"><ele>198.5</ele><time>2026-05-03T08:20:33.999Z</time></trkpt><trkpt lat="43.92281277338315" lon="12.164878268045932"><ele>201.0</ele><time>2026-05-03T08:20:34.999Z</time></trkpt><trkpt lat="43.922683631175545" lon="12.164833295048753"><ele>203.5</ele><time>2026-05-03T08:20:35.999Z</time></trkpt><trkpt lat="43.9225608550711" lon="12.164785409036107"><ele>206.0</ele><time>2026-05-03T08:20:36.999Z</time></trkpt><trkpt lat="43.922451146259654" lon="12.164748475134417"><ele>209.75</ele><time>2026-05-03T08:20:37.999Z</time></trkpt><trkpt lat="43.92236110496742" lon="12.164731657222365"><ele>213.5</ele><time>2026-05-03T08:20:38.999Z</time></trkpt><trkpt lat="43.92229516963255" lon="12.164682529034158"><ele>217.25</ele><time>2026-05-03T08:20:39.999Z</time></trkpt><trkpt lat="43.922190306750004" lon="12.164640053454683"><ele>221.0</ele><time>2026-05-03T08:20:41.999Z</time></trkpt><trkpt lat="43.92180669155126" lon="12.164416051718522"><ele>223.0</ele><time>2026-05-03T08:20:42.999Z</time></trkpt><trkpt lat="43.92168995735366" lon="12.164331030116863"><ele>225.0</ele><time>2026-05-03T08:20:43.999Z</time></trkpt><trkpt lat="43.92157532765205" lon="12.164249171041014"><ele>227.0</ele><time>2026-05-03T08:20:44.999Z</time></trkpt><trkpt lat="43.92145029431005" lon="12.164186056244569"><ele>229.0</ele><time>2026-05-03T08:20:45.999Z</time></trkpt><trkpt lat="43.92132616222719" lon="12.164139361976437"><ele>229.0</ele><time>2026-05-03T08:20:46.999Z</time></trkpt><trkpt lat="43.92120109474921" lon="12.164112713775577"><ele>229.0</ele><time>2026-05-03T08:20:47.999Z</time></trkpt><trkpt lat="43.92108221491995" lon="12.16413119937124"><ele>229.0</ele><time>2026-05-03T08:20:48.999Z</time></trkpt><trkpt lat="43.92096290450764" lon="12.164200082639912"><ele>229.0</ele><time>2026-05-03T08:20:49.999Z</time></trkpt><trkpt lat="43.9208553742844" lon="12.16430157447494"><ele>230.25</ele><time>2026-05-03T08:20:50.999Z</time></trkpt><trkpt lat="43.920754228734914" lon="12.16442546668715"><ele>231.5</ele><time>2026-05-03T08:20:51.999Z</time></trkpt><trkpt lat="43.92065208885669" lon="12.164547465052438"><ele>232.75</ele><time>2026-05-03T08:20:52.999Z</time></trkpt><trkpt lat="43.92054168499055" lon="12.164670130225506"><ele>234.0</ele><time>2026-05-03T08:20:53.999Z</time></trkpt><trkpt lat="43.920418627065835" lon="12.164794779214246"><ele>235.33333333333331</ele><time>2026-05-03T08:20:54.999Z</time></trkpt><trkpt lat="43.920285088996295" lon="12.164918509927213"><ele>236.66666666666666</ele><time>2026-05-03T08:20:55.999Z</time></trkpt><trkpt lat="43.92014691396332" lon="12.165050539543499"><ele>238.0</ele><time>2026-05-03T08:20:56.999Z</time></trkpt><trkpt lat="43.92001004239217" lon="12.1651807918362"><ele>238.66666666666666</ele><time>2026-05-03T08:20:57.999Z</time></trkpt><trkpt lat="43.919867346043645" lon="12.16531893137922"><ele>239.33333333333331</ele><time>2026-05-03T08:20:58.999Z</time></trkpt><trkpt lat="43.919722777014066" lon="12.165477256858996"><ele>240.0</ele><time>2026-05-03T08:20:59.999Z</time></trkpt><trkpt lat="43.91957577693182" lon="12.165629250649468"><ele>241.66666666666669</ele><time>2026-05-03T08:21:00.999Z</time></trkpt><trkpt lat="43.91943463255562" lon="12.16577904433552"><ele>243.33333333333334</ele><time>2026-05-03T08:21:01.999Z</time></trkpt><trkpt lat="43.919289588223826" lon="12.16591752019091"><ele>245.0</ele><time>2026-05-03T08:21:02.999Z</time></trkpt><trkpt lat="43.919148637851485" lon="12.166059143981256"><ele>245.0</ele><time>2026-05-03T08:21:03.999Z</time></trkpt><trkpt lat="43.919020785434824" lon="12.166192192020624"><ele>245.0</ele><time>2026-05-03T08:21:04.999Z</time></trkpt><trkpt lat="43.91890618620478" lon="12.166331036530952"><ele>245.0</ele><time>2026-05-03T08:21:05.999Z</time></trkpt><trkpt lat="43.91881652804962" lon="12.16649146930591"><ele>247.25</ele><time>2026-05-03T08:21:06.999Z</time></trkpt><trkpt lat="43.91877395217343" lon="12.166643724589923"><ele>249.5</ele><time>2026-05-03T08:21:07.999Z</time></trkpt><trkpt lat="43.9187581318878" lon="12.16681507892922"><ele>251.75</ele><time>2026-05-03T08:21:08.999Z</time></trkpt><trkpt lat="43.91874973505514" lon="12.167010569524024"><ele>254.0</ele><time>2026-05-03T08:21:09.999Z</time></trkpt><trkpt lat="43.91875702824263" lon="12.1672195442538"><ele>256.6666666666667</ele><time>2026-05-03T08:21:10.999Z</time></trkpt><trkpt lat="43.918780657869696" lon="12.167433436937374"><ele>259.3333333333333</ele><time>2026-05-03T08:21:11.999Z</time></trkpt><trkpt lat="43.91880037096295" lon="12.167649319772618"><ele>262.0</ele><time>2026-05-03T08:21:12.999Z</time></trkpt><trkpt lat="43.918812876882775" lon="12.16786730940194"><ele>262.0</ele><time>2026-05-03T08:21:13.999Z</time></trkpt><trkpt lat="43.918818063923325" lon="12.16807989754222"><ele>262.0</ele><time>2026-05-03T08:21:14.999Z</time></trkpt><trkpt lat="43.91881715421029" lon="12.168288952258754"><ele>262.0</ele><time>2026-05-03T08:21:15.999Z</time></trkpt><trkpt lat="43.91879520992154" lon="12.16850062136227"><ele>263.0</ele><time>2026-05-03T08:21:17Z</time></trkpt><trkpt lat="43.918747038116535" lon="12.168708566463275"><ele>264.0</ele><time>2026-05-03T08:21:18Z</time></trkpt><trkpt lat="43.91868264668854" lon="12.168909439361281"><ele>265.0</ele><time>2026-05-03T08:21:19Z</time></trkpt><trkpt lat="43.91860819363886" lon="12.16909516499085"><ele>265.0</ele><time>2026-05-03T08:21:20Z</time></trkpt><trkpt lat="43.91852276777039" lon="12.169250456829698"><ele>265.0</ele><time>2026-05-03T08:21:21Z</time></trkpt><trkpt lat="43.918390851015936" lon="12.169342038650043"><ele>265.0</ele><time>2026-05-03T08:21:22Z</time></trkpt><trkpt lat="43.91825487063807" lon="12.16947170864453"><ele>268.66666666666663</ele><time>2026-05-03T08:21:23Z</time></trkpt><trkpt lat="43.91810442780381" lon="12.16959620705329"><ele>272.3333333333333</ele><time>2026-05-03T08:21:24Z</time></trkpt><trkpt lat="43.91795560411376" lon="12.169734354366765"><ele>276.0</ele><time>2026-05-03T08:21:25Z</time></trkpt><trkpt lat="43.9178073413196" lon="12.169869376391953"><ele>276.0</ele><time>2026-05-03T08:21:26Z</time></trkpt><trkpt lat="43.917656989419235" lon="12.170002763505583"><ele>276.0</ele><time>2026-05-03T08:21:27Z</time></trkpt><trkpt lat="43.9175066870409" lon="12.17013906233498"><ele>276.0</ele><time>2026-05-03T08:21:28Z</time></trkpt><trkpt lat="43.917359292181104" lon="12.170277805438266"><ele>279.0</ele><time>2026-05-03T08:21:29Z</time></trkpt><trkpt lat="43.91721364092994" lon="12.17041615843253"><ele>282.0</ele><time>2026-05-03T08:21:30Z</time></trkpt><trkpt lat="43.91706615608388" lon="12.170550383533765"><ele>285.0</ele><time>2026-05-03T08:21:31Z</time></trkpt><trkpt lat="43.916918790643685" lon="12.170683841091648"><ele>285.0</ele><time>2026-05-03T08:21:32Z</time></trkpt><trkpt lat="43.916771718525624" lon="12.170818382119807"><ele>285.0</ele><time>2026-05-03T08:21:33Z</time></trkpt><trkpt lat="43.91662512902076" lon="12.170953022608067"><ele>285.0</ele><time>2026-05-03T08:21:34Z</time></trkpt><trkpt lat="43.91648063494246" lon="12.171086019757709"><ele>288.3333333333333</ele><time>2026-05-03T08:21:35Z</time></trkpt><trkpt lat="43.91634238287142" lon="12.171215019592413"><ele>291.66666666666663</ele><time>2026-05-03T08:21:36Z</time></trkpt><trkpt lat="43.916210414095595" lon="12.171335820254264"><ele>295.0</ele><time>2026-05-03T08:21:37Z</time></trkpt><trkpt lat="43.91608315511188" lon="12.171442054658979"><ele>295.0</ele><time>2026-05-03T08:21:38Z</time></trkpt><trkpt lat="43.91596906241189" lon="12.171529708560362"><ele>295.0</ele><time>2026-05-03T08:21:39Z</time></trkpt><trkpt lat="43.91586122429538" lon="12.171589236449796"><ele>295.0</ele><time>2026-05-03T08:21:40Z</time></trkpt><trkpt lat="43.915750377232655" lon="12.17156470725553"><ele>295.0</ele><time>2026-05-03T08:21:41Z</time></trkpt><trkpt lat="43.915637568739264" lon="12.171516528187796"><ele>298.5</ele><time>2026-05-03T08:21:42Z</time></trkpt><trkpt lat="43.91550491499772" lon="12.17148653404166"><ele>302.0</ele><time>2026-05-03T08:21:43Z</time></trkpt><trkpt lat="43.91537624397444" lon="12.171424811674253"><ele>305.5</ele><time>2026-05-03T08:21:44Z</time></trkpt><trkpt lat="43.91524694973956" lon="12.17136975989673"><ele>309.0</ele><time>2026-05-03T08:21:45Z</time></trkpt><trkpt lat="43.91510956101406" lon="12.171321662636462"><ele>311.5</ele><time>2026-05-03T08:21:46Z</time></trkpt><trkpt lat="43.914970908349225" lon="12.171272016349363"><ele>314.0</ele><time>2026-05-03T08:21:47Z</time></trkpt><trkpt lat="43.91485501389106" lon="12.171214378656423"><ele>316.5</ele><time>2026-05-03T08:21:48Z</time></trkpt><trkpt lat="43.91478683067988" lon="12.171109504141135"><ele>319.0</ele><time>2026-05-03T08:21:49Z</time></trkpt><trkpt lat="43.91471637840731" lon="12.17100755600855"><ele>319.0</ele><time>2026-05-03T08:21:50Z</time></trkpt><trkpt lat="43.91468023608106" lon="12.170845777588061"><ele>319.0</ele><time>2026-05-03T08:21:51Z</time></trkpt><trkpt lat="43.91465430274157" lon="12.170676623903962"><ele>319.0</ele><time>2026-05-03T08:21:52Z</time></trkpt><trkpt lat="43.914627213962746" lon="12.170521120005741"><ele>319.0</ele><time>2026-05-03T08:21:53Z</time></trkpt><trkpt lat="43.914588099827725" lon="12.170383910286812"><ele>318.8333333333333</ele><time>2026-05-03T08:21:54Z</time></trkpt><trkpt lat="43.91452939717132" lon="12.17028577074948"><ele>318.66666666666663</ele><time>2026-05-03T08:21:55Z</time></trkpt><trkpt lat="43.91445688237276" lon="12.170244355764414"><ele>318.5</ele><time>2026-05-03T08:21:56Z</time></trkpt><trkpt lat="43.9143758966372" lon="12.170258076318564"><ele>318.3333333333333</ele><time>2026-05-03T08:21:57Z</time></trkpt><trkpt lat="43.91430105541791" lon="12.170314857433022"><ele>318.1666666666667</ele><time>2026-05-03T08:21:58Z</time></trkpt><trkpt lat="43.91424125115591" lon="12.170421123279809"><ele>318.0</ele><time>2026-05-03T08:21:59Z</time></trkpt><trkpt lat="43.91422102704204" lon="12.170564776200823"><ele>318.25</ele><time>2026-05-03T08:22:00Z</time></trkpt><trkpt lat="43.914240799422174" lon="12.170703173570544"><ele>318.5</ele><time>2026-05-03T08:22:01Z</time></trkpt><trkpt lat="43.91429596154295" lon="12.170857115030843"><ele>318.75</ele><time>2026-05-03T08:22:02Z</time></trkpt><trkpt lat="43.91436236843062" lon="12.171025519401836"><ele>319.0</ele><time>2026-05-03T08:22:03Z</time></trkpt><trkpt lat="43.91443028342015" lon="12.171194000928281"><ele>319.0</ele><time>2026-05-03T08:22:03.999Z</time></trkpt><trkpt lat="43.91449068168472" lon="12.171367127484706"><ele>319.0</ele><time>2026-05-03T08:22:04.999Z</time></trkpt><trkpt lat="43.91449712447053" lon="12.171535001046651"><ele>319.0</ele><time>2026-05-03T08:22:05.999Z</time></trkpt><trkpt lat="43.91448511038212" lon="12.171647435392446"><ele>319.0</ele><time>2026-05-03T08:22:06.999Z</time></trkpt><trkpt lat="43.914462532191045" lon="12.171733289095334"><ele>319.0</ele><time>2026-05-03T08:22:07.999Z</time></trkpt><trkpt lat="43.91438963176742" lon="12.17174591880039"><ele>319.4</ele><time>2026-05-03T08:22:08.999Z</time></trkpt><trkpt lat="43.914312808573136" lon="12.171714019192732"><ele>319.79999999999995</ele><time>2026-05-03T08:22:09.999Z</time></trkpt><trkpt lat="43.914245500503675" lon="12.171627954088901"><ele>320.20000000000005</ele><time>2026-05-03T08:22:10.999Z</time></trkpt><trkpt lat="43.914175580326855" lon="12.171514378884018"><ele>320.6</ele><time>2026-05-03T08:22:11.999Z</time></trkpt><trkpt lat="43.91410368623936" lon="12.17138718785871"><ele>321.0</ele><time>2026-05-03T08:22:12.999Z</time></trkpt><trkpt lat="43.91401887862497" lon="12.171263045728784"><ele>324.75</ele><time>2026-05-03T08:22:13.999Z</time></trkpt><trkpt lat="43.91391994069019" lon="12.171143144538789"><ele>328.5</ele><time>2026-05-03T08:22:14.999Z</time></trkpt><trkpt lat="43.91380882758309" lon="12.171030754857327"><ele>332.25</ele><time>2026-05-03T08:22:15.999Z</time></trkpt><trkpt lat="43.91369257792809" lon="12.170913068983687"><ele>336.0</ele><time>2026-05-03T08:22:16.999Z</time></trkpt><trkpt lat="43.91357568071899" lon="12.170795130164716"><ele>333.75</ele><time>2026-05-03T08:22:17.999Z</time></trkpt><trkpt lat="43.913460738998914" lon="12.170679221042557"><ele>331.5</ele><time>2026-05-03T08:22:18.999Z</time></trkpt><trkpt lat="43.913343696836534" lon="12.170563708979413"><ele>329.25</ele><time>2026-05-03T08:22:19.999Z</time></trkpt><trkpt lat="43.913234353684395" lon="12.17045242001693"><ele>327.0</ele><time>2026-05-03T08:22:20.999Z</time></trkpt><trkpt lat="43.91313909858875" lon="12.17034234940077"><ele>331.6</ele><time>2026-05-03T08:22:21.999Z</time></trkpt><trkpt lat="43.9130502285645" lon="12.170241746381247"><ele>336.20000000000005</ele><time>2026-05-03T08:22:22.999Z</time></trkpt><trkpt lat="43.912966393195795" lon="12.170146914172953"><ele>340.8</ele><time>2026-05-03T08:22:23.999Z</time></trkpt><trkpt lat="43.91288422063239" lon="12.170069208072773"><ele>345.4</ele><time>2026-05-03T08:22:24.999Z</time></trkpt><trkpt lat="43.91281022826065" lon="12.17003736924802"><ele>350.0</ele><time>2026-05-03T08:22:25.999Z</time></trkpt><trkpt lat="43.91274737035854" lon="12.170058948053674"><ele>350.0</ele><time>2026-05-03T08:22:26.999Z</time></trkpt><trkpt lat="43.912702247878144" lon="12.170122325920921"><ele>350.0</ele><time>2026-05-03T08:22:27.999Z</time></trkpt><trkpt lat="43.91268981641447" lon="12.170217029238303"><ele>350.0</ele><time>2026-05-03T08:22:28.999Z</time></trkpt><trkpt lat="43.91268144952646" lon="12.17032041306895"><ele>350.0</ele><time>2026-05-03T08:22:29.999Z</time></trkpt><trkpt lat="43.91275013904741" lon="12.170421570623407"><ele>350.0</ele><time>2026-05-03T08:22:30.999Z</time></trkpt><trkpt lat="43.912835655060334" lon="12.17051396395565"><ele>350.0</ele><time>2026-05-03T08:22:31.999Z</time></trkpt><trkpt lat="43.91290795008582" lon="12.170626524228771"><ele>351.5</ele><time>2026-05-03T08:22:32.999Z</time></trkpt><trkpt lat="43.91299475637176" lon="12.17075322759169"><ele>353.0</ele><time>2026-05-03T08:22:33.999Z</time></trkpt><trkpt lat="43.91307210152299" lon="12.170884464307953"><ele>354.5</ele><time>2026-05-03T08:22:34.999Z</time></trkpt><trkpt lat="43.913140823100235" lon="12.171031535318425"><ele>356.0</ele><time>2026-05-03T08:22:35.999Z</time></trkpt><trkpt lat="43.91319742712269" lon="12.171200792862857"><ele>356.0</ele><time>2026-05-03T08:22:36.999Z</time></trkpt><trkpt lat="43.91324177997447" lon="12.171377497977296"><ele>356.0</ele><time>2026-05-03T08:22:37.999Z</time></trkpt><trkpt lat="43.913293913975345" lon="12.171552943986397"><ele>356.0</ele><time>2026-05-03T08:22:38.999Z</time></trkpt><trkpt lat="43.91334291463353" lon="12.17172578051884"><ele>356.0</ele><time>2026-05-03T08:22:39.999Z</time></trkpt><trkpt lat="43.91342696052265" lon="12.171864728726197"><ele>354.0</ele><time>2026-05-03T08:22:40.999Z</time></trkpt><trkpt lat="43.91348641273476" lon="12.171988855921922"><ele>352.0</ele><time>2026-05-03T08:22:41.999Z</time></trkpt><trkpt lat="43.913515490956726" lon="12.172095582889584"><ele>350.0</ele><time>2026-05-03T08:22:42.999Z</time></trkpt><trkpt lat="43.913508323434094" lon="12.172203434710744"><ele>348.0</ele><time>2026-05-03T08:22:43.999Z</time></trkpt><trkpt lat="43.91343486497451" lon="12.172300632872501"><ele>346.0</ele><time>2026-05-03T08:22:44.999Z</time></trkpt><trkpt lat="43.91337746974787" lon="12.172418947290877"><ele>355.5</ele><time>2026-05-03T08:22:45.999Z</time></trkpt><trkpt lat="43.91332208915964" lon="12.172548614292957"><ele>365.0</ele><time>2026-05-03T08:22:46.999Z</time></trkpt><trkpt lat="43.913299506173274" lon="12.172710975966867"><ele>374.5</ele><time>2026-05-03T08:22:47.999Z</time></trkpt><trkpt lat="43.91329681011952" lon="12.172886615672729"><ele>384.0</ele><time>2026-05-03T08:22:48.999Z</time></trkpt><trkpt lat="43.91330285817063" lon="12.173065335857567"><ele>384.0</ele><time>2026-05-03T08:22:49.999Z</time></trkpt><trkpt lat="43.9133239101179" lon="12.173242321680211"><ele>384.0</ele><time>2026-05-03T08:22:50.999Z</time></trkpt><trkpt lat="43.913339461630805" lon="12.1734203622619"><ele>384.0</ele><time>2026-05-03T08:22:51.999Z</time></trkpt><trkpt lat="43.913337314835765" lon="12.173595661173755"><ele>384.0</ele><time>2026-05-03T08:22:52.999Z</time></trkpt><trkpt lat="43.913290804807005" lon="12.17376234593593"><ele>384.0</ele><time>2026-05-03T08:22:53.999Z</time></trkpt><trkpt lat="43.91323936361949" lon="12.173924655686939"><ele>384.0</ele><time>2026-05-03T08:22:54.999Z</time></trkpt><trkpt lat="43.91318585330963" lon="12.174089256189111"><ele>384.0</ele><time>2026-05-03T08:22:55.999Z</time></trkpt><trkpt lat="43.913121107819734" lon="12.17421040639589"><ele>384.0</ele><time>2026-05-03T08:22:56.999Z</time></trkpt><trkpt lat="43.91306918013567" lon="12.17431121117666"><ele>382.1666666666667</ele><time>2026-05-03T08:22:57.999Z</time></trkpt><trkpt lat="43.91303105506699" lon="12.174400224792334"><ele>380.3333333333333</ele><time>2026-05-03T08:22:58.999Z</time></trkpt><trkpt lat="43.91299388350506" lon="12.174488795474709"><ele>378.5</ele><time>2026-05-03T08:22:59.999Z</time></trkpt><trkpt lat="43.91293033162044" lon="12.174608445894084"><ele>376.66666666666663</ele><time>2026-05-03T08:23:01.999Z</time></trkpt><trkpt lat="43.912890839875146" lon="12.174700068486123"><ele>374.8333333333333</ele><time>2026-05-03T08:23:04.999Z</time></trkpt><trkpt lat="43.91282388524999" lon="12.174800179093777"><ele>373.0</ele><time>2026-05-03T08:23:40Z</time></trkpt><trkpt lat="43.91277550499345" lon="12.174873198959"><ele>371.5</ele><time>2026-05-03T08:23:41Z</time></trkpt><trkpt lat="43.912721779289555" lon="12.174942592518642"><ele>370.0</ele><time>2026-05-03T08:23:42Z</time></trkpt><trkpt lat="43.91266325653572" lon="12.175013558903162"><ele>368.5</ele><time>2026-05-03T08:23:43Z</time></trkpt><trkpt lat="43.912592801787966" lon="12.175081312074656"><ele>367.0</ele><time>2026-05-03T08:23:44Z</time></trkpt><trkpt lat="43.91250674146215" lon="12.175132937866353"><ele>365.5</ele><time>2026-05-03T08:23:45Z</time></trkpt><trkpt lat="43.91241306995685" lon="12.175175771430846"><ele>364.0</ele><time>2026-05-03T08:23:46Z</time></trkpt><trkpt lat="43.91231493647254" lon="12.175165068741437"><ele>371.2</ele><time>2026-05-03T08:23:47Z</time></trkpt><trkpt lat="43.91221404718784" lon="12.175171343073742"><ele>378.4</ele><time>2026-05-03T08:23:48Z</time></trkpt><trkpt lat="43.912120052147664" lon="12.17515689880102"><ele>385.6</ele><time>2026-05-03T08:23:49Z</time></trkpt><trkpt lat="43.912033604062515" lon="12.175162745611383"><ele>392.8</ele><time>2026-05-03T08:23:50Z</time></trkpt><trkpt lat="43.91194872186285" lon="12.175201670980629"><ele>400.0</ele><time>2026-05-03T08:23:51Z</time></trkpt><trkpt lat="43.91185551709979" lon="12.17527229075722"><ele>400.0</ele><time>2026-05-03T08:23:52Z</time></trkpt><trkpt lat="43.91174960310936" lon="12.175368093502291"><ele>400.0</ele><time>2026-05-03T08:23:53Z</time></trkpt><trkpt lat="43.91164022082355" lon="12.175472526860329"><ele>400.0</ele><time>2026-05-03T08:23:54Z</time></trkpt><trkpt lat="43.91152762706753" lon="12.175577073130201"><ele>400.0</ele><time>2026-05-03T08:23:55Z</time></trkpt><trkpt lat="43.91140195653545" lon="12.175673936575823"><ele>400.33333333333337</ele><time>2026-05-03T08:23:56Z</time></trkpt><trkpt lat="43.91126800034705" lon="12.175772628967692"><ele>400.66666666666663</ele><time>2026-05-03T08:23:57Z</time></trkpt><trkpt lat="43.91114090904555" lon="12.175883358358764"><ele>401.0</ele><time>2026-05-03T08:23:58Z</time></trkpt><trkpt lat="43.91101758137359" lon="12.176023178331892"><ele>405.0</ele><time>2026-05-03T08:23:59Z</time></trkpt><trkpt lat="43.910897949456555" lon="12.176173050722744"><ele>409.0</ele><time>2026-05-03T08:24:00Z</time></trkpt><trkpt lat="43.91077912455087" lon="12.176322301798871"><ele>413.0</ele><time>2026-05-03T08:24:01Z</time></trkpt><trkpt lat="43.91066323341323" lon="12.176467393363543"><ele>410.0</ele><time>2026-05-03T08:24:02Z</time></trkpt><trkpt lat="43.91054987131302" lon="12.176614212001418"><ele>407.0</ele><time>2026-05-03T08:24:03Z</time></trkpt><trkpt lat="43.910439648525816" lon="12.176755428107063"><ele>404.0</ele><time>2026-05-03T08:24:04Z</time></trkpt><trkpt lat="43.91034538554344" lon="12.176899515395473"><ele>401.0</ele><time>2026-05-03T08:24:05Z</time></trkpt><trkpt lat="43.910256279587585" lon="12.177020712614206"><ele>401.0</ele><time>2026-05-03T08:24:05.999Z</time></trkpt><trkpt lat="43.910166904116686" lon="12.17712590748511"><ele>401.0</ele><time>2026-05-03T08:24:06.999Z</time></trkpt><trkpt lat="43.91006898788879" lon="12.177194901108267"><ele>401.0</ele><time>2026-05-03T08:24:07.999Z</time></trkpt><trkpt lat="43.909970004254355" lon="12.177257787195883"><ele>401.0</ele><time>2026-05-03T08:24:08.999Z</time></trkpt><trkpt lat="43.90986138541999" lon="12.177286584014675"><ele>401.0</ele><time>2026-05-03T08:24:09.999Z</time></trkpt><trkpt lat="43.90975692753871" lon="12.177285094795394"><ele>403.75</ele><time>2026-05-03T08:24:10.999Z</time></trkpt><trkpt lat="43.90963470585666" lon="12.17728474796231"><ele>406.5</ele><time>2026-05-03T08:24:11.999Z</time></trkpt><trkpt lat="43.909515308633324" lon="12.17732243448983"><ele>409.25</ele><time>2026-05-03T08:24:12.999Z</time></trkpt><trkpt lat="43.90939614572221" lon="12.17738335787087"><ele>412.0</ele><time>2026-05-03T08:24:13.999Z</time></trkpt><trkpt lat="43.90929300595932" lon="12.177505352672819"><ele>416.75</ele><time>2026-05-03T08:24:14.999Z</time></trkpt><trkpt lat="43.90920863901992" lon="12.177650110357511"><ele>421.5</ele><time>2026-05-03T08:24:15.999Z</time></trkpt><trkpt lat="43.90913161111312" lon="12.17780451836924"><ele>426.25</ele><time>2026-05-03T08:24:16.999Z</time></trkpt><trkpt lat="43.909043886904094" lon="12.177932665497137"><ele>431.0</ele><time>2026-05-03T08:24:17.999Z</time></trkpt><trkpt lat="43.908932949564196" lon="12.178022883194894"><ele>431.0</ele><time>2026-05-03T08:24:18.999Z</time></trkpt><trkpt lat="43.90884081821072" lon="12.178080129241268"><ele>431.0</ele><time>2026-05-03T08:24:19.999Z</time></trkpt><trkpt lat="43.908748059582905" lon="12.178139426224773"><ele>431.0</ele><time>2026-05-03T08:24:20.999Z</time></trkpt><trkpt lat="43.90866415885417" lon="12.178114470763186"><ele>431.0</ele><time>2026-05-03T08:24:21.999Z</time></trkpt><trkpt lat="43.908572174258005" lon="12.178075728143876"><ele>431.0</ele><time>2026-05-03T08:24:22.999Z</time></trkpt><trkpt lat="43.9084827295952" lon="12.17800874133639"><ele>429.6</ele><time>2026-05-03T08:24:23.999Z</time></trkpt><trkpt lat="43.90838985788784" lon="12.177918288098477"><ele>428.20000000000005</ele><time>2026-05-03T08:24:24.999Z</time></trkpt><trkpt lat="43.90833034381734" lon="12.17781164060228"><ele>426.79999999999995</ele><time>2026-05-03T08:24:25.999Z</time></trkpt><trkpt lat="43.90830092357181" lon="12.177677380079599"><ele>425.4</ele><time>2026-05-03T08:24:26.999Z</time></trkpt><trkpt lat="43.908251798075256" lon="12.177529481465175"><ele>424.0</ele><time>2026-05-03T08:24:27.999Z</time></trkpt><trkpt lat="43.90819556839891" lon="12.177373603321493"><ele>425.4</ele><time>2026-05-03T08:24:28.999Z</time></trkpt><trkpt lat="43.90812361015335" lon="12.177240291611556"><ele>426.79999999999995</ele><time>2026-05-03T08:24:29.999Z</time></trkpt><trkpt lat="43.90806959020762" lon="12.177102883259371"><ele>428.20000000000005</ele><time>2026-05-03T08:24:30.999Z</time></trkpt><trkpt lat="43.908000859284755" lon="12.177028870681458"><ele>429.6</ele><time>2026-05-03T08:24:31.999Z</time></trkpt><trkpt lat="43.90792022932906" lon="12.176969400611037"><ele>431.0</ele><time>2026-05-03T08:24:32.999Z</time></trkpt><trkpt lat="43.907836332514094" lon="12.176962360869403"><ele>431.0</ele><time>2026-05-03T08:24:33.999Z</time></trkpt><trkpt lat="43.907763887526556" lon="12.177016908918262"><ele>431.0</ele><time>2026-05-03T08:24:34.999Z</time></trkpt><trkpt lat="43.90770138358508" lon="12.17711519834027"><ele>431.0</ele><time>2026-05-03T08:24:35.999Z</time></trkpt><trkpt lat="43.907644448070556" lon="12.17723442030526"><ele>431.0</ele><time>2026-05-03T08:24:36.999Z</time></trkpt><trkpt lat="43.90758298617142" lon="12.177363309129955"><ele>431.0</ele><time>2026-05-03T08:24:37.999Z</time></trkpt><trkpt lat="43.90751728420623" lon="12.177490422291912"><ele>428.0</ele><time>2026-05-03T08:24:38.999Z</time></trkpt><trkpt lat="43.90745627206604" lon="12.17762668166981"><ele>425.0</ele><time>2026-05-03T08:24:39.999Z</time></trkpt><trkpt lat="43.90740386429135" lon="12.17776657652229"><ele>422.0</ele><time>2026-05-03T08:24:40.999Z</time></trkpt><trkpt lat="43.90737629130241" lon="12.177913286261736"><ele>419.0</ele><time>2026-05-03T08:24:41.999Z</time></trkpt><trkpt lat="43.9073844829972" lon="12.178073863641652"><ele>418.75</ele><time>2026-05-03T08:24:42.999Z</time></trkpt><trkpt lat="43.907421117838126" lon="12.178253032994993"><ele>418.5</ele><time>2026-05-03T08:24:43.999Z</time></trkpt><trkpt lat="43.90745227555848" lon="12.178432518130599"><ele>418.25</ele><time>2026-05-03T08:24:44.999Z</time></trkpt><trkpt lat="43.90746975788562" lon="12.178616159334196"><ele>418.0</ele><time>2026-05-03T08:24:45.999Z</time></trkpt><trkpt lat="43.90748426246931" lon="12.178793563541985"><ele>418.0</ele><time>2026-05-03T08:24:46.999Z</time></trkpt><trkpt lat="43.90750377825359" lon="12.178966757873342"><ele>418.0</ele><time>2026-05-03T08:24:47.999Z</time></trkpt><trkpt lat="43.90751736790197" lon="12.179138547049552"><ele>418.0</ele><time>2026-05-03T08:24:48.999Z</time></trkpt><trkpt lat="43.90748179874065" lon="12.17930170834534"><ele>418.0</ele><time>2026-05-03T08:24:49.999Z</time></trkpt><trkpt lat="43.90742473887506" lon="12.179482619431331"><ele>416.75</ele><time>2026-05-03T08:24:50.999Z</time></trkpt><trkpt lat="43.90737964609406" lon="12.179673363464703"><ele>415.5</ele><time>2026-05-03T08:24:51.999Z</time></trkpt><trkpt lat="43.90734950967749" lon="12.179865367630201"><ele>414.25</ele><time>2026-05-03T08:24:52.999Z</time></trkpt><trkpt lat="43.90737358634114" lon="12.180062664748451"><ele>413.0</ele><time>2026-05-03T08:24:53.999Z</time></trkpt><trkpt lat="43.90743848137463" lon="12.180254895972586"><ele>411.66666666666663</ele><time>2026-05-03T08:24:54.999Z</time></trkpt><trkpt lat="43.907524050272364" lon="12.18043981271021"><ele>410.33333333333337</ele><time>2026-05-03T08:24:55.999Z</time></trkpt><trkpt lat="43.90760349970788" lon="12.180621711199365"><ele>409.0</ele><time>2026-05-03T08:24:56.999Z</time></trkpt><trkpt lat="43.90767479855225" lon="12.180792472743681"><ele>406.0</ele><time>2026-05-03T08:24:57.999Z</time></trkpt><trkpt lat="43.90772731858142" lon="12.180967799855017"><ele>403.0</ele><time>2026-05-03T08:24:58.999Z</time></trkpt><trkpt lat="43.90778960750022" lon="12.181133414171427"><ele>400.0</ele><time>2026-05-03T08:24:59.999Z</time></trkpt><trkpt lat="43.907779368990084" lon="12.18133764188109"><ele>397.0</ele><time>2026-05-03T08:25:00.999Z</time></trkpt><trkpt lat="43.90776076179513" lon="12.181541457936936"><ele>397.0</ele><time>2026-05-03T08:25:01.999Z</time></trkpt><trkpt lat="43.907746743687106" lon="12.181749340035129"><ele>397.0</ele><time>2026-05-03T08:25:02.999Z</time></trkpt><trkpt lat="43.907733148385056" lon="12.181945652016678"><ele>397.0</ele><time>2026-05-03T08:25:03.999Z</time></trkpt><trkpt lat="43.90774526434119" lon="12.182137902593343"><ele>397.0</ele><time>2026-05-03T08:25:04.999Z</time></trkpt><trkpt lat="43.907768103341176" lon="12.182330046878048"><ele>398.25</ele><time>2026-05-03T08:25:05.999Z</time></trkpt><trkpt lat="43.907799820375594" lon="12.182519324077235"><ele>399.5</ele><time>2026-05-03T08:25:06.999Z</time></trkpt><trkpt lat="43.90784140663843" lon="12.182706129471647"><ele>400.75</ele><time>2026-05-03T08:25:07.999Z</time></trkpt><trkpt lat="43.90791036628061" lon="12.182886515782227"><ele>402.0</ele><time>2026-05-03T08:25:08.999Z</time></trkpt><trkpt lat="43.9079960673327" lon="12.183059771504604"><ele>402.66666666666663</ele><time>2026-05-03T08:25:09.999Z</time></trkpt><trkpt lat="43.90808396441382" lon="12.183231583599046"><ele>403.3333333333333</ele><time>2026-05-03T08:25:10.999Z</time></trkpt><trkpt lat="43.90816888735521" lon="12.183410310613747"><ele>404.0</ele><time>2026-05-03T08:25:11.999Z</time></trkpt><trkpt lat="43.90825466136139" lon="12.183588725748063"><ele>404.0</ele><time>2026-05-03T08:25:12.999Z</time></trkpt><trkpt lat="43.908342185205754" lon="12.183767758387633"><ele>404.0</ele><time>2026-05-03T08:25:13.999Z</time></trkpt><trkpt lat="43.90843185912868" lon="12.183950611242343"><ele>404.0</ele><time>2026-05-03T08:25:14.999Z</time></trkpt><trkpt lat="43.908512434730085" lon="12.184132687642775"><ele>401.0</ele><time>2026-05-03T08:25:15.999Z</time></trkpt><trkpt lat="43.90856058183072" lon="12.184330794892443"><ele>398.0</ele><time>2026-05-03T08:25:16.999Z</time></trkpt><trkpt lat="43.90856331466193" lon="12.184552315497468"><ele>395.0</ele><time>2026-05-03T08:25:17.999Z</time></trkpt><trkpt lat="43.90855369548786" lon="12.184777713394885"><ele>397.0</ele><time>2026-05-03T08:25:18.999Z</time></trkpt><trkpt lat="43.90857671819957" lon="12.185001508451352"><ele>399.0</ele><time>2026-05-03T08:25:19.999Z</time></trkpt><trkpt lat="43.90862389049533" lon="12.185227112411914"><ele>401.0</ele><time>2026-05-03T08:25:20.999Z</time></trkpt><trkpt lat="43.90869348016541" lon="12.185438579330084"><ele>401.0</ele><time>2026-05-03T08:25:21.999Z</time></trkpt><trkpt lat="43.90879907437374" lon="12.185621419549317"><ele>401.0</ele><time>2026-05-03T08:25:22.999Z</time></trkpt><trkpt lat="43.90893173751936" lon="12.18576669609247"><ele>401.0</ele><time>2026-05-03T08:25:23.999Z</time></trkpt><trkpt lat="43.90906221668105" lon="12.185906838044108"><ele>402.0</ele><time>2026-05-03T08:25:24.999Z</time></trkpt><trkpt lat="43.909178129059946" lon="12.18603851549623"><ele>403.0</ele><time>2026-05-03T08:25:25.999Z</time></trkpt><trkpt lat="43.9092613517855" lon="12.186180439068183"><ele>404.0</ele><time>2026-05-03T08:25:26.999Z</time></trkpt><trkpt lat="43.90929376589415" lon="12.186348141332727"><ele>405.0</ele><time>2026-05-03T08:25:27.999Z</time></trkpt><trkpt lat="43.909291391898556" lon="12.186523916023058"><ele>407.0</ele><time>2026-05-03T08:25:29Z</time></trkpt><trkpt lat="43.909209079695955" lon="12.186673020741189"><ele>409.0</ele><time>2026-05-03T08:25:30Z</time></trkpt><trkpt lat="43.90914068786689" lon="12.186835883309005"><ele>411.0</ele><time>2026-05-03T08:25:31Z</time></trkpt><trkpt lat="43.909058163230675" lon="12.1869903952397"><ele>413.0</ele><time>2026-05-03T08:25:32Z</time></trkpt><trkpt lat="43.90898337509735" lon="12.187148621640196"><ele>413.0</ele><time>2026-05-03T08:25:33Z</time></trkpt><trkpt lat="43.90891273272352" lon="12.187298506698816"><ele>413.0</ele><time>2026-05-03T08:25:34Z</time></trkpt><trkpt lat="43.90884335247594" lon="12.18744391026677"><ele>413.0</ele><time>2026-05-03T08:25:35Z</time></trkpt><trkpt lat="43.9087873106551" lon="12.187585875586807"><ele>413.0</ele><time>2026-05-03T08:25:36Z</time></trkpt><trkpt lat="43.9087633510029" lon="12.187729477838124"><ele>415.75</ele><time>2026-05-03T08:25:37Z</time></trkpt><trkpt lat="43.90877683742125" lon="12.187876342571487"><ele>418.5</ele><time>2026-05-03T08:25:38Z</time></trkpt><trkpt lat="43.908821915020724" lon="12.188020449939414"><ele>421.25</ele><time>2026-05-03T08:25:39Z</time></trkpt><trkpt lat="43.90889257218314" lon="12.188155416942559"><ele>424.0</ele><time>2026-05-03T08:25:40Z</time></trkpt><trkpt lat="43.90898441124308" lon="12.1882863913499"><ele>424.0</ele><time>2026-05-03T08:25:41Z</time></trkpt><trkpt lat="43.90908658136512" lon="12.188406573486368"><ele>424.0</ele><time>2026-05-03T08:25:42Z</time></trkpt><trkpt lat="43.9092034743329" lon="12.188514893280198"><ele>424.0</ele><time>2026-05-03T08:25:43Z</time></trkpt><trkpt lat="43.90934018252732" lon="12.18860276493852"><ele>424.0</ele><time>2026-05-03T08:25:44Z</time></trkpt><trkpt lat="43.90948171200192" lon="12.188681870687372"><ele>425.6666666666667</ele><time>2026-05-03T08:25:45Z</time></trkpt><trkpt lat="43.9096235991977" lon="12.188764659278526"><ele>427.33333333333337</ele><time>2026-05-03T08:25:46Z</time></trkpt><trkpt lat="43.90974566626657" lon="12.188895997332638"><ele>429.0</ele><time>2026-05-03T08:25:47Z</time></trkpt><trkpt lat="43.90985545953843" lon="12.189037581562083"><ele>429.0</ele><time>2026-05-03T08:25:48Z</time></trkpt><trkpt lat="43.909947028953106" lon="12.189210233224712"><ele>429.0</ele><time>2026-05-03T08:25:49Z</time></trkpt><trkpt lat="43.9100449025112" lon="12.189398110527884"><ele>429.0</ele><time>2026-05-03T08:25:50Z</time></trkpt><trkpt lat="43.91011925707394" lon="12.189604674243967"><ele>430.25</ele><time>2026-05-03T08:25:51Z</time></trkpt><trkpt lat="43.91020118546618" lon="12.189794619053332"><ele>431.5</ele><time>2026-05-03T08:25:52Z</time></trkpt><trkpt lat="43.91028131494362" lon="12.189971482716965"><ele>432.75</ele><time>2026-05-03T08:25:53Z</time></trkpt><trkpt lat="43.91034071629331" lon="12.190144853739254"><ele>434.0</ele><time>2026-05-03T08:25:54Z</time></trkpt><trkpt lat="43.910352216975916" lon="12.190323630830346"><ele>434.0</ele><time>2026-05-03T08:25:55Z</time></trkpt><trkpt lat="43.910359864845354" lon="12.190509566895068"><ele>434.0</ele><time>2026-05-03T08:25:56Z</time></trkpt><trkpt lat="43.910380339002096" lon="12.19070375085789"><ele>434.0</ele><time>2026-05-03T08:25:57Z</time></trkpt><trkpt lat="43.910362618674505" lon="12.190891466818725"><ele>434.0</ele><time>2026-05-03T08:25:58Z</time></trkpt><trkpt lat="43.91032132468179" lon="12.19105863593064"><ele>434.75</ele><time>2026-05-03T08:25:59Z</time></trkpt><trkpt lat="43.910245797590235" lon="12.191184534363353"><ele>435.5</ele><time>2026-05-03T08:26:00Z</time></trkpt><trkpt lat="43.91013838846655" lon="12.191259515494052"><ele>436.25</ele><time>2026-05-03T08:26:01Z</time></trkpt><trkpt lat="43.91002083848539" lon="12.191316557166932"><ele>437.0</ele><time>2026-05-03T08:26:02Z</time></trkpt><trkpt lat="43.90992731650583" lon="12.191412171233273"><ele>438.8</ele><time>2026-05-03T08:26:03Z</time></trkpt><trkpt lat="43.909876638319346" lon="12.191540813253987"><ele>440.6</ele><time>2026-05-03T08:26:04Z</time></trkpt><trkpt lat="43.90987583624187" lon="12.191686582883296"><ele>442.40000000000003</ele><time>2026-05-03T08:26:05Z</time></trkpt><trkpt lat="43.90990857028709" lon="12.19182780581116"><ele>444.20000000000005</ele><time>2026-05-03T08:26:06Z</time></trkpt><trkpt lat="43.90998962425873" lon="12.19195805763283"><ele>446.0</ele><time>2026-05-03T08:26:06.999Z</time></trkpt><trkpt lat="43.910103813443556" lon="12.192085615204066"><ele>446.0</ele><time>2026-05-03T08:26:07.999Z</time></trkpt><trkpt lat="43.91021002673289" lon="12.19224545758458"><ele>446.0</ele><time>2026-05-03T08:26:08.999Z</time></trkpt><trkpt lat="43.91025782622999" lon="12.19247574262466"><ele>446.0</ele><time>2026-05-03T08:26:09.999Z</time></trkpt><trkpt lat="43.91032649300082" lon="12.192716838050577"><ele>445.66666666666663</ele><time>2026-05-03T08:26:10.999Z</time></trkpt><trkpt lat="43.91037996798277" lon="12.192942824145357"><ele>445.33333333333337</ele><time>2026-05-03T08:26:11.999Z</time></trkpt><trkpt lat="43.91041172933106" lon="12.193159722591608"><ele>445.0</ele><time>2026-05-03T08:26:12.999Z</time></trkpt><trkpt lat="43.910404573395724" lon="12.193389112520096"><ele>442.6666666666667</ele><time>2026-05-03T08:26:13.999Z</time></trkpt><trkpt lat="43.910375012618566" lon="12.193628234004331"><ele>440.33333333333337</ele><time>2026-05-03T08:26:14.999Z</time></trkpt><trkpt lat="43.91033139929371" lon="12.193862927034104"><ele>438.0</ele><time>2026-05-03T08:26:15.999Z</time></trkpt><trkpt lat="43.91029019839073" lon="12.19406757807368"><ele>436.75</ele><time>2026-05-03T08:26:16.999Z</time></trkpt><trkpt lat="43.91027135852202" lon="12.194245332096955"><ele>435.5</ele><time>2026-05-03T08:26:17.999Z</time></trkpt><trkpt lat="43.91029042929407" lon="12.19439691629425"><ele>434.25</ele><time>2026-05-03T08:26:18.999Z</time></trkpt><trkpt lat="43.91026703316229" lon="12.194534781013697"><ele>433.0</ele><time>2026-05-03T08:26:19.999Z</time></trkpt><trkpt lat="43.91042886153888" lon="12.194622421578096"><ele>433.0</ele><time>2026-05-03T08:26:20.999Z</time></trkpt><trkpt lat="43.91054849149359" lon="12.194680221452112"><ele>433.0</ele><time>2026-05-03T08:26:21.999Z</time></trkpt><trkpt lat="43.91068447960687" lon="12.194717467414945"><ele>433.0</ele><time>2026-05-03T08:26:22.999Z</time></trkpt><trkpt lat="43.91079619243913" lon="12.194809649388931"><ele>433.0</ele><time>2026-05-03T08:26:23.999Z</time></trkpt><trkpt lat="43.9108752312976" lon="12.194919625447602"><ele>434.5</ele><time>2026-05-03T08:26:24.999Z</time></trkpt><trkpt lat="43.91091438683027" lon="12.195076285974684"><ele>436.0</ele><time>2026-05-03T08:26:25.999Z</time></trkpt><trkpt lat="43.9109553167258" lon="12.195251788883985"><ele>437.5</ele><time>2026-05-03T08:26:26.999Z</time></trkpt><trkpt lat="43.91098961271074" lon="12.195413918162657"><ele>439.0</ele><time>2026-05-03T08:26:27.999Z</time></trkpt><trkpt lat="43.911068401381975" lon="12.195535862846445"><ele>439.0</ele><time>2026-05-03T08:26:28.999Z</time></trkpt><trkpt lat="43.91117727609447" lon="12.195638865539882"><ele>439.0</ele><time>2026-05-03T08:26:29.999Z</time></trkpt><trkpt lat="43.911302109382504" lon="12.195743332501833"><ele>439.0</ele><time>2026-05-03T08:26:30.999Z</time></trkpt><trkpt lat="43.911406451696244" lon="12.195886033637326"><ele>439.0</ele><time>2026-05-03T08:26:31.999Z</time></trkpt><trkpt lat="43.911500307093704" lon="12.196050545695588"><ele>432.6666666666667</ele><time>2026-05-03T08:26:32.999Z</time></trkpt><trkpt lat="43.91159257211268" lon="12.196220880625994"><ele>426.33333333333337</ele><time>2026-05-03T08:26:33.999Z</time></trkpt><trkpt lat="43.91168746399495" lon="12.196386445701584"><ele>420.0</ele><time>2026-05-03T08:26:34.999Z</time></trkpt><trkpt lat="43.91177938356013" lon="12.19656030017871"><ele>411.33333333333337</ele><time>2026-05-03T08:26:35.999Z</time></trkpt><trkpt lat="43.91185718539522" lon="12.196756319709483"><ele>402.6666666666667</ele><time>2026-05-03T08:26:36.999Z</time></trkpt><trkpt lat="43.91191459487825" lon="12.196974898176183"><ele>394.0</ele><time>2026-05-03T08:26:37.999Z</time></trkpt><trkpt lat="43.911970095024756" lon="12.197213947933129"><ele>392.6666666666667</ele><time>2026-05-03T08:26:38.999Z</time></trkpt><trkpt lat="43.91203760672715" lon="12.197464974454316"><ele>391.33333333333337</ele><time>2026-05-03T08:26:39.999Z</time></trkpt><trkpt lat="43.91212294347836" lon="12.197703753233593"><ele>390.0</ele><time>2026-05-03T08:26:40.999Z</time></trkpt><trkpt lat="43.91219451168243" lon="12.19791727559033"><ele>390.0</ele><time>2026-05-03T08:26:41.999Z</time></trkpt><trkpt lat="43.9122535433742" lon="12.198097311514651"><ele>390.0</ele><time>2026-05-03T08:26:42.999Z</time></trkpt><trkpt lat="43.91223834095243" lon="12.198291317174009"><ele>390.0</ele><time>2026-05-03T08:26:43.999Z</time></trkpt><trkpt lat="43.91218447372909" lon="12.198463794251225"><ele>390.0</ele><time>2026-05-03T08:26:44.999Z</time></trkpt><trkpt lat="43.9121344922917" lon="12.19861088411645"><ele>391.0</ele><time>2026-05-03T08:26:45.999Z</time></trkpt><trkpt lat="43.91210869103332" lon="12.198776261030833"><ele>392.0</ele><time>2026-05-03T08:26:46.999Z</time></trkpt><trkpt lat="43.91210681962756" lon="12.19890975758017"><ele>393.0</ele><time>2026-05-03T08:26:47.999Z</time></trkpt><trkpt lat="43.91213998920429" lon="12.199056538766044"><ele>394.0</ele><time>2026-05-03T08:26:48.999Z</time></trkpt><trkpt lat="43.91221474109836" lon="12.19920568752651"><ele>396.33333333333337</ele><time>2026-05-03T08:26:49.999Z</time></trkpt><trkpt lat="43.91228837019648" lon="12.199388819596539"><ele>398.66666666666663</ele><time>2026-05-03T08:26:50.999Z</time></trkpt><trkpt lat="43.91234073512059" lon="12.19958356521916"><ele>401.0</ele><time>2026-05-03T08:26:51.999Z</time></trkpt><trkpt lat="43.912384201782416" lon="12.199804863477985"><ele>402.66666666666663</ele><time>2026-05-03T08:26:52.999Z</time></trkpt><trkpt lat="43.91242255380843" lon="12.200023412541569"><ele>404.33333333333337</ele><time>2026-05-03T08:26:53.999Z</time></trkpt><trkpt lat="43.912473307373176" lon="12.200229109301846"><ele>406.0</ele><time>2026-05-03T08:26:54.999Z</time></trkpt><trkpt lat="43.912491609856424" lon="12.200435525857731"><ele>406.0</ele><time>2026-05-03T08:26:55.999Z</time></trkpt><trkpt lat="43.91249562164747" lon="12.200629480005725"><ele>406.0</ele><time>2026-05-03T08:26:56.999Z</time></trkpt><trkpt lat="43.912522802276065" lon="12.200810435960662"><ele>406.0</ele><time>2026-05-03T08:26:57.999Z</time></trkpt><trkpt lat="43.91253220929781" lon="12.200992367961701"><ele>406.0</ele><time>2026-05-03T08:26:58.999Z</time></trkpt><trkpt lat="43.91254682041895" lon="12.201151280286052"><ele>405.75</ele><time>2026-05-03T08:26:59.999Z</time></trkpt><trkpt lat="43.91256685818708" lon="12.201291663136342"><ele>405.5</ele><time>2026-05-03T08:27:00.999Z</time></trkpt><trkpt lat="43.912540998573746" lon="12.201431555187797"><ele>405.25</ele><time>2026-05-03T08:27:01.999Z</time></trkpt><trkpt lat="43.91251607604205" lon="12.201602729495342"><ele>405.0</ele><time>2026-05-03T08:27:02.999Z</time></trkpt><trkpt lat="43.912471798731076" lon="12.201788250958703"><ele>405.66666666666663</ele><time>2026-05-03T08:27:03.999Z</time></trkpt><trkpt lat="43.9124192661847" lon="12.201979726933365"><ele>406.3333333333333</ele><time>2026-05-03T08:27:04.999Z</time></trkpt><trkpt lat="43.91239017990429" lon="12.20218487182733"><ele>407.0</ele><time>2026-05-03T08:27:05.999Z</time></trkpt><trkpt lat="43.912378220420315" lon="12.202399006764619"><ele>407.3333333333333</ele><time>2026-05-03T08:27:06.999Z</time></trkpt><trkpt lat="43.91238094377032" lon="12.202614310088308"><ele>407.66666666666663</ele><time>2026-05-03T08:27:07.999Z</time></trkpt><trkpt lat="43.912405842372024" lon="12.202824827539946"><ele>408.0</ele><time>2026-05-03T08:27:08.999Z</time></trkpt><trkpt lat="43.91241444699633" lon="12.203034740776628"><ele>406.66666666666663</ele><time>2026-05-03T08:27:09.999Z</time></trkpt><trkpt lat="43.912374635147785" lon="12.20324837050407"><ele>405.3333333333333</ele><time>2026-05-03T08:27:10.999Z</time></trkpt><trkpt lat="43.91227701782918" lon="12.203448795803533"><ele>404.0</ele><time>2026-05-03T08:27:11.999Z</time></trkpt><trkpt lat="43.91220807631036" lon="12.203661938959806"><ele>404.0</ele><time>2026-05-03T08:27:12.999Z</time></trkpt><trkpt lat="43.91213896115039" lon="12.203854375115782"><ele>404.0</ele><time>2026-05-03T08:27:13.999Z</time></trkpt><trkpt lat="43.91210367913562" lon="12.204071003451343"><ele>404.0</ele><time>2026-05-03T08:27:14.999Z</time></trkpt><trkpt lat="43.91210134165114" lon="12.204299068440486"><ele>403.66666666666663</ele><time>2026-05-03T08:27:15.999Z</time></trkpt><trkpt lat="43.91211586474125" lon="12.20452015789364"><ele>403.33333333333337</ele><time>2026-05-03T08:27:16.999Z</time></trkpt><trkpt lat="43.91212553618415" lon="12.204738710945849"><ele>403.0</ele><time>2026-05-03T08:27:17.999Z</time></trkpt><trkpt lat="43.912097766850025" lon="12.204950851826446"><ele>404.0</ele><time>2026-05-03T08:27:18.999Z</time></trkpt><trkpt lat="43.91204279401445" lon="12.205159609630302"><ele>405.0</ele><time>2026-05-03T08:27:19.999Z</time></trkpt><trkpt lat="43.91194374746819" lon="12.205335994746154"><ele>406.0</ele><time>2026-05-03T08:27:20.999Z</time></trkpt><trkpt lat="43.91184174397207" lon="12.20550664656413"><ele>406.0</ele><time>2026-05-03T08:27:21.999Z</time></trkpt><trkpt lat="43.91175342401988" lon="12.20565714717601"><ele>406.0</ele><time>2026-05-03T08:27:22.999Z</time></trkpt><trkpt lat="43.91167955919803" lon="12.205825228888264"><ele>406.0</ele><time>2026-05-03T08:27:23.999Z</time></trkpt><trkpt lat="43.91164658385065" lon="12.206030087878135"><ele>406.0</ele><time>2026-05-03T08:27:24.999Z</time></trkpt><trkpt lat="43.9116597995746" lon="12.206247596089034"><ele>408.33333333333337</ele><time>2026-05-03T08:27:25.999Z</time></trkpt><trkpt lat="43.91168140408876" lon="12.206479255944135"><ele>410.66666666666663</ele><time>2026-05-03T08:27:26.999Z</time></trkpt><trkpt lat="43.91171328244477" lon="12.206713328469991"><ele>413.0</ele><time>2026-05-03T08:27:27.999Z</time></trkpt><trkpt lat="43.91175907678665" lon="12.20693509516563"><ele>414.66666666666663</ele><time>2026-05-03T08:27:28.999Z</time></trkpt><trkpt lat="43.911783162123506" lon="12.207156639045404"><ele>416.33333333333337</ele><time>2026-05-03T08:27:29.999Z</time></trkpt><trkpt lat="43.911737966881226" lon="12.207380991174844"><ele>418.0</ele><time>2026-05-03T08:27:30.999Z</time></trkpt><trkpt lat="43.911710156253115" lon="12.207634472145473"><ele>418.0</ele><time>2026-05-03T08:27:31.998Z</time></trkpt><trkpt lat="43.911665054364185" lon="12.207887464065976"><ele>418.0</ele><time>2026-05-03T08:27:32.998Z</time></trkpt><trkpt lat="43.911651475319935" lon="12.208140194539329"><ele>418.0</ele><time>2026-05-03T08:27:33.998Z</time></trkpt><trkpt lat="43.91165834887688" lon="12.208410666999905"><ele>419.0</ele><time>2026-05-03T08:27:35Z</time></trkpt><trkpt lat="43.91160131175616" lon="12.208658561193982"><ele>420.0</ele><time>2026-05-03T08:27:36Z</time></trkpt><trkpt lat="43.91151989958479" lon="12.208887473046165"><ele>421.0</ele><time>2026-05-03T08:27:37Z</time></trkpt><trkpt lat="43.911422133703645" lon="12.209109140929922"><ele>422.33333333333337</ele><time>2026-05-03T08:27:38Z</time></trkpt><trkpt lat="43.91132494858255" lon="12.209337011593824"><ele>423.66666666666663</ele><time>2026-05-03T08:27:39Z</time></trkpt><trkpt lat="43.911190541201854" lon="12.209551311376124"><ele>425.0</ele><time>2026-05-03T08:27:40Z</time></trkpt><trkpt lat="43.911027529301975" lon="12.209766028061635"><ele>427.0</ele><time>2026-05-03T08:27:41Z</time></trkpt><trkpt lat="43.91084458885642" lon="12.209958062386573"><ele>429.0</ele><time>2026-05-03T08:27:42Z</time></trkpt><trkpt lat="43.91066850347321" lon="12.210146163111565"><ele>429.0</ele><time>2026-05-03T08:27:43Z</time></trkpt><trkpt lat="43.91050042633145" lon="12.210335525789976"><ele>429.0</ele><time>2026-05-03T08:27:44Z</time></trkpt><trkpt lat="43.91034026250913" lon="12.210510210749113"><ele>429.0</ele><time>2026-05-03T08:27:45Z</time></trkpt><trkpt lat="43.91018365768775" lon="12.210665365835055"><ele>431.33333333333337</ele><time>2026-05-03T08:27:46Z</time></trkpt><trkpt lat="43.910040194992995" lon="12.21082907421057"><ele>433.6666666666667</ele><time>2026-05-03T08:27:47Z</time></trkpt><trkpt lat="43.9099100404762" lon="12.211009477606742"><ele>436.0</ele><time>2026-05-03T08:27:48Z</time></trkpt><trkpt lat="43.909793323035075" lon="12.2112206269811"><ele>436.0</ele><time>2026-05-03T08:27:49Z</time></trkpt><trkpt lat="43.9097025776717" lon="12.211459041434821"><ele>436.0</ele><time>2026-05-03T08:27:50Z</time></trkpt><trkpt lat="43.909638759681116" lon="12.211716356974065"><ele>436.0</ele><time>2026-05-03T08:27:51Z</time></trkpt><trkpt lat="43.90957988982833" lon="12.211966248615509"><ele>436.6666666666667</ele><time>2026-05-03T08:27:52Z</time></trkpt><trkpt lat="43.90953760712504" lon="12.212212842012036"><ele>437.33333333333337</ele><time>2026-05-03T08:27:53Z</time></trkpt><trkpt lat="43.909512666408766" lon="12.212456925880574"><ele>438.0</ele><time>2026-05-03T08:27:54Z</time></trkpt><trkpt lat="43.90952778146095" lon="12.212687777029661"><ele>439.0</ele><time>2026-05-03T08:27:55Z</time></trkpt><trkpt lat="43.909552790479815" lon="12.212887106482317"><ele>440.0</ele><time>2026-05-03T08:27:56Z</time></trkpt><trkpt lat="43.909544238762585" lon="12.213043750546655"><ele>441.0</ele><time>2026-05-03T08:27:57Z</time></trkpt><trkpt lat="43.90947338822127" lon="12.213187413184967"><ele>442.0</ele><time>2026-05-03T08:27:58Z</time></trkpt><trkpt lat="43.909375317865674" lon="12.213304122286305"><ele>443.0</ele><time>2026-05-03T08:27:59Z</time></trkpt><trkpt lat="43.90925244908377" lon="12.213428535265072"><ele>444.0</ele><time>2026-05-03T08:28:00Z</time></trkpt><trkpt lat="43.90912384846279" lon="12.213531380125694"><ele>445.0</ele><time>2026-05-03T08:28:01Z</time></trkpt><trkpt lat="43.9090077470403" lon="12.213654030544195"><ele>446.0</ele><time>2026-05-03T08:28:02Z</time></trkpt><trkpt lat="43.90891652359838" lon="12.21380555164409"><ele>448.3333333333333</ele><time>2026-05-03T08:28:03Z</time></trkpt><trkpt lat="43.90886247358238" lon="12.213988075198245"><ele>450.66666666666663</ele><time>2026-05-03T08:28:04Z</time></trkpt><trkpt lat="43.9088506391214" lon="12.214201566351527"><ele>453.0</ele><time>2026-05-03T08:28:05Z</time></trkpt><trkpt lat="43.908863833176206" lon="12.21442649987576"><ele>453.0</ele><time>2026-05-03T08:28:06Z</time></trkpt><trkpt lat="43.90887575890289" lon="12.214662605365994"><ele>453.0</ele><time>2026-05-03T08:28:06.999Z</time></trkpt><trkpt lat="43.90887506900019" lon="12.214895237729179"><ele>453.0</ele><time>2026-05-03T08:28:07.999Z</time></trkpt><trkpt lat="43.90886330486977" lon="12.215128227102701"><ele>451.33333333333337</ele><time>2026-05-03T08:28:08.999Z</time></trkpt><trkpt lat="43.908851725366155" lon="12.215365176924138"><ele>449.6666666666667</ele><time>2026-05-03T08:28:09.999Z</time></trkpt><trkpt lat="43.908847019729635" lon="12.2155998891466"><ele>448.0</ele><time>2026-05-03T08:28:10.999Z</time></trkpt><trkpt lat="43.90884158815408" lon="12.21583559611756"><ele>447.33333333333337</ele><time>2026-05-03T08:28:11.999Z</time></trkpt><trkpt lat="43.9088335318236" lon="12.216070425804968"><ele>446.66666666666663</ele><time>2026-05-03T08:28:12.999Z</time></trkpt><trkpt lat="43.90882513921241" lon="12.216314183453811"><ele>446.0</ele><time>2026-05-03T08:28:13.999Z</time></trkpt><trkpt lat="43.908807545263144" lon="12.216550010165546"><ele>446.0</ele><time>2026-05-03T08:28:14.999Z</time></trkpt><trkpt lat="43.90877239740089" lon="12.216769753396795"><ele>446.0</ele><time>2026-05-03T08:28:15.999Z</time></trkpt><trkpt lat="43.90871347644808" lon="12.216961720087124"><ele>446.0</ele><time>2026-05-03T08:28:16.999Z</time></trkpt><trkpt lat="43.90864301962895" lon="12.217127072010163"><ele>446.0</ele><time>2026-05-03T08:28:17.999Z</time></trkpt><trkpt lat="43.908590216957606" lon="12.217305092320084"><ele>446.0</ele><time>2026-05-03T08:28:18.999Z</time></trkpt><trkpt lat="43.90855739982687" lon="12.217503333679216"><ele>446.0</ele><time>2026-05-03T08:28:19.999Z</time></trkpt><trkpt lat="43.908531628558194" lon="12.21771619238349"><ele>446.0</ele><time>2026-05-03T08:28:20.999Z</time></trkpt><trkpt lat="43.90850864807107" lon="12.217936616198658"><ele>447.3333333333333</ele><time>2026-05-03T08:28:21.999Z</time></trkpt><trkpt lat="43.90848390694253" lon="12.218160266203093"><ele>448.66666666666663</ele><time>2026-05-03T08:28:22.999Z</time></trkpt><trkpt lat="43.90843592136377" lon="12.218372515342324"><ele>450.0</ele><time>2026-05-03T08:28:23.999Z</time></trkpt><trkpt lat="43.908357998931116" lon="12.218576587689894"><ele>455.0</ele><time>2026-05-03T08:28:24.999Z</time></trkpt><trkpt lat="43.90826533710931" lon="12.218777561655429"><ele>460.0</ele><time>2026-05-03T08:28:25.999Z</time></trkpt><trkpt lat="43.90816849554899" lon="12.218973574505883"><ele>465.0</ele><time>2026-05-03T08:28:26.999Z</time></trkpt><trkpt lat="43.9080769406265" lon="12.219159062121683"><ele>465.0</ele><time>2026-05-03T08:28:27.999Z</time></trkpt><trkpt lat="43.908001060864194" lon="12.219332170605218"><ele>465.0</ele><time>2026-05-03T08:28:28.999Z</time></trkpt><trkpt lat="43.90794021673883" lon="12.219499869806283"><ele>465.0</ele><time>2026-05-03T08:28:29.999Z</time></trkpt><trkpt lat="43.90791123311422" lon="12.21965996331215"><ele>465.0</ele><time>2026-05-03T08:28:30.999Z</time></trkpt><trkpt lat="43.90792730554409" lon="12.219815273380775"><ele>466.5</ele><time>2026-05-03T08:28:31.999Z</time></trkpt><trkpt lat="43.90798500307424" lon="12.219973817136047"><ele>468.0</ele><time>2026-05-03T08:28:32.999Z</time></trkpt><trkpt lat="43.90806080009135" lon="12.220133760804012"><ele>469.5</ele><time>2026-05-03T08:28:33.999Z</time></trkpt><trkpt lat="43.908116888209996" lon="12.220304382051697"><ele>471.0</ele><time>2026-05-03T08:28:34.999Z</time></trkpt><trkpt lat="43.90813774782933" lon="12.220479804440675"><ele>471.0</ele><time>2026-05-03T08:28:35.999Z</time></trkpt><trkpt lat="43.90813408235206" lon="12.22062933397801"><ele>471.0</ele><time>2026-05-03T08:28:36.999Z</time></trkpt><trkpt lat="43.9081432954847" lon="12.22074782548438"><ele>471.0</ele><time>2026-05-03T08:28:37.999Z</time></trkpt><trkpt lat="43.908193593398096" lon="12.220826638072944"><ele>471.0</ele><time>2026-05-03T08:28:38.999Z</time></trkpt><trkpt lat="43.908279686370726" lon="12.220865160562468"><ele>471.0</ele><time>2026-05-03T08:28:39.999Z</time></trkpt><trkpt lat="43.90837052212494" lon="12.220871831128854"><ele>471.8333333333333</ele><time>2026-05-03T08:28:40.999Z</time></trkpt><trkpt lat="43.90845620341692" lon="12.220783462649344"><ele>472.66666666666663</ele><time>2026-05-03T08:28:41.999Z</time></trkpt><trkpt lat="43.90852212063026" lon="12.220770823210668"><ele>473.5</ele><time>2026-05-03T08:28:42.999Z</time></trkpt><trkpt lat="43.90853430476086" lon="12.220919004509184"><ele>474.3333333333333</ele><time>2026-05-03T08:28:44.999Z</time></trkpt><trkpt lat="43.90847671159372" lon="12.220989520884437"><ele>475.16666666666663</ele><time>2026-05-03T08:28:45.999Z</time></trkpt><trkpt lat="43.90839598037525" lon="12.221046580556262"><ele>476.0</ele><time>2026-05-03T08:28:46.999Z</time></trkpt><trkpt lat="43.90830940878528" lon="12.2211186487965"><ele>478.5</ele><time>2026-05-03T08:28:47.999Z</time></trkpt><trkpt lat="43.90822004627423" lon="12.221211086423692"><ele>481.0</ele><time>2026-05-03T08:28:48.999Z</time></trkpt><trkpt lat="43.90813030624463" lon="12.221313202095569"><ele>483.5</ele><time>2026-05-03T08:28:49.999Z</time></trkpt><trkpt lat="43.90804058166964" lon="12.221413752039233"><ele>486.0</ele><time>2026-05-03T08:28:50.999Z</time></trkpt><trkpt lat="43.90795431761073" lon="12.221523505286935"><ele>486.5</ele><time>2026-05-03T08:28:51.999Z</time></trkpt><trkpt lat="43.90788676437007" lon="12.221663595909568"><ele>487.0</ele><time>2026-05-03T08:28:52.999Z</time></trkpt><trkpt lat="43.907840061219154" lon="12.221830729007754"><ele>487.5</ele><time>2026-05-03T08:28:53.999Z</time></trkpt><trkpt lat="43.90779691483626" lon="12.22200825458838"><ele>488.0</ele><time>2026-05-03T08:28:54.999Z</time></trkpt><trkpt lat="43.907746375579144" lon="12.222188874248205"><ele>489.0</ele><time>2026-05-03T08:28:55.999Z</time></trkpt><trkpt lat="43.90769792736163" lon="12.222378152638747"><ele>490.0</ele><time>2026-05-03T08:28:56.999Z</time></trkpt><trkpt lat="43.90766455547785" lon="12.222567253105076"><ele>491.0</ele><time>2026-05-03T08:28:57.999Z</time></trkpt><trkpt lat="43.90768697878465" lon="12.22276147971675"><ele>492.0</ele><time>2026-05-03T08:28:58.999Z</time></trkpt><trkpt lat="43.90774767575395" lon="12.222948027871164"><ele>492.0</ele><time>2026-05-03T08:28:59.999Z</time></trkpt><trkpt lat="43.90782902195599" lon="12.223122568390238"><ele>492.0</ele><time>2026-05-03T08:29:00.999Z</time></trkpt><trkpt lat="43.90786246529339" lon="12.223281960897726"><ele>492.0</ele><time>2026-05-03T08:29:01.999Z</time></trkpt><trkpt lat="43.907887281757056" lon="12.223399391526783"><ele>492.0</ele><time>2026-05-03T08:29:02.999Z</time></trkpt><trkpt lat="43.90782337673542" lon="12.223530386942304"><ele>494.25</ele><time>2026-05-03T08:29:04.999Z</time></trkpt><trkpt lat="43.90769431307265" lon="12.223492864749543"><ele>496.5</ele><time>2026-05-03T08:29:06.999Z</time></trkpt><trkpt lat="43.907610918523304" lon="12.223414541025715"><ele>498.75</ele><time>2026-05-03T08:29:07.999Z</time></trkpt><trkpt lat="43.90750332520867" lon="12.223317234839088"><ele>501.0</ele><time>2026-05-03T08:29:08.999Z</time></trkpt><trkpt lat="43.90737846340968" lon="12.223231738827236"><ele>500.75</ele><time>2026-05-03T08:29:09.999Z</time></trkpt><trkpt lat="43.90724420468939" lon="12.223154581963351"><ele>500.5</ele><time>2026-05-03T08:29:10.999Z</time></trkpt><trkpt lat="43.90711596847493" lon="12.223098779098438"><ele>500.25</ele><time>2026-05-03T08:29:11.999Z</time></trkpt><trkpt lat="43.90700873139377" lon="12.223067491021764"><ele>500.0</ele><time>2026-05-03T08:29:12.999Z</time></trkpt><trkpt lat="43.906907641488964" lon="12.223078971341039"><ele>503.5</ele><time>2026-05-03T08:29:13.999Z</time></trkpt><trkpt lat="43.906803149632616" lon="12.223147509900844"><ele>507.0</ele><time>2026-05-03T08:29:14.999Z</time></trkpt><trkpt lat="43.9067058324174" lon="12.223262800902194"><ele>510.5</ele><time>2026-05-03T08:29:15.999Z</time></trkpt><trkpt lat="43.906621382720594" lon="12.223400497095705"><ele>514.0</ele><time>2026-05-03T08:29:16.999Z</time></trkpt><trkpt lat="43.90653864995428" lon="12.223539553003564"><ele>517.0</ele><time>2026-05-03T08:29:17.999Z</time></trkpt><trkpt lat="43.90646438865057" lon="12.223674962171165"><ele>520.0</ele><time>2026-05-03T08:29:18.999Z</time></trkpt><trkpt lat="43.90641900737259" lon="12.223819106671801"><ele>523.0</ele><time>2026-05-03T08:29:19.999Z</time></trkpt><trkpt lat="43.906409918960335" lon="12.22398171662222"><ele>526.0</ele><time>2026-05-03T08:29:20.999Z</time></trkpt><trkpt lat="43.90643595486766" lon="12.224145097951238"><ele>528.0</ele><time>2026-05-03T08:29:21.999Z</time></trkpt><trkpt lat="43.90644057580282" lon="12.224281028284427"><ele>530.0</ele><time>2026-05-03T08:29:22.999Z</time></trkpt><trkpt lat="43.90640438897583" lon="12.22437173180127"><ele>532.0</ele><time>2026-05-03T08:29:23.999Z</time></trkpt><trkpt lat="43.90634094888299" lon="12.224438766561844"><ele>534.0</ele><time>2026-05-03T08:29:24.999Z</time></trkpt><trkpt lat="43.9062655600882" lon="12.224496164407823"><ele>536.0</ele><time>2026-05-03T08:29:25.999Z</time></trkpt><trkpt lat="43.90618382036904" lon="12.224549110063212"><ele>538.0</ele><time>2026-05-03T08:29:26.999Z</time></trkpt><trkpt lat="43.90609923489356" lon="12.224603939123922"><ele>538.0</ele><time>2026-05-03T08:29:27.999Z</time></trkpt><trkpt lat="43.90601214298819" lon="12.224665876863742"><ele>538.0</ele><time>2026-05-03T08:29:28.999Z</time></trkpt><trkpt lat="43.905916165269005" lon="12.224728975697644"><ele>538.0</ele><time>2026-05-03T08:29:29.999Z</time></trkpt><trkpt lat="43.90581039816756" lon="12.224787583594036"><ele>538.0</ele><time>2026-05-03T08:29:30.999Z</time></trkpt><trkpt lat="43.90569950416777" lon="12.224857108800563"><ele>538.0</ele><time>2026-05-03T08:29:31.998Z</time></trkpt><trkpt lat="43.90559055372118" lon="12.224929747207838"><ele>540.5</ele><time>2026-05-03T08:29:32.998Z</time></trkpt><trkpt lat="43.90548139446235" lon="12.225002164881346"><ele>543.0</ele><time>2026-05-03T08:29:33.998Z</time></trkpt><trkpt lat="43.9053706052792" lon="12.225066063370935"><ele>545.5</ele><time>2026-05-03T08:29:34.998Z</time></trkpt><trkpt lat="43.905261366348995" lon="12.225124821499495"><ele>548.0</ele><time>2026-05-03T08:29:35.998Z</time></trkpt><trkpt lat="43.90515436237212" lon="12.225186968923069"><ele>548.5</ele><time>2026-05-03T08:29:36.998Z</time></trkpt><trkpt lat="43.90504838686465" lon="12.22525967811534"><ele>549.0</ele><time>2026-05-03T08:29:37.998Z</time></trkpt><trkpt lat="43.90494586831983" lon="12.225343442425531"><ele>549.5</ele><time>2026-05-03T08:29:38.998Z</time></trkpt><trkpt lat="43.9048460772539" lon="12.225412715742396"><ele>550.0</ele><time>2026-05-03T08:29:39.998Z</time></trkpt><trkpt lat="43.904745653624595" lon="12.225460467029801"><ele>550.0</ele><time>2026-05-03T08:29:41Z</time></trkpt><trkpt lat="43.90464323869238" lon="12.225490305173901"><ele>550.0</ele><time>2026-05-03T08:29:42Z</time></trkpt><trkpt lat="43.90454063063306" lon="12.225513857181959"><ele>550.0</ele><time>2026-05-03T08:29:43Z</time></trkpt><trkpt lat="43.90443776581995" lon="12.225519526990569"><ele>550.0</ele><time>2026-05-03T08:29:44Z</time></trkpt><trkpt lat="43.90433109102401" lon="12.225514014154617"><ele>550.0</ele><time>2026-05-03T08:29:45Z</time></trkpt><trkpt lat="43.90422293336224" lon="12.225517865029058"><ele>549.0</ele><time>2026-05-03T08:29:46Z</time></trkpt><trkpt lat="43.90411658214241" lon="12.225518990618209"><ele>548.0</ele><time>2026-05-03T08:29:47Z</time></trkpt><trkpt lat="43.904015486265216" lon="12.22551516426838"><ele>547.0</ele><time>2026-05-03T08:29:48Z</time></trkpt><trkpt lat="43.90390455765836" lon="12.225488923099716"><ele>546.0</ele><time>2026-05-03T08:29:49Z</time></trkpt><trkpt lat="43.90379624963977" lon="12.225444606287995"><ele>545.0</ele><time>2026-05-03T08:29:50Z</time></trkpt><trkpt lat="43.90369994401082" lon="12.225392420790792"><ele>545.0</ele><time>2026-05-03T08:29:51Z</time></trkpt><trkpt lat="43.90361525114692" lon="12.225346575300078"><ele>545.0</ele><time>2026-05-03T08:29:52Z</time></trkpt><trkpt lat="43.903532703023046" lon="12.225311397964223"><ele>545.0</ele><time>2026-05-03T08:29:53Z</time></trkpt><trkpt lat="43.9034540992948" lon="12.22528665004241"><ele>545.0</ele><time>2026-05-03T08:29:54Z</time></trkpt><trkpt lat="43.903376127256976" lon="12.225276121844518"><ele>545.0</ele><time>2026-05-03T08:29:55Z</time></trkpt><trkpt lat="43.90330523449123" lon="12.22531070033871"><ele>545.0</ele><time>2026-05-03T08:29:56Z</time></trkpt><trkpt lat="43.90325703624481" lon="12.22539818691531"><ele>546.2</ele><time>2026-05-03T08:29:57Z</time></trkpt><trkpt lat="43.903227250020976" lon="12.225517929009088"><ele>547.4</ele><time>2026-05-03T08:29:58Z</time></trkpt><trkpt lat="43.90320311643419" lon="12.225656348881817"><ele>548.6</ele><time>2026-05-03T08:29:59Z</time></trkpt><trkpt lat="43.9031729571786" lon="12.22580531855469"><ele>549.8</ele><time>2026-05-03T08:30:00Z</time></trkpt><trkpt lat="43.903143435953986" lon="12.225952903652214"><ele>551.0</ele><time>2026-05-03T08:30:01Z</time></trkpt><trkpt lat="43.9031114294563" lon="12.226099875372478"><ele>552.25</ele><time>2026-05-03T08:30:02Z</time></trkpt><trkpt lat="43.903083187889266" lon="12.226251495422702"><ele>553.5</ele><time>2026-05-03T08:30:03Z</time></trkpt><trkpt lat="43.9030794382508" lon="12.226409116957601"><ele>554.75</ele><time>2026-05-03T08:30:04Z</time></trkpt><trkpt lat="43.90310837080892" lon="12.226569670220991"><ele>556.0</ele><time>2026-05-03T08:30:05Z</time></trkpt><trkpt lat="43.90315471535993" lon="12.226737905546305"><ele>556.0</ele><time>2026-05-03T08:30:06Z</time></trkpt><trkpt lat="43.90319818141618" lon="12.226902759370017"><ele>556.0</ele><time>2026-05-03T08:30:07Z</time></trkpt><trkpt lat="43.90322923829115" lon="12.227060082222135"><ele>556.0</ele><time>2026-05-03T08:30:07.999Z</time></trkpt><trkpt lat="43.903241245002555" lon="12.227211867266313"><ele>556.0</ele><time>2026-05-03T08:30:08.999Z</time></trkpt><trkpt lat="43.90321352875599" lon="12.227348830270683"><ele>555.0</ele><time>2026-05-03T08:30:09.999Z</time></trkpt><trkpt lat="43.90315984886709" lon="12.227480432644226"><ele>554.0</ele><time>2026-05-03T08:30:10.999Z</time></trkpt><trkpt lat="43.903100403847425" lon="12.227600198296598"><ele>553.0</ele><time>2026-05-03T08:30:11.999Z</time></trkpt><trkpt lat="43.903048277607965" lon="12.227734690052637"><ele>552.0</ele><time>2026-05-03T08:30:12.999Z</time></trkpt><trkpt lat="43.90302357449097" lon="12.22788009854428"><ele>551.0</ele><time>2026-05-03T08:30:13.999Z</time></trkpt><trkpt lat="43.90302907356608" lon="12.228029641085643"><ele>550.75</ele><time>2026-05-03T08:30:14.999Z</time></trkpt><trkpt lat="43.90305212538854" lon="12.228182103239758"><ele>550.5</ele><time>2026-05-03T08:30:15.999Z</time></trkpt><trkpt lat="43.903085353277504" lon="12.228337213919428"><ele>550.25</ele><time>2026-05-03T08:30:16.999Z</time></trkpt><trkpt lat="43.90312424626077" lon="12.228489283170584"><ele>550.0</ele><time>2026-05-03T08:30:17.999Z</time></trkpt><trkpt lat="43.90316086850139" lon="12.228638356139058"><ele>550.0</ele><time>2026-05-03T08:30:18.999Z</time></trkpt><trkpt lat="43.90319477230314" lon="12.228777995771512"><ele>550.0</ele><time>2026-05-03T08:30:19.999Z</time></trkpt><trkpt lat="43.90323041258961" lon="12.228903004594578"><ele>550.0</ele><time>2026-05-03T08:30:20.999Z</time></trkpt><trkpt lat="43.90326850016002" lon="12.22901563384668"><ele>550.0</ele><time>2026-05-03T08:30:21.999Z</time></trkpt><trkpt lat="43.9032976523358" lon="12.22909783116509"><ele>550.0</ele><time>2026-05-03T08:30:22.999Z</time></trkpt><trkpt lat="43.90335394740808" lon="12.229228529462938"><ele>549.6</ele><time>2026-05-03T08:30:24.999Z</time></trkpt><trkpt lat="43.90339554061939" lon="12.22931697091091"><ele>549.2</ele><time>2026-05-03T08:30:26.999Z</time></trkpt><trkpt lat="43.9034329720394" lon="12.229434696282595"><ele>548.8</ele><time>2026-05-03T08:30:28.999Z</time></trkpt><trkpt lat="43.90346975677336" lon="12.229545401123435"><ele>548.4</ele><time>2026-05-03T08:30:29.999Z</time></trkpt><trkpt lat="43.90349578591261" lon="12.22967865969661"><ele>548.0</ele><time>2026-05-03T08:30:30.999Z</time></trkpt><trkpt lat="43.903493950774255" lon="12.22982806324249"><ele>548.1999999999999</ele><time>2026-05-03T08:30:31.999Z</time></trkpt><trkpt lat="43.90347900994205" lon="12.229965718621632"><ele>548.4</ele><time>2026-05-03T08:30:32.999Z</time></trkpt><trkpt lat="43.90346162861048" lon="12.230109914219808"><ele>548.5999999999999</ele><time>2026-05-03T08:30:33.999Z</time></trkpt><trkpt lat="43.903418407402356" lon="12.230301948849844"><ele>548.8</ele><time>2026-05-03T08:30:35.999Z</time></trkpt><trkpt lat="43.903392992640114" lon="12.23040135851229"><ele>549.0</ele><time>2026-05-03T08:30:36.999Z</time></trkpt><trkpt lat="43.9033685641848" lon="12.23048482217035"><ele>549.0</ele><time>2026-05-03T08:30:37.999Z</time></trkpt><trkpt lat="43.90331136119913" lon="12.230622486350944"><ele>549.0</ele><time>2026-05-03T08:30:39.999Z</time></trkpt><trkpt lat="43.903279770052485" lon="12.23071631693318"><ele>549.0</ele><time>2026-05-03T08:30:42.999Z</time></trkpt><trkpt lat="43.90325753103435" lon="12.230916617238416"><ele>549.0</ele><time>2026-05-03T08:31:42.998Z</time></trkpt><trkpt lat="43.9032420880021" lon="12.231029293333789"><ele>549.0</ele><time>2026-05-03T08:31:43.998Z</time></trkpt><trkpt lat="43.90323165419089" lon="12.231150031612428"><ele>549.6</ele><time>2026-05-03T08:31:44.998Z</time></trkpt><trkpt lat="43.903224615542605" lon="12.231278849529925"><ele>550.2</ele><time>2026-05-03T08:31:45.998Z</time></trkpt><trkpt lat="43.90322449776822" lon="12.231420872664142"><ele>550.8000000000001</ele><time>2026-05-03T08:31:47Z</time></trkpt><trkpt lat="43.90323768041492" lon="12.231561668142978"><ele>551.4</ele><time>2026-05-03T08:31:48Z</time></trkpt><trkpt lat="43.90327331113032" lon="12.23170584658496"><ele>552.0</ele><time>2026-05-03T08:31:49Z</time></trkpt><trkpt lat="43.90332308142269" lon="12.231844651413965"><ele>552.8000000000001</ele><time>2026-05-03T08:31:50Z</time></trkpt><trkpt lat="43.90337013771638" lon="12.23198317631457"><ele>553.6</ele><time>2026-05-03T08:31:51Z</time></trkpt><trkpt lat="43.903395602272646" lon="12.232128778549729"><ele>554.4000000000001</ele><time>2026-05-03T08:31:52Z</time></trkpt><trkpt lat="43.903391705702916" lon="12.232284225825513"><ele>555.2</ele><time>2026-05-03T08:31:53Z</time></trkpt><trkpt lat="43.90336486967793" lon="12.232442245534024"><ele>556.0</ele><time>2026-05-03T08:31:54Z</time></trkpt><trkpt lat="43.90332709607424" lon="12.232601369075232"><ele>557.25</ele><time>2026-05-03T08:31:55Z</time></trkpt><trkpt lat="43.903304262030595" lon="12.232767575683111"><ele>558.5</ele><time>2026-05-03T08:31:56Z</time></trkpt><trkpt lat="43.903303079072906" lon="12.232942956224761"><ele>559.75</ele><time>2026-05-03T08:31:57Z</time></trkpt><trkpt lat="43.903319451917824" lon="12.233115873828922"><ele>561.0</ele><time>2026-05-03T08:31:58Z</time></trkpt><trkpt lat="43.903340107853005" lon="12.233290229361199"><ele>562.0</ele><time>2026-05-03T08:31:59Z</time></trkpt><trkpt lat="43.90335658525231" lon="12.233469671704546"><ele>563.0</ele><time>2026-05-03T08:32:00Z</time></trkpt><trkpt lat="43.90337651812221" lon="12.233654794126558"><ele>564.0</ele><time>2026-05-03T08:32:01Z</time></trkpt><trkpt lat="43.90339303424041" lon="12.233848577898959"><ele>565.0</ele><time>2026-05-03T08:32:02Z</time></trkpt><trkpt lat="43.9034093451454" lon="12.234048642365192"><ele>567.0</ele><time>2026-05-03T08:32:03Z</time></trkpt><trkpt lat="43.90342658208672" lon="12.234252384646343"><ele>569.0</ele><time>2026-05-03T08:32:04Z</time></trkpt><trkpt lat="43.90344330965934" lon="12.234455222438395"><ele>571.0</ele><time>2026-05-03T08:32:05Z</time></trkpt><trkpt lat="43.90345988117338" lon="12.234659652578701"><ele>573.0</ele><time>2026-05-03T08:32:05.999Z</time></trkpt><trkpt lat="43.903475081526906" lon="12.234864149930933"><ele>575.3333333333334</ele><time>2026-05-03T08:32:06.999Z</time></trkpt><trkpt lat="43.90349256454319" lon="12.235064888882151"><ele>577.6666666666667</ele><time>2026-05-03T08:32:07.999Z</time></trkpt><trkpt lat="43.90351259737506" lon="12.235272364973918"><ele>580.0</ele><time>2026-05-03T08:32:08.999Z</time></trkpt><trkpt lat="43.90353048995064" lon="12.23548570862323"><ele>582.3333333333334</ele><time>2026-05-03T08:32:09.999Z</time></trkpt><trkpt lat="43.903547903883634" lon="12.235704889136745"><ele>584.6666666666666</ele><time>2026-05-03T08:32:10.999Z</time></trkpt><trkpt lat="43.90356537904997" lon="12.235921599864579"><ele>587.0</ele><time>2026-05-03T08:32:11.999Z</time></trkpt><trkpt lat="43.90358629578014" lon="12.236132607487296"><ele>587.0</ele><time>2026-05-03T08:32:12.999Z</time></trkpt><trkpt lat="43.903605097364185" lon="12.236338472480407"><ele>587.0</ele><time>2026-05-03T08:32:13.999Z</time></trkpt><trkpt lat="43.903622800555006" lon="12.236534393652594"><ele>587.0</ele><time>2026-05-03T08:32:14.999Z</time></trkpt><trkpt lat="43.903631188317796" lon="12.236724490667042"><ele>587.0</ele><time>2026-05-03T08:32:15.999Z</time></trkpt><trkpt lat="43.90362101758767" lon="12.236905117912297"><ele>588.8000000000001</ele><time>2026-05-03T08:32:16.999Z</time></trkpt><trkpt lat="43.90359112395704" lon="12.237054052241666"><ele>590.6</ele><time>2026-05-03T08:32:17.999Z</time></trkpt><trkpt lat="43.903533208062456" lon="12.237163032623648"><ele>592.4000000000001</ele><time>2026-05-03T08:32:18.999Z</time></trkpt><trkpt lat="43.90344094767939" lon="12.237227864228323"><ele>594.2</ele><time>2026-05-03T08:32:19.999Z</time></trkpt><trkpt lat="43.90335382951367" lon="12.237317627624702"><ele>596.0</ele><time>2026-05-03T08:32:20.999Z</time></trkpt><trkpt lat="43.903310243181735" lon="12.237465897110324"><ele>596.0</ele><time>2026-05-03T08:32:21.999Z</time></trkpt><trkpt lat="43.90331661297655" lon="12.237648791781513"><ele>596.0</ele><time>2026-05-03T08:32:22.999Z</time></trkpt><trkpt lat="43.90335210095529" lon="12.237823106270502"><ele>596.0</ele><time>2026-05-03T08:32:23.999Z</time></trkpt><trkpt lat="43.90340632711543" lon="12.237988185975386"><ele>596.0</ele><time>2026-05-03T08:32:24.999Z</time></trkpt><trkpt lat="43.903465719169766" lon="12.238155217258702"><ele>601.25</ele><time>2026-05-03T08:32:25.999Z</time></trkpt><trkpt lat="43.90353287521321" lon="12.23832592306094"><ele>606.5</ele><time>2026-05-03T08:32:26.999Z</time></trkpt><trkpt lat="43.90360297632465" lon="12.238500438444735"><ele>611.75</ele><time>2026-05-03T08:32:27.999Z</time></trkpt><trkpt lat="43.90366929139127" lon="12.238672550607705"><ele>617.0</ele><time>2026-05-03T08:32:28.999Z</time></trkpt><trkpt lat="43.90373086538141" lon="12.238838351641565"><ele>616.0</ele><time>2026-05-03T08:32:29.999Z</time></trkpt><trkpt lat="43.90379476635737" lon="12.239000722355488"><ele>615.0</ele><time>2026-05-03T08:32:30.999Z</time></trkpt><trkpt lat="43.90385338829821" lon="12.239158087984505"><ele>614.0</ele><time>2026-05-03T08:32:31.999Z</time></trkpt><trkpt lat="43.90390855709982" lon="12.23931073011825"><ele>613.0</ele><time>2026-05-03T08:32:32.999Z</time></trkpt><trkpt lat="43.90396713304119" lon="12.239460036909913"><ele>613.0</ele><time>2026-05-03T08:32:33.999Z</time></trkpt><trkpt lat="43.904025501286036" lon="12.239603175579493"><ele>613.0</ele><time>2026-05-03T08:32:34.999Z</time></trkpt><trkpt lat="43.90408136921732" lon="12.239752161700675"><ele>613.0</ele><time>2026-05-03T08:32:35.999Z</time></trkpt><trkpt lat="43.90413244626937" lon="12.239901801616105"><ele>613.0</ele><time>2026-05-03T08:32:36.999Z</time></trkpt><trkpt lat="43.904188306454884" lon="12.240050088912076"><ele>612.75</ele><time>2026-05-03T08:32:37.999Z</time></trkpt><trkpt lat="43.90424119500046" lon="12.240197998388616"><ele>612.5</ele><time>2026-05-03T08:32:38.999Z</time></trkpt><trkpt lat="43.90429957543886" lon="12.240339245215536"><ele>612.25</ele><time>2026-05-03T08:32:39.999Z</time></trkpt><trkpt lat="43.90435446666046" lon="12.24048252001417"><ele>612.0</ele><time>2026-05-03T08:32:40.999Z</time></trkpt><trkpt lat="43.904406563531744" lon="12.240623089189036"><ele>616.25</ele><time>2026-05-03T08:32:41.999Z</time></trkpt><trkpt lat="43.904456829732574" lon="12.24076582557829"><ele>620.5</ele><time>2026-05-03T08:32:42.999Z</time></trkpt><trkpt lat="43.90449667276773" lon="12.240915600202175"><ele>624.75</ele><time>2026-05-03T08:32:43.999Z</time></trkpt><trkpt lat="43.904507960660204" lon="12.241076397792671"><ele>629.0</ele><time>2026-05-03T08:32:44.999Z</time></trkpt><trkpt lat="43.904478332330406" lon="12.241242279459989"><ele>629.0</ele><time>2026-05-03T08:32:45.999Z</time></trkpt><trkpt lat="43.9044712425567" lon="12.24141606668472"><ele>629.0</ele><time>2026-05-03T08:32:46.999Z</time></trkpt><trkpt lat="43.90444863959294" lon="12.241589902456518"><ele>629.0</ele><time>2026-05-03T08:32:47.999Z</time></trkpt><trkpt lat="43.9044274533595" lon="12.241759118841735"><ele>629.0</ele><time>2026-05-03T08:32:48.999Z</time></trkpt><trkpt lat="43.90438134785147" lon="12.241920436488472"><ele>629.0</ele><time>2026-05-03T08:32:49.999Z</time></trkpt><trkpt lat="43.90428414365363" lon="12.242049288055986"><ele>629.0</ele><time>2026-05-03T08:32:50.999Z</time></trkpt><trkpt lat="43.904168197030494" lon="12.242182829637535"><ele>629.0</ele><time>2026-05-03T08:32:51.999Z</time></trkpt><trkpt lat="43.90407239514978" lon="12.242349578406069"><ele>629.0</ele><time>2026-05-03T08:32:52.999Z</time></trkpt><trkpt lat="43.90400009330475" lon="12.242560418855279"><ele>629.0</ele><time>2026-05-03T08:32:53.999Z</time></trkpt><trkpt lat="43.90392188530176" lon="12.24277082488134"><ele>629.0</ele><time>2026-05-03T08:32:54.999Z</time></trkpt><trkpt lat="43.90382522650402" lon="12.242965677433018"><ele>629.0</ele><time>2026-05-03T08:32:55.999Z</time></trkpt><trkpt lat="43.903733214144495" lon="12.243161342057153"><ele>630.3333333333333</ele><time>2026-05-03T08:32:56.999Z</time></trkpt><trkpt lat="43.903642916602514" lon="12.243354857559684"><ele>631.6666666666666</ele><time>2026-05-03T08:32:57.999Z</time></trkpt><trkpt lat="43.903540590602596" lon="12.243517591237461"><ele>633.0</ele><time>2026-05-03T08:32:58.999Z</time></trkpt><trkpt lat="43.903399658945226" lon="12.24359342233613"><ele>633.0</ele><time>2026-05-03T08:32:59.999Z</time></trkpt><trkpt lat="43.90325741881035" lon="12.243703413949028"><ele>633.0</ele><time>2026-05-03T08:33:00.999Z</time></trkpt><trkpt lat="43.903073500077106" lon="12.243788976612155"><ele>633.0</ele><time>2026-05-03T08:33:01.999Z</time></trkpt><trkpt lat="43.90287921259231" lon="12.243919051500582"><ele>637.6666666666666</ele><time>2026-05-03T08:33:02.999Z</time></trkpt><trkpt lat="43.90269157471145" lon="12.244046014503297"><ele>642.3333333333333</ele><time>2026-05-03T08:33:03.999Z</time></trkpt><trkpt lat="43.902512254466615" lon="12.244156095018624"><ele>647.0</ele><time>2026-05-03T08:33:04.999Z</time></trkpt><trkpt lat="43.90234287615872" lon="12.244251500537018"><ele>647.0</ele><time>2026-05-03T08:33:05.999Z</time></trkpt><trkpt lat="43.90220027960382" lon="12.244328643206977"><ele>647.0</ele><time>2026-05-03T08:33:06.999Z</time></trkpt><trkpt lat="43.902067148955005" lon="12.24437055958007"><ele>647.0</ele><time>2026-05-03T08:33:07.999Z</time></trkpt><trkpt lat="43.9019527305492" lon="12.24441343156625"><ele>647.0</ele><time>2026-05-03T08:33:08.999Z</time></trkpt><trkpt lat="43.90185213224933" lon="12.24446311017313"><ele>647.0</ele><time>2026-05-03T08:33:09.999Z</time></trkpt><trkpt lat="43.90177019088212" lon="12.244554009387075"><ele>647.0</ele><time>2026-05-03T08:33:10.999Z</time></trkpt><trkpt lat="43.90171655970773" lon="12.244697807914232"><ele>647.0</ele><time>2026-05-03T08:33:11.999Z</time></trkpt><trkpt lat="43.9016783305527" lon="12.244871174229562"><ele>647.0</ele><time>2026-05-03T08:33:12.999Z</time></trkpt><trkpt lat="43.90161354868159" lon="12.245031778772676"><ele>649.5</ele><time>2026-05-03T08:33:13.999Z</time></trkpt><trkpt lat="43.901515187518704" lon="12.245172747960105"><ele>652.0</ele><time>2026-05-03T08:33:14.999Z</time></trkpt><trkpt lat="43.901411668633465" lon="12.245298434530735"><ele>654.5</ele><time>2026-05-03T08:33:15.999Z</time></trkpt><trkpt lat="43.901315886554514" lon="12.245436981788282"><ele>657.0</ele><time>2026-05-03T08:33:16.999Z</time></trkpt><trkpt lat="43.90122937840829" lon="12.245591653605118"><ele>657.6</ele><time>2026-05-03T08:33:17.999Z</time></trkpt><trkpt lat="43.90115081923002" lon="12.245745075022844"><ele>658.2</ele><time>2026-05-03T08:33:18.999Z</time></trkpt><trkpt lat="43.90109381970467" lon="12.2458699704105"><ele>658.8</ele><time>2026-05-03T08:33:19.999Z</time></trkpt><trkpt lat="43.901051394975866" lon="12.245971545317774"><ele>659.4</ele><time>2026-05-03T08:33:20.999Z</time></trkpt><trkpt lat="43.90101427789759" lon="12.246043119528569"><ele>660.0</ele><time>2026-05-03T08:33:21.999Z</time></trkpt><trkpt lat="43.900930760487256" lon="12.246163645673693"><ele>658.4</ele><time>2026-05-03T08:33:23.999Z</time></trkpt><trkpt lat="43.90086668230139" lon="12.246222251479542"><ele>656.8</ele><time>2026-05-03T08:33:24.999Z</time></trkpt><trkpt lat="43.90079375825264" lon="12.246282137893932"><ele>655.2</ele><time>2026-05-03T08:33:25.999Z</time></trkpt><trkpt lat="43.900708757840064" lon="12.246342176478644"><ele>653.6</ele><time>2026-05-03T08:33:26.999Z</time></trkpt><trkpt lat="43.90061110455563" lon="12.246395144473876"><ele>652.0</ele><time>2026-05-03T08:33:27.999Z</time></trkpt><trkpt lat="43.900503369059095" lon="12.246437891562833"><ele>652.0</ele><time>2026-05-03T08:33:28.999Z</time></trkpt><trkpt lat="43.90038315120739" lon="12.246470522038717"><ele>652.0</ele><time>2026-05-03T08:33:29.999Z</time></trkpt><trkpt lat="43.90025069824235" lon="12.246483972556238"><ele>652.0</ele><time>2026-05-03T08:33:30.999Z</time></trkpt><trkpt lat="43.900110735557696" lon="12.246484141954738"><ele>652.0</ele><time>2026-05-03T08:33:31.999Z</time></trkpt><trkpt lat="43.89996900759817" lon="12.246464677486241"><ele>650.25</ele><time>2026-05-03T08:33:32.998Z</time></trkpt><trkpt lat="43.89983329188641" lon="12.246429372272692"><ele>648.5</ele><time>2026-05-03T08:33:33.998Z</time></trkpt><trkpt lat="43.8996998901722" lon="12.246395165433908"><ele>646.75</ele><time>2026-05-03T08:33:34.998Z</time></trkpt><trkpt lat="43.8995643912891" lon="12.246382742061618"><ele>645.0</ele><time>2026-05-03T08:33:35.998Z</time></trkpt><trkpt lat="43.89942951368597" lon="12.246409859706642"><ele>646.75</ele><time>2026-05-03T08:33:36.998Z</time></trkpt><trkpt lat="43.899297648706536" lon="12.246467143313078"><ele>648.5</ele><time>2026-05-03T08:33:37.998Z</time></trkpt><trkpt lat="43.89916715721804" lon="12.246537147571301"><ele>650.25</ele><time>2026-05-03T08:33:38.998Z</time></trkpt><trkpt lat="43.89903775049963" lon="12.24659918567482"><ele>652.0</ele><time>2026-05-03T08:33:39.998Z</time></trkpt><trkpt lat="43.89891065840738" lon="12.246655784217978"><ele>652.8</ele><time>2026-05-03T08:33:40.998Z</time></trkpt><trkpt lat="43.89879405223156" lon="12.246700117355056"><ele>653.6</ele><time>2026-05-03T08:33:41.998Z</time></trkpt><trkpt lat="43.898687692661966" lon="12.246733656187185"><ele>654.4</ele><time>2026-05-03T08:33:42.998Z</time></trkpt><trkpt lat="43.89858923347273" lon="12.246768329036183"><ele>655.1999999999999</ele><time>2026-05-03T08:33:43.998Z</time></trkpt><trkpt lat="43.89849889878195" lon="12.246803390630554"><ele>656.0</ele><time>2026-05-03T08:33:44.998Z</time></trkpt><trkpt lat="43.898400862660374" lon="12.246844715303352"><ele>656.0</ele><time>2026-05-03T08:33:45.998Z</time></trkpt><trkpt lat="43.89830126880582" lon="12.246881356512482"><ele>656.0</ele><time>2026-05-03T08:33:46.998Z</time></trkpt><trkpt lat="43.89820915244763" lon="12.246904942163997"><ele>656.0</ele><time>2026-05-03T08:33:47.998Z</time></trkpt><trkpt lat="43.89810257640412" lon="12.246930501837344"><ele>656.0</ele><time>2026-05-03T08:33:48.998Z</time></trkpt><trkpt lat="43.898033174386526" lon="12.246952640189606"><ele>656.0</ele><time>2026-05-03T08:33:49.998Z</time></trkpt><trkpt lat="43.8979771593866" lon="12.247018150837812"><ele>656.0</ele><time>2026-05-03T08:33:53Z</time></trkpt><trkpt lat="43.89805203349954" lon="12.247169294136766"><ele>656.0</ele><time>2026-05-03T08:33:55Z</time></trkpt><trkpt lat="43.89811352895275" lon="12.247215633853909"><ele>656.0</ele><time>2026-05-03T08:33:56Z</time></trkpt><trkpt lat="43.898169019892805" lon="12.247276923292766"><ele>656.0</ele><time>2026-05-03T08:33:57Z</time></trkpt><trkpt lat="43.89822924359162" lon="12.247339014930867"><ele>656.0</ele><time>2026-05-03T08:33:58Z</time></trkpt><trkpt lat="43.898295579352535" lon="12.247396270999594"><ele>656.0</ele><time>2026-05-03T08:33:59Z</time></trkpt><trkpt lat="43.89837523941371" lon="12.247438096547873"><ele>656.0</ele><time>2026-05-03T08:34:00Z</time></trkpt><trkpt lat="43.898461381637965" lon="12.247456424447968"><ele>655.5</ele><time>2026-05-03T08:34:01Z</time></trkpt><trkpt lat="43.898550926230435" lon="12.24743984831044"><ele>655.0</ele><time>2026-05-03T08:34:02Z</time></trkpt><trkpt lat="43.89863166845826" lon="12.247435724649801"><ele>654.5</ele><time>2026-05-03T08:34:03Z</time></trkpt><trkpt lat="43.898709518250016" lon="12.247450301108767"><ele>654.0</ele><time>2026-05-03T08:34:04Z</time></trkpt><trkpt lat="43.898783403632294" lon="12.247498343838178"><ele>653.5</ele><time>2026-05-03T08:34:05Z</time></trkpt><trkpt lat="43.89883798886375" lon="12.247586458539738"><ele>653.0</ele><time>2026-05-03T08:34:06Z</time></trkpt><trkpt lat="43.8988600526221" lon="12.247706772702003"><ele>653.0</ele><time>2026-05-03T08:34:07Z</time></trkpt><trkpt lat="43.89884537598748" lon="12.247834080551518"><ele>653.0</ele><time>2026-05-03T08:34:08Z</time></trkpt><trkpt lat="43.89881534407861" lon="12.247965239943673"><ele>653.0</ele><time>2026-05-03T08:34:09Z</time></trkpt><trkpt lat="43.89872864607696" lon="12.248060677168553"><ele>653.0</ele><time>2026-05-03T08:34:09.999Z</time></trkpt><trkpt lat="43.89862446262809" lon="12.248133101210401"><ele>653.0</ele><time>2026-05-03T08:34:10.999Z</time></trkpt><trkpt lat="43.898470884204386" lon="12.248096515347605"><ele>654.0</ele><time>2026-05-03T08:34:11.999Z</time></trkpt><trkpt lat="43.898358204631585" lon="12.248045328951669"><ele>655.0</ele><time>2026-05-03T08:34:12.999Z</time></trkpt><trkpt lat="43.8982600787662" lon="12.248049353772775"><ele>656.0</ele><time>2026-05-03T08:34:13.999Z</time></trkpt><trkpt lat="43.89817071421595" lon="12.248141327488181"><ele>657.0</ele><time>2026-05-03T08:34:14.999Z</time></trkpt><trkpt lat="43.89810975227913" lon="12.24828727628731"><ele>654.75</ele><time>2026-05-03T08:34:15.999Z</time></trkpt><trkpt lat="43.89809493075116" lon="12.248462115104012"><ele>652.5</ele><time>2026-05-03T08:34:16.999Z</time></trkpt><trkpt lat="43.89813038744942" lon="12.248631553555063"><ele>650.25</ele><time>2026-05-03T08:34:17.999Z</time></trkpt><trkpt lat="43.8982085433438" lon="12.248757853943296"><ele>648.0</ele><time>2026-05-03T08:34:18.999Z</time></trkpt><trkpt lat="43.8982971890557" lon="12.248851390683916"><ele>646.4</ele><time>2026-05-03T08:34:19.999Z</time></trkpt><trkpt lat="43.898422197792044" lon="12.248840045608116"><ele>644.8</ele><time>2026-05-03T08:34:20.999Z</time></trkpt><trkpt lat="43.89852913686897" lon="12.24882715429608"><ele>643.2</ele><time>2026-05-03T08:34:21.999Z</time></trkpt><trkpt lat="43.89860991323274" lon="12.248712239092487"><ele>641.6</ele><time>2026-05-03T08:34:22.999Z</time></trkpt><trkpt lat="43.89866489652692" lon="12.24860611404836"><ele>640.0</ele><time>2026-05-03T08:34:23.999Z</time></trkpt><trkpt lat="43.898727638387065" lon="12.248533241905198"><ele>640.0</ele><time>2026-05-03T08:34:24.999Z</time></trkpt><trkpt lat="43.89878882147561" lon="12.248473594119089"><ele>640.0</ele><time>2026-05-03T08:34:25.999Z</time></trkpt><trkpt lat="43.89886368322983" lon="12.248460505164878"><ele>640.0</ele><time>2026-05-03T08:34:26.999Z</time></trkpt><trkpt lat="43.89895309354014" lon="12.248470736656468"><ele>640.0</ele><time>2026-05-03T08:34:27.999Z</time></trkpt><trkpt lat="43.899040495893395" lon="12.248499955443005"><ele>640.0</ele><time>2026-05-03T08:34:28.999Z</time></trkpt><trkpt lat="43.89909710640036" lon="12.248616169173266"><ele>640.0</ele><time>2026-05-03T08:34:29.999Z</time></trkpt><trkpt lat="43.899144604285574" lon="12.248728110739124"><ele>640.0</ele><time>2026-05-03T08:34:30.999Z</time></trkpt><trkpt lat="43.8991399816951" lon="12.248863680580811"><ele>640.0</ele><time>2026-05-03T08:34:31.999Z</time></trkpt><trkpt lat="43.89909122422158" lon="12.248986397531462"><ele>640.0</ele><time>2026-05-03T08:34:32.999Z</time></trkpt><trkpt lat="43.899003294235875" lon="12.249079984442487"><ele>640.0</ele><time>2026-05-03T08:34:33.999Z</time></trkpt><trkpt lat="43.89889444303437" lon="12.249140461865428"><ele>640.0</ele><time>2026-05-03T08:34:34.999Z</time></trkpt><trkpt lat="43.89876835016368" lon="12.24915053069102"><ele>639.4</ele><time>2026-05-03T08:34:35.999Z</time></trkpt><trkpt lat="43.89864360266492" lon="12.24912791871542"><ele>638.8</ele><time>2026-05-03T08:34:36.999Z</time></trkpt><trkpt lat="43.89852400692057" lon="12.249096439736828"><ele>638.2</ele><time>2026-05-03T08:34:37.999Z</time></trkpt><trkpt lat="43.8984215513044" lon="12.249085625146977"><ele>637.6</ele><time>2026-05-03T08:34:38.999Z</time></trkpt><trkpt lat="43.89832866298218" lon="12.24911219799734"><ele>637.0</ele><time>2026-05-03T08:34:39.999Z</time></trkpt><trkpt lat="43.89824630509062" lon="12.249189192157637"><ele>637.0</ele><time>2026-05-03T08:34:40.999Z</time></trkpt><trkpt lat="43.898178016680475" lon="12.249303216840572"><ele>637.0</ele><time>2026-05-03T08:34:41.999Z</time></trkpt><trkpt lat="43.898152872017704" lon="12.249463294225693"><ele>637.0</ele><time>2026-05-03T08:34:42.999Z</time></trkpt><trkpt lat="43.89816368996118" lon="12.249630666155557"><ele>637.0</ele><time>2026-05-03T08:34:43.999Z</time></trkpt><trkpt lat="43.89822157591552" lon="12.249778929982902"><ele>634.5</ele><time>2026-05-03T08:34:44.999Z</time></trkpt><trkpt lat="43.898318689115115" lon="12.24988636992403"><ele>632.0</ele><time>2026-05-03T08:34:45.999Z</time></trkpt><trkpt lat="43.89843421700421" lon="12.249934110536104"><ele>629.5</ele><time>2026-05-03T08:34:46.999Z</time></trkpt><trkpt lat="43.898563878070874" lon="12.24990626110006"><ele>627.0</ele><time>2026-05-03T08:34:47.999Z</time></trkpt><trkpt lat="43.89869193108299" lon="12.249842004785286"><ele>628.6666666666666</ele><time>2026-05-03T08:34:48.999Z</time></trkpt><trkpt lat="43.898835197867506" lon="12.249799932797982"><ele>630.3333333333333</ele><time>2026-05-03T08:34:49.999Z</time></trkpt><trkpt lat="43.89898416139733" lon="12.249745022706769"><ele>632.0</ele><time>2026-05-03T08:34:50.999Z</time></trkpt><trkpt lat="43.89913215261275" lon="12.249689986609456"><ele>629.3333333333333</ele><time>2026-05-03T08:34:51.999Z</time></trkpt><trkpt lat="43.89927367561355" lon="12.24963735594468"><ele>626.6666666666666</ele><time>2026-05-03T08:34:52.999Z</time></trkpt><trkpt lat="43.89942516491967" lon="12.24958101894027"><ele>624.0</ele><time>2026-05-03T08:34:53.999Z</time></trkpt><trkpt lat="43.89960309222761" lon="12.249516545828708"><ele>624.0</ele><time>2026-05-03T08:34:54.999Z</time></trkpt><trkpt lat="43.89977732334596" lon="12.249453836101129"><ele>624.0</ele><time>2026-05-03T08:34:55.999Z</time></trkpt><trkpt lat="43.89992169462714" lon="12.24940463187237"><ele>624.0</ele><time>2026-05-03T08:34:56.999Z</time></trkpt><trkpt lat="43.90004003774151" lon="12.249400697664887"><ele>624.0</ele><time>2026-05-03T08:34:57.999Z</time></trkpt><trkpt lat="43.900153462810316" lon="12.24944018365401"><ele>623.25</ele><time>2026-05-03T08:34:58.999Z</time></trkpt><trkpt lat="43.90024903056954" lon="12.249540902015095"><ele>622.5</ele><time>2026-05-03T08:34:59.999Z</time></trkpt><trkpt lat="43.900323973133304" lon="12.24967546422915"><ele>621.75</ele><time>2026-05-03T08:35:00.999Z</time></trkpt><trkpt lat="43.900358243446824" lon="12.249844852827904"><ele>621.0</ele><time>2026-05-03T08:35:01.999Z</time></trkpt><trkpt lat="43.900347716421294" lon="12.250036400730316"><ele>618.5</ele><time>2026-05-03T08:35:02.999Z</time></trkpt><trkpt lat="43.90029036096921" lon="12.250210342104067"><ele>616.0</ele><time>2026-05-03T08:35:03.999Z</time></trkpt><trkpt lat="43.90017030237186" lon="12.250322410495562"><ele>613.5</ele><time>2026-05-03T08:35:04.999Z</time></trkpt><trkpt lat="43.90003881484724" lon="12.250455487281483"><ele>611.0</ele><time>2026-05-03T08:35:05.999Z</time></trkpt><trkpt lat="43.899864594214336" lon="12.250616726272598"><ele>605.0</ele><time>2026-05-03T08:35:06.999Z</time></trkpt><trkpt lat="43.89965225306741" lon="12.250796398179249"><ele>599.0</ele><time>2026-05-03T08:35:07.999Z</time></trkpt><trkpt lat="43.89943861119761" lon="12.25098994107845"><ele>601.3333333333333</ele><time>2026-05-03T08:35:08.999Z</time></trkpt><trkpt lat="43.89924641465315" lon="12.251164948563886"><ele>603.6666666666666</ele><time>2026-05-03T08:35:09.999Z</time></trkpt><trkpt lat="43.899099670101016" lon="12.251289941018683"><ele>606.0</ele><time>2026-05-03T08:35:10.999Z</time></trkpt><trkpt lat="43.89899186571369" lon="12.251389989211235"><ele>603.8</ele><time>2026-05-03T08:35:11.999Z</time></trkpt><trkpt lat="43.89889700966535" lon="12.251484449221373"><ele>601.6</ele><time>2026-05-03T08:35:12.999Z</time></trkpt><trkpt lat="43.898819141453394" lon="12.251586021650418"><ele>599.4</ele><time>2026-05-03T08:35:13.999Z</time></trkpt><trkpt lat="43.898785233608535" lon="12.251728171592106"><ele>597.2</ele><time>2026-05-03T08:35:14.999Z</time></trkpt><trkpt lat="43.89879668495339" lon="12.251883899488078"><ele>595.0</ele><time>2026-05-03T08:35:15.999Z</time></trkpt><trkpt lat="43.89886509830887" lon="12.252027951797157"><ele>595.0</ele><time>2026-05-03T08:35:16.999Z</time></trkpt><trkpt lat="43.898972424105615" lon="12.252130618932354"><ele>595.0</ele><time>2026-05-03T08:35:17.999Z</time></trkpt><trkpt lat="43.89910741210491" lon="12.252177025004077"><ele>595.0</ele><time>2026-05-03T08:35:18.999Z</time></trkpt><trkpt lat="43.899264444743295" lon="12.252214971093593"><ele>595.0</ele><time>2026-05-03T08:35:19.999Z</time></trkpt><trkpt lat="43.89944591147984" lon="12.252287565290974"><ele>590.0</ele><time>2026-05-03T08:35:20.999Z</time></trkpt><trkpt lat="43.899631920706" lon="12.252361227943307"><ele>585.0</ele><time>2026-05-03T08:35:21.999Z</time></trkpt><trkpt lat="43.89980948526587" lon="12.252450521357947"><ele>580.0</ele><time>2026-05-03T08:35:22.999Z</time></trkpt><trkpt lat="43.89996963259649" lon="12.252558898938311"><ele>581.0</ele><time>2026-05-03T08:35:23.999Z</time></trkpt><trkpt lat="43.900127304782515" lon="12.252633212662941"><ele>582.0</ele><time>2026-05-03T08:35:24.999Z</time></trkpt><trkpt lat="43.900275318568156" lon="12.252686703405857"><ele>583.0</ele><time>2026-05-03T08:35:25.999Z</time></trkpt><trkpt lat="43.90042813655965" lon="12.252702475645892"><ele>583.0</ele><time>2026-05-03T08:35:26.999Z</time></trkpt><trkpt lat="43.90056765569183" lon="12.252674722578643"><ele>583.0</ele><time>2026-05-03T08:35:27.999Z</time></trkpt><trkpt lat="43.90067866986704" lon="12.252683400307388"><ele>583.0</ele><time>2026-05-03T08:35:28.999Z</time></trkpt><trkpt lat="43.900768777370324" lon="12.252741706855058"><ele>583.0</ele><time>2026-05-03T08:35:29.999Z</time></trkpt><trkpt lat="43.900855389690705" lon="12.252834763487874"><ele>583.0</ele><time>2026-05-03T08:35:30.999Z</time></trkpt><trkpt lat="43.90088847000639" lon="12.253027777882334"><ele>583.0</ele><time>2026-05-03T08:35:31.999Z</time></trkpt><trkpt lat="43.900936206905094" lon="12.253217089398644"><ele>583.0</ele><time>2026-05-03T08:35:32.999Z</time></trkpt><trkpt lat="43.90097606931444" lon="12.253382755887273"><ele>583.0</ele><time>2026-05-03T08:35:33.999Z</time></trkpt><trkpt lat="43.900947508477465" lon="12.253524218897947"><ele>582.0</ele><time>2026-05-03T08:35:34.999Z</time></trkpt><trkpt lat="43.90088171650189" lon="12.25364164330916"><ele>581.0</ele><time>2026-05-03T08:35:35.999Z</time></trkpt><trkpt lat="43.90078796526228" lon="12.253730552745562"><ele>580.0</ele><time>2026-05-03T08:35:36.998Z</time></trkpt><trkpt lat="43.900658336912564" lon="12.25375976987005"><ele>579.0</ele><time>2026-05-03T08:35:37.998Z</time></trkpt><trkpt lat="43.90051859399604" lon="12.25374832540083"><ele>579.0</ele><time>2026-05-03T08:35:38.999Z</time></trkpt><trkpt lat="43.90037304982162" lon="12.253694760447862"><ele>579.0</ele><time>2026-05-03T08:35:39.999Z</time></trkpt><trkpt lat="43.900223447227866" lon="12.253691633331421"><ele>579.0</ele><time>2026-05-03T08:35:40.999Z</time></trkpt><trkpt lat="43.90006747425546" lon="12.253760627151104"><ele>577.6666666666666</ele><time>2026-05-03T08:35:41.999Z</time></trkpt><trkpt lat="43.899908438680285" lon="12.253900896807107"><ele>576.3333333333333</ele><time>2026-05-03T08:35:42.999Z</time></trkpt><trkpt lat="43.899743398430346" lon="12.254059440080706"><ele>575.0</ele><time>2026-05-03T08:35:43.999Z</time></trkpt><trkpt lat="43.89957359775036" lon="12.254236035931362"><ele>571.6666666666666</ele><time>2026-05-03T08:35:44.999Z</time></trkpt><trkpt lat="43.89940380632169" lon="12.254388876402944"><ele>568.3333333333334</ele><time>2026-05-03T08:35:45.999Z</time></trkpt><trkpt lat="43.899239570200045" lon="12.254529342088302"><ele>565.0</ele><time>2026-05-03T08:35:46.999Z</time></trkpt><trkpt lat="43.89908155926629" lon="12.254667450202628"><ele>560.3333333333334</ele><time>2026-05-03T08:35:47.999Z</time></trkpt><trkpt lat="43.89893136638166" lon="12.254797849971395"><ele>555.6666666666666</ele><time>2026-05-03T08:35:48.999Z</time></trkpt><trkpt lat="43.898782009345744" lon="12.254919620480138"><ele>551.0</ele><time>2026-05-03T08:35:49.999Z</time></trkpt><trkpt lat="43.898631570474365" lon="12.25501859786682"><ele>551.0</ele><time>2026-05-03T08:35:50.999Z</time></trkpt><trkpt lat="43.89847545267914" lon="12.255086315918069"><ele>551.0</ele><time>2026-05-03T08:35:51.999Z</time></trkpt><trkpt lat="43.89830466263026" lon="12.25513282906969"><ele>551.0</ele><time>2026-05-03T08:35:52.999Z</time></trkpt><trkpt lat="43.898132269165686" lon="12.25514130658281"><ele>550.75</ele><time>2026-05-03T08:35:53.999Z</time></trkpt><trkpt lat="43.897972236743996" lon="12.255128461924144"><ele>550.5</ele><time>2026-05-03T08:35:54.999Z</time></trkpt><trkpt lat="43.897836488943824" lon="12.25509220770516"><ele>550.25</ele><time>2026-05-03T08:35:55.999Z</time></trkpt><trkpt lat="43.89772850577923" lon="12.255054073631925"><ele>550.0</ele><time>2026-05-03T08:35:56.999Z</time></trkpt><trkpt lat="43.89764022878337" lon="12.25504212882371"><ele>549.6</ele><time>2026-05-03T08:35:58.001Z</time></trkpt><trkpt lat="43.89755060513736" lon="12.255063105471782"><ele>549.2</ele><time>2026-05-03T08:35:59.001Z</time></trkpt><trkpt lat="43.89746841806234" lon="12.255119362647067"><ele>548.8</ele><time>2026-05-03T08:36:00.001Z</time></trkpt><trkpt lat="43.89740116056469" lon="12.255211416603691"><ele>548.4</ele><time>2026-05-03T08:36:01.001Z</time></trkpt><trkpt lat="43.89735400597071" lon="12.255340304308039"><ele>548.0</ele><time>2026-05-03T08:36:02.001Z</time></trkpt><trkpt lat="43.897343306015294" lon="12.255492011121357"><ele>546.8</ele><time>2026-05-03T08:36:03.001Z</time></trkpt><trkpt lat="43.89737848721258" lon="12.255635940806025"><ele>545.5999999999999</ele><time>2026-05-03T08:36:04.001Z</time></trkpt><trkpt lat="43.89744749209297" lon="12.25574789972608"><ele>544.4000000000001</ele><time>2026-05-03T08:36:05.001Z</time></trkpt><trkpt lat="43.89754213399142" lon="12.255812967361468"><ele>543.2</ele><time>2026-05-03T08:36:06.001Z</time></trkpt><trkpt lat="43.89765183957678" lon="12.255827499126248"><ele>542.0</ele><time>2026-05-03T08:36:07.001Z</time></trkpt><trkpt lat="43.897754957570385" lon="12.255794516027409"><ele>541.6</ele><time>2026-05-03T08:36:08.001Z</time></trkpt><trkpt lat="43.89784593207376" lon="12.25572738393195"><ele>541.2</ele><time>2026-05-03T08:36:09.001Z</time></trkpt><trkpt lat="43.89793058774246" lon="12.255689876874136"><ele>540.8</ele><time>2026-05-03T08:36:10.001Z</time></trkpt><trkpt lat="43.89800971661254" lon="12.255667309843313"><ele>540.4</ele><time>2026-05-03T08:36:11.001Z</time></trkpt><trkpt lat="43.89809779598342" lon="12.255669725069453"><ele>540.0</ele><time>2026-05-03T08:36:12.001Z</time></trkpt><trkpt lat="43.89818117559096" lon="12.255715748909362"><ele>540.0</ele><time>2026-05-03T08:36:13Z</time></trkpt><trkpt lat="43.8982563104838" lon="12.25578506143231"><ele>540.0</ele><time>2026-05-03T08:36:14Z</time></trkpt><trkpt lat="43.898315430847425" lon="12.255883255787113"><ele>540.0</ele><time>2026-05-03T08:36:15Z</time></trkpt><trkpt lat="43.89835281237924" lon="12.256007649100658"><ele>540.0</ele><time>2026-05-03T08:36:16Z</time></trkpt><trkpt lat="43.89839105228964" lon="12.25615664863067"><ele>540.0</ele><time>2026-05-03T08:36:17Z</time></trkpt><trkpt lat="43.89842733149759" lon="12.25632421226444"><ele>542.3333333333334</ele><time>2026-05-03T08:36:18Z</time></trkpt><trkpt lat="43.898468715737" lon="12.256514356700349"><ele>544.6666666666667</ele><time>2026-05-03T08:36:19Z</time></trkpt><trkpt lat="43.89851790601543" lon="12.256744340030686"><ele>547.0</ele><time>2026-05-03T08:36:20Z</time></trkpt><trkpt lat="43.89858201746306" lon="12.256972644338205"><ele>547.0</ele><time>2026-05-03T08:36:21Z</time></trkpt><trkpt lat="43.898623595394795" lon="12.257208401607793"><ele>547.0</ele><time>2026-05-03T08:36:22Z</time></trkpt><trkpt lat="43.89866649979572" lon="12.257439735877277"><ele>547.0</ele><time>2026-05-03T08:36:23Z</time></trkpt><trkpt lat="43.89871420107321" lon="12.257657304692708"><ele>546.0</ele><time>2026-05-03T08:36:24Z</time></trkpt><trkpt lat="43.898753245590676" lon="12.2578768463157"><ele>545.0</ele><time>2026-05-03T08:36:25Z</time></trkpt><trkpt lat="43.89876596376774" lon="12.258100536929994"><ele>544.0</ele><time>2026-05-03T08:36:26Z</time></trkpt><trkpt lat="43.89874251908799" lon="12.258323302655642"><ele>543.3333333333334</ele><time>2026-05-03T08:36:27Z</time></trkpt><trkpt lat="43.89870961298065" lon="12.25853554775918"><ele>542.6666666666666</ele><time>2026-05-03T08:36:28Z</time></trkpt><trkpt lat="43.89867969835381" lon="12.258753830536312"><ele>542.0</ele><time>2026-05-03T08:36:29Z</time></trkpt><trkpt lat="43.89865450129714" lon="12.25896764107371"><ele>542.0</ele><time>2026-05-03T08:36:30Z</time></trkpt><trkpt lat="43.898629337783106" lon="12.25918679037011"><ele>542.0</ele><time>2026-05-03T08:36:31Z</time></trkpt><trkpt lat="43.89860106026221" lon="12.259404397259477"><ele>542.0</ele><time>2026-05-03T08:36:32Z</time></trkpt><trkpt lat="43.89857328877127" lon="12.25962574928344"><ele>541.0</ele><time>2026-05-03T08:36:33Z</time></trkpt><trkpt lat="43.898544921776214" lon="12.259850331200877"><ele>540.0</ele><time>2026-05-03T08:36:34Z</time></trkpt><trkpt lat="43.89851366931566" lon="12.260071429765416"><ele>539.0</ele><time>2026-05-03T08:36:35Z</time></trkpt><trkpt lat="43.89847048392763" lon="12.260293117390367"><ele>534.6666666666666</ele><time>2026-05-03T08:36:36Z</time></trkpt><trkpt lat="43.898404087205236" lon="12.26049625529484"><ele>530.3333333333334</ele><time>2026-05-03T08:36:37Z</time></trkpt><trkpt lat="43.8983214660691" lon="12.260678398221003"><ele>526.0</ele><time>2026-05-03T08:36:38Z</time></trkpt><trkpt lat="43.89819118176582" lon="12.260903121211824"><ele>526.0</ele><time>2026-05-03T08:36:39Z</time></trkpt><trkpt lat="43.89803640321895" lon="12.261081240962547"><ele>526.0</ele><time>2026-05-03T08:36:40Z</time></trkpt><trkpt lat="43.897881877524526" lon="12.261268072030012"><ele>526.0</ele><time>2026-05-03T08:36:41Z</time></trkpt><trkpt lat="43.89773254520587" lon="12.261464553118104"><ele>529.0</ele><time>2026-05-03T08:36:42Z</time></trkpt><trkpt lat="43.89759545230578" lon="12.26168616789711"><ele>532.0</ele><time>2026-05-03T08:36:43Z</time></trkpt><trkpt lat="43.89748519277036" lon="12.26192437357399"><ele>535.0</ele><time>2026-05-03T08:36:44Z</time></trkpt><trkpt lat="43.89739490409565" lon="12.262179633211097"><ele>527.6666666666667</ele><time>2026-05-03T08:36:45Z</time></trkpt><trkpt lat="43.89731441422701" lon="12.262442199053899"><ele>520.3333333333334</ele><time>2026-05-03T08:36:46Z</time></trkpt><trkpt lat="43.897256289564275" lon="12.26270649959262"><ele>513.0</ele><time>2026-05-03T08:36:47Z</time></trkpt><trkpt lat="43.89720725890413" lon="12.262963071829784"><ele>513.0</ele><time>2026-05-03T08:36:48Z</time></trkpt><trkpt lat="43.8971806896723" lon="12.263188331379547"><ele>513.0</ele><time>2026-05-03T08:36:49Z</time></trkpt><trkpt lat="43.89715645960537" lon="12.263382828479637"><ele>513.0</ele><time>2026-05-03T08:36:50Z</time></trkpt><trkpt lat="43.8971278316048" lon="12.263572402448627"><ele>513.0</ele><time>2026-05-03T08:36:51Z</time></trkpt><trkpt lat="43.89708911052645" lon="12.26374953415443"><ele>513.0</ele><time>2026-05-03T08:36:52Z</time></trkpt><trkpt lat="43.89700498366288" lon="12.26390003875285"><ele>513.0</ele><time>2026-05-03T08:36:53Z</time></trkpt><trkpt lat="43.896879770171495" lon="12.263995432324188"><ele>513.0</ele><time>2026-05-03T08:36:54Z</time></trkpt><trkpt lat="43.896776953695486" lon="12.2641078524861"><ele>513.0</ele><time>2026-05-03T08:36:55Z</time></trkpt><trkpt lat="43.89669221635924" lon="12.264252624933539"><ele>507.0</ele><time>2026-05-03T08:36:56Z</time></trkpt><trkpt lat="43.896654991664455" lon="12.264450037353988"><ele>501.0</ele><time>2026-05-03T08:36:57Z</time></trkpt><trkpt lat="43.89662983599784" lon="12.26467371819807"><ele>495.0</ele><time>2026-05-03T08:36:58Z</time></trkpt><trkpt lat="43.89659947064329" lon="12.264896662950017"><ele>495.0</ele><time>2026-05-03T08:36:59Z</time></trkpt><trkpt lat="43.89655044820342" lon="12.265100391986305"><ele>495.0</ele><time>2026-05-03T08:37:00Z</time></trkpt><trkpt lat="43.89649235402176" lon="12.265299116733024"><ele>495.0</ele><time>2026-05-03T08:37:01Z</time></trkpt><trkpt lat="43.89644732823748" lon="12.265489715266176"><ele>495.66666666666663</ele><time>2026-05-03T08:37:02Z</time></trkpt><trkpt lat="43.89641517315824" lon="12.265688133509554"><ele>496.3333333333333</ele><time>2026-05-03T08:37:03Z</time></trkpt><trkpt lat="43.89641048457627" lon="12.265895219597398"><ele>497.0</ele><time>2026-05-03T08:37:04Z</time></trkpt><trkpt lat="43.8964298963653" lon="12.266109352912995"><ele>497.0</ele><time>2026-05-03T08:37:05Z</time></trkpt><trkpt lat="43.89646673485283" lon="12.266326256114354"><ele>497.0</ele><time>2026-05-03T08:37:06Z</time></trkpt><trkpt lat="43.89649865171067" lon="12.266554214482131"><ele>497.0</ele><time>2026-05-03T08:37:07Z</time></trkpt><trkpt lat="43.89654882989412" lon="12.266813891445583"><ele>495.3333333333333</ele><time>2026-05-03T08:37:08Z</time></trkpt><trkpt lat="43.896582494223516" lon="12.26705909831171"><ele>493.66666666666663</ele><time>2026-05-03T08:37:09Z</time></trkpt><trkpt lat="43.89661649249388" lon="12.267308931481459"><ele>492.0</ele><time>2026-05-03T08:37:10Z</time></trkpt><trkpt lat="43.89665726078242" lon="12.267558775693242"><ele>489.0</ele><time>2026-05-03T08:37:11Z</time></trkpt><trkpt lat="43.89669381058704" lon="12.267808726533046"><ele>486.0</ele><time>2026-05-03T08:37:12Z</time></trkpt><trkpt lat="43.8967293050976" lon="12.268066900667254"><ele>483.0</ele><time>2026-05-03T08:37:13Z</time></trkpt><trkpt lat="43.89676730567511" lon="12.268325120539567"><ele>486.66666666666663</ele><time>2026-05-03T08:37:14Z</time></trkpt><trkpt lat="43.89680311728809" lon="12.268577986228967"><ele>490.3333333333333</ele><time>2026-05-03T08:37:15Z</time></trkpt><trkpt lat="43.896838559756894" lon="12.26883604763545"><ele>494.0</ele><time>2026-05-03T08:37:16Z</time></trkpt><trkpt lat="43.896875407536086" lon="12.269087356247326"><ele>494.0</ele><time>2026-05-03T08:37:17Z</time></trkpt><trkpt lat="43.89689954495077" lon="12.269345439969786"><ele>494.0</ele><time>2026-05-03T08:37:18Z</time></trkpt><trkpt lat="43.89690858513858" lon="12.269602682346232"><ele>494.0</ele><time>2026-05-03T08:37:19Z</time></trkpt><trkpt lat="43.89689223510106" lon="12.269854399939252"><ele>490.3333333333333</ele><time>2026-05-03T08:37:20Z</time></trkpt><trkpt lat="43.89686424323199" lon="12.270109563570768"><ele>486.66666666666663</ele><time>2026-05-03T08:37:21Z</time></trkpt><trkpt lat="43.89683684018777" lon="12.270367133042392"><ele>483.0</ele><time>2026-05-03T08:37:22Z</time></trkpt><trkpt lat="43.89681321967529" lon="12.270632210994268"><ele>480.66666666666663</ele><time>2026-05-03T08:37:23Z</time></trkpt><trkpt lat="43.89678364883603" lon="12.270900069316637"><ele>478.3333333333333</ele><time>2026-05-03T08:37:24Z</time></trkpt><trkpt lat="43.89675032916456" lon="12.27117013972674"><ele>476.0</ele><time>2026-05-03T08:37:25Z</time></trkpt><trkpt lat="43.89671906436925" lon="12.271440188603334"><ele>469.0</ele><time>2026-05-03T08:37:26Z</time></trkpt><trkpt lat="43.89669288227762" lon="12.271706918380525"><ele>462.0</ele><time>2026-05-03T08:37:27Z</time></trkpt><trkpt lat="43.89666873849323" lon="12.27196559879919"><ele>455.0</ele><time>2026-05-03T08:37:28Z</time></trkpt><trkpt lat="43.89664973907509" lon="12.272212204525093"><ele>454.3333333333333</ele><time>2026-05-03T08:37:29Z</time></trkpt><trkpt lat="43.896655719799966" lon="12.272448440907493"><ele>453.66666666666663</ele><time>2026-05-03T08:37:30Z</time></trkpt><trkpt lat="43.89670351756298" lon="12.27267569784939"><ele>453.0</ele><time>2026-05-03T08:37:31Z</time></trkpt><trkpt lat="43.89678412410835" lon="12.272897449385557"><ele>458.66666666666663</ele><time>2026-05-03T08:37:32Z</time></trkpt><trkpt lat="43.89688275812923" lon="12.273114951886264"><ele>464.3333333333333</ele><time>2026-05-03T08:37:33Z</time></trkpt><trkpt lat="43.89695699235633" lon="12.27333347567628"><ele>470.0</ele><time>2026-05-03T08:37:34Z</time></trkpt><trkpt lat="43.89699598683782" lon="12.273546563010232"><ele>470.0</ele><time>2026-05-03T08:37:35Z</time></trkpt><trkpt lat="43.89701526196012" lon="12.273760626038463"><ele>470.0</ele><time>2026-05-03T08:37:36Z</time></trkpt><trkpt lat="43.897014789570754" lon="12.273966858846014"><ele>470.0</ele><time>2026-05-03T08:37:37Z</time></trkpt><trkpt lat="43.89701043727848" lon="12.274160504273414"><ele>470.0</ele><time>2026-05-03T08:37:37.999Z</time></trkpt><trkpt lat="43.897011564153225" lon="12.274349310587864"><ele>469.0</ele><time>2026-05-03T08:37:38.999Z</time></trkpt><trkpt lat="43.89700816204439" lon="12.274536074772406"><ele>468.0</ele><time>2026-05-03T08:37:39.999Z</time></trkpt><trkpt lat="43.89700136480533" lon="12.274721429956928"><ele>467.0</ele><time>2026-05-03T08:37:40.999Z</time></trkpt><trkpt lat="43.8969834947268" lon="12.274912956514225"><ele>466.0</ele><time>2026-05-03T08:37:41.999Z</time></trkpt><trkpt lat="43.89693694720282" lon="12.27510142724706"><ele>463.5</ele><time>2026-05-03T08:37:42.999Z</time></trkpt><trkpt lat="43.89686614849895" lon="12.275280566819683"><ele>461.0</ele><time>2026-05-03T08:37:43.999Z</time></trkpt><trkpt lat="43.89679494544243" lon="12.27545679627377"><ele>458.5</ele><time>2026-05-03T08:37:44.999Z</time></trkpt><trkpt lat="43.89674737633725" lon="12.275638605372254"><ele>456.0</ele><time>2026-05-03T08:37:45.999Z</time></trkpt><trkpt lat="43.8967554332356" lon="12.27581386383391"><ele>450.66666666666663</ele><time>2026-05-03T08:37:46.999Z</time></trkpt><trkpt lat="43.89681860547145" lon="12.275986262807434"><ele>445.3333333333333</ele><time>2026-05-03T08:37:47.999Z</time></trkpt><trkpt lat="43.896921624260905" lon="12.276132355101684"><ele>440.0</ele><time>2026-05-03T08:37:48.999Z</time></trkpt><trkpt lat="43.89705909518256" lon="12.276259866785397"><ele>440.0</ele><time>2026-05-03T08:37:49.999Z</time></trkpt><trkpt lat="43.897191556472286" lon="12.276416840565554"><ele>440.0</ele><time>2026-05-03T08:37:50.999Z</time></trkpt><trkpt lat="43.897332448539736" lon="12.276569521578331"><ele>440.0</ele><time>2026-05-03T08:37:51.999Z</time></trkpt><trkpt lat="43.897445034660585" lon="12.276774684010991"><ele>439.66666666666663</ele><time>2026-05-03T08:37:52.999Z</time></trkpt><trkpt lat="43.89754551607462" lon="12.276989183105977"><ele>439.33333333333337</ele><time>2026-05-03T08:37:53.999Z</time></trkpt><trkpt lat="43.897626416055544" lon="12.277225173000865"><ele>439.0</ele><time>2026-05-03T08:37:54.999Z</time></trkpt><trkpt lat="43.8977011803648" lon="12.277454146725773"><ele>439.0</ele><time>2026-05-03T08:37:55.999Z</time></trkpt><trkpt lat="43.89776654489186" lon="12.277684852056476"><ele>439.0</ele><time>2026-05-03T08:37:56.999Z</time></trkpt><trkpt lat="43.89782322173343" lon="12.277910283484363"><ele>439.0</ele><time>2026-05-03T08:37:57.999Z</time></trkpt><trkpt lat="43.897871830986375" lon="12.278132379543935"><ele>434.0</ele><time>2026-05-03T08:37:58.999Z</time></trkpt><trkpt lat="43.89790145872331" lon="12.27834265171384"><ele>429.0</ele><time>2026-05-03T08:37:59.999Z</time></trkpt><trkpt lat="43.897921119918195" lon="12.278519198123226"><ele>424.0</ele><time>2026-05-03T08:38:00.999Z</time></trkpt><trkpt lat="43.897965672243615" lon="12.278665086286095"><ele>419.0</ele><time>2026-05-03T08:38:01.999Z</time></trkpt><trkpt lat="43.89805915464042" lon="12.27874929788974"><ele>419.0</ele><time>2026-05-03T08:38:02.999Z</time></trkpt><trkpt lat="43.89817652506638" lon="12.278776886606321"><ele>419.0</ele><time>2026-05-03T08:38:04Z</time></trkpt><trkpt lat="43.89829968923544" lon="12.278772024444896"><ele>419.0</ele><time>2026-05-03T08:38:05Z</time></trkpt><trkpt lat="43.89841062943297" lon="12.278785311031125"><ele>419.0</ele><time>2026-05-03T08:38:06Z</time></trkpt><trkpt lat="43.89849655915102" lon="12.278857662045517"><ele>415.6</ele><time>2026-05-03T08:38:07Z</time></trkpt><trkpt lat="43.898559368368936" lon="12.278967143342365"><ele>412.2</ele><time>2026-05-03T08:38:08Z</time></trkpt><trkpt lat="43.89858167436705" lon="12.279101798346241"><ele>408.8</ele><time>2026-05-03T08:38:09Z</time></trkpt><trkpt lat="43.89856411480028" lon="12.279231370848041"><ele>405.40000000000003</ele><time>2026-05-03T08:38:10Z</time></trkpt><trkpt lat="43.898518355587406" lon="12.279341582931563"><ele>402.0</ele><time>2026-05-03T08:38:11Z</time></trkpt><trkpt lat="43.89843840317945" lon="12.279429963450456"><ele>400.5</ele><time>2026-05-03T08:38:12Z</time></trkpt><trkpt lat="43.898330097190076" lon="12.279476159700645"><ele>399.0</ele><time>2026-05-03T08:38:13Z</time></trkpt><trkpt lat="43.89820710598728" lon="12.279477322171182"><ele>397.5</ele><time>2026-05-03T08:38:14Z</time></trkpt><trkpt lat="43.89808298332368" lon="12.279426515755224"><ele>396.0</ele><time>2026-05-03T08:38:15Z</time></trkpt><trkpt lat="43.897950107451756" lon="12.279350072474083"><ele>396.0</ele><time>2026-05-03T08:38:16Z</time></trkpt><trkpt lat="43.897810346867544" lon="12.279285569583225"><ele>396.0</ele><time>2026-05-03T08:38:17Z</time></trkpt><trkpt lat="43.89767985867117" lon="12.279195204203473"><ele>396.0</ele><time>2026-05-03T08:38:18Z</time></trkpt><trkpt lat="43.897592349980016" lon="12.279024099150229"><ele>396.0</ele><time>2026-05-03T08:38:19Z</time></trkpt><trkpt lat="43.897517084231055" lon="12.278842632458453"><ele>396.25</ele><time>2026-05-03T08:38:20Z</time></trkpt><trkpt lat="43.89743229617944" lon="12.278661721773664"><ele>396.5</ele><time>2026-05-03T08:38:21Z</time></trkpt><trkpt lat="43.89734451481851" lon="12.278505764314506"><ele>396.75</ele><time>2026-05-03T08:38:22Z</time></trkpt><trkpt lat="43.89723850016078" lon="12.278383929742722"><ele>397.0</ele><time>2026-05-03T08:38:23Z</time></trkpt><trkpt lat="43.89712028700366" lon="12.27829901361375"><ele>397.0</ele><time>2026-05-03T08:38:24Z</time></trkpt><trkpt lat="43.89698516559259" lon="12.278264816034334"><ele>397.0</ele><time>2026-05-03T08:38:25Z</time></trkpt><trkpt lat="43.896842239653054" lon="12.278294855382356"><ele>397.0</ele><time>2026-05-03T08:38:26Z</time></trkpt><trkpt lat="43.89670319240328" lon="12.278373348515416"><ele>397.0</ele><time>2026-05-03T08:38:27Z</time></trkpt><trkpt lat="43.896571879984144" lon="12.278496343895862"><ele>394.0</ele><time>2026-05-03T08:38:28Z</time></trkpt><trkpt lat="43.896444645701756" lon="12.278623368435051"><ele>391.0</ele><time>2026-05-03T08:38:29Z</time></trkpt><trkpt lat="43.89630717501397" lon="12.278705051642488"><ele>388.0</ele><time>2026-05-03T08:38:30Z</time></trkpt><trkpt lat="43.89615848010381" lon="12.278731294130278"><ele>388.0</ele><time>2026-05-03T08:38:31Z</time></trkpt><trkpt lat="43.89601037737059" lon="12.278677895599516"><ele>388.0</ele><time>2026-05-03T08:38:32Z</time></trkpt><trkpt lat="43.89586520099456" lon="12.278603213505999"><ele>388.0</ele><time>2026-05-03T08:38:33Z</time></trkpt><trkpt lat="43.89571211320179" lon="12.27851587796215"><ele>386.6666666666667</ele><time>2026-05-03T08:38:34Z</time></trkpt><trkpt lat="43.89556938510554" lon="12.278403428454665"><ele>385.33333333333337</ele><time>2026-05-03T08:38:35Z</time></trkpt><trkpt lat="43.895423361887325" lon="12.278311594443897"><ele>384.0</ele><time>2026-05-03T08:38:36Z</time></trkpt><trkpt lat="43.89529235686176" lon="12.27823460012466"><ele>384.0</ele><time>2026-05-03T08:38:37Z</time></trkpt><trkpt lat="43.89516989535837" lon="12.278190691853032"><ele>384.0</ele><time>2026-05-03T08:38:38Z</time></trkpt><trkpt lat="43.89505003007691" lon="12.278197950554238"><ele>384.0</ele><time>2026-05-03T08:38:39Z</time></trkpt><trkpt lat="43.89493979686987" lon="12.278261988146637"><ele>384.0</ele><time>2026-05-03T08:38:40Z</time></trkpt><trkpt lat="43.894850890622564" lon="12.278379235033178"><ele>382.0</ele><time>2026-05-03T08:38:41Z</time></trkpt><trkpt lat="43.894786354866994" lon="12.278532901745054"><ele>380.0</ele><time>2026-05-03T08:38:42Z</time></trkpt><trkpt lat="43.894759292107615" lon="12.278731235559112"><ele>378.0</ele><time>2026-05-03T08:38:43Z</time></trkpt><trkpt lat="43.89476889712412" lon="12.278968716456683"><ele>376.0</ele><time>2026-05-03T08:38:44Z</time></trkpt><trkpt lat="43.89478940019221" lon="12.279219431325485"><ele>374.3333333333333</ele><time>2026-05-03T08:38:45Z</time></trkpt><trkpt lat="43.894811700195575" lon="12.279473496703211"><ele>372.6666666666667</ele><time>2026-05-03T08:38:46Z</time></trkpt><trkpt lat="43.89481281089661" lon="12.27971892525136"><ele>371.0</ele><time>2026-05-03T08:38:47Z</time></trkpt><trkpt lat="43.89480060915764" lon="12.279969524853605"><ele>369.0</ele><time>2026-05-03T08:38:48Z</time></trkpt><trkpt lat="43.89476431178559" lon="12.280228062696974"><ele>367.0</ele><time>2026-05-03T08:38:49Z</time></trkpt><trkpt lat="43.89470875134902" lon="12.280493377795018"><ele>365.0</ele><time>2026-05-03T08:38:50Z</time></trkpt><trkpt lat="43.894656808485756" lon="12.280768380884467"><ele>363.33333333333337</ele><time>2026-05-03T08:38:51Z</time></trkpt><trkpt lat="43.89460728755447" lon="12.281048253520497"><ele>361.6666666666667</ele><time>2026-05-03T08:38:52Z</time></trkpt><trkpt lat="43.894559938631154" lon="12.281333735951252"><ele>360.0</ele><time>2026-05-03T08:38:53Z</time></trkpt><trkpt lat="43.89451164018913" lon="12.281616968728647"><ele>359.6666666666667</ele><time>2026-05-03T08:38:54Z</time></trkpt><trkpt lat="43.89446499048757" lon="12.281900707382254"><ele>359.33333333333337</ele><time>2026-05-03T08:38:55Z</time></trkpt><trkpt lat="43.89441656244059" lon="12.282184447981937"><ele>359.0</ele><time>2026-05-03T08:38:56Z</time></trkpt><trkpt lat="43.894367682935474" lon="12.282463361902614"><ele>358.6666666666667</ele><time>2026-05-03T08:38:57Z</time></trkpt><trkpt lat="43.89432410375687" lon="12.282735050199614"><ele>358.3333333333333</ele><time>2026-05-03T08:38:58Z</time></trkpt><trkpt lat="43.89427967573937" lon="12.28299275351345"><ele>358.0</ele><time>2026-05-03T08:38:59Z</time></trkpt><trkpt lat="43.89422630270051" lon="12.283241596527382"><ele>358.0</ele><time>2026-05-03T08:39:00Z</time></trkpt><trkpt lat="43.89415089853288" lon="12.283473240622206"><ele>358.0</ele><time>2026-05-03T08:39:01Z</time></trkpt><trkpt lat="43.89405163377695" lon="12.2836936524884"><ele>358.0</ele><time>2026-05-03T08:39:02Z</time></trkpt><trkpt lat="43.893933056833504" lon="12.283912297343182"><ele>355.3333333333333</ele><time>2026-05-03T08:39:03Z</time></trkpt><trkpt lat="43.89381119724047" lon="12.284134937939164"><ele>352.6666666666667</ele><time>2026-05-03T08:39:04Z</time></trkpt><trkpt lat="43.89369119711042" lon="12.284363000286112"><ele>350.0</ele><time>2026-05-03T08:39:05Z</time></trkpt><trkpt lat="43.89357508672657" lon="12.28459758952378"><ele>348.33333333333337</ele><time>2026-05-03T08:39:06Z</time></trkpt><trkpt lat="43.893465318022606" lon="12.28482703990194"><ele>346.6666666666667</ele><time>2026-05-03T08:39:07Z</time></trkpt><trkpt lat="43.89336348160054" lon="12.285032902608252"><ele>345.0</ele><time>2026-05-03T08:39:08Z</time></trkpt><trkpt lat="43.89326997993722" lon="12.285218441367698"><ele>345.0</ele><time>2026-05-03T08:39:09Z</time></trkpt><trkpt lat="43.89317898869717" lon="12.285373983905322"><ele>345.0</ele><time>2026-05-03T08:39:10Z</time></trkpt><trkpt lat="43.89306277545035" lon="12.285500531857501"><ele>345.0</ele><time>2026-05-03T08:39:11Z</time></trkpt><trkpt lat="43.892928597527586" lon="12.285592153552734"><ele>345.0</ele><time>2026-05-03T08:39:12Z</time></trkpt><trkpt lat="43.89278725065936" lon="12.285629317147489"><ele>342.6666666666667</ele><time>2026-05-03T08:39:13Z</time></trkpt><trkpt lat="43.89265040430081" lon="12.285597624320964"><ele>340.33333333333337</ele><time>2026-05-03T08:39:14Z</time></trkpt><trkpt lat="43.89251687985787" lon="12.285485773380795"><ele>338.0</ele><time>2026-05-03T08:39:15Z</time></trkpt><trkpt lat="43.8923887858513" lon="12.285324772626087"><ele>338.0</ele><time>2026-05-03T08:39:16Z</time></trkpt><trkpt lat="43.89226785283154" lon="12.285165175353784"><ele>338.0</ele><time>2026-05-03T08:39:17Z</time></trkpt><trkpt lat="43.892170433571515" lon="12.285074715347779"><ele>338.0</ele><time>2026-05-03T08:39:18Z</time></trkpt><trkpt lat="43.89206227895837" lon="12.285050731048583"><ele>338.0</ele><time>2026-05-03T08:39:19Z</time></trkpt><trkpt lat="43.891953141394715" lon="12.285080439268308"><ele>338.0</ele><time>2026-05-03T08:39:20Z</time></trkpt><trkpt lat="43.89185673740332" lon="12.285165077330172"><ele>338.0</ele><time>2026-05-03T08:39:21Z</time></trkpt><trkpt lat="43.89179623891931" lon="12.28531118832801"><ele>338.0</ele><time>2026-05-03T08:39:22Z</time></trkpt><trkpt lat="43.891775388787664" lon="12.285477339823501"><ele>338.0</ele><time>2026-05-03T08:39:23Z</time></trkpt><trkpt lat="43.89178872256974" lon="12.285667413727177"><ele>336.33333333333337</ele><time>2026-05-03T08:39:24Z</time></trkpt><trkpt lat="43.89183611651656" lon="12.285887777962403"><ele>334.6666666666667</ele><time>2026-05-03T08:39:25Z</time></trkpt><trkpt lat="43.89188929850628" lon="12.286123595748153"><ele>333.0</ele><time>2026-05-03T08:39:26Z</time></trkpt><trkpt lat="43.891938166802355" lon="12.28636543871346"><ele>330.6666666666667</ele><time>2026-05-03T08:39:27Z</time></trkpt><trkpt lat="43.891985007941855" lon="12.286596857271624"><ele>328.33333333333337</ele><time>2026-05-03T08:39:28Z</time></trkpt><trkpt lat="43.89204094650025" lon="12.286821194164538"><ele>326.0</ele><time>2026-05-03T08:39:29Z</time></trkpt><trkpt lat="43.89212839887879" lon="12.287032687890065"><ele>326.0</ele><time>2026-05-03T08:39:30Z</time></trkpt><trkpt lat="43.892245398096016" lon="12.287219672841745"><ele>326.0</ele><time>2026-05-03T08:39:31Z</time></trkpt><trkpt lat="43.892370835775885" lon="12.287389136123712"><ele>326.0</ele><time>2026-05-03T08:39:32Z</time></trkpt><trkpt lat="43.89248319322705" lon="12.28753786178923"><ele>322.25</ele><time>2026-05-03T08:39:33Z</time></trkpt><trkpt lat="43.892590011686416" lon="12.287649989783745"><ele>318.5</ele><time>2026-05-03T08:39:34Z</time></trkpt><trkpt lat="43.89270413475219" lon="12.287718789756022"><ele>314.75</ele><time>2026-05-03T08:39:35Z</time></trkpt><trkpt lat="43.89284852139611" lon="12.287720359471075"><ele>311.0</ele><time>2026-05-03T08:39:36Z</time></trkpt><trkpt lat="43.89300385349685" lon="12.287633231408584"><ele>311.0</ele><time>2026-05-03T08:39:37Z</time></trkpt><trkpt lat="43.893141309092094" lon="12.287551331384039"><ele>311.0</ele><time>2026-05-03T08:39:37.999Z</time></trkpt><trkpt lat="43.893262041463394" lon="12.287515397493197"><ele>311.0</ele><time>2026-05-03T08:39:38.999Z</time></trkpt><trkpt lat="43.893380634495685" lon="12.287521351204747"><ele>311.0</ele><time>2026-05-03T08:39:39.999Z</time></trkpt><trkpt lat="43.89346992537018" lon="12.287618911349314"><ele>310.75</ele><time>2026-05-03T08:39:40.999Z</time></trkpt><trkpt lat="43.89354080218978" lon="12.287720260063502"><ele>310.5</ele><time>2026-05-03T08:39:41.999Z</time></trkpt><trkpt lat="43.8935780559537" lon="12.287912465965412"><ele>310.25</ele><time>2026-05-03T08:39:42.999Z</time></trkpt><trkpt lat="43.89359620634839" lon="12.288067909590032"><ele>310.0</ele><time>2026-05-03T08:39:43.999Z</time></trkpt><trkpt lat="43.893614010322764" lon="12.288256104722231"><ele>306.75</ele><time>2026-05-03T08:39:44.999Z</time></trkpt><trkpt lat="43.89367331060992" lon="12.28839732012445"><ele>303.5</ele><time>2026-05-03T08:39:45.999Z</time></trkpt><trkpt lat="43.89377387307644" lon="12.288462233637667"><ele>300.25</ele><time>2026-05-03T08:39:46.999Z</time></trkpt><trkpt lat="43.89389480946826" lon="12.288478730850574"><ele>297.0</ele><time>2026-05-03T08:39:47.999Z</time></trkpt><trkpt lat="43.894010696169076" lon="12.288406722307865"><ele>297.0</ele><time>2026-05-03T08:39:48.999Z</time></trkpt><trkpt lat="43.8941096007788" lon="12.2882792350772"><ele>297.0</ele><time>2026-05-03T08:39:49.999Z</time></trkpt><trkpt lat="43.894170307955434" lon="12.288093941959083"><ele>297.0</ele><time>2026-05-03T08:39:50.999Z</time></trkpt><trkpt lat="43.89421440694252" lon="12.287881708297945"><ele>297.0</ele><time>2026-05-03T08:39:51.999Z</time></trkpt><trkpt lat="43.8942692168637" lon="12.287696956493482"><ele>296.2</ele><time>2026-05-03T08:39:52.999Z</time></trkpt><trkpt lat="43.89432335720771" lon="12.287539621872297"><ele>295.4</ele><time>2026-05-03T08:39:53.999Z</time></trkpt><trkpt lat="43.89438352809635" lon="12.287426318756978"><ele>294.6</ele><time>2026-05-03T08:39:54.999Z</time></trkpt><trkpt lat="43.89448562758541" lon="12.28737079256603"><ele>293.8</ele><time>2026-05-03T08:39:55.999Z</time></trkpt><trkpt lat="43.89459031023898" lon="12.287384574223609"><ele>293.0</ele><time>2026-05-03T08:39:56.999Z</time></trkpt><trkpt lat="43.89469109181394" lon="12.287465028638119"><ele>293.0</ele><time>2026-05-03T08:39:57.999Z</time></trkpt><trkpt lat="43.89477945518811" lon="12.287558348636521"><ele>293.0</ele><time>2026-05-03T08:39:58.999Z</time></trkpt><trkpt lat="43.89478148321324" lon="12.287727015054022"><ele>293.0</ele><time>2026-05-03T08:39:59.999Z</time></trkpt><trkpt lat="43.89478289169122" lon="12.287875560994083"><ele>293.0</ele><time>2026-05-03T08:40:00.999Z</time></trkpt><trkpt lat="43.89478606060678" lon="12.28803249812328"><ele>292.1666666666667</ele><time>2026-05-03T08:40:01.999Z</time></trkpt><trkpt lat="43.89479383359381" lon="12.288183308981058"><ele>291.33333333333337</ele><time>2026-05-03T08:40:02.999Z</time></trkpt><trkpt lat="43.89480745799947" lon="12.288316430010298"><ele>290.5</ele><time>2026-05-03T08:40:03.999Z</time></trkpt><trkpt lat="43.8948231639042" lon="12.288435056720857"><ele>289.6666666666667</ele><time>2026-05-03T08:40:04.999Z</time></trkpt><trkpt lat="43.89483812577221" lon="12.28855091413543"><ele>288.8333333333333</ele><time>2026-05-03T08:40:05.999Z</time></trkpt><trkpt lat="43.894853924649" lon="12.28864248281353"><ele>288.0</ele><time>2026-05-03T08:40:06.999Z</time></trkpt><trkpt lat="43.89490505350128" lon="12.28871156629071"><ele>288.0</ele><time>2026-05-03T08:40:10Z</time></trkpt><trkpt lat="43.89502527320956" lon="12.28864471262662"><ele>288.0</ele><time>2026-05-03T08:40:19Z</time></trkpt><trkpt lat="43.89506984754484" lon="12.28852431533811"><ele>288.0</ele><time>2026-05-03T08:40:20Z</time></trkpt><trkpt lat="43.895101031980005" lon="12.288389502047071"><ele>288.0</ele><time>2026-05-03T08:40:21Z</time></trkpt><trkpt lat="43.89515866920155" lon="12.288251788073634"><ele>288.0</ele><time>2026-05-03T08:40:22Z</time></trkpt><trkpt lat="43.89519225235456" lon="12.288095667483578"><ele>286.5</ele><time>2026-05-03T08:40:23Z</time></trkpt><trkpt lat="43.89527774137112" lon="12.287964125995561"><ele>285.0</ele><time>2026-05-03T08:40:24Z</time></trkpt><trkpt lat="43.89539016688974" lon="12.287846943966892"><ele>283.5</ele><time>2026-05-03T08:40:25Z</time></trkpt><trkpt lat="43.89550720107677" lon="12.287730431317662"><ele>282.0</ele><time>2026-05-03T08:40:26Z</time></trkpt><trkpt lat="43.89562988057857" lon="12.287651288757676"><ele>282.0</ele><time>2026-05-03T08:40:27Z</time></trkpt><trkpt lat="43.89573842996288" lon="12.287605605121911"><ele>282.0</ele><time>2026-05-03T08:40:28Z</time></trkpt><trkpt lat="43.895855069836166" lon="12.287591422417625"><ele>282.0</ele><time>2026-05-03T08:40:29Z</time></trkpt><trkpt lat="43.895968277161714" lon="12.287642161702466"><ele>282.0</ele><time>2026-05-03T08:40:30Z</time></trkpt><trkpt lat="43.89607296324885" lon="12.287732172408077"><ele>281.75</ele><time>2026-05-03T08:40:31Z</time></trkpt><trkpt lat="43.896187459013234" lon="12.28782512680662"><ele>281.5</ele><time>2026-05-03T08:40:32Z</time></trkpt><trkpt lat="43.89630046314564" lon="12.287934964732468"><ele>281.25</ele><time>2026-05-03T08:40:33Z</time></trkpt><trkpt lat="43.89641982182715" lon="12.288034768563852"><ele>281.0</ele><time>2026-05-03T08:40:34Z</time></trkpt><trkpt lat="43.89654105973487" lon="12.28813404072329"><ele>280.25</ele><time>2026-05-03T08:40:35Z</time></trkpt><trkpt lat="43.89665465228562" lon="12.288233879320652"><ele>279.5</ele><time>2026-05-03T08:40:36Z</time></trkpt><trkpt lat="43.89676809701698" lon="12.288332627514379"><ele>278.75</ele><time>2026-05-03T08:40:37Z</time></trkpt><trkpt lat="43.896880751445046" lon="12.288432606543385"><ele>278.0</ele><time>2026-05-03T08:40:38Z</time></trkpt><trkpt lat="43.89698119964061" lon="12.288539273355076"><ele>278.0</ele><time>2026-05-03T08:40:39Z</time></trkpt><trkpt lat="43.89709835051246" lon="12.288618340735152"><ele>278.0</ele><time>2026-05-03T08:40:40Z</time></trkpt><trkpt lat="43.89719676643988" lon="12.288716885548206"><ele>278.0</ele><time>2026-05-03T08:40:41Z</time></trkpt><trkpt lat="43.89729749568883" lon="12.28880966467712"><ele>278.0</ele><time>2026-05-03T08:40:42Z</time></trkpt><trkpt lat="43.89739967777358" lon="12.288902690006106"><ele>275.8</ele><time>2026-05-03T08:40:43Z</time></trkpt><trkpt lat="43.897502372992456" lon="12.288991236869617"><ele>273.6</ele><time>2026-05-03T08:40:44Z</time></trkpt><trkpt lat="43.89760770023989" lon="12.289059174332195"><ele>271.4</ele><time>2026-05-03T08:40:45Z</time></trkpt><trkpt lat="43.89769676454486" lon="12.289063416022213"><ele>269.2</ele><time>2026-05-03T08:40:46Z</time></trkpt><trkpt lat="43.897787098604475" lon="12.289023153756583"><ele>267.0</ele><time>2026-05-03T08:40:47Z</time></trkpt><trkpt lat="43.89787175600014" lon="12.288951298581365"><ele>266.25</ele><time>2026-05-03T08:40:48Z</time></trkpt><trkpt lat="43.89797420974767" lon="12.288947158200358"><ele>265.5</ele><time>2026-05-03T08:40:49Z</time></trkpt><trkpt lat="43.89808527670917" lon="12.288930832722874"><ele>264.75</ele><time>2026-05-03T08:40:50Z</time></trkpt><trkpt lat="43.89820357319848" lon="12.288920436847036"><ele>264.0</ele><time>2026-05-03T08:40:51Z</time></trkpt><trkpt lat="43.89832668740426" lon="12.288920108461166"><ele>263.75</ele><time>2026-05-03T08:40:52Z</time></trkpt><trkpt lat="43.89844927701046" lon="12.288938946513266"><ele>263.5</ele><time>2026-05-03T08:40:53Z</time></trkpt><trkpt lat="43.89857009985169" lon="12.288978113741978"><ele>263.25</ele><time>2026-05-03T08:40:54Z</time></trkpt><trkpt lat="43.89868865453106" lon="12.289043335958898"><ele>263.0</ele><time>2026-05-03T08:40:55Z</time></trkpt><trkpt lat="43.89880646103643" lon="12.289129086468957"><ele>263.0</ele><time>2026-05-03T08:40:56Z</time></trkpt><trkpt lat="43.898931103520404" lon="12.289211329016542"><ele>263.0</ele><time>2026-05-03T08:40:57Z</time></trkpt><trkpt lat="43.899042057702026" lon="12.289330545187143"><ele>263.0</ele><time>2026-05-03T08:40:58Z</time></trkpt><trkpt lat="43.89914187617311" lon="12.28946455839895"><ele>263.0</ele><time>2026-05-03T08:40:59Z</time></trkpt><trkpt lat="43.89922905510787" lon="12.289609848860678"><ele>263.25</ele><time>2026-05-03T08:41:00Z</time></trkpt><trkpt lat="43.89931237917707" lon="12.289757858709692"><ele>263.5</ele><time>2026-05-03T08:41:01Z</time></trkpt><trkpt lat="43.899395242500496" lon="12.28991120495472"><ele>263.75</ele><time>2026-05-03T08:41:02Z</time></trkpt><trkpt lat="43.89948051006583" lon="12.290062092948714"><ele>264.0</ele><time>2026-05-03T08:41:03Z</time></trkpt><trkpt lat="43.8995660031795" lon="12.290208097255134"><ele>264.0</ele><time>2026-05-03T08:41:04Z</time></trkpt><trkpt lat="43.89965492386625" lon="12.290360574822095"><ele>264.0</ele><time>2026-05-03T08:41:05Z</time></trkpt><trkpt lat="43.89973976109021" lon="12.29051358516713"><ele>264.0</ele><time>2026-05-03T08:41:06Z</time></trkpt><trkpt lat="43.89982625728027" lon="12.290669632438162"><ele>264.0</ele><time>2026-05-03T08:41:07Z</time></trkpt><trkpt lat="43.89991045953927" lon="12.290827567357555"><ele>264.75</ele><time>2026-05-03T08:41:08Z</time></trkpt><trkpt lat="43.89999373125757" lon="12.290986956853"><ele>265.5</ele><time>2026-05-03T08:41:09Z</time></trkpt><trkpt lat="43.90006824854525" lon="12.291157515622004"><ele>266.25</ele><time>2026-05-03T08:41:10Z</time></trkpt><trkpt lat="43.900124815433124" lon="12.291341851051165"><ele>267.0</ele><time>2026-05-03T08:41:11Z</time></trkpt><trkpt lat="43.9001594785446" lon="12.291541271926071"><ele>264.6666666666667</ele><time>2026-05-03T08:41:12Z</time></trkpt><trkpt lat="43.90016881800619" lon="12.291746881551084"><ele>262.33333333333337</ele><time>2026-05-03T08:41:13Z</time></trkpt><trkpt lat="43.900173571643904" lon="12.291958607358652"><ele>260.0</ele><time>2026-05-03T08:41:14Z</time></trkpt><trkpt lat="43.900180776628844" lon="12.292164714412255"><ele>258.6666666666667</ele><time>2026-05-03T08:41:15Z</time></trkpt><trkpt lat="43.90019425939965" lon="12.292371146807053"><ele>257.3333333333333</ele><time>2026-05-03T08:41:16Z</time></trkpt><trkpt lat="43.90020658881791" lon="12.292582490575903"><ele>256.0</ele><time>2026-05-03T08:41:17Z</time></trkpt><trkpt lat="43.90021435761691" lon="12.2927918831614"><ele>256.0</ele><time>2026-05-03T08:41:18Z</time></trkpt><trkpt lat="43.90022449893375" lon="12.292999373024486"><ele>256.0</ele><time>2026-05-03T08:41:19Z</time></trkpt><trkpt lat="43.900245965580325" lon="12.29320148928877"><ele>256.0</ele><time>2026-05-03T08:41:20Z</time></trkpt><trkpt lat="43.90029906922134" lon="12.293395432661024"><ele>256.0</ele><time>2026-05-03T08:41:21Z</time></trkpt><trkpt lat="43.90038834012956" lon="12.293567333471863"><ele>254.66666666666666</ele><time>2026-05-03T08:41:22Z</time></trkpt><trkpt lat="43.90051458995935" lon="12.293715674698788"><ele>253.33333333333331</ele><time>2026-05-03T08:41:23Z</time></trkpt><trkpt lat="43.90065809011065" lon="12.293842356643193"><ele>252.0</ele><time>2026-05-03T08:41:24Z</time></trkpt><trkpt lat="43.90079484966832" lon="12.29398244184156"><ele>250.33333333333331</ele><time>2026-05-03T08:41:25Z</time></trkpt><trkpt lat="43.90092095985513" lon="12.294119495605747"><ele>248.66666666666666</ele><time>2026-05-03T08:41:26Z</time></trkpt><trkpt lat="43.901041727185294" lon="12.29425883166473"><ele>247.0</ele><time>2026-05-03T08:41:27Z</time></trkpt><trkpt lat="43.901166977122834" lon="12.294388192799827"><ele>247.0</ele><time>2026-05-03T08:41:28Z</time></trkpt><trkpt lat="43.901288093190516" lon="12.294522911894816"><ele>247.0</ele><time>2026-05-03T08:41:29Z</time></trkpt><trkpt lat="43.90141082358402" lon="12.294646096054956"><ele>247.0</ele><time>2026-05-03T08:41:30Z</time></trkpt><trkpt lat="43.90153257442244" lon="12.29475909698377"><ele>244.66666666666666</ele><time>2026-05-03T08:41:31Z</time></trkpt><trkpt lat="43.90166784039202" lon="12.294846889875574"><ele>242.33333333333331</ele><time>2026-05-03T08:41:32Z</time></trkpt><trkpt lat="43.90182142159105" lon="12.294909391563838"><ele>240.0</ele><time>2026-05-03T08:41:33Z</time></trkpt><trkpt lat="43.90197825859427" lon="12.294954196288613"><ele>240.0</ele><time>2026-05-03T08:41:34Z</time></trkpt><trkpt lat="43.90213510650116" lon="12.294986918249572"><ele>240.0</ele><time>2026-05-03T08:41:35Z</time></trkpt><trkpt lat="43.9022847916891" lon="12.295043144793"><ele>240.0</ele><time>2026-05-03T08:41:36Z</time></trkpt><trkpt lat="43.90243346013964" lon="12.295058249143514"><ele>240.0</ele><time>2026-05-03T08:41:37Z</time></trkpt><trkpt lat="43.90256894049082" lon="12.295095853926496"><ele>240.0</ele><time>2026-05-03T08:41:38Z</time></trkpt><trkpt lat="43.90270404222475" lon="12.295118923884841"><ele>240.0</ele><time>2026-05-03T08:41:39Z</time></trkpt><trkpt lat="43.902837918182755" lon="12.295113823347679"><ele>240.0</ele><time>2026-05-03T08:41:40Z</time></trkpt><trkpt lat="43.90297165476744" lon="12.295084427890233"><ele>239.5</ele><time>2026-05-03T08:41:40.999Z</time></trkpt><trkpt lat="43.90309952193915" lon="12.295018662370742"><ele>239.0</ele><time>2026-05-03T08:41:41.999Z</time></trkpt><trkpt lat="43.90321269169952" lon="12.294923474192736"><ele>238.5</ele><time>2026-05-03T08:41:42.999Z</time></trkpt><trkpt lat="43.90330542395196" lon="12.294796087526867"><ele>238.0</ele><time>2026-05-03T08:41:43.999Z</time></trkpt><trkpt lat="43.90337655193421" lon="12.29463751237462"><ele>237.75</ele><time>2026-05-03T08:41:44.999Z</time></trkpt><trkpt lat="43.90344520685582" lon="12.294472836616881"><ele>237.5</ele><time>2026-05-03T08:41:45.999Z</time></trkpt><trkpt lat="43.90351843090427" lon="12.294312796572411"><ele>237.25</ele><time>2026-05-03T08:41:46.999Z</time></trkpt><trkpt lat="43.903600502203744" lon="12.294165437213053"><ele>237.0</ele><time>2026-05-03T08:41:47.999Z</time></trkpt><trkpt lat="43.90370756992381" lon="12.294050215233215"><ele>237.0</ele><time>2026-05-03T08:41:48.999Z</time></trkpt><trkpt lat="43.90380848856925" lon="12.293925479268722"><ele>237.0</ele><time>2026-05-03T08:41:49.999Z</time></trkpt><trkpt lat="43.903909830204576" lon="12.293808284281914"><ele>237.0</ele><time>2026-05-03T08:41:50.999Z</time></trkpt><trkpt lat="43.904004845817894" lon="12.293700243671731"><ele>237.0</ele><time>2026-05-03T08:41:51.999Z</time></trkpt><trkpt lat="43.90409639343916" lon="12.293601353479069"><ele>237.75</ele><time>2026-05-03T08:41:52.999Z</time></trkpt><trkpt lat="43.904182741227984" lon="12.29349395558723"><ele>238.5</ele><time>2026-05-03T08:41:53.999Z</time></trkpt><trkpt lat="43.904283192714004" lon="12.293411456082909"><ele>239.25</ele><time>2026-05-03T08:41:54.999Z</time></trkpt><trkpt lat="43.9043929493765" lon="12.293350545025314"><ele>240.0</ele><time>2026-05-03T08:41:55.999Z</time></trkpt><trkpt lat="43.90451997509674" lon="12.293332815404904"><ele>240.0</ele><time>2026-05-03T08:41:56.999Z</time></trkpt><trkpt lat="43.904651058507454" lon="12.293329827336997"><ele>240.0</ele><time>2026-05-03T08:41:57.999Z</time></trkpt><trkpt lat="43.90478162367697" lon="12.293351549180546"><ele>240.0</ele><time>2026-05-03T08:41:58.999Z</time></trkpt><trkpt lat="43.90491184971112" lon="12.293390164743975"><ele>240.0</ele><time>2026-05-03T08:41:59.999Z</time></trkpt><trkpt lat="43.905043761312854" lon="12.29341970861783"><ele>240.5</ele><time>2026-05-03T08:42:00.999Z</time></trkpt><trkpt lat="43.90517193266054" lon="12.293470354283706"><ele>241.0</ele><time>2026-05-03T08:42:01.999Z</time></trkpt><trkpt lat="43.90529747078926" lon="12.293511762944359"><ele>241.5</ele><time>2026-05-03T08:42:02.999Z</time></trkpt><trkpt lat="43.90542329834995" lon="12.293547008991073"><ele>242.0</ele><time>2026-05-03T08:42:03.999Z</time></trkpt><trkpt lat="43.905552620376355" lon="12.29358046627849"><ele>242.0</ele><time>2026-05-03T08:42:04.999Z</time></trkpt><trkpt lat="43.90568142322133" lon="12.293609695136366"><ele>242.0</ele><time>2026-05-03T08:42:05.999Z</time></trkpt><trkpt lat="43.9058105638882" lon="12.293630348739512"><ele>242.0</ele><time>2026-05-03T08:42:06.999Z</time></trkpt><trkpt lat="43.905941139273146" lon="12.293648445988806"><ele>242.0</ele><time>2026-05-03T08:42:07.999Z</time></trkpt><trkpt lat="43.906069640487594" lon="12.29366383190068"><ele>241.75</ele><time>2026-05-03T08:42:08.999Z</time></trkpt><trkpt lat="43.9061900607177" lon="12.29368282574516"><ele>241.5</ele><time>2026-05-03T08:42:09.999Z</time></trkpt><trkpt lat="43.90630307964038" lon="12.293706700054582"><ele>241.25</ele><time>2026-05-03T08:42:10.999Z</time></trkpt><trkpt lat="43.90641776312093" lon="12.29373432376682"><ele>241.0</ele><time>2026-05-03T08:42:11.999Z</time></trkpt><trkpt lat="43.90653626695247" lon="12.293757785053085"><ele>241.0</ele><time>2026-05-03T08:42:12.999Z</time></trkpt><trkpt lat="43.90665449672625" lon="12.293785449335948"><ele>241.0</ele><time>2026-05-03T08:42:13.999Z</time></trkpt><trkpt lat="43.90677062493407" lon="12.293812659351492"><ele>241.0</ele><time>2026-05-03T08:42:14.999Z</time></trkpt><trkpt lat="43.90688511413473" lon="12.293847083354548"><ele>241.0</ele><time>2026-05-03T08:42:16Z</time></trkpt><trkpt lat="43.906994291157844" lon="12.293872817871376"><ele>240.4</ele><time>2026-05-03T08:42:17Z</time></trkpt><trkpt lat="43.90709970748334" lon="12.293897550852504"><ele>239.8</ele><time>2026-05-03T08:42:18Z</time></trkpt><trkpt lat="43.9072038549754" lon="12.293922031055617"><ele>239.20000000000002</ele><time>2026-05-03T08:42:19Z</time></trkpt><trkpt lat="43.90730427052752" lon="12.293945429103228"><ele>238.60000000000002</ele><time>2026-05-03T08:42:20Z</time></trkpt><trkpt lat="43.907402867152356" lon="12.293967254031156"><ele>238.0</ele><time>2026-05-03T08:42:21Z</time></trkpt><trkpt lat="43.907504372572305" lon="12.29398756954503"><ele>238.2</ele><time>2026-05-03T08:42:22Z</time></trkpt><trkpt lat="43.90760824589962" lon="12.294012703866349"><ele>238.4</ele><time>2026-05-03T08:42:23Z</time></trkpt><trkpt lat="43.90771308146689" lon="12.29404118286433"><ele>238.59999999999997</ele><time>2026-05-03T08:42:24Z</time></trkpt><trkpt lat="43.90781740235155" lon="12.29406467796268"><ele>238.79999999999998</ele><time>2026-05-03T08:42:25Z</time></trkpt><trkpt lat="43.90792350565556" lon="12.294091173595696"><ele>239.0</ele><time>2026-05-03T08:42:26Z</time></trkpt><trkpt lat="43.90802995968601" lon="12.294128510655037"><ele>239.0</ele><time>2026-05-03T08:42:27Z</time></trkpt><trkpt lat="43.908134309638065" lon="12.294175679856917"><ele>238.99999999999997</ele><time>2026-05-03T08:42:28Z</time></trkpt><trkpt lat="43.908229730367644" lon="12.294249953916326"><ele>238.99999999999997</ele><time>2026-05-03T08:42:29Z</time></trkpt><trkpt lat="43.90830845602673" lon="12.294351395347563"><ele>239.0</ele><time>2026-05-03T08:42:30Z</time></trkpt><trkpt lat="43.90836657689284" lon="12.2944816766075"><ele>239.0</ele><time>2026-05-03T08:42:31Z</time></trkpt><trkpt lat="43.90841571151713" lon="12.294617045621827"><ele>240.25</ele><time>2026-05-03T08:42:32Z</time></trkpt><trkpt lat="43.90845993983914" lon="12.294758173929093"><ele>241.5</ele><time>2026-05-03T08:42:33Z</time></trkpt><trkpt lat="43.90850645271277" lon="12.294903645845391"><ele>242.75</ele><time>2026-05-03T08:42:34Z</time></trkpt><trkpt lat="43.908555021584334" lon="12.295052330051197"><ele>244.0</ele><time>2026-05-03T08:42:35Z</time></trkpt><trkpt lat="43.90860246245697" lon="12.295204603171522"><ele>244.0</ele><time>2026-05-03T08:42:36Z</time></trkpt><trkpt lat="43.90865301793413" lon="12.295360481020921"><ele>244.0</ele><time>2026-05-03T08:42:37Z</time></trkpt><trkpt lat="43.908706350065394" lon="12.295518151995864"><ele>244.0</ele><time>2026-05-03T08:42:38Z</time></trkpt><trkpt lat="43.908764499013756" lon="12.295681162588025"><ele>244.0</ele><time>2026-05-03T08:42:39Z</time></trkpt><trkpt lat="43.908824737029164" lon="12.295858505379247"><ele>243.33333333333331</ele><time>2026-05-03T08:42:40Z</time></trkpt><trkpt lat="43.90888591113469" lon="12.29604803248044"><ele>242.66666666666669</ele><time>2026-05-03T08:42:41Z</time></trkpt><trkpt lat="43.90894682020225" lon="12.296249206625216"><ele>242.0</ele><time>2026-05-03T08:42:42Z</time></trkpt><trkpt lat="43.90899646479652" lon="12.29645688962598"><ele>241.66666666666669</ele><time>2026-05-03T08:42:43Z</time></trkpt><trkpt lat="43.909035482699466" lon="12.296669313590064"><ele>241.33333333333331</ele><time>2026-05-03T08:42:44Z</time></trkpt><trkpt lat="43.90907755554492" lon="12.296872661930765"><ele>241.0</ele><time>2026-05-03T08:42:45Z</time></trkpt><trkpt lat="43.909143357540536" lon="12.297059691320905"><ele>241.0</ele><time>2026-05-03T08:42:46Z</time></trkpt><trkpt lat="43.90923068737927" lon="12.297229355161775"><ele>241.0</ele><time>2026-05-03T08:42:47Z</time></trkpt><trkpt lat="43.90932291604781" lon="12.297385441802371"><ele>241.0</ele><time>2026-05-03T08:42:48Z</time></trkpt><trkpt lat="43.90940967035685" lon="12.29753900264588"><ele>241.0</ele><time>2026-05-03T08:42:49Z</time></trkpt><trkpt lat="43.909490942020774" lon="12.297690432224513"><ele>242.25</ele><time>2026-05-03T08:42:50Z</time></trkpt><trkpt lat="43.909578982675036" lon="12.297829052046815"><ele>243.5</ele><time>2026-05-03T08:42:51Z</time></trkpt><trkpt lat="43.90967980565646" lon="12.297955394394489"><ele>244.75</ele><time>2026-05-03T08:42:52Z</time></trkpt><trkpt lat="43.90979153436428" lon="12.298071721356514"><ele>246.0</ele><time>2026-05-03T08:42:53Z</time></trkpt><trkpt lat="43.90991246065509" lon="12.298175915951692"><ele>246.5</ele><time>2026-05-03T08:42:54Z</time></trkpt><trkpt lat="43.91003663347065" lon="12.29827017613033"><ele>247.0</ele><time>2026-05-03T08:42:55Z</time></trkpt><trkpt lat="43.91015463297016" lon="12.298353511889852"><ele>247.5</ele><time>2026-05-03T08:42:56Z</time></trkpt><trkpt lat="43.91026535436219" lon="12.298438159582963"><ele>248.0</ele><time>2026-05-03T08:42:57Z</time></trkpt><trkpt lat="43.91036417906141" lon="12.298537995803963"><ele>248.0</ele><time>2026-05-03T08:42:58Z</time></trkpt><trkpt lat="43.91044102933931" lon="12.298661761867358"><ele>248.0</ele><time>2026-05-03T08:42:59Z</time></trkpt><trkpt lat="43.910497749266135" lon="12.298812954121521"><ele>248.0</ele><time>2026-05-03T08:43:00Z</time></trkpt><trkpt lat="43.910531536205625" lon="12.298987502859255"><ele>248.0</ele><time>2026-05-03T08:43:01Z</time></trkpt><trkpt lat="43.91054426914178" lon="12.299182414948993"><ele>247.5</ele><time>2026-05-03T08:43:02Z</time></trkpt><trkpt lat="43.910550036729695" lon="12.29938429180676"><ele>247.0</ele><time>2026-05-03T08:43:03Z</time></trkpt><trkpt lat="43.91054819158423" lon="12.299588928989069"><ele>246.5</ele><time>2026-05-03T08:43:04Z</time></trkpt><trkpt lat="43.91054237043826" lon="12.299794756333945"><ele>246.0</ele><time>2026-05-03T08:43:05Z</time></trkpt><trkpt lat="43.9105290988107" lon="12.300001168631542"><ele>246.0</ele><time>2026-05-03T08:43:06Z</time></trkpt><trkpt lat="43.910507629377875" lon="12.300204057288267"><ele>246.0</ele><time>2026-05-03T08:43:07Z</time></trkpt><trkpt lat="43.91048282798255" lon="12.300403279156965"><ele>246.0</ele><time>2026-05-03T08:43:08Z</time></trkpt><trkpt lat="43.91045999137043" lon="12.300599441455217"><ele>246.0</ele><time>2026-05-03T08:43:09Z</time></trkpt><trkpt lat="43.91043555866577" lon="12.300785733191923"><ele>246.75</ele><time>2026-05-03T08:43:10Z</time></trkpt><trkpt lat="43.91040818700917" lon="12.300963103087645"><ele>247.5</ele><time>2026-05-03T08:43:11Z</time></trkpt><trkpt lat="43.910375757000416" lon="12.301133650636823"><ele>248.25</ele><time>2026-05-03T08:43:12Z</time></trkpt><trkpt lat="43.91033884806962" lon="12.301302098859564"><ele>249.0</ele><time>2026-05-03T08:43:13Z</time></trkpt><trkpt lat="43.910302247595276" lon="12.301471913055076"><ele>249.25</ele><time>2026-05-03T08:43:14Z</time></trkpt><trkpt lat="43.91027086881537" lon="12.301640684319688"><ele>249.5</ele><time>2026-05-03T08:43:15Z</time></trkpt><trkpt lat="43.91025348522317" lon="12.301809040573012"><ele>249.75</ele><time>2026-05-03T08:43:16Z</time></trkpt><trkpt lat="43.91024153897823" lon="12.301967976708738"><ele>250.0</ele><time>2026-05-03T08:43:17Z</time></trkpt><trkpt lat="43.91022370774153" lon="12.302119126988504"><ele>249.0</ele><time>2026-05-03T08:43:18Z</time></trkpt><trkpt lat="43.91018839966948" lon="12.302256819492557"><ele>248.0</ele><time>2026-05-03T08:43:19Z</time></trkpt><trkpt lat="43.91014213143075" lon="12.302377796030799"><ele>247.0</ele><time>2026-05-03T08:43:20Z</time></trkpt><trkpt lat="43.910092990799626" lon="12.302487186878277"><ele>246.0</ele><time>2026-05-03T08:43:21Z</time></trkpt><trkpt lat="43.91003868522439" lon="12.30259631369599"><ele>245.0</ele><time>2026-05-03T08:43:22Z</time></trkpt><trkpt lat="43.909997750184594" lon="12.302715499228672"><ele>244.2</ele><time>2026-05-03T08:43:23Z</time></trkpt><trkpt lat="43.90998652013733" lon="12.302848853339832"><ele>243.4</ele><time>2026-05-03T08:43:24Z</time></trkpt><trkpt lat="43.910011857360615" lon="12.302984108448022"><ele>242.60000000000002</ele><time>2026-05-03T08:43:25Z</time></trkpt><trkpt lat="43.91006468182162" lon="12.30312179707335"><ele>241.8</ele><time>2026-05-03T08:43:26Z</time></trkpt><trkpt lat="43.91016014544864" lon="12.30324087781213"><ele>241.0</ele><time>2026-05-03T08:43:27Z</time></trkpt><trkpt lat="43.91025405954561" lon="12.303357615092834"><ele>241.0</ele><time>2026-05-03T08:43:28Z</time></trkpt><trkpt lat="43.910363701903" lon="12.303463054516424"><ele>241.0</ele><time>2026-05-03T08:43:29Z</time></trkpt><trkpt lat="43.91045909965554" lon="12.3035888507221"><ele>241.0</ele><time>2026-05-03T08:43:30Z</time></trkpt><trkpt lat="43.91055729472822" lon="12.303705449360523"><ele>241.0</ele><time>2026-05-03T08:43:31Z</time></trkpt><trkpt lat="43.910659694973184" lon="12.303818601289105"><ele>238.75</ele><time>2026-05-03T08:43:32Z</time></trkpt><trkpt lat="43.910765444956674" lon="12.303936212877316"><ele>236.5</ele><time>2026-05-03T08:43:33Z</time></trkpt><trkpt lat="43.91089194756857" lon="12.304024642098499"><ele>234.25</ele><time>2026-05-03T08:43:34Z</time></trkpt><trkpt lat="43.91102964030215" lon="12.304088232050386"><ele>232.0</ele><time>2026-05-03T08:43:35Z</time></trkpt><trkpt lat="43.91117473504259" lon="12.304131587511728"><ele>231.66666666666666</ele><time>2026-05-03T08:43:36Z</time></trkpt><trkpt lat="43.91132490776017" lon="12.304161815751927"><ele>231.33333333333331</ele><time>2026-05-03T08:43:37Z</time></trkpt><trkpt lat="43.91147895847282" lon="12.304182142579103"><ele>231.0</ele><time>2026-05-03T08:43:38Z</time></trkpt><trkpt lat="43.91163237955456" lon="12.304199671477752"><ele>231.0</ele><time>2026-05-03T08:43:39Z</time></trkpt><trkpt lat="43.91178384720997" lon="12.304214993846276"><ele>231.0</ele><time>2026-05-03T08:43:39.999Z</time></trkpt><trkpt lat="43.9119334976178" lon="12.304230233972596"><ele>231.0</ele><time>2026-05-03T08:43:40.999Z</time></trkpt><trkpt lat="43.91208080072789" lon="12.304246428694361"><ele>231.0</ele><time>2026-05-03T08:43:41.999Z</time></trkpt><trkpt lat="43.91222584517645" lon="12.30426439815092"><ele>231.0</ele><time>2026-05-03T08:43:42.999Z</time></trkpt><trkpt lat="43.91237130782967" lon="12.304271149024974"><ele>231.0</ele><time>2026-05-03T08:43:43.999Z</time></trkpt><trkpt lat="43.91251346329502" lon="12.304310175129737"><ele>231.0</ele><time>2026-05-03T08:43:44.999Z</time></trkpt><trkpt lat="43.91265717410313" lon="12.304365271751855"><ele>230.0</ele><time>2026-05-03T08:43:45.999Z</time></trkpt><trkpt lat="43.9127997556148" lon="12.304436875348998"><ele>229.0</ele><time>2026-05-03T08:43:46.999Z</time></trkpt><trkpt lat="43.9129424482725" lon="12.304516381503046"><ele>228.0</ele><time>2026-05-03T08:43:47.999Z</time></trkpt><trkpt lat="43.91308626432" lon="12.30459200645509"><ele>228.0</ele><time>2026-05-03T08:43:48.999Z</time></trkpt><trkpt lat="43.91323554515655" lon="12.304663117686179"><ele>228.0</ele><time>2026-05-03T08:43:49.999Z</time></trkpt><trkpt lat="43.91338496977162" lon="12.304738541822191"><ele>228.0</ele><time>2026-05-03T08:43:50.999Z</time></trkpt><trkpt lat="43.91352566458984" lon="12.304847580039107"><ele>229.0</ele><time>2026-05-03T08:43:51.999Z</time></trkpt><trkpt lat="43.91367684589535" lon="12.30492655234302"><ele>230.0</ele><time>2026-05-03T08:43:52.999Z</time></trkpt><trkpt lat="43.913828107868845" lon="12.305005469662442"><ele>231.0</ele><time>2026-05-03T08:43:53.999Z</time></trkpt><trkpt lat="43.91398079242919" lon="12.305085093267536"><ele>231.0</ele><time>2026-05-03T08:43:54.999Z</time></trkpt><trkpt lat="43.91413268940226" lon="12.30516430613253"><ele>231.0</ele><time>2026-05-03T08:43:55.999Z</time></trkpt><trkpt lat="43.91429125027132" lon="12.305223011065866"><ele>231.0</ele><time>2026-05-03T08:43:56.999Z</time></trkpt><trkpt lat="43.914441731160835" lon="12.305301140975978"><ele>231.33333333333331</ele><time>2026-05-03T08:43:57.999Z</time></trkpt><trkpt lat="43.914591202732495" lon="12.305378836994915"><ele>231.66666666666666</ele><time>2026-05-03T08:43:58.999Z</time></trkpt><trkpt lat="43.91473214823258" lon="12.305476761583503"><ele>232.0</ele><time>2026-05-03T08:43:59.999Z</time></trkpt><trkpt lat="43.91488164721473" lon="12.305531534909145"><ele>232.0</ele><time>2026-05-03T08:44:00.999Z</time></trkpt><trkpt lat="43.91502487694791" lon="12.305605923043617"><ele>232.0</ele><time>2026-05-03T08:44:01.999Z</time></trkpt><trkpt lat="43.91516845393094" lon="12.305680806949443"><ele>232.0</ele><time>2026-05-03T08:44:02.999Z</time></trkpt><trkpt lat="43.91531121752338" lon="12.305753698447482"><ele>232.0</ele><time>2026-05-03T08:44:03.999Z</time></trkpt><trkpt lat="43.91545314615555" lon="12.305826587110651"><ele>232.0</ele><time>2026-05-03T08:44:04.999Z</time></trkpt><trkpt lat="43.915599024024914" lon="12.305893497747789"><ele>232.0</ele><time>2026-05-03T08:44:05.999Z</time></trkpt><trkpt lat="43.91574010131558" lon="12.305950681952131"><ele>232.0</ele><time>2026-05-03T08:44:06.999Z</time></trkpt><trkpt lat="43.91587830236659" lon="12.306000806821498"><ele>232.0</ele><time>2026-05-03T08:44:07.999Z</time></trkpt><trkpt lat="43.91601298417021" lon="12.30604132327418"><ele>232.0</ele><time>2026-05-03T08:44:08.999Z</time></trkpt><trkpt lat="43.91614589568736" lon="12.306080029046349"><ele>232.0</ele><time>2026-05-03T08:44:09.999Z</time></trkpt><trkpt lat="43.9162761343149" lon="12.306126862617205"><ele>232.5</ele><time>2026-05-03T08:44:10.999Z</time></trkpt><trkpt lat="43.91640401278911" lon="12.30618692196273"><ele>233.0</ele><time>2026-05-03T08:44:11.999Z</time></trkpt><trkpt lat="43.916526919658516" lon="12.306260588453009"><ele>233.5</ele><time>2026-05-03T08:44:12.999Z</time></trkpt><trkpt lat="43.91664361798028" lon="12.30635859531996"><ele>234.0</ele><time>2026-05-03T08:44:13.999Z</time></trkpt><trkpt lat="43.91674926630516" lon="12.306474586992731"><ele>233.0</ele><time>2026-05-03T08:44:14.999Z</time></trkpt><trkpt lat="43.916848586664976" lon="12.306609953599866"><ele>232.0</ele><time>2026-05-03T08:44:15.999Z</time></trkpt><trkpt lat="43.91694923773809" lon="12.306752595488826"><ele>231.0</ele><time>2026-05-03T08:44:16.999Z</time></trkpt><trkpt lat="43.91705338675198" lon="12.306899241351413"><ele>230.0</ele><time>2026-05-03T08:44:17.999Z</time></trkpt><trkpt lat="43.9171607870866" lon="12.307045087596086"><ele>230.0</ele><time>2026-05-03T08:44:18.999Z</time></trkpt><trkpt lat="43.91726849958361" lon="12.307191254990393"><ele>230.0</ele><time>2026-05-03T08:44:19.999Z</time></trkpt><trkpt lat="43.91737276693638" lon="12.307341945770226"><ele>230.0</ele><time>2026-05-03T08:44:21Z</time></trkpt><trkpt lat="43.91747721181336" lon="12.3074903918305"><ele>229.75</ele><time>2026-05-03T08:44:22Z</time></trkpt><trkpt lat="43.917580276662854" lon="12.307636162534692"><ele>229.5</ele><time>2026-05-03T08:44:23Z</time></trkpt><trkpt lat="43.917681528056264" lon="12.307779319325588"><ele>229.25</ele><time>2026-05-03T08:44:24Z</time></trkpt><trkpt lat="43.9177786764453" lon="12.307917472648805"><ele>229.0</ele><time>2026-05-03T08:44:25Z</time></trkpt><trkpt lat="43.91787293615318" lon="12.308051456403735"><ele>228.25</ele><time>2026-05-03T08:44:26Z</time></trkpt><trkpt lat="43.91796826068551" lon="12.308187785542867"><ele>227.5</ele><time>2026-05-03T08:44:27Z</time></trkpt><trkpt lat="43.91806679495436" lon="12.308326384455745"><ele>226.75</ele><time>2026-05-03T08:44:28Z</time></trkpt><trkpt lat="43.9181651885265" lon="12.308470194792033"><ele>226.0</ele><time>2026-05-03T08:44:29Z</time></trkpt><trkpt lat="43.918267749774955" lon="12.308613576045897"><ele>226.0</ele><time>2026-05-03T08:44:30Z</time></trkpt><trkpt lat="43.918370444439624" lon="12.308755911136638"><ele>226.0</ele><time>2026-05-03T08:44:31Z</time></trkpt><trkpt lat="43.9184741159044" lon="12.308899946389934"><ele>226.0</ele><time>2026-05-03T08:44:32Z</time></trkpt><trkpt lat="43.9185776220671" lon="12.309047919027913"><ele>226.0</ele><time>2026-05-03T08:44:33Z</time></trkpt><trkpt lat="43.91868029853282" lon="12.309192858603792"><ele>225.5</ele><time>2026-05-03T08:44:34Z</time></trkpt><trkpt lat="43.918782815461824" lon="12.30933524188151"><ele>225.0</ele><time>2026-05-03T08:44:35Z</time></trkpt><trkpt lat="43.918885365542224" lon="12.309475912912024"><ele>224.5</ele><time>2026-05-03T08:44:36Z</time></trkpt><trkpt lat="43.91898532578293" lon="12.309618433417121"><ele>224.0</ele><time>2026-05-03T08:44:37Z</time></trkpt><trkpt lat="43.91908213500543" lon="12.309767756824728"><ele>224.0</ele><time>2026-05-03T08:44:38Z</time></trkpt><trkpt lat="43.919180231934305" lon="12.309915462268165"><ele>224.0</ele><time>2026-05-03T08:44:39Z</time></trkpt><trkpt lat="43.919281662258626" lon="12.310056587711198"><ele>224.0</ele><time>2026-05-03T08:44:40Z</time></trkpt><trkpt lat="43.919385370068134" lon="12.31020105429988"><ele>224.0</ele><time>2026-05-03T08:44:41Z</time></trkpt><trkpt lat="43.9194879862517" lon="12.310354924432806"><ele>224.0</ele><time>2026-05-03T08:44:42Z</time></trkpt><trkpt lat="43.9195853706287" lon="12.310517156165647"><ele>224.0</ele><time>2026-05-03T08:44:43Z</time></trkpt><trkpt lat="43.919675828787675" lon="12.310686824779713"><ele>224.0</ele><time>2026-05-03T08:44:44Z</time></trkpt><trkpt lat="43.91976029527275" lon="12.310864398374633"><ele>222.5</ele><time>2026-05-03T08:44:45Z</time></trkpt><trkpt lat="43.9198342350704" lon="12.311048352016751"><ele>221.0</ele><time>2026-05-03T08:44:46Z</time></trkpt><trkpt lat="43.91990235082031" lon="12.311225266798226"><ele>219.5</ele><time>2026-05-03T08:44:47Z</time></trkpt><trkpt lat="43.919970166162926" lon="12.311396959271416"><ele>218.0</ele><time>2026-05-03T08:44:48Z</time></trkpt><trkpt lat="43.92004736953408" lon="12.31155319882161"><ele>217.75</ele><time>2026-05-03T08:44:49Z</time></trkpt><trkpt lat="43.920146265535756" lon="12.311684332590433"><ele>217.5</ele><time>2026-05-03T08:44:50Z</time></trkpt><trkpt lat="43.920260577958125" lon="12.311796435927489"><ele>217.25</ele><time>2026-05-03T08:44:51Z</time></trkpt><trkpt lat="43.920379410777024" lon="12.311905418722441"><ele>217.0</ele><time>2026-05-03T08:44:52Z</time></trkpt><trkpt lat="43.92049228235225" lon="12.312012335674448"><ele>217.0</ele><time>2026-05-03T08:44:53Z</time></trkpt><trkpt lat="43.920600440985204" lon="12.312115960276893"><ele>217.0</ele><time>2026-05-03T08:44:54Z</time></trkpt><trkpt lat="43.92070335471523" lon="12.31221707679226"><ele>217.0</ele><time>2026-05-03T08:44:55Z</time></trkpt><trkpt lat="43.92080502770348" lon="12.312316672635394"><ele>217.0</ele><time>2026-05-03T08:44:56Z</time></trkpt><trkpt lat="43.92091129547895" lon="12.312413638742965"><ele>214.75</ele><time>2026-05-03T08:44:57Z</time></trkpt><trkpt lat="43.921016790764526" lon="12.312512767670615"><ele>212.5</ele><time>2026-05-03T08:44:58Z</time></trkpt><trkpt lat="43.92112560675444" lon="12.312618910448721"><ele>210.25</ele><time>2026-05-03T08:44:59Z</time></trkpt><trkpt lat="43.92123854918426" lon="12.312726267608095"><ele>208.0</ele><time>2026-05-03T08:45:00Z</time></trkpt><trkpt lat="43.92135534009025" lon="12.312835877924178"><ele>208.0</ele><time>2026-05-03T08:45:01Z</time></trkpt><trkpt lat="43.9214730510829" lon="12.31294714781095"><ele>208.0</ele><time>2026-05-03T08:45:02Z</time></trkpt><trkpt lat="43.92159110486669" lon="12.313060754172625"><ele>208.0</ele><time>2026-05-03T08:45:03Z</time></trkpt><trkpt lat="43.92170137258757" lon="12.313178648884131"><ele>208.0</ele><time>2026-05-03T08:45:04Z</time></trkpt><trkpt lat="43.92180058602588" lon="12.313300685557069"><ele>209.25</ele><time>2026-05-03T08:45:05Z</time></trkpt><trkpt lat="43.92188786338738" lon="12.313433333878086"><ele>210.5</ele><time>2026-05-03T08:45:06Z</time></trkpt><trkpt lat="43.92196832354358" lon="12.313564176673664"><ele>211.75</ele><time>2026-05-03T08:45:07Z</time></trkpt><trkpt lat="43.92205062730978" lon="12.313699747933034"><ele>213.0</ele><time>2026-05-03T08:45:08Z</time></trkpt><trkpt lat="43.92213498420473" lon="12.31383511544359"><ele>212.75</ele><time>2026-05-03T08:45:09Z</time></trkpt><trkpt lat="43.92222274930935" lon="12.313974007031732"><ele>212.5</ele><time>2026-05-03T08:45:10Z</time></trkpt><trkpt lat="43.92229518817261" lon="12.31410104996963"><ele>212.25</ele><time>2026-05-03T08:45:11Z</time></trkpt><trkpt lat="43.922372422220924" lon="12.314222501368183"><ele>212.0</ele><time>2026-05-03T08:45:12Z</time></trkpt><trkpt lat="43.92243430633891" lon="12.314329503892528"><ele>212.0</ele><time>2026-05-03T08:45:13Z</time></trkpt><trkpt lat="43.922497916058106" lon="12.31443112349155"><ele>212.0</ele><time>2026-05-03T08:45:14Z</time></trkpt><trkpt lat="43.9225583111177" lon="12.314530196849974"><ele>212.0</ele><time>2026-05-03T08:45:15Z</time></trkpt><trkpt lat="43.9226187056119" lon="12.314627733571719"><ele>212.0</ele><time>2026-05-03T08:45:16Z</time></trkpt><trkpt lat="43.92267985189861" lon="12.31472451784437"><ele>212.0</ele><time>2026-05-03T08:45:17Z</time></trkpt><trkpt lat="43.92273425765848" lon="12.314810676619587"><ele>212.83333333333334</ele><time>2026-05-03T08:45:18Z</time></trkpt><trkpt lat="43.92278464272238" lon="12.314893481598489"><ele>213.66666666666669</ele><time>2026-05-03T08:45:19Z</time></trkpt><trkpt lat="43.92282698122965" lon="12.314978926418956"><ele>214.5</ele><time>2026-05-03T08:45:20Z</time></trkpt><trkpt lat="43.922861445914926" lon="12.315065663064638"><ele>215.33333333333331</ele><time>2026-05-03T08:45:21Z</time></trkpt><trkpt lat="43.922893987353724" lon="12.315149415627262"><ele>216.16666666666666</ele><time>2026-05-03T08:45:22Z</time></trkpt><trkpt lat="43.92295554161153" lon="12.31531695639834"><ele>217.0</ele><time>2026-05-03T08:45:24Z</time></trkpt><trkpt lat="43.92298601362563" lon="12.315422799073442"><ele>217.0</ele><time>2026-05-03T08:45:25Z</time></trkpt><trkpt lat="43.92301493116499" lon="12.315547624301676"><ele>217.0</ele><time>2026-05-03T08:45:26Z</time></trkpt><trkpt lat="43.923054579807726" lon="12.315682813266031"><ele>217.0</ele><time>2026-05-03T08:45:27Z</time></trkpt><trkpt lat="43.923093078861314" lon="12.31581882898874"><ele>217.0</ele><time>2026-05-03T08:45:28Z</time></trkpt><trkpt lat="43.92313418937979" lon="12.315960154122882"><ele>217.0</ele><time>2026-05-03T08:45:29Z</time></trkpt><trkpt lat="43.92317234464359" lon="12.31608784711129"><ele>217.0</ele><time>2026-05-03T08:45:30Z</time></trkpt><trkpt lat="43.923228751161794" lon="12.316210370805187"><ele>217.0</ele><time>2026-05-03T08:45:31Z</time></trkpt><trkpt lat="43.92329028530734" lon="12.316320019717079"><ele>217.0</ele><time>2026-05-03T08:45:32Z</time></trkpt><trkpt lat="43.923382529805366" lon="12.316416503726078"><ele>217.0</ele><time>2026-05-03T08:45:33Z</time></trkpt><trkpt lat="43.92345927574607" lon="12.31652216981548"><ele>217.0</ele><time>2026-05-03T08:45:34Z</time></trkpt><trkpt lat="43.92354400406763" lon="12.31662450209875"><ele>216.0</ele><time>2026-05-03T08:45:35Z</time></trkpt><trkpt lat="43.923625125206" lon="12.316738776116932"><ele>215.0</ele><time>2026-05-03T08:45:36Z</time></trkpt><trkpt lat="43.92370870345027" lon="12.316848082311115"><ele>214.0</ele><time>2026-05-03T08:45:37Z</time></trkpt><trkpt lat="43.9237873244447" lon="12.316956472682612"><ele>213.0</ele><time>2026-05-03T08:45:38Z</time></trkpt><trkpt lat="43.92386524840548" lon="12.31706171398417"><ele>213.0</ele><time>2026-05-03T08:45:39Z</time></trkpt><trkpt lat="43.92394441387111" lon="12.317167498861412"><ele>213.0</ele><time>2026-05-03T08:45:39.999Z</time></trkpt><trkpt lat="43.92402392540394" lon="12.317268628231805"><ele>213.0</ele><time>2026-05-03T08:45:40.999Z</time></trkpt><trkpt lat="43.92410217237751" lon="12.317375956505192"><ele>213.0</ele><time>2026-05-03T08:45:41.999Z</time></trkpt><trkpt lat="43.92417993320476" lon="12.317480982113828"><ele>213.0</ele><time>2026-05-03T08:45:42.999Z</time></trkpt><trkpt lat="43.92426141283726" lon="12.317583929499788"><ele>213.4</ele><time>2026-05-03T08:45:43.999Z</time></trkpt><trkpt lat="43.92434472359998" lon="12.317674741375907"><ele>213.8</ele><time>2026-05-03T08:45:44.999Z</time></trkpt><trkpt lat="43.92443150415975" lon="12.317757113479766"><ele>214.2</ele><time>2026-05-03T08:45:45.999Z</time></trkpt><trkpt lat="43.924523612581915" lon="12.317823791483212"><ele>214.6</ele><time>2026-05-03T08:45:46.999Z</time></trkpt><trkpt lat="43.924623199669924" lon="12.317883167942062"><ele>215.0</ele><time>2026-05-03T08:45:47.999Z</time></trkpt><trkpt lat="43.92473000393812" lon="12.317937285817408"><ele>215.0</ele><time>2026-05-03T08:45:48.999Z</time></trkpt><trkpt lat="43.92484012797964" lon="12.317983508427268"><ele>215.0</ele><time>2026-05-03T08:45:49.999Z</time></trkpt><trkpt lat="43.924951224725795" lon="12.318031884412594"><ele>215.0</ele><time>2026-05-03T08:45:50.999Z</time></trkpt><trkpt lat="43.92506082909618" lon="12.318082704808374"><ele>215.0</ele><time>2026-05-03T08:45:51.999Z</time></trkpt><trkpt lat="43.925172371901645" lon="12.318136417849578"><ele>214.25</ele><time>2026-05-03T08:45:52.999Z</time></trkpt><trkpt lat="43.925286564227584" lon="12.318197962090082"><ele>213.5</ele><time>2026-05-03T08:45:53.999Z</time></trkpt><trkpt lat="43.92539532578904" lon="12.318277542585086"><ele>212.75</ele><time>2026-05-03T08:45:54.999Z</time></trkpt><trkpt lat="43.92550221085201" lon="12.318398994723417"><ele>212.0</ele><time>2026-05-03T08:45:55.999Z</time></trkpt><trkpt lat="43.92558999496804" lon="12.318546573609384"><ele>212.0</ele><time>2026-05-03T08:45:56.999Z</time></trkpt><trkpt lat="43.92566568900263" lon="12.31869915466591"><ele>212.0</ele><time>2026-05-03T08:45:57.999Z</time></trkpt><trkpt lat="43.92574487830424" lon="12.318850634053755"><ele>212.0</ele><time>2026-05-03T08:45:58.999Z</time></trkpt><trkpt lat="43.92582869260541" lon="12.318992533504616"><ele>212.0</ele><time>2026-05-03T08:45:59.999Z</time></trkpt><trkpt lat="43.925911806249665" lon="12.319133836016427"><ele>213.0</ele><time>2026-05-03T08:46:00.999Z</time></trkpt><trkpt lat="43.92599214168392" lon="12.319275071286663"><ele>214.0</ele><time>2026-05-03T08:46:01.999Z</time></trkpt><trkpt lat="43.92607295543445" lon="12.319405278597417"><ele>215.0</ele><time>2026-05-03T08:46:02.999Z</time></trkpt><trkpt lat="43.926151747096505" lon="12.319541275136782"><ele>216.0</ele><time>2026-05-03T08:46:03.999Z</time></trkpt><trkpt lat="43.926225901888735" lon="12.319673571294649"><ele>214.75</ele><time>2026-05-03T08:46:04.999Z</time></trkpt><trkpt lat="43.92630423577912" lon="12.319801452979851"><ele>213.5</ele><time>2026-05-03T08:46:05.999Z</time></trkpt><trkpt lat="43.926380804415565" lon="12.319931556896089"><ele>212.25</ele><time>2026-05-03T08:46:06.999Z</time></trkpt><trkpt lat="43.92645867665076" lon="12.32006359158168"><ele>211.0</ele><time>2026-05-03T08:46:07.999Z</time></trkpt><trkpt lat="43.926533997639844" lon="12.32019654784413"><ele>211.0</ele><time>2026-05-03T08:46:08.999Z</time></trkpt><trkpt lat="43.926607016105905" lon="12.32032304872525"><ele>211.0</ele><time>2026-05-03T08:46:09.999Z</time></trkpt><trkpt lat="43.926678083241434" lon="12.320448538480195"><ele>211.0</ele><time>2026-05-03T08:46:10.999Z</time></trkpt><trkpt lat="43.92674664559191" lon="12.320573629150504"><ele>211.0</ele><time>2026-05-03T08:46:11.999Z</time></trkpt><trkpt lat="43.92682546201303" lon="12.320710055020621"><ele>210.25</ele><time>2026-05-03T08:46:12.999Z</time></trkpt><trkpt lat="43.92690757597509" lon="12.32085041080996"><ele>209.5</ele><time>2026-05-03T08:46:13.999Z</time></trkpt><trkpt lat="43.926982830727525" lon="12.32098273504923"><ele>208.75</ele><time>2026-05-03T08:46:14.999Z</time></trkpt><trkpt lat="43.927056457428094" lon="12.321112890684082"><ele>208.0</ele><time>2026-05-03T08:46:15.999Z</time></trkpt><trkpt lat="43.92713160540189" lon="12.321244135597686"><ele>208.0</ele><time>2026-05-03T08:46:16.999Z</time></trkpt><trkpt lat="43.927209464954636" lon="12.321375609230925"><ele>208.0</ele><time>2026-05-03T08:46:17.999Z</time></trkpt><trkpt lat="43.92728603923172" lon="12.321508895718013"><ele>208.0</ele><time>2026-05-03T08:46:18.999Z</time></trkpt><trkpt lat="43.927362051441456" lon="12.321645436876022"><ele>208.0</ele><time>2026-05-03T08:46:19.999Z</time></trkpt><trkpt lat="43.927444637503854" lon="12.321775324352515"><ele>207.5</ele><time>2026-05-03T08:46:20.999Z</time></trkpt><trkpt lat="43.92752910867101" lon="12.321907325264316"><ele>207.0</ele><time>2026-05-03T08:46:21.999Z</time></trkpt><trkpt lat="43.92761883167476" lon="12.322033336672504"><ele>206.5</ele><time>2026-05-03T08:46:22.999Z</time></trkpt><trkpt lat="43.92771084766358" lon="12.322149529551313"><ele>206.0</ele><time>2026-05-03T08:46:23.999Z</time></trkpt><trkpt lat="43.927801471816814" lon="12.32226247972393"><ele>205.20000000000002</ele><time>2026-05-03T08:46:24.999Z</time></trkpt><trkpt lat="43.92788736703418" lon="12.32236920732218"><ele>204.4</ele><time>2026-05-03T08:46:25.999Z</time></trkpt><trkpt lat="43.927966581378826" lon="12.32246798069731"><ele>203.6</ele><time>2026-05-03T08:46:27Z</time></trkpt><trkpt lat="43.92804208364439" lon="12.322559352201619"><ele>202.8</ele><time>2026-05-03T08:46:28Z</time></trkpt><trkpt lat="43.928118675184336" lon="12.322647379677292"><ele>202.0</ele><time>2026-05-03T08:46:29Z</time></trkpt><trkpt lat="43.92819278942182" lon="12.322734013663315"><ele>201.99999999999997</ele><time>2026-05-03T08:46:30Z</time></trkpt><trkpt lat="43.928258929518194" lon="12.322813378726895"><ele>202.0</ele><time>2026-05-03T08:46:31Z</time></trkpt><trkpt lat="43.92832212241347" lon="12.32288728570886"><ele>202.0</ele><time>2026-05-03T08:46:32Z</time></trkpt><trkpt lat="43.9283805812046" lon="12.322972224455437"><ele>202.0</ele><time>2026-05-03T08:46:33Z</time></trkpt><trkpt lat="43.92842721353533" lon="12.323073732271448"><ele>201.99999999999997</ele><time>2026-05-03T08:46:34Z</time></trkpt><trkpt lat="43.92846621110903" lon="12.323182912771454"><ele>202.0</ele><time>2026-05-03T08:46:35Z</time></trkpt><trkpt lat="43.92851596472225" lon="12.323280564823206"><ele>202.2</ele><time>2026-05-03T08:46:36Z</time></trkpt><trkpt lat="43.9285914909942" lon="12.323352382937058"><ele>202.39999999999998</ele><time>2026-05-03T08:46:37Z</time></trkpt><trkpt lat="43.92868469319021" lon="12.32340059374782"><ele>202.60000000000002</ele><time>2026-05-03T08:46:38Z</time></trkpt><trkpt lat="43.928783549770095" lon="12.323461695445458"><ele>202.8</ele><time>2026-05-03T08:46:39Z</time></trkpt><trkpt lat="43.9288751464618" lon="12.323550872048678"><ele>203.0</ele><time>2026-05-03T08:46:40Z</time></trkpt><trkpt lat="43.928966763926574" lon="12.323658958294226"><ele>203.0</ele><time>2026-05-03T08:46:41Z</time></trkpt><trkpt lat="43.92906625707027" lon="12.323779230506773"><ele>203.0</ele><time>2026-05-03T08:46:42Z</time></trkpt><trkpt lat="43.929170128346755" lon="12.323906467770993"><ele>203.0</ele><time>2026-05-03T08:46:43Z</time></trkpt><trkpt lat="43.92927702445195" lon="12.32403447135388"><ele>203.0</ele><time>2026-05-03T08:46:44Z</time></trkpt><trkpt lat="43.92938370861383" lon="12.324160647760685"><ele>202.5</ele><time>2026-05-03T08:46:45Z</time></trkpt><trkpt lat="43.92948902577101" lon="12.324286212513595"><ele>202.0</ele><time>2026-05-03T08:46:46Z</time></trkpt><trkpt lat="43.929590876547245" lon="12.324412246219092"><ele>201.5</ele><time>2026-05-03T08:46:47Z</time></trkpt><trkpt lat="43.929691656783426" lon="12.324533444031106"><ele>201.0</ele><time>2026-05-03T08:46:48Z</time></trkpt><trkpt lat="43.92979415169199" lon="12.324656527638128"><ele>201.0</ele><time>2026-05-03T08:46:49Z</time></trkpt><trkpt lat="43.92989555707278" lon="12.324786866137945"><ele>201.0</ele><time>2026-05-03T08:46:50Z</time></trkpt><trkpt lat="43.9299964946452" lon="12.324922537842241"><ele>201.0</ele><time>2026-05-03T08:46:51Z</time></trkpt><trkpt lat="43.93009080053689" lon="12.325066884171159"><ele>201.0</ele><time>2026-05-03T08:46:52Z</time></trkpt><trkpt lat="43.93017886011225" lon="12.32522258389739"><ele>201.0</ele><time>2026-05-03T08:46:53Z</time></trkpt><trkpt lat="43.93026411305726" lon="12.325386370170905"><ele>201.0</ele><time>2026-05-03T08:46:54Z</time></trkpt><trkpt lat="43.93035546062943" lon="12.325559779959823"><ele>201.0</ele><time>2026-05-03T08:46:55Z</time></trkpt><trkpt lat="43.93044609862621" lon="12.32573742216489"><ele>200.33333333333331</ele><time>2026-05-03T08:46:56Z</time></trkpt><trkpt lat="43.9305399370659" lon="12.32591808983058"><ele>199.66666666666666</ele><time>2026-05-03T08:46:57Z</time></trkpt><trkpt lat="43.93062704280909" lon="12.326091272839792"><ele>199.0</ele><time>2026-05-03T08:46:58Z</time></trkpt><trkpt lat="43.93071290771536" lon="12.326259637787453"><ele>198.0</ele><time>2026-05-03T08:46:59Z</time></trkpt><trkpt lat="43.930797979554654" lon="12.326428824825225"><ele>197.0</ele><time>2026-05-03T08:47:00Z</time></trkpt><trkpt lat="43.930876453914394" lon="12.32660856511751"><ele>196.0</ele><time>2026-05-03T08:47:01Z</time></trkpt><trkpt lat="43.93091998206673" lon="12.326814818797637"><ele>196.0</ele><time>2026-05-03T08:47:02Z</time></trkpt><trkpt lat="43.93097742942084" lon="12.327022779903096"><ele>196.0</ele><time>2026-05-03T08:47:03Z</time></trkpt><trkpt lat="43.93101410113454" lon="12.32724667401648"><ele>196.0</ele><time>2026-05-03T08:47:04Z</time></trkpt><trkpt lat="43.931052455196934" lon="12.327471560282934"><ele>196.33333333333331</ele><time>2026-05-03T08:47:05Z</time></trkpt><trkpt lat="43.931095875033016" lon="12.327716958945292"><ele>196.66666666666669</ele><time>2026-05-03T08:47:06Z</time></trkpt><trkpt lat="43.93114006431187" lon="12.327983338090618"><ele>197.0</ele><time>2026-05-03T08:47:07Z</time></trkpt><trkpt lat="43.93119175252639" lon="12.328267662955861"><ele>196.0</ele><time>2026-05-03T08:47:08Z</time></trkpt><trkpt lat="43.93124812144561" lon="12.328574285239885"><ele>195.0</ele><time>2026-05-03T08:47:09Z</time></trkpt><trkpt lat="43.931304868430765" lon="12.328899470642229"><ele>194.66666666666669</ele><time>2026-05-03T08:47:10Z</time></trkpt><trkpt lat="43.93134196875021" lon="12.32920915387404"><ele>194.33333333333334</ele><time>2026-05-03T08:47:11Z</time></trkpt><trkpt lat="43.931390781354715" lon="12.32949335807957"><ele>194.0</ele><time>2026-05-03T08:47:12Z</time></trkpt><trkpt lat="43.93143641813025" lon="12.329760089100612"><ele>193.33333333333334</ele><time>2026-05-03T08:47:13Z</time></trkpt><trkpt lat="43.93149158409227" lon="12.330007869069862"><ele>192.66666666666669</ele><time>2026-05-03T08:47:14Z</time></trkpt><trkpt lat="43.93152311007888" lon="12.33025265328707"><ele>192.0</ele><time>2026-05-03T08:47:15Z</time></trkpt><trkpt lat="43.93155025629063" lon="12.330488821648903"><ele>190.33333333333334</ele><time>2026-05-03T08:47:16Z</time></trkpt><trkpt lat="43.93158447772996" lon="12.330712738844687"><ele>188.66666666666669</ele><time>2026-05-03T08:47:17Z</time></trkpt><trkpt lat="43.93162281349338" lon="12.330918855275694"><ele>187.0</ele><time>2026-05-03T08:47:18Z</time></trkpt><trkpt lat="43.93166058661205" lon="12.331123503868655"><ele>187.0</ele><time>2026-05-03T08:47:19Z</time></trkpt><trkpt lat="43.931695038391325" lon="12.331319819796846"><ele>187.0</ele><time>2026-05-03T08:47:20Z</time></trkpt><trkpt lat="43.931733740538505" lon="12.331503235631661"><ele>187.0</ele><time>2026-05-03T08:47:21Z</time></trkpt><trkpt lat="43.93179179838378" lon="12.331685993304825"><ele>187.0</ele><time>2026-05-03T08:47:22Z</time></trkpt><trkpt lat="43.93187759886944" lon="12.331868027366278"><ele>185.66666666666669</ele><time>2026-05-03T08:47:23Z</time></trkpt><trkpt lat="43.93198597260135" lon="12.332042141937576"><ele>184.33333333333334</ele><time>2026-05-03T08:47:24Z</time></trkpt><trkpt lat="43.93210362991574" lon="12.33221385035731"><ele>183.0</ele><time>2026-05-03T08:47:25Z</time></trkpt><trkpt lat="43.93222763699082" lon="12.332388350558334"><ele>183.0</ele><time>2026-05-03T08:47:26Z</time></trkpt><trkpt lat="43.93235499305629" lon="12.332565041784049"><ele>183.0</ele><time>2026-05-03T08:47:27Z</time></trkpt><trkpt lat="43.93248097514649" lon="12.332747023721417"><ele>183.0</ele><time>2026-05-03T08:47:28Z</time></trkpt><trkpt lat="43.9326104105337" lon="12.332935051138696"><ele>184.0</ele><time>2026-05-03T08:47:29Z</time></trkpt><trkpt lat="43.93274479825954" lon="12.333126718468382"><ele>185.0</ele><time>2026-05-03T08:47:30Z</time></trkpt><trkpt lat="43.93288001933401" lon="12.333320589183215"><ele>186.0</ele><time>2026-05-03T08:47:31Z</time></trkpt><trkpt lat="43.933016395627064" lon="12.33351642282995"><ele>186.0</ele><time>2026-05-03T08:47:32Z</time></trkpt><trkpt lat="43.93315777085801" lon="12.333711013810579"><ele>186.0</ele><time>2026-05-03T08:47:33Z</time></trkpt><trkpt lat="43.933294891611176" lon="12.333907886245694"><ele>186.0</ele><time>2026-05-03T08:47:34Z</time></trkpt><trkpt lat="43.93343166629526" lon="12.334104291677578"><ele>184.66666666666666</ele><time>2026-05-03T08:47:35Z</time></trkpt><trkpt lat="43.933565390965775" lon="12.334298216497462"><ele>183.33333333333331</ele><time>2026-05-03T08:47:36Z</time></trkpt><trkpt lat="43.93369944638937" lon="12.334494192341303"><ele>182.0</ele><time>2026-05-03T08:47:37Z</time></trkpt><trkpt lat="43.93383224563755" lon="12.33468809537215"><ele>181.66666666666666</ele><time>2026-05-03T08:47:38Z</time></trkpt><trkpt lat="43.93396373363699" lon="12.334878591819537"><ele>181.33333333333334</ele><time>2026-05-03T08:47:39Z</time></trkpt><trkpt lat="43.93409343185483" lon="12.335074002983381"><ele>181.0</ele><time>2026-05-03T08:47:40Z</time></trkpt><trkpt lat="43.93422608873617" lon="12.3352561032125"><ele>182.66666666666669</ele><time>2026-05-03T08:47:40.999Z</time></trkpt><trkpt lat="43.93435840450836" lon="12.33544074644419"><ele>184.33333333333334</ele><time>2026-05-03T08:47:41.999Z</time></trkpt><trkpt lat="43.934487183824395" lon="12.335621366161117"><ele>186.0</ele><time>2026-05-03T08:47:42.999Z</time></trkpt><trkpt lat="43.934617590364624" lon="12.335808162778978"><ele>186.0</ele><time>2026-05-03T08:47:43.999Z</time></trkpt><trkpt lat="43.93474714327931" lon="12.33599390871959"><ele>186.0</ele><time>2026-05-03T08:47:44.999Z</time></trkpt><trkpt lat="43.93487592821269" lon="12.336178810760963"><ele>186.0</ele><time>2026-05-03T08:47:45.999Z</time></trkpt><trkpt lat="43.93500416788811" lon="12.336363960930724"><ele>189.33333333333331</ele><time>2026-05-03T08:47:46.999Z</time></trkpt><trkpt lat="43.93512978845516" lon="12.336541602285159"><ele>192.66666666666666</ele><time>2026-05-03T08:47:47.999Z</time></trkpt><trkpt lat="43.93525178955307" lon="12.336714573409855"><ele>196.0</ele><time>2026-05-03T08:47:48.999Z</time></trkpt><trkpt lat="43.93536741277066" lon="12.336880605291388"><ele>196.0</ele><time>2026-05-03T08:47:49.999Z</time></trkpt><trkpt lat="43.935471444253466" lon="12.337045855553928"><ele>196.0</ele><time>2026-05-03T08:47:50.999Z</time></trkpt><trkpt lat="43.93556241606062" lon="12.33721258512747"><ele>196.0</ele><time>2026-05-03T08:47:51.999Z</time></trkpt><trkpt lat="43.93564053220552" lon="12.337385055163548"><ele>194.25</ele><time>2026-05-03T08:47:52.999Z</time></trkpt><trkpt lat="43.935702919767174" lon="12.33757157960644"><ele>192.5</ele><time>2026-05-03T08:47:53.999Z</time></trkpt><trkpt lat="43.935750231277574" lon="12.337764634277095"><ele>190.75</ele><time>2026-05-03T08:47:54.999Z</time></trkpt><trkpt lat="43.93577506079522" lon="12.337974526797609"><ele>189.0</ele><time>2026-05-03T08:47:55.999Z</time></trkpt><trkpt lat="43.935801940261925" lon="12.338171025587302"><ele>187.66666666666666</ele><time>2026-05-03T08:47:56.999Z</time></trkpt><trkpt lat="43.93585443597371" lon="12.338352138416495"><ele>186.33333333333331</ele><time>2026-05-03T08:47:57.999Z</time></trkpt><trkpt lat="43.93575961174109" lon="12.33861275775733"><ele>185.0</ele><time>2026-05-03T08:47:58.999Z</time></trkpt><trkpt lat="43.93574719215783" lon="12.338831124459176"><ele>185.33333333333331</ele><time>2026-05-03T08:47:59.999Z</time></trkpt><trkpt lat="43.93573573481794" lon="12.339050080278584"><ele>185.66666666666666</ele><time>2026-05-03T08:48:00.999Z</time></trkpt><trkpt lat="43.93573336483668" lon="12.33927097716407"><ele>186.0</ele><time>2026-05-03T08:48:01.999Z</time></trkpt><trkpt lat="43.935744083168906" lon="12.339485318906965"><ele>186.0</ele><time>2026-05-03T08:48:02.999Z</time></trkpt><trkpt lat="43.93577207848636" lon="12.339697553148412"><ele>186.0</ele><time>2026-05-03T08:48:03.999Z</time></trkpt><trkpt lat="43.93581359253933" lon="12.339910943175822"><ele>186.0</ele><time>2026-05-03T08:48:04.999Z</time></trkpt><trkpt lat="43.93585827814045" lon="12.34011953474836"><ele>189.33333333333331</ele><time>2026-05-03T08:48:05.999Z</time></trkpt><trkpt lat="43.93590536911675" lon="12.34033051226269"><ele>192.66666666666666</ele><time>2026-05-03T08:48:06.999Z</time></trkpt><trkpt lat="43.935948474514944" lon="12.340535162592907"><ele>196.0</ele><time>2026-05-03T08:48:07.999Z</time></trkpt><trkpt lat="43.935987597242594" lon="12.340726506149982"><ele>196.0</ele><time>2026-05-03T08:48:08.999Z</time></trkpt><trkpt lat="43.9360270781256" lon="12.340911169282016"><ele>196.0</ele><time>2026-05-03T08:48:09.999Z</time></trkpt><trkpt lat="43.93606389367418" lon="12.341085884736712"><ele>196.0</ele><time>2026-05-03T08:48:10.999Z</time></trkpt><trkpt lat="43.936099160435" lon="12.34126164258938"><ele>196.0</ele><time>2026-05-03T08:48:11.999Z</time></trkpt><trkpt lat="43.936133071500294" lon="12.341438844147175"><ele>195.5</ele><time>2026-05-03T08:48:12.999Z</time></trkpt><trkpt lat="43.93615821866556" lon="12.341616937578465"><ele>195.0</ele><time>2026-05-03T08:48:13.999Z</time></trkpt><trkpt lat="43.93615850704106" lon="12.341793282694411"><ele>194.5</ele><time>2026-05-03T08:48:14.999Z</time></trkpt><trkpt lat="43.93613177148289" lon="12.341951606410836"><ele>194.0</ele><time>2026-05-03T08:48:15.999Z</time></trkpt><trkpt lat="43.936095694013744" lon="12.342097320583088"><ele>194.39999999999998</ele><time>2026-05-03T08:48:16.999Z</time></trkpt><trkpt lat="43.936048901916436" lon="12.34223156747658"><ele>194.8</ele><time>2026-05-03T08:48:17.999Z</time></trkpt><trkpt lat="43.935988287716036" lon="12.342350647430397"><ele>195.2</ele><time>2026-05-03T08:48:18.999Z</time></trkpt><trkpt lat="43.93591127655658" lon="12.342457209006952"><ele>195.60000000000002</ele><time>2026-05-03T08:48:19.999Z</time></trkpt><trkpt lat="43.93581763727362" lon="12.342553698138968"><ele>196.0</ele><time>2026-05-03T08:48:20.999Z</time></trkpt><trkpt lat="43.935715857633404" lon="12.342641696174402"><ele>192.5</ele><time>2026-05-03T08:48:21.999Z</time></trkpt><trkpt lat="43.935603257631705" lon="12.34271534589955"><ele>189.0</ele><time>2026-05-03T08:48:22.999Z</time></trkpt><trkpt lat="43.93548857091074" lon="12.342788248843174"><ele>185.5</ele><time>2026-05-03T08:48:23.999Z</time></trkpt><trkpt lat="43.93537597108603" lon="12.342861837019964"><ele>182.0</ele><time>2026-05-03T08:48:24.999Z</time></trkpt><trkpt lat="43.93526719387302" lon="12.342935632762696"><ele>182.0</ele><time>2026-05-03T08:48:25.999Z</time></trkpt><trkpt lat="43.93516334221866" lon="12.343005787218013"><ele>182.0</ele><time>2026-05-03T08:48:26.999Z</time></trkpt><trkpt lat="43.93506108608532" lon="12.343068534296037"><ele>182.0</ele><time>2026-05-03T08:48:27.999Z</time></trkpt><trkpt lat="43.93496223582709" lon="12.34313421143866"><ele>182.0</ele><time>2026-05-03T08:48:28.999Z</time></trkpt><trkpt lat="43.93486307202255" lon="12.34320569437237"><ele>182.0</ele><time>2026-05-03T08:48:29.999Z</time></trkpt><trkpt lat="43.93476314923872" lon="12.343286206330113"><ele>181.25</ele><time>2026-05-03T08:48:30.999Z</time></trkpt><trkpt lat="43.93467369835944" lon="12.343397766095752"><ele>180.5</ele><time>2026-05-03T08:48:32Z</time></trkpt><trkpt lat="43.93460721661586" lon="12.343551842265283"><ele>179.75</ele><time>2026-05-03T08:48:33Z</time></trkpt><trkpt lat="43.93456262454279" lon="12.343717756816075"><ele>179.0</ele><time>2026-05-03T08:48:34Z</time></trkpt><trkpt lat="43.93452881467778" lon="12.343888157253856"><ele>179.0</ele><time>2026-05-03T08:48:35Z</time></trkpt><trkpt lat="43.93450206340884" lon="12.344062869091905"><ele>179.0</ele><time>2026-05-03T08:48:36Z</time></trkpt><trkpt lat="43.93448731365183" lon="12.344241253802688"><ele>179.0</ele><time>2026-05-03T08:48:37Z</time></trkpt><trkpt lat="43.93449040982605" lon="12.344425871630534"><ele>179.0</ele><time>2026-05-03T08:48:38Z</time></trkpt><trkpt lat="43.93451147722515" lon="12.344615009342315"><ele>179.75</ele><time>2026-05-03T08:48:39Z</time></trkpt><trkpt lat="43.934559813132516" lon="12.344797308975764"><ele>180.5</ele><time>2026-05-03T08:48:40Z</time></trkpt><trkpt lat="43.93462897135404" lon="12.344968269313194"><ele>181.25</ele><time>2026-05-03T08:48:41Z</time></trkpt><trkpt lat="43.9347110654879" lon="12.34513392480403"><ele>182.0</ele><time>2026-05-03T08:48:42Z</time></trkpt><trkpt lat="43.93479254481642" lon="12.345301300534942"><ele>182.0</ele><time>2026-05-03T08:48:43Z</time></trkpt><trkpt lat="43.93487025451987" lon="12.345470058057069"><ele>182.0</ele><time>2026-05-03T08:48:44Z</time></trkpt><trkpt lat="43.93494511738631" lon="12.345632184148391"><ele>182.0</ele><time>2026-05-03T08:48:45Z</time></trkpt><trkpt lat="43.93502226886069" lon="12.345792996396414"><ele>182.0</ele><time>2026-05-03T08:48:46Z</time></trkpt><trkpt lat="43.935112621257076" lon="12.345940726916908"><ele>181.0</ele><time>2026-05-03T08:48:47Z</time></trkpt><trkpt lat="43.93521821837861" lon="12.346064468030992"><ele>180.0</ele><time>2026-05-03T08:48:48Z</time></trkpt><trkpt lat="43.93533785992855" lon="12.346166032921746"><ele>179.0</ele><time>2026-05-03T08:48:49Z</time></trkpt><trkpt lat="43.935468145206116" lon="12.346248916726077"><ele>178.0</ele><time>2026-05-03T08:48:50Z</time></trkpt><trkpt lat="43.93560661327444" lon="12.346324235362973"><ele>179.25</ele><time>2026-05-03T08:48:51Z</time></trkpt><trkpt lat="43.93574829084719" lon="12.34640009694584"><ele>180.5</ele><time>2026-05-03T08:48:52Z</time></trkpt><trkpt lat="43.93588873838171" lon="12.34647750849427"><ele>181.75</ele><time>2026-05-03T08:48:53Z</time></trkpt><trkpt lat="43.93602250154796" lon="12.34655361300321"><ele>183.0</ele><time>2026-05-03T08:48:54Z</time></trkpt><trkpt lat="43.936152444752416" lon="12.346627716580967"><ele>183.0</ele><time>2026-05-03T08:48:55Z</time></trkpt><trkpt lat="43.9362858698542" lon="12.346700882007063"><ele>183.0</ele><time>2026-05-03T08:48:56Z</time></trkpt><trkpt lat="43.93642039591555" lon="12.346770138974438"><ele>183.0</ele><time>2026-05-03T08:48:57Z</time></trkpt><trkpt lat="43.93655777082887" lon="12.346841645050299"><ele>183.0</ele><time>2026-05-03T08:48:58Z</time></trkpt><trkpt lat="43.93669723216645" lon="12.346913293186196"><ele>180.0</ele><time>2026-05-03T08:48:59Z</time></trkpt><trkpt lat="43.93683654595283" lon="12.346984699380291"><ele>177.0</ele><time>2026-05-03T08:49:00Z</time></trkpt><trkpt lat="43.93697601279861" lon="12.34706792189199"><ele>174.0</ele><time>2026-05-03T08:49:01Z</time></trkpt><trkpt lat="43.937109861517634" lon="12.347167596077401"><ele>174.0</ele><time>2026-05-03T08:49:02Z</time></trkpt><trkpt lat="43.93723550864562" lon="12.34728351324082"><ele>174.0</ele><time>2026-05-03T08:49:03Z</time></trkpt><trkpt lat="43.9373569709795" lon="12.347399564878579"><ele>174.0</ele><time>2026-05-03T08:49:04Z</time></trkpt><trkpt lat="43.93747694855479" lon="12.347515588884042"><ele>174.0</ele><time>2026-05-03T08:49:05Z</time></trkpt><trkpt lat="43.93759596230981" lon="12.347627122573039"><ele>174.0</ele><time>2026-05-03T08:49:06Z</time></trkpt><trkpt lat="43.93771240080068" lon="12.347737536348497"><ele>174.0</ele><time>2026-05-03T08:49:07Z</time></trkpt><trkpt lat="43.93782471342704" lon="12.3478508647806"><ele>174.0</ele><time>2026-05-03T08:49:08Z</time></trkpt><trkpt lat="43.93793208228223" lon="12.34796888941763"><ele>174.0</ele><time>2026-05-03T08:49:09Z</time></trkpt><trkpt lat="43.938032349285415" lon="12.34810297176765"><ele>176.0</ele><time>2026-05-03T08:49:10Z</time></trkpt><trkpt lat="43.93812198926269" lon="12.34825216665205"><ele>178.0</ele><time>2026-05-03T08:49:11Z</time></trkpt><trkpt lat="43.938189964976274" lon="12.348428818130248"><ele>180.0</ele><time>2026-05-03T08:49:12Z</time></trkpt><trkpt lat="43.93824531223808" lon="12.348613064480915"><ele>182.0</ele><time>2026-05-03T08:49:13Z</time></trkpt><trkpt lat="43.938281055118445" lon="12.348811504124951"><ele>182.33333333333331</ele><time>2026-05-03T08:49:14Z</time></trkpt><trkpt lat="43.93830018742265" lon="12.349014668876341"><ele>182.66666666666666</ele><time>2026-05-03T08:49:15Z</time></trkpt><trkpt lat="43.93830127435462" lon="12.349222908312809"><ele>183.0</ele><time>2026-05-03T08:49:16Z</time></trkpt><trkpt lat="43.93828657535484" lon="12.349435492399989"><ele>183.0</ele><time>2026-05-03T08:49:17Z</time></trkpt><trkpt lat="43.93826605515678" lon="12.34964779777929"><ele>183.0</ele><time>2026-05-03T08:49:18Z</time></trkpt><trkpt lat="43.93824075497595" lon="12.349855818326954"><ele>183.0</ele><time>2026-05-03T08:49:19Z</time></trkpt><trkpt lat="43.93821556851115" lon="12.35005600710356"><ele>182.0</ele><time>2026-05-03T08:49:20Z</time></trkpt><trkpt lat="43.93819370128356" lon="12.350248300556913"><ele>181.0</ele><time>2026-05-03T08:49:21Z</time></trkpt><trkpt lat="43.93817262453212" lon="12.350435507537282"><ele>180.0</ele><time>2026-05-03T08:49:22Z</time></trkpt><trkpt lat="43.93815346705586" lon="12.350621147743365"><ele>179.0</ele><time>2026-05-03T08:49:23Z</time></trkpt><trkpt lat="43.93814453299776" lon="12.350809923166498"><ele>179.0</ele><time>2026-05-03T08:49:24Z</time></trkpt><trkpt lat="43.93816189015727" lon="12.350996640009555"><ele>179.0</ele><time>2026-05-03T08:49:25Z</time></trkpt><trkpt lat="43.9382039362232" lon="12.351180189170433"><ele>179.0</ele><time>2026-05-03T08:49:26Z</time></trkpt><trkpt lat="43.93827099773707" lon="12.351363492050751"><ele>179.0</ele><time>2026-05-03T08:49:27Z</time></trkpt><trkpt lat="43.93836125541331" lon="12.351537839197288"><ele>175.0</ele><time>2026-05-03T08:49:28Z</time></trkpt><trkpt lat="43.938467983583436" lon="12.351705171676306"><ele>171.0</ele><time>2026-05-03T08:49:29Z</time></trkpt><trkpt lat="43.93857939291886" lon="12.351876070675171"><ele>167.0</ele><time>2026-05-03T08:49:30Z</time></trkpt><trkpt lat="43.938694309251886" lon="12.352048935063369"><ele>168.33333333333331</ele><time>2026-05-03T08:49:31Z</time></trkpt><trkpt lat="43.93880606215679" lon="12.35222128866277"><ele>169.66666666666666</ele><time>2026-05-03T08:49:32Z</time></trkpt><trkpt lat="43.93891336126234" lon="12.35238687171554"><ele>171.0</ele><time>2026-05-03T08:49:33Z</time></trkpt><trkpt lat="43.93901960194244" lon="12.352547743018096"><ele>171.0</ele><time>2026-05-03T08:49:34Z</time></trkpt><trkpt lat="43.939127176841914" lon="12.352706067631615"><ele>171.0</ele><time>2026-05-03T08:49:35Z</time></trkpt><trkpt lat="43.93923654903975" lon="12.352860487590403"><ele>171.0</ele><time>2026-05-03T08:49:36Z</time></trkpt><trkpt lat="43.939347536221895" lon="12.35301229569804"><ele>169.33333333333334</ele><time>2026-05-03T08:49:37Z</time></trkpt><trkpt lat="43.93946071552692" lon="12.353158897248004"><ele>167.66666666666669</ele><time>2026-05-03T08:49:38Z</time></trkpt><trkpt lat="43.93958139932204" lon="12.353297517480092"><ele>166.0</ele><time>2026-05-03T08:49:38.999Z</time></trkpt><trkpt lat="43.9397062166297" lon="12.353429340638879"><ele>166.0</ele><time>2026-05-03T08:49:39.999Z</time></trkpt><trkpt lat="43.93983622418085" lon="12.353560170977595"><ele>166.0</ele><time>2026-05-03T08:49:40.999Z</time></trkpt><trkpt lat="43.939971665883114" lon="12.353692172838928"><ele>166.0</ele><time>2026-05-03T08:49:41.999Z</time></trkpt><trkpt lat="43.94011261436794" lon="12.353822761010878"><ele>165.0</ele><time>2026-05-03T08:49:42.999Z</time></trkpt><trkpt lat="43.940249880994" lon="12.353947914324626"><ele>164.0</ele><time>2026-05-03T08:49:43.999Z</time></trkpt><trkpt lat="43.940410192553664" lon="12.354095143179377"><ele>163.0</ele><time>2026-05-03T08:49:44.999Z</time></trkpt><trkpt lat="43.94055531916364" lon="12.35423130296749"><ele>163.0</ele><time>2026-05-03T08:49:45.999Z</time></trkpt><trkpt lat="43.94069971459623" lon="12.354365996740519"><ele>163.0</ele><time>2026-05-03T08:49:46.999Z</time></trkpt><trkpt lat="43.9408505132092" lon="12.354502727890273"><ele>163.0</ele><time>2026-05-03T08:49:47.999Z</time></trkpt><trkpt lat="43.941011921403636" lon="12.354641522098996"><ele>163.0</ele><time>2026-05-03T08:49:48.999Z</time></trkpt><trkpt lat="43.9411818511633" lon="12.354787284041263"><ele>163.0</ele><time>2026-05-03T08:49:49.999Z</time></trkpt><trkpt lat="43.94134998530128" lon="12.354963247451677"><ele>163.0</ele><time>2026-05-03T08:49:50.999Z</time></trkpt><trkpt lat="43.94153712287907" lon="12.355132677338881"><ele>162.0</ele><time>2026-05-03T08:49:51.999Z</time></trkpt><trkpt lat="43.94174470501575" lon="12.355274988539731"><ele>161.0</ele><time>2026-05-03T08:49:52.999Z</time></trkpt><trkpt lat="43.941931944113584" lon="12.355442087702729"><ele>160.66666666666666</ele><time>2026-05-03T08:49:53.999Z</time></trkpt><trkpt lat="43.94211039614201" lon="12.35560578727332"><ele>160.33333333333334</ele><time>2026-05-03T08:49:54.999Z</time></trkpt><trkpt lat="43.94228332716799" lon="12.355782828357714"><ele>160.0</ele><time>2026-05-03T08:49:55.999Z</time></trkpt><trkpt lat="43.94244245032152" lon="12.355946740769253"><ele>160.33333333333334</ele><time>2026-05-03T08:49:56.999Z</time></trkpt><trkpt lat="43.942604985234375" lon="12.356077839712503"><ele>160.66666666666666</ele><time>2026-05-03T08:49:57.999Z</time></trkpt><trkpt lat="43.942743300009724" lon="12.356192938604021"><ele>161.0</ele><time>2026-05-03T08:49:58.999Z</time></trkpt><trkpt lat="43.94286198961158" lon="12.356329646393949"><ele>161.25</ele><time>2026-05-03T08:49:59.999Z</time></trkpt><trkpt lat="43.9429566635332" lon="12.35641977316667"><ele>161.5</ele><time>2026-05-03T08:50:00.999Z</time></trkpt><trkpt lat="43.94305035588519" lon="12.356516864517083"><ele>161.75</ele><time>2026-05-03T08:50:01.999Z</time></trkpt><trkpt lat="43.94314165587922" lon="12.356620210735594"><ele>162.0</ele><time>2026-05-03T08:50:02.999Z</time></trkpt><trkpt lat="43.943236643673835" lon="12.356736878900842"><ele>162.0</ele><time>2026-05-03T08:50:03.999Z</time></trkpt><trkpt lat="43.94332859217721" lon="12.356860097475883"><ele>162.0</ele><time>2026-05-03T08:50:04.999Z</time></trkpt><trkpt lat="43.94341974519437" lon="12.356991435984302"><ele>162.0</ele><time>2026-05-03T08:50:05.999Z</time></trkpt><trkpt lat="43.94350540963567" lon="12.357109705436121"><ele>162.0</ele><time>2026-05-03T08:50:06.999Z</time></trkpt><trkpt lat="43.943589809011485" lon="12.357246416454535"><ele>161.5</ele><time>2026-05-03T08:50:07.999Z</time></trkpt><trkpt lat="43.9436796302275" lon="12.357382968520367"><ele>161.0</ele><time>2026-05-03T08:50:08.999Z</time></trkpt><trkpt lat="43.94376889166348" lon="12.357525595308056"><ele>160.5</ele><time>2026-05-03T08:50:09.999Z</time></trkpt><trkpt lat="43.94385699174782" lon="12.357670036973035"><ele>160.0</ele><time>2026-05-03T08:50:10.999Z</time></trkpt><trkpt lat="43.943946196204806" lon="12.35781762318567"><ele>160.0</ele><time>2026-05-03T08:50:11.999Z</time></trkpt><trkpt lat="43.94403664077202" lon="12.357968630611193"><ele>160.0</ele><time>2026-05-03T08:50:12.999Z</time></trkpt><trkpt lat="43.944129747274175" lon="12.358121930243327"><ele>160.0</ele><time>2026-05-03T08:50:13.999Z</time></trkpt><trkpt lat="43.94422826290467" lon="12.358284708471773"><ele>160.0</ele><time>2026-05-03T08:50:14.999Z</time></trkpt><trkpt lat="43.944330428486616" lon="12.358451031313578"><ele>160.0</ele><time>2026-05-03T08:50:15.999Z</time></trkpt><trkpt lat="43.94443754508923" lon="12.358621400060128"><ele>160.0</ele><time>2026-05-03T08:50:16.999Z</time></trkpt><trkpt lat="43.94454571662581" lon="12.358789946764876"><ele>160.0</ele><time>2026-05-03T08:50:17.999Z</time></trkpt><trkpt lat="43.94465168455465" lon="12.358957673383296"><ele>160.0</ele><time>2026-05-03T08:50:18.999Z</time></trkpt><trkpt lat="43.944768928876094" lon="12.359138019372093"><ele>160.0</ele><time>2026-05-03T08:50:19.999Z</time></trkpt><trkpt lat="43.9448832101597" lon="12.359320129902304"><ele>160.0</ele><time>2026-05-03T08:50:20.999Z</time></trkpt><trkpt lat="43.945001937423584" lon="12.359512690021258"><ele>160.0</ele><time>2026-05-03T08:50:21.999Z</time></trkpt><trkpt lat="43.94512112009276" lon="12.359705446690693"><ele>160.0</ele><time>2026-05-03T08:50:22.999Z</time></trkpt><trkpt lat="43.94523984836052" lon="12.359901814734643"><ele>160.0</ele><time>2026-05-03T08:50:23.999Z</time></trkpt><trkpt lat="43.94536161531253" lon="12.360085303594131"><ele>160.0</ele><time>2026-05-03T08:50:24.999Z</time></trkpt><trkpt lat="43.94549307216691" lon="12.360251993998896"><ele>160.0</ele><time>2026-05-03T08:50:25.999Z</time></trkpt><trkpt lat="43.9456330808416" lon="12.360392840855095"><ele>160.0</ele><time>2026-05-03T08:50:26.999Z</time></trkpt><trkpt lat="43.94577652606939" lon="12.360514706913364"><ele>160.33333333333334</ele><time>2026-05-03T08:50:27.999Z</time></trkpt><trkpt lat="43.94592059682338" lon="12.360622648113994"><ele>160.66666666666666</ele><time>2026-05-03T08:50:28.999Z</time></trkpt><trkpt lat="43.94605973725739" lon="12.360724973399858"><ele>161.0</ele><time>2026-05-03T08:50:29.999Z</time></trkpt><trkpt lat="43.94619696552836" lon="12.360825730605097"><ele>161.0</ele><time>2026-05-03T08:50:30.999Z</time></trkpt><trkpt lat="43.94632984592092" lon="12.360922471427044"><ele>161.0</ele><time>2026-05-03T08:50:31.999Z</time></trkpt><trkpt lat="43.94646133844085" lon="12.36102056744954"><ele>161.0</ele><time>2026-05-03T08:50:32.999Z</time></trkpt><trkpt lat="43.9465922567784" lon="12.361125459246162"><ele>161.66666666666666</ele><time>2026-05-03T08:50:33.999Z</time></trkpt><trkpt lat="43.946720910080835" lon="12.361238097648597"><ele>162.33333333333334</ele><time>2026-05-03T08:50:34.999Z</time></trkpt><trkpt lat="43.946848998330076" lon="12.361354826105995"><ele>163.0</ele><time>2026-05-03T08:50:35.999Z</time></trkpt><trkpt lat="43.94697690323075" lon="12.361479674454992"><ele>163.0</ele><time>2026-05-03T08:50:36.999Z</time></trkpt><trkpt lat="43.94710303930067" lon="12.361606249629448"><ele>163.0</ele><time>2026-05-03T08:50:38Z</time></trkpt><trkpt lat="43.94723049124596" lon="12.36173351986918"><ele>163.0</ele><time>2026-05-03T08:50:39Z</time></trkpt><trkpt lat="43.94735737655883" lon="12.361862523507895"><ele>163.0</ele><time>2026-05-03T08:50:40Z</time></trkpt><trkpt lat="43.947484057160345" lon="12.361997318247779"><ele>163.0</ele><time>2026-05-03T08:50:41Z</time></trkpt><trkpt lat="43.947603501028155" lon="12.36213469420269"><ele>163.0</ele><time>2026-05-03T08:50:42Z</time></trkpt><trkpt lat="43.947723475441876" lon="12.362276015837548"><ele>163.0</ele><time>2026-05-03T08:50:43Z</time></trkpt><trkpt lat="43.94783453317887" lon="12.362417364941162"><ele>163.0</ele><time>2026-05-03T08:50:44Z</time></trkpt><trkpt lat="43.947938879682184" lon="12.36256419386103"><ele>163.0</ele><time>2026-05-03T08:50:45Z</time></trkpt><trkpt lat="43.94803651652164" lon="12.362722592616391"><ele>163.0</ele><time>2026-05-03T08:50:46Z</time></trkpt><trkpt lat="43.94812936569744" lon="12.362893681051288"><ele>164.33333333333334</ele><time>2026-05-03T08:50:47Z</time></trkpt><trkpt lat="43.948213614413206" lon="12.363072779765305"><ele>165.66666666666666</ele><time>2026-05-03T08:50:48Z</time></trkpt><trkpt lat="43.94829648654551" lon="12.363263010076132"><ele>167.0</ele><time>2026-05-03T08:50:49Z</time></trkpt><trkpt lat="43.94837288803166" lon="12.3634578064287"><ele>165.0</ele><time>2026-05-03T08:50:50Z</time></trkpt><trkpt lat="43.9484481153817" lon="12.363658379990241"><ele>163.0</ele><time>2026-05-03T08:50:51Z</time></trkpt><trkpt lat="43.94852472397192" lon="12.363860384492945"><ele>161.0</ele><time>2026-05-03T08:50:52Z</time></trkpt><trkpt lat="43.948600334480275" lon="12.364062509914053"><ele>161.0</ele><time>2026-05-03T08:50:53Z</time></trkpt><trkpt lat="43.948678615779215" lon="12.364263775799476"><ele>161.0</ele><time>2026-05-03T08:50:54Z</time></trkpt><trkpt lat="43.94875960413525" lon="12.364460063167847"><ele>161.0</ele><time>2026-05-03T08:50:55Z</time></trkpt><trkpt lat="43.94883886313623" lon="12.364656964090583"><ele>163.0</ele><time>2026-05-03T08:50:56Z</time></trkpt><trkpt lat="43.9489234716237" lon="12.364842701056435"><ele>165.0</ele><time>2026-05-03T08:50:57Z</time></trkpt><trkpt lat="43.949013585493674" lon="12.365022458634515"><ele>167.0</ele><time>2026-05-03T08:50:58Z</time></trkpt><trkpt lat="43.94911036906661" lon="12.36519984345669"><ele>167.0</ele><time>2026-05-03T08:50:59Z</time></trkpt><trkpt lat="43.94921020203601" lon="12.36536833401113"><ele>167.0</ele><time>2026-05-03T08:51:00Z</time></trkpt><trkpt lat="43.94932277569556" lon="12.36552641179296"><ele>167.0</ele><time>2026-05-03T08:51:01Z</time></trkpt><trkpt lat="43.94944006214131" lon="12.365678233031959"><ele>167.0</ele><time>2026-05-03T08:51:02Z</time></trkpt><trkpt lat="43.94955742531004" lon="12.365829755580076"><ele>167.0</ele><time>2026-05-03T08:51:03Z</time></trkpt><trkpt lat="43.94967881619918" lon="12.365979242855827"><ele>167.0</ele><time>2026-05-03T08:51:04Z</time></trkpt><trkpt lat="43.94980381850327" lon="12.36612559188833"><ele>167.0</ele><time>2026-05-03T08:51:05Z</time></trkpt><trkpt lat="43.94992924231976" lon="12.366267434530291"><ele>167.0</ele><time>2026-05-03T08:51:06Z</time></trkpt><trkpt lat="43.95005592290383" lon="12.366415336071881"><ele>167.0</ele><time>2026-05-03T08:51:07Z</time></trkpt><trkpt lat="43.95018199013639" lon="12.366558789632421"><ele>163.66666666666666</ele><time>2026-05-03T08:51:08Z</time></trkpt><trkpt lat="43.95031063398747" lon="12.366708304451677"><ele>160.33333333333334</ele><time>2026-05-03T08:51:09Z</time></trkpt><trkpt lat="43.95044000667271" lon="12.366853768315574"><ele>157.0</ele><time>2026-05-03T08:51:10Z</time></trkpt><trkpt lat="43.95057171716119" lon="12.36700188911792"><ele>157.0</ele><time>2026-05-03T08:51:11Z</time></trkpt><trkpt lat="43.950704610027955" lon="12.367151568590288"><ele>157.0</ele><time>2026-05-03T08:51:12Z</time></trkpt><trkpt lat="43.95083346058517" lon="12.367295930598958"><ele>157.0</ele><time>2026-05-03T08:51:13Z</time></trkpt><trkpt lat="43.95096324890125" lon="12.367438826826529"><ele>158.0</ele><time>2026-05-03T08:51:14Z</time></trkpt><trkpt lat="43.951095922936176" lon="12.367590172898167"><ele>159.0</ele><time>2026-05-03T08:51:15Z</time></trkpt><trkpt lat="43.95122383113082" lon="12.367735447646476"><ele>160.0</ele><time>2026-05-03T08:51:16Z</time></trkpt><trkpt lat="43.951348861593274" lon="12.367877684063139"><ele>160.0</ele><time>2026-05-03T08:51:17Z</time></trkpt><trkpt lat="43.95147468250774" lon="12.368019739591894"><ele>160.0</ele><time>2026-05-03T08:51:18Z</time></trkpt><trkpt lat="43.95159833263997" lon="12.368162574490198"><ele>160.0</ele><time>2026-05-03T08:51:19Z</time></trkpt><trkpt lat="43.95171219631395" lon="12.368315423891044"><ele>161.66666666666669</ele><time>2026-05-03T08:51:20Z</time></trkpt><trkpt lat="43.95182432554703" lon="12.368468453175874"><ele>163.33333333333334</ele><time>2026-05-03T08:51:21Z</time></trkpt><trkpt lat="43.95192945689912" lon="12.36862738929366"><ele>165.0</ele><time>2026-05-03T08:51:22Z</time></trkpt><trkpt lat="43.9520251516805" lon="12.368794183985695"><ele>165.66666666666666</ele><time>2026-05-03T08:51:23Z</time></trkpt><trkpt lat="43.95211943891599" lon="12.368968454759147"><ele>166.33333333333331</ele><time>2026-05-03T08:51:24Z</time></trkpt><trkpt lat="43.95220390274465" lon="12.369146761109022"><ele>167.0</ele><time>2026-05-03T08:51:25Z</time></trkpt><trkpt lat="43.952281981206994" lon="12.369331635752106"><ele>167.0</ele><time>2026-05-03T08:51:26Z</time></trkpt><trkpt lat="43.95235387738832" lon="12.369523365496644"><ele>167.0</ele><time>2026-05-03T08:51:27Z</time></trkpt><trkpt lat="43.95241843383437" lon="12.369717014872148"><ele>167.0</ele><time>2026-05-03T08:51:28Z</time></trkpt><trkpt lat="43.95248208598078" lon="12.3699088483512"><ele>165.33333333333331</ele><time>2026-05-03T08:51:29Z</time></trkpt><trkpt lat="43.95254523808173" lon="12.370101227050005"><ele>163.66666666666666</ele><time>2026-05-03T08:51:30Z</time></trkpt><trkpt lat="43.95260337394651" lon="12.37029160654495"><ele>162.0</ele><time>2026-05-03T08:51:31Z</time></trkpt><trkpt lat="43.95266027432606" lon="12.370482910496671"><ele>162.5</ele><time>2026-05-03T08:51:32Z</time></trkpt><trkpt lat="43.952715034643504" lon="12.370670958206999"><ele>163.0</ele><time>2026-05-03T08:51:33Z</time></trkpt><trkpt lat="43.952771032154786" lon="12.37085957613326"><ele>163.5</ele><time>2026-05-03T08:51:34Z</time></trkpt><trkpt lat="43.95282621419114" lon="12.371043888582365"><ele>164.0</ele><time>2026-05-03T08:51:35Z</time></trkpt><trkpt lat="43.95287859729959" lon="12.371223743222629"><ele>164.0</ele><time>2026-05-03T08:51:36Z</time></trkpt><trkpt lat="43.95292786768835" lon="12.37140249094855"><ele>164.0</ele><time>2026-05-03T08:51:37Z</time></trkpt><trkpt lat="43.952974604082776" lon="12.371577408074293"><ele>164.0</ele><time>2026-05-03T08:51:38Z</time></trkpt><trkpt lat="43.953023453726736" lon="12.371751418660525"><ele>164.0</ele><time>2026-05-03T08:51:39Z</time></trkpt><trkpt lat="43.95307451410583" lon="12.371920517311148"><ele>164.0</ele><time>2026-05-03T08:51:40Z</time></trkpt><trkpt lat="43.95312234711894" lon="12.372084061082704"><ele>164.0</ele><time>2026-05-03T08:51:41Z</time></trkpt><trkpt lat="43.95316433311585" lon="12.372232146131743"><ele>164.0</ele><time>2026-05-03T08:51:41.999Z</time></trkpt><trkpt lat="43.953200708974606" lon="12.372355810788278"><ele>164.0</ele><time>2026-05-03T08:51:42.999Z</time></trkpt><trkpt lat="43.95323421870992" lon="12.372476906047767"><ele>164.0</ele><time>2026-05-03T08:51:43.999Z</time></trkpt><trkpt lat="43.95326161252749" lon="12.372575701120038"><ele>164.16666666666666</ele><time>2026-05-03T08:51:44.999Z</time></trkpt><trkpt lat="43.95327501019301" lon="12.372673962113723"><ele>164.33333333333331</ele><time>2026-05-03T08:51:45.999Z</time></trkpt><trkpt lat="43.95327632849263" lon="12.372762583929"><ele>164.5</ele><time>2026-05-03T08:51:46.999Z</time></trkpt><trkpt lat="43.953270515503" lon="12.372852369131499"><ele>164.66666666666666</ele><time>2026-05-03T08:51:47.999Z</time></trkpt><trkpt lat="43.953269185218176" lon="12.37294549349507"><ele>164.83333333333334</ele><time>2026-05-03T08:51:48.999Z</time></trkpt><trkpt lat="43.95331654026789" lon="12.3730965766526"><ele>165.0</ele><time>2026-05-03T08:51:50.999Z</time></trkpt><trkpt lat="43.95341503532158" lon="12.373227112243505"><ele>164.2</ele><time>2026-05-03T08:51:52.999Z</time></trkpt><trkpt lat="43.953470197211246" lon="12.373317553371376"><ele>163.4</ele><time>2026-05-03T08:51:53.999Z</time></trkpt><trkpt lat="43.95351581561572" lon="12.3734300954519"><ele>162.60000000000002</ele><time>2026-05-03T08:51:54.999Z</time></trkpt><trkpt lat="43.9535504748618" lon="12.373548266847232"><ele>161.8</ele><time>2026-05-03T08:51:55.999Z</time></trkpt><trkpt lat="43.95358588190782" lon="12.373674438422668"><ele>161.0</ele><time>2026-05-03T08:51:56.999Z</time></trkpt><trkpt lat="43.95362110921603" lon="12.373807534095054"><ele>161.20000000000002</ele><time>2026-05-03T08:51:57.999Z</time></trkpt><trkpt lat="43.95366241522889" lon="12.373944016975502"><ele>161.4</ele><time>2026-05-03T08:51:58.999Z</time></trkpt><trkpt lat="43.953705395981096" lon="12.374082936173423"><ele>161.6</ele><time>2026-05-03T08:51:59.999Z</time></trkpt><trkpt lat="43.95374905587541" lon="12.37422272392996"><ele>161.8</ele><time>2026-05-03T08:52:00.999Z</time></trkpt><trkpt lat="43.95379360137916" lon="12.37437009213197"><ele>162.0</ele><time>2026-05-03T08:52:01.999Z</time></trkpt><trkpt lat="43.95383877067965" lon="12.374523607217053"><ele>162.0</ele><time>2026-05-03T08:52:02.999Z</time></trkpt><trkpt lat="43.95388569122895" lon="12.374684753509507"><ele>162.0</ele><time>2026-05-03T08:52:03.999Z</time></trkpt><trkpt lat="43.95393183882765" lon="12.37484739810443"><ele>162.0</ele><time>2026-05-03T08:52:04.999Z</time></trkpt><trkpt lat="43.953981222789416" lon="12.375012279130809"><ele>162.0</ele><time>2026-05-03T08:52:05.999Z</time></trkpt><trkpt lat="43.95403147829316" lon="12.375179148171469"><ele>162.25</ele><time>2026-05-03T08:52:06.999Z</time></trkpt><trkpt lat="43.954079319232726" lon="12.375351354371558"><ele>162.5</ele><time>2026-05-03T08:52:07.999Z</time></trkpt><trkpt lat="43.95412771207184" lon="12.375521956088628"><ele>162.75</ele><time>2026-05-03T08:52:08.999Z</time></trkpt><trkpt lat="43.954177328891895" lon="12.375688419834848"><ele>163.0</ele><time>2026-05-03T08:52:09.999Z</time></trkpt><trkpt lat="43.95422293380783" lon="12.375850581368242"><ele>161.5</ele><time>2026-05-03T08:52:10.999Z</time></trkpt><trkpt lat="43.95427373350403" lon="12.37601948497105"><ele>160.0</ele><time>2026-05-03T08:52:11.999Z</time></trkpt><trkpt lat="43.95433004938411" lon="12.376190798200083"><ele>158.5</ele><time>2026-05-03T08:52:12.999Z</time></trkpt><trkpt lat="43.95439153741414" lon="12.37636968580189"><ele>157.0</ele><time>2026-05-03T08:52:13.999Z</time></trkpt><trkpt lat="43.95445953599346" lon="12.376549858923848"><ele>157.0</ele><time>2026-05-03T08:52:14.999Z</time></trkpt><trkpt lat="43.95453100218913" lon="12.376732594728663"><ele>157.0</ele><time>2026-05-03T08:52:15.999Z</time></trkpt><trkpt lat="43.954603749341246" lon="12.376922475073075"><ele>157.0</ele><time>2026-05-03T08:52:16.999Z</time></trkpt><trkpt lat="43.95467478761786" lon="12.377120220829273"><ele>158.33333333333334</ele><time>2026-05-03T08:52:17.999Z</time></trkpt><trkpt lat="43.954738624386295" lon="12.377319252701993"><ele>159.66666666666666</ele><time>2026-05-03T08:52:18.999Z</time></trkpt><trkpt lat="43.95481846554713" lon="12.377522872409743"><ele>161.0</ele><time>2026-05-03T08:52:19.999Z</time></trkpt><trkpt lat="43.95490491350243" lon="12.377721986237464"><ele>161.0</ele><time>2026-05-03T08:52:20.999Z</time></trkpt><trkpt lat="43.95498983266651" lon="12.377924158570611"><ele>161.0</ele><time>2026-05-03T08:52:21.999Z</time></trkpt><trkpt lat="43.95507447764695" lon="12.378129354198785"><ele>161.0</ele><time>2026-05-03T08:52:22.999Z</time></trkpt><trkpt lat="43.95515854079816" lon="12.378339682461862"><ele>158.33333333333331</ele><time>2026-05-03T08:52:23.999Z</time></trkpt><trkpt lat="43.95522662427891" lon="12.378509221269363"><ele>155.66666666666666</ele><time>2026-05-03T08:52:24.999Z</time></trkpt><trkpt lat="43.9553090912976" lon="12.378703872288373"><ele>153.0</ele><time>2026-05-03T08:52:25.999Z</time></trkpt><trkpt lat="43.95539364630479" lon="12.37888852610138"><ele>153.0</ele><time>2026-05-03T08:52:26.999Z</time></trkpt><trkpt lat="43.95547666654113" lon="12.379084435027991"><ele>153.0</ele><time>2026-05-03T08:52:27.999Z</time></trkpt><trkpt lat="43.95555807493249" lon="12.379267827272516"><ele>153.0</ele><time>2026-05-03T08:52:28.999Z</time></trkpt><trkpt lat="43.95562856655484" lon="12.379449189092918"><ele>153.0</ele><time>2026-05-03T08:52:29.999Z</time></trkpt><trkpt lat="43.95570282704304" lon="12.379628475259237"><ele>153.0</ele><time>2026-05-03T08:52:30.999Z</time></trkpt><trkpt lat="43.95577534061081" lon="12.379798028387405"><ele>153.0</ele><time>2026-05-03T08:52:31.999Z</time></trkpt><trkpt lat="43.95584596915342" lon="12.379965110628879"><ele>153.0</ele><time>2026-05-03T08:52:32.999Z</time></trkpt><trkpt lat="43.95591609922279" lon="12.380149576815668"><ele>151.0</ele><time>2026-05-03T08:52:33.999Z</time></trkpt><trkpt lat="43.95598547073634" lon="12.380334260466354"><ele>149.0</ele><time>2026-05-03T08:52:34.999Z</time></trkpt><trkpt lat="43.95606374701494" lon="12.380526111159385"><ele>147.0</ele><time>2026-05-03T08:52:35.999Z</time></trkpt><trkpt lat="43.95614539158039" lon="12.380718694074432"><ele>147.0</ele><time>2026-05-03T08:52:36.999Z</time></trkpt><trkpt lat="43.95622544807351" lon="12.380911284825276"><ele>147.0</ele><time>2026-05-03T08:52:37.999Z</time></trkpt><trkpt lat="43.956300097587075" lon="12.381102878746471"><ele>147.0</ele><time>2026-05-03T08:52:38.999Z</time></trkpt><trkpt lat="43.956367444839465" lon="12.381297169021531"><ele>148.66666666666666</ele><time>2026-05-03T08:52:39.999Z</time></trkpt><trkpt lat="43.95644514101085" lon="12.381484769157213"><ele>150.33333333333331</ele><time>2026-05-03T08:52:40.999Z</time></trkpt><trkpt lat="43.956530186011726" lon="12.381661788519375"><ele>152.0</ele><time>2026-05-03T08:52:41.999Z</time></trkpt><trkpt lat="43.95661132547003" lon="12.381843935727238"><ele>152.0</ele><time>2026-05-03T08:52:42.999Z</time></trkpt><trkpt lat="43.95669121330146" lon="12.382027063448621"><ele>152.0</ele><time>2026-05-03T08:52:44Z</time></trkpt><trkpt lat="43.956770536960484" lon="12.382215523448489"><ele>152.0</ele><time>2026-05-03T08:52:45Z</time></trkpt><trkpt lat="43.95684631756428" lon="12.382402701209593"><ele>148.0</ele><time>2026-05-03T08:52:46Z</time></trkpt><trkpt lat="43.95691089506847" lon="12.382586147230663"><ele>144.0</ele><time>2026-05-03T08:52:47Z</time></trkpt><trkpt lat="43.9569868818734" lon="12.382772293051573"><ele>140.0</ele><time>2026-05-03T08:52:48Z</time></trkpt><trkpt lat="43.957065778230984" lon="12.382960066119006"><ele>142.33333333333331</ele><time>2026-05-03T08:52:49Z</time></trkpt><trkpt lat="43.95714528605332" lon="12.38315026134808"><ele>144.66666666666666</ele><time>2026-05-03T08:52:50Z</time></trkpt><trkpt lat="43.957228721458634" lon="12.383351689704861"><ele>147.0</ele><time>2026-05-03T08:52:51Z</time></trkpt><trkpt lat="43.957310558869224" lon="12.383550634960253"><ele>147.0</ele><time>2026-05-03T08:52:52Z</time></trkpt><trkpt lat="43.95739853603309" lon="12.38375434561246"><ele>147.0</ele><time>2026-05-03T08:52:53Z</time></trkpt><trkpt lat="43.95748161809317" lon="12.383952818538594"><ele>147.0</ele><time>2026-05-03T08:52:54Z</time></trkpt><trkpt lat="43.95756514217437" lon="12.384157266813787"><ele>142.66666666666666</ele><time>2026-05-03T08:52:55Z</time></trkpt><trkpt lat="43.95763745134513" lon="12.384362025878742"><ele>138.33333333333331</ele><time>2026-05-03T08:52:56Z</time></trkpt><trkpt lat="43.957700426006774" lon="12.384574117875065"><ele>134.0</ele><time>2026-05-03T08:52:57Z</time></trkpt><trkpt lat="43.95775134763567" lon="12.384796788650572"><ele>134.33333333333331</ele><time>2026-05-03T08:52:58Z</time></trkpt><trkpt lat="43.957792138111515" lon="12.385030323069683"><ele>134.66666666666666</ele><time>2026-05-03T08:52:59Z</time></trkpt><trkpt lat="43.95781652258002" lon="12.385273099292984"><ele>135.0</ele><time>2026-05-03T08:53:00Z</time></trkpt><trkpt lat="43.957837320479264" lon="12.38551833552313"><ele>135.0</ele><time>2026-05-03T08:53:01Z</time></trkpt><trkpt lat="43.95784163113667" lon="12.385762918617104"><ele>135.0</ele><time>2026-05-03T08:53:02Z</time></trkpt><trkpt lat="43.95783421285747" lon="12.386007890883347"><ele>135.0</ele><time>2026-05-03T08:53:03Z</time></trkpt><trkpt lat="43.95781287244417" lon="12.386243305827177"><ele>134.66666666666666</ele><time>2026-05-03T08:53:04Z</time></trkpt><trkpt lat="43.957780793838275" lon="12.38647464198411"><ele>134.33333333333331</ele><time>2026-05-03T08:53:05Z</time></trkpt><trkpt lat="43.95773582619655" lon="12.3867057655845"><ele>134.0</ele><time>2026-05-03T08:53:06Z</time></trkpt><trkpt lat="43.95768047362752" lon="12.386930853690787"><ele>134.0</ele><time>2026-05-03T08:53:07Z</time></trkpt><trkpt lat="43.957619322590595" lon="12.38716040161882"><ele>134.0</ele><time>2026-05-03T08:53:08Z</time></trkpt><trkpt lat="43.95755265926389" lon="12.38739354737088"><ele>134.0</ele><time>2026-05-03T08:53:09Z</time></trkpt><trkpt lat="43.95748780133526" lon="12.387635833635544"><ele>134.0</ele><time>2026-05-03T08:53:10Z</time></trkpt><trkpt lat="43.95742116610644" lon="12.387879631425381"><ele>134.0</ele><time>2026-05-03T08:53:11Z</time></trkpt><trkpt lat="43.95735526982613" lon="12.388119713935698"><ele>134.0</ele><time>2026-05-03T08:53:12Z</time></trkpt><trkpt lat="43.95729371959398" lon="12.388361039702604"><ele>134.0</ele><time>2026-05-03T08:53:13Z</time></trkpt><trkpt lat="43.95723062388712" lon="12.388599515333613"><ele>134.0</ele><time>2026-05-03T08:53:14Z</time></trkpt><trkpt lat="43.957167035358914" lon="12.388827626885814"><ele>134.0</ele><time>2026-05-03T08:53:15Z</time></trkpt><trkpt lat="43.95711326265143" lon="12.38905361366465"><ele>133.0</ele><time>2026-05-03T08:53:16Z</time></trkpt><trkpt lat="43.95706532048574" lon="12.389276187546798"><ele>132.0</ele><time>2026-05-03T08:53:17Z</time></trkpt><trkpt lat="43.95702578473011" lon="12.389498722178903"><ele>131.0</ele><time>2026-05-03T08:53:18Z</time></trkpt><trkpt lat="43.95699184137023" lon="12.389725443686572"><ele>131.0</ele><time>2026-05-03T08:53:19Z</time></trkpt><trkpt lat="43.95696845977736" lon="12.389955458878841"><ele>131.0</ele><time>2026-05-03T08:53:20Z</time></trkpt><trkpt lat="43.95694980881625" lon="12.390185098716765"><ele>131.0</ele><time>2026-05-03T08:53:21Z</time></trkpt><trkpt lat="43.95693805076984" lon="12.390421934166014"><ele>130.66666666666666</ele><time>2026-05-03T08:53:22Z</time></trkpt><trkpt lat="43.95693350089637" lon="12.39065581745928"><ele>130.33333333333334</ele><time>2026-05-03T08:53:23Z</time></trkpt><trkpt lat="43.956940153419424" lon="12.390883107876451"><ele>130.0</ele><time>2026-05-03T08:53:24Z</time></trkpt><trkpt lat="43.956951335613674" lon="12.39110594962869"><ele>130.0</ele><time>2026-05-03T08:53:25Z</time></trkpt><trkpt lat="43.95696853304577" lon="12.39132820051768"><ele>130.0</ele><time>2026-05-03T08:53:26Z</time></trkpt><trkpt lat="43.95699237728394" lon="12.391540788855373"><ele>130.0</ele><time>2026-05-03T08:53:27Z</time></trkpt><trkpt lat="43.95702843639754" lon="12.391756843415806"><ele>130.0</ele><time>2026-05-03T08:53:28Z</time></trkpt><trkpt lat="43.95707220446709" lon="12.391964071419437"><ele>130.0</ele><time>2026-05-03T08:53:29Z</time></trkpt><trkpt lat="43.957126534274046" lon="12.392170653230318"><ele>130.0</ele><time>2026-05-03T08:53:30Z</time></trkpt><trkpt lat="43.95718357528078" lon="12.39237308451665"><ele>130.33333333333334</ele><time>2026-05-03T08:53:31Z</time></trkpt><trkpt lat="43.957246390764844" lon="12.392580192137162"><ele>130.66666666666666</ele><time>2026-05-03T08:53:32Z</time></trkpt><trkpt lat="43.95731117536271" lon="12.392787040757854"><ele>131.0</ele><time>2026-05-03T08:53:33Z</time></trkpt><trkpt lat="43.95738250246866" lon="12.392990998928918"><ele>129.66666666666666</ele><time>2026-05-03T08:53:34Z</time></trkpt><trkpt lat="43.95745627180599" lon="12.393198287157762"><ele>128.33333333333334</ele><time>2026-05-03T08:53:35Z</time></trkpt><trkpt lat="43.957528849871956" lon="12.393405067321893"><ele>127.0</ele><time>2026-05-03T08:53:36Z</time></trkpt><trkpt lat="43.957601985359005" lon="12.393617702987147"><ele>127.0</ele><time>2026-05-03T08:53:37Z</time></trkpt><trkpt lat="43.957676843234886" lon="12.39382616749406"><ele>127.0</ele><time>2026-05-03T08:53:38Z</time></trkpt><trkpt lat="43.95775090107094" lon="12.394036505943308"><ele>127.0</ele><time>2026-05-03T08:53:39Z</time></trkpt><trkpt lat="43.95782891322366" lon="12.394252635313606"><ele>127.33333333333334</ele><time>2026-05-03T08:53:40Z</time></trkpt><trkpt lat="43.95790368946934" lon="12.394468903501764"><ele>127.66666666666666</ele><time>2026-05-03T08:53:41Z</time></trkpt><trkpt lat="43.95797703161674" lon="12.394680353769463"><ele>128.0</ele><time>2026-05-03T08:53:42Z</time></trkpt><trkpt lat="43.958047112506875" lon="12.394887867909764"><ele>129.33333333333331</ele><time>2026-05-03T08:53:42.999Z</time></trkpt><trkpt lat="43.958117509499466" lon="12.3950861491577"><ele>130.66666666666666</ele><time>2026-05-03T08:53:43.999Z</time></trkpt><trkpt lat="43.95818804030817" lon="12.395281553182475"><ele>132.0</ele><time>2026-05-03T08:53:44.999Z</time></trkpt><trkpt lat="43.95825563180357" lon="12.39547128503618"><ele>130.33333333333334</ele><time>2026-05-03T08:53:45.999Z</time></trkpt><trkpt lat="43.95832645065495" lon="12.395668004337091"><ele>128.66666666666669</ele><time>2026-05-03T08:53:46.999Z</time></trkpt><trkpt lat="43.9583908549301" lon="12.395859694650628"><ele>127.0</ele><time>2026-05-03T08:53:47.999Z</time></trkpt><trkpt lat="43.95845700496696" lon="12.396046549803668"><ele>127.0</ele><time>2026-05-03T08:53:48.999Z</time></trkpt><trkpt lat="43.9585247772203" lon="12.396231274860199"><ele>127.0</ele><time>2026-05-03T08:53:49.999Z</time></trkpt><trkpt lat="43.958590455305746" lon="12.39641850288178"><ele>127.0</ele><time>2026-05-03T08:53:50.999Z</time></trkpt><trkpt lat="43.95865598182563" lon="12.396604220044606"><ele>127.0</ele><time>2026-05-03T08:53:51.999Z</time></trkpt><trkpt lat="43.95872056260751" lon="12.396784439265017"><ele>128.0</ele><time>2026-05-03T08:53:52.999Z</time></trkpt><trkpt lat="43.95878320070861" lon="12.396969174116894"><ele>129.0</ele><time>2026-05-03T08:53:53.999Z</time></trkpt><trkpt lat="43.95885184522481" lon="12.397155319102001"><ele>130.0</ele><time>2026-05-03T08:53:54.999Z</time></trkpt><trkpt lat="43.95892165875671" lon="12.397345265922592"><ele>132.33333333333334</ele><time>2026-05-03T08:53:55.999Z</time></trkpt><trkpt lat="43.95899898685145" lon="12.397534056743046"><ele>134.66666666666666</ele><time>2026-05-03T08:53:56.999Z</time></trkpt><trkpt lat="43.959082074481366" lon="12.397719803927881"><ele>137.0</ele><time>2026-05-03T08:53:57.999Z</time></trkpt><trkpt lat="43.95916518198625" lon="12.397905675788987"><ele>135.33333333333331</ele><time>2026-05-03T08:53:58.999Z</time></trkpt><trkpt lat="43.95925075263823" lon="12.39809215364488"><ele>133.66666666666666</ele><time>2026-05-03T08:53:59.999Z</time></trkpt><trkpt lat="43.95933957745432" lon="12.398276003206751"><ele>132.0</ele><time>2026-05-03T08:54:00.999Z</time></trkpt><trkpt lat="43.95942958181241" lon="12.398456076620755"><ele>132.0</ele><time>2026-05-03T08:54:01.999Z</time></trkpt><trkpt lat="43.959521396981174" lon="12.398635117055731"><ele>132.0</ele><time>2026-05-03T08:54:02.999Z</time></trkpt><trkpt lat="43.95961650175887" lon="12.398810207906976"><ele>132.0</ele><time>2026-05-03T08:54:03.999Z</time></trkpt><trkpt lat="43.959709824374166" lon="12.398983943259076"><ele>129.66666666666666</ele><time>2026-05-03T08:54:04.999Z</time></trkpt><trkpt lat="43.95980450873018" lon="12.39915644602955"><ele>127.33333333333333</ele><time>2026-05-03T08:54:05.999Z</time></trkpt><trkpt lat="43.95989761802056" lon="12.399330813787302"><ele>125.0</ele><time>2026-05-03T08:54:06.999Z</time></trkpt><trkpt lat="43.959987710888576" lon="12.399504481383048"><ele>125.0</ele><time>2026-05-03T08:54:07.999Z</time></trkpt><trkpt lat="43.96007809691642" lon="12.399673842416613"><ele>125.0</ele><time>2026-05-03T08:54:08.999Z</time></trkpt><trkpt lat="43.960168887398524" lon="12.399842103780658"><ele>125.0</ele><time>2026-05-03T08:54:09.999Z</time></trkpt><trkpt lat="43.96025934586981" lon="12.40001151935864"><ele>125.0</ele><time>2026-05-03T08:54:10.999Z</time></trkpt><trkpt lat="43.960345937505714" lon="12.400180048963502"><ele>125.0</ele><time>2026-05-03T08:54:11.999Z</time></trkpt><trkpt lat="43.96043447102061" lon="12.400347945118918"><ele>125.0</ele><time>2026-05-03T08:54:12.999Z</time></trkpt><trkpt lat="43.960526375125895" lon="12.400514456397149"><ele>124.5</ele><time>2026-05-03T08:54:13.999Z</time></trkpt><trkpt lat="43.9606200240057" lon="12.400673156697605"><ele>124.0</ele><time>2026-05-03T08:54:14.999Z</time></trkpt><trkpt lat="43.960716651987326" lon="12.4008256735683"><ele>123.5</ele><time>2026-05-03T08:54:15.999Z</time></trkpt><trkpt lat="43.96081417856157" lon="12.400968409699065"><ele>123.0</ele><time>2026-05-03T08:54:16.999Z</time></trkpt><trkpt lat="43.96091282642327" lon="12.401096348166371"><ele>123.0</ele><time>2026-05-03T08:54:17.999Z</time></trkpt><trkpt lat="43.96100963442798" lon="12.401211859682455"><ele>123.00000000000001</ele><time>2026-05-03T08:54:18.999Z</time></trkpt><trkpt lat="43.96110341295135" lon="12.401314005417227"><ele>123.00000000000001</ele><time>2026-05-03T08:54:19.999Z</time></trkpt><trkpt lat="43.961179491924966" lon="12.401405712324335"><ele>123.0</ele><time>2026-05-03T08:54:20.999Z</time></trkpt><trkpt lat="43.961233391736855" lon="12.401496523261995"><ele>123.0</ele><time>2026-05-03T08:54:21.999Z</time></trkpt><trkpt lat="43.961271193782444" lon="12.401597628388503"><ele>124.60000000000001</ele><time>2026-05-03T08:54:22.999Z</time></trkpt><trkpt lat="43.96127919152824" lon="12.401698780539796"><ele>126.20000000000002</ele><time>2026-05-03T08:54:23.999Z</time></trkpt><trkpt lat="43.96124259498497" lon="12.401787062870786"><ele>127.8</ele><time>2026-05-03T08:54:24.999Z</time></trkpt><trkpt lat="43.961171411938004" lon="12.401851530480126"><ele>129.4</ele><time>2026-05-03T08:54:25.999Z</time></trkpt><trkpt lat="43.96106724961028" lon="12.401892486228464"><ele>131.0</ele><time>2026-05-03T08:54:26.999Z</time></trkpt><trkpt lat="43.96094265832461" lon="12.401925261772261"><ele>131.33333333333331</ele><time>2026-05-03T08:54:27.999Z</time></trkpt><trkpt lat="43.960802014728564" lon="12.401982029927156"><ele>131.66666666666666</ele><time>2026-05-03T08:54:28.999Z</time></trkpt><trkpt lat="43.9606531025594" lon="12.402052400654076"><ele>132.0</ele><time>2026-05-03T08:54:29.999Z</time></trkpt><trkpt lat="43.96049823371355" lon="12.402118120225532"><ele>132.0</ele><time>2026-05-03T08:54:30.999Z</time></trkpt><trkpt lat="43.96033627724419" lon="12.402161605266304"><ele>132.0</ele><time>2026-05-03T08:54:31.999Z</time></trkpt><trkpt lat="43.960167092750794" lon="12.402182347302624"><ele>132.0</ele><time>2026-05-03T08:54:32.999Z</time></trkpt><trkpt lat="43.959999335378086" lon="12.402179410284276"><ele>131.5</ele><time>2026-05-03T08:54:33.999Z</time></trkpt><trkpt lat="43.95984212168675" lon="12.402141983862458"><ele>131.0</ele><time>2026-05-03T08:54:34.999Z</time></trkpt><trkpt lat="43.95969587855666" lon="12.40209406495351"><ele>130.5</ele><time>2026-05-03T08:54:35.999Z</time></trkpt><trkpt lat="43.95956705499619" lon="12.402028930581752"><ele>130.0</ele><time>2026-05-03T08:54:36.999Z</time></trkpt><trkpt lat="43.95945408563075" lon="12.40195574383539"><ele>130.0</ele><time>2026-05-03T08:54:37.999Z</time></trkpt><trkpt lat="43.95936540454891" lon="12.401918946935481"><ele>130.0</ele><time>2026-05-03T08:54:38.999Z</time></trkpt><trkpt lat="43.959289195193826" lon="12.40198272429072"><ele>130.0</ele><time>2026-05-03T08:54:39.999Z</time></trkpt><trkpt lat="43.959231999014435" lon="12.402070639251432"><ele>130.0</ele><time>2026-05-03T08:54:40.999Z</time></trkpt><trkpt lat="43.95917015454768" lon="12.402195507995573"><ele>130.0</ele><time>2026-05-03T08:54:41.999Z</time></trkpt><trkpt lat="43.959130375134784" lon="12.40236769408989"><ele>131.0</ele><time>2026-05-03T08:54:42.999Z</time></trkpt><trkpt lat="43.95908538377788" lon="12.402552080204957"><ele>132.0</ele><time>2026-05-03T08:54:43.999Z</time></trkpt><trkpt lat="43.95902358410425" lon="12.402758124447573"><ele>133.0</ele><time>2026-05-03T08:54:44.999Z</time></trkpt><trkpt lat="43.95895070598867" lon="12.402987801408472"><ele>135.0</ele><time>2026-05-03T08:54:45.999Z</time></trkpt><trkpt lat="43.95887912320474" lon="12.40322195246087"><ele>137.0</ele><time>2026-05-03T08:54:46.999Z</time></trkpt><trkpt lat="43.95879324192452" lon="12.403443659335808"><ele>139.0</ele><time>2026-05-03T08:54:47.999Z</time></trkpt><trkpt lat="43.95869993922432" lon="12.403661981500488"><ele>141.0</ele><time>2026-05-03T08:54:49Z</time></trkpt><trkpt lat="43.95859140103434" lon="12.403871276019172"><ele>143.0</ele><time>2026-05-03T08:54:50Z</time></trkpt><trkpt lat="43.95845937986477" lon="12.404062169795715"><ele>145.0</ele><time>2026-05-03T08:54:51Z</time></trkpt><trkpt lat="43.95831558068787" lon="12.404237937147435"><ele>140.66666666666669</ele><time>2026-05-03T08:54:52Z</time></trkpt><trkpt lat="43.958162759345775" lon="12.404399887684011"><ele>136.33333333333334</ele><time>2026-05-03T08:54:53Z</time></trkpt><trkpt lat="43.957996620634454" lon="12.404539214488587"><ele>132.0</ele><time>2026-05-03T08:54:54Z</time></trkpt><trkpt lat="43.95782054750507" lon="12.404650991829572"><ele>132.0</ele><time>2026-05-03T08:54:55Z</time></trkpt><trkpt lat="43.957640932458915" lon="12.4047415177503"><ele>132.0</ele><time>2026-05-03T08:54:56Z</time></trkpt><trkpt lat="43.95745869942983" lon="12.40480939851487"><ele>132.0</ele><time>2026-05-03T08:54:57Z</time></trkpt><trkpt lat="43.95727288590169" lon="12.404853319657278"><ele>132.0</ele><time>2026-05-03T08:54:58Z</time></trkpt><trkpt lat="43.95708932278262" lon="12.404882171498812"><ele>132.0</ele><time>2026-05-03T08:54:59Z</time></trkpt><trkpt lat="43.95690287902913" lon="12.404910629554697"><ele>132.0</ele><time>2026-05-03T08:55:00Z</time></trkpt><trkpt lat="43.9567202696097" lon="12.40494098130911"><ele>132.33333333333334</ele><time>2026-05-03T08:55:01Z</time></trkpt><trkpt lat="43.95653653242066" lon="12.404972953920492"><ele>132.66666666666669</ele><time>2026-05-03T08:55:02Z</time></trkpt><trkpt lat="43.956355416480875" lon="12.404997684965789"><ele>133.0</ele><time>2026-05-03T08:55:03Z</time></trkpt><trkpt lat="43.956176008043386" lon="12.405021511699529"><ele>133.0</ele><time>2026-05-03T08:55:04Z</time></trkpt><trkpt lat="43.95599850818152" lon="12.405047547196487"><ele>133.0</ele><time>2026-05-03T08:55:05Z</time></trkpt><trkpt lat="43.9558227794739" lon="12.405076871004026"><ele>133.0</ele><time>2026-05-03T08:55:06Z</time></trkpt><trkpt lat="43.95564894352954" lon="12.40510494064338"><ele>133.66666666666669</ele><time>2026-05-03T08:55:07Z</time></trkpt><trkpt lat="43.95547605004312" lon="12.40513350956783"><ele>134.33333333333334</ele><time>2026-05-03T08:55:08Z</time></trkpt><trkpt lat="43.955307243549605" lon="12.405161001043233"><ele>135.0</ele><time>2026-05-03T08:55:09Z</time></trkpt><trkpt lat="43.95514023018083" lon="12.405180436507532"><ele>136.0</ele><time>2026-05-03T08:55:10Z</time></trkpt><trkpt lat="43.95498555131464" lon="12.405199361654255"><ele>137.0</ele><time>2026-05-03T08:55:11Z</time></trkpt><trkpt lat="43.954841190714745" lon="12.405224795214446"><ele>138.0</ele><time>2026-05-03T08:55:12Z</time></trkpt><trkpt lat="43.95471112940753" lon="12.405244911945802"><ele>139.0</ele><time>2026-05-03T08:55:13Z</time></trkpt><trkpt lat="43.954595667254594" lon="12.405262216601232"><ele>139.0</ele><time>2026-05-03T08:55:14Z</time></trkpt><trkpt lat="43.95449862259607" lon="12.405275970942625"><ele>139.0</ele><time>2026-05-03T08:55:15Z</time></trkpt><trkpt lat="43.95441552945762" lon="12.405289119017771"><ele>139.0</ele><time>2026-05-03T08:55:16Z</time></trkpt><trkpt lat="43.9543411120592" lon="12.405301535978843"><ele>139.0</ele><time>2026-05-03T08:55:16.999Z</time></trkpt><trkpt lat="43.95426795070893" lon="12.405316135667949"><ele>139.0</ele><time>2026-05-03T08:55:17.999Z</time></trkpt><trkpt lat="43.954192689896" lon="12.40533245071411"><ele>139.0</ele><time>2026-05-03T08:55:18.999Z</time></trkpt><trkpt lat="43.95411995152215" lon="12.405347970879792"><ele>139.16666666666669</ele><time>2026-05-03T08:55:19.999Z</time></trkpt><trkpt lat="43.95405179541311" lon="12.405364729551442"><ele>139.33333333333334</ele><time>2026-05-03T08:55:20.999Z</time></trkpt><trkpt lat="43.95398399352433" lon="12.405382045014237"><ele>139.5</ele><time>2026-05-03T08:55:21.999Z</time></trkpt><trkpt lat="43.95391850583984" lon="12.405396787943328"><ele>139.66666666666666</ele><time>2026-05-03T08:55:22.999Z</time></trkpt><trkpt lat="43.953818862695364" lon="12.405444394252168"><ele>139.83333333333331</ele><time>2026-05-03T08:55:24.999Z</time></trkpt><trkpt lat="43.953743104583936" lon="12.405462064552099"><ele>140.0</ele><time>2026-05-03T08:55:27.999Z</time></trkpt><trkpt lat="43.95367991763315" lon="12.405476802682106"><ele>140.0</ele><time>2026-05-03T08:59:27Z</time></trkpt><trkpt lat="43.95359161619164" lon="12.405455128572447"><ele>140.0</ele><time>2026-05-03T08:59:29Z</time></trkpt><trkpt lat="43.95344490728786" lon="12.405523806697706"><ele>140.0</ele><time>2026-05-03T08:59:31Z</time></trkpt><trkpt lat="43.95334036272866" lon="12.405553594621844"><ele>140.0</ele><time>2026-05-03T08:59:32Z</time></trkpt><trkpt lat="43.95324700360012" lon="12.40558434186177"><ele>140.0</ele><time>2026-05-03T08:59:33Z</time></trkpt><trkpt lat="43.95315463562383" lon="12.405605145093547"><ele>140.8</ele><time>2026-05-03T08:59:34Z</time></trkpt><trkpt lat="43.953058313985174" lon="12.405629148617262"><ele>141.6</ele><time>2026-05-03T08:59:35Z</time></trkpt><trkpt lat="43.95296255184752" lon="12.405651953842884"><ele>142.4</ele><time>2026-05-03T08:59:36Z</time></trkpt><trkpt lat="43.95286675081109" lon="12.405674667290779"><ele>143.2</ele><time>2026-05-03T08:59:37Z</time></trkpt><trkpt lat="43.952769915390064" lon="12.40569484073626"><ele>144.0</ele><time>2026-05-03T08:59:38Z</time></trkpt><trkpt lat="43.95267512424807" lon="12.405715852229392"><ele>144.0</ele><time>2026-05-03T08:59:39Z</time></trkpt><trkpt lat="43.95258173794169" lon="12.405739047824799"><ele>144.0</ele><time>2026-05-03T08:59:40Z</time></trkpt><trkpt lat="43.95248943696567" lon="12.405757774107975"><ele>144.0</ele><time>2026-05-03T08:59:40.999Z</time></trkpt><trkpt lat="43.95240473492693" lon="12.405776454847627"><ele>144.0</ele><time>2026-05-03T08:59:41.999Z</time></trkpt><trkpt lat="43.95232024358887" lon="12.40579037280289"><ele>144.0</ele><time>2026-05-03T08:59:42.999Z</time></trkpt><trkpt lat="43.95224262707852" lon="12.405810075875152"><ele>144.0</ele><time>2026-05-03T08:59:43.999Z</time></trkpt><trkpt lat="43.95217335028187" lon="12.405830767576344"><ele>144.0</ele><time>2026-05-03T08:59:44.999Z</time></trkpt><trkpt lat="43.95210574334214" lon="12.405851542808879"><ele>144.0</ele><time>2026-05-03T08:59:45.999Z</time></trkpt><trkpt lat="43.95203890210018" lon="12.405878693628525"><ele>144.0</ele><time>2026-05-03T08:59:46.999Z</time></trkpt><trkpt lat="43.95196827600727" lon="12.405909960987326"><ele>144.0</ele><time>2026-05-03T08:59:47.999Z</time></trkpt><trkpt lat="43.95186751718028" lon="12.405914612081167"><ele>144.0</ele><time>2026-05-03T08:59:48.999Z</time></trkpt><trkpt lat="43.95178491488089" lon="12.405955209767935"><ele>144.0</ele><time>2026-05-03T08:59:49.999Z</time></trkpt><trkpt lat="43.95170549437326" lon="12.405994197448853"><ele>144.5</ele><time>2026-05-03T08:59:50.999Z</time></trkpt><trkpt lat="43.95163384965319" lon="12.406040727424768"><ele>145.0</ele><time>2026-05-03T08:59:51.999Z</time></trkpt><trkpt lat="43.95154982486857" lon="12.40608308916206"><ele>145.5</ele><time>2026-05-03T08:59:52.999Z</time></trkpt><trkpt lat="43.95146498588644" lon="12.406124262806593"><ele>146.0</ele><time>2026-05-03T08:59:53.999Z</time></trkpt><trkpt lat="43.9513800164811" lon="12.406169961710745"><ele>146.5</ele><time>2026-05-03T08:59:54.999Z</time></trkpt><trkpt lat="43.951293401794786" lon="12.406213231807572"><ele>147.0</ele><time>2026-05-03T08:59:55.999Z</time></trkpt><trkpt lat="43.951207069974245" lon="12.406260066230312"><ele>147.0</ele><time>2026-05-03T08:59:56.999Z</time></trkpt><trkpt lat="43.95112057475266" lon="12.406306049199802"><ele>147.0</ele><time>2026-05-03T08:59:57.999Z</time></trkpt><trkpt lat="43.95103031786296" lon="12.406352772629427"><ele>147.0</ele><time>2026-05-03T08:59:58.999Z</time></trkpt><trkpt lat="43.95093680143658" lon="12.406403226374863"><ele>147.0</ele><time>2026-05-03T08:59:59.999Z</time></trkpt><trkpt lat="43.950843073135324" lon="12.406446521877234"><ele>147.0</ele><time>2026-05-03T09:00:00.999Z</time></trkpt><trkpt lat="43.95074036910737" lon="12.406499363562858"><ele>148.6</ele><time>2026-05-03T09:00:01.999Z</time></trkpt><trkpt lat="43.950637592115775" lon="12.406554345075746"><ele>150.2</ele><time>2026-05-03T09:00:02.999Z</time></trkpt><trkpt lat="43.95053529943392" lon="12.40659730814186"><ele>151.8</ele><time>2026-05-03T09:00:03.999Z</time></trkpt><trkpt lat="43.950438644230736" lon="12.406649961446366"><ele>153.4</ele><time>2026-05-03T09:00:04.999Z</time></trkpt><trkpt lat="43.95033856908141" lon="12.40669957881044"><ele>155.0</ele><time>2026-05-03T09:00:05.999Z</time></trkpt><trkpt lat="43.950243116002525" lon="12.406773335812534"><ele>155.0</ele><time>2026-05-03T09:00:06.999Z</time></trkpt><trkpt lat="43.95016021780959" lon="12.406867891880248"><ele>155.0</ele><time>2026-05-03T09:00:07.999Z</time></trkpt><trkpt lat="43.95007495856253" lon="12.406929673553199"><ele>155.0</ele><time>2026-05-03T09:00:08.999Z</time></trkpt><trkpt lat="43.949992702887634" lon="12.407000818292715"><ele>155.0</ele><time>2026-05-03T09:00:09.999Z</time></trkpt><trkpt lat="43.949916767786945" lon="12.407082620148302"><ele>155.0</ele><time>2026-05-03T09:00:10.999Z</time></trkpt><trkpt lat="43.949834738969805" lon="12.407162718451227"><ele>157.4</ele><time>2026-05-03T09:00:11.999Z</time></trkpt><trkpt lat="43.94975384928021" lon="12.407252799280085"><ele>159.8</ele><time>2026-05-03T09:00:12.999Z</time></trkpt><trkpt lat="43.949666134436036" lon="12.407337661158024"><ele>162.2</ele><time>2026-05-03T09:00:13.999Z</time></trkpt><trkpt lat="43.949584431023446" lon="12.407414552680905"><ele>164.6</ele><time>2026-05-03T09:00:14.999Z</time></trkpt><trkpt lat="43.9495013983523" lon="12.40750397159118"><ele>167.0</ele><time>2026-05-03T09:00:15.999Z</time></trkpt><trkpt lat="43.94941969862417" lon="12.407587248071616"><ele>167.0</ele><time>2026-05-03T09:00:16.999Z</time></trkpt><trkpt lat="43.949334917913276" lon="12.407674464197266"><ele>167.0</ele><time>2026-05-03T09:00:17.999Z</time></trkpt><trkpt lat="43.94924591279421" lon="12.407757088781764"><ele>167.0</ele><time>2026-05-03T09:00:18.999Z</time></trkpt><trkpt lat="43.94914882423879" lon="12.407826039519133"><ele>167.0</ele><time>2026-05-03T09:00:19.999Z</time></trkpt><trkpt lat="43.94904839624776" lon="12.407871357033669"><ele>167.0</ele><time>2026-05-03T09:00:20.999Z</time></trkpt><trkpt lat="43.948952547496134" lon="12.407902153530967"><ele>166.6</ele><time>2026-05-03T09:00:21.999Z</time></trkpt><trkpt lat="43.94884097184398" lon="12.407935126745636"><ele>166.2</ele><time>2026-05-03T09:00:22.999Z</time></trkpt><trkpt lat="43.948745836751684" lon="12.40793581270607"><ele>165.8</ele><time>2026-05-03T09:00:23.999Z</time></trkpt><trkpt lat="43.94864370687168" lon="12.407918537644965"><ele>165.4</ele><time>2026-05-03T09:00:24.999Z</time></trkpt><trkpt lat="43.948533198925674" lon="12.407877175487313"><ele>165.0</ele><time>2026-05-03T09:00:25.999Z</time></trkpt><trkpt lat="43.94843139202541" lon="12.407845122751846"><ele>165.33333333333334</ele><time>2026-05-03T09:00:26.999Z</time></trkpt><trkpt lat="43.9483377633116" lon="12.407815220134637"><ele>165.66666666666666</ele><time>2026-05-03T09:00:27.999Z</time></trkpt><trkpt lat="43.94824828905551" lon="12.407783722171244"><ele>166.0</ele><time>2026-05-03T09:00:28.999Z</time></trkpt><trkpt lat="43.948156984938166" lon="12.407765550870714"><ele>166.33333333333331</ele><time>2026-05-03T09:00:29.999Z</time></trkpt><trkpt lat="43.94807394369053" lon="12.407782526250154"><ele>166.66666666666666</ele><time>2026-05-03T09:00:30.999Z</time></trkpt><trkpt lat="43.947998642009864" lon="12.407830362813357"><ele>167.0</ele><time>2026-05-03T09:00:31.999Z</time></trkpt><trkpt lat="43.947971193251256" lon="12.407943246969788"><ele>170.2</ele><time>2026-05-03T09:00:32.999Z</time></trkpt><trkpt lat="43.94794519433982" lon="12.408041423922574"><ele>173.39999999999998</ele><time>2026-05-03T09:00:33.999Z</time></trkpt><trkpt lat="43.947976520718704" lon="12.408173293206694"><ele>176.60000000000002</ele><time>2026-05-03T09:00:34.999Z</time></trkpt><trkpt lat="43.94804258112423" lon="12.408278490839809"><ele>179.8</ele><time>2026-05-03T09:00:35.999Z</time></trkpt><trkpt lat="43.94812645081333" lon="12.408352041380478"><ele>183.0</ele><time>2026-05-03T09:00:36.999Z</time></trkpt><trkpt lat="43.94822247988971" lon="12.4084088627824"><ele>183.0</ele><time>2026-05-03T09:00:37.999Z</time></trkpt><trkpt lat="43.94832072804446" lon="12.40846371209051"><ele>183.0</ele><time>2026-05-03T09:00:38.999Z</time></trkpt><trkpt lat="43.94842197109214" lon="12.40852370706915"><ele>183.0</ele><time>2026-05-03T09:00:39.999Z</time></trkpt><trkpt lat="43.948520466097925" lon="12.408595733063988"><ele>183.0</ele><time>2026-05-03T09:00:40.999Z</time></trkpt><trkpt lat="43.94862088479402" lon="12.408665532834448"><ele>183.0</ele><time>2026-05-03T09:00:41.999Z</time></trkpt><trkpt lat="43.948721048474134" lon="12.408738589721873"><ele>182.0</ele><time>2026-05-03T09:00:42.999Z</time></trkpt><trkpt lat="43.948815610561404" lon="12.408811443261136"><ele>181.0</ele><time>2026-05-03T09:00:43.999Z</time></trkpt><trkpt lat="43.94889792210106" lon="12.40890236013372"><ele>180.0</ele><time>2026-05-03T09:00:44.999Z</time></trkpt><trkpt lat="43.94896992775578" lon="12.409013238096144"><ele>179.0</ele><time>2026-05-03T09:00:45.999Z</time></trkpt><trkpt lat="43.94904190380905" lon="12.409124419119436"><ele>178.0</ele><time>2026-05-03T09:00:46.999Z</time></trkpt><trkpt lat="43.949117754897784" lon="12.409232446928332"><ele>180.2</ele><time>2026-05-03T09:00:47.999Z</time></trkpt><trkpt lat="43.949197578577504" lon="12.409330933928759"><ele>182.4</ele><time>2026-05-03T09:00:48.999Z</time></trkpt><trkpt lat="43.949287213729086" lon="12.409412776704782"><ele>184.6</ele><time>2026-05-03T09:00:49.999Z</time></trkpt><trkpt lat="43.94939015794279" lon="12.409468854345452"><ele>186.79999999999998</ele><time>2026-05-03T09:00:50.999Z</time></trkpt><trkpt lat="43.949492574399805" lon="12.409519782135586"><ele>189.0</ele><time>2026-05-03T09:00:51.999Z</time></trkpt><trkpt lat="43.949594602490336" lon="12.409578731490972"><ele>189.0</ele><time>2026-05-03T09:00:52.999Z</time></trkpt><trkpt lat="43.94969362014372" lon="12.409650570406951"><ele>189.0</ele><time>2026-05-03T09:00:53.999Z</time></trkpt><trkpt lat="43.94978589526264" lon="12.409733068197717"><ele>189.0</ele><time>2026-05-03T09:00:54.999Z</time></trkpt><trkpt lat="43.94987691630373" lon="12.409818833528622"><ele>189.0</ele><time>2026-05-03T09:00:55.999Z</time></trkpt><trkpt lat="43.94996692629333" lon="12.40990535850948"><ele>189.0</ele><time>2026-05-03T09:00:56.999Z</time></trkpt><trkpt lat="43.950057731214244" lon="12.409992538826687"><ele>189.79999999999998</ele><time>2026-05-03T09:00:57.999Z</time></trkpt><trkpt lat="43.95014837940681" lon="12.410079152906881"><ele>190.6</ele><time>2026-05-03T09:00:58.999Z</time></trkpt><trkpt lat="43.950235283330215" lon="12.41016841888122"><ele>191.4</ele><time>2026-05-03T09:00:59.999Z</time></trkpt><trkpt lat="43.95031524213497" lon="12.410265086864054"><ele>192.2</ele><time>2026-05-03T09:01:00.999Z</time></trkpt><trkpt lat="43.950383821724145" lon="12.410376676549308"><ele>193.0</ele><time>2026-05-03T09:01:01.999Z</time></trkpt><trkpt lat="43.9504343968074" lon="12.410505344571137"><ele>193.4</ele><time>2026-05-03T09:01:02.999Z</time></trkpt><trkpt lat="43.95045983310697" lon="12.41064835759072"><ele>193.8</ele><time>2026-05-03T09:01:03.999Z</time></trkpt><trkpt lat="43.95045051857604" lon="12.410798453889385"><ele>194.2</ele><time>2026-05-03T09:01:04.999Z</time></trkpt><trkpt lat="43.95040783637012" lon="12.410935607200862"><ele>194.6</ele><time>2026-05-03T09:01:05.999Z</time></trkpt><trkpt lat="43.95033780800098" lon="12.411044510691783"><ele>195.0</ele><time>2026-05-03T09:01:07Z</time></trkpt><trkpt lat="43.95024634910615" lon="12.411096646924697"><ele>195.0</ele><time>2026-05-03T09:01:08Z</time></trkpt><trkpt lat="43.950139429457536" lon="12.411091312818039"><ele>195.0</ele><time>2026-05-03T09:01:09Z</time></trkpt><trkpt lat="43.95002216716158" lon="12.411043805798778"><ele>195.0</ele><time>2026-05-03T09:01:10Z</time></trkpt><trkpt lat="43.94988788526618" lon="12.410965644812208"><ele>195.0</ele><time>2026-05-03T09:01:11Z</time></trkpt><trkpt lat="43.9497528417975" lon="12.410897611278905"><ele>198.25</ele><time>2026-05-03T09:01:12Z</time></trkpt><trkpt lat="43.9496241446497" lon="12.410858502501474"><ele>201.5</ele><time>2026-05-03T09:01:13Z</time></trkpt><trkpt lat="43.94949573317589" lon="12.410854058961064"><ele>204.75</ele><time>2026-05-03T09:01:14Z</time></trkpt><trkpt lat="43.94937049746952" lon="12.410866483933475"><ele>208.0</ele><time>2026-05-03T09:01:15Z</time></trkpt><trkpt lat="43.94924346882285" lon="12.410875799521708"><ele>209.25</ele><time>2026-05-03T09:01:16Z</time></trkpt><trkpt lat="43.949122913497185" lon="12.410887485635534"><ele>210.5</ele><time>2026-05-03T09:01:17Z</time></trkpt><trkpt lat="43.94900645244541" lon="12.410905396067482"><ele>211.75</ele><time>2026-05-03T09:01:18Z</time></trkpt><trkpt lat="43.94889412240351" lon="12.410932262807753"><ele>213.0</ele><time>2026-05-03T09:01:19Z</time></trkpt><trkpt lat="43.948786552946274" lon="12.410972382652918"><ele>213.0</ele><time>2026-05-03T09:01:20Z</time></trkpt><trkpt lat="43.9486766603867" lon="12.411021944737033"><ele>213.0</ele><time>2026-05-03T09:01:21Z</time></trkpt><trkpt lat="43.948571089476545" lon="12.41107767796963"><ele>213.0</ele><time>2026-05-03T09:01:22Z</time></trkpt><trkpt lat="43.94846863835943" lon="12.411132461626455"><ele>213.0</ele><time>2026-05-03T09:01:23Z</time></trkpt><trkpt lat="43.94837030759359" lon="12.411186627954821"><ele>213.0</ele><time>2026-05-03T09:01:24Z</time></trkpt><trkpt lat="43.94827908702058" lon="12.411239933705367"><ele>214.0</ele><time>2026-05-03T09:01:25Z</time></trkpt><trkpt lat="43.94820178033221" lon="12.411313588883493"><ele>215.0</ele><time>2026-05-03T09:01:26Z</time></trkpt><trkpt lat="43.94814613400644" lon="12.411427241160318"><ele>216.0</ele><time>2026-05-03T09:01:27Z</time></trkpt><trkpt lat="43.94811826323443" lon="12.411561220384087"><ele>217.0</ele><time>2026-05-03T09:01:28Z</time></trkpt><trkpt lat="43.948121199292395" lon="12.411709946850726"><ele>218.0</ele><time>2026-05-03T09:01:29Z</time></trkpt><trkpt lat="43.94814272520192" lon="12.41185516061412"><ele>220.5</ele><time>2026-05-03T09:01:30Z</time></trkpt><trkpt lat="43.94818531890355" lon="12.411999200845448"><ele>223.0</ele><time>2026-05-03T09:01:31Z</time></trkpt><trkpt lat="43.948235251663256" lon="12.412144312432973"><ele>225.5</ele><time>2026-05-03T09:01:32Z</time></trkpt><trkpt lat="43.948280229439014" lon="12.412293788036564"><ele>228.0</ele><time>2026-05-03T09:01:33Z</time></trkpt><trkpt lat="43.94831866565755" lon="12.412446483746248"><ele>229.75</ele><time>2026-05-03T09:01:34Z</time></trkpt><trkpt lat="43.94833774363752" lon="12.412604222472087"><ele>231.5</ele><time>2026-05-03T09:01:35Z</time></trkpt><trkpt lat="43.948336229905415" lon="12.412766790880218"><ele>233.25</ele><time>2026-05-03T09:01:36Z</time></trkpt><trkpt lat="43.94831141951599" lon="12.412929333561593"><ele>235.0</ele><time>2026-05-03T09:01:37Z</time></trkpt><trkpt lat="43.948277815044854" lon="12.413090199286033"><ele>236.0</ele><time>2026-05-03T09:01:38Z</time></trkpt><trkpt lat="43.948252468877534" lon="12.413249561895002"><ele>237.0</ele><time>2026-05-03T09:01:39Z</time></trkpt><trkpt lat="43.94822377336452" lon="12.413408839012735"><ele>238.0</ele><time>2026-05-03T09:01:40Z</time></trkpt><trkpt lat="43.948183148019965" lon="12.413558359614647"><ele>239.0</ele><time>2026-05-03T09:01:41Z</time></trkpt><trkpt lat="43.94811845760538" lon="12.4136911547284"><ele>239.0</ele><time>2026-05-03T09:01:42Z</time></trkpt><trkpt lat="43.948036024565404" lon="12.413803259288173"><ele>239.0</ele><time>2026-05-03T09:01:43Z</time></trkpt><trkpt lat="43.94794562548502" lon="12.413904598959224"><ele>239.0</ele><time>2026-05-03T09:01:44Z</time></trkpt><trkpt lat="43.947854713170756" lon="12.414005388398746"><ele>239.0</ele><time>2026-05-03T09:01:45Z</time></trkpt><trkpt lat="43.947774216760884" lon="12.414117220234129"><ele>240.75</ele><time>2026-05-03T09:01:46Z</time></trkpt><trkpt lat="43.94770477352507" lon="12.414246513910449"><ele>242.5</ele><time>2026-05-03T09:01:47Z</time></trkpt><trkpt lat="43.94765699001004" lon="12.41439113258775"><ele>244.25</ele><time>2026-05-03T09:01:48Z</time></trkpt><trkpt lat="43.94762402194306" lon="12.414543743703893"><ele>246.0</ele><time>2026-05-03T09:01:48.999Z</time></trkpt><trkpt lat="43.94760626348501" lon="12.414698318685938"><ele>247.5</ele><time>2026-05-03T09:01:49.999Z</time></trkpt><trkpt lat="43.94759204651691" lon="12.414853136237074"><ele>249.0</ele><time>2026-05-03T09:01:50.999Z</time></trkpt><trkpt lat="43.94757675013219" lon="12.415009908516994"><ele>250.5</ele><time>2026-05-03T09:01:51.999Z</time></trkpt><trkpt lat="43.947558783303684" lon="12.415164459723673"><ele>252.0</ele><time>2026-05-03T09:01:52.999Z</time></trkpt><trkpt lat="43.94754117237264" lon="12.415325917168301"><ele>253.5</ele><time>2026-05-03T09:01:53.999Z</time></trkpt><trkpt lat="43.947519212590905" lon="12.415493779305967"><ele>255.0</ele><time>2026-05-03T09:01:54.999Z</time></trkpt><trkpt lat="43.94748949680646" lon="12.415667140568466"><ele>256.5</ele><time>2026-05-03T09:01:55.999Z</time></trkpt><trkpt lat="43.94746953300066" lon="12.415848457545087"><ele>258.0</ele><time>2026-05-03T09:01:56.999Z</time></trkpt><trkpt lat="43.94745580256272" lon="12.416038064574895"><ele>258.0</ele><time>2026-05-03T09:01:57.999Z</time></trkpt><trkpt lat="43.947437881969016" lon="12.416237682504638"><ele>258.0</ele><time>2026-05-03T09:01:58.999Z</time></trkpt><trkpt lat="43.94741787084306" lon="12.41643842005813"><ele>258.0</ele><time>2026-05-03T09:01:59.999Z</time></trkpt><trkpt lat="43.94739903925634" lon="12.416634412824145"><ele>258.0</ele><time>2026-05-03T09:02:00.999Z</time></trkpt><trkpt lat="43.94738133108134" lon="12.416826973093134"><ele>259.75</ele><time>2026-05-03T09:02:01.999Z</time></trkpt><trkpt lat="43.947363513041005" lon="12.41701401195442"><ele>261.5</ele><time>2026-05-03T09:02:02.999Z</time></trkpt><trkpt lat="43.94734529998933" lon="12.417199064172664"><ele>263.25</ele><time>2026-05-03T09:02:03.999Z</time></trkpt><trkpt lat="43.94732588073119" lon="12.41737736263022"><ele>265.0</ele><time>2026-05-03T09:02:04.999Z</time></trkpt><trkpt lat="43.947303095382885" lon="12.417553253664451"><ele>266.5</ele><time>2026-05-03T09:02:05.999Z</time></trkpt><trkpt lat="43.94727196357559" lon="12.417723318871102"><ele>268.0</ele><time>2026-05-03T09:02:06.999Z</time></trkpt><trkpt lat="43.94722852078237" lon="12.41788738845652"><ele>269.5</ele><time>2026-05-03T09:02:07.999Z</time></trkpt><trkpt lat="43.94716137365848" lon="12.418038097460924"><ele>271.0</ele><time>2026-05-03T09:02:08.999Z</time></trkpt><trkpt lat="43.94707572479702" lon="12.418172221903072"><ele>273.75</ele><time>2026-05-03T09:02:09.999Z</time></trkpt><trkpt lat="43.94697697140101" lon="12.418293985287427"><ele>276.5</ele><time>2026-05-03T09:02:10.999Z</time></trkpt><trkpt lat="43.9468848146006" lon="12.418423167591213"><ele>279.25</ele><time>2026-05-03T09:02:11.999Z</time></trkpt><trkpt lat="43.9468015941938" lon="12.418559185823872"><ele>282.0</ele><time>2026-05-03T09:02:12.999Z</time></trkpt><trkpt lat="43.946723581641194" lon="12.418692817119467"><ele>281.2</ele><time>2026-05-03T09:02:13.999Z</time></trkpt><trkpt lat="43.94664232636656" lon="12.418804889530687"><ele>280.4</ele><time>2026-05-03T09:02:14.999Z</time></trkpt><trkpt lat="43.94654360432003" lon="12.418866356383454"><ele>279.6</ele><time>2026-05-03T09:02:15.999Z</time></trkpt><trkpt lat="43.946435749132476" lon="12.418862891624261"><ele>278.8</ele><time>2026-05-03T09:02:16.999Z</time></trkpt><trkpt lat="43.94633164386786" lon="12.41880126635593"><ele>278.0</ele><time>2026-05-03T09:02:17.999Z</time></trkpt><trkpt lat="43.946233109493704" lon="12.418698315192358"><ele>278.0</ele><time>2026-05-03T09:02:18.999Z</time></trkpt><trkpt lat="43.94613217974512" lon="12.418584162681896"><ele>278.0</ele><time>2026-05-03T09:02:19.999Z</time></trkpt><trkpt lat="43.94602411440651" lon="12.418480154009977"><ele>278.0</ele><time>2026-05-03T09:02:20.999Z</time></trkpt><trkpt lat="43.94591390453043" lon="12.418379458545571"><ele>278.0</ele><time>2026-05-03T09:02:21.999Z</time></trkpt><trkpt lat="43.945803892043976" lon="12.418277307328047"><ele>278.5</ele><time>2026-05-03T09:02:22.999Z</time></trkpt><trkpt lat="43.945696956061916" lon="12.418175550192647"><ele>279.0</ele><time>2026-05-03T09:02:23.999Z</time></trkpt><trkpt lat="43.94559397179811" lon="12.418077621773692"><ele>279.5</ele><time>2026-05-03T09:02:24.999Z</time></trkpt><trkpt lat="43.9454916751337" lon="12.417987245414254"><ele>280.0</ele><time>2026-05-03T09:02:25.999Z</time></trkpt><trkpt lat="43.945395588718036" lon="12.417898386353453"><ele>280.0</ele><time>2026-05-03T09:02:26.999Z</time></trkpt><trkpt lat="43.945298681188866" lon="12.417830368899997"><ele>280.0</ele><time>2026-05-03T09:02:27.999Z</time></trkpt><trkpt lat="43.94519267312307" lon="12.417813202701279"><ele>280.0</ele><time>2026-05-03T09:02:28.999Z</time></trkpt><trkpt lat="43.94508797151327" lon="12.417852770430633"><ele>280.0</ele><time>2026-05-03T09:02:29.999Z</time></trkpt><trkpt lat="43.945001269492465" lon="12.417934216006318"><ele>280.0</ele><time>2026-05-03T09:02:30.999Z</time></trkpt><trkpt lat="43.944939322379234" lon="12.418058139527197"><ele>281.8</ele><time>2026-05-03T09:02:31.999Z</time></trkpt><trkpt lat="43.9449031073109" lon="12.418188963867253"><ele>283.6</ele><time>2026-05-03T09:02:32.999Z</time></trkpt><trkpt lat="43.94489946024306" lon="12.41833293333319"><ele>285.4</ele><time>2026-05-03T09:02:33.999Z</time></trkpt><trkpt lat="43.944930870242324" lon="12.4184721011935"><ele>287.2</ele><time>2026-05-03T09:02:34.999Z</time></trkpt><trkpt lat="43.9449955105569" lon="12.418596755345568"><ele>289.0</ele><time>2026-05-03T09:02:35.999Z</time></trkpt><trkpt lat="43.945058571484765" lon="12.418715194356887"><ele>291.0</ele><time>2026-05-03T09:02:36.999Z</time></trkpt><trkpt lat="43.94511506296908" lon="12.418839356842101"><ele>293.0</ele><time>2026-05-03T09:02:37.999Z</time></trkpt><trkpt lat="43.94516948416334" lon="12.418968626296252"><ele>295.0</ele><time>2026-05-03T09:02:38.999Z</time></trkpt><trkpt lat="43.94522549358011" lon="12.419098723341856"><ele>297.0</ele><time>2026-05-03T09:02:39.999Z</time></trkpt><trkpt lat="43.945286105204346" lon="12.419227859853432"><ele>299.0</ele><time>2026-05-03T09:02:40.999Z</time></trkpt><trkpt lat="43.94534349418962" lon="12.419361254817444"><ele>299.0</ele><time>2026-05-03T09:02:41.999Z</time></trkpt><trkpt lat="43.94540022860059" lon="12.41949460184944"><ele>299.0</ele><time>2026-05-03T09:02:42.999Z</time></trkpt><trkpt lat="43.945457360327474" lon="12.419627942125214"><ele>299.0</ele><time>2026-05-03T09:02:43.999Z</time></trkpt><trkpt lat="43.94551781477792" lon="12.419761553307778"><ele>299.0</ele><time>2026-05-03T09:02:44.999Z</time></trkpt><trkpt lat="43.94557626434968" lon="12.419896804575906"><ele>300.8</ele><time>2026-05-03T09:02:45.999Z</time></trkpt><trkpt lat="43.94563008416271" lon="12.420034443380407"><ele>302.59999999999997</ele><time>2026-05-03T09:02:46.999Z</time></trkpt><trkpt lat="43.945684563317265" lon="12.420169063696543"><ele>304.4</ele><time>2026-05-03T09:02:47.999Z</time></trkpt><trkpt lat="43.94574142373442" lon="12.420300760607635"><ele>306.2</ele><time>2026-05-03T09:02:48.999Z</time></trkpt><trkpt lat="43.94579964748684" lon="12.420429131896087"><ele>308.0</ele><time>2026-05-03T09:02:49.999Z</time></trkpt><trkpt lat="43.94585903276331" lon="12.420556834958312"><ele>308.2</ele><time>2026-05-03T09:02:50.999Z</time></trkpt><trkpt lat="43.94591839130263" lon="12.420686107061151"><ele>308.4</ele><time>2026-05-03T09:02:51.999Z</time></trkpt><trkpt lat="43.94597293021009" lon="12.420814351670524"><ele>308.59999999999997</ele><time>2026-05-03T09:02:52.999Z</time></trkpt><trkpt lat="43.94602855748595" lon="12.420938689037126"><ele>308.8</ele><time>2026-05-03T09:02:53.999Z</time></trkpt><trkpt lat="43.94608493333015" lon="12.421063035428082"><ele>309.0</ele><time>2026-05-03T09:02:54.999Z</time></trkpt><trkpt lat="43.946137971889776" lon="12.42119142378999"><ele>310.4</ele><time>2026-05-03T09:02:55.999Z</time></trkpt><trkpt lat="43.946191544174205" lon="12.421321467457147"><ele>311.79999999999995</ele><time>2026-05-03T09:02:56.999Z</time></trkpt><trkpt lat="43.94624654338783" lon="12.421450688123018"><ele>313.20000000000005</ele><time>2026-05-03T09:02:57.999Z</time></trkpt><trkpt lat="43.946302834111066" lon="12.4215821167585"><ele>314.6</ele><time>2026-05-03T09:02:58.999Z</time></trkpt><trkpt lat="43.946359593484914" lon="12.421718653303243"><ele>316.0</ele><time>2026-05-03T09:02:59.999Z</time></trkpt><trkpt lat="43.94641700368644" lon="12.421856566614967"><ele>316.0</ele><time>2026-05-03T09:03:00.999Z</time></trkpt><trkpt lat="43.94647518955339" lon="12.421992273801662"><ele>316.0</ele><time>2026-05-03T09:03:01.999Z</time></trkpt><trkpt lat="43.94653563476644" lon="12.422125891234696"><ele>316.0</ele><time>2026-05-03T09:03:02.999Z</time></trkpt><trkpt lat="43.94659667315915" lon="12.422262148205428"><ele>316.0</ele><time>2026-05-03T09:03:03.999Z</time></trkpt><trkpt lat="43.946657729569594" lon="12.422400942996392"><ele>312.25</ele><time>2026-05-03T09:03:04.999Z</time></trkpt><trkpt lat="43.94671832044943" lon="12.422537691931005"><ele>308.5</ele><time>2026-05-03T09:03:05.999Z</time></trkpt><trkpt lat="43.946773982850935" lon="12.422675554743197"><ele>304.75</ele><time>2026-05-03T09:03:06.999Z</time></trkpt><trkpt lat="43.9468252760217" lon="12.422816003839113"><ele>301.0</ele><time>2026-05-03T09:03:07.999Z</time></trkpt><trkpt lat="43.94686848403746" lon="12.42295842872536"><ele>303.25</ele><time>2026-05-03T09:03:08.999Z</time></trkpt><trkpt lat="43.946896409533075" lon="12.423107418668739"><ele>305.5</ele><time>2026-05-03T09:03:09.999Z</time></trkpt><trkpt lat="43.94691463884991" lon="12.423262021413832"><ele>307.75</ele><time>2026-05-03T09:03:10.999Z</time></trkpt><trkpt lat="43.94692671336805" lon="12.423421506857146"><ele>310.0</ele><time>2026-05-03T09:03:11.999Z</time></trkpt><trkpt lat="43.94693768955579" lon="12.423583819017768"><ele>310.0</ele><time>2026-05-03T09:03:13Z</time></trkpt><trkpt lat="43.94694887631014" lon="12.423746157824771"><ele>310.0</ele><time>2026-05-03T09:03:14Z</time></trkpt><trkpt lat="43.946957617292576" lon="12.423906830692685"><ele>310.0</ele><time>2026-05-03T09:03:15Z</time></trkpt><trkpt lat="43.94696326204142" lon="12.424068216427964"><ele>310.0</ele><time>2026-05-03T09:03:16Z</time></trkpt><trkpt lat="43.946969455905574" lon="12.424229453020475"><ele>310.5</ele><time>2026-05-03T09:03:17Z</time></trkpt><trkpt lat="43.94697602546267" lon="12.424391826287358"><ele>311.0</ele><time>2026-05-03T09:03:18Z</time></trkpt><trkpt lat="43.946981018542914" lon="12.424554712399894"><ele>311.5</ele><time>2026-05-03T09:03:19Z</time></trkpt><trkpt lat="43.94698784759775" lon="12.424717035097501"><ele>312.0</ele><time>2026-05-03T09:03:20Z</time></trkpt><trkpt lat="43.94699614092653" lon="12.424878830958574"><ele>312.0</ele><time>2026-05-03T09:03:21Z</time></trkpt><trkpt lat="43.947001337313374" lon="12.425041498347337"><ele>312.0</ele><time>2026-05-03T09:03:22Z</time></trkpt><trkpt lat="43.94700562047026" lon="12.425203144703346"><ele>312.0</ele><time>2026-05-03T09:03:23Z</time></trkpt><trkpt lat="43.94700535171396" lon="12.425362045438236"><ele>312.0</ele><time>2026-05-03T09:03:24Z</time></trkpt><trkpt lat="43.94700017411317" lon="12.425520516964738"><ele>311.5</ele><time>2026-05-03T09:03:25Z</time></trkpt><trkpt lat="43.94698508355638" lon="12.425679951293867"><ele>311.0</ele><time>2026-05-03T09:03:26Z</time></trkpt><trkpt lat="43.94695856622143" lon="12.425839557849082"><ele>310.5</ele><time>2026-05-03T09:03:27Z</time></trkpt><trkpt lat="43.94692447754872" lon="12.425995093886637"><ele>310.0</ele><time>2026-05-03T09:03:28Z</time></trkpt><trkpt lat="43.94688049027905" lon="12.426145973878995"><ele>310.0</ele><time>2026-05-03T09:03:29Z</time></trkpt><trkpt lat="43.946826491287865" lon="12.426292125165032"><ele>310.0</ele><time>2026-05-03T09:03:30Z</time></trkpt><trkpt lat="43.94676953791473" lon="12.426436564593187"><ele>310.0</ele><time>2026-05-03T09:03:31Z</time></trkpt><trkpt lat="43.94670864430862" lon="12.426579322580892"><ele>310.0</ele><time>2026-05-03T09:03:32Z</time></trkpt><trkpt lat="43.946644625925146" lon="12.42671809583827"><ele>311.5</ele><time>2026-05-03T09:03:33Z</time></trkpt><trkpt lat="43.94657736038881" lon="12.426855504268612"><ele>313.0</ele><time>2026-05-03T09:03:34Z</time></trkpt><trkpt lat="43.94651160611891" lon="12.426995169380792"><ele>314.5</ele><time>2026-05-03T09:03:35Z</time></trkpt><trkpt lat="43.946447407557415" lon="12.427135825085605"><ele>316.0</ele><time>2026-05-03T09:03:36Z</time></trkpt><trkpt lat="43.94638279417926" lon="12.427276647684069"><ele>316.0</ele><time>2026-05-03T09:03:37Z</time></trkpt><trkpt lat="43.946317662981734" lon="12.427419371450705"><ele>316.0</ele><time>2026-05-03T09:03:38Z</time></trkpt><trkpt lat="43.946252067730505" lon="12.427563704517244"><ele>316.0</ele><time>2026-05-03T09:03:39Z</time></trkpt><trkpt lat="43.94618445082783" lon="12.427708753202994"><ele>316.0</ele><time>2026-05-03T09:03:40Z</time></trkpt><trkpt lat="43.94611692788418" lon="12.427855097182368"><ele>315.75</ele><time>2026-05-03T09:03:41Z</time></trkpt><trkpt lat="43.946048062235384" lon="12.428000817574121"><ele>315.5</ele><time>2026-05-03T09:03:42Z</time></trkpt><trkpt lat="43.94598165224674" lon="12.428148734687532"><ele>315.25</ele><time>2026-05-03T09:03:43Z</time></trkpt><trkpt lat="43.94591465746205" lon="12.428295765511068"><ele>315.0</ele><time>2026-05-03T09:03:44Z</time></trkpt><trkpt lat="43.945844435643444" lon="12.428441452690803"><ele>316.75</ele><time>2026-05-03T09:03:45Z</time></trkpt><trkpt lat="43.945777032664836" lon="12.428591502956538"><ele>318.5</ele><time>2026-05-03T09:03:46Z</time></trkpt><trkpt lat="43.94570965587399" lon="12.428747012919933"><ele>320.25</ele><time>2026-05-03T09:03:47Z</time></trkpt><trkpt lat="43.945637990594" lon="12.428902584516244"><ele>322.0</ele><time>2026-05-03T09:03:48Z</time></trkpt><trkpt lat="43.94556411022541" lon="12.429058150776854"><ele>322.25</ele><time>2026-05-03T09:03:49Z</time></trkpt><trkpt lat="43.94548719474668" lon="12.42921069196782"><ele>322.5</ele><time>2026-05-03T09:03:50Z</time></trkpt><trkpt lat="43.94540731835803" lon="12.429356935684943"><ele>322.75</ele><time>2026-05-03T09:03:51Z</time></trkpt><trkpt lat="43.94531751364945" lon="12.429504909352097"><ele>323.0</ele><time>2026-05-03T09:03:52Z</time></trkpt><trkpt lat="43.94523614438395" lon="12.429624258472158"><ele>322.25</ele><time>2026-05-03T09:03:52.999Z</time></trkpt><trkpt lat="43.945130468501446" lon="12.429744234032338"><ele>321.5</ele><time>2026-05-03T09:03:53.999Z</time></trkpt><trkpt lat="43.945019642480254" lon="12.42985646413495"><ele>320.75</ele><time>2026-05-03T09:03:54.999Z</time></trkpt><trkpt lat="43.94491032394815" lon="12.429964493703935"><ele>320.0</ele><time>2026-05-03T09:03:55.999Z</time></trkpt><trkpt lat="43.94480794985276" lon="12.430080143281836"><ele>321.75</ele><time>2026-05-03T09:03:56.999Z</time></trkpt><trkpt lat="43.94470376210122" lon="12.43019507542495"><ele>323.5</ele><time>2026-05-03T09:03:57.999Z</time></trkpt><trkpt lat="43.94459495308764" lon="12.43031386023551"><ele>325.25</ele><time>2026-05-03T09:03:58.999Z</time></trkpt><trkpt lat="43.9444972331738" lon="12.430433192843886"><ele>327.0</ele><time>2026-05-03T09:03:59.999Z</time></trkpt><trkpt lat="43.94439181002787" lon="12.430555234225439"><ele>327.0</ele><time>2026-05-03T09:04:00.999Z</time></trkpt><trkpt lat="43.94427636471119" lon="12.43065965933882"><ele>327.0</ele><time>2026-05-03T09:04:01.999Z</time></trkpt><trkpt lat="43.944154269099144" lon="12.430749935119794"><ele>327.0</ele><time>2026-05-03T09:04:02.999Z</time></trkpt><trkpt lat="43.94403131874089" lon="12.430820159343895"><ele>327.0</ele><time>2026-05-03T09:04:03.999Z</time></trkpt><trkpt lat="43.94389516945085" lon="12.430868842067676"><ele>329.0</ele><time>2026-05-03T09:04:04.999Z</time></trkpt><trkpt lat="43.943755509418104" lon="12.430921793912473"><ele>331.0</ele><time>2026-05-03T09:04:05.999Z</time></trkpt><trkpt lat="43.94361853479124" lon="12.430970734404973"><ele>333.0</ele><time>2026-05-03T09:04:06.999Z</time></trkpt><trkpt lat="43.94347586414958" lon="12.43103312417175"><ele>335.0</ele><time>2026-05-03T09:04:07.999Z</time></trkpt><trkpt lat="43.94333169901744" lon="12.43108812509666"><ele>336.0</ele><time>2026-05-03T09:04:08.999Z</time></trkpt><trkpt lat="43.94317899839449" lon="12.431132092280057"><ele>337.0</ele><time>2026-05-03T09:04:09.999Z</time></trkpt><trkpt lat="43.94305005258806" lon="12.431199746189284"><ele>338.0</ele><time>2026-05-03T09:04:10.999Z</time></trkpt><trkpt lat="43.942925701106475" lon="12.43129010247743"><ele>339.0</ele><time>2026-05-03T09:04:11.999Z</time></trkpt><trkpt lat="43.942822524906894" lon="12.431416956093427"><ele>339.0</ele><time>2026-05-03T09:04:12.999Z</time></trkpt><trkpt lat="43.94273493477651" lon="12.431556784454655"><ele>339.0</ele><time>2026-05-03T09:04:13.999Z</time></trkpt><trkpt lat="43.942670124917754" lon="12.431731102642896"><ele>339.0</ele><time>2026-05-03T09:04:14.999Z</time></trkpt><trkpt lat="43.94262958050899" lon="12.431912269354639"><ele>339.0</ele><time>2026-05-03T09:04:15.999Z</time></trkpt><trkpt lat="43.942618447512615" lon="12.432077219379234"><ele>338.4</ele><time>2026-05-03T09:04:16.999Z</time></trkpt><trkpt lat="43.9426234024806" lon="12.432229338888225"><ele>337.79999999999995</ele><time>2026-05-03T09:04:17.999Z</time></trkpt><trkpt lat="43.942628153562346" lon="12.43236676796802"><ele>337.20000000000005</ele><time>2026-05-03T09:04:18.999Z</time></trkpt><trkpt lat="43.94264841002088" lon="12.432485895660031"><ele>336.6</ele><time>2026-05-03T09:04:19.999Z</time></trkpt><trkpt lat="43.94271113213972" lon="12.432581003959774"><ele>336.0</ele><time>2026-05-03T09:04:20.999Z</time></trkpt><trkpt lat="43.942804063386305" lon="12.43265867609305"><ele>336.0</ele><time>2026-05-03T09:04:21.999Z</time></trkpt><trkpt lat="43.94291329572615" lon="12.432740178878316"><ele>336.0</ele><time>2026-05-03T09:04:22.999Z</time></trkpt><trkpt lat="43.94302694322208" lon="12.432829618061827"><ele>336.0</ele><time>2026-05-03T09:04:23.999Z</time></trkpt><trkpt lat="43.94313582718933" lon="12.43292632945429"><ele>336.0</ele><time>2026-05-03T09:04:24.999Z</time></trkpt><trkpt lat="43.94328021670653" lon="12.433052857333868"><ele>336.75</ele><time>2026-05-03T09:04:25.999Z</time></trkpt><trkpt lat="43.94339761350593" lon="12.433147671585402"><ele>337.5</ele><time>2026-05-03T09:04:26.999Z</time></trkpt><trkpt lat="43.94351620739658" lon="12.433244096459651"><ele>338.25</ele><time>2026-05-03T09:04:27.999Z</time></trkpt><trkpt lat="43.94363066546915" lon="12.433345752893915"><ele>339.0</ele><time>2026-05-03T09:04:28.999Z</time></trkpt><trkpt lat="43.943736699908136" lon="12.433458661183993"><ele>339.0</ele><time>2026-05-03T09:04:29.999Z</time></trkpt><trkpt lat="43.943817015491696" lon="12.43360629652886"><ele>339.0</ele><time>2026-05-03T09:04:30.999Z</time></trkpt><trkpt lat="43.943866160385504" lon="12.43378531606261"><ele>339.0</ele><time>2026-05-03T09:04:31.999Z</time></trkpt><trkpt lat="43.94388774523788" lon="12.433974134940964"><ele>339.0</ele><time>2026-05-03T09:04:32.999Z</time></trkpt><trkpt lat="43.94389402448411" lon="12.434164242827865"><ele>339.5</ele><time>2026-05-03T09:04:33.999Z</time></trkpt><trkpt lat="43.94390205070576" lon="12.434352118656257"><ele>340.0</ele><time>2026-05-03T09:04:34.999Z</time></trkpt><trkpt lat="43.943918042196465" lon="12.434532380490774"><ele>340.5</ele><time>2026-05-03T09:04:35.999Z</time></trkpt><trkpt lat="43.94394392726081" lon="12.434709995780878"><ele>341.0</ele><time>2026-05-03T09:04:36.999Z</time></trkpt><trkpt lat="43.94398035809618" lon="12.43487831050205"><ele>342.0</ele><time>2026-05-03T09:04:37.999Z</time></trkpt><trkpt lat="43.94403368231569" lon="12.435033449066683"><ele>343.0</ele><time>2026-05-03T09:04:38.999Z</time></trkpt><trkpt lat="43.944119987345005" lon="12.43516012987291"><ele>344.0</ele><time>2026-05-03T09:04:39.999Z</time></trkpt><trkpt lat="43.944230250053906" lon="12.435257120468938"><ele>345.0</ele><time>2026-05-03T09:04:40.999Z</time></trkpt><trkpt lat="43.94436352456235" lon="12.435302792163226"><ele>346.75</ele><time>2026-05-03T09:04:41.999Z</time></trkpt><trkpt lat="43.94449769380475" lon="12.435292776215434"><ele>348.5</ele><time>2026-05-03T09:04:42.999Z</time></trkpt><trkpt lat="43.944629965064465" lon="12.435230070327538"><ele>350.25</ele><time>2026-05-03T09:04:43.999Z</time></trkpt><trkpt lat="43.94474758674993" lon="12.43510578979405"><ele>352.0</ele><time>2026-05-03T09:04:44.999Z</time></trkpt><trkpt lat="43.94485352370015" lon="12.434978517282346"><ele>352.0</ele><time>2026-05-03T09:04:45.999Z</time></trkpt><trkpt lat="43.94495191971535" lon="12.434888659677956"><ele>352.0</ele><time>2026-05-03T09:04:46.999Z</time></trkpt><trkpt lat="43.945047959026894" lon="12.43483472072755"><ele>352.0</ele><time>2026-05-03T09:04:47.999Z</time></trkpt><trkpt lat="43.945156779099634" lon="12.434831276611531"><ele>352.0</ele><time>2026-05-03T09:04:48.999Z</time></trkpt><trkpt lat="43.945264789682724" lon="12.434897958237773"><ele>352.0</ele><time>2026-05-03T09:04:49.999Z</time></trkpt><trkpt lat="43.94534099304066" lon="12.435026044670423"><ele>352.5</ele><time>2026-05-03T09:04:50.999Z</time></trkpt><trkpt lat="43.94537142158479" lon="12.43517890549722"><ele>353.0</ele><time>2026-05-03T09:04:51.999Z</time></trkpt><trkpt lat="43.945368451193815" lon="12.435339562261778"><ele>353.5</ele><time>2026-05-03T09:04:52.999Z</time></trkpt><trkpt lat="43.94534439121355" lon="12.43550291740336"><ele>354.0</ele><time>2026-05-03T09:04:53.999Z</time></trkpt><trkpt lat="43.94532526676724" lon="12.435662820338225"><ele>354.0</ele><time>2026-05-03T09:04:54.999Z</time></trkpt><trkpt lat="43.94531559817687" lon="12.435823201918852"><ele>354.0</ele><time>2026-05-03T09:04:55.999Z</time></trkpt><trkpt lat="43.94531057209763" lon="12.435984096353684"><ele>354.0</ele><time>2026-05-03T09:04:56.999Z</time></trkpt><trkpt lat="43.94532572586393" lon="12.436141760885546"><ele>354.0</ele><time>2026-05-03T09:04:57.999Z</time></trkpt><trkpt lat="43.94537222764367" lon="12.436290439014439"><ele>357.25</ele><time>2026-05-03T09:04:58.999Z</time></trkpt><trkpt lat="43.94542720012646" lon="12.43643064491598"><ele>360.5</ele><time>2026-05-03T09:04:59.999Z</time></trkpt><trkpt lat="43.945442754462015" lon="12.43658864119084"><ele>363.75</ele><time>2026-05-03T09:05:00.999Z</time></trkpt><trkpt lat="43.94539773121461" lon="12.436748373063512"><ele>367.0</ele><time>2026-05-03T09:05:01.999Z</time></trkpt><trkpt lat="43.94531979617308" lon="12.436880259952337"><ele>367.0</ele><time>2026-05-03T09:05:02.999Z</time></trkpt><trkpt lat="43.94521229351139" lon="12.43695750270545"><ele>367.0</ele><time>2026-05-03T09:05:03.999Z</time></trkpt><trkpt lat="43.945087476329114" lon="12.436973102880263"><ele>367.0</ele><time>2026-05-03T09:05:04.999Z</time></trkpt><trkpt lat="43.94496941204037" lon="12.436999385938481"><ele>367.0</ele><time>2026-05-03T09:05:05.999Z</time></trkpt><trkpt lat="43.944870153827665" lon="12.437075512276712"><ele>368.5</ele><time>2026-05-03T09:05:06.999Z</time></trkpt><trkpt lat="43.94479193509141" lon="12.43719419430276"><ele>370.0</ele><time>2026-05-03T09:05:07.999Z</time></trkpt><trkpt lat="43.94474011892386" lon="12.437335446685287"><ele>371.5</ele><time>2026-05-03T09:05:08.999Z</time></trkpt><trkpt lat="43.944709937787536" lon="12.437487486127848"><ele>373.0</ele><time>2026-05-03T09:05:09.999Z</time></trkpt><trkpt lat="43.94471023687468" lon="12.43764385273338"><ele>373.0</ele><time>2026-05-03T09:05:10.999Z</time></trkpt><trkpt lat="43.944745881762096" lon="12.43779428456061"><ele>373.0</ele><time>2026-05-03T09:05:11.999Z</time></trkpt><trkpt lat="43.94480985214042" lon="12.437929033373775"><ele>373.0</ele><time>2026-05-03T09:05:12.999Z</time></trkpt><trkpt lat="43.94489452455414" lon="12.438041754853407"><ele>373.0</ele><time>2026-05-03T09:05:13.999Z</time></trkpt><trkpt lat="43.944994879474855" lon="12.438122145985323"><ele>377.0</ele><time>2026-05-03T09:05:14.999Z</time></trkpt><trkpt lat="43.94511274223084" lon="12.438163747398084"><ele>381.0</ele><time>2026-05-03T09:05:15.999Z</time></trkpt><trkpt lat="43.94523616175408" lon="12.438168006536042"><ele>385.0</ele><time>2026-05-03T09:05:16.999Z</time></trkpt><trkpt lat="43.94535895621716" lon="12.438121850443155"><ele>389.0</ele><time>2026-05-03T09:05:17.999Z</time></trkpt><trkpt lat="43.94547492471117" lon="12.438068397685635"><ele>389.0</ele><time>2026-05-03T09:05:19Z</time></trkpt><trkpt lat="43.94559237963944" lon="12.438025929482956"><ele>389.0</ele><time>2026-05-03T09:05:20Z</time></trkpt><trkpt lat="43.94571265943934" lon="12.437993379943133"><ele>389.0</ele><time>2026-05-03T09:05:21Z</time></trkpt><trkpt lat="43.94583230253393" lon="12.437967749541988"><ele>389.0</ele><time>2026-05-03T09:05:22Z</time></trkpt><trkpt lat="43.945947007212645" lon="12.437994053996698"><ele>386.75</ele><time>2026-05-03T09:05:23Z</time></trkpt><trkpt lat="43.94603006609748" lon="12.438105364613689"><ele>384.5</ele><time>2026-05-03T09:05:24Z</time></trkpt><trkpt lat="43.94608199243755" lon="12.438261318713142"><ele>382.25</ele><time>2026-05-03T09:05:25Z</time></trkpt><trkpt lat="43.94611121475737" lon="12.438432450447065"><ele>380.0</ele><time>2026-05-03T09:05:26Z</time></trkpt><trkpt lat="43.94613726994163" lon="12.438605769028143"><ele>380.0</ele><time>2026-05-03T09:05:27Z</time></trkpt><trkpt lat="43.946175346204946" lon="12.43877408372581"><ele>380.0</ele><time>2026-05-03T09:05:28Z</time></trkpt><trkpt lat="43.946215686550524" lon="12.438939015163951"><ele>380.0</ele><time>2026-05-03T09:05:29Z</time></trkpt><trkpt lat="43.94625360314929" lon="12.439100906615785"><ele>380.0</ele><time>2026-05-03T09:05:30Z</time></trkpt><trkpt lat="43.94629117498071" lon="12.439259724223323"><ele>382.25</ele><time>2026-05-03T09:05:31Z</time></trkpt><trkpt lat="43.94633149726145" lon="12.439417890264043"><ele>384.5</ele><time>2026-05-03T09:05:32Z</time></trkpt><trkpt lat="43.946371046502556" lon="12.439575224113085"><ele>386.75</ele><time>2026-05-03T09:05:33Z</time></trkpt><trkpt lat="43.94640809547062" lon="12.43973429184419"><ele>389.0</ele><time>2026-05-03T09:05:34Z</time></trkpt><trkpt lat="43.94644418497483" lon="12.439886893364204"><ele>390.79999999999995</ele><time>2026-05-03T09:05:35Z</time></trkpt><trkpt lat="43.94648311368454" lon="12.440031343255479"><ele>392.59999999999997</ele><time>2026-05-03T09:05:36Z</time></trkpt><trkpt lat="43.9465218772434" lon="12.440171195523602"><ele>394.4</ele><time>2026-05-03T09:05:37Z</time></trkpt><trkpt lat="43.94656026985177" lon="12.440302368925382"><ele>396.2</ele><time>2026-05-03T09:05:38Z</time></trkpt><trkpt lat="43.9465935285717" lon="12.440433547979076"><ele>398.0</ele><time>2026-05-03T09:05:39Z</time></trkpt><trkpt lat="43.946624031110545" lon="12.440562917315605"><ele>400.2</ele><time>2026-05-03T09:05:40Z</time></trkpt><trkpt lat="43.94665421235219" lon="12.440687895049274"><ele>402.4</ele><time>2026-05-03T09:05:41Z</time></trkpt><trkpt lat="43.94667775128653" lon="12.440819095591234"><ele>404.59999999999997</ele><time>2026-05-03T09:05:42Z</time></trkpt><trkpt lat="43.946685887846364" lon="12.440960552929493"><ele>406.79999999999995</ele><time>2026-05-03T09:05:43Z</time></trkpt><trkpt lat="43.946677376803116" lon="12.441110789121565"><ele>409.0</ele><time>2026-05-03T09:05:44Z</time></trkpt><trkpt lat="43.94664299112979" lon="12.441255582864688"><ele>409.75</ele><time>2026-05-03T09:05:45Z</time></trkpt><trkpt lat="43.94658322025051" lon="12.441391682665177"><ele>410.5</ele><time>2026-05-03T09:05:46Z</time></trkpt><trkpt lat="43.94649820777271" lon="12.441505451611127"><ele>411.25</ele><time>2026-05-03T09:05:47Z</time></trkpt><trkpt lat="43.94639365175464" lon="12.441587819828687"><ele>412.0</ele><time>2026-05-03T09:05:48Z</time></trkpt><trkpt lat="43.94627564120535" lon="12.44163423364564"><ele>412.0</ele><time>2026-05-03T09:05:49Z</time></trkpt><trkpt lat="43.94615006896919" lon="12.441649391114861"><ele>412.0</ele><time>2026-05-03T09:05:50Z</time></trkpt><trkpt lat="43.94602350367897" lon="12.441645774538854"><ele>412.0</ele><time>2026-05-03T09:05:51Z</time></trkpt><trkpt lat="43.94589878807216" lon="12.44163156965119"><ele>412.0</ele><time>2026-05-03T09:05:51.999Z</time></trkpt><trkpt lat="43.945776366170925" lon="12.441602850216285"><ele>413.75</ele><time>2026-05-03T09:05:52.999Z</time></trkpt><trkpt lat="43.94565640743908" lon="12.441561764874722"><ele>415.5</ele><time>2026-05-03T09:05:53.999Z</time></trkpt><trkpt lat="43.9455404553316" lon="12.441502463174233"><ele>417.25</ele><time>2026-05-03T09:05:54.999Z</time></trkpt><trkpt lat="43.945428253268574" lon="12.441427758854077"><ele>419.0</ele><time>2026-05-03T09:05:55.999Z</time></trkpt><trkpt lat="43.94531599968582" lon="12.44136201744132"><ele>419.0</ele><time>2026-05-03T09:05:56.999Z</time></trkpt><trkpt lat="43.945204052205504" lon="12.441301280040754"><ele>419.0</ele><time>2026-05-03T09:05:57.999Z</time></trkpt><trkpt lat="43.94509527678755" lon="12.441243300858291"><ele>419.0</ele><time>2026-05-03T09:05:58.999Z</time></trkpt><trkpt lat="43.94498461944858" lon="12.44119463563417"><ele>419.0</ele><time>2026-05-03T09:05:59.999Z</time></trkpt><trkpt lat="43.94487243352905" lon="12.441162638044576"><ele>420.0</ele><time>2026-05-03T09:06:00.999Z</time></trkpt><trkpt lat="43.944757961916224" lon="12.441180364415807"><ele>421.0</ele><time>2026-05-03T09:06:01.999Z</time></trkpt><trkpt lat="43.94464849266781" lon="12.441240360125672"><ele>422.0</ele><time>2026-05-03T09:06:02.999Z</time></trkpt><trkpt lat="43.94454708318923" lon="12.44133014310245"><ele>423.0</ele><time>2026-05-03T09:06:03.999Z</time></trkpt><trkpt lat="43.94445685376072" lon="12.441442470738453"><ele>424.25</ele><time>2026-05-03T09:06:04.999Z</time></trkpt><trkpt lat="43.944367597608725" lon="12.441563675206252"><ele>425.5</ele><time>2026-05-03T09:06:05.999Z</time></trkpt><trkpt lat="43.94427341927701" lon="12.441683098655242"><ele>426.75</ele><time>2026-05-03T09:06:06.999Z</time></trkpt><trkpt lat="43.94417510409263" lon="12.441803873078378"><ele>428.0</ele><time>2026-05-03T09:06:07.999Z</time></trkpt><trkpt lat="43.944078755719694" lon="12.441929866737715"><ele>429.75</ele><time>2026-05-03T09:06:08.999Z</time></trkpt><trkpt lat="43.94398404485768" lon="12.442058735145158"><ele>431.5</ele><time>2026-05-03T09:06:09.999Z</time></trkpt><trkpt lat="43.94388533450447" lon="12.442189714535221"><ele>433.25</ele><time>2026-05-03T09:06:10.999Z</time></trkpt><trkpt lat="43.94378482798683" lon="12.442312624257308"><ele>435.0</ele><time>2026-05-03T09:06:11.999Z</time></trkpt><trkpt lat="43.943688340685206" lon="12.442428256325064"><ele>435.0</ele><time>2026-05-03T09:06:12.999Z</time></trkpt><trkpt lat="43.943596983230975" lon="12.442543887492745"><ele>435.0</ele><time>2026-05-03T09:06:13.999Z</time></trkpt><trkpt lat="43.943517602210775" lon="12.44266148414807"><ele>435.0</ele><time>2026-05-03T09:06:14.999Z</time></trkpt><trkpt lat="43.943453575936395" lon="12.442796331700244"><ele>435.0</ele><time>2026-05-03T09:06:15.999Z</time></trkpt><trkpt lat="43.94341773449084" lon="12.442950047652161"><ele>434.5</ele><time>2026-05-03T09:06:16.999Z</time></trkpt><trkpt lat="43.94340492500815" lon="12.443111012534546"><ele>434.0</ele><time>2026-05-03T09:06:17.999Z</time></trkpt><trkpt lat="43.94341651845781" lon="12.443274339944582"><ele>433.5</ele><time>2026-05-03T09:06:18.999Z</time></trkpt><trkpt lat="43.94343742842365" lon="12.443439004109987"><ele>433.0</ele><time>2026-05-03T09:06:19.999Z</time></trkpt><trkpt lat="43.943452650001234" lon="12.44360022708464"><ele>433.0</ele><time>2026-05-03T09:06:20.999Z</time></trkpt><trkpt lat="43.943465064065364" lon="12.443755237005652"><ele>433.0</ele><time>2026-05-03T09:06:21.999Z</time></trkpt><trkpt lat="43.943475343546595" lon="12.44391240817837"><ele>433.0</ele><time>2026-05-03T09:06:22.999Z</time></trkpt><trkpt lat="43.94348547628732" lon="12.444074856928827"><ele>433.0</ele><time>2026-05-03T09:06:23.999Z</time></trkpt><trkpt lat="43.943494645260024" lon="12.444232102771839"><ele>433.83333333333337</ele><time>2026-05-03T09:06:24.999Z</time></trkpt><trkpt lat="43.94350330897018" lon="12.444375474545286"><ele>434.6666666666667</ele><time>2026-05-03T09:06:25.999Z</time></trkpt><trkpt lat="43.94351137204681" lon="12.444503036217334"><ele>435.5</ele><time>2026-05-03T09:06:26.999Z</time></trkpt><trkpt lat="43.943521222083994" lon="12.444614715328802"><ele>436.33333333333337</ele><time>2026-05-03T09:06:27.999Z</time></trkpt><trkpt lat="43.94352943637373" lon="12.444716173766183"><ele>437.1666666666667</ele><time>2026-05-03T09:06:28.999Z</time></trkpt><trkpt lat="43.94353856661108" lon="12.444828479884823"><ele>438.0</ele><time>2026-05-03T09:06:29.999Z</time></trkpt><trkpt lat="43.943546141342075" lon="12.444945615535003"><ele>438.5</ele><time>2026-05-03T09:06:30.999Z</time></trkpt><trkpt lat="43.943551925080364" lon="12.445057887500537"><ele>439.0</ele><time>2026-05-03T09:06:31.999Z</time></trkpt><trkpt lat="43.943559716809425" lon="12.445168577644507"><ele>439.5</ele><time>2026-05-03T09:06:32.999Z</time></trkpt><trkpt lat="43.94356477140113" lon="12.445277811784146"><ele>440.0</ele><time>2026-05-03T09:06:33.999Z</time></trkpt><trkpt lat="43.943566622175695" lon="12.445378687326745"><ele>440.5</ele><time>2026-05-03T09:06:34.999Z</time></trkpt><trkpt lat="43.94353367860803" lon="12.44552162144618"><ele>441.0</ele><time>2026-05-03T09:06:36.999Z</time></trkpt><trkpt lat="43.94344947311522" lon="12.44560069225026"><ele>444.20000000000005</ele><time>2026-05-03T09:06:38.999Z</time></trkpt><trkpt lat="43.94333338526371" lon="12.445527830450905"><ele>447.40000000000003</ele><time>2026-05-03T09:06:40.999Z</time></trkpt><trkpt lat="43.94329195450788" lon="12.445431246620753"><ele>450.6</ele><time>2026-05-03T09:06:41.999Z</time></trkpt><trkpt lat="43.94325169369504" lon="12.445323229068109"><ele>453.8</ele><time>2026-05-03T09:06:42.999Z</time></trkpt><trkpt lat="43.943196659831266" lon="12.445203429030794"><ele>457.0</ele><time>2026-05-03T09:06:43.999Z</time></trkpt><trkpt lat="43.943135116395794" lon="12.44509077901564"><ele>457.20000000000005</ele><time>2026-05-03T09:06:44.999Z</time></trkpt><trkpt lat="43.94306662471841" lon="12.444979239579322"><ele>457.40000000000003</ele><time>2026-05-03T09:06:45.999Z</time></trkpt><trkpt lat="43.94298670725291" lon="12.444869478356301"><ele>457.59999999999997</ele><time>2026-05-03T09:06:46.999Z</time></trkpt><trkpt lat="43.94289983451974" lon="12.44477007269231"><ele>457.79999999999995</ele><time>2026-05-03T09:06:47.999Z</time></trkpt><trkpt lat="43.9428007763942" lon="12.444683306825228"><ele>458.0</ele><time>2026-05-03T09:06:48.999Z</time></trkpt><trkpt lat="43.942695947823445" lon="12.444610233042967"><ele>456.75</ele><time>2026-05-03T09:06:49.999Z</time></trkpt><trkpt lat="43.94258423759009" lon="12.444545593796963"><ele>455.5</ele><time>2026-05-03T09:06:50.999Z</time></trkpt><trkpt lat="43.94246843297641" lon="12.444483424009396"><ele>454.25</ele><time>2026-05-03T09:06:51.999Z</time></trkpt><trkpt lat="43.94235445840888" lon="12.4444172546793"><ele>453.0</ele><time>2026-05-03T09:06:52.999Z</time></trkpt><trkpt lat="43.94223730902519" lon="12.444351746858665"><ele>455.5</ele><time>2026-05-03T09:06:53.999Z</time></trkpt><trkpt lat="43.94211314349398" lon="12.444305846834789"><ele>458.0</ele><time>2026-05-03T09:06:54.999Z</time></trkpt><trkpt lat="43.941987488729694" lon="12.444286628220373"><ele>460.5</ele><time>2026-05-03T09:06:55.999Z</time></trkpt><trkpt lat="43.94186134464026" lon="12.44428837730042"><ele>463.0</ele><time>2026-05-03T09:06:56.999Z</time></trkpt><trkpt lat="43.941735377973586" lon="12.4442804473245"><ele>465.0</ele><time>2026-05-03T09:06:57.999Z</time></trkpt><trkpt lat="43.9416143155072" lon="12.444250381231024"><ele>467.0</ele><time>2026-05-03T09:06:58.999Z</time></trkpt><trkpt lat="43.9414995730191" lon="12.444194388516522"><ele>469.0</ele><time>2026-05-03T09:06:59.999Z</time></trkpt><trkpt lat="43.94140030019674" lon="12.44410026482738"><ele>471.0</ele><time>2026-05-03T09:07:00.999Z</time></trkpt><trkpt lat="43.94131871292715" lon="12.443975281682306"><ele>471.0</ele><time>2026-05-03T09:07:01.999Z</time></trkpt><trkpt lat="43.941248822606205" lon="12.443828569245138"><ele>471.0</ele><time>2026-05-03T09:07:02.999Z</time></trkpt><trkpt lat="43.94118973894103" lon="12.443673641711875"><ele>471.0</ele><time>2026-05-03T09:07:03.999Z</time></trkpt><trkpt lat="43.94114883231373" lon="12.443513979780603"><ele>471.0</ele><time>2026-05-03T09:07:04.999Z</time></trkpt><trkpt lat="43.941111280247505" lon="12.443358269187788"><ele>469.8</ele><time>2026-05-03T09:07:05.999Z</time></trkpt><trkpt lat="43.941057656922986" lon="12.443217491493307"><ele>468.6</ele><time>2026-05-03T09:07:06.999Z</time></trkpt><trkpt lat="43.94097924929668" lon="12.443108719498035"><ele>467.4</ele><time>2026-05-03T09:07:07.999Z</time></trkpt><trkpt lat="43.9408806835051" lon="12.443048531076041"><ele>466.2</ele><time>2026-05-03T09:07:08.999Z</time></trkpt><trkpt lat="43.9407756563935" lon="12.443060950063517"><ele>465.0</ele><time>2026-05-03T09:07:09.999Z</time></trkpt><trkpt lat="43.94068385796723" lon="12.443133518646377"><ele>468.8</ele><time>2026-05-03T09:07:10.999Z</time></trkpt><trkpt lat="43.940619340973335" lon="12.443255147658409"><ele>472.6</ele><time>2026-05-03T09:07:11.999Z</time></trkpt><trkpt lat="43.94058723231404" lon="12.443396141155171"><ele>476.4</ele><time>2026-05-03T09:07:12.999Z</time></trkpt><trkpt lat="43.94059082203608" lon="12.443553784058478"><ele>480.2</ele><time>2026-05-03T09:07:13.999Z</time></trkpt><trkpt lat="43.94063043335253" lon="12.443701067937061"><ele>484.0</ele><time>2026-05-03T09:07:14.999Z</time></trkpt><trkpt lat="43.94068590746122" lon="12.443846206039623"><ele>485.75</ele><time>2026-05-03T09:07:15.999Z</time></trkpt><trkpt lat="43.940737960179824" lon="12.444000188270456"><ele>487.5</ele><time>2026-05-03T09:07:16.998Z</time></trkpt><trkpt lat="43.94078847478041" lon="12.444161819022352"><ele>489.25</ele><time>2026-05-03T09:07:17.998Z</time></trkpt><trkpt lat="43.94083786401909" lon="12.444331456789522"><ele>491.0</ele><time>2026-05-03T09:07:18.998Z</time></trkpt><trkpt lat="43.940883335693634" lon="12.444497236341219"><ele>488.25</ele><time>2026-05-03T09:07:19.998Z</time></trkpt><trkpt lat="43.9409030507552" lon="12.44462828544258"><ele>485.5</ele><time>2026-05-03T09:07:20.998Z</time></trkpt><trkpt lat="43.9409447922295" lon="12.444814690975655"><ele>482.75</ele><time>2026-05-03T09:07:21.998Z</time></trkpt><trkpt lat="43.94098412088569" lon="12.445004229487695"><ele>480.0</ele><time>2026-05-03T09:07:22.998Z</time></trkpt><trkpt lat="43.940979467526276" lon="12.445206346283344"><ele>480.0</ele><time>2026-05-03T09:07:23.998Z</time></trkpt><trkpt lat="43.940960888053866" lon="12.445404732492262"><ele>480.0</ele><time>2026-05-03T09:07:25Z</time></trkpt><trkpt lat="43.940939758949355" lon="12.44557870961513"><ele>480.0</ele><time>2026-05-03T09:07:26Z</time></trkpt><trkpt lat="43.94090239227025" lon="12.445744138209905"><ele>480.0</ele><time>2026-05-03T09:07:27Z</time></trkpt><trkpt lat="43.94085965311359" lon="12.44591995773005"><ele>485.5</ele><time>2026-05-03T09:07:28Z</time></trkpt><trkpt lat="43.94081287514989" lon="12.446076664659863"><ele>491.0</ele><time>2026-05-03T09:07:29Z</time></trkpt><trkpt lat="43.940744415830636" lon="12.446239815422658"><ele>496.5</ele><time>2026-05-03T09:07:30Z</time></trkpt><trkpt lat="43.940666208158646" lon="12.446390507511149"><ele>502.0</ele><time>2026-05-03T09:07:31Z</time></trkpt><trkpt lat="43.94060028675891" lon="12.446543181997418"><ele>502.25</ele><time>2026-05-03T09:07:32Z</time></trkpt><trkpt lat="43.9405308725002" lon="12.446684751656772"><ele>502.5</ele><time>2026-05-03T09:07:33Z</time></trkpt><trkpt lat="43.940466409603864" lon="12.446827967465994"><ele>502.75</ele><time>2026-05-03T09:07:34Z</time></trkpt><trkpt lat="43.940402522928835" lon="12.446969282616607"><ele>503.0</ele><time>2026-05-03T09:07:35Z</time></trkpt><trkpt lat="43.94033768681891" lon="12.4471181713917"><ele>501.75</ele><time>2026-05-03T09:07:36Z</time></trkpt><trkpt lat="43.94027296103381" lon="12.447265806181054"><ele>500.5</ele><time>2026-05-03T09:07:37Z</time></trkpt><trkpt lat="43.94020744747181" lon="12.447397919933303"><ele>499.25</ele><time>2026-05-03T09:07:38Z</time></trkpt><trkpt lat="43.94013778099578" lon="12.447541208148388"><ele>498.0</ele><time>2026-05-03T09:07:39Z</time></trkpt><trkpt lat="43.94008715671026" lon="12.44767887995748"><ele>500.4</ele><time>2026-05-03T09:07:40Z</time></trkpt><trkpt lat="43.940029930575434" lon="12.447815078047226"><ele>502.79999999999995</ele><time>2026-05-03T09:07:41Z</time></trkpt><trkpt lat="43.939978012647764" lon="12.447938468734792"><ele>505.2</ele><time>2026-05-03T09:07:42Z</time></trkpt><trkpt lat="43.93993275541584" lon="12.44807886054992"><ele>507.6</ele><time>2026-05-03T09:07:43Z</time></trkpt><trkpt lat="43.93987791740494" lon="12.448194240431155"><ele>510.0</ele><time>2026-05-03T09:07:44Z</time></trkpt><trkpt lat="43.93981267190556" lon="12.448311829665982"><ele>510.0</ele><time>2026-05-03T09:07:45Z</time></trkpt><trkpt lat="43.93975310296498" lon="12.44843582514168"><ele>510.0</ele><time>2026-05-03T09:07:46Z</time></trkpt><trkpt lat="43.93963686295018" lon="12.448492355487659"><ele>510.0</ele><time>2026-05-03T09:07:47Z</time></trkpt><trkpt lat="43.93954181893366" lon="12.44851720549874"><ele>510.0</ele><time>2026-05-03T09:07:48Z</time></trkpt><trkpt lat="43.939474841475345" lon="12.448513127903336"><ele>510.0</ele><time>2026-05-03T09:07:49Z</time></trkpt><trkpt lat="43.93939688260711" lon="12.448479200332127"><ele>510.0</ele><time>2026-05-03T09:07:50Z</time></trkpt><trkpt lat="43.9393040029494" lon="12.448377351572429"><ele>510.0</ele><time>2026-05-03T09:07:52Z</time></trkpt><trkpt lat="43.93924317781315" lon="12.448218141656344"><ele>510.0</ele><time>2026-05-03T09:07:54Z</time></trkpt><trkpt lat="43.93924987391042" lon="12.448120865643277"><ele>510.0</ele><time>2026-05-03T09:07:54.999Z</time></trkpt><trkpt lat="43.93927538297931" lon="12.44803481590697"><ele>510.0</ele><time>2026-05-03T09:07:55.999Z</time></trkpt><trkpt lat="43.939313140077594" lon="12.447953949338384"><ele>510.6666666666667</ele><time>2026-05-03T09:07:56.999Z</time></trkpt><trkpt lat="43.93938122159201" lon="12.44788556035948"><ele>511.33333333333337</ele><time>2026-05-03T09:07:57.999Z</time></trkpt><trkpt lat="43.93945151547418" lon="12.447791410658377"><ele>512.0</ele><time>2026-05-03T09:07:58.999Z</time></trkpt><trkpt lat="43.93951330958759" lon="12.447706340969829"><ele>512.6666666666667</ele><time>2026-05-03T09:07:59.999Z</time></trkpt><trkpt lat="43.93957099543957" lon="12.44762330970415"><ele>513.3333333333334</ele><time>2026-05-03T09:08:00.999Z</time></trkpt><trkpt lat="43.93961324198451" lon="12.447552105871114"><ele>514.0</ele><time>2026-05-03T09:08:01.999Z</time></trkpt><trkpt lat="43.93965471618717" lon="12.44746076871996"><ele>514.0</ele><time>2026-05-03T09:08:03.999Z</time></trkpt><trkpt lat="43.939649180677165" lon="12.44736559743494"><ele>514.0</ele><time>2026-05-03T09:08:05.999Z</time></trkpt><trkpt lat="43.93967634376819" lon="12.447276093281378"><ele>514.0</ele><time>2026-05-03T09:08:12.999Z</time></trkpt><trkpt lat="43.93970714938179" lon="12.447114779978175"><ele>514.0</ele><time>2026-05-03T09:08:14.999Z</time></trkpt><trkpt lat="43.93972362632037" lon="12.44700884996259"><ele>514.0</ele><time>2026-05-03T09:08:15.999Z</time></trkpt><trkpt lat="43.93974170335192" lon="12.446908371201392"><ele>514.0</ele><time>2026-05-03T09:08:16.999Z</time></trkpt><trkpt lat="43.93976438200868" lon="12.446786157236843"><ele>514.3333333333334</ele><time>2026-05-03T09:08:17.999Z</time></trkpt><trkpt lat="43.93978190665347" lon="12.44666243568994"><ele>514.6666666666667</ele><time>2026-05-03T09:08:18.999Z</time></trkpt><trkpt lat="43.939814944846034" lon="12.44655026016783"><ele>515.0</ele><time>2026-05-03T09:08:19.999Z</time></trkpt><trkpt lat="43.93982905173121" lon="12.446429097793244"><ele>515.3333333333334</ele><time>2026-05-03T09:08:20.999Z</time></trkpt><trkpt lat="43.939852468680975" lon="12.446339397109194"><ele>515.6666666666666</ele><time>2026-05-03T09:08:21.999Z</time></trkpt><trkpt lat="43.93987427000571" lon="12.4462516312667"><ele>516.0</ele><time>2026-05-03T09:08:22.999Z</time></trkpt><trkpt lat="43.93990358459204" lon="12.44609870620209"><ele>516.8</ele><time>2026-05-03T09:08:24.999Z</time></trkpt><trkpt lat="43.93992667940328" lon="12.446005094946843"><ele>517.6</ele><time>2026-05-03T09:08:25.999Z</time></trkpt><trkpt lat="43.93995510079822" lon="12.44589067893547"><ele>518.4</ele><time>2026-05-03T09:08:26.999Z</time></trkpt><trkpt lat="43.93997817629155" lon="12.445766148898095"><ele>519.2</ele><time>2026-05-03T09:08:27.999Z</time></trkpt><trkpt lat="43.94000168627281" lon="12.445642463434858"><ele>520.0</ele><time>2026-05-03T09:08:28.999Z</time></trkpt><trkpt lat="43.940011812910015" lon="12.445491050328918"><ele>521.75</ele><time>2026-05-03T09:08:29.999Z</time></trkpt><trkpt lat="43.94002367886373" lon="12.445326053600763"><ele>523.5</ele><time>2026-05-03T09:08:30.999Z</time></trkpt><trkpt lat="43.940021503237936" lon="12.44515429521816"><ele>525.25</ele><time>2026-05-03T09:08:31.999Z</time></trkpt><trkpt lat="43.94001844202321" lon="12.4449870237715"><ele>527.0</ele><time>2026-05-03T09:08:32.999Z</time></trkpt><trkpt lat="43.94002476212154" lon="12.444821965462653"><ele>527.0</ele><time>2026-05-03T09:08:33.999Z</time></trkpt><trkpt lat="43.94002646291128" lon="12.444667228179325"><ele>527.0</ele><time>2026-05-03T09:08:34.999Z</time></trkpt><trkpt lat="43.94004559299396" lon="12.444539530123818"><ele>527.0</ele><time>2026-05-03T09:08:35.999Z</time></trkpt><trkpt lat="43.94004668002881" lon="12.444429196412475"><ele>527.0</ele><time>2026-05-03T09:08:36.999Z</time></trkpt><trkpt lat="43.94001807052047" lon="12.4443511852239"><ele>527.0</ele><time>2026-05-03T09:08:37.999Z</time></trkpt><trkpt lat="43.939949847902824" lon="12.44431072207369"><ele>527.0</ele><time>2026-05-03T09:08:38.999Z</time></trkpt><trkpt lat="43.9398678003297" lon="12.444354972053793"><ele>527.0</ele><time>2026-05-03T09:08:39.999Z</time></trkpt><trkpt lat="43.939787011295856" lon="12.444442958434914"><ele>527.0</ele><time>2026-05-03T09:08:40.999Z</time></trkpt><trkpt lat="43.939712256210306" lon="12.444565280827055"><ele>527.0</ele><time>2026-05-03T09:08:41.999Z</time></trkpt><trkpt lat="43.93964613714236" lon="12.44473366870768"><ele>527.0</ele><time>2026-05-03T09:08:42.999Z</time></trkpt><trkpt lat="43.9395442320875" lon="12.444977785301685"><ele>527.0</ele><time>2026-05-03T09:08:43.999Z</time></trkpt><trkpt lat="43.93944772633119" lon="12.445166399852871"><ele>527.0</ele><time>2026-05-03T09:08:44.999Z</time></trkpt><trkpt lat="43.939357750909096" lon="12.445347232620845"><ele>527.0</ele><time>2026-05-03T09:08:45.999Z</time></trkpt><trkpt lat="43.93927668446105" lon="12.44552058536824"><ele>530.8000000000001</ele><time>2026-05-03T09:08:46.999Z</time></trkpt><trkpt lat="43.939204282416895" lon="12.44567651324594"><ele>534.6</ele><time>2026-05-03T09:08:47.999Z</time></trkpt><trkpt lat="43.9391462114504" lon="12.445813802687741"><ele>538.4000000000001</ele><time>2026-05-03T09:08:48.999Z</time></trkpt><trkpt lat="43.9390972358179" lon="12.44593529286123"><ele>542.2</ele><time>2026-05-03T09:08:49.999Z</time></trkpt><trkpt lat="43.93905733735124" lon="12.446038424437873"><ele>546.0</ele><time>2026-05-03T09:08:50.999Z</time></trkpt><trkpt lat="43.939030951901515" lon="12.446122502528164"><ele>546.0</ele><time>2026-05-03T09:08:51.999Z</time></trkpt><trkpt lat="43.93896289785677" lon="12.446211199355252"><ele>546.0</ele><time>2026-05-03T09:08:53.999Z</time></trkpt><trkpt lat="43.93889876255622" lon="12.446112781058368"><ele>546.0</ele><time>2026-05-03T09:08:55.999Z</time></trkpt><trkpt lat="43.93895230169555" lon="12.44596974958704"><ele>546.0</ele><time>2026-05-03T09:08:57.999Z</time></trkpt><trkpt lat="43.939026342671454" lon="12.445826579393632"><ele>546.0</ele><time>2026-05-03T09:08:59.999Z</time></trkpt><trkpt lat="43.939060217769594" lon="12.445731177459102"><ele>546.0</ele><time>2026-05-03T09:09:00.999Z</time></trkpt><trkpt lat="43.939098587452236" lon="12.445635718280986"><ele>546.0</ele><time>2026-05-03T09:09:01.999Z</time></trkpt><trkpt lat="43.93913673665009" lon="12.44553174083449"><ele>546.0</ele><time>2026-05-03T09:09:02.999Z</time></trkpt><trkpt lat="43.939174784754904" lon="12.445425963285489"><ele>546.0</ele><time>2026-05-03T09:09:03.999Z</time></trkpt><trkpt lat="43.93921119874922" lon="12.445309739688517"><ele>546.0</ele><time>2026-05-03T09:09:04.999Z</time></trkpt><trkpt lat="43.939252441013885" lon="12.44519400138498"><ele>546.0</ele><time>2026-05-03T09:09:05.999Z</time></trkpt><trkpt lat="43.939299020479794" lon="12.445080608070604"><ele>544.2</ele><time>2026-05-03T09:09:06.999Z</time></trkpt><trkpt lat="43.9393444996218" lon="12.444964832214215"><ele>542.4000000000001</ele><time>2026-05-03T09:09:07.999Z</time></trkpt><trkpt lat="43.939385037330176" lon="12.44484083692857"><ele>540.6</ele><time>2026-05-03T09:09:08.999Z</time></trkpt><trkpt lat="43.93942754031195" lon="12.444715119167617"><ele>538.8000000000001</ele><time>2026-05-03T09:09:09.999Z</time></trkpt><trkpt lat="43.93947142319526" lon="12.444588255315685"><ele>537.0</ele><time>2026-05-03T09:09:10.999Z</time></trkpt><trkpt lat="43.93951597606028" lon="12.44446120116171"><ele>537.0</ele><time>2026-05-03T09:09:11.999Z</time></trkpt><trkpt lat="43.93956270173366" lon="12.444324749422295"><ele>537.0</ele><time>2026-05-03T09:09:12.999Z</time></trkpt><trkpt lat="43.93960909208187" lon="12.444192860406693"><ele>537.0</ele><time>2026-05-03T09:09:13.999Z</time></trkpt><trkpt lat="43.93965468594796" lon="12.444063090737744"><ele>537.0</ele><time>2026-05-03T09:09:14.999Z</time></trkpt><trkpt lat="43.93969680150649" lon="12.443931075017598"><ele>537.0</ele><time>2026-05-03T09:09:15.999Z</time></trkpt><trkpt lat="43.93974272913141" lon="12.44379611682623"><ele>537.2</ele><time>2026-05-03T09:09:16.999Z</time></trkpt><trkpt lat="43.939781494784846" lon="12.443661028657313"><ele>537.4000000000001</ele><time>2026-05-03T09:09:17.999Z</time></trkpt><trkpt lat="43.939793104764796" lon="12.44351233211443"><ele>537.5999999999999</ele><time>2026-05-03T09:09:18.999Z</time></trkpt><trkpt lat="43.939758418554376" lon="12.443360884861374"><ele>537.8</ele><time>2026-05-03T09:09:19.998Z</time></trkpt><trkpt lat="43.9396994092612" lon="12.443229348355457"><ele>538.0</ele><time>2026-05-03T09:09:20.998Z</time></trkpt><trkpt lat="43.9396318680229" lon="12.443114719527927"><ele>538.0</ele><time>2026-05-03T09:09:21.998Z</time></trkpt><trkpt lat="43.939561836256665" lon="12.443011253260634"><ele>538.0</ele><time>2026-05-03T09:09:22.998Z</time></trkpt><trkpt lat="43.939497275367486" lon="12.442906035135954"><ele>538.0</ele><time>2026-05-03T09:09:23.998Z</time></trkpt><trkpt lat="43.93942947151932" lon="12.442796673584954"><ele>538.0</ele><time>2026-05-03T09:09:24.998Z</time></trkpt><trkpt lat="43.93936251636096" lon="12.44268903962551"><ele>538.0</ele><time>2026-05-03T09:09:25.998Z</time></trkpt><trkpt lat="43.939300628320844" lon="12.442579825916027"><ele>540.1999999999999</ele><time>2026-05-03T09:09:26.998Z</time></trkpt><trkpt lat="43.93923890152193" lon="12.442472250232454"><ele>542.4</ele><time>2026-05-03T09:09:27.998Z</time></trkpt><trkpt lat="43.939182372741435" lon="12.442372302300592"><ele>544.5999999999999</ele><time>2026-05-03T09:09:28.998Z</time></trkpt><trkpt lat="43.93911867688675" lon="12.442280935852539"><ele>546.8</ele><time>2026-05-03T09:09:29.998Z</time></trkpt><trkpt lat="43.93905769148898" lon="12.44219144871927"><ele>549.0</ele><time>2026-05-03T09:09:31Z</time></trkpt><trkpt lat="43.938993651793446" lon="12.442118924153894"><ele>549.0</ele><time>2026-05-03T09:09:32Z</time></trkpt><trkpt lat="43.93892961567801" lon="12.442057134831837"><ele>549.0</ele><time>2026-05-03T09:09:33Z</time></trkpt><trkpt lat="43.93885997551372" lon="12.442014847930805"><ele>549.0</ele><time>2026-05-03T09:09:34Z</time></trkpt><trkpt lat="43.938784190706485" lon="12.441995574255207"><ele>549.0</ele><time>2026-05-03T09:09:35Z</time></trkpt><trkpt lat="43.93870066804018" lon="12.442015392067015"><ele>549.0</ele><time>2026-05-03T09:09:36Z</time></trkpt><trkpt lat="43.938619029196076" lon="12.442066952333809"><ele>549.0</ele><time>2026-05-03T09:09:37Z</time></trkpt><trkpt lat="43.93853967697534" lon="12.442130595794092"><ele>556.0</ele><time>2026-05-03T09:09:38Z</time></trkpt><trkpt lat="43.93846049966998" lon="12.442194962766578"><ele>563.0</ele><time>2026-05-03T09:09:39Z</time></trkpt><trkpt lat="43.93837505039442" lon="12.442253753560339"><ele>570.0</ele><time>2026-05-03T09:09:40Z</time></trkpt><trkpt lat="43.938288164826304" lon="12.442308994496884"><ele>577.0</ele><time>2026-05-03T09:09:41Z</time></trkpt><trkpt lat="43.93819950114355" lon="12.442365283402607"><ele>584.0</ele><time>2026-05-03T09:09:42Z</time></trkpt><trkpt lat="43.938112616032306" lon="12.442427434059628"><ele>584.5</ele><time>2026-05-03T09:09:43Z</time></trkpt><trkpt lat="43.9380303285492" lon="12.44249285644035"><ele>585.0</ele><time>2026-05-03T09:09:44Z</time></trkpt><trkpt lat="43.93794822917387" lon="12.442547388339552"><ele>585.5</ele><time>2026-05-03T09:09:45Z</time></trkpt><trkpt lat="43.937866644988304" lon="12.44259744790175"><ele>586.0</ele><time>2026-05-03T09:09:46Z</time></trkpt><trkpt lat="43.937786696306816" lon="12.442647311850259"><ele>586.5</ele><time>2026-05-03T09:09:47Z</time></trkpt><trkpt lat="43.93771364057671" lon="12.442703577293857"><ele>587.0</ele><time>2026-05-03T09:09:48Z</time></trkpt><trkpt lat="43.93764364304197" lon="12.442759433868137"><ele>587.0</ele><time>2026-05-03T09:09:49Z</time></trkpt><trkpt lat="43.937569506341845" lon="12.442811968614294"><ele>587.0</ele><time>2026-05-03T09:09:50Z</time></trkpt><trkpt lat="43.93749776267288" lon="12.442858831895348"><ele>587.0</ele><time>2026-05-03T09:09:51Z</time></trkpt><trkpt lat="43.93742510242678" lon="12.442905849412169"><ele>587.0</ele><time>2026-05-03T09:09:52Z</time></trkpt><trkpt lat="43.93735738405012" lon="12.442959609369149"><ele>587.0</ele><time>2026-05-03T09:09:53Z</time></trkpt><trkpt lat="43.93729570237165" lon="12.443029625754505"><ele>587.0</ele><time>2026-05-03T09:09:53.999Z</time></trkpt><trkpt lat="43.93724045343335" lon="12.443114085361453"><ele>589.3333333333333</ele><time>2026-05-03T09:09:54.999Z</time></trkpt><trkpt lat="43.93718414368227" lon="12.443200084763955"><ele>591.6666666666666</ele><time>2026-05-03T09:09:55.999Z</time></trkpt><trkpt lat="43.93712868371853" lon="12.443293095834147"><ele>594.0</ele><time>2026-05-03T09:09:56.999Z</time></trkpt><trkpt lat="43.93706957283153" lon="12.443383407889321"><ele>596.3333333333334</ele><time>2026-05-03T09:09:57.999Z</time></trkpt><trkpt lat="43.93700859974914" lon="12.443476313085203"><ele>598.6666666666667</ele><time>2026-05-03T09:09:58.999Z</time></trkpt><trkpt lat="43.93694960822064" lon="12.443570606612658"><ele>601.0</ele><time>2026-05-03T09:09:59.999Z</time></trkpt><trkpt lat="43.9368903044776" lon="12.443664770444075"><ele>601.0</ele><time>2026-05-03T09:10:00.999Z</time></trkpt><trkpt lat="43.93682618529123" lon="12.443753752373617"><ele>601.0</ele><time>2026-05-03T09:10:01.999Z</time></trkpt><trkpt lat="43.93676215587911" lon="12.443840516047244"><ele>601.0</ele><time>2026-05-03T09:10:02.999Z</time></trkpt><trkpt lat="43.93670084455493" lon="12.4439263293766"><ele>601.0</ele><time>2026-05-03T09:10:03.999Z</time></trkpt><trkpt lat="43.93664173435182" lon="12.444008471058913"><ele>601.0</ele><time>2026-05-03T09:10:04.999Z</time></trkpt><trkpt lat="43.93658310129873" lon="12.444085431806386"><ele>601.0</ele><time>2026-05-03T09:10:05.999Z</time></trkpt><trkpt lat="43.93652518491779" lon="12.444155726007464"><ele>602.0</ele><time>2026-05-03T09:10:06.999Z</time></trkpt><trkpt lat="43.93647350867104" lon="12.444222524055716"><ele>603.0</ele><time>2026-05-03T09:10:07.999Z</time></trkpt><trkpt lat="43.93642100433933" lon="12.444280048835637"><ele>604.0</ele><time>2026-05-03T09:10:08.999Z</time></trkpt><trkpt lat="43.93636984473843" lon="12.444335293962432"><ele>605.0</ele><time>2026-05-03T09:10:09.999Z</time></trkpt><trkpt lat="43.93631305435661" lon="12.444386781405072"><ele>606.0</ele><time>2026-05-03T09:10:10.999Z</time></trkpt><trkpt lat="43.93625081298926" lon="12.444446418501164"><ele>607.0</ele><time>2026-05-03T09:10:11.999Z</time></trkpt><trkpt lat="43.93618878901287" lon="12.444508259201545"><ele>608.0</ele><time>2026-05-03T09:10:12.999Z</time></trkpt><trkpt lat="43.93612904189211" lon="12.444575985734744"><ele>609.1666666666666</ele><time>2026-05-03T09:10:13.999Z</time></trkpt><trkpt lat="43.936064420761575" lon="12.444638746092757"><ele>610.3333333333333</ele><time>2026-05-03T09:10:14.999Z</time></trkpt><trkpt lat="43.93600095182275" lon="12.444704433843123"><ele>611.5</ele><time>2026-05-03T09:10:15.999Z</time></trkpt><trkpt lat="43.93593767018407" lon="12.4447690533752"><ele>612.6666666666666</ele><time>2026-05-03T09:10:16.999Z</time></trkpt><trkpt lat="43.93587879607671" lon="12.444828756377959"><ele>613.8333333333334</ele><time>2026-05-03T09:10:17.999Z</time></trkpt><trkpt lat="43.93581548840364" lon="12.444886192620586"><ele>615.0</ele><time>2026-05-03T09:10:18.999Z</time></trkpt><trkpt lat="43.93575883557072" lon="12.444949202167969"><ele>615.0</ele><time>2026-05-03T09:10:19.999Z</time></trkpt><trkpt lat="43.935660543102784" lon="12.445030380022365"><ele>615.0</ele><time>2026-05-03T09:10:21.999Z</time></trkpt><trkpt lat="43.93557683651147" lon="12.445097617737966"><ele>615.0</ele><time>2026-05-03T09:10:23.999Z</time></trkpt><trkpt lat="43.93550933101177" lon="12.44514819655132"><ele>615.0</ele><time>2026-05-03T09:10:25.999Z</time></trkpt><trkpt lat="43.93543643624167" lon="12.445205122464522"><ele>615.0</ele><time>2026-05-03T09:10:27.999Z</time></trkpt><trkpt lat="43.93535285884452" lon="12.445287327086337"><ele>615.0</ele><time>2026-05-03T09:10:29.999Z</time></trkpt><trkpt lat="43.93529189380126" lon="12.445411856416587"><ele>615.0</ele><time>2026-05-03T09:10:31.999Z</time></trkpt><trkpt lat="43.93531714209137" lon="12.445558412191621"><ele>615.0</ele><time>2026-05-03T09:10:33.999Z</time></trkpt><trkpt lat="43.9354032768512" lon="12.445676649189949"><ele>615.0</ele><time>2026-05-03T09:10:35.999Z</time></trkpt><trkpt lat="43.93546529460053" lon="12.44570539919291"><ele>615.0</ele><time>2026-05-03T09:10:36.999Z</time></trkpt><trkpt lat="43.93553704025715" lon="12.445695554883871"><ele>615.0</ele><time>2026-05-03T09:10:37.999Z</time></trkpt><trkpt lat="43.93561241500013" lon="12.44564492841294"><ele>615.0</ele><time>2026-05-03T09:10:38.999Z</time></trkpt><trkpt lat="43.93568060084258" lon="12.445553569367437"><ele>615.0</ele><time>2026-05-03T09:10:39.999Z</time></trkpt><trkpt lat="43.93573756087764" lon="12.445454648754161"><ele>615.0</ele><time>2026-05-03T09:10:40.999Z</time></trkpt><trkpt lat="43.935795035847875" lon="12.44535860395031"><ele>615.0</ele><time>2026-05-03T09:10:41.999Z</time></trkpt><trkpt lat="43.93585450118373" lon="12.445264339230063"><ele>618.0</ele><time>2026-05-03T09:10:42.999Z</time></trkpt><trkpt lat="43.935914938989946" lon="12.445183247108533"><ele>621.0</ele><time>2026-05-03T09:10:43.999Z</time></trkpt><trkpt lat="43.93597593973731" lon="12.44512050754344"><ele>624.0</ele><time>2026-05-03T09:10:44.999Z</time></trkpt><trkpt lat="43.936040075488606" lon="12.445066500280772"><ele>627.0</ele><time>2026-05-03T09:10:45.999Z</time></trkpt><trkpt lat="43.936101360387596" lon="12.445016330972217"><ele>630.0</ele><time>2026-05-03T09:10:46.999Z</time></trkpt><trkpt lat="43.93616024940326" lon="12.444974426486253"><ele>633.0</ele><time>2026-05-03T09:10:47.999Z</time></trkpt><trkpt lat="43.93621722566558" lon="12.444934201559711"><ele>636.0</ele><time>2026-05-03T09:10:48.999Z</time></trkpt><trkpt lat="43.93632557715342" lon="12.444864204129896"><ele>636.0</ele><time>2026-05-03T09:10:50.999Z</time></trkpt><trkpt lat="43.93642898075984" lon="12.444806687160238"><ele>636.0</ele><time>2026-05-03T09:10:52.999Z</time></trkpt><trkpt lat="43.93654801792984" lon="12.444742221924416"><ele>636.0</ele><time>2026-05-03T09:10:54.999Z</time></trkpt><trkpt lat="43.93660523646881" lon="12.444699993213765"><ele>636.0</ele><time>2026-05-03T09:10:55.999Z</time></trkpt><trkpt lat="43.936667978418086" lon="12.444659309878274"><ele>636.0</ele><time>2026-05-03T09:10:56.999Z</time></trkpt><trkpt lat="43.93673024037758" lon="12.444616009974377"><ele>636.0</ele><time>2026-05-03T09:10:57.999Z</time></trkpt><trkpt lat="43.936796067216434" lon="12.44457200354252"><ele>634.5714285714286</ele><time>2026-05-03T09:10:58.999Z</time></trkpt><trkpt lat="43.93686234473809" lon="12.444524529293407"><ele>633.1428571428572</ele><time>2026-05-03T09:10:59.999Z</time></trkpt><trkpt lat="43.93692629709982" lon="12.444478103783577"><ele>631.7142857142858</ele><time>2026-05-03T09:11:00.999Z</time></trkpt><trkpt lat="43.9369871722684" lon="12.444435323503388"><ele>630.2857142857142</ele><time>2026-05-03T09:11:01.999Z</time></trkpt><trkpt lat="43.93704911996634" lon="12.444392186495454"><ele>628.8571428571429</ele><time>2026-05-03T09:11:02.999Z</time></trkpt><trkpt lat="43.93711002545979" lon="12.444349464286692"><ele>627.4285714285714</ele><time>2026-05-03T09:11:03.999Z</time></trkpt><trkpt lat="43.93716836028783" lon="12.444303948017858"><ele>626.0</ele><time>2026-05-03T09:11:04.999Z</time></trkpt><trkpt lat="43.93722647946238" lon="12.444266118811424"><ele>626.0</ele><time>2026-05-03T09:11:05.999Z</time></trkpt><trkpt lat="43.93728597375399" lon="12.444222076360223"><ele>626.0</ele><time>2026-05-03T09:11:06.999Z</time></trkpt><trkpt lat="43.93734698262267" lon="12.444177764557011"><ele>626.0</ele><time>2026-05-03T09:11:07.999Z</time></trkpt><trkpt lat="43.93740527895489" lon="12.444134257767722"><ele>626.0</ele><time>2026-05-03T09:11:08.999Z</time></trkpt><trkpt lat="43.937460177280414" lon="12.444087653211827"><ele>626.0</ele><time>2026-05-03T09:11:09.999Z</time></trkpt><trkpt lat="43.93755779018042" lon="12.444005764998053"><ele>626.0</ele><time>2026-05-03T09:11:11.999Z</time></trkpt><trkpt lat="43.93764244677551" lon="12.444065174698201"><ele>626.0</ele><time>2026-05-03T09:11:13.999Z</time></trkpt><trkpt lat="43.9376030567168" lon="12.444219705041986"><ele>626.0</ele><time>2026-05-03T09:11:15.999Z</time></trkpt><trkpt lat="43.93754444239484" lon="12.44426703506693"><ele>626.0</ele><time>2026-05-03T09:11:16.999Z</time></trkpt><trkpt lat="43.937486610367245" lon="12.44431474584936"><ele>626.0</ele><time>2026-05-03T09:11:17.998Z</time></trkpt><trkpt lat="43.937424942831655" lon="12.444371892709556"><ele>626.0</ele><time>2026-05-03T09:11:18.998Z</time></trkpt><trkpt lat="43.937368271029534" lon="12.44443193865974"><ele>626.0</ele><time>2026-05-03T09:11:19.998Z</time></trkpt><trkpt lat="43.93730806416753" lon="12.44448997062653"><ele>626.0</ele><time>2026-05-03T09:11:20.998Z</time></trkpt><trkpt lat="43.93725080581863" lon="12.44455161951619"><ele>626.0</ele><time>2026-05-03T09:11:21.998Z</time></trkpt><trkpt lat="43.937195898510616" lon="12.444610482457522"><ele>626.0</ele><time>2026-05-03T09:11:22.998Z</time></trkpt><trkpt lat="43.93714361520307" lon="12.444668377849787"><ele>626.0</ele><time>2026-05-03T09:11:23.998Z</time></trkpt><trkpt lat="43.93709565748541" lon="12.44472631232928"><ele>626.0</ele><time>2026-05-03T09:11:24.998Z</time></trkpt><trkpt lat="43.93700817369578" lon="12.444832529634326"><ele>626.0</ele><time>2026-05-03T09:11:26.998Z</time></trkpt><trkpt lat="43.93691594646472" lon="12.444918631684464"><ele>628.0</ele><time>2026-05-03T09:11:28.998Z</time></trkpt><trkpt lat="43.93682131496554" lon="12.445017651057759"><ele>630.0</ele><time>2026-05-03T09:11:30.998Z</time></trkpt><trkpt lat="43.93671964361716" lon="12.44513613337136"><ele>632.0</ele><time>2026-05-03T09:11:32.998Z</time></trkpt><trkpt lat="43.93666777682159" lon="12.445195536680016"><ele>634.0</ele><time>2026-05-03T09:11:33.998Z</time></trkpt><trkpt lat="43.93657173237508" lon="12.445306717494697"><ele>636.0</ele><time>2026-05-03T09:11:35.998Z</time></trkpt><trkpt lat="43.93652140491028" lon="12.445362756064585"><ele>636.0</ele><time>2026-05-03T09:11:37Z</time></trkpt><trkpt lat="43.936426378709086" lon="12.44546216644346"><ele>636.0</ele><time>2026-05-03T09:11:39Z</time></trkpt><trkpt lat="43.93634676304417" lon="12.445559595724745"><ele>636.0</ele><time>2026-05-03T09:11:41Z</time></trkpt><trkpt lat="43.93625717724028" lon="12.445647655228303"><ele>636.0</ele><time>2026-05-03T09:11:43Z</time></trkpt><trkpt lat="43.93617331982421" lon="12.44573208879693"><ele>636.0</ele><time>2026-05-03T09:11:45Z</time></trkpt><trkpt lat="43.93608666615373" lon="12.445819552484956"><ele>636.4</ele><time>2026-05-03T09:11:47Z</time></trkpt><trkpt lat="43.93599868881626" lon="12.445912626760984"><ele>636.8</ele><time>2026-05-03T09:11:49Z</time></trkpt><trkpt lat="43.935912263491566" lon="12.446005315090868"><ele>637.1999999999999</ele><time>2026-05-03T09:11:51Z</time></trkpt><trkpt lat="43.93583638892093" lon="12.446083892434453"><ele>637.6</ele><time>2026-05-03T09:11:53Z</time></trkpt><trkpt lat="43.93577570736534" lon="12.446148755501875"><ele>638.0</ele><time>2026-05-03T09:11:54.999Z</time></trkpt><trkpt lat="43.935723050659846" lon="12.446201425939122"><ele>638.0</ele><time>2026-05-03T09:11:56.999Z</time></trkpt><trkpt lat="43.9356590690754" lon="12.446267602711183"><ele>638.0</ele><time>2026-05-03T09:11:58.999Z</time></trkpt><trkpt lat="43.93559696943442" lon="12.446334577790312"><ele>638.0</ele><time>2026-05-03T09:12:00.999Z</time></trkpt><trkpt lat="43.93553973279472" lon="12.446393767021407"><ele>638.0</ele><time>2026-05-03T09:12:02.999Z</time></trkpt><trkpt lat="43.9354858024844" lon="12.446446200327276"><ele>638.0</ele><time>2026-05-03T09:12:04.999Z</time></trkpt><trkpt lat="43.93543083947892" lon="12.446505435745069"><ele>638.0</ele><time>2026-05-03T09:12:07.999Z</time></trkpt><trkpt lat="43.93549336024751" lon="12.446478993389285"><ele>638.0</ele><time>2026-05-03T09:13:10.999Z</time></trkpt><trkpt lat="43.93555401517874" lon="12.446401768869626"><ele>638.0</ele><time>2026-05-03T09:13:32.999Z</time></trkpt><trkpt lat="43.93563571437683" lon="12.44635152247453"><ele>638.0</ele><time>2026-05-03T09:13:34.999Z</time></trkpt><trkpt lat="43.935597201403745" lon="12.446267137724488"><ele>638.0</ele><time>2026-05-03T09:13:47Z</time></trkpt><trkpt lat="43.93554635123861" lon="12.44635138267903"><ele>638.0</ele><time>2026-05-03T09:13:49Z</time></trkpt><trkpt lat="43.93549749249785" lon="12.446413246454394"><ele>638.0</ele><time>2026-05-03T09:13:58Z</time></trkpt><trkpt lat="43.935477233929774" lon="12.446505803217564"><ele>638.0</ele><time>2026-05-03T09:14:01Z</time></trkpt><trkpt lat="43.93542204457662" lon="12.446564796557695"><ele>638.0</ele><time>2026-05-03T09:27:03Z</time></trkpt><trkpt lat="43.93536469788701" lon="12.446603664833237"><ele>642.5</ele><time>2026-05-03T09:27:10Z</time></trkpt><trkpt lat="43.93530449639497" lon="12.446649184740311"><ele>647.0</ele><time>2026-05-03T09:27:23Z</time></trkpt><trkpt lat="43.93519785915209" lon="12.446671900521194"><ele>651.5</ele><time>2026-05-03T09:27:45.999Z</time></trkpt><trkpt lat="43.93527963759179" lon="12.446680419338577"><ele>656.0</ele><time>2026-05-03T09:29:12Z</time></trkpt><trkpt lat="43.93538274402048" lon="12.446612573078555"><ele>660.5</ele><time>2026-05-03T09:29:20.999Z</time></trkpt><trkpt lat="43.9354276139019" lon="12.446550911010949"><ele>665.0</ele><time>2026-05-03T09:29:26.999Z</time></trkpt><trkpt lat="43.93536712648469" lon="12.446596138706102"><ele>665.0</ele><time>2026-05-03T09:30:12.999Z</time></trkpt><trkpt lat="43.93530316454808" lon="12.446635910702831"><ele>665.0</ele><time>2026-05-03T09:30:18.999Z</time></trkpt></trkseg><trkseg><trkpt lat="44.09621230585801" lon="12.448690688808114"><ele>21.0</ele><time>2026-05-03T12:14:24Z</time></trkpt><trkpt lat="44.09637488379552" lon="12.448453451010595"><ele>21.0</ele><time>2026-05-03T12:14:25Z</time></trkpt><trkpt lat="44.09653741810819" lon="12.44821828059517"><ele>20.5</ele><time>2026-05-03T12:14:26Z</time></trkpt><trkpt lat="44.09669826688095" lon="12.447985469613373"><ele>20.0</ele><time>2026-05-03T12:14:26.999Z</time></trkpt><trkpt lat="44.09686317340443" lon="12.447753457399838"><ele>20.0</ele><time>2026-05-03T12:14:27.999Z</time></trkpt><trkpt lat="44.09702470916742" lon="12.447521027938368"><ele>20.0</ele><time>2026-05-03T12:14:28.999Z</time></trkpt><trkpt lat="44.09718564389507" lon="12.447287489582344"><ele>20.0</ele><time>2026-05-03T12:14:29.999Z</time></trkpt><trkpt lat="44.097344513473764" lon="12.4470556057278"><ele>20.0</ele><time>2026-05-03T12:14:30.999Z</time></trkpt><trkpt lat="44.09750786280926" lon="12.44682202671573"><ele>20.0</ele><time>2026-05-03T12:14:31.999Z</time></trkpt><trkpt lat="44.097670169146404" lon="12.446590358100808"><ele>20.0</ele><time>2026-05-03T12:14:32.999Z</time></trkpt><trkpt lat="44.097833620347366" lon="12.446355123602624"><ele>20.0</ele><time>2026-05-03T12:14:33.999Z</time></trkpt><trkpt lat="44.09799289930955" lon="12.446118661253147"><ele>20.0</ele><time>2026-05-03T12:14:34.999Z</time></trkpt><trkpt lat="44.09815062661855" lon="12.445877657864953"><ele>19.5</ele><time>2026-05-03T12:14:35.999Z</time></trkpt><trkpt lat="44.09830636923782" lon="12.44563653955852"><ele>19.0</ele><time>2026-05-03T12:14:36.999Z</time></trkpt><trkpt lat="44.09846367932419" lon="12.445397175967054"><ele>19.0</ele><time>2026-05-03T12:14:37.999Z</time></trkpt><trkpt lat="44.09862282086344" lon="12.445154573813763"><ele>19.0</ele><time>2026-05-03T12:14:38.999Z</time></trkpt><trkpt lat="44.098778474202476" lon="12.444909825721806"><ele>19.0</ele><time>2026-05-03T12:14:39.999Z</time></trkpt><trkpt lat="44.098932701548854" lon="12.444662931598561"><ele>19.0</ele><time>2026-05-03T12:14:40.999Z</time></trkpt><trkpt lat="44.099089167384875" lon="12.444418338022814"><ele>18.5</ele><time>2026-05-03T12:14:41.999Z</time></trkpt><trkpt lat="44.09924515834613" lon="12.444173847257643"><ele>18.0</ele><time>2026-05-03T12:14:42.999Z</time></trkpt><trkpt lat="44.09939734406531" lon="12.443924240375992"><ele>18.0</ele><time>2026-05-03T12:14:43.999Z</time></trkpt><trkpt lat="44.09955024250117" lon="12.443676849121339"><ele>18.0</ele><time>2026-05-03T12:14:44.999Z</time></trkpt><trkpt lat="44.09970478709804" lon="12.443429163440015"><ele>18.0</ele><time>2026-05-03T12:14:45.999Z</time></trkpt><trkpt lat="44.09985816783902" lon="12.443180813121439"><ele>18.0</ele><time>2026-05-03T12:14:46.999Z</time></trkpt><trkpt lat="44.10000788752305" lon="12.442927930025709"><ele>18.0</ele><time>2026-05-03T12:14:47.999Z</time></trkpt><trkpt lat="44.1001551615798" lon="12.442676408459345"><ele>18.0</ele><time>2026-05-03T12:14:48.999Z</time></trkpt><trkpt lat="44.10030157698315" lon="12.442421450815104"><ele>18.0</ele><time>2026-05-03T12:14:49.999Z</time></trkpt><trkpt lat="44.10044464473" lon="12.4421648066053"><ele>18.0</ele><time>2026-05-03T12:14:50.999Z</time></trkpt><trkpt lat="44.1005873946138" lon="12.441909583515654"><ele>18.0</ele><time>2026-05-03T12:14:51.999Z</time></trkpt><trkpt lat="44.10073438611596" lon="12.441656369802265"><ele>18.0</ele><time>2026-05-03T12:14:52.999Z</time></trkpt><trkpt lat="44.10087874405124" lon="12.441401484233024"><ele>18.5</ele><time>2026-05-03T12:14:53.999Z</time></trkpt><trkpt lat="44.10102477229732" lon="12.441141025522109"><ele>19.0</ele><time>2026-05-03T12:14:54.999Z</time></trkpt><trkpt lat="44.10117073679441" lon="12.440877909591517"><ele>19.0</ele><time>2026-05-03T12:14:55.999Z</time></trkpt><trkpt lat="44.1013098383077" lon="12.440615827602462"><ele>19.0</ele><time>2026-05-03T12:14:56.999Z</time></trkpt><trkpt lat="44.101449396936324" lon="12.44034589935837"><ele>19.0</ele><time>2026-05-03T12:14:57.999Z</time></trkpt><trkpt lat="44.101585810644465" lon="12.44007792550944"><ele>19.0</ele><time>2026-05-03T12:14:58.999Z</time></trkpt><trkpt lat="44.10172528005153" lon="12.439806701164452"><ele>19.0</ele><time>2026-05-03T12:14:59.999Z</time></trkpt><trkpt lat="44.10186712923372" lon="12.43953578678982"><ele>19.0</ele><time>2026-05-03T12:15:00.999Z</time></trkpt><trkpt lat="44.10201090060765" lon="12.439264728911535"><ele>19.0</ele><time>2026-05-03T12:15:01.999Z</time></trkpt><trkpt lat="44.102152420060534" lon="12.438992657624294"><ele>19.0</ele><time>2026-05-03T12:15:02.999Z</time></trkpt><trkpt lat="44.10229097610042" lon="12.438714667324339"><ele>18.5</ele><time>2026-05-03T12:15:03.999Z</time></trkpt><trkpt lat="44.102428005158885" lon="12.43843427479544"><ele>18.0</ele><time>2026-05-03T12:15:04.999Z</time></trkpt><trkpt lat="44.10256391324658" lon="12.4381496782622"><ele>17.5</ele><time>2026-05-03T12:15:05.999Z</time></trkpt><trkpt lat="44.102699273243935" lon="12.437866493715262"><ele>17.0</ele><time>2026-05-03T12:15:06.999Z</time></trkpt><trkpt lat="44.102834558196506" lon="12.437583510295111"><ele>17.0</ele><time>2026-05-03T12:15:07.999Z</time></trkpt><trkpt lat="44.1029677787253" lon="12.437301156541434"><ele>17.0</ele><time>2026-05-03T12:15:08.999Z</time></trkpt><trkpt lat="44.10309964207127" lon="12.43701813731853"><ele>17.0</ele><time>2026-05-03T12:15:09.999Z</time></trkpt><trkpt lat="44.10322784947727" lon="12.436731076311856"><ele>17.0</ele><time>2026-05-03T12:15:10.999Z</time></trkpt><trkpt lat="44.10335769041857" lon="12.436444053560074"><ele>17.0</ele><time>2026-05-03T12:15:11.999Z</time></trkpt><trkpt lat="44.103489593831384" lon="12.436161533208832"><ele>17.0</ele><time>2026-05-03T12:15:12.999Z</time></trkpt><trkpt lat="44.10362109972036" lon="12.43587855114339"><ele>17.0</ele><time>2026-05-03T12:15:13.999Z</time></trkpt><trkpt lat="44.103750697806724" lon="12.435597444598145"><ele>17.0</ele><time>2026-05-03T12:15:14.999Z</time></trkpt><trkpt lat="44.103880000985754" lon="12.435317376757009"><ele>17.0</ele><time>2026-05-03T12:15:15.999Z</time></trkpt><trkpt lat="44.10400844388363" lon="12.43504174477051"><ele>17.0</ele><time>2026-05-03T12:15:16.999Z</time></trkpt><trkpt lat="44.104134839439276" lon="12.434770569566377"><ele>17.0</ele><time>2026-05-03T12:15:17.999Z</time></trkpt><trkpt lat="44.104259055056914" lon="12.434501039069106"><ele>17.0</ele><time>2026-05-03T12:15:18.999Z</time></trkpt><trkpt lat="44.10438225467575" lon="12.434231715055644"><ele>17.0</ele><time>2026-05-03T12:15:19.999Z</time></trkpt><trkpt lat="44.104501942653265" lon="12.433970225546016"><ele>17.0</ele><time>2026-05-03T12:15:20.999Z</time></trkpt><trkpt lat="44.1046210034927" lon="12.433710888912655"><ele>17.0</ele><time>2026-05-03T12:15:21.999Z</time></trkpt><trkpt lat="44.104738900343115" lon="12.43345240235823"><ele>17.0</ele><time>2026-05-03T12:15:22.999Z</time></trkpt><trkpt lat="44.10485535443154" lon="12.43319480129179"><ele>17.0</ele><time>2026-05-03T12:15:23.999Z</time></trkpt><trkpt lat="44.104970206224024" lon="12.432935237732057"><ele>17.0</ele><time>2026-05-03T12:15:24.999Z</time></trkpt><trkpt lat="44.10508331869996" lon="12.43266267100572"><ele>16.5</ele><time>2026-05-03T12:15:25.999Z</time></trkpt><trkpt lat="44.10519945039224" lon="12.432388778079206"><ele>16.0</ele><time>2026-05-03T12:15:26.999Z</time></trkpt><trkpt lat="44.10532000545444" lon="12.432105367340236"><ele>16.0</ele><time>2026-05-03T12:15:27.999Z</time></trkpt><trkpt lat="44.10544026377021" lon="12.43182574684779"><ele>16.0</ele><time>2026-05-03T12:15:28.999Z</time></trkpt><trkpt lat="44.105563834162005" lon="12.431548258602138"><ele>16.5</ele><time>2026-05-03T12:15:29.999Z</time></trkpt><trkpt lat="44.105687976271994" lon="12.431274548047407"><ele>17.0</ele><time>2026-05-03T12:15:30.999Z</time></trkpt><trkpt lat="44.105839986030084" lon="12.430949441921335"><ele>16.0</ele><time>2026-05-03T12:15:31.999Z</time></trkpt><trkpt lat="44.10597205648442" lon="12.43065390887741"><ele>15.0</ele><time>2026-05-03T12:15:32.999Z</time></trkpt><trkpt lat="44.10610743583672" lon="12.430355515229264"><ele>15.0</ele><time>2026-05-03T12:15:33.999Z</time></trkpt><trkpt lat="44.10624024702139" lon="12.43005819938419"><ele>15.0</ele><time>2026-05-03T12:15:34.999Z</time></trkpt><trkpt lat="44.106378101135654" lon="12.429761228417703"><ele>16.0</ele><time>2026-05-03T12:15:35.999Z</time></trkpt><trkpt lat="44.106516411767615" lon="12.4294671758538"><ele>17.0</ele><time>2026-05-03T12:15:36.999Z</time></trkpt><trkpt lat="44.1066535135673" lon="12.429172186251167"><ele>17.0</ele><time>2026-05-03T12:15:37.999Z</time></trkpt><trkpt lat="44.106789495310394" lon="12.428874324061944"><ele>17.0</ele><time>2026-05-03T12:15:38.999Z</time></trkpt><trkpt lat="44.106924844566876" lon="12.428577783614925"><ele>17.0</ele><time>2026-05-03T12:15:39.999Z</time></trkpt><trkpt lat="44.10706070839701" lon="12.428283141810494"><ele>17.0</ele><time>2026-05-03T12:15:40.999Z</time></trkpt><trkpt lat="44.10719560894287" lon="12.42798813469546"><ele>17.0</ele><time>2026-05-03T12:15:41.999Z</time></trkpt><trkpt lat="44.107330383831744" lon="12.427696040752483"><ele>17.0</ele><time>2026-05-03T12:15:42.999Z</time></trkpt><trkpt lat="44.10746954552537" lon="12.427408998267126"><ele>17.5</ele><time>2026-05-03T12:15:43.999Z</time></trkpt><trkpt lat="44.10761133303676" lon="12.427125701355447"><ele>18.0</ele><time>2026-05-03T12:15:44.999Z</time></trkpt><trkpt lat="44.10775559295161" lon="12.42684315164601"><ele>18.0</ele><time>2026-05-03T12:15:45.999Z</time></trkpt><trkpt lat="44.10790683701934" lon="12.426567586598987"><ele>18.0</ele><time>2026-05-03T12:15:46.999Z</time></trkpt><trkpt lat="44.10806189527344" lon="12.426299925646493"><ele>17.0</ele><time>2026-05-03T12:15:47.999Z</time></trkpt><trkpt lat="44.10821393038641" lon="12.426034025233779"><ele>16.0</ele><time>2026-05-03T12:15:48.999Z</time></trkpt><trkpt lat="44.10836801567102" lon="12.425768320440058"><ele>16.0</ele><time>2026-05-03T12:15:49.999Z</time></trkpt><trkpt lat="44.10852444623193" lon="12.425506284944836"><ele>16.0</ele><time>2026-05-03T12:15:50.999Z</time></trkpt><trkpt lat="44.10868660631624" lon="12.425252332609684"><ele>16.0</ele><time>2026-05-03T12:15:51.999Z</time></trkpt><trkpt lat="44.108850201158816" lon="12.424998152561821"><ele>16.0</ele><time>2026-05-03T12:15:52.999Z</time></trkpt><trkpt lat="44.109015769575834" lon="12.424742468940709"><ele>16.0</ele><time>2026-05-03T12:15:53.999Z</time></trkpt><trkpt lat="44.10918494997608" lon="12.42448437536363"><ele>16.0</ele><time>2026-05-03T12:15:54.999Z</time></trkpt><trkpt lat="44.10935748402072" lon="12.424222355478765"><ele>16.0</ele><time>2026-05-03T12:15:55.999Z</time></trkpt><trkpt lat="44.109531991267744" lon="12.423957073657323"><ele>16.0</ele><time>2026-05-03T12:15:56.999Z</time></trkpt><trkpt lat="44.10970780529876" lon="12.423687914041789"><ele>15.5</ele><time>2026-05-03T12:15:57.999Z</time></trkpt><trkpt lat="44.10988405517184" lon="12.423415793041004"><ele>15.0</ele><time>2026-05-03T12:15:58.999Z</time></trkpt><trkpt lat="44.11005971264859" lon="12.423142075133669"><ele>16.0</ele><time>2026-05-03T12:15:59.999Z</time></trkpt><trkpt lat="44.110237051087495" lon="12.422869391244499"><ele>17.0</ele><time>2026-05-03T12:16:00.999Z</time></trkpt><trkpt lat="44.11041466526742" lon="12.42259244697062"><ele>17.0</ele><time>2026-05-03T12:16:01.999Z</time></trkpt><trkpt lat="44.110591175934765" lon="12.422316376797742"><ele>17.0</ele><time>2026-05-03T12:16:02.999Z</time></trkpt><trkpt lat="44.11077067947052" lon="12.422038814487003"><ele>16.5</ele><time>2026-05-03T12:16:03.999Z</time></trkpt><trkpt lat="44.11095004512706" lon="12.42176356172628"><ele>16.0</ele><time>2026-05-03T12:16:04.999Z</time></trkpt><trkpt lat="44.11112910103509" lon="12.42148788246194"><ele>15.5</ele><time>2026-05-03T12:16:05.999Z</time></trkpt><trkpt lat="44.11130596996782" lon="12.421212643860017"><ele>15.0</ele><time>2026-05-03T12:16:06.999Z</time></trkpt><trkpt lat="44.11148162860602" lon="12.420936426642045"><ele>15.0</ele><time>2026-05-03T12:16:07.999Z</time></trkpt><trkpt lat="44.11165613545668" lon="12.420668456424918"><ele>15.0</ele><time>2026-05-03T12:16:08.999Z</time></trkpt><trkpt lat="44.111827538311665" lon="12.42040460178708"><ele>15.0</ele><time>2026-05-03T12:16:09.999Z</time></trkpt><trkpt lat="44.111996302896486" lon="12.420143950600648"><ele>15.0</ele><time>2026-05-03T12:16:10.999Z</time></trkpt><trkpt lat="44.11215848488273" lon="12.41989233142696"><ele>15.0</ele><time>2026-05-03T12:16:11.999Z</time></trkpt><trkpt lat="44.11231692514551" lon="12.419645303164979"><ele>15.0</ele><time>2026-05-03T12:16:12.999Z</time></trkpt><trkpt lat="44.11247198111085" lon="12.419404204576686"><ele>14.0</ele><time>2026-05-03T12:16:13.999Z</time></trkpt><trkpt lat="44.11262636438048" lon="12.419162354885069"><ele>13.0</ele><time>2026-05-03T12:16:14.999Z</time></trkpt><trkpt lat="44.112777633447415" lon="12.418924987602468"><ele>14.0</ele><time>2026-05-03T12:16:15.999Z</time></trkpt><trkpt lat="44.11293122217167" lon="12.418685385771052"><ele>15.0</ele><time>2026-05-03T12:16:16.999Z</time></trkpt><trkpt lat="44.113088963482504" lon="12.418450126573216"><ele>15.0</ele><time>2026-05-03T12:16:17.999Z</time></trkpt><trkpt lat="44.11325571210279" lon="12.418217130717231"><ele>15.0</ele><time>2026-05-03T12:16:18.999Z</time></trkpt><trkpt lat="44.113425774549796" lon="12.417974246011514"><ele>15.0</ele><time>2026-05-03T12:16:19.999Z</time></trkpt><trkpt lat="44.11351734799263" lon="12.417764283043528"><ele>15.0</ele><time>2026-05-03T12:16:20.999Z</time></trkpt><trkpt lat="44.11366307401136" lon="12.417525709480289"><ele>15.0</ele><time>2026-05-03T12:16:21.999Z</time></trkpt><trkpt lat="44.11380428359452" lon="12.41729202974874"><ele>14.666666666666668</ele><time>2026-05-03T12:16:22.999Z</time></trkpt><trkpt lat="44.11393618388885" lon="12.417042431950124"><ele>14.333333333333334</ele><time>2026-05-03T12:16:23.999Z</time></trkpt><trkpt lat="44.114064760905556" lon="12.416797748767078"><ele>14.0</ele><time>2026-05-03T12:16:24.999Z</time></trkpt><trkpt lat="44.11419568636458" lon="12.416547978104822"><ele>14.5</ele><time>2026-05-03T12:16:25.999Z</time></trkpt><trkpt lat="44.114319958763076" lon="12.416288970357199"><ele>15.0</ele><time>2026-05-03T12:16:26.999Z</time></trkpt><trkpt lat="44.114439919400446" lon="12.416015220834387"><ele>15.0</ele><time>2026-05-03T12:16:27.999Z</time></trkpt><trkpt lat="44.11455761566862" lon="12.415730128162847"><ele>15.0</ele><time>2026-05-03T12:16:28.999Z</time></trkpt><trkpt lat="44.11468151258664" lon="12.415442492887411"><ele>14.0</ele><time>2026-05-03T12:16:29.999Z</time></trkpt><trkpt lat="44.114806624360675" lon="12.415150818340612"><ele>13.0</ele><time>2026-05-03T12:16:30.999Z</time></trkpt><trkpt lat="44.11493115106188" lon="12.414854071037325"><ele>13.5</ele><time>2026-05-03T12:16:31.999Z</time></trkpt><trkpt lat="44.1150574800713" lon="12.414543194613863"><ele>14.0</ele><time>2026-05-03T12:16:32.999Z</time></trkpt><trkpt lat="44.11517470037936" lon="12.414221316874762"><ele>14.0</ele><time>2026-05-03T12:16:33.999Z</time></trkpt><trkpt lat="44.11529018622887" lon="12.41389592648891"><ele>14.0</ele><time>2026-05-03T12:16:34.999Z</time></trkpt><trkpt lat="44.115403155123396" lon="12.413563727356205"><ele>14.0</ele><time>2026-05-03T12:16:35.999Z</time></trkpt><trkpt lat="44.115507721542166" lon="12.413224634522681"><ele>14.0</ele><time>2026-05-03T12:16:36.999Z</time></trkpt><trkpt lat="44.115613337783124" lon="12.412882876738065"><ele>14.0</ele><time>2026-05-03T12:16:37.999Z</time></trkpt><trkpt lat="44.115717400282726" lon="12.412538812596448"><ele>14.0</ele><time>2026-05-03T12:16:38.999Z</time></trkpt><trkpt lat="44.11581076827668" lon="12.412200242283072"><ele>13.5</ele><time>2026-05-03T12:16:39.999Z</time></trkpt><trkpt lat="44.115902892285284" lon="12.41185481078069"><ele>13.0</ele><time>2026-05-03T12:16:40.999Z</time></trkpt><trkpt lat="44.11598463066756" lon="12.41150973813699"><ele>13.5</ele><time>2026-05-03T12:16:41.999Z</time></trkpt><trkpt lat="44.116051039557405" lon="12.411168789985433"><ele>14.0</ele><time>2026-05-03T12:16:42.999Z</time></trkpt><trkpt lat="44.116126211401216" lon="12.410828264626344"><ele>13.0</ele><time>2026-05-03T12:16:43.999Z</time></trkpt><trkpt lat="44.11619867507564" lon="12.410484951084326"><ele>12.0</ele><time>2026-05-03T12:16:44.999Z</time></trkpt><trkpt lat="44.11626846316179" lon="12.410145265738725"><ele>12.0</ele><time>2026-05-03T12:16:45.999Z</time></trkpt><trkpt lat="44.116339475765635" lon="12.409805268619762"><ele>12.0</ele><time>2026-05-03T12:16:46.999Z</time></trkpt><trkpt lat="44.11641427536031" lon="12.40946579984953"><ele>12.5</ele><time>2026-05-03T12:16:47.999Z</time></trkpt><trkpt lat="44.11648913266031" lon="12.409122534512788"><ele>13.0</ele><time>2026-05-03T12:16:48.999Z</time></trkpt><trkpt lat="44.11656346599094" lon="12.408771282942155"><ele>14.5</ele><time>2026-05-03T12:16:49.999Z</time></trkpt><trkpt lat="44.11663493828861" lon="12.408416332665764"><ele>16.0</ele><time>2026-05-03T12:16:50.999Z</time></trkpt><trkpt lat="44.116707092695094" lon="12.408059987021792"><ele>15.5</ele><time>2026-05-03T12:16:51.999Z</time></trkpt><trkpt lat="44.11677877800208" lon="12.407704594320649"><ele>15.0</ele><time>2026-05-03T12:16:52.999Z</time></trkpt><trkpt lat="44.11685191452755" lon="12.407351858662473"><ele>14.0</ele><time>2026-05-03T12:16:53.999Z</time></trkpt><trkpt lat="44.11692397201352" lon="12.407002907702747"><ele>13.0</ele><time>2026-05-03T12:16:54.999Z</time></trkpt><trkpt lat="44.11699411221016" lon="12.406660629435741"><ele>13.0</ele><time>2026-05-03T12:16:55.999Z</time></trkpt><trkpt lat="44.11706009920614" lon="12.406319808082687"><ele>13.0</ele><time>2026-05-03T12:16:56.999Z</time></trkpt><trkpt lat="44.11713128138539" lon="12.405983361721834"><ele>13.0</ele><time>2026-05-03T12:16:57.999Z</time></trkpt><trkpt lat="44.11719796537522" lon="12.405642769746532"><ele>13.0</ele><time>2026-05-03T12:16:58.999Z</time></trkpt><trkpt lat="44.117263920632496" lon="12.405294302291656"><ele>13.0</ele><time>2026-05-03T12:16:59.999Z</time></trkpt><trkpt lat="44.1173294686799" lon="12.40494134071592"><ele>13.0</ele><time>2026-05-03T12:17:00.999Z</time></trkpt><trkpt lat="44.11739949894993" lon="12.404588173173954"><ele>14.0</ele><time>2026-05-03T12:17:01.999Z</time></trkpt><trkpt lat="44.117471244878836" lon="12.404232301388644"><ele>15.0</ele><time>2026-05-03T12:17:02.999Z</time></trkpt><trkpt lat="44.117545347456236" lon="12.403873042788016"><ele>15.0</ele><time>2026-05-03T12:17:03.999Z</time></trkpt><trkpt lat="44.11761978752088" lon="12.403509515161565"><ele>15.0</ele><time>2026-05-03T12:17:04.999Z</time></trkpt><trkpt lat="44.1176943836695" lon="12.403146864935469"><ele>15.0</ele><time>2026-05-03T12:17:05.999Z</time></trkpt><trkpt lat="44.1177728119411" lon="12.40277524272401"><ele>15.0</ele><time>2026-05-03T12:17:06.999Z</time></trkpt><trkpt lat="44.117851235836454" lon="12.402407694405861"><ele>14.5</ele><time>2026-05-03T12:17:07.999Z</time></trkpt><trkpt lat="44.11793214144804" lon="12.40204011263019"><ele>14.0</ele><time>2026-05-03T12:17:08.999Z</time></trkpt><trkpt lat="44.11801467893692" lon="12.401672406382216"><ele>14.0</ele><time>2026-05-03T12:17:09.999Z</time></trkpt><trkpt lat="44.1180981262966" lon="12.401299966011004"><ele>14.0</ele><time>2026-05-03T12:17:10.999Z</time></trkpt><trkpt lat="44.118181969760585" lon="12.400926281762493"><ele>14.0</ele><time>2026-05-03T12:17:11.999Z</time></trkpt><trkpt lat="44.11826227565226" lon="12.40055348251829"><ele>14.0</ele><time>2026-05-03T12:17:12.999Z</time></trkpt><trkpt lat="44.118341103230435" lon="12.400177228109909"><ele>14.0</ele><time>2026-05-03T12:17:13.999Z</time></trkpt><trkpt lat="44.118419486224106" lon="12.39980437333348"><ele>14.0</ele><time>2026-05-03T12:17:14.999Z</time></trkpt><trkpt lat="44.11849793484687" lon="12.39942276416649"><ele>14.0</ele><time>2026-05-03T12:17:15.999Z</time></trkpt><trkpt lat="44.118575952020095" lon="12.399049546560803"><ele>14.0</ele><time>2026-05-03T12:17:16.999Z</time></trkpt><trkpt lat="44.11865522526735" lon="12.39867284260655"><ele>14.0</ele><time>2026-05-03T12:17:17.999Z</time></trkpt><trkpt lat="44.11872990601393" lon="12.398299544310092"><ele>14.0</ele><time>2026-05-03T12:17:18.999Z</time></trkpt><trkpt lat="44.11880657614004" lon="12.397927433436228"><ele>13.5</ele><time>2026-05-03T12:17:19.999Z</time></trkpt><trkpt lat="44.11888338489797" lon="12.397557728279821"><ele>13.0</ele><time>2026-05-03T12:17:20.999Z</time></trkpt><trkpt lat="44.118963325050174" lon="12.397182460764643"><ele>12.5</ele><time>2026-05-03T12:17:21.999Z</time></trkpt><trkpt lat="44.119043813680065" lon="12.3968072379268"><ele>12.0</ele><time>2026-05-03T12:17:22.999Z</time></trkpt><trkpt lat="44.11912578582535" lon="12.39642694129144"><ele>13.0</ele><time>2026-05-03T12:17:23.999Z</time></trkpt><trkpt lat="44.11920345102271" lon="12.396048097120962"><ele>14.0</ele><time>2026-05-03T12:17:24.999Z</time></trkpt><trkpt lat="44.11928440338057" lon="12.395664326512009"><ele>13.5</ele><time>2026-05-03T12:17:25.999Z</time></trkpt><trkpt lat="44.119368385931416" lon="12.395278868698641"><ele>13.0</ele><time>2026-05-03T12:17:26.999Z</time></trkpt><trkpt lat="44.11945616144104" lon="12.394896573782471"><ele>13.0</ele><time>2026-05-03T12:17:27.999Z</time></trkpt><trkpt lat="44.11954924675929" lon="12.394512965053698"><ele>13.0</ele><time>2026-05-03T12:17:28.999Z</time></trkpt><trkpt lat="44.119648713257995" lon="12.394127362705808"><ele>13.0</ele><time>2026-05-03T12:17:29.999Z</time></trkpt><trkpt lat="44.11975078256371" lon="12.393744560096122"><ele>13.0</ele><time>2026-05-03T12:17:30.999Z</time></trkpt><trkpt lat="44.11985631168906" lon="12.39336496520429"><ele>12.5</ele><time>2026-05-03T12:17:31.999Z</time></trkpt><trkpt lat="44.11996757827301" lon="12.39298454806875"><ele>12.0</ele><time>2026-05-03T12:17:32.999Z</time></trkpt><trkpt lat="44.12007857841724" lon="12.392603531420434"><ele>12.0</ele><time>2026-05-03T12:17:33.999Z</time></trkpt><trkpt lat="44.12019611681239" lon="12.392228102172394"><ele>12.0</ele><time>2026-05-03T12:17:34.999Z</time></trkpt><trkpt lat="44.12031933432982" lon="12.391855139370138"><ele>12.5</ele><time>2026-05-03T12:17:35.999Z</time></trkpt><trkpt lat="44.12045142281404" lon="12.391485318768222"><ele>13.0</ele><time>2026-05-03T12:17:36.999Z</time></trkpt><trkpt lat="44.1205848208881" lon="12.391121076959932"><ele>12.5</ele><time>2026-05-03T12:17:37.999Z</time></trkpt><trkpt lat="44.12072230732369" lon="12.390761151776143"><ele>12.0</ele><time>2026-05-03T12:17:38.999Z</time></trkpt><trkpt lat="44.12086021583299" lon="12.390406959351584"><ele>12.0</ele><time>2026-05-03T12:17:39.999Z</time></trkpt><trkpt lat="44.12100611799919" lon="12.3900586276401"><ele>12.0</ele><time>2026-05-03T12:17:40.999Z</time></trkpt><trkpt lat="44.12115686124057" lon="12.389713351830661"><ele>12.0</ele><time>2026-05-03T12:17:41.999Z</time></trkpt><trkpt lat="44.12130815200783" lon="12.389372727041842"><ele>12.0</ele><time>2026-05-03T12:17:42.999Z</time></trkpt><trkpt lat="44.12146537530323" lon="12.389033101565829"><ele>12.0</ele><time>2026-05-03T12:17:43.998Z</time></trkpt><trkpt lat="44.12162624089511" lon="12.388695368012979"><ele>12.0</ele><time>2026-05-03T12:17:44.998Z</time></trkpt><trkpt lat="44.12178845970948" lon="12.388356902944569"><ele>12.0</ele><time>2026-05-03T12:17:45.998Z</time></trkpt><trkpt lat="44.121956574373456" lon="12.388021133648992"><ele>12.0</ele><time>2026-05-03T12:17:46.999Z</time></trkpt><trkpt lat="44.12213001874425" lon="12.387693154817212"><ele>11.5</ele><time>2026-05-03T12:17:47.999Z</time></trkpt><trkpt lat="44.12230802285942" lon="12.387370989597878"><ele>11.0</ele><time>2026-05-03T12:17:48.999Z</time></trkpt><trkpt lat="44.122488688450964" lon="12.387054868219897"><ele>11.0</ele><time>2026-05-03T12:17:49.999Z</time></trkpt><trkpt lat="44.12267415524461" lon="12.38674062130735"><ele>11.0</ele><time>2026-05-03T12:17:50.999Z</time></trkpt><trkpt lat="44.12286476149251" lon="12.3864308512578"><ele>11.0</ele><time>2026-05-03T12:17:51.999Z</time></trkpt><trkpt lat="44.12305771825452" lon="12.386126313418174"><ele>11.0</ele><time>2026-05-03T12:17:52.999Z</time></trkpt><trkpt lat="44.123254860341625" lon="12.38582168766953"><ele>11.0</ele><time>2026-05-03T12:17:53.999Z</time></trkpt><trkpt lat="44.123452029875104" lon="12.385518112209533"><ele>11.0</ele><time>2026-05-03T12:17:54.999Z</time></trkpt><trkpt lat="44.12365008886305" lon="12.38522016543944"><ele>11.0</ele><time>2026-05-03T12:17:55.999Z</time></trkpt><trkpt lat="44.123850571715955" lon="12.384920975429749"><ele>11.0</ele><time>2026-05-03T12:17:56.999Z</time></trkpt><trkpt lat="44.12405247286401" lon="12.384622226844806"><ele>10.5</ele><time>2026-05-03T12:17:57.999Z</time></trkpt><trkpt lat="44.124255006065944" lon="12.384322864820483"><ele>10.0</ele><time>2026-05-03T12:17:58.999Z</time></trkpt><trkpt lat="44.12445589122794" lon="12.384024042532658"><ele>10.0</ele><time>2026-05-03T12:17:59.999Z</time></trkpt><trkpt lat="44.124658179496315" lon="12.383724684032853"><ele>10.0</ele><time>2026-05-03T12:18:00.999Z</time></trkpt><trkpt lat="44.124859217888535" lon="12.38342650323954"><ele>10.0</ele><time>2026-05-03T12:18:01.999Z</time></trkpt><trkpt lat="44.12506036253808" lon="12.383126043638093"><ele>10.0</ele><time>2026-05-03T12:18:02.999Z</time></trkpt><trkpt lat="44.1252612737312" lon="12.382825355320312"><ele>11.0</ele><time>2026-05-03T12:18:03.999Z</time></trkpt><trkpt lat="44.125462698168676" lon="12.382525010044027"><ele>12.0</ele><time>2026-05-03T12:18:04.999Z</time></trkpt><trkpt lat="44.125664217818446" lon="12.38222613846153"><ele>11.5</ele><time>2026-05-03T12:18:05.999Z</time></trkpt><trkpt lat="44.125864570397354" lon="12.381927135403888"><ele>11.0</ele><time>2026-05-03T12:18:06.999Z</time></trkpt><trkpt lat="44.126063502169906" lon="12.381629554410075"><ele>11.0</ele><time>2026-05-03T12:18:07.999Z</time></trkpt><trkpt lat="44.12626443828378" lon="12.381330492496945"><ele>11.0</ele><time>2026-05-03T12:18:08.999Z</time></trkpt><trkpt lat="44.126465308343455" lon="12.381034796468404"><ele>11.0</ele><time>2026-05-03T12:18:09.999Z</time></trkpt><trkpt lat="44.12666299087931" lon="12.380738602950109"><ele>11.0</ele><time>2026-05-03T12:18:10.999Z</time></trkpt><trkpt lat="44.12686123222501" lon="12.380444235528852"><ele>11.0</ele><time>2026-05-03T12:18:12Z</time></trkpt><trkpt lat="44.12705841088178" lon="12.380150203644629"><ele>11.0</ele><time>2026-05-03T12:18:13Z</time></trkpt><trkpt lat="44.127256582722026" lon="12.379859269871613"><ele>11.5</ele><time>2026-05-03T12:18:14Z</time></trkpt><trkpt lat="44.12745263321927" lon="12.379567466094471"><ele>12.0</ele><time>2026-05-03T12:18:15Z</time></trkpt><trkpt lat="44.12764740180396" lon="12.379277523398423"><ele>12.0</ele><time>2026-05-03T12:18:16Z</time></trkpt><trkpt lat="44.12784422708133" lon="12.378987753118205"><ele>12.0</ele><time>2026-05-03T12:18:17Z</time></trkpt><trkpt lat="44.12803626893111" lon="12.378700293364309"><ele>12.5</ele><time>2026-05-03T12:18:18Z</time></trkpt><trkpt lat="44.128228155660246" lon="12.378412800398515"><ele>13.0</ele><time>2026-05-03T12:18:19Z</time></trkpt><trkpt lat="44.12842205530027" lon="12.378121494935012"><ele>12.5</ele><time>2026-05-03T12:18:20Z</time></trkpt><trkpt lat="44.12861293870587" lon="12.377832487814787"><ele>12.0</ele><time>2026-05-03T12:18:21Z</time></trkpt><trkpt lat="44.1288036079899" lon="12.377544445246334"><ele>12.0</ele><time>2026-05-03T12:18:22Z</time></trkpt><trkpt lat="44.128996277693886" lon="12.377259005347387"><ele>12.0</ele><time>2026-05-03T12:18:23Z</time></trkpt><trkpt lat="44.12918917810929" lon="12.376972306201377"><ele>13.0</ele><time>2026-05-03T12:18:24Z</time></trkpt><trkpt lat="44.129380460438874" lon="12.376689053282858"><ele>14.0</ele><time>2026-05-03T12:18:25Z</time></trkpt><trkpt lat="44.129573102863404" lon="12.376403157020453"><ele>14.0</ele><time>2026-05-03T12:18:26Z</time></trkpt><trkpt lat="44.12976710636916" lon="12.37611612125561"><ele>14.0</ele><time>2026-05-03T12:18:27Z</time></trkpt><trkpt lat="44.12996035453407" lon="12.375828121551594"><ele>14.0</ele><time>2026-05-03T12:18:28Z</time></trkpt><trkpt lat="44.130153052029584" lon="12.375539323845743"><ele>14.0</ele><time>2026-05-03T12:18:29Z</time></trkpt><trkpt lat="44.13034629500542" lon="12.375248072668054"><ele>14.0</ele><time>2026-05-03T12:18:30Z</time></trkpt><trkpt lat="44.13053822292136" lon="12.374960078503445"><ele>14.0</ele><time>2026-05-03T12:18:31Z</time></trkpt><trkpt lat="44.13073204788109" lon="12.374669013060037"><ele>13.0</ele><time>2026-05-03T12:18:32Z</time></trkpt><trkpt lat="44.13092954176795" lon="12.374376965121554"><ele>12.0</ele><time>2026-05-03T12:18:33Z</time></trkpt><trkpt lat="44.13112481273453" lon="12.374079511412432"><ele>12.0</ele><time>2026-05-03T12:18:34Z</time></trkpt><trkpt lat="44.131316714224596" lon="12.373781525751218"><ele>12.0</ele><time>2026-05-03T12:18:35Z</time></trkpt><trkpt lat="44.13150236083129" lon="12.373471801777253"><ele>12.0</ele><time>2026-05-03T12:18:36Z</time></trkpt><trkpt lat="44.13168544807616" lon="12.373159100379866"><ele>12.0</ele><time>2026-05-03T12:18:37Z</time></trkpt><trkpt lat="44.13186411383944" lon="12.37284181426693"><ele>11.5</ele><time>2026-05-03T12:18:38Z</time></trkpt><trkpt lat="44.132039388633935" lon="12.372521378252518"><ele>11.0</ele><time>2026-05-03T12:18:39Z</time></trkpt><trkpt lat="44.13221099902984" lon="12.37219585449827"><ele>11.0</ele><time>2026-05-03T12:18:40Z</time></trkpt><trkpt lat="44.132377796142855" lon="12.37186963695294"><ele>11.0</ele><time>2026-05-03T12:18:41Z</time></trkpt><trkpt lat="44.13253963078079" lon="12.371535736747774"><ele>11.0</ele><time>2026-05-03T12:18:42Z</time></trkpt><trkpt lat="44.13269620001037" lon="12.371200678687238"><ele>11.0</ele><time>2026-05-03T12:18:43Z</time></trkpt><trkpt lat="44.132851308032535" lon="12.370861635627236"><ele>11.0</ele><time>2026-05-03T12:18:44Z</time></trkpt><trkpt lat="44.1330007313384" lon="12.370518657249022"><ele>11.0</ele><time>2026-05-03T12:18:45Z</time></trkpt><trkpt lat="44.13314847973937" lon="12.370176757623476"><ele>11.5</ele><time>2026-05-03T12:18:46Z</time></trkpt><trkpt lat="44.13329467359617" lon="12.369832479054896"><ele>12.0</ele><time>2026-05-03T12:18:47Z</time></trkpt><trkpt lat="44.13343520042397" lon="12.369484292254489"><ele>13.0</ele><time>2026-05-03T12:18:48Z</time></trkpt><trkpt lat="44.133570093812594" lon="12.369131635758347"><ele>14.0</ele><time>2026-05-03T12:18:49Z</time></trkpt><trkpt lat="44.13370112400323" lon="12.368771884816265"><ele>14.0</ele><time>2026-05-03T12:18:50Z</time></trkpt><trkpt lat="44.13382878693274" lon="12.368408537109623"><ele>14.0</ele><time>2026-05-03T12:18:51Z</time></trkpt><trkpt lat="44.13394609294696" lon="12.36804480744475"><ele>12.0</ele><time>2026-05-03T12:18:52Z</time></trkpt><trkpt lat="44.13407205347114" lon="12.367675724075207"><ele>10.0</ele><time>2026-05-03T12:18:53Z</time></trkpt><trkpt lat="44.13418607310002" lon="12.367305810126606"><ele>10.5</ele><time>2026-05-03T12:18:54Z</time></trkpt><trkpt lat="44.134300782884274" lon="12.366931418248138"><ele>11.0</ele><time>2026-05-03T12:18:55Z</time></trkpt><trkpt lat="44.13441892598918" lon="12.36656018127622"><ele>11.0</ele><time>2026-05-03T12:18:56Z</time></trkpt><trkpt lat="44.134542592614174" lon="12.366192139471103"><ele>11.0</ele><time>2026-05-03T12:18:57Z</time></trkpt><trkpt lat="44.13466541876726" lon="12.365819899405636"><ele>11.5</ele><time>2026-05-03T12:18:58Z</time></trkpt><trkpt lat="44.13478394670396" lon="12.365447485599045"><ele>12.0</ele><time>2026-05-03T12:18:59Z</time></trkpt><trkpt lat="44.134899745157014" lon="12.36507249976284"><ele>11.0</ele><time>2026-05-03T12:19:00Z</time></trkpt><trkpt lat="44.13501601992955" lon="12.364694088063153"><ele>10.0</ele><time>2026-05-03T12:19:01Z</time></trkpt><trkpt lat="44.135133194013335" lon="12.364315597201598"><ele>10.0</ele><time>2026-05-03T12:19:02Z</time></trkpt><trkpt lat="44.135250928724" lon="12.363935397855618"><ele>10.0</ele><time>2026-05-03T12:19:03Z</time></trkpt><trkpt lat="44.13536911240316" lon="12.363552018526144"><ele>10.5</ele><time>2026-05-03T12:19:04Z</time></trkpt><trkpt lat="44.13548847115026" lon="12.363166092967662"><ele>11.0</ele><time>2026-05-03T12:19:05Z</time></trkpt><trkpt lat="44.13560790096637" lon="12.362779372966026"><ele>11.0</ele><time>2026-05-03T12:19:06Z</time></trkpt><trkpt lat="44.135728640353214" lon="12.3623899125546"><ele>11.0</ele><time>2026-05-03T12:19:07Z</time></trkpt><trkpt lat="44.13585021050981" lon="12.361997201280937"><ele>11.0</ele><time>2026-05-03T12:19:08Z</time></trkpt><trkpt lat="44.135971442870265" lon="12.361603185851735"><ele>11.0</ele><time>2026-05-03T12:19:09Z</time></trkpt><trkpt lat="44.13609206753142" lon="12.361205959325291"><ele>11.0</ele><time>2026-05-03T12:19:10Z</time></trkpt><trkpt lat="44.136213757853966" lon="12.360805395770058"><ele>11.0</ele><time>2026-05-03T12:19:11Z</time></trkpt><trkpt lat="44.13633671777748" lon="12.360405238661725"><ele>11.0</ele><time>2026-05-03T12:19:12Z</time></trkpt><trkpt lat="44.13645977340499" lon="12.360004187880357"><ele>11.0</ele><time>2026-05-03T12:19:13Z</time></trkpt><trkpt lat="44.136582215185534" lon="12.35960293514729"><ele>11.5</ele><time>2026-05-03T12:19:14Z</time></trkpt><trkpt lat="44.1367039330707" lon="12.359201636986056"><ele>12.0</ele><time>2026-05-03T12:19:15Z</time></trkpt><trkpt lat="44.136825348037085" lon="12.35880090539006"><ele>12.0</ele><time>2026-05-03T12:19:16Z</time></trkpt><trkpt lat="44.13694949772199" lon="12.358400826683352"><ele>12.0</ele><time>2026-05-03T12:19:17Z</time></trkpt><trkpt lat="44.1370733885384" lon="12.358002690675645"><ele>12.0</ele><time>2026-05-03T12:19:18Z</time></trkpt><trkpt lat="44.13719522719187" lon="12.357604607309186"><ele>12.0</ele><time>2026-05-03T12:19:19Z</time></trkpt><trkpt lat="44.13731655847318" lon="12.357207470787923"><ele>11.5</ele><time>2026-05-03T12:19:20Z</time></trkpt><trkpt lat="44.13743700409313" lon="12.356812237094402"><ele>11.0</ele><time>2026-05-03T12:19:21Z</time></trkpt><trkpt lat="44.13755825025859" lon="12.356418057013212"><ele>11.0</ele><time>2026-05-03T12:19:22Z</time></trkpt><trkpt lat="44.13767946281886" lon="12.356025245447656"><ele>11.0</ele><time>2026-05-03T12:19:23Z</time></trkpt><trkpt lat="44.13779971873629" lon="12.355632268058672"><ele>11.0</ele><time>2026-05-03T12:19:24Z</time></trkpt><trkpt lat="44.13791846586852" lon="12.355241847412733"><ele>11.0</ele><time>2026-05-03T12:19:25Z</time></trkpt><trkpt lat="44.13803750269187" lon="12.354847546909689"><ele>12.0</ele><time>2026-05-03T12:19:26Z</time></trkpt><trkpt lat="44.1381560841013" lon="12.354457061822018"><ele>13.0</ele><time>2026-05-03T12:19:27Z</time></trkpt><trkpt lat="44.13827308942594" lon="12.354070662024693"><ele>13.5</ele><time>2026-05-03T12:19:28Z</time></trkpt><trkpt lat="44.13839458589602" lon="12.35367755826435"><ele>14.0</ele><time>2026-05-03T12:19:29Z</time></trkpt><trkpt lat="44.1385163899216" lon="12.353283717929441"><ele>14.0</ele><time>2026-05-03T12:19:30Z</time></trkpt><trkpt lat="44.13863492227662" lon="12.352894509850135"><ele>14.0</ele><time>2026-05-03T12:19:31Z</time></trkpt><trkpt lat="44.13875321765046" lon="12.352505570295847"><ele>13.0</ele><time>2026-05-03T12:19:32Z</time></trkpt><trkpt lat="44.13887120426975" lon="12.352117086641865"><ele>12.0</ele><time>2026-05-03T12:19:33Z</time></trkpt><trkpt lat="44.138991387338244" lon="12.351728986214079"><ele>13.0</ele><time>2026-05-03T12:19:34Z</time></trkpt><trkpt lat="44.13911417243133" lon="12.351341616904918"><ele>14.0</ele><time>2026-05-03T12:19:35Z</time></trkpt><trkpt lat="44.139236053991716" lon="12.350951068953464"><ele>14.0</ele><time>2026-05-03T12:19:36Z</time></trkpt><trkpt lat="44.139356258945895" lon="12.35056173971973"><ele>14.0</ele><time>2026-05-03T12:19:37Z</time></trkpt><trkpt lat="44.139472699279395" lon="12.350182271861476"><ele>13.5</ele><time>2026-05-03T12:19:38Z</time></trkpt><trkpt lat="44.1395872797501" lon="12.349809423044062"><ele>13.0</ele><time>2026-05-03T12:19:39Z</time></trkpt><trkpt lat="44.1397017808092" lon="12.34944129359052"><ele>13.0</ele><time>2026-05-03T12:19:40Z</time></trkpt><trkpt lat="44.13981377481039" lon="12.349076362086194"><ele>13.0</ele><time>2026-05-03T12:19:41Z</time></trkpt><trkpt lat="44.13992339510391" lon="12.348715820905038"><ele>14.0</ele><time>2026-05-03T12:19:42Z</time></trkpt><trkpt lat="44.14003034869348" lon="12.34836123235694"><ele>15.0</ele><time>2026-05-03T12:19:43Z</time></trkpt><trkpt lat="44.14013433904679" lon="12.34801461300766"><ele>15.5</ele><time>2026-05-03T12:19:44Z</time></trkpt><trkpt lat="44.140236977757375" lon="12.347671184628913"><ele>16.0</ele><time>2026-05-03T12:19:45Z</time></trkpt><trkpt lat="44.14033950735337" lon="12.347334154993996"><ele>16.5</ele><time>2026-05-03T12:19:46Z</time></trkpt><trkpt lat="44.140443597342305" lon="12.346995543623603"><ele>17.0</ele><time>2026-05-03T12:19:47Z</time></trkpt><trkpt lat="44.140546075524064" lon="12.346659753151297"><ele>16.5</ele><time>2026-05-03T12:19:48Z</time></trkpt><trkpt lat="44.14064861529976" lon="12.346326630107834"><ele>16.0</ele><time>2026-05-03T12:19:49Z</time></trkpt><trkpt lat="44.14075163460343" lon="12.34599578242592"><ele>15.5</ele><time>2026-05-03T12:19:50Z</time></trkpt><trkpt lat="44.14085367602414" lon="12.345665538578855"><ele>15.0</ele><time>2026-05-03T12:19:51Z</time></trkpt><trkpt lat="44.14095506336685" lon="12.345332874007536"><ele>14.5</ele><time>2026-05-03T12:19:52Z</time></trkpt><trkpt lat="44.141055106006995" lon="12.345002819761113"><ele>14.0</ele><time>2026-05-03T12:19:53Z</time></trkpt><trkpt lat="44.14115494481737" lon="12.344675057450996"><ele>14.0</ele><time>2026-05-03T12:19:53.999Z</time></trkpt><trkpt lat="44.14125419080084" lon="12.34434937802363"><ele>14.0</ele><time>2026-05-03T12:19:54.999Z</time></trkpt><trkpt lat="44.14135403956973" lon="12.344024396539687"><ele>14.0</ele><time>2026-05-03T12:19:55.999Z</time></trkpt><trkpt lat="44.1414512977148" lon="12.343701582506757"><ele>14.0</ele><time>2026-05-03T12:19:56.999Z</time></trkpt><trkpt lat="44.141549586673975" lon="12.343379741424604"><ele>14.5</ele><time>2026-05-03T12:19:57.999Z</time></trkpt><trkpt lat="44.14164922430306" lon="12.34305981777931"><ele>15.0</ele><time>2026-05-03T12:19:58.999Z</time></trkpt><trkpt lat="44.14174766790756" lon="12.342740642774693"><ele>16.0</ele><time>2026-05-03T12:19:59.999Z</time></trkpt><trkpt lat="44.14184520865794" lon="12.342420865249434"><ele>17.0</ele><time>2026-05-03T12:20:00.999Z</time></trkpt><trkpt lat="44.14194009010732" lon="12.342100193769953"><ele>17.0</ele><time>2026-05-03T12:20:01.999Z</time></trkpt><trkpt lat="44.14203638664183" lon="12.341779119513939"><ele>17.0</ele><time>2026-05-03T12:20:02.999Z</time></trkpt><trkpt lat="44.1421315265703" lon="12.34145870907962"><ele>16.5</ele><time>2026-05-03T12:20:03.999Z</time></trkpt><trkpt lat="44.142227748630056" lon="12.34113750691049"><ele>16.0</ele><time>2026-05-03T12:20:04.999Z</time></trkpt><trkpt lat="44.14232557527907" lon="12.340815724337713"><ele>15.5</ele><time>2026-05-03T12:20:05.999Z</time></trkpt><trkpt lat="44.14242381777408" lon="12.34049468959298"><ele>15.0</ele><time>2026-05-03T12:20:06.999Z</time></trkpt><trkpt lat="44.142522983374064" lon="12.340171478795092"><ele>15.0</ele><time>2026-05-03T12:20:07.999Z</time></trkpt><trkpt lat="44.1426222106628" lon="12.339842029967704"><ele>15.0</ele><time>2026-05-03T12:20:08.999Z</time></trkpt><trkpt lat="44.14271948605534" lon="12.339507488583124"><ele>15.0</ele><time>2026-05-03T12:20:09.999Z</time></trkpt><trkpt lat="44.14281430581932" lon="12.33916850631837"><ele>15.0</ele><time>2026-05-03T12:20:10.999Z</time></trkpt><trkpt lat="44.142912099413564" lon="12.338827837833044"><ele>15.0</ele><time>2026-05-03T12:20:11.999Z</time></trkpt><trkpt lat="44.143014155513036" lon="12.338485104191868"><ele>15.0</ele><time>2026-05-03T12:20:12.999Z</time></trkpt><trkpt lat="44.143121117544304" lon="12.338140750398054"><ele>16.0</ele><time>2026-05-03T12:20:13.999Z</time></trkpt><trkpt lat="44.14323002856765" lon="12.337788871406968"><ele>17.0</ele><time>2026-05-03T12:20:14.999Z</time></trkpt><trkpt lat="44.14333767176983" lon="12.337434335575889"><ele>17.5</ele><time>2026-05-03T12:20:15.999Z</time></trkpt><trkpt lat="44.143446062896956" lon="12.337079424547207"><ele>18.0</ele><time>2026-05-03T12:20:16.999Z</time></trkpt><trkpt lat="44.1435559846387" lon="12.336721275175684"><ele>17.5</ele><time>2026-05-03T12:20:18Z</time></trkpt><trkpt lat="44.143665777376796" lon="12.336362519989342"><ele>17.0</ele><time>2026-05-03T12:20:19Z</time></trkpt><trkpt lat="44.14377833686957" lon="12.336003807446684"><ele>17.0</ele><time>2026-05-03T12:20:20Z</time></trkpt><trkpt lat="44.1438930011002" lon="12.335642191418412"><ele>17.0</ele><time>2026-05-03T12:20:21Z</time></trkpt><trkpt lat="44.144003939279145" lon="12.335280038936284"><ele>17.5</ele><time>2026-05-03T12:20:22Z</time></trkpt><trkpt lat="44.14411319465617" lon="12.334913865267874"><ele>18.0</ele><time>2026-05-03T12:20:23Z</time></trkpt><trkpt lat="44.1442236543982" lon="12.334547563669462"><ele>18.5</ele><time>2026-05-03T12:20:24Z</time></trkpt><trkpt lat="44.1443347878894" lon="12.334182854814125"><ele>19.0</ele><time>2026-05-03T12:20:25Z</time></trkpt><trkpt lat="44.14444622035665" lon="12.333817134130923"><ele>19.0</ele><time>2026-05-03T12:20:26Z</time></trkpt><trkpt lat="44.14455920943511" lon="12.333449795018003"><ele>19.0</ele><time>2026-05-03T12:20:27Z</time></trkpt><trkpt lat="44.14467239813884" lon="12.333082378125207"><ele>18.0</ele><time>2026-05-03T12:20:28Z</time></trkpt><trkpt lat="44.14478282988141" lon="12.332716338816327"><ele>17.0</ele><time>2026-05-03T12:20:29Z</time></trkpt><trkpt lat="44.14489247605691" lon="12.332347909357939"><ele>17.0</ele><time>2026-05-03T12:20:30Z</time></trkpt><trkpt lat="44.145002765587606" lon="12.331977083943702"><ele>17.0</ele><time>2026-05-03T12:20:31Z</time></trkpt><trkpt lat="44.14511375399394" lon="12.331607237143034"><ele>17.0</ele><time>2026-05-03T12:20:32Z</time></trkpt><trkpt lat="44.14522681926614" lon="12.331237897532544"><ele>17.0</ele><time>2026-05-03T12:20:33Z</time></trkpt><trkpt lat="44.14534101310072" lon="12.330868143003253"><ele>17.5</ele><time>2026-05-03T12:20:34Z</time></trkpt><trkpt lat="44.14545651370357" lon="12.330497320910434"><ele>18.0</ele><time>2026-05-03T12:20:35Z</time></trkpt><trkpt lat="44.14557155606945" lon="12.330124381060847"><ele>18.0</ele><time>2026-05-03T12:20:36Z</time></trkpt><trkpt lat="44.14568790616881" lon="12.329753686976266"><ele>18.0</ele><time>2026-05-03T12:20:37Z</time></trkpt><trkpt lat="44.14580881417771" lon="12.329385956386353"><ele>18.0</ele><time>2026-05-03T12:20:38Z</time></trkpt><trkpt lat="44.14593739596675" lon="12.329025406801076"><ele>18.0</ele><time>2026-05-03T12:20:39Z</time></trkpt><trkpt lat="44.14607322095622" lon="12.328670932428132"><ele>18.0</ele><time>2026-05-03T12:20:40Z</time></trkpt><trkpt lat="44.146208185528295" lon="12.328313362486417"><ele>18.0</ele><time>2026-05-03T12:20:41Z</time></trkpt><trkpt lat="44.1463463941934" lon="12.32795824390188"><ele>17.5</ele><time>2026-05-03T12:20:42Z</time></trkpt><trkpt lat="44.14649210391648" lon="12.327608712058028"><ele>17.0</ele><time>2026-05-03T12:20:43Z</time></trkpt><trkpt lat="44.14664294954072" lon="12.327262424756835"><ele>16.5</ele><time>2026-05-03T12:20:44Z</time></trkpt><trkpt lat="44.14679664378907" lon="12.326920048981869"><ele>16.0</ele><time>2026-05-03T12:20:45Z</time></trkpt><trkpt lat="44.146954875557974" lon="12.32657961055505"><ele>16.5</ele><time>2026-05-03T12:20:46Z</time></trkpt><trkpt lat="44.14711824723218" lon="12.326243585486516"><ele>17.0</ele><time>2026-05-03T12:20:47Z</time></trkpt><trkpt lat="44.14728418418232" lon="12.325907366236118"><ele>16.5</ele><time>2026-05-03T12:20:48Z</time></trkpt><trkpt lat="44.147454886851285" lon="12.325573806698694"><ele>16.0</ele><time>2026-05-03T12:20:49Z</time></trkpt><trkpt lat="44.14762967954168" lon="12.325243447772632"><ele>16.0</ele><time>2026-05-03T12:20:50Z</time></trkpt><trkpt lat="44.14780884055372" lon="12.324915628515106"><ele>16.0</ele><time>2026-05-03T12:20:51Z</time></trkpt><trkpt lat="44.14799303067296" lon="12.324592244115049"><ele>16.5</ele><time>2026-05-03T12:20:52Z</time></trkpt><trkpt lat="44.14818171959614" lon="12.324274136899277"><ele>17.0</ele><time>2026-05-03T12:20:53Z</time></trkpt><trkpt lat="44.148375040555734" lon="12.323962314044111"><ele>17.5</ele><time>2026-05-03T12:20:54Z</time></trkpt><trkpt lat="44.14857374528881" lon="12.323651957904879"><ele>18.0</ele><time>2026-05-03T12:20:55Z</time></trkpt><trkpt lat="44.14877293501213" lon="12.323346852274842"><ele>18.0</ele><time>2026-05-03T12:20:56Z</time></trkpt><trkpt lat="44.148973122290904" lon="12.323046021707702"><ele>18.0</ele><time>2026-05-03T12:20:57Z</time></trkpt><trkpt lat="44.14917750611432" lon="12.322749894660708"><ele>17.5</ele><time>2026-05-03T12:20:58Z</time></trkpt><trkpt lat="44.149384346289054" lon="12.322459641413236"><ele>17.0</ele><time>2026-05-03T12:20:59Z</time></trkpt><trkpt lat="44.149594684865335" lon="12.322179143434582"><ele>17.0</ele><time>2026-05-03T12:21:00Z</time></trkpt><trkpt lat="44.14980817297973" lon="12.321904024192728"><ele>17.0</ele><time>2026-05-03T12:21:01Z</time></trkpt><trkpt lat="44.15002058860247" lon="12.321631124615065"><ele>18.0</ele><time>2026-05-03T12:21:02Z</time></trkpt><trkpt lat="44.15023159381627" lon="12.321358427638444"><ele>19.0</ele><time>2026-05-03T12:21:03Z</time></trkpt><trkpt lat="44.150445307542505" lon="12.321086884031706"><ele>19.0</ele><time>2026-05-03T12:21:04Z</time></trkpt><trkpt lat="44.15065909979191" lon="12.320816746057139"><ele>19.0</ele><time>2026-05-03T12:21:05Z</time></trkpt><trkpt lat="44.15087213800663" lon="12.32054491641924"><ele>18.5</ele><time>2026-05-03T12:21:06Z</time></trkpt><trkpt lat="44.15108449086915" lon="12.320272500726661"><ele>18.0</ele><time>2026-05-03T12:21:07Z</time></trkpt><trkpt lat="44.15129578672013" lon="12.319997331430814"><ele>17.5</ele><time>2026-05-03T12:21:08Z</time></trkpt><trkpt lat="44.15150761621207" lon="12.319722351637337"><ele>17.0</ele><time>2026-05-03T12:21:09Z</time></trkpt><trkpt lat="44.15171954344835" lon="12.319449208633603"><ele>18.5</ele><time>2026-05-03T12:21:10Z</time></trkpt><trkpt lat="44.151934511041325" lon="12.319176326330247"><ele>20.0</ele><time>2026-05-03T12:21:11Z</time></trkpt><trkpt lat="44.15214900692823" lon="12.318905604384378"><ele>19.5</ele><time>2026-05-03T12:21:12Z</time></trkpt><trkpt lat="44.152362986316426" lon="12.31863053506899"><ele>19.0</ele><time>2026-05-03T12:21:13Z</time></trkpt><trkpt lat="44.15257679816635" lon="12.31835107474822"><ele>19.0</ele><time>2026-05-03T12:21:14Z</time></trkpt><trkpt lat="44.152793162155" lon="12.318071274997713"><ele>19.0</ele><time>2026-05-03T12:21:15Z</time></trkpt><trkpt lat="44.153012582577496" lon="12.31779099051119"><ele>19.0</ele><time>2026-05-03T12:21:16Z</time></trkpt><trkpt lat="44.15323136307096" lon="12.317507015273408"><ele>19.0</ele><time>2026-05-03T12:21:17Z</time></trkpt><trkpt lat="44.15345349304838" lon="12.317222204523357"><ele>19.0</ele><time>2026-05-03T12:21:18Z</time></trkpt><trkpt lat="44.15367830825735" lon="12.31693958980021"><ele>19.0</ele><time>2026-05-03T12:21:19Z</time></trkpt><trkpt lat="44.15390699698564" lon="12.316653522064687"><ele>19.0</ele><time>2026-05-03T12:21:20Z</time></trkpt><trkpt lat="44.15413227032545" lon="12.316365877181848"><ele>19.0</ele><time>2026-05-03T12:21:21Z</time></trkpt><trkpt lat="44.15436051360567" lon="12.316078882469977"><ele>19.0</ele><time>2026-05-03T12:21:22Z</time></trkpt><trkpt lat="44.154586608279935" lon="12.315792696622864"><ele>19.0</ele><time>2026-05-03T12:21:23Z</time></trkpt><trkpt lat="44.15481531746816" lon="12.315500576782085"><ele>18.5</ele><time>2026-05-03T12:21:24Z</time></trkpt><trkpt lat="44.1550422957478" lon="12.31520956667875"><ele>18.0</ele><time>2026-05-03T12:21:25Z</time></trkpt><trkpt lat="44.15526619876384" lon="12.314918797284921"><ele>17.5</ele><time>2026-05-03T12:21:26Z</time></trkpt><trkpt lat="44.15549160042379" lon="12.314624715223474"><ele>17.0</ele><time>2026-05-03T12:21:27Z</time></trkpt><trkpt lat="44.155718079568715" lon="12.314333440605788"><ele>17.0</ele><time>2026-05-03T12:21:28Z</time></trkpt><trkpt lat="44.1559446441431" lon="12.314046425573254"><ele>17.0</ele><time>2026-05-03T12:21:29Z</time></trkpt><trkpt lat="44.15617178571494" lon="12.313757622505742"><ele>17.0</ele><time>2026-05-03T12:21:30Z</time></trkpt><trkpt lat="44.15639850681548" lon="12.31346701940069"><ele>17.0</ele><time>2026-05-03T12:21:31Z</time></trkpt><trkpt lat="44.15662059823802" lon="12.313181217907903"><ele>18.0</ele><time>2026-05-03T12:21:32Z</time></trkpt><trkpt lat="44.1568423753638" lon="12.31289737365411"><ele>19.0</ele><time>2026-05-03T12:21:33Z</time></trkpt><trkpt lat="44.15706373288589" lon="12.312613453936148"><ele>19.0</ele><time>2026-05-03T12:21:34Z</time></trkpt><trkpt lat="44.15728322524869" lon="12.312328873916337"><ele>19.0</ele><time>2026-05-03T12:21:35Z</time></trkpt><trkpt lat="44.157499501695675" lon="12.312044466114003"><ele>18.5</ele><time>2026-05-03T12:21:36Z</time></trkpt><trkpt lat="44.157714618184215" lon="12.311753871448138"><ele>18.0</ele><time>2026-05-03T12:21:37Z</time></trkpt><trkpt lat="44.15792059644779" lon="12.311460973656013"><ele>17.5</ele><time>2026-05-03T12:21:38Z</time></trkpt><trkpt lat="44.158113324205836" lon="12.311173869824394"><ele>17.0</ele><time>2026-05-03T12:21:39Z</time></trkpt><trkpt lat="44.158305122923736" lon="12.31088586945348"><ele>17.0</ele><time>2026-05-03T12:21:40Z</time></trkpt><trkpt lat="44.15849297749686" lon="12.310601923790149"><ele>17.0</ele><time>2026-05-03T12:21:41Z</time></trkpt><trkpt lat="44.1586762004898" lon="12.310312717056835"><ele>17.0</ele><time>2026-05-03T12:21:42Z</time></trkpt><trkpt lat="44.158854412328786" lon="12.310020116059325"><ele>17.0</ele><time>2026-05-03T12:21:43Z</time></trkpt><trkpt lat="44.15902625414058" lon="12.309726316034084"><ele>17.0</ele><time>2026-05-03T12:21:44Z</time></trkpt><trkpt lat="44.15919457105137" lon="12.309429698318324"><ele>17.0</ele><time>2026-05-03T12:21:45Z</time></trkpt><trkpt lat="44.15936044748443" lon="12.30913013038109"><ele>16.5</ele><time>2026-05-03T12:21:46Z</time></trkpt><trkpt lat="44.159522756596495" lon="12.308826621676788"><ele>16.0</ele><time>2026-05-03T12:21:47Z</time></trkpt><trkpt lat="44.15968107201772" lon="12.30852064727969"><ele>16.0</ele><time>2026-05-03T12:21:48Z</time></trkpt><trkpt lat="44.15983525028138" lon="12.308211606179347"><ele>16.0</ele><time>2026-05-03T12:21:49Z</time></trkpt><trkpt lat="44.159985595531914" lon="12.30790040218215"><ele>16.0</ele><time>2026-05-03T12:21:50Z</time></trkpt><trkpt lat="44.1601352111487" lon="12.307585902787206"><ele>16.0</ele><time>2026-05-03T12:21:51Z</time></trkpt><trkpt lat="44.16028042030875" lon="12.30726881812317"><ele>16.5</ele><time>2026-05-03T12:21:52Z</time></trkpt><trkpt lat="44.16042072815534" lon="12.306951155235756"><ele>17.0</ele><time>2026-05-03T12:21:53Z</time></trkpt><trkpt lat="44.160554921785874" lon="12.306635308326804"><ele>16.5</ele><time>2026-05-03T12:21:54Z</time></trkpt><trkpt lat="44.160688680507455" lon="12.30632527975086"><ele>16.0</ele><time>2026-05-03T12:21:55Z</time></trkpt><trkpt lat="44.160818303797406" lon="12.30602657919002"><ele>16.0</ele><time>2026-05-03T12:21:56Z</time></trkpt><trkpt lat="44.160939075006766" lon="12.305742618737922"><ele>16.0</ele><time>2026-05-03T12:21:57Z</time></trkpt><trkpt lat="44.16105114230309" lon="12.305474685600666"><ele>15.666666666666666</ele><time>2026-05-03T12:21:58Z</time></trkpt><trkpt lat="44.1611582197746" lon="12.305220139057573"><ele>15.333333333333332</ele><time>2026-05-03T12:21:59Z</time></trkpt><trkpt lat="44.16126127551394" lon="12.30497942713438"><ele>15.0</ele><time>2026-05-03T12:22:00Z</time></trkpt><trkpt lat="44.1613625164343" lon="12.304750526966986"><ele>15.333333333333332</ele><time>2026-05-03T12:22:01Z</time></trkpt><trkpt lat="44.161458086565226" lon="12.304530332088154"><ele>15.666666666666666</ele><time>2026-05-03T12:22:02Z</time></trkpt><trkpt lat="44.161548445372354" lon="12.30431916175341"><ele>16.0</ele><time>2026-05-03T12:22:03Z</time></trkpt><trkpt lat="44.16163317502187" lon="12.304114566700598"><ele>15.666666666666666</ele><time>2026-05-03T12:22:04Z</time></trkpt><trkpt lat="44.1617174765034" lon="12.303908684462243"><ele>15.333333333333332</ele><time>2026-05-03T12:22:05Z</time></trkpt><trkpt lat="44.161802361088746" lon="12.303701919159728"><ele>15.0</ele><time>2026-05-03T12:22:06Z</time></trkpt><trkpt lat="44.16188841899062" lon="12.303496710993858"><ele>15.0</ele><time>2026-05-03T12:22:07Z</time></trkpt><trkpt lat="44.161974011119014" lon="12.3032908927057"><ele>15.0</ele><time>2026-05-03T12:22:08Z</time></trkpt><trkpt lat="44.16206086976812" lon="12.303085444975387"><ele>15.0</ele><time>2026-05-03T12:22:08.999Z</time></trkpt><trkpt lat="44.16214762294616" lon="12.30288188237821"><ele>15.0</ele><time>2026-05-03T12:22:09.999Z</time></trkpt><trkpt lat="44.16223650295308" lon="12.302677874874453"><ele>15.0</ele><time>2026-05-03T12:22:10.999Z</time></trkpt><trkpt lat="44.16232533790999" lon="12.302472067504754"><ele>15.0</ele><time>2026-05-03T12:22:11.999Z</time></trkpt><trkpt lat="44.1624161624798" lon="12.30226263414845"><ele>15.333333333333332</ele><time>2026-05-03T12:22:12.999Z</time></trkpt><trkpt lat="44.16250509680726" lon="12.302048941867303"><ele>15.666666666666666</ele><time>2026-05-03T12:22:13.999Z</time></trkpt><trkpt lat="44.162594524661905" lon="12.301833719444382"><ele>16.0</ele><time>2026-05-03T12:22:14.999Z</time></trkpt><trkpt lat="44.16268372244707" lon="12.301616203603121"><ele>16.333333333333332</ele><time>2026-05-03T12:22:15.999Z</time></trkpt><trkpt lat="44.16277351011251" lon="12.301396917314868"><ele>16.666666666666668</ele><time>2026-05-03T12:22:16.999Z</time></trkpt><trkpt lat="44.162864073799916" lon="12.301174551753387"><ele>17.0</ele><time>2026-05-03T12:22:17.999Z</time></trkpt><trkpt lat="44.16295572832993" lon="12.300949561319387"><ele>17.0</ele><time>2026-05-03T12:22:18.999Z</time></trkpt><trkpt lat="44.16304834831841" lon="12.300722999238188"><ele>17.0</ele><time>2026-05-03T12:22:19.999Z</time></trkpt><trkpt lat="44.16314042379223" lon="12.300496466562828"><ele>17.0</ele><time>2026-05-03T12:22:20.999Z</time></trkpt><trkpt lat="44.163232829801245" lon="12.300269684253923"><ele>17.0</ele><time>2026-05-03T12:22:21.999Z</time></trkpt><trkpt lat="44.163326497193815" lon="12.300041037326721"><ele>17.0</ele><time>2026-05-03T12:22:22.999Z</time></trkpt><trkpt lat="44.16342122033945" lon="12.299811334596066"><ele>17.0</ele><time>2026-05-03T12:22:24Z</time></trkpt><trkpt lat="44.16351570769618" lon="12.299581047876577"><ele>17.333333333333336</ele><time>2026-05-03T12:22:25Z</time></trkpt><trkpt lat="44.16360994230515" lon="12.299352363413933"><ele>17.666666666666668</ele><time>2026-05-03T12:22:26Z</time></trkpt><trkpt lat="44.16370530347705" lon="12.2991247926814"><ele>18.0</ele><time>2026-05-03T12:22:27Z</time></trkpt><trkpt lat="44.16379995283591" lon="12.298895677456711"><ele>18.0</ele><time>2026-05-03T12:22:28Z</time></trkpt><trkpt lat="44.163894109321234" lon="12.298669182193375"><ele>18.0</ele><time>2026-05-03T12:22:29Z</time></trkpt><trkpt lat="44.163986455028386" lon="12.298445242877301"><ele>18.0</ele><time>2026-05-03T12:22:30Z</time></trkpt><trkpt lat="44.164079311178604" lon="12.29822059090544"><ele>17.666666666666668</ele><time>2026-05-03T12:22:31Z</time></trkpt><trkpt lat="44.16416974954304" lon="12.297998209253604"><ele>17.333333333333336</ele><time>2026-05-03T12:22:32Z</time></trkpt><trkpt lat="44.16426050372306" lon="12.297776601275157"><ele>17.0</ele><time>2026-05-03T12:22:33Z</time></trkpt><trkpt lat="44.16435037823049" lon="12.29755620094102"><ele>17.0</ele><time>2026-05-03T12:22:34Z</time></trkpt><trkpt lat="44.16444056745106" lon="12.297335925906864"><ele>17.0</ele><time>2026-05-03T12:22:35Z</time></trkpt><trkpt lat="44.1645301863551" lon="12.29711772505645"><ele>17.0</ele><time>2026-05-03T12:22:36Z</time></trkpt><trkpt lat="44.16461865957967" lon="12.296900359987953"><ele>17.0</ele><time>2026-05-03T12:22:37Z</time></trkpt><trkpt lat="44.16470716386624" lon="12.29668482206985"><ele>17.0</ele><time>2026-05-03T12:22:38Z</time></trkpt><trkpt lat="44.16479669023239" lon="12.296468648396795"><ele>17.0</ele><time>2026-05-03T12:22:39Z</time></trkpt><trkpt lat="44.16488669905715" lon="12.296252671081017"><ele>16.666666666666668</ele><time>2026-05-03T12:22:40Z</time></trkpt><trkpt lat="44.164975118652094" lon="12.29603868159315"><ele>16.333333333333332</ele><time>2026-05-03T12:22:41Z</time></trkpt><trkpt lat="44.165061752705526" lon="12.295825052166771"><ele>16.0</ele><time>2026-05-03T12:22:42Z</time></trkpt><trkpt lat="44.16515081950425" lon="12.295611836868783"><ele>16.333333333333332</ele><time>2026-05-03T12:22:43Z</time></trkpt><trkpt lat="44.16524058437832" lon="12.295398215148033"><ele>16.666666666666668</ele><time>2026-05-03T12:22:44Z</time></trkpt><trkpt lat="44.16532784308574" lon="12.295189759660307"><ele>17.0</ele><time>2026-05-03T12:22:45Z</time></trkpt><trkpt lat="44.165412155181535" lon="12.294985294312095"><ele>17.0</ele><time>2026-05-03T12:22:46Z</time></trkpt><trkpt lat="44.16548345249196" lon="12.294809498036841"><ele>17.0</ele><time>2026-05-03T12:22:47Z</time></trkpt><trkpt lat="44.16555231544806" lon="12.294639635285279"><ele>17.0</ele><time>2026-05-03T12:22:48Z</time></trkpt><trkpt lat="44.16561820187101" lon="12.294479775011633"><ele>17.0</ele><time>2026-05-03T12:22:49Z</time></trkpt><trkpt lat="44.16567991565341" lon="12.294328059859096"><ele>16.75</ele><time>2026-05-03T12:22:50Z</time></trkpt><trkpt lat="44.16574386650293" lon="12.294173310555177"><ele>16.5</ele><time>2026-05-03T12:22:51Z</time></trkpt><trkpt lat="44.1658102899976" lon="12.294012618686798"><ele>16.25</ele><time>2026-05-03T12:22:52Z</time></trkpt><trkpt lat="44.16587814036525" lon="12.293848431745992"><ele>16.0</ele><time>2026-05-03T12:22:53Z</time></trkpt><trkpt lat="44.16594758091131" lon="12.293678442021028"><ele>16.0</ele><time>2026-05-03T12:22:54Z</time></trkpt><trkpt lat="44.16602064644925" lon="12.293499505842505"><ele>16.0</ele><time>2026-05-03T12:22:55Z</time></trkpt><trkpt lat="44.16609463946621" lon="12.293314444935373"><ele>16.0</ele><time>2026-05-03T12:22:56Z</time></trkpt><trkpt lat="44.16617272041154" lon="12.293124360099082"><ele>16.25</ele><time>2026-05-03T12:22:57Z</time></trkpt><trkpt lat="44.166248088766345" lon="12.29293744268875"><ele>16.5</ele><time>2026-05-03T12:22:58Z</time></trkpt><trkpt lat="44.16632269863643" lon="12.292760247503578"><ele>16.75</ele><time>2026-05-03T12:22:59Z</time></trkpt><trkpt lat="44.166394122671406" lon="12.292583434786856"><ele>17.0</ele><time>2026-05-03T12:23:00Z</time></trkpt><trkpt lat="44.16646725038753" lon="12.292402997008956"><ele>17.0</ele><time>2026-05-03T12:23:01Z</time></trkpt><trkpt lat="44.16654074514811" lon="12.292221111114268"><ele>17.0</ele><time>2026-05-03T12:23:02Z</time></trkpt><trkpt lat="44.16661590344333" lon="12.292039428626813"><ele>17.0</ele><time>2026-05-03T12:23:03Z</time></trkpt><trkpt lat="44.16669109042045" lon="12.291855042173182"><ele>17.0</ele><time>2026-05-03T12:23:04Z</time></trkpt><trkpt lat="44.166765777988125" lon="12.29167482400931"><ele>17.0</ele><time>2026-05-03T12:23:05Z</time></trkpt><trkpt lat="44.166836625551305" lon="12.291501170330761"><ele>17.0</ele><time>2026-05-03T12:23:06Z</time></trkpt><trkpt lat="44.16690697035081" lon="12.291327897950236"><ele>17.0</ele><time>2026-05-03T12:23:07Z</time></trkpt><trkpt lat="44.16697994450215" lon="12.291152335138364"><ele>17.0</ele><time>2026-05-03T12:23:08Z</time></trkpt><trkpt lat="44.167053917120725" lon="12.290970599184094"><ele>17.0</ele><time>2026-05-03T12:23:09Z</time></trkpt><trkpt lat="44.16712386292011" lon="12.290781354382915"><ele>17.0</ele><time>2026-05-03T12:23:10Z</time></trkpt><trkpt lat="44.16719635367338" lon="12.29058804933727"><ele>17.0</ele><time>2026-05-03T12:23:11Z</time></trkpt><trkpt lat="44.16727227702265" lon="12.290393954250328"><ele>17.0</ele><time>2026-05-03T12:23:12Z</time></trkpt><trkpt lat="44.16734922177767" lon="12.290194149243563"><ele>17.0</ele><time>2026-05-03T12:23:13Z</time></trkpt><trkpt lat="44.167426263987636" lon="12.289986630442062"><ele>17.0</ele><time>2026-05-03T12:23:14Z</time></trkpt><trkpt lat="44.16750223937726" lon="12.289770108713924"><ele>17.0</ele><time>2026-05-03T12:23:15Z</time></trkpt><trkpt lat="44.16758848240114" lon="12.289544125955207"><ele>17.0</ele><time>2026-05-03T12:23:16Z</time></trkpt><trkpt lat="44.16768275398235" lon="12.289311234603964"><ele>17.333333333333336</ele><time>2026-05-03T12:23:17Z</time></trkpt><trkpt lat="44.16777885928859" lon="12.289068435039463"><ele>17.666666666666668</ele><time>2026-05-03T12:23:18Z</time></trkpt><trkpt lat="44.16788095134623" lon="12.288832660636261"><ele>18.0</ele><time>2026-05-03T12:23:19Z</time></trkpt><trkpt lat="44.167988077678785" lon="12.28857285424679"><ele>18.0</ele><time>2026-05-03T12:23:20Z</time></trkpt><trkpt lat="44.16808848114037" lon="12.288324891255572"><ele>18.0</ele><time>2026-05-03T12:23:21Z</time></trkpt><trkpt lat="44.16818390962901" lon="12.288081302885805"><ele>18.0</ele><time>2026-05-03T12:23:22Z</time></trkpt><trkpt lat="44.1682772555293" lon="12.287831320587014"><ele>18.0</ele><time>2026-05-03T12:23:23Z</time></trkpt><trkpt lat="44.168371118648075" lon="12.287580540810504"><ele>18.0</ele><time>2026-05-03T12:23:24Z</time></trkpt><trkpt lat="44.1684673520936" lon="12.287332017223418"><ele>18.0</ele><time>2026-05-03T12:23:25Z</time></trkpt><trkpt lat="44.16856421664405" lon="12.28708084593495"><ele>18.0</ele><time>2026-05-03T12:23:26Z</time></trkpt><trkpt lat="44.16866264370139" lon="12.286834590158934"><ele>18.0</ele><time>2026-05-03T12:23:27Z</time></trkpt><trkpt lat="44.16876224268555" lon="12.28659717009375"><ele>18.0</ele><time>2026-05-03T12:23:28Z</time></trkpt><trkpt lat="44.16886545696182" lon="12.286364938046916"><ele>18.0</ele><time>2026-05-03T12:23:29Z</time></trkpt><trkpt lat="44.16897479101787" lon="12.286123423201662"><ele>18.0</ele><time>2026-05-03T12:23:30Z</time></trkpt><trkpt lat="44.16908078189698" lon="12.285877016426465"><ele>18.0</ele><time>2026-05-03T12:23:31Z</time></trkpt><trkpt lat="44.16918647999479" lon="12.285631530331266"><ele>18.0</ele><time>2026-05-03T12:23:32Z</time></trkpt><trkpt lat="44.16929133820306" lon="12.285388275566877"><ele>18.0</ele><time>2026-05-03T12:23:33Z</time></trkpt><trkpt lat="44.16939271948974" lon="12.285148076282116"><ele>18.0</ele><time>2026-05-03T12:23:34Z</time></trkpt><trkpt lat="44.16949065664469" lon="12.284906359532705"><ele>18.0</ele><time>2026-05-03T12:23:35Z</time></trkpt><trkpt lat="44.169589753953304" lon="12.284659323769198"><ele>18.0</ele><time>2026-05-03T12:23:36Z</time></trkpt><trkpt lat="44.16969463478539" lon="12.284397851483977"><ele>18.0</ele><time>2026-05-03T12:23:37Z</time></trkpt><trkpt lat="44.169801054550106" lon="12.284144480463477"><ele>18.333333333333332</ele><time>2026-05-03T12:23:38Z</time></trkpt><trkpt lat="44.16988386004073" lon="12.283946974563504"><ele>18.666666666666664</ele><time>2026-05-03T12:23:39Z</time></trkpt><trkpt lat="44.16998034862207" lon="12.283723260188063"><ele>19.0</ele><time>2026-05-03T12:23:40Z</time></trkpt><trkpt lat="44.17008170953464" lon="12.283499832327243"><ele>18.333333333333332</ele><time>2026-05-03T12:23:41Z</time></trkpt><trkpt lat="44.17017356088662" lon="12.283275926296744"><ele>17.666666666666668</ele><time>2026-05-03T12:23:42Z</time></trkpt><trkpt lat="44.170267929113166" lon="12.283054406149859"><ele>17.0</ele><time>2026-05-03T12:23:43Z</time></trkpt><trkpt lat="44.170374246568315" lon="12.28283400402206"><ele>17.0</ele><time>2026-05-03T12:23:44Z</time></trkpt><trkpt lat="44.17048106986322" lon="12.282608358787208"><ele>17.0</ele><time>2026-05-03T12:23:45Z</time></trkpt><trkpt lat="44.17058232444699" lon="12.282371887466788"><ele>17.0</ele><time>2026-05-03T12:23:46Z</time></trkpt><trkpt lat="44.17068016501123" lon="12.282126340633594"><ele>17.0</ele><time>2026-05-03T12:23:47Z</time></trkpt><trkpt lat="44.170776560482295" lon="12.281873625021175"><ele>17.0</ele><time>2026-05-03T12:23:48Z</time></trkpt><trkpt lat="44.17087733600454" lon="12.281623168446387"><ele>17.0</ele><time>2026-05-03T12:23:49Z</time></trkpt><trkpt lat="44.170978692978544" lon="12.281365179531294"><ele>17.0</ele><time>2026-05-03T12:23:50Z</time></trkpt><trkpt lat="44.17107244180433" lon="12.28109610198794"><ele>17.0</ele><time>2026-05-03T12:23:51Z</time></trkpt><trkpt lat="44.171167922818604" lon="12.28082653473883"><ele>17.0</ele><time>2026-05-03T12:23:52Z</time></trkpt><trkpt lat="44.17126813475116" lon="12.280566610639847"><ele>17.0</ele><time>2026-05-03T12:23:53Z</time></trkpt><trkpt lat="44.17137452558224" lon="12.28031564226794"><ele>17.0</ele><time>2026-05-03T12:23:54Z</time></trkpt><trkpt lat="44.171476235654275" lon="12.280062570329124"><ele>17.0</ele><time>2026-05-03T12:23:55Z</time></trkpt><trkpt lat="44.171577141594454" lon="12.279815890449006"><ele>17.0</ele><time>2026-05-03T12:23:56Z</time></trkpt><trkpt lat="44.171675454584026" lon="12.279565155593247"><ele>17.0</ele><time>2026-05-03T12:23:57Z</time></trkpt><trkpt lat="44.17176986448049" lon="12.279315952554105"><ele>17.0</ele><time>2026-05-03T12:23:58Z</time></trkpt><trkpt lat="44.17186309420674" lon="12.279074689773752"><ele>18.333333333333336</ele><time>2026-05-03T12:23:59Z</time></trkpt><trkpt lat="44.171957445071506" lon="12.278835971727837"><ele>19.666666666666668</ele><time>2026-05-03T12:24:00Z</time></trkpt><trkpt lat="44.172055756575084" lon="12.278600476242733"><ele>21.0</ele><time>2026-05-03T12:24:01Z</time></trkpt><trkpt lat="44.172154312396195" lon="12.27835026763048"><ele>21.0</ele><time>2026-05-03T12:24:02Z</time></trkpt><trkpt lat="44.17225470028733" lon="12.278107612826922"><ele>21.0</ele><time>2026-05-03T12:24:03Z</time></trkpt><trkpt lat="44.172354389547785" lon="12.277864679235114"><ele>21.0</ele><time>2026-05-03T12:24:04Z</time></trkpt><trkpt lat="44.172456021224235" lon="12.277616831327641"><ele>20.0</ele><time>2026-05-03T12:24:05Z</time></trkpt><trkpt lat="44.17255574129429" lon="12.277366154791915"><ele>19.0</ele><time>2026-05-03T12:24:06Z</time></trkpt><trkpt lat="44.172657987405174" lon="12.277113606366033"><ele>18.0</ele><time>2026-05-03T12:24:07Z</time></trkpt><trkpt lat="44.17276364825136" lon="12.276864273668949"><ele>18.0</ele><time>2026-05-03T12:24:08Z</time></trkpt><trkpt lat="44.172870916768396" lon="12.27661508869524"><ele>18.0</ele><time>2026-05-03T12:24:09Z</time></trkpt><trkpt lat="44.17297531250254" lon="12.27637329797606"><ele>18.0</ele><time>2026-05-03T12:24:10Z</time></trkpt><trkpt lat="44.17307910623099" lon="12.276139338851902"><ele>17.666666666666668</ele><time>2026-05-03T12:24:11Z</time></trkpt><trkpt lat="44.17318393646844" lon="12.275916082312891"><ele>17.333333333333336</ele><time>2026-05-03T12:24:12Z</time></trkpt><trkpt lat="44.17328337609787" lon="12.275692134510892"><ele>17.0</ele><time>2026-05-03T12:24:13Z</time></trkpt><trkpt lat="44.173378268172414" lon="12.275461868371902"><ele>16.666666666666668</ele><time>2026-05-03T12:24:14Z</time></trkpt><trkpt lat="44.17347228636321" lon="12.275228066503173"><ele>16.333333333333332</ele><time>2026-05-03T12:24:15Z</time></trkpt><trkpt lat="44.17356723005003" lon="12.274995760604583"><ele>16.0</ele><time>2026-05-03T12:24:16Z</time></trkpt><trkpt lat="44.173662169571394" lon="12.274760729108353"><ele>15.666666666666666</ele><time>2026-05-03T12:24:17Z</time></trkpt><trkpt lat="44.17375662254888" lon="12.274521674280226"><ele>15.333333333333332</ele><time>2026-05-03T12:24:18Z</time></trkpt><trkpt lat="44.173852847921744" lon="12.274279259709264"><ele>15.0</ele><time>2026-05-03T12:24:19Z</time></trkpt><trkpt lat="44.17394917743824" lon="12.274033640499525"><ele>15.333333333333332</ele><time>2026-05-03T12:24:20Z</time></trkpt><trkpt lat="44.174053049005614" lon="12.27378250605492"><ele>15.666666666666666</ele><time>2026-05-03T12:24:21Z</time></trkpt><trkpt lat="44.17416061592714" lon="12.273530786650475"><ele>16.0</ele><time>2026-05-03T12:24:22Z</time></trkpt><trkpt lat="44.174271950214944" lon="12.273278795613503"><ele>16.0</ele><time>2026-05-03T12:24:23Z</time></trkpt><trkpt lat="44.17438742424929" lon="12.273023905776096"><ele>16.0</ele><time>2026-05-03T12:24:24Z</time></trkpt><trkpt lat="44.17450694254801" lon="12.272765356477437"><ele>16.0</ele><time>2026-05-03T12:24:25Z</time></trkpt><trkpt lat="44.17463029482396" lon="12.272499032238334"><ele>16.0</ele><time>2026-05-03T12:24:26Z</time></trkpt><trkpt lat="44.17475655991143" lon="12.2722299939671"><ele>16.0</ele><time>2026-05-03T12:24:27Z</time></trkpt><trkpt lat="44.174884513420025" lon="12.271957701364029"><ele>16.0</ele><time>2026-05-03T12:24:28Z</time></trkpt><trkpt lat="44.175016779859384" lon="12.271681677317158"><ele>16.0</ele><time>2026-05-03T12:24:29Z</time></trkpt><trkpt lat="44.17515225330066" lon="12.271403599452293"><ele>16.5</ele><time>2026-05-03T12:24:30Z</time></trkpt><trkpt lat="44.175288710586415" lon="12.271125591457889"><ele>17.0</ele><time>2026-05-03T12:24:31Z</time></trkpt><trkpt lat="44.17542874332174" lon="12.270844594305398"><ele>17.0</ele><time>2026-05-03T12:24:32Z</time></trkpt><trkpt lat="44.175571436707436" lon="12.270559988232014"><ele>17.0</ele><time>2026-05-03T12:24:33Z</time></trkpt><trkpt lat="44.175714714343016" lon="12.270271619025383"><ele>17.5</ele><time>2026-05-03T12:24:34Z</time></trkpt><trkpt lat="44.17585792425412" lon="12.269983226489117"><ele>18.0</ele><time>2026-05-03T12:24:35Z</time></trkpt><trkpt lat="44.17600300505107" lon="12.269696256010883"><ele>18.0</ele><time>2026-05-03T12:24:36Z</time></trkpt><trkpt lat="44.17615064931172" lon="12.26940378688321"><ele>18.0</ele><time>2026-05-03T12:24:37Z</time></trkpt><trkpt lat="44.17629943089132" lon="12.26912837371808"><ele>17.5</ele><time>2026-05-03T12:24:38Z</time></trkpt><trkpt lat="44.17645413715582" lon="12.268843586529934"><ele>17.0</ele><time>2026-05-03T12:24:39Z</time></trkpt><trkpt lat="44.176608919636024" lon="12.268556804734958"><ele>16.5</ele><time>2026-05-03T12:24:40Z</time></trkpt><trkpt lat="44.17676326146947" lon="12.268273374192649"><ele>16.0</ele><time>2026-05-03T12:24:41Z</time></trkpt><trkpt lat="44.17692214689545" lon="12.26798344724492"><ele>17.0</ele><time>2026-05-03T12:24:42Z</time></trkpt><trkpt lat="44.17708439752871" lon="12.267684739039586"><ele>18.0</ele><time>2026-05-03T12:24:43Z</time></trkpt><trkpt lat="44.17725017538145" lon="12.26738410651004"><ele>18.5</ele><time>2026-05-03T12:24:44Z</time></trkpt><trkpt lat="44.17741436010536" lon="12.267079442096911"><ele>19.0</ele><time>2026-05-03T12:24:45Z</time></trkpt><trkpt lat="44.17757767196613" lon="12.266775381692161"><ele>19.0</ele><time>2026-05-03T12:24:46Z</time></trkpt><trkpt lat="44.17774291100934" lon="12.266469016568772"><ele>19.0</ele><time>2026-05-03T12:24:47Z</time></trkpt><trkpt lat="44.17791273776398" lon="12.26616073217297"><ele>18.5</ele><time>2026-05-03T12:24:48Z</time></trkpt><trkpt lat="44.17808283791532" lon="12.2658605894635"><ele>18.0</ele><time>2026-05-03T12:24:49Z</time></trkpt><trkpt lat="44.178252317542764" lon="12.265559022343021"><ele>17.5</ele><time>2026-05-03T12:24:50Z</time></trkpt><trkpt lat="44.17842058842176" lon="12.265258001376294"><ele>17.0</ele><time>2026-05-03T12:24:51Z</time></trkpt><trkpt lat="44.17858825702488" lon="12.264957663285328"><ele>17.0</ele><time>2026-05-03T12:24:52Z</time></trkpt><trkpt lat="44.1787546368102" lon="12.264657670552037"><ele>17.0</ele><time>2026-05-03T12:24:53Z</time></trkpt><trkpt lat="44.17892313326969" lon="12.264359766158918"><ele>17.0</ele><time>2026-05-03T12:24:54Z</time></trkpt><trkpt lat="44.17908755770237" lon="12.264056808035756"><ele>17.0</ele><time>2026-05-03T12:24:55Z</time></trkpt><trkpt lat="44.17925103266781" lon="12.263753559520426"><ele>17.0</ele><time>2026-05-03T12:24:56Z</time></trkpt><trkpt lat="44.17941612582231" lon="12.263448296621029"><ele>17.0</ele><time>2026-05-03T12:24:57Z</time></trkpt><trkpt lat="44.179580659029334" lon="12.263144340665775"><ele>17.0</ele><time>2026-05-03T12:24:58Z</time></trkpt><trkpt lat="44.179744266989736" lon="12.262835710676388"><ele>17.0</ele><time>2026-05-03T12:24:59Z</time></trkpt><trkpt lat="44.17990787473002" lon="12.262525376364408"><ele>18.0</ele><time>2026-05-03T12:25:00Z</time></trkpt><trkpt lat="44.180071273713985" lon="12.26221243997076"><ele>19.0</ele><time>2026-05-03T12:25:01Z</time></trkpt><trkpt lat="44.18023025965498" lon="12.261892475020296"><ele>19.0</ele><time>2026-05-03T12:25:02Z</time></trkpt><trkpt lat="44.18038707321406" lon="12.261569102492528"><ele>19.0</ele><time>2026-05-03T12:25:03Z</time></trkpt><trkpt lat="44.18054037616419" lon="12.261243950185301"><ele>19.5</ele><time>2026-05-03T12:25:04Z</time></trkpt><trkpt lat="44.180694128765765" lon="12.260909452213811"><ele>20.0</ele><time>2026-05-03T12:25:05Z</time></trkpt><trkpt lat="44.18084442229937" lon="12.26057334971121"><ele>20.5</ele><time>2026-05-03T12:25:06Z</time></trkpt><trkpt lat="44.18099133799984" lon="12.260238077785331"><ele>21.0</ele><time>2026-05-03T12:25:07Z</time></trkpt><trkpt lat="44.18113853783441" lon="12.259895295959236"><ele>22.0</ele><time>2026-05-03T12:25:08Z</time></trkpt><trkpt lat="44.1812794192819" lon="12.25955007203057"><ele>23.0</ele><time>2026-05-03T12:25:09Z</time></trkpt><trkpt lat="44.18142014015056" lon="12.259201067307213"><ele>20.5</ele><time>2026-05-03T12:25:10Z</time></trkpt><trkpt lat="44.181560720445" lon="12.25885327996034"><ele>18.0</ele><time>2026-05-03T12:25:11Z</time></trkpt><trkpt lat="44.18169869140804" lon="12.258511415041507"><ele>18.0</ele><time>2026-05-03T12:25:12Z</time></trkpt><trkpt lat="44.18183747023915" lon="12.25817192493271"><ele>18.0</ele><time>2026-05-03T12:25:13Z</time></trkpt><trkpt lat="44.181972054902786" lon="12.257842716052199"><ele>18.0</ele><time>2026-05-03T12:25:14Z</time></trkpt><trkpt lat="44.18210454296813" lon="12.257515891354778"><ele>18.0</ele><time>2026-05-03T12:25:15Z</time></trkpt><trkpt lat="44.18223254805291" lon="12.257197951203251"><ele>18.5</ele><time>2026-05-03T12:25:16Z</time></trkpt><trkpt lat="44.18235920868254" lon="12.256883484704977"><ele>19.0</ele><time>2026-05-03T12:25:17Z</time></trkpt><trkpt lat="44.18248116972317" lon="12.256573145011483"><ele>18.5</ele><time>2026-05-03T12:25:18Z</time></trkpt><trkpt lat="44.18260111302665" lon="12.256266921434506"><ele>18.0</ele><time>2026-05-03T12:25:19Z</time></trkpt><trkpt lat="44.18271973150697" lon="12.255964871140776"><ele>18.0</ele><time>2026-05-03T12:25:20Z</time></trkpt><trkpt lat="44.18284115280089" lon="12.25566198274986"><ele>18.0</ele><time>2026-05-03T12:25:21Z</time></trkpt><trkpt lat="44.18295997659468" lon="12.2553644336751"><ele>18.0</ele><time>2026-05-03T12:25:22Z</time></trkpt><trkpt lat="44.18308029826904" lon="12.255066221983743"><ele>18.0</ele><time>2026-05-03T12:25:23Z</time></trkpt><trkpt lat="44.18320052754864" lon="12.254766932487918"><ele>18.5</ele><time>2026-05-03T12:25:24Z</time></trkpt><trkpt lat="44.183317979691275" lon="12.254469742177388"><ele>19.0</ele><time>2026-05-03T12:25:25Z</time></trkpt><trkpt lat="44.18343598760582" lon="12.254172501284502"><ele>19.0</ele><time>2026-05-03T12:25:26Z</time></trkpt><trkpt lat="44.18355421859574" lon="12.253877409408725"><ele>19.0</ele><time>2026-05-03T12:25:27Z</time></trkpt><trkpt lat="44.18367061068993" lon="12.253583168297304"><ele>19.0</ele><time>2026-05-03T12:25:28Z</time></trkpt><trkpt lat="44.183788488584106" lon="12.253286048460813"><ele>19.0</ele><time>2026-05-03T12:25:29Z</time></trkpt><trkpt lat="44.18390549993972" lon="12.252993935744106"><ele>19.0</ele><time>2026-05-03T12:25:30Z</time></trkpt><trkpt lat="44.184023476339625" lon="12.25270149935854"><ele>19.0</ele><time>2026-05-03T12:25:31Z</time></trkpt><trkpt lat="44.18414303682875" lon="12.252411986455066"><ele>19.5</ele><time>2026-05-03T12:25:32Z</time></trkpt><trkpt lat="44.184260334189425" lon="12.252122640707869"><ele>20.0</ele><time>2026-05-03T12:25:33Z</time></trkpt><trkpt lat="44.18437589723358" lon="12.25183152462499"><ele>20.0</ele><time>2026-05-03T12:25:34Z</time></trkpt><trkpt lat="44.18449013883845" lon="12.251544214723891"><ele>20.0</ele><time>2026-05-03T12:25:35Z</time></trkpt><trkpt lat="44.18460640079281" lon="12.25125705764702"><ele>20.0</ele><time>2026-05-03T12:25:36Z</time></trkpt><trkpt lat="44.18472341070712" lon="12.250971584582363"><ele>20.0</ele><time>2026-05-03T12:25:37Z</time></trkpt><trkpt lat="44.18484716300166" lon="12.250685834134972"><ele>19.5</ele><time>2026-05-03T12:25:38Z</time></trkpt><trkpt lat="44.18497519228205" lon="12.250398754136794"><ele>19.0</ele><time>2026-05-03T12:25:39Z</time></trkpt><trkpt lat="44.18509970509413" lon="12.250104344536831"><ele>19.0</ele><time>2026-05-03T12:25:40Z</time></trkpt><trkpt lat="44.18522471042317" lon="12.249802006520934"><ele>19.0</ele><time>2026-05-03T12:25:41Z</time></trkpt><trkpt lat="44.18534585097169" lon="12.249498917243153"><ele>19.0</ele><time>2026-05-03T12:25:42Z</time></trkpt><trkpt lat="44.185470658708475" lon="12.249190016273195"><ele>19.0</ele><time>2026-05-03T12:25:43Z</time></trkpt><trkpt lat="44.18559304483375" lon="12.24887885729448"><ele>19.5</ele><time>2026-05-03T12:25:44Z</time></trkpt><trkpt lat="44.185717751281395" lon="12.248569212286588"><ele>20.0</ele><time>2026-05-03T12:25:45Z</time></trkpt><trkpt lat="44.185844085001285" lon="12.248258131059757"><ele>20.0</ele><time>2026-05-03T12:25:46Z</time></trkpt><trkpt lat="44.18596777139041" lon="12.247949134550852"><ele>20.0</ele><time>2026-05-03T12:25:47Z</time></trkpt><trkpt lat="44.186091475819836" lon="12.247640156402655"><ele>20.0</ele><time>2026-05-03T12:25:48Z</time></trkpt><trkpt lat="44.18621459184942" lon="12.24733380597961"><ele>20.0</ele><time>2026-05-03T12:25:49Z</time></trkpt><trkpt lat="44.18633668234527" lon="12.247029199145048"><ele>21.0</ele><time>2026-05-03T12:25:50Z</time></trkpt><trkpt lat="44.18645912329039" lon="12.246726960848886"><ele>22.0</ele><time>2026-05-03T12:25:51Z</time></trkpt><trkpt lat="44.18658056725442" lon="12.246426823321475"><ele>22.0</ele><time>2026-05-03T12:25:52Z</time></trkpt><trkpt lat="44.18670142560894" lon="12.246121089600699"><ele>22.0</ele><time>2026-05-03T12:25:53Z</time></trkpt><trkpt lat="44.186822781259195" lon="12.24581894084563"><ele>21.0</ele><time>2026-05-03T12:25:54Z</time></trkpt><trkpt lat="44.18694307579766" lon="12.24551850653627"><ele>20.0</ele><time>2026-05-03T12:25:55Z</time></trkpt><trkpt lat="44.18706257641125" lon="12.24521761759664"><ele>20.0</ele><time>2026-05-03T12:25:56Z</time></trkpt><trkpt lat="44.18718302129071" lon="12.244915778257852"><ele>20.0</ele><time>2026-05-03T12:25:57Z</time></trkpt><trkpt lat="44.1873051571528" lon="12.244614567804906"><ele>21.0</ele><time>2026-05-03T12:25:58Z</time></trkpt><trkpt lat="44.18742439866145" lon="12.244318172979103"><ele>22.0</ele><time>2026-05-03T12:25:59Z</time></trkpt><trkpt lat="44.1875448263348" lon="12.244018469552987"><ele>21.5</ele><time>2026-05-03T12:26:00Z</time></trkpt><trkpt lat="44.187661985855875" lon="12.243722036458871"><ele>21.0</ele><time>2026-05-03T12:26:01Z</time></trkpt><trkpt lat="44.187781843377294" lon="12.243425096996736"><ele>21.5</ele><time>2026-05-03T12:26:02Z</time></trkpt><trkpt lat="44.18790215223456" lon="12.243130088503973"><ele>22.0</ele><time>2026-05-03T12:26:03Z</time></trkpt><trkpt lat="44.18801834274445" lon="12.24283564507194"><ele>22.0</ele><time>2026-05-03T12:26:04Z</time></trkpt><trkpt lat="44.18813785180335" lon="12.242539605295846"><ele>22.0</ele><time>2026-05-03T12:26:05Z</time></trkpt><trkpt lat="44.18825673912919" lon="12.242241709745818"><ele>22.5</ele><time>2026-05-03T12:26:06Z</time></trkpt><trkpt lat="44.18837268214362" lon="12.241942491717413"><ele>23.0</ele><time>2026-05-03T12:26:07Z</time></trkpt><trkpt lat="44.18848932141644" lon="12.241640563296636"><ele>22.0</ele><time>2026-05-03T12:26:08Z</time></trkpt><trkpt lat="44.188599122917914" lon="12.241342603015577"><ele>21.0</ele><time>2026-05-03T12:26:09Z</time></trkpt><trkpt lat="44.18871775807595" lon="12.241028754927932"><ele>21.0</ele><time>2026-05-03T12:26:10Z</time></trkpt><trkpt lat="44.1888360127912" lon="12.240723661728364"><ele>21.0</ele><time>2026-05-03T12:26:11Z</time></trkpt><trkpt lat="44.18895856453285" lon="12.240419044115587"><ele>21.0</ele><time>2026-05-03T12:26:12Z</time></trkpt><trkpt lat="44.189083865005614" lon="12.240109970065951"><ele>21.0</ele><time>2026-05-03T12:26:13Z</time></trkpt><trkpt lat="44.18920957010621" lon="12.239796355766071"><ele>21.5</ele><time>2026-05-03T12:26:14Z</time></trkpt><trkpt lat="44.18933656534521" lon="12.239478366918606"><ele>22.0</ele><time>2026-05-03T12:26:15Z</time></trkpt><trkpt lat="44.18946153268705" lon="12.239164900789476"><ele>22.5</ele><time>2026-05-03T12:26:16Z</time></trkpt><trkpt lat="44.18958688888344" lon="12.238850324027425"><ele>23.0</ele><time>2026-05-03T12:26:17Z</time></trkpt><trkpt lat="44.18971575403633" lon="12.238537166039134"><ele>22.5</ele><time>2026-05-03T12:26:18Z</time></trkpt><trkpt lat="44.18984419249425" lon="12.238224963567065"><ele>22.0</ele><time>2026-05-03T12:26:19Z</time></trkpt><trkpt lat="44.189969853433105" lon="12.237914899401053"><ele>22.0</ele><time>2026-05-03T12:26:20Z</time></trkpt><trkpt lat="44.19009093579119" lon="12.237608588980422"><ele>22.0</ele><time>2026-05-03T12:26:21Z</time></trkpt><trkpt lat="44.190205032423684" lon="12.237302522001304"><ele>22.0</ele><time>2026-05-03T12:26:22Z</time></trkpt><trkpt lat="44.19030954737437" lon="12.23700721207658"><ele>22.0</ele><time>2026-05-03T12:26:23Z</time></trkpt><trkpt lat="44.1904139261912" lon="12.236719164935371"><ele>22.5</ele><time>2026-05-03T12:26:24Z</time></trkpt><trkpt lat="44.19052446924094" lon="12.236434519131638"><ele>23.0</ele><time>2026-05-03T12:26:25Z</time></trkpt><trkpt lat="44.19063711374932" lon="12.236150583987722"><ele>22.5</ele><time>2026-05-03T12:26:26Z</time></trkpt><trkpt lat="44.19075032821524" lon="12.235869501795143"><ele>22.0</ele><time>2026-05-03T12:26:27Z</time></trkpt><trkpt lat="44.19086248586529" lon="12.235590503182628"><ele>21.5</ele><time>2026-05-03T12:26:28Z</time></trkpt><trkpt lat="44.190976708271684" lon="12.235308419275254"><ele>21.0</ele><time>2026-05-03T12:26:29Z</time></trkpt><trkpt lat="44.19109467626179" lon="12.235024458421803"><ele>19.5</ele><time>2026-05-03T12:26:30Z</time></trkpt><trkpt lat="44.191210991047726" lon="12.23473979741214"><ele>18.0</ele><time>2026-05-03T12:26:31Z</time></trkpt><trkpt lat="44.19132723112191" lon="12.234451533152935"><ele>18.0</ele><time>2026-05-03T12:26:32Z</time></trkpt><trkpt lat="44.19144329875001" lon="12.234162455235586"><ele>18.0</ele><time>2026-05-03T12:26:33Z</time></trkpt><trkpt lat="44.19156011175039" lon="12.233870483586655"><ele>18.5</ele><time>2026-05-03T12:26:34Z</time></trkpt><trkpt lat="44.19167890492531" lon="12.233576101580082"><ele>19.0</ele><time>2026-05-03T12:26:35Z</time></trkpt><trkpt lat="44.19179918284954" lon="12.233277746955212"><ele>20.0</ele><time>2026-05-03T12:26:36Z</time></trkpt><trkpt lat="44.191917834667144" lon="12.23297894172022"><ele>21.0</ele><time>2026-05-03T12:26:37Z</time></trkpt><trkpt lat="44.19203565052096" lon="12.232681284009086"><ele>21.0</ele><time>2026-05-03T12:26:38Z</time></trkpt><trkpt lat="44.19215701428596" lon="12.232381454919093"><ele>21.0</ele><time>2026-05-03T12:26:39Z</time></trkpt><trkpt lat="44.19227689906985" lon="12.232079221793356"><ele>21.0</ele><time>2026-05-03T12:26:40Z</time></trkpt><trkpt lat="44.192397305669786" lon="12.231774832798616"><ele>21.0</ele><time>2026-05-03T12:26:41Z</time></trkpt><trkpt lat="44.1925209608928" lon="12.231469383063876"><ele>21.0</ele><time>2026-05-03T12:26:42Z</time></trkpt><trkpt lat="44.192645580802846" lon="12.231172346762545"><ele>21.0</ele><time>2026-05-03T12:26:43Z</time></trkpt><trkpt lat="44.19277517894861" lon="12.230877338230492"><ele>21.5</ele><time>2026-05-03T12:26:44Z</time></trkpt><trkpt lat="44.19290691856794" lon="12.230583056816311"><ele>22.0</ele><time>2026-05-03T12:26:45Z</time></trkpt><trkpt lat="44.19304033085431" lon="12.230289419976538"><ele>22.0</ele><time>2026-05-03T12:26:46Z</time></trkpt><trkpt lat="44.193175301760796" lon="12.229994337548963"><ele>22.0</ele><time>2026-05-03T12:26:47Z</time></trkpt><trkpt lat="44.193309379276734" lon="12.229699284786042"><ele>22.0</ele><time>2026-05-03T12:26:48Z</time></trkpt><trkpt lat="44.19344008541704" lon="12.229404538131158"><ele>22.0</ele><time>2026-05-03T12:26:49Z</time></trkpt><trkpt lat="44.19356987859427" lon="12.229099141686035"><ele>22.0</ele><time>2026-05-03T12:26:50Z</time></trkpt><trkpt lat="44.19369999227122" lon="12.228787371469737"><ele>22.0</ele><time>2026-05-03T12:26:51Z</time></trkpt><trkpt lat="44.193832158017216" lon="12.228471119948615"><ele>22.0</ele><time>2026-05-03T12:26:52Z</time></trkpt><trkpt lat="44.193965281534304" lon="12.228152452877655"><ele>22.0</ele><time>2026-05-03T12:26:53Z</time></trkpt><trkpt lat="44.19409840553463" lon="12.227831125368242"><ele>21.5</ele><time>2026-05-03T12:26:54Z</time></trkpt><trkpt lat="44.194232379148154" lon="12.227512748875036"><ele>21.0</ele><time>2026-05-03T12:26:55Z</time></trkpt><trkpt lat="44.19436868585405" lon="12.227193865924503"><ele>20.5</ele><time>2026-05-03T12:26:56Z</time></trkpt><trkpt lat="44.19450490321394" lon="12.226874924293721"><ele>20.0</ele><time>2026-05-03T12:26:57Z</time></trkpt><trkpt lat="44.19464086515088" lon="12.226554252931708"><ele>20.0</ele><time>2026-05-03T12:26:58Z</time></trkpt><trkpt lat="44.194777641089686" lon="12.226233717571361"><ele>20.0</ele><time>2026-05-03T12:26:59Z</time></trkpt><trkpt lat="44.19491257855891" lon="12.225911952626271"><ele>21.0</ele><time>2026-05-03T12:27:00Z</time></trkpt><trkpt lat="44.19504609970562" lon="12.225591846737313"><ele>22.0</ele><time>2026-05-03T12:27:01Z</time></trkpt><trkpt lat="44.19517929880737" lon="12.225271847819304"><ele>22.0</ele><time>2026-05-03T12:27:02Z</time></trkpt><trkpt lat="44.19531227635403" lon="12.224953962087731"><ele>22.0</ele><time>2026-05-03T12:27:03Z</time></trkpt><trkpt lat="44.19544331968008" lon="12.22463585642465"><ele>22.0</ele><time>2026-05-03T12:27:04Z</time></trkpt><trkpt lat="44.19557475468956" lon="12.224317207715602"><ele>22.0</ele><time>2026-05-03T12:27:05Z</time></trkpt><trkpt lat="44.195708105811796" lon="12.223997999407713"><ele>21.5</ele><time>2026-05-03T12:27:06Z</time></trkpt><trkpt lat="44.19584174980344" lon="12.223681624688309"><ele>21.0</ele><time>2026-05-03T12:27:07Z</time></trkpt><trkpt lat="44.19597750135412" lon="12.223360062670608"><ele>21.0</ele><time>2026-05-03T12:27:08Z</time></trkpt><trkpt lat="44.196111281007504" lon="12.223040403189021"><ele>21.0</ele><time>2026-05-03T12:27:09Z</time></trkpt><trkpt lat="44.196246223631626" lon="12.222717664609489"><ele>21.0</ele><time>2026-05-03T12:27:10Z</time></trkpt><trkpt lat="44.19638197840364" lon="12.222394809520637"><ele>21.0</ele><time>2026-05-03T12:27:11Z</time></trkpt><trkpt lat="44.196518285393275" lon="12.222071181149072"><ele>21.5</ele><time>2026-05-03T12:27:12Z</time></trkpt><trkpt lat="44.19665373629872" lon="12.221745348576595"><ele>22.0</ele><time>2026-05-03T12:27:13Z</time></trkpt><trkpt lat="44.19678899126749" lon="12.221414616358437"><ele>22.5</ele><time>2026-05-03T12:27:14Z</time></trkpt><trkpt lat="44.19692408188864" lon="12.221085221425277"><ele>23.0</ele><time>2026-05-03T12:27:15Z</time></trkpt><trkpt lat="44.197060745611516" lon="12.22075785195654"><ele>23.5</ele><time>2026-05-03T12:27:16Z</time></trkpt><trkpt lat="44.19719953213202" lon="12.220433068759672"><ele>24.0</ele><time>2026-05-03T12:27:17Z</time></trkpt><trkpt lat="44.197338981132354" lon="12.220104761059334"><ele>22.5</ele><time>2026-05-03T12:27:18Z</time></trkpt><trkpt lat="44.19747858942093" lon="12.219775856450072"><ele>21.0</ele><time>2026-05-03T12:27:19Z</time></trkpt><trkpt lat="44.19761658088095" lon="12.219445722992134"><ele>21.0</ele><time>2026-05-03T12:27:20Z</time></trkpt><trkpt lat="44.197753308765876" lon="12.219113231753393"><ele>21.0</ele><time>2026-05-03T12:27:21Z</time></trkpt><trkpt lat="44.19788886289675" lon="12.218780994482522"><ele>20.5</ele><time>2026-05-03T12:27:22Z</time></trkpt><trkpt lat="44.19802378366459" lon="12.21844636282852"><ele>20.0</ele><time>2026-05-03T12:27:23Z</time></trkpt><trkpt lat="44.198158209826666" lon="12.218110227041668"><ele>21.0</ele><time>2026-05-03T12:27:24Z</time></trkpt><trkpt lat="44.19829254386038" lon="12.217776000753151"><ele>22.0</ele><time>2026-05-03T12:27:25Z</time></trkpt><trkpt lat="44.198426189192034" lon="12.217440732521563"><ele>22.0</ele><time>2026-05-03T12:27:26Z</time></trkpt><trkpt lat="44.19855974077182" lon="12.217105301690928"><ele>22.0</ele><time>2026-05-03T12:27:27Z</time></trkpt><trkpt lat="44.19869426907399" lon="12.21676457284286"><ele>21.5</ele><time>2026-05-03T12:27:28Z</time></trkpt><trkpt lat="44.19882551186521" lon="12.216424427495825"><ele>21.0</ele><time>2026-05-03T12:27:29Z</time></trkpt><trkpt lat="44.19895701568171" lon="12.216083781059025"><ele>21.0</ele><time>2026-05-03T12:27:30Z</time></trkpt><trkpt lat="44.199088209793366" lon="12.215742226342089"><ele>21.0</ele><time>2026-05-03T12:27:31Z</time></trkpt><trkpt lat="44.19921818851483" lon="12.215401720364904"><ele>21.0</ele><time>2026-05-03T12:27:32Z</time></trkpt><trkpt lat="44.199349382263286" lon="12.215062331421992"><ele>21.0</ele><time>2026-05-03T12:27:33Z</time></trkpt><trkpt lat="44.19948001482391" lon="12.214722430125637"><ele>20.0</ele><time>2026-05-03T12:27:34Z</time></trkpt><trkpt lat="44.19960899784239" lon="12.214384338058021"><ele>19.0</ele><time>2026-05-03T12:27:35Z</time></trkpt><trkpt lat="44.1997343045601" lon="12.214056995641373"><ele>19.0</ele><time>2026-05-03T12:27:36Z</time></trkpt><trkpt lat="44.19985414671982" lon="12.21374177064517"><ele>19.0</ele><time>2026-05-03T12:27:37Z</time></trkpt><trkpt lat="44.19997107107972" lon="12.21343390927063"><ele>19.5</ele><time>2026-05-03T12:27:38Z</time></trkpt><trkpt lat="44.20008536096494" lon="12.213131483206565"><ele>20.0</ele><time>2026-05-03T12:27:39Z</time></trkpt><trkpt lat="44.20020017954249" lon="12.21283250885309"><ele>20.0</ele><time>2026-05-03T12:27:40Z</time></trkpt><trkpt lat="44.20031660769229" lon="12.212535672657527"><ele>20.0</ele><time>2026-05-03T12:27:41Z</time></trkpt><trkpt lat="44.20043337105852" lon="12.212238462735721"><ele>20.0</ele><time>2026-05-03T12:27:42Z</time></trkpt><trkpt lat="44.20054567020814" lon="12.211933964137657"><ele>20.0</ele><time>2026-05-03T12:27:43Z</time></trkpt><trkpt lat="44.2006545328997" lon="12.211625202102041"><ele>18.5</ele><time>2026-05-03T12:27:44Z</time></trkpt><trkpt lat="44.2007642389558" lon="12.211311847442232"><ele>17.0</ele><time>2026-05-03T12:27:45Z</time></trkpt><trkpt lat="44.200879523448315" lon="12.211000550496998"><ele>17.0</ele><time>2026-05-03T12:27:46Z</time></trkpt><trkpt lat="44.20099718444023" lon="12.210689502855296"><ele>17.0</ele><time>2026-05-03T12:27:47Z</time></trkpt><trkpt lat="44.201114893920966" lon="12.210378164669292"><ele>18.0</ele><time>2026-05-03T12:27:48Z</time></trkpt><trkpt lat="44.20123331893137" lon="12.210068285846331"><ele>19.0</ele><time>2026-05-03T12:27:49Z</time></trkpt><trkpt lat="44.201348180429356" lon="12.209758679433873"><ele>19.0</ele><time>2026-05-03T12:27:50Z</time></trkpt><trkpt lat="44.20146178148197" lon="12.209442944519678"><ele>19.0</ele><time>2026-05-03T12:27:51Z</time></trkpt><trkpt lat="44.201576765452394" lon="12.209126528734247"><ele>18.0</ele><time>2026-05-03T12:27:52Z</time></trkpt><trkpt lat="44.20169689217492" lon="12.208804303703822"><ele>17.0</ele><time>2026-05-03T12:27:53Z</time></trkpt><trkpt lat="44.20182482140653" lon="12.208482633739452"><ele>17.0</ele><time>2026-05-03T12:27:54Z</time></trkpt><trkpt lat="44.2019602763655" lon="12.208161837903523"><ele>17.0</ele><time>2026-05-03T12:27:55Z</time></trkpt><trkpt lat="44.20209982415158" lon="12.207839049365614"><ele>17.0</ele><time>2026-05-03T12:27:56Z</time></trkpt><trkpt lat="44.20223990090665" lon="12.207513375105803"><ele>17.0</ele><time>2026-05-03T12:27:57Z</time></trkpt><trkpt lat="44.20237723233216" lon="12.207181585542108"><ele>17.0</ele><time>2026-05-03T12:27:58Z</time></trkpt><trkpt lat="44.20251041527745" lon="12.206847254510016"><ele>17.0</ele><time>2026-05-03T12:27:59Z</time></trkpt><trkpt lat="44.202639718923805" lon="12.206512312969833"><ele>18.0</ele><time>2026-05-03T12:28:00Z</time></trkpt><trkpt lat="44.20276795165143" lon="12.206176551062018"><ele>19.0</ele><time>2026-05-03T12:28:01Z</time></trkpt><trkpt lat="44.20289616653202" lon="12.205846806281768"><ele>18.5</ele><time>2026-05-03T12:28:02Z</time></trkpt><trkpt lat="44.20302382116296" lon="12.205516132329738"><ele>18.0</ele><time>2026-05-03T12:28:03Z</time></trkpt><trkpt lat="44.20314936069186" lon="12.205183150058707"><ele>18.0</ele><time>2026-05-03T12:28:04Z</time></trkpt><trkpt lat="44.20327277413127" lon="12.204849953393397"><ele>18.0</ele><time>2026-05-03T12:28:05Z</time></trkpt><trkpt lat="44.2033961987403" lon="12.20451468209103"><ele>18.0</ele><time>2026-05-03T12:28:06Z</time></trkpt><trkpt lat="44.20352018397588" lon="12.204181664314351"><ele>18.0</ele><time>2026-05-03T12:28:07Z</time></trkpt><trkpt lat="44.20364498207716" lon="12.203849142671748"><ele>18.0</ele><time>2026-05-03T12:28:08Z</time></trkpt><trkpt lat="44.20376974776179" lon="12.203520065641186"><ele>18.0</ele><time>2026-05-03T12:28:09Z</time></trkpt><trkpt lat="44.20389512330318" lon="12.203193309657937"><ele>18.0</ele><time>2026-05-03T12:28:10Z</time></trkpt><trkpt lat="44.20401814028039" lon="12.202868288917344"><ele>18.0</ele><time>2026-05-03T12:28:11Z</time></trkpt><trkpt lat="44.204142720397506" lon="12.20254490513809"><ele>18.0</ele><time>2026-05-03T12:28:12Z</time></trkpt><trkpt lat="44.20426768584833" lon="12.202223984016298"><ele>18.0</ele><time>2026-05-03T12:28:13Z</time></trkpt><trkpt lat="44.20439221240224" lon="12.201903079722877"><ele>18.0</ele><time>2026-05-03T12:28:14Z</time></trkpt><trkpt lat="44.204514202389326" lon="12.201585094873577"><ele>18.0</ele><time>2026-05-03T12:28:15Z</time></trkpt><trkpt lat="44.20463459927841" lon="12.201269300663826"><ele>17.5</ele><time>2026-05-03T12:28:16Z</time></trkpt><trkpt lat="44.204754107576875" lon="12.200956603688306"><ele>17.0</ele><time>2026-05-03T12:28:17Z</time></trkpt><trkpt lat="44.20487519171233" lon="12.200643555178356"><ele>17.0</ele><time>2026-05-03T12:28:18Z</time></trkpt><trkpt lat="44.20499567020624" lon="12.20032813329807"><ele>17.0</ele><time>2026-05-03T12:28:19Z</time></trkpt><trkpt lat="44.20511766420112" lon="12.200007385511176"><ele>17.5</ele><time>2026-05-03T12:28:20Z</time></trkpt><trkpt lat="44.20524043865921" lon="12.199685505822607"><ele>18.0</ele><time>2026-05-03T12:28:21Z</time></trkpt><trkpt lat="44.20536331625614" lon="12.19936490128108"><ele>18.0</ele><time>2026-05-03T12:28:22Z</time></trkpt><trkpt lat="44.20548593000591" lon="12.19904474498975"><ele>18.0</ele><time>2026-05-03T12:28:23Z</time></trkpt><trkpt lat="44.20560892858565" lon="12.198721868631253"><ele>18.0</ele><time>2026-05-03T12:28:24Z</time></trkpt><trkpt lat="44.20573030983507" lon="12.198395864144455"><ele>18.0</ele><time>2026-05-03T12:28:25Z</time></trkpt><trkpt lat="44.20585017503562" lon="12.198066989340463"><ele>18.0</ele><time>2026-05-03T12:28:26Z</time></trkpt><trkpt lat="44.20597060553881" lon="12.197738351534342"><ele>18.0</ele><time>2026-05-03T12:28:27Z</time></trkpt><trkpt lat="44.206094095364904" lon="12.197410981656775"><ele>18.0</ele><time>2026-05-03T12:28:28Z</time></trkpt><trkpt lat="44.20621893629814" lon="12.19708545969145"><ele>18.0</ele><time>2026-05-03T12:28:29Z</time></trkpt><trkpt lat="44.206343589516585" lon="12.196760574530126"><ele>17.5</ele><time>2026-05-03T12:28:30Z</time></trkpt><trkpt lat="44.20647025690917" lon="12.19643632866493"><ele>17.0</ele><time>2026-05-03T12:28:31Z</time></trkpt><trkpt lat="44.20659774206784" lon="12.196113602427934"><ele>18.5</ele><time>2026-05-03T12:28:32Z</time></trkpt><trkpt lat="44.20672483230931" lon="12.195786891949691"><ele>20.0</ele><time>2026-05-03T12:28:33Z</time></trkpt><trkpt lat="44.206852037237155" lon="12.195459199941439"><ele>20.0</ele><time>2026-05-03T12:28:34Z</time></trkpt><trkpt lat="44.20698114891172" lon="12.195131654713817"><ele>20.0</ele><time>2026-05-03T12:28:35Z</time></trkpt><trkpt lat="44.207109102160224" lon="12.19480390136551"><ele>19.5</ele><time>2026-05-03T12:28:36Z</time></trkpt><trkpt lat="44.207240365600754" lon="12.194475518858763"><ele>19.0</ele><time>2026-05-03T12:28:37Z</time></trkpt><trkpt lat="44.207373727860116" lon="12.194146687638964"><ele>19.0</ele><time>2026-05-03T12:28:38Z</time></trkpt><trkpt lat="44.20750513307897" lon="12.19381515626559"><ele>19.0</ele><time>2026-05-03T12:28:39Z</time></trkpt><trkpt lat="44.20763657801138" lon="12.193481263225417"><ele>18.5</ele><time>2026-05-03T12:28:40Z</time></trkpt><trkpt lat="44.207769202817566" lon="12.193149891526119"><ele>18.0</ele><time>2026-05-03T12:28:41Z</time></trkpt><trkpt lat="44.2079054757993" lon="12.19282228879509"><ele>18.0</ele><time>2026-05-03T12:28:42Z</time></trkpt><trkpt lat="44.208044733995365" lon="12.192496182113064"><ele>18.0</ele><time>2026-05-03T12:28:43Z</time></trkpt><trkpt lat="44.208188108413886" lon="12.192173840524557"><ele>17.5</ele><time>2026-05-03T12:28:44Z</time></trkpt><trkpt lat="44.208335595304206" lon="12.19185346565654"><ele>17.0</ele><time>2026-05-03T12:28:45Z</time></trkpt><trkpt lat="44.20848642494562" lon="12.191534631822286"><ele>17.5</ele><time>2026-05-03T12:28:46Z</time></trkpt><trkpt lat="44.20864141236077" lon="12.19121709905805"><ele>18.0</ele><time>2026-05-03T12:28:47Z</time></trkpt><trkpt lat="44.20880076943697" lon="12.190906826876558"><ele>18.5</ele><time>2026-05-03T12:28:48Z</time></trkpt><trkpt lat="44.20896538780048" lon="12.190603063448187"><ele>19.0</ele><time>2026-05-03T12:28:49Z</time></trkpt><trkpt lat="44.209136384569916" lon="12.190305820264301"><ele>19.0</ele><time>2026-05-03T12:28:50Z</time></trkpt><trkpt lat="44.209310366627456" lon="12.190013790589084"><ele>19.0</ele><time>2026-05-03T12:28:51Z</time></trkpt><trkpt lat="44.2094840997485" lon="12.189728199749018"><ele>18.5</ele><time>2026-05-03T12:28:52Z</time></trkpt><trkpt lat="44.209657741780774" lon="12.189444316019012"><ele>18.0</ele><time>2026-05-03T12:28:53Z</time></trkpt><trkpt lat="44.20983071167214" lon="12.189164720371668"><ele>17.5</ele><time>2026-05-03T12:28:54Z</time></trkpt><trkpt lat="44.21000384850549" lon="12.188886143387807"><ele>17.0</ele><time>2026-05-03T12:28:55Z</time></trkpt><trkpt lat="44.210175574587915" lon="12.18860675747235"><ele>17.0</ele><time>2026-05-03T12:28:56Z</time></trkpt><trkpt lat="44.21034690791216" lon="12.188330891237488"><ele>17.0</ele><time>2026-05-03T12:28:57Z</time></trkpt><trkpt lat="44.21052179685196" lon="12.188055157771773"><ele>17.5</ele><time>2026-05-03T12:28:58Z</time></trkpt><trkpt lat="44.210696896213186" lon="12.187777539824403"><ele>18.0</ele><time>2026-05-03T12:28:59Z</time></trkpt><trkpt lat="44.210872818487495" lon="12.187490599526672"><ele>17.0</ele><time>2026-05-03T12:29:00Z</time></trkpt><trkpt lat="44.21104995543429" lon="12.187203698194974"><ele>16.0</ele><time>2026-05-03T12:29:01Z</time></trkpt><trkpt lat="44.211229653125436" lon="12.186913076648791"><ele>16.0</ele><time>2026-05-03T12:29:02Z</time></trkpt><trkpt lat="44.2114103015689" lon="12.186621822804497"><ele>16.0</ele><time>2026-05-03T12:29:03Z</time></trkpt><trkpt lat="44.21159058145833" lon="12.186329899271321"><ele>16.5</ele><time>2026-05-03T12:29:04Z</time></trkpt><trkpt lat="44.21177088238627" lon="12.186036291816048"><ele>17.0</ele><time>2026-05-03T12:29:05Z</time></trkpt><trkpt lat="44.21195071786793" lon="12.185741193633923"><ele>15.5</ele><time>2026-05-03T12:29:06Z</time></trkpt><trkpt lat="44.212130976157646" lon="12.18544637635797"><ele>14.0</ele><time>2026-05-03T12:29:07Z</time></trkpt><trkpt lat="44.21231152821838" lon="12.185153539195008"><ele>15.5</ele><time>2026-05-03T12:29:08Z</time></trkpt><trkpt lat="44.212490918788006" lon="12.184858933182749"><ele>17.0</ele><time>2026-05-03T12:29:09Z</time></trkpt><trkpt lat="44.21266888315348" lon="12.184566044970175"><ele>17.0</ele><time>2026-05-03T12:29:10Z</time></trkpt><trkpt lat="44.212847233855086" lon="12.184276173598352"><ele>17.0</ele><time>2026-05-03T12:29:11Z</time></trkpt><trkpt lat="44.213023666095694" lon="12.183988309899297"><ele>16.0</ele><time>2026-05-03T12:29:12Z</time></trkpt><trkpt lat="44.21319996109009" lon="12.183702395830384"><ele>15.0</ele><time>2026-05-03T12:29:13Z</time></trkpt><trkpt lat="44.21337743382246" lon="12.183416824543496"><ele>15.5</ele><time>2026-05-03T12:29:14Z</time></trkpt><trkpt lat="44.21355421407735" lon="12.183133406021655"><ele>16.0</ele><time>2026-05-03T12:29:15Z</time></trkpt><trkpt lat="44.213728085421124" lon="12.182852479238841"><ele>16.0</ele><time>2026-05-03T12:29:16Z</time></trkpt><trkpt lat="44.21390135193709" lon="12.182572187941455"><ele>16.0</ele><time>2026-05-03T12:29:17Z</time></trkpt><trkpt lat="44.21407346807731" lon="12.18229187076513"><ele>16.5</ele><time>2026-05-03T12:29:18Z</time></trkpt><trkpt lat="44.214246870771724" lon="12.182013156565791"><ele>17.0</ele><time>2026-05-03T12:29:19Z</time></trkpt><trkpt lat="44.214421594318935" lon="12.181738133974754"><ele>16.5</ele><time>2026-05-03T12:29:20Z</time></trkpt><trkpt lat="44.21459600758696" lon="12.181461985389122"><ele>16.0</ele><time>2026-05-03T12:29:21Z</time></trkpt><trkpt lat="44.214769556175206" lon="12.181190716710564"><ele>16.0</ele><time>2026-05-03T12:29:22Z</time></trkpt><trkpt lat="44.21493593983816" lon="12.180922976249121"><ele>16.0</ele><time>2026-05-03T12:29:23Z</time></trkpt><trkpt lat="44.215096972719856" lon="12.180659458752293"><ele>16.0</ele><time>2026-05-03T12:29:24Z</time></trkpt><trkpt lat="44.215255529758245" lon="12.180399072547482"><ele>16.0</ele><time>2026-05-03T12:29:25Z</time></trkpt><trkpt lat="44.21540942975293" lon="12.180148085765769"><ele>16.0</ele><time>2026-05-03T12:29:26Z</time></trkpt><trkpt lat="44.21555915813387" lon="12.179907318272976"><ele>16.0</ele><time>2026-05-03T12:29:27Z</time></trkpt><trkpt lat="44.21570284164822" lon="12.179677006553662"><ele>16.0</ele><time>2026-05-03T12:29:28Z</time></trkpt><trkpt lat="44.215844402126265" lon="12.179445818793157"><ele>16.0</ele><time>2026-05-03T12:29:29Z</time></trkpt><trkpt lat="44.215985730798195" lon="12.17921648625383"><ele>16.0</ele><time>2026-05-03T12:29:30Z</time></trkpt><trkpt lat="44.21612665049035" lon="12.178987246902208"><ele>16.0</ele><time>2026-05-03T12:29:31Z</time></trkpt><trkpt lat="44.21626538428616" lon="12.178759652648727"><ele>16.0</ele><time>2026-05-03T12:29:32Z</time></trkpt><trkpt lat="44.21640413299741" lon="12.178532282132869"><ele>16.0</ele><time>2026-05-03T12:29:33Z</time></trkpt><trkpt lat="44.216541977036655" lon="12.178308589877748"><ele>16.0</ele><time>2026-05-03T12:29:34Z</time></trkpt><trkpt lat="44.21667789451627" lon="12.178090363776555"><ele>16.333333333333332</ele><time>2026-05-03T12:29:35Z</time></trkpt><trkpt lat="44.21681021530355" lon="12.177877227306976"><ele>16.666666666666668</ele><time>2026-05-03T12:29:36Z</time></trkpt><trkpt lat="44.21693487105502" lon="12.177675366732519"><ele>17.0</ele><time>2026-05-03T12:29:37Z</time></trkpt><trkpt lat="44.21705521462731" lon="12.177480658872907"><ele>16.666666666666668</ele><time>2026-05-03T12:29:38Z</time></trkpt><trkpt lat="44.21717015521488" lon="12.177295366349483"><ele>16.333333333333332</ele><time>2026-05-03T12:29:39Z</time></trkpt><trkpt lat="44.2172809902519" lon="12.177115527411496"><ele>16.0</ele><time>2026-05-03T12:29:40Z</time></trkpt><trkpt lat="44.217386616445346" lon="12.176939975434276"><ele>16.0</ele><time>2026-05-03T12:29:41Z</time></trkpt><trkpt lat="44.21748829517237" lon="12.176775774471006"><ele>16.0</ele><time>2026-05-03T12:29:42Z</time></trkpt><trkpt lat="44.2175865621932" lon="12.17661867377945"><ele>16.0</ele><time>2026-05-03T12:29:43Z</time></trkpt><trkpt lat="44.21768227911403" lon="12.176466899714136"><ele>16.0</ele><time>2026-05-03T12:29:44Z</time></trkpt><trkpt lat="44.217774478289336" lon="12.176320779966504"><ele>16.0</ele><time>2026-05-03T12:29:45Z</time></trkpt><trkpt lat="44.21786260233216" lon="12.17617934699898"><ele>16.0</ele><time>2026-05-03T12:29:46Z</time></trkpt><trkpt lat="44.217946534297965" lon="12.176049929139733"><ele>16.0</ele><time>2026-05-03T12:29:47Z</time></trkpt><trkpt lat="44.218028141339815" lon="12.17593140327993"><ele>16.0</ele><time>2026-05-03T12:29:48Z</time></trkpt><trkpt lat="44.218107195922585" lon="12.175812433246929"><ele>16.0</ele><time>2026-05-03T12:29:49Z</time></trkpt><trkpt lat="44.21818434160244" lon="12.175691776026989"><ele>16.0</ele><time>2026-05-03T12:29:50Z</time></trkpt><trkpt lat="44.218258082093385" lon="12.175573391801311"><ele>16.0</ele><time>2026-05-03T12:29:51Z</time></trkpt><trkpt lat="44.21832617815938" lon="12.175460893915101"><ele>15.833333333333332</ele><time>2026-05-03T12:29:52Z</time></trkpt><trkpt lat="44.2183905065321" lon="12.175358493651629"><ele>15.666666666666666</ele><time>2026-05-03T12:29:53Z</time></trkpt><trkpt lat="44.21845181783942" lon="12.175261516779349"><ele>15.5</ele><time>2026-05-03T12:29:54Z</time></trkpt><trkpt lat="44.21851011206667" lon="12.175172637043213"><ele>15.333333333333332</ele><time>2026-05-03T12:29:55Z</time></trkpt><trkpt lat="44.21856755862246" lon="12.17509301196841"><ele>15.166666666666666</ele><time>2026-05-03T12:29:56Z</time></trkpt><trkpt lat="44.2186287420834" lon="12.175015325450044"><ele>15.0</ele><time>2026-05-03T12:29:57Z</time></trkpt><trkpt lat="44.218692177345865" lon="12.174929524494022"><ele>15.0</ele><time>2026-05-03T12:29:58Z</time></trkpt><trkpt lat="44.21875287273788" lon="12.174835183027218"><ele>15.0</ele><time>2026-05-03T12:29:59Z</time></trkpt><trkpt lat="44.218816329158614" lon="12.174730319538783"><ele>15.0</ele><time>2026-05-03T12:30:00Z</time></trkpt><trkpt lat="44.218883547607454" lon="12.174609553022504"><ele>15.0</ele><time>2026-05-03T12:30:01Z</time></trkpt><trkpt lat="44.21895497964708" lon="12.174479512038141"><ele>15.0</ele><time>2026-05-03T12:30:02Z</time></trkpt><trkpt lat="44.21902933414842" lon="12.174348374444257"><ele>15.0</ele><time>2026-05-03T12:30:03Z</time></trkpt><trkpt lat="44.21910690852992" lon="12.17421610611029"><ele>15.0</ele><time>2026-05-03T12:30:04Z</time></trkpt><trkpt lat="44.21918759644773" lon="12.17408108222068"><ele>15.0</ele><time>2026-05-03T12:30:05Z</time></trkpt><trkpt lat="44.219270377337644" lon="12.173944147233506"><ele>15.0</ele><time>2026-05-03T12:30:06Z</time></trkpt><trkpt lat="44.21935118763335" lon="12.173797141998328"><ele>15.0</ele><time>2026-05-03T12:30:07Z</time></trkpt><trkpt lat="44.21943564342019" lon="12.173646853473294"><ele>15.0</ele><time>2026-05-03T12:30:08Z</time></trkpt><trkpt lat="44.21952330537394" lon="12.173494657323065"><ele>15.0</ele><time>2026-05-03T12:30:09Z</time></trkpt><trkpt lat="44.21961892947089" lon="12.173350081252241"><ele>15.0</ele><time>2026-05-03T12:30:10Z</time></trkpt><trkpt lat="44.21971745083704" lon="12.173205613655943"><ele>15.0</ele><time>2026-05-03T12:30:11Z</time></trkpt><trkpt lat="44.219812296453085" lon="12.173049652959238"><ele>15.0</ele><time>2026-05-03T12:30:12Z</time></trkpt><trkpt lat="44.219910979449175" lon="12.172889967544494"><ele>15.0</ele><time>2026-05-03T12:30:13Z</time></trkpt><trkpt lat="44.22001062396298" lon="12.172727467158616"><ele>14.666666666666668</ele><time>2026-05-03T12:30:14Z</time></trkpt><trkpt lat="44.220113420781004" lon="12.172563679141593"><ele>14.333333333333334</ele><time>2026-05-03T12:30:15Z</time></trkpt><trkpt lat="44.220218387047886" lon="12.172393212062566"><ele>14.0</ele><time>2026-05-03T12:30:16Z</time></trkpt><trkpt lat="44.22032411146249" lon="12.172221192948676"><ele>14.0</ele><time>2026-05-03T12:30:17Z</time></trkpt><trkpt lat="44.22043367188158" lon="12.172042966410865"><ele>14.0</ele><time>2026-05-03T12:30:18Z</time></trkpt><trkpt lat="44.220544464462144" lon="12.171860503160362"><ele>14.0</ele><time>2026-05-03T12:30:19Z</time></trkpt><trkpt lat="44.220658620553145" lon="12.17167025040478"><ele>14.333333333333334</ele><time>2026-05-03T12:30:20Z</time></trkpt><trkpt lat="44.220775202374526" lon="12.171474816728358"><ele>14.666666666666668</ele><time>2026-05-03T12:30:21Z</time></trkpt><trkpt lat="44.22088806440771" lon="12.171276872829308"><ele>15.0</ele><time>2026-05-03T12:30:22Z</time></trkpt><trkpt lat="44.22100147466429" lon="12.171073334701996"><ele>15.0</ele><time>2026-05-03T12:30:23Z</time></trkpt><trkpt lat="44.22111286048087" lon="12.170867888153667"><ele>15.0</ele><time>2026-05-03T12:30:24Z</time></trkpt><trkpt lat="44.22122620482753" lon="12.170657365895158"><ele>15.0</ele><time>2026-05-03T12:30:25Z</time></trkpt><trkpt lat="44.22133580288072" lon="12.170443154683463"><ele>15.0</ele><time>2026-05-03T12:30:26Z</time></trkpt><trkpt lat="44.22144756698249" lon="12.170228163990608"><ele>15.0</ele><time>2026-05-03T12:30:27Z</time></trkpt><trkpt lat="44.221558893868405" lon="12.170006147599175"><ele>15.0</ele><time>2026-05-03T12:30:28Z</time></trkpt><trkpt lat="44.22166946575073" lon="12.169778214096617"><ele>15.333333333333332</ele><time>2026-05-03T12:30:29Z</time></trkpt><trkpt lat="44.22177863337086" lon="12.169547696933478"><ele>15.666666666666666</ele><time>2026-05-03T12:30:30Z</time></trkpt><trkpt lat="44.22188539944895" lon="12.169313988051837"><ele>16.0</ele><time>2026-05-03T12:30:31Z</time></trkpt><trkpt lat="44.221988605593" lon="12.169083444517991"><ele>16.333333333333332</ele><time>2026-05-03T12:30:32Z</time></trkpt><trkpt lat="44.222082968441526" lon="12.168855020250609"><ele>16.666666666666668</ele><time>2026-05-03T12:30:33Z</time></trkpt><trkpt lat="44.22221119340682" lon="12.168597910093466"><ele>17.0</ele><time>2026-05-03T12:30:34Z</time></trkpt><trkpt lat="44.22231318398073" lon="12.168355411140295"><ele>16.333333333333336</ele><time>2026-05-03T12:30:35Z</time></trkpt><trkpt lat="44.222417249627014" lon="12.168102263443375"><ele>15.666666666666668</ele><time>2026-05-03T12:30:36Z</time></trkpt><trkpt lat="44.22252132085104" lon="12.16784396165588"><ele>15.0</ele><time>2026-05-03T12:30:37Z</time></trkpt><trkpt lat="44.22262800951254" lon="12.167589651052843"><ele>14.333333333333332</ele><time>2026-05-03T12:30:38Z</time></trkpt><trkpt lat="44.22274025107344" lon="12.167338416353845"><ele>13.666666666666666</ele><time>2026-05-03T12:30:39Z</time></trkpt><trkpt lat="44.22285103166152" lon="12.167079134290022"><ele>13.0</ele><time>2026-05-03T12:30:40Z</time></trkpt><trkpt lat="44.22295994177336" lon="12.166822004455165"><ele>13.0</ele><time>2026-05-03T12:30:41Z</time></trkpt><trkpt lat="44.22307102976205" lon="12.166563192224375"><ele>13.0</ele><time>2026-05-03T12:30:42Z</time></trkpt><trkpt lat="44.22318496799112" lon="12.166301524087192"><ele>13.0</ele><time>2026-05-03T12:30:43Z</time></trkpt><trkpt lat="44.2232926589498" lon="12.166038285833036"><ele>13.0</ele><time>2026-05-03T12:30:44Z</time></trkpt><trkpt lat="44.22339333673812" lon="12.165777705697295"><ele>13.0</ele><time>2026-05-03T12:30:45Z</time></trkpt><trkpt lat="44.22349982380557" lon="12.165517828394618"><ele>13.0</ele><time>2026-05-03T12:30:46Z</time></trkpt><trkpt lat="44.22360947447862" lon="12.16526407231475"><ele>13.0</ele><time>2026-05-03T12:30:47Z</time></trkpt><trkpt lat="44.22371314502379" lon="12.165011205458528"><ele>13.0</ele><time>2026-05-03T12:30:48Z</time></trkpt><trkpt lat="44.223822342874556" lon="12.16476585747469"><ele>13.0</ele><time>2026-05-03T12:30:49Z</time></trkpt><trkpt lat="44.223927888053026" lon="12.164514293874248"><ele>13.0</ele><time>2026-05-03T12:30:50Z</time></trkpt><trkpt lat="44.22403220354956" lon="12.164269003905785"><ele>13.0</ele><time>2026-05-03T12:30:51Z</time></trkpt><trkpt lat="44.22413613171265" lon="12.164018149771834"><ele>13.0</ele><time>2026-05-03T12:30:52Z</time></trkpt><trkpt lat="44.22423996777828" lon="12.163764389109717"><ele>13.0</ele><time>2026-05-03T12:30:53Z</time></trkpt><trkpt lat="44.22434190288444" lon="12.163515542001118"><ele>13.0</ele><time>2026-05-03T12:30:54Z</time></trkpt><trkpt lat="44.22443887411818" lon="12.163266071539317"><ele>13.0</ele><time>2026-05-03T12:30:55Z</time></trkpt><trkpt lat="44.22453495827861" lon="12.163018214062822"><ele>13.0</ele><time>2026-05-03T12:30:56Z</time></trkpt><trkpt lat="44.22463419203415" lon="12.16278735071714"><ele>13.0</ele><time>2026-05-03T12:30:57Z</time></trkpt><trkpt lat="44.224725585578454" lon="12.16255602893897"><ele>13.0</ele><time>2026-05-03T12:30:58Z</time></trkpt><trkpt lat="44.2248201365988" lon="12.162331038991338"><ele>13.0</ele><time>2026-05-03T12:30:59Z</time></trkpt><trkpt lat="44.22490966115701" lon="12.162115861407672"><ele>13.0</ele><time>2026-05-03T12:31:00Z</time></trkpt><trkpt lat="44.22499996768899" lon="12.161908585152077"><ele>13.0</ele><time>2026-05-03T12:31:01Z</time></trkpt><trkpt lat="44.22509296263329" lon="12.16169615693602"><ele>12.666666666666666</ele><time>2026-05-03T12:31:02Z</time></trkpt><trkpt lat="44.22518389357782" lon="12.161485478450647"><ele>12.333333333333332</ele><time>2026-05-03T12:31:03Z</time></trkpt><trkpt lat="44.22527359128908" lon="12.161273575436034"><ele>12.0</ele><time>2026-05-03T12:31:04Z</time></trkpt><trkpt lat="44.225364656613245" lon="12.161060221212857"><ele>12.0</ele><time>2026-05-03T12:31:05Z</time></trkpt><trkpt lat="44.22545942524221" lon="12.160848309338919"><ele>12.0</ele><time>2026-05-03T12:31:06Z</time></trkpt><trkpt lat="44.22555451412983" lon="12.160630319988021"><ele>12.0</ele><time>2026-05-03T12:31:07Z</time></trkpt><trkpt lat="44.22564923377489" lon="12.160409227746525"><ele>12.0</ele><time>2026-05-03T12:31:08Z</time></trkpt><trkpt lat="44.22574289211265" lon="12.160180729307477"><ele>12.0</ele><time>2026-05-03T12:31:09Z</time></trkpt><trkpt lat="44.22583903045675" lon="12.159949421255279"><ele>12.0</ele><time>2026-05-03T12:31:10Z</time></trkpt><trkpt lat="44.22593903816194" lon="12.159712859011506"><ele>13.0</ele><time>2026-05-03T12:31:11Z</time></trkpt><trkpt lat="44.22603932131929" lon="12.15947631544628"><ele>14.0</ele><time>2026-05-03T12:31:12Z</time></trkpt><trkpt lat="44.22614102912418" lon="12.159236514570301"><ele>15.0</ele><time>2026-05-03T12:31:13Z</time></trkpt><trkpt lat="44.22624184740321" lon="12.158996467848496"><ele>15.0</ele><time>2026-05-03T12:31:14Z</time></trkpt><trkpt lat="44.22634394435799" lon="12.158746760174939"><ele>15.0</ele><time>2026-05-03T12:31:15Z</time></trkpt><trkpt lat="44.2264427650786" lon="12.158506333720396"><ele>15.0</ele><time>2026-05-03T12:31:16Z</time></trkpt><trkpt lat="44.22653480073151" lon="12.158261991141934"><ele>14.666666666666668</ele><time>2026-05-03T12:31:17Z</time></trkpt><trkpt lat="44.22662529602569" lon="12.158021394809417"><ele>14.333333333333334</ele><time>2026-05-03T12:31:18Z</time></trkpt><trkpt lat="44.22670866781408" lon="12.157777511261529"><ele>14.0</ele><time>2026-05-03T12:31:19Z</time></trkpt><trkpt lat="44.22678815127861" lon="12.157529230232745"><ele>14.0</ele><time>2026-05-03T12:31:20Z</time></trkpt><trkpt lat="44.22686708897642" lon="12.157278973715249"><ele>14.0</ele><time>2026-05-03T12:31:21Z</time></trkpt><trkpt lat="44.22694706335727" lon="12.15702405199066"><ele>14.0</ele><time>2026-05-03T12:31:22Z</time></trkpt><trkpt lat="44.22702522519001" lon="12.156759817236734"><ele>14.333333333333334</ele><time>2026-05-03T12:31:23Z</time></trkpt><trkpt lat="44.22710710331026" lon="12.156485519506267"><ele>14.666666666666668</ele><time>2026-05-03T12:31:24Z</time></trkpt><trkpt lat="44.227189856543944" lon="12.156203250470915"><ele>15.0</ele><time>2026-05-03T12:31:25Z</time></trkpt><trkpt lat="44.22727309920222" lon="12.155908082551514"><ele>15.0</ele><time>2026-05-03T12:31:26Z</time></trkpt><trkpt lat="44.227354927706955" lon="12.155608492440303"><ele>15.0</ele><time>2026-05-03T12:31:27Z</time></trkpt><trkpt lat="44.22743161180114" lon="12.155301729852061"><ele>15.0</ele><time>2026-05-03T12:31:28Z</time></trkpt><trkpt lat="44.22750759790706" lon="12.154989287846368"><ele>15.0</ele><time>2026-05-03T12:31:29Z</time></trkpt><trkpt lat="44.22757957017509" lon="12.154673282782799"><ele>14.5</ele><time>2026-05-03T12:31:30Z</time></trkpt><trkpt lat="44.22765207458654" lon="12.154352102342795"><ele>14.0</ele><time>2026-05-03T12:31:31Z</time></trkpt><trkpt lat="44.22772476168741" lon="12.154030550595222"><ele>15.0</ele><time>2026-05-03T12:31:32Z</time></trkpt><trkpt lat="44.227797807623844" lon="12.153705675800293"><ele>16.0</ele><time>2026-05-03T12:31:33Z</time></trkpt><trkpt lat="44.2278710157085" lon="12.153379540283064"><ele>16.0</ele><time>2026-05-03T12:31:34Z</time></trkpt><trkpt lat="44.227944172116366" lon="12.15305414655408"><ele>16.0</ele><time>2026-05-03T12:31:35Z</time></trkpt><trkpt lat="44.22801608592245" lon="12.15272841597871"><ele>16.0</ele><time>2026-05-03T12:31:36Z</time></trkpt><trkpt lat="44.22808513533464" lon="12.152399721842306"><ele>16.0</ele><time>2026-05-03T12:31:37Z</time></trkpt><trkpt lat="44.22815062746895" lon="12.15206885078907"><ele>16.0</ele><time>2026-05-03T12:31:38Z</time></trkpt><trkpt lat="44.22821864985786" lon="12.15174053670037"><ele>16.0</ele><time>2026-05-03T12:31:39Z</time></trkpt><trkpt lat="44.228292722301" lon="12.151403795819874"><ele>16.0</ele><time>2026-05-03T12:31:40Z</time></trkpt><trkpt lat="44.22836473017191" lon="12.151064508568917"><ele>16.0</ele><time>2026-05-03T12:31:41Z</time></trkpt><trkpt lat="44.22844142104684" lon="12.150721590309804"><ele>17.0</ele><time>2026-05-03T12:31:42Z</time></trkpt><trkpt lat="44.22851958574889" lon="12.150372970109236"><ele>18.0</ele><time>2026-05-03T12:31:43Z</time></trkpt><trkpt lat="44.228598409923585" lon="12.150010669153552"><ele>18.5</ele><time>2026-05-03T12:31:44Z</time></trkpt><trkpt lat="44.22868020329363" lon="12.149644802219322"><ele>19.0</ele><time>2026-05-03T12:31:45Z</time></trkpt><trkpt lat="44.22875813774464" lon="12.149279686289928"><ele>17.5</ele><time>2026-05-03T12:31:46Z</time></trkpt><trkpt lat="44.22884402605729" lon="12.148907440974686"><ele>16.0</ele><time>2026-05-03T12:31:47Z</time></trkpt><trkpt lat="44.2289334944761" lon="12.14854797315848"><ele>16.5</ele><time>2026-05-03T12:31:48Z</time></trkpt><trkpt lat="44.22902893338685" lon="12.148182915761728"><ele>17.0</ele><time>2026-05-03T12:31:49Z</time></trkpt><trkpt lat="44.22913406572224" lon="12.147826674513288"><ele>17.0</ele><time>2026-05-03T12:31:50Z</time></trkpt><trkpt lat="44.22924716286393" lon="12.147476100495913"><ele>17.0</ele><time>2026-05-03T12:31:51Z</time></trkpt><trkpt lat="44.22936925448355" lon="12.147132782918678"><ele>16.5</ele><time>2026-05-03T12:31:52Z</time></trkpt><trkpt lat="44.22950068605642" lon="12.146795400518947"><ele>16.0</ele><time>2026-05-03T12:31:53Z</time></trkpt><trkpt lat="44.22963873496473" lon="12.146463972577017"><ele>16.5</ele><time>2026-05-03T12:31:54Z</time></trkpt><trkpt lat="44.22978294780995" lon="12.14614474448939"><ele>17.0</ele><time>2026-05-03T12:31:55Z</time></trkpt><trkpt lat="44.229927875805" lon="12.145821934332352"><ele>16.5</ele><time>2026-05-03T12:31:56Z</time></trkpt><trkpt lat="44.23007643344384" lon="12.145509573404988"><ele>16.0</ele><time>2026-05-03T12:31:57Z</time></trkpt><trkpt lat="44.23023492051868" lon="12.145205664638567"><ele>16.0</ele><time>2026-05-03T12:31:58Z</time></trkpt><trkpt lat="44.230399978363785" lon="12.144916528746448"><ele>16.0</ele><time>2026-05-03T12:31:59Z</time></trkpt><trkpt lat="44.23057046009415" lon="12.144633411627021"><ele>17.0</ele><time>2026-05-03T12:32:00Z</time></trkpt><trkpt lat="44.23073756550764" lon="12.144358493333389"><ele>18.0</ele><time>2026-05-03T12:32:01Z</time></trkpt><trkpt lat="44.230901187372965" lon="12.144088980383437"><ele>18.0</ele><time>2026-05-03T12:32:02Z</time></trkpt><trkpt lat="44.23106313664846" lon="12.143821794688245"><ele>18.0</ele><time>2026-05-03T12:32:03Z</time></trkpt><trkpt lat="44.23122610262673" lon="12.143550336032524"><ele>18.0</ele><time>2026-05-03T12:32:04Z</time></trkpt><trkpt lat="44.231387512998516" lon="12.14328667961855"><ele>18.0</ele><time>2026-05-03T12:32:05Z</time></trkpt><trkpt lat="44.23155075775242" lon="12.143032296046163"><ele>17.5</ele><time>2026-05-03T12:32:06Z</time></trkpt><trkpt lat="44.231714353267016" lon="12.142788235605106"><ele>17.0</ele><time>2026-05-03T12:32:07Z</time></trkpt><trkpt lat="44.23187459077616" lon="12.142546263243409"><ele>17.0</ele><time>2026-05-03T12:32:08Z</time></trkpt><trkpt lat="44.232037305369765" lon="12.142305794799709"><ele>17.0</ele><time>2026-05-03T12:32:09Z</time></trkpt><trkpt lat="44.23219895557576" lon="12.14206855994255"><ele>17.5</ele><time>2026-05-03T12:32:10Z</time></trkpt><trkpt lat="44.23235585126774" lon="12.1418219082622"><ele>18.0</ele><time>2026-05-03T12:32:11Z</time></trkpt><trkpt lat="44.23250958317474" lon="12.141570867910957"><ele>18.0</ele><time>2026-05-03T12:32:12Z</time></trkpt><trkpt lat="44.23266193624432" lon="12.141314770550709"><ele>18.0</ele><time>2026-05-03T12:32:13Z</time></trkpt><trkpt lat="44.23281495957801" lon="12.141059327346127"><ele>18.0</ele><time>2026-05-03T12:32:14Z</time></trkpt><trkpt lat="44.23296814961433" lon="12.140804867172552"><ele>18.0</ele><time>2026-05-03T12:32:15Z</time></trkpt><trkpt lat="44.233122739603566" lon="12.140549767474347"><ele>18.0</ele><time>2026-05-03T12:32:16Z</time></trkpt><trkpt lat="44.233279284785596" lon="12.140296404667412"><ele>18.0</ele><time>2026-05-03T12:32:17Z</time></trkpt><trkpt lat="44.233435609067755" lon="12.14004281476986"><ele>17.5</ele><time>2026-05-03T12:32:18Z</time></trkpt><trkpt lat="44.23358798997535" lon="12.139793087135914"><ele>17.0</ele><time>2026-05-03T12:32:19Z</time></trkpt><trkpt lat="44.2337344666501" lon="12.139551448510757"><ele>17.0</ele><time>2026-05-03T12:32:20Z</time></trkpt><trkpt lat="44.23388126751891" lon="12.139311426215956"><ele>17.0</ele><time>2026-05-03T12:32:21Z</time></trkpt><trkpt lat="44.23402418753904" lon="12.139077618644501"><ele>17.0</ele><time>2026-05-03T12:32:22Z</time></trkpt><trkpt lat="44.2341686378107" lon="12.138844063447891"><ele>17.0</ele><time>2026-05-03T12:32:23Z</time></trkpt><trkpt lat="44.23430228274321" lon="12.138619161004048"><ele>17.0</ele><time>2026-05-03T12:32:24Z</time></trkpt><trkpt lat="44.23443477212137" lon="12.138395690261763"><ele>17.0</ele><time>2026-05-03T12:32:25Z</time></trkpt><trkpt lat="44.234565114905514" lon="12.138173800929374"><ele>17.0</ele><time>2026-05-03T12:32:26Z</time></trkpt><trkpt lat="44.23469696801192" lon="12.137949845251264"><ele>17.0</ele><time>2026-05-03T12:32:27Z</time></trkpt><trkpt lat="44.23483154517329" lon="12.137723760692104"><ele>17.0</ele><time>2026-05-03T12:32:28Z</time></trkpt><trkpt lat="44.23496910930087" lon="12.137497019246895"><ele>17.333333333333336</ele><time>2026-05-03T12:32:29Z</time></trkpt><trkpt lat="44.23510882664815" lon="12.137264132768577"><ele>17.666666666666668</ele><time>2026-05-03T12:32:30Z</time></trkpt><trkpt lat="44.235252862027046" lon="12.137026700808107"><ele>18.0</ele><time>2026-05-03T12:32:31Z</time></trkpt><trkpt lat="44.23539928629236" lon="12.136782864800226"><ele>18.0</ele><time>2026-05-03T12:32:32Z</time></trkpt><trkpt lat="44.23554980488577" lon="12.136531506082529"><ele>18.0</ele><time>2026-05-03T12:32:33Z</time></trkpt><trkpt lat="44.235702166915694" lon="12.13627817071904"><ele>17.5</ele><time>2026-05-03T12:32:34Z</time></trkpt><trkpt lat="44.23585464811362" lon="12.136027780637265"><ele>17.0</ele><time>2026-05-03T12:32:35Z</time></trkpt><trkpt lat="44.23600647878389" lon="12.13577601709735"><ele>17.0</ele><time>2026-05-03T12:32:36Z</time></trkpt><trkpt lat="44.23615630350338" lon="12.135521023661253"><ele>17.0</ele><time>2026-05-03T12:32:37Z</time></trkpt><trkpt lat="44.23630685159635" lon="12.135266554970077"><ele>17.0</ele><time>2026-05-03T12:32:38Z</time></trkpt><trkpt lat="44.23645831956463" lon="12.135014731316511"><ele>17.0</ele><time>2026-05-03T12:32:39Z</time></trkpt><trkpt lat="44.23661196388632" lon="12.134762679320295"><ele>18.0</ele><time>2026-05-03T12:32:40Z</time></trkpt><trkpt lat="44.236766200544466" lon="12.134511806003502"><ele>19.0</ele><time>2026-05-03T12:32:41Z</time></trkpt><trkpt lat="44.23691810636472" lon="12.134259967411621"><ele>18.0</ele><time>2026-05-03T12:32:42Z</time></trkpt><trkpt lat="44.237066333127004" lon="12.134006617982973"><ele>17.0</ele><time>2026-05-03T12:32:43Z</time></trkpt><trkpt lat="44.23721461846993" lon="12.13375441141876"><ele>18.0</ele><time>2026-05-03T12:32:44Z</time></trkpt><trkpt lat="44.23736395677629" lon="12.133504444550335"><ele>19.0</ele><time>2026-05-03T12:32:45Z</time></trkpt><trkpt lat="44.23751527362022" lon="12.133255237262903"><ele>19.5</ele><time>2026-05-03T12:32:46Z</time></trkpt><trkpt lat="44.2376655986427" lon="12.133007186007701"><ele>20.0</ele><time>2026-05-03T12:32:47Z</time></trkpt><trkpt lat="44.237816337399444" lon="12.132750134879288"><ele>20.0</ele><time>2026-05-03T12:32:48Z</time></trkpt><trkpt lat="44.23796497206518" lon="12.132492142873037"><ele>20.0</ele><time>2026-05-03T12:32:49Z</time></trkpt><trkpt lat="44.23811433465655" lon="12.132236738689828"><ele>19.0</ele><time>2026-05-03T12:32:50Z</time></trkpt><trkpt lat="44.23826862835895" lon="12.131982303468655"><ele>18.0</ele><time>2026-05-03T12:32:51Z</time></trkpt><trkpt lat="44.23842349080317" lon="12.131725228585447"><ele>17.5</ele><time>2026-05-03T12:32:52Z</time></trkpt><trkpt lat="44.23858113534119" lon="12.131468569581049"><ele>17.0</ele><time>2026-05-03T12:32:53Z</time></trkpt><trkpt lat="44.23874218649527" lon="12.131215840810999"><ele>17.0</ele><time>2026-05-03T12:32:54Z</time></trkpt><trkpt lat="44.2389053035811" lon="12.130963411787633"><ele>17.0</ele><time>2026-05-03T12:32:55Z</time></trkpt><trkpt lat="44.23906444981347" lon="12.13071142452216"><ele>17.0</ele><time>2026-05-03T12:32:56Z</time></trkpt><trkpt lat="44.239222149827405" lon="12.130456263432835"><ele>17.0</ele><time>2026-05-03T12:32:57Z</time></trkpt><trkpt lat="44.23937746910209" lon="12.13020190610364"><ele>17.0</ele><time>2026-05-03T12:32:58Z</time></trkpt><trkpt lat="44.23953353781688" lon="12.129947602139607"><ele>17.0</ele><time>2026-05-03T12:32:59Z</time></trkpt><trkpt lat="44.23969061068836" lon="12.12969336308228"><ele>17.0</ele><time>2026-05-03T12:33:00Z</time></trkpt><trkpt lat="44.23984578944984" lon="12.129435102998663"><ele>17.0</ele><time>2026-05-03T12:33:01Z</time></trkpt><trkpt lat="44.240005207594905" lon="12.129168105971665"><ele>16.5</ele><time>2026-05-03T12:33:02Z</time></trkpt><trkpt lat="44.24016404623805" lon="12.128906652141852"><ele>16.0</ele><time>2026-05-03T12:33:03Z</time></trkpt><trkpt lat="44.24032539461635" lon="12.128641513388512"><ele>16.0</ele><time>2026-05-03T12:33:04Z</time></trkpt><trkpt lat="44.24048784841587" lon="12.128377904735272"><ele>16.0</ele><time>2026-05-03T12:33:05Z</time></trkpt><trkpt lat="44.24064821079985" lon="12.128113317289777"><ele>16.0</ele><time>2026-05-03T12:33:06Z</time></trkpt><trkpt lat="44.24080918403744" lon="12.127848179622752"><ele>16.0</ele><time>2026-05-03T12:33:07Z</time></trkpt><trkpt lat="44.240969304927106" lon="12.127581062603474"><ele>16.5</ele><time>2026-05-03T12:33:08Z</time></trkpt><trkpt lat="44.241125948181" lon="12.1273133948219"><ele>17.0</ele><time>2026-05-03T12:33:09Z</time></trkpt><trkpt lat="44.24128038015605" lon="12.127039952041939"><ele>17.0</ele><time>2026-05-03T12:33:10Z</time></trkpt><trkpt lat="44.241429975679914" lon="12.126759331129136"><ele>17.0</ele><time>2026-05-03T12:33:11Z</time></trkpt><trkpt lat="44.24157413290781" lon="12.126472087963728"><ele>17.5</ele><time>2026-05-03T12:33:12Z</time></trkpt><trkpt lat="44.241713135711876" lon="12.126178370381728"><ele>18.0</ele><time>2026-05-03T12:33:13Z</time></trkpt><trkpt lat="44.241844942372495" lon="12.125880010238314"><ele>18.0</ele><time>2026-05-03T12:33:14Z</time></trkpt><trkpt lat="44.24196750950419" lon="12.125590344593265"><ele>18.0</ele><time>2026-05-03T12:33:15Z</time></trkpt><trkpt lat="44.24208060377293" lon="12.125313053600092"><ele>18.0</ele><time>2026-05-03T12:33:16Z</time></trkpt><trkpt lat="44.242183156475924" lon="12.125041317427423"><ele>18.0</ele><time>2026-05-03T12:33:17Z</time></trkpt><trkpt lat="44.24227777338472" lon="12.12478162166525"><ele>18.0</ele><time>2026-05-03T12:33:18Z</time></trkpt><trkpt lat="44.242364995506364" lon="12.124535809559104"><ele>18.0</ele><time>2026-05-03T12:33:19Z</time></trkpt><trkpt lat="44.2424458254401" lon="12.124298128828364"><ele>18.0</ele><time>2026-05-03T12:33:20Z</time></trkpt><trkpt lat="44.242522770540845" lon="12.12406484290596"><ele>18.0</ele><time>2026-05-03T12:33:21Z</time></trkpt><trkpt lat="44.24259475340803" lon="12.12382661892973"><ele>18.333333333333332</ele><time>2026-05-03T12:33:22Z</time></trkpt><trkpt lat="44.24266631396302" lon="12.123585063170626"><ele>18.666666666666664</ele><time>2026-05-03T12:33:23Z</time></trkpt><trkpt lat="44.24273781261141" lon="12.123337163390957"><ele>19.0</ele><time>2026-05-03T12:33:24Z</time></trkpt><trkpt lat="44.242811188558825" lon="12.123088668444513"><ele>18.333333333333332</ele><time>2026-05-03T12:33:25Z</time></trkpt><trkpt lat="44.24288616644694" lon="12.122835552885311"><ele>17.666666666666668</ele><time>2026-05-03T12:33:26Z</time></trkpt><trkpt lat="44.24296231617146" lon="12.12257713718931"><ele>17.0</ele><time>2026-05-03T12:33:27Z</time></trkpt><trkpt lat="44.24304090640987" lon="12.122313346891142"><ele>16.666666666666668</ele><time>2026-05-03T12:33:28Z</time></trkpt><trkpt lat="44.24312463999977" lon="12.122037903954562"><ele>16.333333333333332</ele><time>2026-05-03T12:33:29Z</time></trkpt><trkpt lat="44.24321067387404" lon="12.121756506801896"><ele>16.0</ele><time>2026-05-03T12:33:30Z</time></trkpt><trkpt lat="44.24327393934814" lon="12.121525010956319"><ele>16.0</ele><time>2026-05-03T12:33:31Z</time></trkpt><trkpt lat="44.24335122942661" lon="12.121265882454448"><ele>16.0</ele><time>2026-05-03T12:33:32Z</time></trkpt><trkpt lat="44.243422560031696" lon="12.12102098420495"><ele>16.0</ele><time>2026-05-03T12:33:33Z</time></trkpt><trkpt lat="44.24349032497631" lon="12.120783695801205"><ele>15.666666666666666</ele><time>2026-05-03T12:33:34Z</time></trkpt><trkpt lat="44.24355515462456" lon="12.120567090636035"><ele>15.333333333333332</ele><time>2026-05-03T12:33:35Z</time></trkpt><trkpt lat="44.24361612924061" lon="12.120358519072337"><ele>15.0</ele><time>2026-05-03T12:33:36Z</time></trkpt><trkpt lat="44.24367260316089" lon="12.12016044148814"><ele>15.0</ele><time>2026-05-03T12:33:37Z</time></trkpt><trkpt lat="44.24372831514406" lon="12.119968827208682"><ele>15.0</ele><time>2026-05-03T12:33:38Z</time></trkpt><trkpt lat="44.24379175033591" lon="12.119764578380906"><ele>15.0</ele><time>2026-05-03T12:33:39Z</time></trkpt><trkpt lat="44.24385080473972" lon="12.119557400197717"><ele>15.0</ele><time>2026-05-03T12:33:40Z</time></trkpt><trkpt lat="44.243905217872744" lon="12.119355271554282"><ele>15.0</ele><time>2026-05-03T12:33:41Z</time></trkpt><trkpt lat="44.243961683712705" lon="12.119148947047561"><ele>15.0</ele><time>2026-05-03T12:33:42Z</time></trkpt><trkpt lat="44.24401988626215" lon="12.11893676621703"><ele>15.0</ele><time>2026-05-03T12:33:43Z</time></trkpt><trkpt lat="44.24408710795748" lon="12.118727626745262"><ele>15.0</ele><time>2026-05-03T12:33:44Z</time></trkpt><trkpt lat="44.2441495384129" lon="12.118517212125298"><ele>15.0</ele><time>2026-05-03T12:33:45Z</time></trkpt><trkpt lat="44.24420209764835" lon="12.11832452796613"><ele>15.0</ele><time>2026-05-03T12:33:46Z</time></trkpt><trkpt lat="44.24425903768215" lon="12.118142344824598"><ele>15.0</ele><time>2026-05-03T12:33:47Z</time></trkpt><trkpt lat="44.24431137254895" lon="12.117955795317464"><ele>15.0</ele><time>2026-05-03T12:33:48Z</time></trkpt><trkpt lat="44.24436845421888" lon="12.117757196611615"><ele>15.0</ele><time>2026-05-03T12:33:49Z</time></trkpt><trkpt lat="44.24442664423419" lon="12.117554267787881"><ele>15.666666666666668</ele><time>2026-05-03T12:33:50Z</time></trkpt><trkpt lat="44.244489135191024" lon="12.117349349331258"><ele>16.333333333333336</ele><time>2026-05-03T12:33:51Z</time></trkpt><trkpt lat="44.24455229410986" lon="12.117138214171375"><ele>17.0</ele><time>2026-05-03T12:33:52Z</time></trkpt><trkpt lat="44.244604653542794" lon="12.116934427903042"><ele>17.0</ele><time>2026-05-03T12:33:53Z</time></trkpt><trkpt lat="44.24466313999743" lon="12.116748280464392"><ele>17.0</ele><time>2026-05-03T12:33:54Z</time></trkpt><trkpt lat="44.24472138530189" lon="12.116567067149166"><ele>17.0</ele><time>2026-05-03T12:33:55Z</time></trkpt><trkpt lat="44.244773697110595" lon="12.11637505429633"><ele>17.0</ele><time>2026-05-03T12:33:56Z</time></trkpt><trkpt lat="44.24482929154918" lon="12.116174736289068"><ele>16.666666666666668</ele><time>2026-05-03T12:33:57Z</time></trkpt><trkpt lat="44.24489193996826" lon="12.115954462157807"><ele>16.333333333333332</ele><time>2026-05-03T12:33:58Z</time></trkpt><trkpt lat="44.24495525923996" lon="12.115737359109305"><ele>16.0</ele><time>2026-05-03T12:33:59Z</time></trkpt><trkpt lat="44.245023543088216" lon="12.115511648034163"><ele>16.0</ele><time>2026-05-03T12:34:00Z</time></trkpt><trkpt lat="44.24509079456987" lon="12.115285272610162"><ele>16.0</ele><time>2026-05-03T12:34:01Z</time></trkpt><trkpt lat="44.245156977761006" lon="12.115056860741173"><ele>16.0</ele><time>2026-05-03T12:34:02Z</time></trkpt><trkpt lat="44.245226106879066" lon="12.114826985502837"><ele>15.666666666666666</ele><time>2026-05-03T12:34:03Z</time></trkpt><trkpt lat="44.245291652776764" lon="12.114596028020628"><ele>15.333333333333332</ele><time>2026-05-03T12:34:04Z</time></trkpt><trkpt lat="44.245358141891565" lon="12.114366159783412"><ele>15.0</ele><time>2026-05-03T12:34:05Z</time></trkpt><trkpt lat="44.245427073123075" lon="12.114136403290253"><ele>15.0</ele><time>2026-05-03T12:34:06Z</time></trkpt><trkpt lat="44.24549552109354" lon="12.113908584368717"><ele>15.0</ele><time>2026-05-03T12:34:07Z</time></trkpt><trkpt lat="44.24556153863326" lon="12.113674347492275"><ele>15.0</ele><time>2026-05-03T12:34:08Z</time></trkpt><trkpt lat="44.24562674309931" lon="12.113442109995676"><ele>14.666666666666668</ele><time>2026-05-03T12:34:09Z</time></trkpt><trkpt lat="44.245694120355786" lon="12.113207776616896"><ele>14.333333333333334</ele><time>2026-05-03T12:34:10Z</time></trkpt><trkpt lat="44.2457617255978" lon="12.112974930142991"><ele>14.0</ele><time>2026-05-03T12:34:11Z</time></trkpt><trkpt lat="44.245830563166635" lon="12.11273757527364"><ele>14.0</ele><time>2026-05-03T12:34:12Z</time></trkpt><trkpt lat="44.24590039172602" lon="12.112503602836275"><ele>14.0</ele><time>2026-05-03T12:34:13Z</time></trkpt><trkpt lat="44.2459701257955" lon="12.112262086970633"><ele>14.0</ele><time>2026-05-03T12:34:14Z</time></trkpt><trkpt lat="44.2460390819193" lon="12.11202500675675"><ele>14.0</ele><time>2026-05-03T12:34:15Z</time></trkpt><trkpt lat="44.24611027484561" lon="12.111779359060534"><ele>14.0</ele><time>2026-05-03T12:34:16Z</time></trkpt><trkpt lat="44.24618072899966" lon="12.111535049450362"><ele>14.0</ele><time>2026-05-03T12:34:17Z</time></trkpt><trkpt lat="44.24625173950033" lon="12.111287252382333"><ele>14.0</ele><time>2026-05-03T12:34:18Z</time></trkpt><trkpt lat="44.246324786229046" lon="12.111039385913529"><ele>14.0</ele><time>2026-05-03T12:34:19Z</time></trkpt><trkpt lat="44.24639810739843" lon="12.11078545326108"><ele>14.0</ele><time>2026-05-03T12:34:20Z</time></trkpt><trkpt lat="44.24647186676394" lon="12.110528535192534"><ele>14.666666666666668</ele><time>2026-05-03T12:34:21Z</time></trkpt><trkpt lat="44.24654807290216" lon="12.110266551533586"><ele>15.333333333333332</ele><time>2026-05-03T12:34:22Z</time></trkpt><trkpt lat="44.2466222750479" lon="12.110005844889043"><ele>16.0</ele><time>2026-05-03T12:34:23Z</time></trkpt><trkpt lat="44.246704726226476" lon="12.109736907306027"><ele>16.0</ele><time>2026-05-03T12:34:24Z</time></trkpt><trkpt lat="44.246785376929466" lon="12.109455101900002"><ele>16.0</ele><time>2026-05-03T12:34:25Z</time></trkpt><trkpt lat="44.2468648946899" lon="12.109178937667892"><ele>16.0</ele><time>2026-05-03T12:34:26Z</time></trkpt><trkpt lat="44.24694034588245" lon="12.108912872079033"><ele>16.0</ele><time>2026-05-03T12:34:27Z</time></trkpt><trkpt lat="44.24701232815314" lon="12.108664053957646"><ele>16.0</ele><time>2026-05-03T12:34:28Z</time></trkpt><trkpt lat="44.24707933857842" lon="12.108430959838604"><ele>16.0</ele><time>2026-05-03T12:34:29Z</time></trkpt><trkpt lat="44.24714691058723" lon="12.108202400025334"><ele>16.0</ele><time>2026-05-03T12:34:30Z</time></trkpt><trkpt lat="44.24721352392753" lon="12.107974819649222"><ele>16.0</ele><time>2026-05-03T12:34:31Z</time></trkpt><trkpt lat="44.24727595693717" lon="12.10775653084657"><ele>16.0</ele><time>2026-05-03T12:34:32Z</time></trkpt><trkpt lat="44.24734108378416" lon="12.107537049569945"><ele>16.0</ele><time>2026-05-03T12:34:33Z</time></trkpt><trkpt lat="44.24740703057519" lon="12.10731482380365"><ele>16.0</ele><time>2026-05-03T12:34:34Z</time></trkpt><trkpt lat="44.24747246808514" lon="12.107094213670857"><ele>16.0</ele><time>2026-05-03T12:34:35Z</time></trkpt><trkpt lat="44.24753475421319" lon="12.106879338419617"><ele>16.0</ele><time>2026-05-03T12:34:36Z</time></trkpt><trkpt lat="44.24759487800903" lon="12.10667020834067"><ele>16.0</ele><time>2026-05-03T12:34:37Z</time></trkpt><trkpt lat="44.247654945116025" lon="12.106467330769833"><ele>16.0</ele><time>2026-05-03T12:34:38Z</time></trkpt><trkpt lat="44.247710700492156" lon="12.106273907164729"><ele>16.0</ele><time>2026-05-03T12:34:39Z</time></trkpt><trkpt lat="44.24776507661622" lon="12.106085759699932"><ele>16.0</ele><time>2026-05-03T12:34:40Z</time></trkpt><trkpt lat="44.247817426571146" lon="12.105903320139516"><ele>16.0</ele><time>2026-05-03T12:34:41Z</time></trkpt><trkpt lat="44.24786847057636" lon="12.10572542029221"><ele>16.0</ele><time>2026-05-03T12:34:42Z</time></trkpt><trkpt lat="44.24791490933744" lon="12.105563050887062"><ele>16.0</ele><time>2026-05-03T12:34:43Z</time></trkpt><trkpt lat="44.2479621053655" lon="12.105400289152843"><ele>16.0</ele><time>2026-05-03T12:34:44Z</time></trkpt><trkpt lat="44.248011295150455" lon="12.105232168523706"><ele>16.0</ele><time>2026-05-03T12:34:45Z</time></trkpt><trkpt lat="44.24806270631279" lon="12.105057504871302"><ele>16.0</ele><time>2026-05-03T12:34:46Z</time></trkpt><trkpt lat="44.2481133667391" lon="12.104875579673113"><ele>16.0</ele><time>2026-05-03T12:34:47Z</time></trkpt><trkpt lat="44.2481675349182" lon="12.104692617990905"><ele>16.0</ele><time>2026-05-03T12:34:48Z</time></trkpt><trkpt lat="44.248224359195575" lon="12.10450498754881"><ele>16.0</ele><time>2026-05-03T12:34:49Z</time></trkpt><trkpt lat="44.248280092915316" lon="12.104314066953375"><ele>16.0</ele><time>2026-05-03T12:34:50Z</time></trkpt><trkpt lat="44.248330910456104" lon="12.104137846638448"><ele>15.8</ele><time>2026-05-03T12:34:51Z</time></trkpt><trkpt lat="44.24837548223928" lon="12.103983156173289"><ele>15.600000000000001</ele><time>2026-05-03T12:34:52Z</time></trkpt><trkpt lat="44.248411739477696" lon="12.103856506713186"><ele>15.4</ele><time>2026-05-03T12:34:53Z</time></trkpt><trkpt lat="44.24844842291161" lon="12.103731649879975"><ele>15.2</ele><time>2026-05-03T12:34:54Z</time></trkpt><trkpt lat="44.2484824319984" lon="12.103617309989136"><ele>15.0</ele><time>2026-05-03T12:34:55Z</time></trkpt><trkpt lat="44.248514592810096" lon="12.10350845141295"><ele>15.0</ele><time>2026-05-03T12:34:56Z</time></trkpt><trkpt lat="44.24854417403144" lon="12.103411276006009"><ele>15.0</ele><time>2026-05-03T12:34:57Z</time></trkpt><trkpt lat="44.248569205381706" lon="12.103320379764252"><ele>15.0</ele><time>2026-05-03T12:34:58Z</time></trkpt><trkpt lat="44.248616270813145" lon="12.103163326321688"><ele>15.0</ele><time>2026-05-03T12:35:00Z</time></trkpt><trkpt lat="44.248660284779014" lon="12.103011238996373"><ele>15.0</ele><time>2026-05-03T12:35:02Z</time></trkpt><trkpt lat="44.248700787588795" lon="12.1028685137404"><ele>15.0</ele><time>2026-05-03T12:35:04Z</time></trkpt><trkpt lat="44.248735500777194" lon="12.102746965508615"><ele>15.0</ele><time>2026-05-03T12:35:06Z</time></trkpt><trkpt lat="44.24876842168504" lon="12.102630158232335"><ele>15.0</ele><time>2026-05-03T12:35:08Z</time></trkpt><trkpt lat="44.24880104524432" lon="12.102514739407393"><ele>15.0</ele><time>2026-05-03T12:35:10Z</time></trkpt><trkpt lat="44.24883051597151" lon="12.102414816703579"><ele>15.0</ele><time>2026-05-03T12:35:12Z</time></trkpt><trkpt lat="44.248861044891235" lon="12.10231028658343"><ele>15.0</ele><time>2026-05-03T12:35:14Z</time></trkpt><trkpt lat="44.24888937111746" lon="12.102199106171415"><ele>15.0</ele><time>2026-05-03T12:35:16Z</time></trkpt><trkpt lat="44.24891973946428" lon="12.10209179249143"><ele>15.0</ele><time>2026-05-03T12:35:18Z</time></trkpt><trkpt lat="44.2489578879943" lon="12.10195893306886"><ele>15.0</ele><time>2026-05-03T12:35:20Z</time></trkpt><trkpt lat="44.2489962501673" lon="12.101826651236387"><ele>15.0</ele><time>2026-05-03T12:35:22Z</time></trkpt><trkpt lat="44.24902889367087" lon="12.101721109292479"><ele>15.0</ele><time>2026-05-03T12:35:24Z</time></trkpt><trkpt lat="44.24906048520776" lon="12.101629506287393"><ele>15.0</ele><time>2026-05-03T12:35:26Z</time></trkpt><trkpt lat="44.24909475224609" lon="12.101513956812406"><ele>15.2</ele><time>2026-05-03T12:35:28Z</time></trkpt><trkpt lat="44.24913882357226" lon="12.101375207311737"><ele>15.4</ele><time>2026-05-03T12:35:30Z</time></trkpt><trkpt lat="44.24918300012764" lon="12.101221676907087"><ele>15.600000000000001</ele><time>2026-05-03T12:35:32Z</time></trkpt><trkpt lat="44.249230918410426" lon="12.101063392072742"><ele>15.8</ele><time>2026-05-03T12:35:34Z</time></trkpt><trkpt lat="44.24925535160485" lon="12.100978031462493"><ele>16.0</ele><time>2026-05-03T12:35:35Z</time></trkpt><trkpt lat="44.249280917129305" lon="12.100896215082761"><ele>16.0</ele><time>2026-05-03T12:35:36Z</time></trkpt><trkpt lat="44.24930619974828" lon="12.10081067739841"><ele>15.999999999999998</ele><time>2026-05-03T12:35:37Z</time></trkpt><trkpt lat="44.24933020649947" lon="12.100726586712186"><ele>16.0</ele><time>2026-05-03T12:35:38Z</time></trkpt><trkpt lat="44.24935538562312" lon="12.100638599663265"><ele>16.0</ele><time>2026-05-03T12:35:39Z</time></trkpt><trkpt lat="44.24938102975158" lon="12.100550081531377"><ele>15.999999999999998</ele><time>2026-05-03T12:35:40Z</time></trkpt><trkpt lat="44.24940825156079" lon="12.10046156575597"><ele>16.0</ele><time>2026-05-03T12:35:41Z</time></trkpt><trkpt lat="44.24943469140699" lon="12.100370264860913"><ele>16.0</ele><time>2026-05-03T12:35:42Z</time></trkpt><trkpt lat="44.24946065458164" lon="12.100278118002116"><ele>16.0</ele><time>2026-05-03T12:35:43Z</time></trkpt><trkpt lat="44.24948610347649" lon="12.10018955382759"><ele>15.999999999999998</ele><time>2026-05-03T12:35:44Z</time></trkpt><trkpt lat="44.24951140744256" lon="12.100097506560108"><ele>16.0</ele><time>2026-05-03T12:35:45Z</time></trkpt><trkpt lat="44.249539102334424" lon="12.10000258791571"><ele>16.0</ele><time>2026-05-03T12:35:46Z</time></trkpt><trkpt lat="44.24956666407791" lon="12.09990465136657"><ele>15.999999999999998</ele><time>2026-05-03T12:35:47Z</time></trkpt><trkpt lat="44.24959491138423" lon="12.099806655299373"><ele>16.0</ele><time>2026-05-03T12:35:48Z</time></trkpt><trkpt lat="44.24962526646492" lon="12.099701063840149"><ele>16.0</ele><time>2026-05-03T12:35:49Z</time></trkpt><trkpt lat="44.24965781866659" lon="12.09959108974563"><ele>16.0</ele><time>2026-05-03T12:35:50Z</time></trkpt><trkpt lat="44.24969197993162" lon="12.09946976089676"><ele>16.0</ele><time>2026-05-03T12:35:51Z</time></trkpt><trkpt lat="44.24973055587846" lon="12.099335713410591"><ele>16.0</ele><time>2026-05-03T12:35:52Z</time></trkpt><trkpt lat="44.24976803240365" lon="12.099202876308649"><ele>16.0</ele><time>2026-05-03T12:35:53Z</time></trkpt><trkpt lat="44.24980398016065" lon="12.09906742622711"><ele>16.0</ele><time>2026-05-03T12:35:54Z</time></trkpt><trkpt lat="44.249844739410264" lon="12.098933387560354"><ele>15.200000000000001</ele><time>2026-05-03T12:35:55Z</time></trkpt><trkpt lat="44.249880440046134" lon="12.09880605851941"><ele>14.400000000000002</ele><time>2026-05-03T12:35:56Z</time></trkpt><trkpt lat="44.249915695915014" lon="12.09868105573873"><ele>13.6</ele><time>2026-05-03T12:35:57Z</time></trkpt><trkpt lat="44.249948845916784" lon="12.09856419067676"><ele>12.8</ele><time>2026-05-03T12:35:58Z</time></trkpt><trkpt lat="44.24998112564314" lon="12.098446628292573"><ele>12.0</ele><time>2026-05-03T12:35:59Z</time></trkpt><trkpt lat="44.25001899351712" lon="12.098319913725861"><ele>12.2</ele><time>2026-05-03T12:36:00Z</time></trkpt><trkpt lat="44.25005954053692" lon="12.0981804106579"><ele>12.399999999999999</ele><time>2026-05-03T12:36:01Z</time></trkpt><trkpt lat="44.250100141880765" lon="12.09803639870621"><ele>12.600000000000001</ele><time>2026-05-03T12:36:02Z</time></trkpt><trkpt lat="44.250140727355124" lon="12.097892288141887"><ele>12.8</ele><time>2026-05-03T12:36:03Z</time></trkpt><trkpt lat="44.250179633733744" lon="12.097743239580765"><ele>13.0</ele><time>2026-05-03T12:36:04Z</time></trkpt><trkpt lat="44.250216424123714" lon="12.097589649562716"><ele>13.0</ele><time>2026-05-03T12:36:05Z</time></trkpt><trkpt lat="44.25025494243876" lon="12.0974316485209"><ele>13.0</ele><time>2026-05-03T12:36:06Z</time></trkpt><trkpt lat="44.25029413138979" lon="12.097278305246544"><ele>13.0</ele><time>2026-05-03T12:36:07Z</time></trkpt><trkpt lat="44.25033264348379" lon="12.097129586628128"><ele>13.0</ele><time>2026-05-03T12:36:08Z</time></trkpt><trkpt lat="44.25037322064009" lon="12.096982711539788"><ele>13.4</ele><time>2026-05-03T12:36:09Z</time></trkpt><trkpt lat="44.25041492651507" lon="12.096836583682936"><ele>13.8</ele><time>2026-05-03T12:36:10Z</time></trkpt><trkpt lat="44.250457077870905" lon="12.096691278023764"><ele>14.2</ele><time>2026-05-03T12:36:11Z</time></trkpt><trkpt lat="44.25049966182464" lon="12.09654710781151"><ele>14.6</ele><time>2026-05-03T12:36:12Z</time></trkpt><trkpt lat="44.25054174075186" lon="12.096403945843337"><ele>15.0</ele><time>2026-05-03T12:36:13Z</time></trkpt><trkpt lat="44.25058156523566" lon="12.096262007662526"><ele>15.166666666666666</ele><time>2026-05-03T12:36:14Z</time></trkpt><trkpt lat="44.250620287818464" lon="12.09612507338983"><ele>15.333333333333332</ele><time>2026-05-03T12:36:15Z</time></trkpt><trkpt lat="44.250656071981396" lon="12.095997619113337"><ele>15.5</ele><time>2026-05-03T12:36:16Z</time></trkpt><trkpt lat="44.250688922178895" lon="12.095883610730603"><ele>15.666666666666666</ele><time>2026-05-03T12:36:17Z</time></trkpt><trkpt lat="44.25072009488762" lon="12.09577800686067"><ele>15.833333333333332</ele><time>2026-05-03T12:36:18Z</time></trkpt><trkpt lat="44.250745936520836" lon="12.095690949914996"><ele>16.0</ele><time>2026-05-03T12:36:19Z</time></trkpt><trkpt lat="44.250782026772846" lon="12.09556823937767"><ele>16.0</ele><time>2026-05-03T12:36:21Z</time></trkpt><trkpt lat="44.25080960297944" lon="12.095458020238029"><ele>16.0</ele><time>2026-05-03T12:36:24Z</time></trkpt><trkpt lat="44.25083863230581" lon="12.09534988788242"><ele>16.0</ele><time>2026-05-03T12:36:27Z</time></trkpt><trkpt lat="44.2508756054774" lon="12.095235640715197"><ele>16.0</ele><time>2026-05-03T12:36:29Z</time></trkpt><trkpt lat="44.250927084100766" lon="12.095075817843819"><ele>16.0</ele><time>2026-05-03T12:36:31Z</time></trkpt><trkpt lat="44.250955972487425" lon="12.094978838930203"><ele>16.2</ele><time>2026-05-03T12:36:32Z</time></trkpt><trkpt lat="44.250989841163005" lon="12.094862971882776"><ele>16.400000000000002</ele><time>2026-05-03T12:36:33Z</time></trkpt><trkpt lat="44.251025590792466" lon="12.094743608785292"><ele>16.6</ele><time>2026-05-03T12:36:34Z</time></trkpt><trkpt lat="44.251060508285455" lon="12.094621841160233"><ele>16.8</ele><time>2026-05-03T12:36:35Z</time></trkpt><trkpt lat="44.25109851482971" lon="12.094492820118166"><ele>17.0</ele><time>2026-05-03T12:36:36Z</time></trkpt><trkpt lat="44.25114004785172" lon="12.094350425917346"><ele>17.0</ele><time>2026-05-03T12:36:37Z</time></trkpt><trkpt lat="44.25118578829579" lon="12.094199559010889"><ele>17.0</ele><time>2026-05-03T12:36:38Z</time></trkpt><trkpt lat="44.25123554865428" lon="12.094035547614416"><ele>17.0</ele><time>2026-05-03T12:36:39Z</time></trkpt><trkpt lat="44.251287405199186" lon="12.093864853669434"><ele>17.0</ele><time>2026-05-03T12:36:40Z</time></trkpt><trkpt lat="44.251341544960155" lon="12.093689079787437"><ele>17.0</ele><time>2026-05-03T12:36:41Z</time></trkpt><trkpt lat="44.25139813774457" lon="12.093509629942574"><ele>17.0</ele><time>2026-05-03T12:36:42Z</time></trkpt><trkpt lat="44.25145536637862" lon="12.093328103336988"><ele>17.0</ele><time>2026-05-03T12:36:43Z</time></trkpt><trkpt lat="44.25151188757719" lon="12.093146290969726"><ele>17.0</ele><time>2026-05-03T12:36:44Z</time></trkpt><trkpt lat="44.251569521570325" lon="12.092967608445715"><ele>17.0</ele><time>2026-05-03T12:36:45Z</time></trkpt><trkpt lat="44.251625542738054" lon="12.092795124437911"><ele>17.0</ele><time>2026-05-03T12:36:46Z</time></trkpt><trkpt lat="44.25168310643932" lon="12.0926242342837"><ele>17.0</ele><time>2026-05-03T12:36:47Z</time></trkpt><trkpt lat="44.251744406276146" lon="12.092457548187413"><ele>17.0</ele><time>2026-05-03T12:36:48Z</time></trkpt><trkpt lat="44.25181778548939" lon="12.09228425803867"><ele>17.0</ele><time>2026-05-03T12:36:49Z</time></trkpt><trkpt lat="44.25189898636445" lon="12.092083051811784"><ele>17.0</ele><time>2026-05-03T12:36:50Z</time></trkpt><trkpt lat="44.25198606324275" lon="12.091849027969152"><ele>17.0</ele><time>2026-05-03T12:36:51Z</time></trkpt><trkpt lat="44.25207592683107" lon="12.091594171631948"><ele>16.666666666666668</ele><time>2026-05-03T12:36:52Z</time></trkpt><trkpt lat="44.25216950963418" lon="12.091340441145288"><ele>16.333333333333332</ele><time>2026-05-03T12:36:53Z</time></trkpt><trkpt lat="44.25226511261501" lon="12.091083058842347"><ele>16.0</ele><time>2026-05-03T12:36:54Z</time></trkpt><trkpt lat="44.2523580907547" lon="12.09083127675969"><ele>16.0</ele><time>2026-05-03T12:36:55Z</time></trkpt><trkpt lat="44.25243931555471" lon="12.090608004602915"><ele>16.0</ele><time>2026-05-03T12:36:56Z</time></trkpt><trkpt lat="44.25251574819178" lon="12.090400127339038"><ele>16.0</ele><time>2026-05-03T12:36:57Z</time></trkpt><trkpt lat="44.252587879503366" lon="12.090202577991585"><ele>16.0</ele><time>2026-05-03T12:36:58Z</time></trkpt><trkpt lat="44.25266068651856" lon="12.090003400583592"><ele>16.0</ele><time>2026-05-03T12:36:59Z</time></trkpt><trkpt lat="44.25273911117329" lon="12.08980529575805"><ele>16.0</ele><time>2026-05-03T12:37:00Z</time></trkpt><trkpt lat="44.2528190273896" lon="12.089606470367949"><ele>16.0</ele><time>2026-05-03T12:37:01Z</time></trkpt><trkpt lat="44.25289630398961" lon="12.0894087630443"><ele>16.0</ele><time>2026-05-03T12:37:02Z</time></trkpt><trkpt lat="44.25297301930751" lon="12.08920894409418"><ele>16.0</ele><time>2026-05-03T12:37:03Z</time></trkpt><trkpt lat="44.25305239705035" lon="12.089003017671953"><ele>16.0</ele><time>2026-05-03T12:37:04Z</time></trkpt><trkpt lat="44.25313452416662" lon="12.088793078082562"><ele>16.0</ele><time>2026-05-03T12:37:05Z</time></trkpt><trkpt lat="44.253219267405775" lon="12.088576956724308"><ele>16.0</ele><time>2026-05-03T12:37:06Z</time></trkpt><trkpt lat="44.25330812733081" lon="12.088349070958545"><ele>15.666666666666666</ele><time>2026-05-03T12:37:07Z</time></trkpt><trkpt lat="44.25339582157845" lon="12.088117486250193"><ele>15.333333333333332</ele><time>2026-05-03T12:37:08Z</time></trkpt><trkpt lat="44.253484626926344" lon="12.087885703405123"><ele>15.0</ele><time>2026-05-03T12:37:09Z</time></trkpt><trkpt lat="44.253574074560824" lon="12.087656501934575"><ele>15.0</ele><time>2026-05-03T12:37:10Z</time></trkpt><trkpt lat="44.25366296095146" lon="12.087431621862562"><ele>15.0</ele><time>2026-05-03T12:37:11Z</time></trkpt><trkpt lat="44.253749666806165" lon="12.087204705672397"><ele>15.0</ele><time>2026-05-03T12:37:12Z</time></trkpt><trkpt lat="44.25383700840972" lon="12.086974427790716"><ele>14.666666666666668</ele><time>2026-05-03T12:37:13Z</time></trkpt><trkpt lat="44.25392490982739" lon="12.086743984375897"><ele>14.333333333333334</ele><time>2026-05-03T12:37:14Z</time></trkpt><trkpt lat="44.2540160660738" lon="12.08651204711702"><ele>14.0</ele><time>2026-05-03T12:37:15Z</time></trkpt><trkpt lat="44.2541061617543" lon="12.086278645187454"><ele>14.333333333333334</ele><time>2026-05-03T12:37:16Z</time></trkpt><trkpt lat="44.25419693471072" lon="12.086043612785446"><ele>14.666666666666668</ele><time>2026-05-03T12:37:17Z</time></trkpt><trkpt lat="44.25428881057334" lon="12.085807503187445"><ele>15.0</ele><time>2026-05-03T12:37:18Z</time></trkpt><trkpt lat="44.25437981986661" lon="12.085569680269543"><ele>15.0</ele><time>2026-05-03T12:37:19Z</time></trkpt><trkpt lat="44.254471587983765" lon="12.085331447298573"><ele>15.0</ele><time>2026-05-03T12:37:20Z</time></trkpt><trkpt lat="44.25456357619889" lon="12.085092917503921"><ele>15.0</ele><time>2026-05-03T12:37:21Z</time></trkpt><trkpt lat="44.25465425409725" lon="12.084854686719723"><ele>15.0</ele><time>2026-05-03T12:37:22Z</time></trkpt><trkpt lat="44.25474562623406" lon="12.084616442104995"><ele>15.0</ele><time>2026-05-03T12:37:23Z</time></trkpt><trkpt lat="44.25483718774532" lon="12.084378687210352"><ele>15.0</ele><time>2026-05-03T12:37:24Z</time></trkpt><trkpt lat="44.25492980849127" lon="12.08414064820153"><ele>14.666666666666668</ele><time>2026-05-03T12:37:25Z</time></trkpt><trkpt lat="44.25502184745009" lon="12.08390273891544"><ele>14.333333333333334</ele><time>2026-05-03T12:37:26Z</time></trkpt><trkpt lat="44.255113583547605" lon="12.083664206370642"><ele>14.0</ele><time>2026-05-03T12:37:27Z</time></trkpt><trkpt lat="44.25520518499855" lon="12.083426582058584"><ele>13.666666666666668</ele><time>2026-05-03T12:37:28Z</time></trkpt><trkpt lat="44.25529659132388" lon="12.083186580014543"><ele>13.333333333333332</ele><time>2026-05-03T12:37:29Z</time></trkpt><trkpt lat="44.255385932569396" lon="12.082940374800177"><ele>13.0</ele><time>2026-05-03T12:37:30Z</time></trkpt><trkpt lat="44.255473566265756" lon="12.082693050453612"><ele>13.0</ele><time>2026-05-03T12:37:31Z</time></trkpt><trkpt lat="44.25556269578792" lon="12.082437447671712"><ele>13.0</ele><time>2026-05-03T12:37:32Z</time></trkpt><trkpt lat="44.25566337694742" lon="12.082185791933767"><ele>13.0</ele><time>2026-05-03T12:37:33Z</time></trkpt><trkpt lat="44.25575979794416" lon="12.081932889536708"><ele>13.666666666666666</ele><time>2026-05-03T12:37:34Z</time></trkpt><trkpt lat="44.25585983905366" lon="12.081676044652156"><ele>14.333333333333332</ele><time>2026-05-03T12:37:35Z</time></trkpt><trkpt lat="44.255957726376806" lon="12.081417955719067"><ele>15.0</ele><time>2026-05-03T12:37:36Z</time></trkpt><trkpt lat="44.256054410659964" lon="12.081155965561962"><ele>15.0</ele><time>2026-05-03T12:37:37Z</time></trkpt><trkpt lat="44.25615635950295" lon="12.080893803891495"><ele>15.0</ele><time>2026-05-03T12:37:38Z</time></trkpt><trkpt lat="44.25626029688433" lon="12.080637702486118"><ele>15.0</ele><time>2026-05-03T12:37:39Z</time></trkpt><trkpt lat="44.25636328622774" lon="12.080382616724613"><ele>14.666666666666668</ele><time>2026-05-03T12:37:40Z</time></trkpt><trkpt lat="44.25646315679464" lon="12.080124896302522"><ele>14.333333333333334</ele><time>2026-05-03T12:37:41Z</time></trkpt><trkpt lat="44.25656391043441" lon="12.079870230395462"><ele>14.0</ele><time>2026-05-03T12:37:42Z</time></trkpt><trkpt lat="44.25665554425652" lon="12.079607713978342"><ele>13.666666666666668</ele><time>2026-05-03T12:37:43Z</time></trkpt><trkpt lat="44.25675479094101" lon="12.07934303647702"><ele>13.333333333333332</ele><time>2026-05-03T12:37:44Z</time></trkpt><trkpt lat="44.25685630250964" lon="12.079084736533298"><ele>13.0</ele><time>2026-05-03T12:37:45Z</time></trkpt><trkpt lat="44.25695912353937" lon="12.078817945256274"><ele>14.0</ele><time>2026-05-03T12:37:46Z</time></trkpt><trkpt lat="44.2570575695353" lon="12.07856322071741"><ele>15.0</ele><time>2026-05-03T12:37:47Z</time></trkpt><trkpt lat="44.25716042497253" lon="12.078302510048262"><ele>16.0</ele><time>2026-05-03T12:37:48Z</time></trkpt><trkpt lat="44.25726297788399" lon="12.078040203607385"><ele>16.333333333333332</ele><time>2026-05-03T12:37:49Z</time></trkpt><trkpt lat="44.25736206779297" lon="12.077779815419323"><ele>16.666666666666668</ele><time>2026-05-03T12:37:50Z</time></trkpt><trkpt lat="44.25746210162227" lon="12.077517397072103"><ele>17.0</ele><time>2026-05-03T12:37:51Z</time></trkpt><trkpt lat="44.25756158170562" lon="12.077253201494198"><ele>17.0</ele><time>2026-05-03T12:37:52Z</time></trkpt><trkpt lat="44.25766457172346" lon="12.076983064124091"><ele>17.0</ele><time>2026-05-03T12:37:53Z</time></trkpt><trkpt lat="44.257769184778155" lon="12.076710297268427"><ele>17.0</ele><time>2026-05-03T12:37:54Z</time></trkpt><trkpt lat="44.25787631237828" lon="12.07642665787484"><ele>16.5</ele><time>2026-05-03T12:37:55Z</time></trkpt><trkpt lat="44.25798686726599" lon="12.076133799828437"><ele>16.0</ele><time>2026-05-03T12:37:56Z</time></trkpt><trkpt lat="44.25809747590965" lon="12.075842469395662"><ele>14.0</ele><time>2026-05-03T12:37:57Z</time></trkpt><trkpt lat="44.258208511385796" lon="12.075553653453095"><ele>12.0</ele><time>2026-05-03T12:37:58Z</time></trkpt><trkpt lat="44.25831771508998" lon="12.075261767338263"><ele>12.0</ele><time>2026-05-03T12:37:59Z</time></trkpt><trkpt lat="44.25842913928713" lon="12.074977508801888"><ele>12.0</ele><time>2026-05-03T12:38:00Z</time></trkpt><trkpt lat="44.25854126635075" lon="12.074691893630435"><ele>12.5</ele><time>2026-05-03T12:38:01Z</time></trkpt><trkpt lat="44.258653218231146" lon="12.07440524118636"><ele>13.0</ele><time>2026-05-03T12:38:02Z</time></trkpt><trkpt lat="44.25876303407834" lon="12.074120056256318"><ele>13.0</ele><time>2026-05-03T12:38:03Z</time></trkpt><trkpt lat="44.25887226445632" lon="12.073830514917235"><ele>13.0</ele><time>2026-05-03T12:38:04Z</time></trkpt><trkpt lat="44.25897900802804" lon="12.0735401049763"><ele>13.5</ele><time>2026-05-03T12:38:05Z</time></trkpt><trkpt lat="44.25908340078762" lon="12.073249074056003"><ele>14.0</ele><time>2026-05-03T12:38:06Z</time></trkpt><trkpt lat="44.259184640344884" lon="12.072958916337411"><ele>14.0</ele><time>2026-05-03T12:38:07Z</time></trkpt><trkpt lat="44.25928133404902" lon="12.072668468373816"><ele>14.0</ele><time>2026-05-03T12:38:08Z</time></trkpt><trkpt lat="44.259374625608146" lon="12.072378505483167"><ele>14.0</ele><time>2026-05-03T12:38:09Z</time></trkpt><trkpt lat="44.259464772124645" lon="12.07208818370463"><ele>14.0</ele><time>2026-05-03T12:38:10Z</time></trkpt><trkpt lat="44.259553424125855" lon="12.071796920100192"><ele>14.5</ele><time>2026-05-03T12:38:11Z</time></trkpt><trkpt lat="44.259639996231584" lon="12.07150490416019"><ele>15.0</ele><time>2026-05-03T12:38:12Z</time></trkpt><trkpt lat="44.25972400698586" lon="12.07121366338705"><ele>15.333333333333332</ele><time>2026-05-03T12:38:13Z</time></trkpt><trkpt lat="44.25980473177922" lon="12.07092003209365"><ele>15.666666666666666</ele><time>2026-05-03T12:38:14Z</time></trkpt><trkpt lat="44.259879422414095" lon="12.070625796573335"><ele>16.0</ele><time>2026-05-03T12:38:15Z</time></trkpt><trkpt lat="44.25995296128967" lon="12.070329044426837"><ele>16.0</ele><time>2026-05-03T12:38:16Z</time></trkpt><trkpt lat="44.26001705740845" lon="12.070026862442138"><ele>16.0</ele><time>2026-05-03T12:38:17Z</time></trkpt><trkpt lat="44.260083794867036" lon="12.069718257549692"><ele>16.0</ele><time>2026-05-03T12:38:18Z</time></trkpt><trkpt lat="44.260157763024466" lon="12.069406107320047"><ele>16.0</ele><time>2026-05-03T12:38:19Z</time></trkpt><trkpt lat="44.260236132408835" lon="12.069093708422143"><ele>15.0</ele><time>2026-05-03T12:38:20Z</time></trkpt><trkpt lat="44.26031381717228" lon="12.068779538623438"><ele>14.0</ele><time>2026-05-03T12:38:21Z</time></trkpt><trkpt lat="44.260394710915484" lon="12.068463420613671"><ele>14.5</ele><time>2026-05-03T12:38:22Z</time></trkpt><trkpt lat="44.260478744072465" lon="12.068147438645035"><ele>15.0</ele><time>2026-05-03T12:38:23Z</time></trkpt><trkpt lat="44.260559974748716" lon="12.06782954101639"><ele>14.5</ele><time>2026-05-03T12:38:24Z</time></trkpt><trkpt lat="44.26063902655931" lon="12.067514052725961"><ele>14.0</ele><time>2026-05-03T12:38:25Z</time></trkpt><trkpt lat="44.26071653639473" lon="12.067194838002441"><ele>13.5</ele><time>2026-05-03T12:38:26Z</time></trkpt><trkpt lat="44.26079575619805" lon="12.066877038710988"><ele>13.0</ele><time>2026-05-03T12:38:27Z</time></trkpt><trkpt lat="44.260876292710506" lon="12.066554762572345"><ele>13.0</ele><time>2026-05-03T12:38:28Z</time></trkpt><trkpt lat="44.2609564273473" lon="12.066230756578124"><ele>13.0</ele><time>2026-05-03T12:38:29Z</time></trkpt><trkpt lat="44.26103853407356" lon="12.065902964672686"><ele>13.5</ele><time>2026-05-03T12:38:30Z</time></trkpt><trkpt lat="44.26112178142045" lon="12.065572131220053"><ele>14.0</ele><time>2026-05-03T12:38:31Z</time></trkpt><trkpt lat="44.26120431412634" lon="12.065239784870043"><ele>15.0</ele><time>2026-05-03T12:38:32Z</time></trkpt><trkpt lat="44.26128452809531" lon="12.064918462473273"><ele>16.0</ele><time>2026-05-03T12:38:33Z</time></trkpt><trkpt lat="44.261364585566" lon="12.064598861727754"><ele>16.0</ele><time>2026-05-03T12:38:34Z</time></trkpt><trkpt lat="44.26144253446616" lon="12.064280881432252"><ele>16.0</ele><time>2026-05-03T12:38:35Z</time></trkpt><trkpt lat="44.261521332992054" lon="12.063958976408522"><ele>15.5</ele><time>2026-05-03T12:38:36Z</time></trkpt><trkpt lat="44.2616025172356" lon="12.06363536092226"><ele>15.0</ele><time>2026-05-03T12:38:37Z</time></trkpt><trkpt lat="44.26168393443767" lon="12.063309252457971"><ele>14.0</ele><time>2026-05-03T12:38:38Z</time></trkpt><trkpt lat="44.26176659954608" lon="12.06298341828269"><ele>13.0</ele><time>2026-05-03T12:38:39Z</time></trkpt><trkpt lat="44.261850330844794" lon="12.062652963107608"><ele>13.5</ele><time>2026-05-03T12:38:40Z</time></trkpt><trkpt lat="44.26193566428078" lon="12.062318738184889"><ele>14.0</ele><time>2026-05-03T12:38:41Z</time></trkpt><trkpt lat="44.26202506728864" lon="12.061984623318468"><ele>14.0</ele><time>2026-05-03T12:38:42Z</time></trkpt><trkpt lat="44.2621171812644" lon="12.061648761745301"><ele>14.0</ele><time>2026-05-03T12:38:43Z</time></trkpt><trkpt lat="44.26221484505554" lon="12.061316712664516"><ele>16.0</ele><time>2026-05-03T12:38:44Z</time></trkpt><trkpt lat="44.262316208521646" lon="12.060989370911956"><ele>18.0</ele><time>2026-05-03T12:38:45Z</time></trkpt><trkpt lat="44.262421131788265" lon="12.06066252084063"><ele>18.0</ele><time>2026-05-03T12:38:46Z</time></trkpt><trkpt lat="44.26253107543374" lon="12.060337700472505"><ele>18.0</ele><time>2026-05-03T12:38:47Z</time></trkpt><trkpt lat="44.262647146920045" lon="12.060008262947202"><ele>19.0</ele><time>2026-05-03T12:38:48Z</time></trkpt><trkpt lat="44.2627650068266" lon="12.059678356887737"><ele>20.0</ele><time>2026-05-03T12:38:49Z</time></trkpt><trkpt lat="44.26288902186388" lon="12.059345785850388"><ele>19.5</ele><time>2026-05-03T12:38:50Z</time></trkpt><trkpt lat="44.263013636242746" lon="12.059011808570995"><ele>19.0</ele><time>2026-05-03T12:38:51Z</time></trkpt><trkpt lat="44.26314018258981" lon="12.0586813521256"><ele>18.0</ele><time>2026-05-03T12:38:52Z</time></trkpt><trkpt lat="44.263264193488176" lon="12.05834684270271"><ele>17.0</ele><time>2026-05-03T12:38:53Z</time></trkpt><trkpt lat="44.26338879689858" lon="12.058022726662914"><ele>17.0</ele><time>2026-05-03T12:38:54Z</time></trkpt><trkpt lat="44.26351166541652" lon="12.057699199689859"><ele>17.0</ele><time>2026-05-03T12:38:55Z</time></trkpt><trkpt lat="44.2636321106049" lon="12.057381858134969"><ele>17.0</ele><time>2026-05-03T12:38:56Z</time></trkpt><trkpt lat="44.26375253737837" lon="12.057066132644668"><ele>17.0</ele><time>2026-05-03T12:38:57Z</time></trkpt><trkpt lat="44.26387373632468" lon="12.05675406792499"><ele>18.0</ele><time>2026-05-03T12:38:58Z</time></trkpt><trkpt lat="44.26399304281245" lon="12.056441192049789"><ele>19.0</ele><time>2026-05-03T12:38:59Z</time></trkpt><trkpt lat="44.26410963832716" lon="12.056133713776902"><ele>19.0</ele><time>2026-05-03T12:39:00Z</time></trkpt><trkpt lat="44.26422621645906" lon="12.055827290264698"><ele>19.0</ele><time>2026-05-03T12:39:01Z</time></trkpt><trkpt lat="44.26433873780382" lon="12.055521221257125"><ele>19.5</ele><time>2026-05-03T12:39:02Z</time></trkpt><trkpt lat="44.26445295498407" lon="12.0552107084854"><ele>20.0</ele><time>2026-05-03T12:39:03Z</time></trkpt><trkpt lat="44.264569479722674" lon="12.054895610896628"><ele>20.0</ele><time>2026-05-03T12:39:04Z</time></trkpt><trkpt lat="44.26468405100561" lon="12.05457974389759"><ele>20.0</ele><time>2026-05-03T12:39:05Z</time></trkpt><trkpt lat="44.264798372949066" lon="12.054255323119193"><ele>20.0</ele><time>2026-05-03T12:39:06Z</time></trkpt><trkpt lat="44.26491437603868" lon="12.053937448015906"><ele>20.0</ele><time>2026-05-03T12:39:07Z</time></trkpt><trkpt lat="44.265036535199584" lon="12.053611358858472"><ele>19.5</ele><time>2026-05-03T12:39:08Z</time></trkpt><trkpt lat="44.26516098135939" lon="12.05328808343757"><ele>19.0</ele><time>2026-05-03T12:39:09Z</time></trkpt><trkpt lat="44.26528487415738" lon="12.052963262198551"><ele>19.0</ele><time>2026-05-03T12:39:10Z</time></trkpt><trkpt lat="44.265408330855216" lon="12.05264116251237"><ele>19.0</ele><time>2026-05-03T12:39:11Z</time></trkpt><trkpt lat="44.265532498835476" lon="12.052318950709227"><ele>18.0</ele><time>2026-05-03T12:39:12Z</time></trkpt><trkpt lat="44.26565633154191" lon="12.051993771815686"><ele>17.0</ele><time>2026-05-03T12:39:13Z</time></trkpt><trkpt lat="44.26578021416885" lon="12.051665115465374"><ele>17.0</ele><time>2026-05-03T12:39:14Z</time></trkpt><trkpt lat="44.26590346524454" lon="12.051335240703425"><ele>17.0</ele><time>2026-05-03T12:39:15Z</time></trkpt><trkpt lat="44.26602713282575" lon="12.051008292021834"><ele>17.5</ele><time>2026-05-03T12:39:16Z</time></trkpt><trkpt lat="44.266152773952705" lon="12.050681577868634"><ele>18.0</ele><time>2026-05-03T12:39:17Z</time></trkpt><trkpt lat="44.26627746534513" lon="12.050357806275617"><ele>18.0</ele><time>2026-05-03T12:39:18Z</time></trkpt><trkpt lat="44.26640131563073" lon="12.050037562426295"><ele>18.0</ele><time>2026-05-03T12:39:19Z</time></trkpt><trkpt lat="44.26652489345288" lon="12.049717558908949"><ele>18.0</ele><time>2026-05-03T12:39:20Z</time></trkpt><trkpt lat="44.266649188865145" lon="12.049393781631002"><ele>18.0</ele><time>2026-05-03T12:39:21Z</time></trkpt><trkpt lat="44.266770596577665" lon="12.049071413079128"><ele>19.0</ele><time>2026-05-03T12:39:22Z</time></trkpt><trkpt lat="44.26689576117836" lon="12.048744682820555"><ele>20.0</ele><time>2026-05-03T12:39:23Z</time></trkpt><trkpt lat="44.26702489824496" lon="12.048413745192335"><ele>20.5</ele><time>2026-05-03T12:39:24Z</time></trkpt><trkpt lat="44.2671541364346" lon="12.048076685989939"><ele>21.0</ele><time>2026-05-03T12:39:25Z</time></trkpt><trkpt lat="44.26728415572432" lon="12.047732421016324"><ele>20.5</ele><time>2026-05-03T12:39:26Z</time></trkpt><trkpt lat="44.267416108636695" lon="12.047381127859962"><ele>20.0</ele><time>2026-05-03T12:39:27Z</time></trkpt><trkpt lat="44.267548446197544" lon="12.04703315216861"><ele>20.0</ele><time>2026-05-03T12:39:28Z</time></trkpt><trkpt lat="44.267682719069875" lon="12.046686244805876"><ele>20.0</ele><time>2026-05-03T12:39:29Z</time></trkpt><trkpt lat="44.26781669105229" lon="12.046338458298777"><ele>20.0</ele><time>2026-05-03T12:39:30Z</time></trkpt><trkpt lat="44.26795099132058" lon="12.045988972074612"><ele>20.0</ele><time>2026-05-03T12:39:31Z</time></trkpt><trkpt lat="44.268086248167556" lon="12.045634975027202"><ele>19.5</ele><time>2026-05-03T12:39:32Z</time></trkpt><trkpt lat="44.26822213448406" lon="12.045281946857841"><ele>19.0</ele><time>2026-05-03T12:39:33Z</time></trkpt><trkpt lat="44.268358631014415" lon="12.044929324397176"><ele>18.5</ele><time>2026-05-03T12:39:34Z</time></trkpt><trkpt lat="44.268497001052914" lon="12.044567617965344"><ele>18.0</ele><time>2026-05-03T12:39:35Z</time></trkpt><trkpt lat="44.26863681283134" lon="12.044205598151446"><ele>18.0</ele><time>2026-05-03T12:39:36Z</time></trkpt><trkpt lat="44.26878460537942" lon="12.043845335732676"><ele>18.0</ele><time>2026-05-03T12:39:37Z</time></trkpt><trkpt lat="44.26892705471396" lon="12.043483536053717"><ele>17.5</ele><time>2026-05-03T12:39:38Z</time></trkpt><trkpt lat="44.26906933986193" lon="12.043123237357957"><ele>17.0</ele><time>2026-05-03T12:39:39Z</time></trkpt><trkpt lat="44.26920846629852" lon="12.04276668559969"><ele>17.5</ele><time>2026-05-03T12:39:40Z</time></trkpt><trkpt lat="44.269346881659786" lon="12.042410900735321"><ele>18.0</ele><time>2026-05-03T12:39:41Z</time></trkpt><trkpt lat="44.269481967104404" lon="12.042060204933959"><ele>18.0</ele><time>2026-05-03T12:39:42Z</time></trkpt><trkpt lat="44.26961562284075" lon="12.041714921935544"><ele>18.0</ele><time>2026-05-03T12:39:43Z</time></trkpt><trkpt lat="44.269747401720515" lon="12.041372639678132"><ele>17.5</ele><time>2026-05-03T12:39:44Z</time></trkpt><trkpt lat="44.269877691946036" lon="12.041040485585128"><ele>17.0</ele><time>2026-05-03T12:39:45Z</time></trkpt><trkpt lat="44.270006184871754" lon="12.04070640320968"><ele>17.0</ele><time>2026-05-03T12:39:46Z</time></trkpt><trkpt lat="44.270132954192135" lon="12.040374470794685"><ele>17.0</ele><time>2026-05-03T12:39:47Z</time></trkpt><trkpt lat="44.27026056436259" lon="12.040037359792834"><ele>17.5</ele><time>2026-05-03T12:39:48Z</time></trkpt><trkpt lat="44.270390054461245" lon="12.039696100520839"><ele>18.0</ele><time>2026-05-03T12:39:49Z</time></trkpt><trkpt lat="44.27051950757948" lon="12.039349624145807"><ele>18.5</ele><time>2026-05-03T12:39:50Z</time></trkpt><trkpt lat="44.27065048786885" lon="12.038998137957368"><ele>19.0</ele><time>2026-05-03T12:39:51Z</time></trkpt><trkpt lat="44.27078176827947" lon="12.03864990653338"><ele>19.0</ele><time>2026-05-03T12:39:52Z</time></trkpt><trkpt lat="44.27091266458105" lon="12.0383024249049"><ele>19.0</ele><time>2026-05-03T12:39:53Z</time></trkpt><trkpt lat="44.271043982129804" lon="12.03795902512638"><ele>18.0</ele><time>2026-05-03T12:39:54Z</time></trkpt><trkpt lat="44.27117716538635" lon="12.037613176778951"><ele>17.0</ele><time>2026-05-03T12:39:55Z</time></trkpt><trkpt lat="44.27130866336272" lon="12.037267235019943"><ele>17.0</ele><time>2026-05-03T12:39:56Z</time></trkpt><trkpt lat="44.2714373391162" lon="12.036928974137158"><ele>17.0</ele><time>2026-05-03T12:39:57Z</time></trkpt><trkpt lat="44.27156653534726" lon="12.036587203853367"><ele>16.0</ele><time>2026-05-03T12:39:58Z</time></trkpt><trkpt lat="44.271691271376476" lon="12.036259356460045"><ele>15.0</ele><time>2026-05-03T12:39:59Z</time></trkpt><trkpt lat="44.27181209546544" lon="12.035949317360725"><ele>15.0</ele><time>2026-05-03T12:40:00Z</time></trkpt><trkpt lat="44.27192728865189" lon="12.035668579910807"><ele>15.0</ele><time>2026-05-03T12:40:01Z</time></trkpt><trkpt lat="44.272036115501145" lon="12.035402041926153"><ele>15.0</ele><time>2026-05-03T12:40:02Z</time></trkpt><trkpt lat="44.272144165920146" lon="12.035149950186163"><ele>15.0</ele><time>2026-05-03T12:40:03Z</time></trkpt><trkpt lat="44.27225073665291" lon="12.034917194657032"><ele>15.0</ele><time>2026-05-03T12:40:04Z</time></trkpt><trkpt lat="44.272355365756304" lon="12.034706339652514"><ele>15.0</ele><time>2026-05-03T12:40:05Z</time></trkpt><trkpt lat="44.27245508337187" lon="12.034507429197417"><ele>15.0</ele><time>2026-05-03T12:40:06Z</time></trkpt><trkpt lat="44.27254767280748" lon="12.034318292154975"><ele>15.0</ele><time>2026-05-03T12:40:07Z</time></trkpt><trkpt lat="44.272632601126666" lon="12.03413389812367"><ele>15.0</ele><time>2026-05-03T12:40:08Z</time></trkpt><trkpt lat="44.2727159828595" lon="12.033958861557073"><ele>15.0</ele><time>2026-05-03T12:40:09Z</time></trkpt><trkpt lat="44.272796874934" lon="12.03379863574183"><ele>15.0</ele><time>2026-05-03T12:40:10Z</time></trkpt><trkpt lat="44.27287370994247" lon="12.033638928256499"><ele>15.0</ele><time>2026-05-03T12:40:11Z</time></trkpt><trkpt lat="44.27295232595641" lon="12.033479089436138"><ele>15.0</ele><time>2026-05-03T12:40:12Z</time></trkpt><trkpt lat="44.273032248718394" lon="12.033321496872556"><ele>15.0</ele><time>2026-05-03T12:40:13Z</time></trkpt><trkpt lat="44.2731138048986" lon="12.033162643870254"><ele>15.0</ele><time>2026-05-03T12:40:14Z</time></trkpt><trkpt lat="44.273195595389446" lon="12.03300417155797"><ele>15.0</ele><time>2026-05-03T12:40:15Z</time></trkpt><trkpt lat="44.27327578217878" lon="12.032856152738903"><ele>15.0</ele><time>2026-05-03T12:40:16Z</time></trkpt><trkpt lat="44.2733547955285" lon="12.032718909279202"><ele>15.0</ele><time>2026-05-03T12:40:17Z</time></trkpt><trkpt lat="44.273429242329655" lon="12.032588218400557"><ele>15.0</ele><time>2026-05-03T12:40:18Z</time></trkpt><trkpt lat="44.27350365148609" lon="12.032465150049033"><ele>15.0</ele><time>2026-05-03T12:40:19Z</time></trkpt><trkpt lat="44.27358565476191" lon="12.032336636772119"><ele>15.0</ele><time>2026-05-03T12:40:20Z</time></trkpt><trkpt lat="44.27366906872781" lon="12.032200006594543"><ele>15.0</ele><time>2026-05-03T12:40:21Z</time></trkpt><trkpt lat="44.27374762533728" lon="12.032059924496446"><ele>15.0</ele><time>2026-05-03T12:40:22Z</time></trkpt><trkpt lat="44.273836473166234" lon="12.03191029228374"><ele>15.0</ele><time>2026-05-03T12:40:23Z</time></trkpt><trkpt lat="44.27392685386974" lon="12.031755772706141"><ele>16.25</ele><time>2026-05-03T12:40:24Z</time></trkpt><trkpt lat="44.27401895938951" lon="12.031596405653634"><ele>17.5</ele><time>2026-05-03T12:40:25Z</time></trkpt><trkpt lat="44.27411718682984" lon="12.03143829275977"><ele>18.75</ele><time>2026-05-03T12:40:26Z</time></trkpt><trkpt lat="44.27421510199219" lon="12.031276762752904"><ele>20.0</ele><time>2026-05-03T12:40:27Z</time></trkpt><trkpt lat="44.274313658988646" lon="12.031109554192748"><ele>20.0</ele><time>2026-05-03T12:40:28Z</time></trkpt><trkpt lat="44.27441312242635" lon="12.030947590636483"><ele>20.0</ele><time>2026-05-03T12:40:29Z</time></trkpt><trkpt lat="44.27451522000159" lon="12.03079895035967"><ele>20.0</ele><time>2026-05-03T12:40:30Z</time></trkpt><trkpt lat="44.27460887070917" lon="12.030653794269586"><ele>20.0</ele><time>2026-05-03T12:40:31Z</time></trkpt><trkpt lat="44.274700345377" lon="12.0304977699085"><ele>19.25</ele><time>2026-05-03T12:40:32Z</time></trkpt><trkpt lat="44.27479287017156" lon="12.030334214817852"><ele>18.5</ele><time>2026-05-03T12:40:33Z</time></trkpt><trkpt lat="44.274883338227916" lon="12.030180013166461"><ele>17.75</ele><time>2026-05-03T12:40:34Z</time></trkpt><trkpt lat="44.27497958399716" lon="12.030025461503827"><ele>17.0</ele><time>2026-05-03T12:40:35Z</time></trkpt><trkpt lat="44.27506354414541" lon="12.02987656742403"><ele>16.75</ele><time>2026-05-03T12:40:36Z</time></trkpt><trkpt lat="44.27514262798986" lon="12.029746302772473"><ele>16.5</ele><time>2026-05-03T12:40:37Z</time></trkpt><trkpt lat="44.27521594926666" lon="12.02961802915651"><ele>16.25</ele><time>2026-05-03T12:40:38Z</time></trkpt><trkpt lat="44.27528870255221" lon="12.029496862369415"><ele>16.0</ele><time>2026-05-03T12:40:39Z</time></trkpt><trkpt lat="44.275363546727284" lon="12.029372010953075"><ele>16.0</ele><time>2026-05-03T12:40:40Z</time></trkpt><trkpt lat="44.2754415342132" lon="12.029240792868894"><ele>16.0</ele><time>2026-05-03T12:40:41Z</time></trkpt><trkpt lat="44.27551550571488" lon="12.029104855581195"><ele>16.0</ele><time>2026-05-03T12:40:42Z</time></trkpt><trkpt lat="44.27559707564606" lon="12.028965867614387"><ele>16.0</ele><time>2026-05-03T12:40:43Z</time></trkpt><trkpt lat="44.27568396518383" lon="12.028822464208048"><ele>15.75</ele><time>2026-05-03T12:40:44Z</time></trkpt><trkpt lat="44.27577422273097" lon="12.028676775463103"><ele>15.5</ele><time>2026-05-03T12:40:45Z</time></trkpt><trkpt lat="44.275861769983976" lon="12.028530696017732"><ele>15.25</ele><time>2026-05-03T12:40:46Z</time></trkpt><trkpt lat="44.275948389675285" lon="12.028388857749379"><ele>15.0</ele><time>2026-05-03T12:40:47Z</time></trkpt><trkpt lat="44.27602906048667" lon="12.028255336637958"><ele>14.75</ele><time>2026-05-03T12:40:48Z</time></trkpt><trkpt lat="44.27610804378499" lon="12.028126039077883"><ele>14.5</ele><time>2026-05-03T12:40:49Z</time></trkpt><trkpt lat="44.27618860217905" lon="12.027991390181297"><ele>14.25</ele><time>2026-05-03T12:40:50Z</time></trkpt><trkpt lat="44.27627100909708" lon="12.027854163288955"><ele>14.0</ele><time>2026-05-03T12:40:51Z</time></trkpt><trkpt lat="44.276356175395456" lon="12.027715016967512"><ele>14.0</ele><time>2026-05-03T12:40:52Z</time></trkpt><trkpt lat="44.276440275346566" lon="12.027573556567038"><ele>14.0</ele><time>2026-05-03T12:40:53Z</time></trkpt><trkpt lat="44.27652315868622" lon="12.027433263670991"><ele>14.0</ele><time>2026-05-03T12:40:54Z</time></trkpt><trkpt lat="44.276605704043504" lon="12.027294527836599"><ele>14.0</ele><time>2026-05-03T12:40:55Z</time></trkpt><trkpt lat="44.27668628633796" lon="12.027158688800855"><ele>14.0</ele><time>2026-05-03T12:40:56Z</time></trkpt><trkpt lat="44.276765711742684" lon="12.027023619920833"><ele>14.0</ele><time>2026-05-03T12:40:57Z</time></trkpt><trkpt lat="44.27684467291531" lon="12.026890394713256"><ele>14.0</ele><time>2026-05-03T12:40:57.999Z</time></trkpt><trkpt lat="44.27692573422351" lon="12.02675920654955"><ele>14.0</ele><time>2026-05-03T12:40:58.999Z</time></trkpt><trkpt lat="44.277006102462444" lon="12.026626085762006"><ele>14.0</ele><time>2026-05-03T12:40:59.999Z</time></trkpt><trkpt lat="44.27708826925451" lon="12.026485873386472"><ele>14.0</ele><time>2026-05-03T12:41:00.999Z</time></trkpt><trkpt lat="44.27717241805818" lon="12.026346051080022"><ele>14.0</ele><time>2026-05-03T12:41:01.999Z</time></trkpt><trkpt lat="44.27725605839534" lon="12.026205848245045"><ele>14.0</ele><time>2026-05-03T12:41:02.999Z</time></trkpt><trkpt lat="44.27734195561553" lon="12.026065027473184"><ele>14.0</ele><time>2026-05-03T12:41:03.999Z</time></trkpt><trkpt lat="44.27742484573799" lon="12.025924725385416"><ele>14.0</ele><time>2026-05-03T12:41:04.999Z</time></trkpt><trkpt lat="44.27750819078343" lon="12.025785634648472"><ele>14.0</ele><time>2026-05-03T12:41:05.999Z</time></trkpt><trkpt lat="44.27759241679184" lon="12.025646712324498"><ele>14.0</ele><time>2026-05-03T12:41:06.999Z</time></trkpt><trkpt lat="44.27767509373753" lon="12.02550570708659"><ele>14.0</ele><time>2026-05-03T12:41:07.999Z</time></trkpt><trkpt lat="44.277757240104016" lon="12.025361672067676"><ele>14.0</ele><time>2026-05-03T12:41:08.999Z</time></trkpt><trkpt lat="44.27784255026211" lon="12.025221944395158"><ele>14.0</ele><time>2026-05-03T12:41:09.999Z</time></trkpt><trkpt lat="44.27792665285148" lon="12.025085883694068"><ele>14.0</ele><time>2026-05-03T12:41:10.999Z</time></trkpt><trkpt lat="44.27800779604971" lon="12.024950583283552"><ele>14.0</ele><time>2026-05-03T12:41:11.999Z</time></trkpt><trkpt lat="44.2780853191342" lon="12.024816867402327"><ele>14.0</ele><time>2026-05-03T12:41:12.999Z</time></trkpt><trkpt lat="44.27816787394811" lon="12.024686438219188"><ele>14.0</ele><time>2026-05-03T12:41:14Z</time></trkpt><trkpt lat="44.27824850518612" lon="12.024552925515982"><ele>14.0</ele><time>2026-05-03T12:41:15Z</time></trkpt><trkpt lat="44.27832926932146" lon="12.024414585978654"><ele>13.75</ele><time>2026-05-03T12:41:16Z</time></trkpt><trkpt lat="44.27841235710056" lon="12.024275216938195"><ele>13.5</ele><time>2026-05-03T12:41:17Z</time></trkpt><trkpt lat="44.27849734447747" lon="12.024132724990466"><ele>13.25</ele><time>2026-05-03T12:41:18Z</time></trkpt><trkpt lat="44.278584138638344" lon="12.023983945288228"><ele>13.0</ele><time>2026-05-03T12:41:19Z</time></trkpt><trkpt lat="44.278670905896206" lon="12.023825613800216"><ele>13.0</ele><time>2026-05-03T12:41:20Z</time></trkpt><trkpt lat="44.27876111237891" lon="12.023665102759736"><ele>13.0</ele><time>2026-05-03T12:41:21Z</time></trkpt><trkpt lat="44.278851497159984" lon="12.02349600452946"><ele>13.0</ele><time>2026-05-03T12:41:22Z</time></trkpt><trkpt lat="44.27894427991525" lon="12.02332114151547"><ele>13.666666666666666</ele><time>2026-05-03T12:41:23Z</time></trkpt><trkpt lat="44.27903918808295" lon="12.02314256476813"><ele>14.333333333333332</ele><time>2026-05-03T12:41:24Z</time></trkpt><trkpt lat="44.27913661780536" lon="12.022960937431478"><ele>15.0</ele><time>2026-05-03T12:41:25Z</time></trkpt><trkpt lat="44.279233659179596" lon="12.022778918512923"><ele>15.0</ele><time>2026-05-03T12:41:26Z</time></trkpt><trkpt lat="44.27932827351784" lon="12.022584524051723"><ele>15.0</ele><time>2026-05-03T12:41:27Z</time></trkpt><trkpt lat="44.27941891472099" lon="12.022398902976589"><ele>15.0</ele><time>2026-05-03T12:41:28Z</time></trkpt><trkpt lat="44.27950087366539" lon="12.022225099150406"><ele>14.75</ele><time>2026-05-03T12:41:29Z</time></trkpt><trkpt lat="44.27957947402689" lon="12.022057241052721"><ele>14.5</ele><time>2026-05-03T12:41:30Z</time></trkpt><trkpt lat="44.27965923913413" lon="12.021880137220883"><ele>14.25</ele><time>2026-05-03T12:41:31Z</time></trkpt><trkpt lat="44.27974112167717" lon="12.021698786986445"><ele>14.0</ele><time>2026-05-03T12:41:32Z</time></trkpt><trkpt lat="44.27982160076669" lon="12.021517738586093"><ele>13.75</ele><time>2026-05-03T12:41:33Z</time></trkpt><trkpt lat="44.27989816462686" lon="12.021340836269612"><ele>13.5</ele><time>2026-05-03T12:41:34Z</time></trkpt><trkpt lat="44.279972833410866" lon="12.021162646068845"><ele>13.25</ele><time>2026-05-03T12:41:35Z</time></trkpt><trkpt lat="44.28004705945345" lon="12.020983584192866"><ele>13.0</ele><time>2026-05-03T12:41:36Z</time></trkpt><trkpt lat="44.28012180224446" lon="12.02079891962997"><ele>12.666666666666666</ele><time>2026-05-03T12:41:37Z</time></trkpt><trkpt lat="44.28019788738114" lon="12.020610934638126"><ele>12.333333333333332</ele><time>2026-05-03T12:41:38Z</time></trkpt><trkpt lat="44.280273028485546" lon="12.020421482881554"><ele>12.0</ele><time>2026-05-03T12:41:39Z</time></trkpt><trkpt lat="44.2803464887297" lon="12.02022902816544"><ele>12.0</ele><time>2026-05-03T12:41:40Z</time></trkpt><trkpt lat="44.2804180451491" lon="12.020037033546059"><ele>12.0</ele><time>2026-05-03T12:41:41Z</time></trkpt><trkpt lat="44.280493063887874" lon="12.019837090567068"><ele>12.0</ele><time>2026-05-03T12:41:42Z</time></trkpt><trkpt lat="44.28056878478874" lon="12.019632412681343"><ele>12.333333333333332</ele><time>2026-05-03T12:41:43Z</time></trkpt><trkpt lat="44.28064625054283" lon="12.019412764919709"><ele>12.666666666666666</ele><time>2026-05-03T12:41:44Z</time></trkpt><trkpt lat="44.28072276981777" lon="12.01918977206205"><ele>13.0</ele><time>2026-05-03T12:41:45Z</time></trkpt><trkpt lat="44.28079782846548" lon="12.018957491735014"><ele>13.333333333333332</ele><time>2026-05-03T12:41:46Z</time></trkpt><trkpt lat="44.28086856048526" lon="12.018720323778354"><ele>13.666666666666668</ele><time>2026-05-03T12:41:47Z</time></trkpt><trkpt lat="44.280933179851914" lon="12.0184906301865"><ele>14.0</ele><time>2026-05-03T12:41:48Z</time></trkpt><trkpt lat="44.28099392332595" lon="12.018273685072499"><ele>14.0</ele><time>2026-05-03T12:41:49Z</time></trkpt><trkpt lat="44.28105634203744" lon="12.018062182301643"><ele>14.0</ele><time>2026-05-03T12:41:50Z</time></trkpt><trkpt lat="44.281120825703546" lon="12.017846482388373"><ele>14.0</ele><time>2026-05-03T12:41:51Z</time></trkpt><trkpt lat="44.28118204597272" lon="12.017631045265217"><ele>14.0</ele><time>2026-05-03T12:41:52Z</time></trkpt><trkpt lat="44.281243437327625" lon="12.017409773848263"><ele>14.0</ele><time>2026-05-03T12:41:53Z</time></trkpt><trkpt lat="44.28130211671467" lon="12.01719027484184"><ele>14.0</ele><time>2026-05-03T12:41:54Z</time></trkpt><trkpt lat="44.28135763765263" lon="12.016973922940737"><ele>14.0</ele><time>2026-05-03T12:41:55Z</time></trkpt><trkpt lat="44.28141307377459" lon="12.016744377431397"><ele>14.0</ele><time>2026-05-03T12:41:56Z</time></trkpt><trkpt lat="44.281469117712994" lon="12.016515314330947"><ele>14.0</ele><time>2026-05-03T12:41:57Z</time></trkpt><trkpt lat="44.28151987258856" lon="12.016278699552764"><ele>14.333333333333334</ele><time>2026-05-03T12:41:58Z</time></trkpt><trkpt lat="44.28157433262764" lon="12.016031718000052"><ele>14.666666666666668</ele><time>2026-05-03T12:41:59Z</time></trkpt><trkpt lat="44.2816289801257" lon="12.015772072891192"><ele>15.0</ele><time>2026-05-03T12:42:00Z</time></trkpt><trkpt lat="44.281683001160104" lon="12.015515165891848"><ele>15.0</ele><time>2026-05-03T12:42:01Z</time></trkpt><trkpt lat="44.28173720584129" lon="12.015251756655427"><ele>15.0</ele><time>2026-05-03T12:42:02Z</time></trkpt><trkpt lat="44.28179107201883" lon="12.01497306144581"><ele>15.0</ele><time>2026-05-03T12:42:03Z</time></trkpt><trkpt lat="44.2818447969832" lon="12.014697435998553"><ele>15.0</ele><time>2026-05-03T12:42:04Z</time></trkpt><trkpt lat="44.28189487557482" lon="12.014420414425878"><ele>15.0</ele><time>2026-05-03T12:42:05Z</time></trkpt><trkpt lat="44.281947238961344" lon="12.014138583383474"><ele>15.0</ele><time>2026-05-03T12:42:06Z</time></trkpt><trkpt lat="44.28199811130699" lon="12.013854787942401"><ele>14.666666666666668</ele><time>2026-05-03T12:42:07Z</time></trkpt><trkpt lat="44.28205024140087" lon="12.01356621300397"><ele>14.333333333333334</ele><time>2026-05-03T12:42:08Z</time></trkpt><trkpt lat="44.28210675180665" lon="12.013280717759475"><ele>14.0</ele><time>2026-05-03T12:42:09Z</time></trkpt><trkpt lat="44.282164246263775" lon="12.012994116407636"><ele>13.666666666666668</ele><time>2026-05-03T12:42:10Z</time></trkpt><trkpt lat="44.28222320611535" lon="12.01270690146906"><ele>13.333333333333332</ele><time>2026-05-03T12:42:11Z</time></trkpt><trkpt lat="44.282282409338116" lon="12.012417065752581"><ele>13.0</ele><time>2026-05-03T12:42:12Z</time></trkpt><trkpt lat="44.28234372627915" lon="12.01212759788971"><ele>13.333333333333332</ele><time>2026-05-03T12:42:13Z</time></trkpt><trkpt lat="44.28240347313135" lon="12.011839260820738"><ele>13.666666666666668</ele><time>2026-05-03T12:42:14Z</time></trkpt><trkpt lat="44.282463096054556" lon="12.011550439381807"><ele>14.0</ele><time>2026-05-03T12:42:15Z</time></trkpt><trkpt lat="44.282521907929" lon="12.011268723444699"><ele>14.0</ele><time>2026-05-03T12:42:16Z</time></trkpt><trkpt lat="44.28258051248174" lon="12.010988156372397"><ele>14.0</ele><time>2026-05-03T12:42:17Z</time></trkpt><trkpt lat="44.28263689623935" lon="12.01071747570816"><ele>14.0</ele><time>2026-05-03T12:42:18Z</time></trkpt><trkpt lat="44.282692249313705" lon="12.010450529013497"><ele>14.666666666666668</ele><time>2026-05-03T12:42:19Z</time></trkpt><trkpt lat="44.28274726891486" lon="12.01018274374136"><ele>15.333333333333332</ele><time>2026-05-03T12:42:20Z</time></trkpt><trkpt lat="44.282800917211866" lon="12.009920033395277"><ele>16.0</ele><time>2026-05-03T12:42:21Z</time></trkpt><trkpt lat="44.28285329903634" lon="12.009652783633978"><ele>16.0</ele><time>2026-05-03T12:42:22Z</time></trkpt><trkpt lat="44.282910529633156" lon="12.009376979001674"><ele>16.0</ele><time>2026-05-03T12:42:23Z</time></trkpt><trkpt lat="44.282967298869465" lon="12.009103733178039"><ele>16.0</ele><time>2026-05-03T12:42:24Z</time></trkpt><trkpt lat="44.283022649877104" lon="12.00882394914296"><ele>16.0</ele><time>2026-05-03T12:42:25Z</time></trkpt><trkpt lat="44.28308033237283" lon="12.008547008217478"><ele>16.0</ele><time>2026-05-03T12:42:26Z</time></trkpt><trkpt lat="44.28313997644895" lon="12.008264115085078"><ele>16.0</ele><time>2026-05-03T12:42:27Z</time></trkpt><trkpt lat="44.28320140914414" lon="12.007975666017964"><ele>16.333333333333332</ele><time>2026-05-03T12:42:28Z</time></trkpt><trkpt lat="44.28326739725845" lon="12.007684309016513"><ele>16.666666666666668</ele><time>2026-05-03T12:42:29Z</time></trkpt><trkpt lat="44.28333271704549" lon="12.007393767064142"><ele>17.0</ele><time>2026-05-03T12:42:30Z</time></trkpt><trkpt lat="44.28340004351818" lon="12.007106633005359"><ele>17.0</ele><time>2026-05-03T12:42:31Z</time></trkpt><trkpt lat="44.28346941972706" lon="12.006824311239964"><ele>17.0</ele><time>2026-05-03T12:42:32Z</time></trkpt><trkpt lat="44.2835386862227" lon="12.006551610862413"><ele>17.0</ele><time>2026-05-03T12:42:33Z</time></trkpt><trkpt lat="44.28360851357676" lon="12.006286128178077"><ele>16.333333333333336</ele><time>2026-05-03T12:42:34Z</time></trkpt><trkpt lat="44.28367976117781" lon="12.006033403124897"><ele>15.666666666666668</ele><time>2026-05-03T12:42:35Z</time></trkpt><trkpt lat="44.28375025325848" lon="12.005787477771129"><ele>15.0</ele><time>2026-05-03T12:42:36Z</time></trkpt><trkpt lat="44.283820811910395" lon="12.005546220672903"><ele>15.0</ele><time>2026-05-03T12:42:37Z</time></trkpt><trkpt lat="44.28389004071843" lon="12.005311491390033"><ele>15.0</ele><time>2026-05-03T12:42:38Z</time></trkpt><trkpt lat="44.283965252117056" lon="12.005073463796231"><ele>15.0</ele><time>2026-05-03T12:42:39Z</time></trkpt><trkpt lat="44.28404349343892" lon="12.004832373259257"><ele>15.333333333333332</ele><time>2026-05-03T12:42:40Z</time></trkpt><trkpt lat="44.284124492302496" lon="12.004591696660638"><ele>15.666666666666666</ele><time>2026-05-03T12:42:41Z</time></trkpt><trkpt lat="44.28420699757233" lon="12.004347058662887"><ele>16.0</ele><time>2026-05-03T12:42:42Z</time></trkpt><trkpt lat="44.2842952091495" lon="12.00410162586041"><ele>16.0</ele><time>2026-05-03T12:42:43Z</time></trkpt><trkpt lat="44.28438372338508" lon="12.003858171390968"><ele>16.0</ele><time>2026-05-03T12:42:44Z</time></trkpt><trkpt lat="44.28447446725745" lon="12.003616437014765"><ele>16.0</ele><time>2026-05-03T12:42:45Z</time></trkpt><trkpt lat="44.28456442090411" lon="12.003391458457651"><ele>16.333333333333332</ele><time>2026-05-03T12:42:46Z</time></trkpt><trkpt lat="44.28464982370481" lon="12.003170217953661"><ele>16.666666666666668</ele><time>2026-05-03T12:42:47Z</time></trkpt><trkpt lat="44.28473616847708" lon="12.002950934959134"><ele>17.0</ele><time>2026-05-03T12:42:48Z</time></trkpt><trkpt lat="44.28482217225515" lon="12.002730767892587"><ele>17.0</ele><time>2026-05-03T12:42:49Z</time></trkpt><trkpt lat="44.28491445871045" lon="12.0025190254995"><ele>17.0</ele><time>2026-05-03T12:42:50Z</time></trkpt><trkpt lat="44.28501203662962" lon="12.002330629827567"><ele>17.0</ele><time>2026-05-03T12:42:51Z</time></trkpt><trkpt lat="44.285114740081745" lon="12.002144395199016"><ele>17.0</ele><time>2026-05-03T12:42:52Z</time></trkpt><trkpt lat="44.285215283108" lon="12.001950723134136"><ele>17.0</ele><time>2026-05-03T12:42:53Z</time></trkpt><trkpt lat="44.28530652580463" lon="12.001743818836813"><ele>17.0</ele><time>2026-05-03T12:42:54Z</time></trkpt><trkpt lat="44.28539479087583" lon="12.001529738239096"><ele>16.333333333333336</ele><time>2026-05-03T12:42:55Z</time></trkpt><trkpt lat="44.285486797391755" lon="12.00132152312872"><ele>15.666666666666668</ele><time>2026-05-03T12:42:56Z</time></trkpt><trkpt lat="44.28557822684704" lon="12.00111335946093"><ele>15.0</ele><time>2026-05-03T12:42:57Z</time></trkpt><trkpt lat="44.2856617177628" lon="12.000928390563962"><ele>15.5</ele><time>2026-05-03T12:42:58Z</time></trkpt><trkpt lat="44.28573799171269" lon="12.000765840953996"><ele>16.0</ele><time>2026-05-03T12:42:59Z</time></trkpt><trkpt lat="44.28580044560558" lon="12.00062849812893"><ele>16.5</ele><time>2026-05-03T12:42:59.999Z</time></trkpt><trkpt lat="44.285853523033026" lon="12.000503968090516"><ele>17.0</ele><time>2026-05-03T12:43:00.999Z</time></trkpt><trkpt lat="44.28590445222644" lon="12.000384367721333"><ele>17.0</ele><time>2026-05-03T12:43:01.999Z</time></trkpt><trkpt lat="44.28595409354899" lon="12.000272279107106"><ele>17.0</ele><time>2026-05-03T12:43:02.999Z</time></trkpt><trkpt lat="44.286003929396756" lon="12.000157094925713"><ele>17.0</ele><time>2026-05-03T12:43:03.999Z</time></trkpt><trkpt lat="44.2860559364655" lon="12.000038544003251"><ele>17.0</ele><time>2026-05-03T12:43:04.999Z</time></trkpt><trkpt lat="44.28610370513904" lon="11.999923181106555"><ele>17.0</ele><time>2026-05-03T12:43:05.999Z</time></trkpt><trkpt lat="44.28615223829507" lon="11.999807405071369"><ele>17.0</ele><time>2026-05-03T12:43:06.999Z</time></trkpt><trkpt lat="44.28620610060091" lon="11.999682107879433"><ele>17.0</ele><time>2026-05-03T12:43:07.999Z</time></trkpt><trkpt lat="44.286259806582386" lon="11.999551039445645"><ele>17.0</ele><time>2026-05-03T12:43:08.999Z</time></trkpt><trkpt lat="44.286316350007496" lon="11.999416892871041"><ele>17.0</ele><time>2026-05-03T12:43:09.999Z</time></trkpt><trkpt lat="44.28637414694728" lon="11.999279254612514"><ele>17.0</ele><time>2026-05-03T12:43:10.999Z</time></trkpt><trkpt lat="44.28643326828193" lon="11.999139384000893"><ele>17.0</ele><time>2026-05-03T12:43:11.999Z</time></trkpt><trkpt lat="44.28649358207851" lon="11.99899603431232"><ele>17.0</ele><time>2026-05-03T12:43:12.999Z</time></trkpt><trkpt lat="44.28655324763917" lon="11.998852583404828"><ele>17.0</ele><time>2026-05-03T12:43:13.999Z</time></trkpt><trkpt lat="44.28661209435051" lon="11.998707219246402"><ele>17.0</ele><time>2026-05-03T12:43:14.999Z</time></trkpt><trkpt lat="44.28667182546733" lon="11.998561671216008"><ele>17.0</ele><time>2026-05-03T12:43:15.999Z</time></trkpt><trkpt lat="44.286731906006075" lon="11.998418004295244"><ele>17.0</ele><time>2026-05-03T12:43:16.999Z</time></trkpt><trkpt lat="44.28679208440715" lon="11.998276672439342"><ele>17.0</ele><time>2026-05-03T12:43:17.999Z</time></trkpt><trkpt lat="44.28685068343122" lon="11.998138994588126"><ele>17.0</ele><time>2026-05-03T12:43:19Z</time></trkpt><trkpt lat="44.28690714118704" lon="11.99800543290351"><ele>17.0</ele><time>2026-05-03T12:43:20Z</time></trkpt><trkpt lat="44.28696444835414" lon="11.99787339259162"><ele>17.0</ele><time>2026-05-03T12:43:21Z</time></trkpt><trkpt lat="44.28702003461277" lon="11.997743780493499"><ele>17.0</ele><time>2026-05-03T12:43:22Z</time></trkpt><trkpt lat="44.28707393981634" lon="11.997611342921397"><ele>17.0</ele><time>2026-05-03T12:43:23Z</time></trkpt><trkpt lat="44.28712823184861" lon="11.997478962755718"><ele>17.0</ele><time>2026-05-03T12:43:24Z</time></trkpt><trkpt lat="44.28718160363222" lon="11.99735190223298"><ele>16.4</ele><time>2026-05-03T12:43:25Z</time></trkpt><trkpt lat="44.287234700596365" lon="11.997227979719577"><ele>15.799999999999999</ele><time>2026-05-03T12:43:26Z</time></trkpt><trkpt lat="44.28728624797022" lon="11.99710422100243"><ele>15.2</ele><time>2026-05-03T12:43:27Z</time></trkpt><trkpt lat="44.287338172765" lon="11.996980207210116"><ele>14.6</ele><time>2026-05-03T12:43:28Z</time></trkpt><trkpt lat="44.28739019470936" lon="11.996855739333506"><ele>14.0</ele><time>2026-05-03T12:43:29Z</time></trkpt><trkpt lat="44.287442685523615" lon="11.996732748860591"><ele>14.333333333333334</ele><time>2026-05-03T12:43:30Z</time></trkpt><trkpt lat="44.28749297000587" lon="11.996614073427821"><ele>14.666666666666668</ele><time>2026-05-03T12:43:31Z</time></trkpt><trkpt lat="44.287540985801755" lon="11.996500487177503"><ele>15.0</ele><time>2026-05-03T12:43:32Z</time></trkpt><trkpt lat="44.28758563742991" lon="11.996393888776272"><ele>15.333333333333332</ele><time>2026-05-03T12:43:33Z</time></trkpt><trkpt lat="44.28762738191392" lon="11.99629188675544"><ele>15.666666666666666</ele><time>2026-05-03T12:43:34Z</time></trkpt><trkpt lat="44.28766737473548" lon="11.99619349839997"><ele>16.0</ele><time>2026-05-03T12:43:35Z</time></trkpt><trkpt lat="44.28771061468219" lon="11.996090558354217"><ele>16.0</ele><time>2026-05-03T12:43:36Z</time></trkpt><trkpt lat="44.287759197859565" lon="11.99597732490747"><ele>16.0</ele><time>2026-05-03T12:43:37Z</time></trkpt><trkpt lat="44.28780880626331" lon="11.995853547038298"><ele>16.0</ele><time>2026-05-03T12:43:38Z</time></trkpt><trkpt lat="44.28786478216265" lon="11.995722565372175"><ele>16.0</ele><time>2026-05-03T12:43:39Z</time></trkpt><trkpt lat="44.287920470681584" lon="11.995584192560672"><ele>16.0</ele><time>2026-05-03T12:43:40Z</time></trkpt><trkpt lat="44.28797786751943" lon="11.995444607548292"><ele>16.2</ele><time>2026-05-03T12:43:41Z</time></trkpt><trkpt lat="44.288036696615166" lon="11.995303997749208"><ele>16.400000000000002</ele><time>2026-05-03T12:43:42Z</time></trkpt><trkpt lat="44.288094469792576" lon="11.995165755488404"><ele>16.6</ele><time>2026-05-03T12:43:43Z</time></trkpt><trkpt lat="44.288149283189576" lon="11.99503725643126"><ele>16.8</ele><time>2026-05-03T12:43:44Z</time></trkpt><trkpt lat="44.28820123776539" lon="11.994916958968192"><ele>17.0</ele><time>2026-05-03T12:43:45Z</time></trkpt><trkpt lat="44.288247822488096" lon="11.994803735580112"><ele>16.666666666666668</ele><time>2026-05-03T12:43:46Z</time></trkpt><trkpt lat="44.288293887441064" lon="11.994697551526759"><ele>16.333333333333336</ele><time>2026-05-03T12:43:47Z</time></trkpt><trkpt lat="44.28833848464325" lon="11.994593227659058"><ele>16.0</ele><time>2026-05-03T12:43:48Z</time></trkpt><trkpt lat="44.28838313578258" lon="11.994487592411062"><ele>15.666666666666668</ele><time>2026-05-03T12:43:49Z</time></trkpt><trkpt lat="44.288427591178916" lon="11.994383531008562"><ele>15.333333333333334</ele><time>2026-05-03T12:43:50Z</time></trkpt><trkpt lat="44.28847047473099" lon="11.994283990099644"><ele>15.0</ele><time>2026-05-03T12:43:51Z</time></trkpt><trkpt lat="44.2885074173934" lon="11.994195794822616"><ele>15.0</ele><time>2026-05-03T12:43:52Z</time></trkpt><trkpt lat="44.288540053103794" lon="11.994115543013155"><ele>15.0</ele><time>2026-05-03T12:43:53Z</time></trkpt><trkpt lat="44.28858097976774" lon="11.99401090756762"><ele>15.0</ele><time>2026-05-03T12:43:55Z</time></trkpt><trkpt lat="44.28861936624777" lon="11.993920052467875"><ele>15.0</ele><time>2026-05-03T12:43:58Z</time></trkpt><trkpt lat="44.288673580206556" lon="11.99379749417426"><ele>15.0</ele><time>2026-05-03T12:44:01Z</time></trkpt><trkpt lat="44.28871564755026" lon="11.993690506010665"><ele>15.0</ele><time>2026-05-03T12:44:03Z</time></trkpt><trkpt lat="44.28875009263106" lon="11.99360950574176"><ele>15.0</ele><time>2026-05-03T12:44:05Z</time></trkpt><trkpt lat="44.288791645045706" lon="11.993504292417176"><ele>15.0</ele><time>2026-05-03T12:44:07Z</time></trkpt><trkpt lat="44.28884762409388" lon="11.99336886277563"><ele>15.0</ele><time>2026-05-03T12:44:09Z</time></trkpt><trkpt lat="44.28891261196986" lon="11.993216837229404"><ele>15.0</ele><time>2026-05-03T12:44:11Z</time></trkpt><trkpt lat="44.288949972025186" lon="11.993127059037802"><ele>15.0</ele><time>2026-05-03T12:44:12Z</time></trkpt><trkpt lat="44.28898971046022" lon="11.993029780969152"><ele>14.6</ele><time>2026-05-03T12:44:13Z</time></trkpt><trkpt lat="44.28903138536349" lon="11.992926657687427"><ele>14.2</ele><time>2026-05-03T12:44:14Z</time></trkpt><trkpt lat="44.289076376934986" lon="11.992819513912348"><ele>13.8</ele><time>2026-05-03T12:44:15Z</time></trkpt><trkpt lat="44.289125391748044" lon="11.992705168672751"><ele>13.4</ele><time>2026-05-03T12:44:16Z</time></trkpt><trkpt lat="44.28917846052896" lon="11.992585624766694"><ele>13.0</ele><time>2026-05-03T12:44:17Z</time></trkpt><trkpt lat="44.289231277694434" lon="11.992463072835038"><ele>13.0</ele><time>2026-05-03T12:44:18Z</time></trkpt><trkpt lat="44.289285194619154" lon="11.99233700100777"><ele>13.0</ele><time>2026-05-03T12:44:19Z</time></trkpt><trkpt lat="44.28933877283342" lon="11.992209912631912"><ele>13.0</ele><time>2026-05-03T12:44:20Z</time></trkpt><trkpt lat="44.289392092576726" lon="11.992080709907022"><ele>13.0</ele><time>2026-05-03T12:44:21Z</time></trkpt><trkpt lat="44.289447530941196" lon="11.991949651891849"><ele>13.0</ele><time>2026-05-03T12:44:22Z</time></trkpt><trkpt lat="44.28950317554619" lon="11.991816700062694"><ele>13.0</ele><time>2026-05-03T12:44:23Z</time></trkpt><trkpt lat="44.28955972542183" lon="11.991682403636633"><ele>13.0</ele><time>2026-05-03T12:44:24Z</time></trkpt><trkpt lat="44.289616870403904" lon="11.991546333820946"><ele>13.0</ele><time>2026-05-03T12:44:25Z</time></trkpt><trkpt lat="44.28967460037458" lon="11.991408703895074"><ele>13.0</ele><time>2026-05-03T12:44:26Z</time></trkpt><trkpt lat="44.289733197142965" lon="11.991270474621665"><ele>13.25</ele><time>2026-05-03T12:44:27Z</time></trkpt><trkpt lat="44.289791092302636" lon="11.991131640355986"><ele>13.5</ele><time>2026-05-03T12:44:28Z</time></trkpt><trkpt lat="44.28985012435261" lon="11.990992844532967"><ele>13.75</ele><time>2026-05-03T12:44:29Z</time></trkpt><trkpt lat="44.28990927433286" lon="11.990853287148674"><ele>14.0</ele><time>2026-05-03T12:44:30Z</time></trkpt><trkpt lat="44.289968930337324" lon="11.990711354220194"><ele>14.25</ele><time>2026-05-03T12:44:31Z</time></trkpt><trkpt lat="44.290029068572956" lon="11.990566125148675"><ele>14.5</ele><time>2026-05-03T12:44:32Z</time></trkpt><trkpt lat="44.29009029393162" lon="11.990423811110208"><ele>14.75</ele><time>2026-05-03T12:44:33Z</time></trkpt><trkpt lat="44.290150518342216" lon="11.990283238107091"><ele>15.0</ele><time>2026-05-03T12:44:34Z</time></trkpt><trkpt lat="44.29020969991787" lon="11.990141869458009"><ele>14.75</ele><time>2026-05-03T12:44:35Z</time></trkpt><trkpt lat="44.2902689465787" lon="11.990002986959016"><ele>14.5</ele><time>2026-05-03T12:44:36Z</time></trkpt><trkpt lat="44.29032781774778" lon="11.98986293048899"><ele>14.25</ele><time>2026-05-03T12:44:37Z</time></trkpt><trkpt lat="44.29038504746517" lon="11.989722686723224"><ele>14.0</ele><time>2026-05-03T12:44:38Z</time></trkpt><trkpt lat="44.29044716036861" lon="11.989579566419966"><ele>14.0</ele><time>2026-05-03T12:44:39Z</time></trkpt><trkpt lat="44.29051009798511" lon="11.989430834249303"><ele>14.0</ele><time>2026-05-03T12:44:40Z</time></trkpt><trkpt lat="44.29057605942421" lon="11.989279833273047"><ele>14.0</ele><time>2026-05-03T12:44:41Z</time></trkpt><trkpt lat="44.29064094610942" lon="11.989120034524564"><ele>14.0</ele><time>2026-05-03T12:44:42Z</time></trkpt><trkpt lat="44.290709245508914" lon="11.988952654505992"><ele>14.0</ele><time>2026-05-03T12:44:43Z</time></trkpt><trkpt lat="44.29078297127218" lon="11.988776053594307"><ele>14.0</ele><time>2026-05-03T12:44:44Z</time></trkpt><trkpt lat="44.29085626269721" lon="11.988597923088378"><ele>14.0</ele><time>2026-05-03T12:44:45Z</time></trkpt><trkpt lat="44.29093259708676" lon="11.988416046038274"><ele>14.0</ele><time>2026-05-03T12:44:46Z</time></trkpt><trkpt lat="44.29100847730014" lon="11.988230112022535"><ele>13.666666666666668</ele><time>2026-05-03T12:44:47Z</time></trkpt><trkpt lat="44.291085165322066" lon="11.988042868288366"><ele>13.333333333333332</ele><time>2026-05-03T12:44:48Z</time></trkpt><trkpt lat="44.29116261840224" lon="11.987852152225008"><ele>13.0</ele><time>2026-05-03T12:44:49Z</time></trkpt><trkpt lat="44.29123722896023" lon="11.987660231543778"><ele>12.666666666666666</ele><time>2026-05-03T12:44:50Z</time></trkpt><trkpt lat="44.29131226324413" lon="11.987468328043422"><ele>12.333333333333332</ele><time>2026-05-03T12:44:51Z</time></trkpt><trkpt lat="44.2913902587381" lon="11.987276493724472"><ele>12.0</ele><time>2026-05-03T12:44:52Z</time></trkpt><trkpt lat="44.291467288047656" lon="11.9870828786762"><ele>12.0</ele><time>2026-05-03T12:44:53Z</time></trkpt><trkpt lat="44.291544618414775" lon="11.986885777772525"><ele>12.0</ele><time>2026-05-03T12:44:54Z</time></trkpt><trkpt lat="44.29162215397676" lon="11.986682355688774"><ele>12.0</ele><time>2026-05-03T12:44:55Z</time></trkpt><trkpt lat="44.29169843921467" lon="11.986478210240058"><ele>12.0</ele><time>2026-05-03T12:44:56Z</time></trkpt><trkpt lat="44.29177606008847" lon="11.986267720670536"><ele>12.0</ele><time>2026-05-03T12:44:57Z</time></trkpt><trkpt lat="44.291853284828626" lon="11.986056473705926"><ele>12.0</ele><time>2026-05-03T12:44:58Z</time></trkpt><trkpt lat="44.29193260266901" lon="11.985843130581117"><ele>13.0</ele><time>2026-05-03T12:44:59Z</time></trkpt><trkpt lat="44.292007457918395" lon="11.985634149126541"><ele>14.0</ele><time>2026-05-03T12:45:00Z</time></trkpt><trkpt lat="44.292084377953955" lon="11.98542499742092"><ele>15.0</ele><time>2026-05-03T12:45:01Z</time></trkpt><trkpt lat="44.292163542145055" lon="11.985207383026848"><ele>14.666666666666668</ele><time>2026-05-03T12:45:02Z</time></trkpt><trkpt lat="44.29224497781142" lon="11.98498334873002"><ele>14.333333333333334</ele><time>2026-05-03T12:45:03Z</time></trkpt><trkpt lat="44.29232925650264" lon="11.984753871082765"><ele>14.0</ele><time>2026-05-03T12:45:04Z</time></trkpt><trkpt lat="44.29237527855505" lon="11.984603366011049"><ele>14.0</ele><time>2026-05-03T12:45:05Z</time></trkpt><trkpt lat="44.29245069883862" lon="11.984396835627994"><ele>14.0</ele><time>2026-05-03T12:45:06Z</time></trkpt><trkpt lat="44.29252555825368" lon="11.98418698620406"><ele>14.0</ele><time>2026-05-03T12:45:07Z</time></trkpt><trkpt lat="44.292600929656444" lon="11.983980951404613"><ele>14.333333333333334</ele><time>2026-05-03T12:45:07.999Z</time></trkpt><trkpt lat="44.292673868954935" lon="11.983775193149752"><ele>14.666666666666668</ele><time>2026-05-03T12:45:08.999Z</time></trkpt><trkpt lat="44.29274643366655" lon="11.983569498498674"><ele>15.0</ele><time>2026-05-03T12:45:09.999Z</time></trkpt><trkpt lat="44.29281456517694" lon="11.983367517997078"><ele>15.0</ele><time>2026-05-03T12:45:10.999Z</time></trkpt><trkpt lat="44.29289296420871" lon="11.983158799666734"><ele>15.0</ele><time>2026-05-03T12:45:11.999Z</time></trkpt><trkpt lat="44.29296753789222" lon="11.982951283608239"><ele>15.0</ele><time>2026-05-03T12:45:12.999Z</time></trkpt><trkpt lat="44.2930358663988" lon="11.982745856156019"><ele>15.0</ele><time>2026-05-03T12:45:13.999Z</time></trkpt><trkpt lat="44.29310546287649" lon="11.982557512082616"><ele>15.0</ele><time>2026-05-03T12:45:14.999Z</time></trkpt><trkpt lat="44.29317009942377" lon="11.982381112411273"><ele>15.0</ele><time>2026-05-03T12:45:15.999Z</time></trkpt><trkpt lat="44.29323219569552" lon="11.982213943680218"><ele>15.0</ele><time>2026-05-03T12:45:16.999Z</time></trkpt><trkpt lat="44.29329079094761" lon="11.982043787688367"><ele>15.0</ele><time>2026-05-03T12:45:17.999Z</time></trkpt><trkpt lat="44.29335147897877" lon="11.981868850032859"><ele>15.0</ele><time>2026-05-03T12:45:18.999Z</time></trkpt><trkpt lat="44.29341459075486" lon="11.981691861067395"><ele>15.0</ele><time>2026-05-03T12:45:19.999Z</time></trkpt><trkpt lat="44.29347435528887" lon="11.981514272346345"><ele>15.0</ele><time>2026-05-03T12:45:20.999Z</time></trkpt><trkpt lat="44.293543091374076" lon="11.981332182392556"><ele>14.75</ele><time>2026-05-03T12:45:21.999Z</time></trkpt><trkpt lat="44.293607755044754" lon="11.981145448344737"><ele>14.5</ele><time>2026-05-03T12:45:22.999Z</time></trkpt><trkpt lat="44.29367136542464" lon="11.980963389294516"><ele>14.25</ele><time>2026-05-03T12:45:23.999Z</time></trkpt><trkpt lat="44.293738253533434" lon="11.980787036638956"><ele>14.0</ele><time>2026-05-03T12:45:25Z</time></trkpt><trkpt lat="44.29380348051582" lon="11.98060202776393"><ele>14.0</ele><time>2026-05-03T12:45:26Z</time></trkpt><trkpt lat="44.29386679754393" lon="11.980418068743152"><ele>14.0</ele><time>2026-05-03T12:45:27Z</time></trkpt><trkpt lat="44.2939311047487" lon="11.98023874528075"><ele>14.0</ele><time>2026-05-03T12:45:28Z</time></trkpt><trkpt lat="44.29399520055124" lon="11.980058739912405"><ele>14.0</ele><time>2026-05-03T12:45:29Z</time></trkpt><trkpt lat="44.2940583421107" lon="11.979880625848155"><ele>14.25</ele><time>2026-05-03T12:45:30Z</time></trkpt><trkpt lat="44.29412132336362" lon="11.979705111736967"><ele>14.5</ele><time>2026-05-03T12:45:31Z</time></trkpt><trkpt lat="44.2941837196488" lon="11.979529136575792"><ele>14.75</ele><time>2026-05-03T12:45:32Z</time></trkpt><trkpt lat="44.294247191263544" lon="11.979353763950096"><ele>15.0</ele><time>2026-05-03T12:45:33Z</time></trkpt><trkpt lat="44.29430620377633" lon="11.979180531775539"><ele>15.0</ele><time>2026-05-03T12:45:34Z</time></trkpt><trkpt lat="44.29436209865091" lon="11.979018041077897"><ele>15.0</ele><time>2026-05-03T12:45:35Z</time></trkpt><trkpt lat="44.294417297325964" lon="11.978860195280888"><ele>15.0</ele><time>2026-05-03T12:45:36Z</time></trkpt><trkpt lat="44.29447441881151" lon="11.978701880357445"><ele>15.0</ele><time>2026-05-03T12:45:37Z</time></trkpt><trkpt lat="44.29453136771961" lon="11.978543424551114"><ele>15.0</ele><time>2026-05-03T12:45:38Z</time></trkpt><trkpt lat="44.294590805419624" lon="11.978382763668884"><ele>15.0</ele><time>2026-05-03T12:45:39Z</time></trkpt><trkpt lat="44.29464978755188" lon="11.9782201461583"><ele>15.0</ele><time>2026-05-03T12:45:40Z</time></trkpt><trkpt lat="44.29470700655211" lon="11.97805371026613"><ele>15.0</ele><time>2026-05-03T12:45:41Z</time></trkpt><trkpt lat="44.294766602671785" lon="11.977886754947312"><ele>15.0</ele><time>2026-05-03T12:45:42Z</time></trkpt><trkpt lat="44.294824144281506" lon="11.977720356260585"><ele>15.0</ele><time>2026-05-03T12:45:43Z</time></trkpt><trkpt lat="44.294884163654366" lon="11.977546164413887"><ele>15.0</ele><time>2026-05-03T12:45:44Z</time></trkpt><trkpt lat="44.29494861163299" lon="11.977369926441506"><ele>15.0</ele><time>2026-05-03T12:45:45Z</time></trkpt><trkpt lat="44.29501025161934" lon="11.977192545134175"><ele>14.75</ele><time>2026-05-03T12:45:46Z</time></trkpt><trkpt lat="44.29507338575724" lon="11.977016092753859"><ele>14.5</ele><time>2026-05-03T12:45:47Z</time></trkpt><trkpt lat="44.29513598186869" lon="11.976845474008798"><ele>14.25</ele><time>2026-05-03T12:45:48Z</time></trkpt><trkpt lat="44.295192241623155" lon="11.976674619669875"><ele>14.0</ele><time>2026-05-03T12:45:49Z</time></trkpt><trkpt lat="44.29525230879786" lon="11.976508131813123"><ele>14.0</ele><time>2026-05-03T12:45:50Z</time></trkpt><trkpt lat="44.295311034403646" lon="11.976344032762368"><ele>14.0</ele><time>2026-05-03T12:45:51Z</time></trkpt><trkpt lat="44.295370046409055" lon="11.976178199578873"><ele>14.0</ele><time>2026-05-03T12:45:52Z</time></trkpt><trkpt lat="44.29542896287879" lon="11.97601446859993"><ele>14.0</ele><time>2026-05-03T12:45:53Z</time></trkpt><trkpt lat="44.29548611228319" lon="11.97585185511669"><ele>14.0</ele><time>2026-05-03T12:45:54Z</time></trkpt><trkpt lat="44.29554484459099" lon="11.975689370728395"><ele>14.0</ele><time>2026-05-03T12:45:55Z</time></trkpt><trkpt lat="44.295601484655535" lon="11.975526152087985"><ele>14.0</ele><time>2026-05-03T12:45:56Z</time></trkpt><trkpt lat="44.29565946392461" lon="11.97536465880921"><ele>14.0</ele><time>2026-05-03T12:45:57Z</time></trkpt><trkpt lat="44.29571610941537" lon="11.97520373763308"><ele>14.0</ele><time>2026-05-03T12:45:58Z</time></trkpt><trkpt lat="44.29577243364464" lon="11.975047208380083"><ele>14.0</ele><time>2026-05-03T12:45:59Z</time></trkpt><trkpt lat="44.29582802813403" lon="11.97489327763249"><ele>14.0</ele><time>2026-05-03T12:46:00Z</time></trkpt><trkpt lat="44.2958799037259" lon="11.974736935092103"><ele>14.0</ele><time>2026-05-03T12:46:01Z</time></trkpt><trkpt lat="44.295931760171335" lon="11.974576068313327"><ele>14.0</ele><time>2026-05-03T12:46:02Z</time></trkpt><trkpt lat="44.295991654311294" lon="11.974427932962598"><ele>14.0</ele><time>2026-05-03T12:46:03Z</time></trkpt><trkpt lat="44.29604433814362" lon="11.974271148323268"><ele>14.0</ele><time>2026-05-03T12:46:04Z</time></trkpt><trkpt lat="44.29609914872197" lon="11.974116817396494"><ele>14.0</ele><time>2026-05-03T12:46:05Z</time></trkpt><trkpt lat="44.29615741326484" lon="11.97396118427376"><ele>14.25</ele><time>2026-05-03T12:46:06Z</time></trkpt><trkpt lat="44.2962151971451" lon="11.973803992622786"><ele>14.5</ele><time>2026-05-03T12:46:07Z</time></trkpt><trkpt lat="44.29626908778146" lon="11.973643041756006"><ele>14.75</ele><time>2026-05-03T12:46:08Z</time></trkpt><trkpt lat="44.296324676616486" lon="11.973486150479584"><ele>15.0</ele><time>2026-05-03T12:46:09Z</time></trkpt><trkpt lat="44.296379267005165" lon="11.97332866490929"><ele>14.75</ele><time>2026-05-03T12:46:10Z</time></trkpt><trkpt lat="44.296433689802676" lon="11.973174702757648"><ele>14.5</ele><time>2026-05-03T12:46:11Z</time></trkpt><trkpt lat="44.29648955298136" lon="11.973021990831183"><ele>14.25</ele><time>2026-05-03T12:46:12Z</time></trkpt><trkpt lat="44.29654556939332" lon="11.972867013236584"><ele>14.0</ele><time>2026-05-03T12:46:13Z</time></trkpt><trkpt lat="44.296602030273505" lon="11.97271032419286"><ele>14.0</ele><time>2026-05-03T12:46:14Z</time></trkpt><trkpt lat="44.296660577634924" lon="11.972550822930035"><ele>14.0</ele><time>2026-05-03T12:46:15Z</time></trkpt><trkpt lat="44.29671902639554" lon="11.972385646088073"><ele>14.0</ele><time>2026-05-03T12:46:16Z</time></trkpt><trkpt lat="44.29677818543166" lon="11.972219657362059"><ele>14.0</ele><time>2026-05-03T12:46:17Z</time></trkpt><trkpt lat="44.29683773927004" lon="11.972050545831001"><ele>14.25</ele><time>2026-05-03T12:46:18Z</time></trkpt><trkpt lat="44.29689599513137" lon="11.971881769617768"><ele>14.5</ele><time>2026-05-03T12:46:19Z</time></trkpt><trkpt lat="44.29695498369648" lon="11.971712431813458"><ele>14.75</ele><time>2026-05-03T12:46:20Z</time></trkpt><trkpt lat="44.297014412558774" lon="11.971543615586672"><ele>15.0</ele><time>2026-05-03T12:46:21Z</time></trkpt><trkpt lat="44.29707671302034" lon="11.971375132680068"><ele>15.25</ele><time>2026-05-03T12:46:22Z</time></trkpt><trkpt lat="44.29713749010875" lon="11.971205852195189"><ele>15.5</ele><time>2026-05-03T12:46:23Z</time></trkpt><trkpt lat="44.297198657375475" lon="11.971034279966268"><ele>15.75</ele><time>2026-05-03T12:46:24Z</time></trkpt><trkpt lat="44.29726031741174" lon="11.97086222115134"><ele>16.0</ele><time>2026-05-03T12:46:25Z</time></trkpt><trkpt lat="44.29732311337671" lon="11.970682387562976"><ele>16.333333333333332</ele><time>2026-05-03T12:46:26Z</time></trkpt><trkpt lat="44.29738888574459" lon="11.970501357911957"><ele>16.666666666666668</ele><time>2026-05-03T12:46:27Z</time></trkpt><trkpt lat="44.29745715505811" lon="11.970310461558203"><ele>17.0</ele><time>2026-05-03T12:46:28Z</time></trkpt><trkpt lat="44.29753227216401" lon="11.970109460615902"><ele>16.666666666666668</ele><time>2026-05-03T12:46:29Z</time></trkpt><trkpt lat="44.29761037079402" lon="11.969902591337199"><ele>16.333333333333332</ele><time>2026-05-03T12:46:30Z</time></trkpt><trkpt lat="44.2976899028403" lon="11.969688454970706"><ele>16.0</ele><time>2026-05-03T12:46:31Z</time></trkpt><trkpt lat="44.29777245528051" lon="11.969470338152053"><ele>16.0</ele><time>2026-05-03T12:46:32Z</time></trkpt><trkpt lat="44.29785211237068" lon="11.969258431005386"><ele>16.0</ele><time>2026-05-03T12:46:33Z</time></trkpt><trkpt lat="44.29793272832392" lon="11.96904876747849"><ele>16.0</ele><time>2026-05-03T12:46:34Z</time></trkpt><trkpt lat="44.29801490881739" lon="11.96884201375223"><ele>16.333333333333332</ele><time>2026-05-03T12:46:35Z</time></trkpt><trkpt lat="44.298093970027146" lon="11.968633229734152"><ele>16.666666666666668</ele><time>2026-05-03T12:46:36Z</time></trkpt><trkpt lat="44.298174215457955" lon="11.968422292511017"><ele>17.0</ele><time>2026-05-03T12:46:37Z</time></trkpt><trkpt lat="44.29825521994483" lon="11.968212184852753"><ele>17.333333333333336</ele><time>2026-05-03T12:46:38Z</time></trkpt><trkpt lat="44.29833444222299" lon="11.967995326943726"><ele>17.666666666666668</ele><time>2026-05-03T12:46:39Z</time></trkpt><trkpt lat="44.29841830619103" lon="11.967779610463731"><ele>18.0</ele><time>2026-05-03T12:46:40Z</time></trkpt><trkpt lat="44.29850146906256" lon="11.967561068524333"><ele>17.666666666666668</ele><time>2026-05-03T12:46:41Z</time></trkpt><trkpt lat="44.29858607480842" lon="11.967344629689043"><ele>17.333333333333336</ele><time>2026-05-03T12:46:42Z</time></trkpt><trkpt lat="44.298668298879015" lon="11.967126508527388"><ele>17.0</ele><time>2026-05-03T12:46:43Z</time></trkpt><trkpt lat="44.29875170844539" lon="11.966909408608217"><ele>17.0</ele><time>2026-05-03T12:46:44Z</time></trkpt><trkpt lat="44.29883708302416" lon="11.966692710099535"><ele>17.0</ele><time>2026-05-03T12:46:45Z</time></trkpt><trkpt lat="44.29892123074164" lon="11.9664733668594"><ele>17.0</ele><time>2026-05-03T12:46:46Z</time></trkpt><trkpt lat="44.29900844924317" lon="11.966253467145796"><ele>17.0</ele><time>2026-05-03T12:46:47Z</time></trkpt><trkpt lat="44.29909318697987" lon="11.966033710447537"><ele>17.0</ele><time>2026-05-03T12:46:48Z</time></trkpt><trkpt lat="44.299178638154764" lon="11.965809211713193"><ele>17.0</ele><time>2026-05-03T12:46:49Z</time></trkpt><trkpt lat="44.29926713686612" lon="11.96558267680068"><ele>17.0</ele><time>2026-05-03T12:46:50Z</time></trkpt><trkpt lat="44.29935749581669" lon="11.965350134079317"><ele>17.0</ele><time>2026-05-03T12:46:51Z</time></trkpt><trkpt lat="44.299448928878945" lon="11.96511408325895"><ele>17.0</ele><time>2026-05-03T12:46:52Z</time></trkpt><trkpt lat="44.29954078307001" lon="11.964870016648375"><ele>17.0</ele><time>2026-05-03T12:46:53Z</time></trkpt><trkpt lat="44.29963517847354" lon="11.964624119527254"><ele>17.0</ele><time>2026-05-03T12:46:54Z</time></trkpt><trkpt lat="44.299727987507254" lon="11.9643679805974"><ele>17.0</ele><time>2026-05-03T12:46:55Z</time></trkpt><trkpt lat="44.29981460442001" lon="11.964121784083824"><ele>17.666666666666668</ele><time>2026-05-03T12:46:56Z</time></trkpt><trkpt lat="44.29990350349291" lon="11.963871345557084"><ele>18.333333333333332</ele><time>2026-05-03T12:46:57Z</time></trkpt><trkpt lat="44.29999256917103" lon="11.963632793970053"><ele>19.0</ele><time>2026-05-03T12:46:58Z</time></trkpt><trkpt lat="44.30008021095549" lon="11.963408240329478"><ele>18.666666666666664</ele><time>2026-05-03T12:46:59Z</time></trkpt><trkpt lat="44.30016304207208" lon="11.963181130517068"><ele>18.333333333333332</ele><time>2026-05-03T12:47:00Z</time></trkpt><trkpt lat="44.3002470772435" lon="11.962974732770435"><ele>18.0</ele><time>2026-05-03T12:47:01Z</time></trkpt><trkpt lat="44.300326805734734" lon="11.962777674393637"><ele>18.0</ele><time>2026-05-03T12:47:02Z</time></trkpt><trkpt lat="44.30040437237523" lon="11.96258085167221"><ele>18.0</ele><time>2026-05-03T12:47:03Z</time></trkpt><trkpt lat="44.30047801537945" lon="11.962389480590629"><ele>18.0</ele><time>2026-05-03T12:47:04Z</time></trkpt><trkpt lat="44.300552169658005" lon="11.962196896904246"><ele>18.0</ele><time>2026-05-03T12:47:05Z</time></trkpt><trkpt lat="44.30062611380968" lon="11.96200548034877"><ele>18.0</ele><time>2026-05-03T12:47:06Z</time></trkpt><trkpt lat="44.300700398612236" lon="11.961815124879747"><ele>18.0</ele><time>2026-05-03T12:47:07Z</time></trkpt><trkpt lat="44.30077385095845" lon="11.961627398665478"><ele>18.0</ele><time>2026-05-03T12:47:08Z</time></trkpt><trkpt lat="44.300846385084185" lon="11.96144124851153"><ele>18.0</ele><time>2026-05-03T12:47:09Z</time></trkpt><trkpt lat="44.30091747679321" lon="11.961267294605479"><ele>18.0</ele><time>2026-05-03T12:47:10Z</time></trkpt><trkpt lat="44.30098623331502" lon="11.961101093225023"><ele>18.0</ele><time>2026-05-03T12:47:11Z</time></trkpt><trkpt lat="44.301053029638666" lon="11.960934442030391"><ele>18.25</ele><time>2026-05-03T12:47:12Z</time></trkpt><trkpt lat="44.30112111997276" lon="11.960770516297048"><ele>18.5</ele><time>2026-05-03T12:47:13Z</time></trkpt><trkpt lat="44.30118563470416" lon="11.960604269078294"><ele>18.75</ele><time>2026-05-03T12:47:14Z</time></trkpt><trkpt lat="44.30124959365417" lon="11.960436825713616"><ele>19.0</ele><time>2026-05-03T12:47:15Z</time></trkpt><trkpt lat="44.30131179183935" lon="11.960275271911192"><ele>19.0</ele><time>2026-05-03T12:47:16Z</time></trkpt><trkpt lat="44.30137440390244" lon="11.960112811947342"><ele>19.0</ele><time>2026-05-03T12:47:17Z</time></trkpt><trkpt lat="44.301437418606355" lon="11.959948733919742"><ele>19.0</ele><time>2026-05-03T12:47:18Z</time></trkpt><trkpt lat="44.30150121523652" lon="11.959784290072868"><ele>19.0</ele><time>2026-05-03T12:47:19Z</time></trkpt><trkpt lat="44.301564969848066" lon="11.959616313758941"><ele>19.25</ele><time>2026-05-03T12:47:20Z</time></trkpt><trkpt lat="44.30163019294204" lon="11.959445138730086"><ele>19.5</ele><time>2026-05-03T12:47:20.999Z</time></trkpt><trkpt lat="44.301693525512654" lon="11.959276580692443"><ele>19.75</ele><time>2026-05-03T12:47:21.999Z</time></trkpt><trkpt lat="44.30175274778323" lon="11.959121009395872"><ele>20.0</ele><time>2026-05-03T12:47:22.999Z</time></trkpt><trkpt lat="44.301809319255604" lon="11.958971914311714"><ele>20.0</ele><time>2026-05-03T12:47:23.999Z</time></trkpt><trkpt lat="44.30186533227382" lon="11.958828959857941"><ele>20.0</ele><time>2026-05-03T12:47:24.999Z</time></trkpt><trkpt lat="44.301919738357896" lon="11.958689939149318"><ele>20.0</ele><time>2026-05-03T12:47:25.999Z</time></trkpt><trkpt lat="44.30197150723401" lon="11.95855134693408"><ele>20.0</ele><time>2026-05-03T12:47:26.999Z</time></trkpt><trkpt lat="44.302022633966175" lon="11.958414495717939"><ele>19.75</ele><time>2026-05-03T12:47:27.999Z</time></trkpt><trkpt lat="44.30208045436894" lon="11.95826960856403"><ele>19.5</ele><time>2026-05-03T12:47:28.999Z</time></trkpt><trkpt lat="44.30213941245137" lon="11.958114868715755"><ele>19.25</ele><time>2026-05-03T12:47:29.999Z</time></trkpt><trkpt lat="44.302200883306845" lon="11.957953722165994"><ele>19.0</ele><time>2026-05-03T12:47:31Z</time></trkpt><trkpt lat="44.3022642549675" lon="11.957788380777199"><ele>19.0</ele><time>2026-05-03T12:47:32Z</time></trkpt><trkpt lat="44.3023292094029" lon="11.957624697669523"><ele>19.0</ele><time>2026-05-03T12:47:33Z</time></trkpt><trkpt lat="44.302393114536976" lon="11.957458359716494"><ele>19.0</ele><time>2026-05-03T12:47:34Z</time></trkpt><trkpt lat="44.30245520982698" lon="11.957294114545611"><ele>19.0</ele><time>2026-05-03T12:47:35Z</time></trkpt><trkpt lat="44.30251374614597" lon="11.957137776971452"><ele>19.0</ele><time>2026-05-03T12:47:36Z</time></trkpt><trkpt lat="44.302570426323896" lon="11.956984171463747"><ele>19.0</ele><time>2026-05-03T12:47:37Z</time></trkpt><trkpt lat="44.30262620234546" lon="11.956836875207294"><ele>19.0</ele><time>2026-05-03T12:47:38Z</time></trkpt><trkpt lat="44.302681541668086" lon="11.95669068039705"><ele>19.0</ele><time>2026-05-03T12:47:39Z</time></trkpt><trkpt lat="44.30273710952564" lon="11.956549291436115"><ele>19.25</ele><time>2026-05-03T12:47:40Z</time></trkpt><trkpt lat="44.30279399097017" lon="11.956401327805853"><ele>19.5</ele><time>2026-05-03T12:47:41Z</time></trkpt><trkpt lat="44.30285300328671" lon="11.95624686982358"><ele>19.75</ele><time>2026-05-03T12:47:42Z</time></trkpt><trkpt lat="44.30291733702546" lon="11.956086289534934"><ele>20.0</ele><time>2026-05-03T12:47:43Z</time></trkpt><trkpt lat="44.30297875475337" lon="11.95593033940761"><ele>20.0</ele><time>2026-05-03T12:47:44Z</time></trkpt><trkpt lat="44.3030402248397" lon="11.955768997607306"><ele>20.0</ele><time>2026-05-03T12:47:45Z</time></trkpt><trkpt lat="44.30310119949539" lon="11.955613428516006"><ele>20.0</ele><time>2026-05-03T12:47:46Z</time></trkpt><trkpt lat="44.30316121238454" lon="11.955455415051114"><ele>20.0</ele><time>2026-05-03T12:47:47Z</time></trkpt><trkpt lat="44.303222297685004" lon="11.955299120679992"><ele>20.0</ele><time>2026-05-03T12:47:48Z</time></trkpt><trkpt lat="44.30328211139165" lon="11.955141438973216"><ele>20.0</ele><time>2026-05-03T12:47:49Z</time></trkpt><trkpt lat="44.30334154072951" lon="11.954984629805582"><ele>20.0</ele><time>2026-05-03T12:47:50Z</time></trkpt><trkpt lat="44.30340091074636" lon="11.954827614725936"><ele>20.0</ele><time>2026-05-03T12:47:51Z</time></trkpt><trkpt lat="44.30346105208234" lon="11.954670944838504"><ele>20.0</ele><time>2026-05-03T12:47:52Z</time></trkpt><trkpt lat="44.30351963110172" lon="11.95451468617223"><ele>20.0</ele><time>2026-05-03T12:47:53Z</time></trkpt><trkpt lat="44.30358028370034" lon="11.954361998744911"><ele>20.0</ele><time>2026-05-03T12:47:54Z</time></trkpt><trkpt lat="44.303638259708656" lon="11.954208135102693"><ele>20.0</ele><time>2026-05-03T12:47:55Z</time></trkpt><trkpt lat="44.303696968079954" lon="11.954054364169203"><ele>20.0</ele><time>2026-05-03T12:47:56Z</time></trkpt><trkpt lat="44.303757629653" lon="11.953898851304546"><ele>20.0</ele><time>2026-05-03T12:47:57Z</time></trkpt><trkpt lat="44.30381906026585" lon="11.953743622585858"><ele>20.0</ele><time>2026-05-03T12:47:58Z</time></trkpt><trkpt lat="44.303876206328574" lon="11.953585618790182"><ele>20.0</ele><time>2026-05-03T12:47:59Z</time></trkpt><trkpt lat="44.30393653356207" lon="11.953430281691409"><ele>20.0</ele><time>2026-05-03T12:48:00Z</time></trkpt><trkpt lat="44.30399771759115" lon="11.953276407361352"><ele>20.0</ele><time>2026-05-03T12:48:01Z</time></trkpt><trkpt lat="44.30405668311302" lon="11.953119818358187"><ele>20.0</ele><time>2026-05-03T12:48:02Z</time></trkpt><trkpt lat="44.304113975910504" lon="11.952964354641097"><ele>20.0</ele><time>2026-05-03T12:48:03Z</time></trkpt><trkpt lat="44.30417057174786" lon="11.952810237579849"><ele>20.0</ele><time>2026-05-03T12:48:04Z</time></trkpt><trkpt lat="44.304227736678044" lon="11.952660458917967"><ele>20.0</ele><time>2026-05-03T12:48:05Z</time></trkpt><trkpt lat="44.304286054399064" lon="11.952508752127265"><ele>20.0</ele><time>2026-05-03T12:48:06Z</time></trkpt><trkpt lat="44.304344399814795" lon="11.952358364963901"><ele>20.0</ele><time>2026-05-03T12:48:07Z</time></trkpt><trkpt lat="44.304404769237884" lon="11.952207302735786"><ele>20.0</ele><time>2026-05-03T12:48:08Z</time></trkpt><trkpt lat="44.304464433522135" lon="11.95205525627247"><ele>20.0</ele><time>2026-05-03T12:48:09Z</time></trkpt><trkpt lat="44.30452377986411" lon="11.951901766524191"><ele>20.0</ele><time>2026-05-03T12:48:10Z</time></trkpt><trkpt lat="44.30458251760311" lon="11.951746223797707"><ele>20.0</ele><time>2026-05-03T12:48:11Z</time></trkpt><trkpt lat="44.30464394985737" lon="11.951588997526047"><ele>20.0</ele><time>2026-05-03T12:48:12Z</time></trkpt><trkpt lat="44.304706326889715" lon="11.951427934275593"><ele>20.0</ele><time>2026-05-03T12:48:13Z</time></trkpt><trkpt lat="44.304770204794124" lon="11.951263446934195"><ele>20.0</ele><time>2026-05-03T12:48:14Z</time></trkpt><trkpt lat="44.30483413467833" lon="11.951096665923885"><ele>20.0</ele><time>2026-05-03T12:48:15Z</time></trkpt><trkpt lat="44.304897357833" lon="11.950925839395902"><ele>20.0</ele><time>2026-05-03T12:48:16Z</time></trkpt><trkpt lat="44.30496279516952" lon="11.950751145598176"><ele>20.0</ele><time>2026-05-03T12:48:17Z</time></trkpt><trkpt lat="44.30503252937941" lon="11.950574632222335"><ele>20.0</ele><time>2026-05-03T12:48:18Z</time></trkpt><trkpt lat="44.30510087340538" lon="11.950400941925087"><ele>20.0</ele><time>2026-05-03T12:48:19Z</time></trkpt><trkpt lat="44.30516778493583" lon="11.950226804466165"><ele>20.0</ele><time>2026-05-03T12:48:20Z</time></trkpt><trkpt lat="44.30523474598261" lon="11.95005396232608"><ele>20.0</ele><time>2026-05-03T12:48:21Z</time></trkpt><trkpt lat="44.30530125330995" lon="11.949880566172324"><ele>20.0</ele><time>2026-05-03T12:48:22Z</time></trkpt><trkpt lat="44.30536878284085" lon="11.949703823875023"><ele>20.0</ele><time>2026-05-03T12:48:23Z</time></trkpt><trkpt lat="44.305437489102935" lon="11.949528854550653"><ele>20.0</ele><time>2026-05-03T12:48:24Z</time></trkpt><trkpt lat="44.30550492592226" lon="11.949356806518455"><ele>20.0</ele><time>2026-05-03T12:48:25Z</time></trkpt><trkpt lat="44.305571929108076" lon="11.94918354019421"><ele>20.0</ele><time>2026-05-03T12:48:26Z</time></trkpt><trkpt lat="44.305636960980955" lon="11.949008610340085"><ele>20.0</ele><time>2026-05-03T12:48:27Z</time></trkpt><trkpt lat="44.30570215412274" lon="11.948836453534245"><ele>20.25</ele><time>2026-05-03T12:48:28Z</time></trkpt><trkpt lat="44.305766763033056" lon="11.948672897961586"><ele>20.5</ele><time>2026-05-03T12:48:29Z</time></trkpt><trkpt lat="44.305827571726766" lon="11.948513489695321"><ele>20.75</ele><time>2026-05-03T12:48:30Z</time></trkpt><trkpt lat="44.30588632988708" lon="11.94835698655276"><ele>21.0</ele><time>2026-05-03T12:48:31Z</time></trkpt><trkpt lat="44.305943243323505" lon="11.948200128464357"><ele>21.25</ele><time>2026-05-03T12:48:32Z</time></trkpt><trkpt lat="44.3060016290793" lon="11.948041339140797"><ele>21.5</ele><time>2026-05-03T12:48:33Z</time></trkpt><trkpt lat="44.30606102713904" lon="11.94788308464498"><ele>21.75</ele><time>2026-05-03T12:48:34Z</time></trkpt><trkpt lat="44.306120820104084" lon="11.94772388751005"><ele>22.0</ele><time>2026-05-03T12:48:35Z</time></trkpt><trkpt lat="44.30618055268043" lon="11.947562091518986"><ele>22.25</ele><time>2026-05-03T12:48:36Z</time></trkpt><trkpt lat="44.306241528528176" lon="11.947399167778507"><ele>22.5</ele><time>2026-05-03T12:48:37Z</time></trkpt><trkpt lat="44.30630397110912" lon="11.947234589993446"><ele>22.75</ele><time>2026-05-03T12:48:38Z</time></trkpt><trkpt lat="44.306367319605926" lon="11.947070120532013"><ele>23.0</ele><time>2026-05-03T12:48:39Z</time></trkpt><trkpt lat="44.30642988694368" lon="11.946901553651864"><ele>23.0</ele><time>2026-05-03T12:48:40Z</time></trkpt><trkpt lat="44.306491530624925" lon="11.94673035746249"><ele>23.0</ele><time>2026-05-03T12:48:41Z</time></trkpt><trkpt lat="44.30655266881615" lon="11.946559801015988"><ele>23.0</ele><time>2026-05-03T12:48:42Z</time></trkpt><trkpt lat="44.306614012171224" lon="11.94639036639248"><ele>23.0</ele><time>2026-05-03T12:48:43Z</time></trkpt><trkpt lat="44.306674163399606" lon="11.94622182074145"><ele>23.0</ele><time>2026-05-03T12:48:44Z</time></trkpt><trkpt lat="44.30673397655037" lon="11.946053754040438"><ele>23.0</ele><time>2026-05-03T12:48:45Z</time></trkpt><trkpt lat="44.30679291322487" lon="11.945885009889567"><ele>23.0</ele><time>2026-05-03T12:48:46Z</time></trkpt><trkpt lat="44.30685222864147" lon="11.945715597438236"><ele>23.0</ele><time>2026-05-03T12:48:47Z</time></trkpt><trkpt lat="44.30691166308727" lon="11.945543159270601"><ele>23.0</ele><time>2026-05-03T12:48:48Z</time></trkpt><trkpt lat="44.30697082721118" lon="11.945369104900665"><ele>23.0</ele><time>2026-05-03T12:48:49Z</time></trkpt><trkpt lat="44.30703069970099" lon="11.945193270693574"><ele>23.0</ele><time>2026-05-03T12:48:50Z</time></trkpt><trkpt lat="44.30709141528816" lon="11.94501412175338"><ele>23.0</ele><time>2026-05-03T12:48:51Z</time></trkpt><trkpt lat="44.307153172733265" lon="11.944829603967294"><ele>23.0</ele><time>2026-05-03T12:48:52Z</time></trkpt><trkpt lat="44.30721739825284" lon="11.944641892587558"><ele>23.0</ele><time>2026-05-03T12:48:53Z</time></trkpt><trkpt lat="44.30728286082931" lon="11.944452274319188"><ele>23.0</ele><time>2026-05-03T12:48:54Z</time></trkpt><trkpt lat="44.307348352494934" lon="11.944257833029077"><ele>22.333333333333336</ele><time>2026-05-03T12:48:55Z</time></trkpt><trkpt lat="44.30741442451907" lon="11.944061004011129"><ele>21.666666666666668</ele><time>2026-05-03T12:48:56Z</time></trkpt><trkpt lat="44.30748155533739" lon="11.943862408656255"><ele>21.0</ele><time>2026-05-03T12:48:57Z</time></trkpt><trkpt lat="44.307547637171446" lon="11.943665604733576"><ele>21.0</ele><time>2026-05-03T12:48:58Z</time></trkpt><trkpt lat="44.30761324014607" lon="11.943467298474571"><ele>21.0</ele><time>2026-05-03T12:48:59Z</time></trkpt><trkpt lat="44.30767852705103" lon="11.94326916484384"><ele>21.0</ele><time>2026-05-03T12:49:00Z</time></trkpt><trkpt lat="44.30774675484693" lon="11.943070773794648"><ele>21.0</ele><time>2026-05-03T12:49:01Z</time></trkpt><trkpt lat="44.30781492289356" lon="11.942869937970618"><ele>21.0</ele><time>2026-05-03T12:49:02Z</time></trkpt><trkpt lat="44.30788335284203" lon="11.942667152739737"><ele>21.0</ele><time>2026-05-03T12:49:03Z</time></trkpt><trkpt lat="44.30795205426277" lon="11.942465978386988"><ele>21.333333333333332</ele><time>2026-05-03T12:49:04Z</time></trkpt><trkpt lat="44.30802031458537" lon="11.942261052436784"><ele>21.666666666666664</ele><time>2026-05-03T12:49:05Z</time></trkpt><trkpt lat="44.30808845844808" lon="11.942056347049508"><ele>22.0</ele><time>2026-05-03T12:49:06Z</time></trkpt><trkpt lat="44.30815688669586" lon="11.941853263559347"><ele>22.0</ele><time>2026-05-03T12:49:07Z</time></trkpt><trkpt lat="44.30822374713443" lon="11.941655964839297"><ele>22.0</ele><time>2026-05-03T12:49:08Z</time></trkpt><trkpt lat="44.30828788724195" lon="11.941462914010527"><ele>22.0</ele><time>2026-05-03T12:49:09Z</time></trkpt><trkpt lat="44.30835235921858" lon="11.941265756760112"><ele>22.0</ele><time>2026-05-03T12:49:10Z</time></trkpt><trkpt lat="44.30841892158541" lon="11.941064205798916"><ele>22.0</ele><time>2026-05-03T12:49:11Z</time></trkpt><trkpt lat="44.30848828007616" lon="11.940858309435459"><ele>22.0</ele><time>2026-05-03T12:49:11.999Z</time></trkpt><trkpt lat="44.308560182935956" lon="11.940647810059323"><ele>22.333333333333332</ele><time>2026-05-03T12:49:12.999Z</time></trkpt><trkpt lat="44.30863417315003" lon="11.940431908561115"><ele>22.666666666666668</ele><time>2026-05-03T12:49:13.999Z</time></trkpt><trkpt lat="44.30870903115771" lon="11.94021233314117"><ele>23.0</ele><time>2026-05-03T12:49:14.999Z</time></trkpt><trkpt lat="44.3087872307055" lon="11.939982886972484"><ele>23.0</ele><time>2026-05-03T12:49:15.999Z</time></trkpt><trkpt lat="44.30886717545112" lon="11.93975032201636"><ele>23.0</ele><time>2026-05-03T12:49:16.999Z</time></trkpt><trkpt lat="44.30894902802408" lon="11.939516530480589"><ele>23.0</ele><time>2026-05-03T12:49:17.999Z</time></trkpt><trkpt lat="44.30899646647671" lon="11.939362374209571"><ele>22.666666666666668</ele><time>2026-05-03T12:49:18.999Z</time></trkpt><trkpt lat="44.30906369570138" lon="11.939168125377366"><ele>22.333333333333332</ele><time>2026-05-03T12:49:19.999Z</time></trkpt><trkpt lat="44.30912701173871" lon="11.93897229946613"><ele>22.0</ele><time>2026-05-03T12:49:20.999Z</time></trkpt><trkpt lat="44.309193391775445" lon="11.9387870678196"><ele>22.0</ele><time>2026-05-03T12:49:21.999Z</time></trkpt><trkpt lat="44.309257950948215" lon="11.93859277907369"><ele>22.0</ele><time>2026-05-03T12:49:22.999Z</time></trkpt><trkpt lat="44.30932359792191" lon="11.938397955820133"><ele>22.0</ele><time>2026-05-03T12:49:23.999Z</time></trkpt><trkpt lat="44.309393413513085" lon="11.938199976631099"><ele>21.666666666666664</ele><time>2026-05-03T12:49:24.999Z</time></trkpt><trkpt lat="44.30946292091457" lon="11.937998987839226"><ele>21.333333333333332</ele><time>2026-05-03T12:49:25.999Z</time></trkpt><trkpt lat="44.30952642790712" lon="11.937794181606925"><ele>21.0</ele><time>2026-05-03T12:49:26.999Z</time></trkpt><trkpt lat="44.30959967240481" lon="11.93757660655138"><ele>21.0</ele><time>2026-05-03T12:49:27.999Z</time></trkpt><trkpt lat="44.309671888445955" lon="11.937352624053247"><ele>21.0</ele><time>2026-05-03T12:49:28.999Z</time></trkpt><trkpt lat="44.3097520286023" lon="11.937121993166587"><ele>21.0</ele><time>2026-05-03T12:49:29.999Z</time></trkpt><trkpt lat="44.30983279847076" lon="11.936878180814507"><ele>20.666666666666668</ele><time>2026-05-03T12:49:30.999Z</time></trkpt><trkpt lat="44.309917163445064" lon="11.936613058534299"><ele>20.333333333333336</ele><time>2026-05-03T12:49:31.999Z</time></trkpt><trkpt lat="44.31000748062379" lon="11.936351709535113"><ele>20.0</ele><time>2026-05-03T12:49:32.999Z</time></trkpt><trkpt lat="44.31008782315919" lon="11.936088726330995"><ele>20.333333333333336</ele><time>2026-05-03T12:49:33.999Z</time></trkpt><trkpt lat="44.310157445496586" lon="11.935845239398668"><ele>20.666666666666668</ele><time>2026-05-03T12:49:34.999Z</time></trkpt><trkpt lat="44.31022742996098" lon="11.935610361482016"><ele>21.0</ele><time>2026-05-03T12:49:35.999Z</time></trkpt><trkpt lat="44.310297864368586" lon="11.935407849920075"><ele>21.0</ele><time>2026-05-03T12:49:37Z</time></trkpt><trkpt lat="44.31036269974233" lon="11.935216034267087"><ele>21.0</ele><time>2026-05-03T12:49:38Z</time></trkpt><trkpt lat="44.31042216054028" lon="11.935025809442129"><ele>21.0</ele><time>2026-05-03T12:49:39Z</time></trkpt><trkpt lat="44.31048438684428" lon="11.9348384900318"><ele>21.0</ele><time>2026-05-03T12:49:40Z</time></trkpt><trkpt lat="44.310558535777794" lon="11.934631236252129"><ele>21.0</ele><time>2026-05-03T12:49:41Z</time></trkpt><trkpt lat="44.31063167053709" lon="11.934416003718859"><ele>21.0</ele><time>2026-05-03T12:49:42Z</time></trkpt><trkpt lat="44.31070725206299" lon="11.934189823477485"><ele>21.0</ele><time>2026-05-03T12:49:43Z</time></trkpt><trkpt lat="44.31078038779182" lon="11.933967910171688"><ele>21.0</ele><time>2026-05-03T12:49:44Z</time></trkpt><trkpt lat="44.31085333093764" lon="11.933747561836158"><ele>21.0</ele><time>2026-05-03T12:49:45Z</time></trkpt><trkpt lat="44.31092622088138" lon="11.933531473065786"><ele>21.0</ele><time>2026-05-03T12:49:46Z</time></trkpt><trkpt lat="44.310998586430195" lon="11.933320462415946"><ele>21.0</ele><time>2026-05-03T12:49:47Z</time></trkpt><trkpt lat="44.3110694949348" lon="11.933109646211648"><ele>21.0</ele><time>2026-05-03T12:49:48Z</time></trkpt><trkpt lat="44.311138143898496" lon="11.932903851355777"><ele>21.0</ele><time>2026-05-03T12:49:49Z</time></trkpt><trkpt lat="44.31120763108128" lon="11.93269720226627"><ele>20.666666666666668</ele><time>2026-05-03T12:49:50Z</time></trkpt><trkpt lat="44.31127566779778" lon="11.932492666554014"><ele>20.333333333333336</ele><time>2026-05-03T12:49:51Z</time></trkpt><trkpt lat="44.311345199378756" lon="11.932284403244864"><ele>20.0</ele><time>2026-05-03T12:49:52Z</time></trkpt><trkpt lat="44.31141440614418" lon="11.932077166458217"><ele>20.0</ele><time>2026-05-03T12:49:53Z</time></trkpt><trkpt lat="44.31148353128622" lon="11.931867714353684"><ele>20.0</ele><time>2026-05-03T12:49:54Z</time></trkpt><trkpt lat="44.31155062219826" lon="11.931665754280539"><ele>20.0</ele><time>2026-05-03T12:49:55Z</time></trkpt><trkpt lat="44.31161727232727" lon="11.931464125298604"><ele>20.0</ele><time>2026-05-03T12:49:56Z</time></trkpt><trkpt lat="44.31168448450254" lon="11.931266924260605"><ele>20.0</ele><time>2026-05-03T12:49:57Z</time></trkpt><trkpt lat="44.311752811615214" lon="11.931070111490943"><ele>20.0</ele><time>2026-05-03T12:49:58Z</time></trkpt><trkpt lat="44.311821088514634" lon="11.93087362585027"><ele>20.0</ele><time>2026-05-03T12:49:59Z</time></trkpt><trkpt lat="44.31188977241835" lon="11.930681310866401"><ele>20.0</ele><time>2026-05-03T12:50:00Z</time></trkpt><trkpt lat="44.31195865588715" lon="11.930490836999997"><ele>20.0</ele><time>2026-05-03T12:50:01Z</time></trkpt><trkpt lat="44.31202819249487" lon="11.93029880012404"><ele>20.0</ele><time>2026-05-03T12:50:02Z</time></trkpt><trkpt lat="44.312101391177436" lon="11.930105195027593"><ele>20.0</ele><time>2026-05-03T12:50:03Z</time></trkpt><trkpt lat="44.312181854728856" lon="11.929911312912678"><ele>20.0</ele><time>2026-05-03T12:50:04Z</time></trkpt><trkpt lat="44.31226550368449" lon="11.929724280078991"><ele>20.333333333333336</ele><time>2026-05-03T12:50:05Z</time></trkpt><trkpt lat="44.31235380594888" lon="11.929538481600407"><ele>20.666666666666668</ele><time>2026-05-03T12:50:06Z</time></trkpt><trkpt lat="44.3124361824199" lon="11.92936134429915"><ele>21.0</ele><time>2026-05-03T12:50:07Z</time></trkpt><trkpt lat="44.31251530167581" lon="11.9291964378672"><ele>21.0</ele><time>2026-05-03T12:50:08Z</time></trkpt><trkpt lat="44.312590580986466" lon="11.929042483152985"><ele>21.0</ele><time>2026-05-03T12:50:09Z</time></trkpt><trkpt lat="44.31266824493436" lon="11.928888566071942"><ele>21.0</ele><time>2026-05-03T12:50:10Z</time></trkpt><trkpt lat="44.31275235346092" lon="11.92873611194594"><ele>21.0</ele><time>2026-05-03T12:50:11Z</time></trkpt><trkpt lat="44.312846413685655" lon="11.928583837118872"><ele>21.0</ele><time>2026-05-03T12:50:12Z</time></trkpt><trkpt lat="44.31294277003805" lon="11.92842493598162"><ele>21.0</ele><time>2026-05-03T12:50:13Z</time></trkpt><trkpt lat="44.313041043994915" lon="11.928257263427009"><ele>21.0</ele><time>2026-05-03T12:50:14Z</time></trkpt><trkpt lat="44.31314385740547" lon="11.928092157729372"><ele>21.0</ele><time>2026-05-03T12:50:15Z</time></trkpt><trkpt lat="44.3132490408788" lon="11.927926132145839"><ele>21.0</ele><time>2026-05-03T12:50:16Z</time></trkpt><trkpt lat="44.31335597427168" lon="11.92776477254835"><ele>21.0</ele><time>2026-05-03T12:50:17Z</time></trkpt><trkpt lat="44.31346594542997" lon="11.927601986409115"><ele>21.666666666666668</ele><time>2026-05-03T12:50:18Z</time></trkpt><trkpt lat="44.313575669310744" lon="11.927435666459502"><ele>22.333333333333336</ele><time>2026-05-03T12:50:19Z</time></trkpt><trkpt lat="44.313688083039395" lon="11.927268780194455"><ele>23.0</ele><time>2026-05-03T12:50:20Z</time></trkpt><trkpt lat="44.3137996075381" lon="11.927099476207445"><ele>22.333333333333336</ele><time>2026-05-03T12:50:21Z</time></trkpt><trkpt lat="44.31391531331499" lon="11.926933108571502"><ele>21.666666666666668</ele><time>2026-05-03T12:50:22Z</time></trkpt><trkpt lat="44.31403203060528" lon="11.926756607225899"><ele>21.0</ele><time>2026-05-03T12:50:23Z</time></trkpt><trkpt lat="44.31414803128822" lon="11.926584117532524"><ele>21.0</ele><time>2026-05-03T12:50:24Z</time></trkpt><trkpt lat="44.31426444353877" lon="11.92641327838105"><ele>21.0</ele><time>2026-05-03T12:50:25Z</time></trkpt><trkpt lat="44.31438352227969" lon="11.926239401688509"><ele>21.0</ele><time>2026-05-03T12:50:26Z</time></trkpt><trkpt lat="44.31450027146086" lon="11.92606985195071"><ele>21.0</ele><time>2026-05-03T12:50:27Z</time></trkpt><trkpt lat="44.31461894925293" lon="11.925896741426543"><ele>21.0</ele><time>2026-05-03T12:50:28Z</time></trkpt><trkpt lat="44.31473497258783" lon="11.925721651186047"><ele>21.0</ele><time>2026-05-03T12:50:29Z</time></trkpt><trkpt lat="44.314853502852316" lon="11.925544991554638"><ele>21.0</ele><time>2026-05-03T12:50:30Z</time></trkpt><trkpt lat="44.31497038560306" lon="11.925366697181428"><ele>21.0</ele><time>2026-05-03T12:50:31Z</time></trkpt><trkpt lat="44.31509111721127" lon="11.925191468879664"><ele>21.0</ele><time>2026-05-03T12:50:32Z</time></trkpt><trkpt lat="44.31521062733978" lon="11.925012028752379"><ele>21.0</ele><time>2026-05-03T12:50:33Z</time></trkpt><trkpt lat="44.31533053021528" lon="11.92483193403384"><ele>21.0</ele><time>2026-05-03T12:50:34Z</time></trkpt><trkpt lat="44.31544745668571" lon="11.924656142584071"><ele>21.0</ele><time>2026-05-03T12:50:35Z</time></trkpt><trkpt lat="44.31556900860369" lon="11.924479866886992"><ele>20.666666666666668</ele><time>2026-05-03T12:50:36Z</time></trkpt><trkpt lat="44.31568755019506" lon="11.924306381579939"><ele>20.333333333333336</ele><time>2026-05-03T12:50:37Z</time></trkpt><trkpt lat="44.31580360280963" lon="11.924132291841952"><ele>20.0</ele><time>2026-05-03T12:50:38Z</time></trkpt><trkpt lat="44.31592078932588" lon="11.923961408173799"><ele>20.0</ele><time>2026-05-03T12:50:39Z</time></trkpt><trkpt lat="44.31603456492787" lon="11.923790339422112"><ele>20.0</ele><time>2026-05-03T12:50:40Z</time></trkpt><trkpt lat="44.31614697923918" lon="11.923627211716878"><ele>20.0</ele><time>2026-05-03T12:50:41Z</time></trkpt><trkpt lat="44.31625835885047" lon="11.92346200639138"><ele>19.666666666666668</ele><time>2026-05-03T12:50:42Z</time></trkpt><trkpt lat="44.31636806269456" lon="11.923300602530011"><ele>19.333333333333332</ele><time>2026-05-03T12:50:43Z</time></trkpt><trkpt lat="44.31647459226064" lon="11.92313226167295"><ele>19.0</ele><time>2026-05-03T12:50:44Z</time></trkpt><trkpt lat="44.316581505294096" lon="11.922961240876184"><ele>19.0</ele><time>2026-05-03T12:50:45Z</time></trkpt><trkpt lat="44.316686309507055" lon="11.922788507530303"><ele>19.0</ele><time>2026-05-03T12:50:46Z</time></trkpt><trkpt lat="44.31678861046632" lon="11.92261175482213"><ele>19.0</ele><time>2026-05-03T12:50:47Z</time></trkpt><trkpt lat="44.31689033614902" lon="11.92243739595119"><ele>19.333333333333332</ele><time>2026-05-03T12:50:48Z</time></trkpt><trkpt lat="44.316990952961376" lon="11.922256771135421"><ele>19.666666666666668</ele><time>2026-05-03T12:50:49Z</time></trkpt><trkpt lat="44.31708274158206" lon="11.922074747989692"><ele>20.0</ele><time>2026-05-03T12:50:50Z</time></trkpt><trkpt lat="44.31717361665258" lon="11.921893416223291"><ele>19.333333333333336</ele><time>2026-05-03T12:50:51Z</time></trkpt><trkpt lat="44.31726394294198" lon="11.921705049187642"><ele>18.666666666666668</ele><time>2026-05-03T12:50:52Z</time></trkpt><trkpt lat="44.317350602381154" lon="11.92152048156951"><ele>18.0</ele><time>2026-05-03T12:50:53Z</time></trkpt><trkpt lat="44.31743423717436" lon="11.921332742947286"><ele>18.0</ele><time>2026-05-03T12:50:54Z</time></trkpt><trkpt lat="44.317515566108675" lon="11.921143495256242"><ele>18.0</ele><time>2026-05-03T12:50:55Z</time></trkpt><trkpt lat="44.31759330789397" lon="11.920953635987411"><ele>18.0</ele><time>2026-05-03T12:50:56Z</time></trkpt><trkpt lat="44.31766953024202" lon="11.9207629986906"><ele>18.0</ele><time>2026-05-03T12:50:57Z</time></trkpt><trkpt lat="44.317743616646865" lon="11.920569392838024"><ele>18.0</ele><time>2026-05-03T12:50:58Z</time></trkpt><trkpt lat="44.317820273887996" lon="11.920377604469197"><ele>18.0</ele><time>2026-05-03T12:50:59Z</time></trkpt><trkpt lat="44.3178993290067" lon="11.920181200234186"><ele>17.666666666666668</ele><time>2026-05-03T12:51:00Z</time></trkpt><trkpt lat="44.317976276880266" lon="11.919988137888918"><ele>17.333333333333336</ele><time>2026-05-03T12:51:01Z</time></trkpt><trkpt lat="44.31805238626983" lon="11.91979418026005"><ele>17.0</ele><time>2026-05-03T12:51:02Z</time></trkpt><trkpt lat="44.31813176688601" lon="11.919597438353986"><ele>17.0</ele><time>2026-05-03T12:51:02.999Z</time></trkpt><trkpt lat="44.318209993380925" lon="11.919395259924707"><ele>17.0</ele><time>2026-05-03T12:51:03.999Z</time></trkpt><trkpt lat="44.318288611298094" lon="11.919195040475417"><ele>17.0</ele><time>2026-05-03T12:51:04.999Z</time></trkpt><trkpt lat="44.3183698509266" lon="11.918990152046385"><ele>17.666666666666668</ele><time>2026-05-03T12:51:05.999Z</time></trkpt><trkpt lat="44.318452754804824" lon="11.918782207410976"><ele>18.333333333333332</ele><time>2026-05-03T12:51:06.999Z</time></trkpt><trkpt lat="44.31853406248739" lon="11.918573557752017"><ele>19.0</ele><time>2026-05-03T12:51:07.999Z</time></trkpt><trkpt lat="44.31861620973326" lon="11.918363329495612"><ele>19.0</ele><time>2026-05-03T12:51:08.999Z</time></trkpt><trkpt lat="44.318699557685605" lon="11.918148267851638"><ele>19.0</ele><time>2026-05-03T12:51:09.999Z</time></trkpt><trkpt lat="44.31878264755979" lon="11.917934713679893"><ele>19.0</ele><time>2026-05-03T12:51:10.999Z</time></trkpt><trkpt lat="44.3188685696976" lon="11.917723167141595"><ele>19.666666666666664</ele><time>2026-05-03T12:51:11.999Z</time></trkpt><trkpt lat="44.318950941732375" lon="11.917512022621425"><ele>20.333333333333332</ele><time>2026-05-03T12:51:12.999Z</time></trkpt><trkpt lat="44.31903560964542" lon="11.917295458541078"><ele>21.0</ele><time>2026-05-03T12:51:13.999Z</time></trkpt><trkpt lat="44.3191206633824" lon="11.91708236728781"><ele>21.0</ele><time>2026-05-03T12:51:14.999Z</time></trkpt><trkpt lat="44.31920543017415" lon="11.916867126873072"><ele>21.0</ele><time>2026-05-03T12:51:15.999Z</time></trkpt><trkpt lat="44.31928927446911" lon="11.916653671939383"><ele>21.0</ele><time>2026-05-03T12:51:16.999Z</time></trkpt><trkpt lat="44.31937119046501" lon="11.916442898667585"><ele>21.0</ele><time>2026-05-03T12:51:17.999Z</time></trkpt><trkpt lat="44.31945321536243" lon="11.916234091978351"><ele>21.0</ele><time>2026-05-03T12:51:18.999Z</time></trkpt><trkpt lat="44.31953229020395" lon="11.916033655710008"><ele>21.0</ele><time>2026-05-03T12:51:19.999Z</time></trkpt><trkpt lat="44.319607963916766" lon="11.915834495445619"><ele>21.0</ele><time>2026-05-03T12:51:20.999Z</time></trkpt><trkpt lat="44.31968566141841" lon="11.915632347174583"><ele>21.0</ele><time>2026-05-03T12:51:21.999Z</time></trkpt><trkpt lat="44.319765102328255" lon="11.915434070673367"><ele>21.0</ele><time>2026-05-03T12:51:22.999Z</time></trkpt><trkpt lat="44.319842318515086" lon="11.915235133105593"><ele>20.666666666666668</ele><time>2026-05-03T12:51:23.999Z</time></trkpt><trkpt lat="44.31991909302428" lon="11.915041093050348"><ele>20.333333333333336</ele><time>2026-05-03T12:51:24.999Z</time></trkpt><trkpt lat="44.31999751765607" lon="11.914845198559911"><ele>20.0</ele><time>2026-05-03T12:51:25.999Z</time></trkpt><trkpt lat="44.32007344037892" lon="11.914652222185948"><ele>20.0</ele><time>2026-05-03T12:51:26.999Z</time></trkpt><trkpt lat="44.320148576366726" lon="11.914460115820438"><ele>20.0</ele><time>2026-05-03T12:51:27.999Z</time></trkpt><trkpt lat="44.32022277511052" lon="11.914268020058158"><ele>20.0</ele><time>2026-05-03T12:51:28.999Z</time></trkpt><trkpt lat="44.32029962239097" lon="11.914075025585676"><ele>20.666666666666668</ele><time>2026-05-03T12:51:29.999Z</time></trkpt><trkpt lat="44.32037651597187" lon="11.913882003004062"><ele>21.333333333333332</ele><time>2026-05-03T12:51:30.999Z</time></trkpt><trkpt lat="44.32045195749517" lon="11.913689957848788"><ele>22.0</ele><time>2026-05-03T12:51:31.999Z</time></trkpt><trkpt lat="44.320526945244865" lon="11.91349308744259"><ele>22.333333333333332</ele><time>2026-05-03T12:51:32.999Z</time></trkpt><trkpt lat="44.32060154275214" lon="11.91329838896957"><ele>22.666666666666668</ele><time>2026-05-03T12:51:33.999Z</time></trkpt><trkpt lat="44.320679121041344" lon="11.913102899894097"><ele>23.0</ele><time>2026-05-03T12:51:34.999Z</time></trkpt><trkpt lat="44.32075544809807" lon="11.912909027418834"><ele>23.0</ele><time>2026-05-03T12:51:35.999Z</time></trkpt><trkpt lat="44.32083281436103" lon="11.912716884533424"><ele>23.0</ele><time>2026-05-03T12:51:36.999Z</time></trkpt><trkpt lat="44.32091065550121" lon="11.912520225419236"><ele>23.0</ele><time>2026-05-03T12:51:37.999Z</time></trkpt><trkpt lat="44.32098387294111" lon="11.912325430434757"><ele>22.333333333333336</ele><time>2026-05-03T12:51:38.999Z</time></trkpt><trkpt lat="44.32105876413205" lon="11.912139984904186"><ele>21.666666666666668</ele><time>2026-05-03T12:51:39.999Z</time></trkpt><trkpt lat="44.3211323857598" lon="11.911956171501455"><ele>21.0</ele><time>2026-05-03T12:51:40.999Z</time></trkpt><trkpt lat="44.321204675060635" lon="11.911773779169122"><ele>21.0</ele><time>2026-05-03T12:51:41.999Z</time></trkpt><trkpt lat="44.32127602613026" lon="11.911591848247594"><ele>21.0</ele><time>2026-05-03T12:51:43Z</time></trkpt><trkpt lat="44.321346563164106" lon="11.911413237026768"><ele>21.0</ele><time>2026-05-03T12:51:44Z</time></trkpt><trkpt lat="44.32141647028756" lon="11.911233807120103"><ele>21.0</ele><time>2026-05-03T12:51:45Z</time></trkpt><trkpt lat="44.32148582894589" lon="11.91105626303277"><ele>21.75</ele><time>2026-05-03T12:51:46Z</time></trkpt><trkpt lat="44.321555298691564" lon="11.910879608272328"><ele>22.5</ele><time>2026-05-03T12:51:47Z</time></trkpt><trkpt lat="44.32162468552885" lon="11.910704094369164"><ele>23.25</ele><time>2026-05-03T12:51:48Z</time></trkpt><trkpt lat="44.32169457276973" lon="11.910529867593377"><ele>24.0</ele><time>2026-05-03T12:51:49Z</time></trkpt><trkpt lat="44.32176302802357" lon="11.910355449899727"><ele>24.0</ele><time>2026-05-03T12:51:50Z</time></trkpt><trkpt lat="44.321831042548496" lon="11.910184785575508"><ele>24.0</ele><time>2026-05-03T12:51:51Z</time></trkpt><trkpt lat="44.32189629979953" lon="11.910016862111505"><ele>24.0</ele><time>2026-05-03T12:51:52Z</time></trkpt><trkpt lat="44.32196077120689" lon="11.909852641137352"><ele>24.0</ele><time>2026-05-03T12:51:53Z</time></trkpt><trkpt lat="44.32202350022707" lon="11.909691351433176"><ele>23.75</ele><time>2026-05-03T12:51:54Z</time></trkpt><trkpt lat="44.32208566325345" lon="11.909530702216"><ele>23.5</ele><time>2026-05-03T12:51:55Z</time></trkpt><trkpt lat="44.32214997405021" lon="11.909370120318552"><ele>23.25</ele><time>2026-05-03T12:51:56Z</time></trkpt><trkpt lat="44.32221418410911" lon="11.90920846244747"><ele>23.0</ele><time>2026-05-03T12:51:57Z</time></trkpt><trkpt lat="44.322278523176955" lon="11.909044801402775"><ele>22.5</ele><time>2026-05-03T12:51:58Z</time></trkpt><trkpt lat="44.322344097359895" lon="11.908880054869314"><ele>22.0</ele><time>2026-05-03T12:51:59Z</time></trkpt><trkpt lat="44.322409028056974" lon="11.908713278948817"><ele>21.5</ele><time>2026-05-03T12:52:00Z</time></trkpt><trkpt lat="44.32247309574542" lon="11.908544277726392"><ele>21.0</ele><time>2026-05-03T12:52:01Z</time></trkpt><trkpt lat="44.32253889646646" lon="11.908376513732168"><ele>20.75</ele><time>2026-05-03T12:52:02Z</time></trkpt><trkpt lat="44.322605713391965" lon="11.908207541453113"><ele>20.5</ele><time>2026-05-03T12:52:03Z</time></trkpt><trkpt lat="44.322671474457685" lon="11.908037886760443"><ele>20.25</ele><time>2026-05-03T12:52:04Z</time></trkpt><trkpt lat="44.32273654231283" lon="11.90786998304464"><ele>20.0</ele><time>2026-05-03T12:52:05Z</time></trkpt><trkpt lat="44.32280182043652" lon="11.907704782838648"><ele>20.25</ele><time>2026-05-03T12:52:06Z</time></trkpt><trkpt lat="44.322866280592955" lon="11.907542674762338"><ele>20.5</ele><time>2026-05-03T12:52:07Z</time></trkpt><trkpt lat="44.32292914534416" lon="11.90738463188047"><ele>20.75</ele><time>2026-05-03T12:52:08Z</time></trkpt><trkpt lat="44.32299043205774" lon="11.907230257804954"><ele>21.0</ele><time>2026-05-03T12:52:09Z</time></trkpt><trkpt lat="44.32305024057499" lon="11.907078608969835"><ele>21.25</ele><time>2026-05-03T12:52:10Z</time></trkpt><trkpt lat="44.32310669904825" lon="11.906926930084891"><ele>21.5</ele><time>2026-05-03T12:52:11Z</time></trkpt><trkpt lat="44.32316290880777" lon="11.906777491298076"><ele>21.75</ele><time>2026-05-03T12:52:12Z</time></trkpt><trkpt lat="44.323219625020684" lon="11.90662988604656"><ele>22.0</ele><time>2026-05-03T12:52:13Z</time></trkpt><trkpt lat="44.323277295529714" lon="11.906478984644584"><ele>22.25</ele><time>2026-05-03T12:52:14Z</time></trkpt><trkpt lat="44.32333846355792" lon="11.906325260304987"><ele>22.5</ele><time>2026-05-03T12:52:15Z</time></trkpt><trkpt lat="44.32340289320688" lon="11.906167627232541"><ele>22.75</ele><time>2026-05-03T12:52:16Z</time></trkpt><trkpt lat="44.323468588680335" lon="11.906006220397757"><ele>23.0</ele><time>2026-05-03T12:52:17Z</time></trkpt><trkpt lat="44.32353750641686" lon="11.905839680817522"><ele>23.0</ele><time>2026-05-03T12:52:18Z</time></trkpt><trkpt lat="44.323606776655495" lon="11.905669929849081"><ele>23.0</ele><time>2026-05-03T12:52:19Z</time></trkpt><trkpt lat="44.3236770834304" lon="11.905489391431638"><ele>23.0</ele><time>2026-05-03T12:52:20Z</time></trkpt><trkpt lat="44.323754503508795" lon="11.905295628109819"><ele>23.0</ele><time>2026-05-03T12:52:21Z</time></trkpt><trkpt lat="44.3238324744851" lon="11.905097989425181"><ele>22.0</ele><time>2026-05-03T12:52:22Z</time></trkpt><trkpt lat="44.32391048005338" lon="11.904899314199724"><ele>21.0</ele><time>2026-05-03T12:52:23Z</time></trkpt><trkpt lat="44.32398639997151" lon="11.904699175166852"><ele>20.0</ele><time>2026-05-03T12:52:24Z</time></trkpt><trkpt lat="44.32405717986284" lon="11.90450553151059"><ele>20.0</ele><time>2026-05-03T12:52:25Z</time></trkpt><trkpt lat="44.32412640796232" lon="11.90432001286736"><ele>20.0</ele><time>2026-05-03T12:52:26Z</time></trkpt><trkpt lat="44.32419430312415" lon="11.904141676051896"><ele>20.0</ele><time>2026-05-03T12:52:27Z</time></trkpt><trkpt lat="44.32425938382609" lon="11.90396866501444"><ele>20.0</ele><time>2026-05-03T12:52:28Z</time></trkpt><trkpt lat="44.32432407404855" lon="11.903803565827904"><ele>20.0</ele><time>2026-05-03T12:52:29Z</time></trkpt><trkpt lat="44.324387577422165" lon="11.903643450103853"><ele>20.0</ele><time>2026-05-03T12:52:30Z</time></trkpt><trkpt lat="44.32445126107046" lon="11.903489077897307"><ele>20.0</ele><time>2026-05-03T12:52:31Z</time></trkpt><trkpt lat="44.32451568353561" lon="11.903337657558966"><ele>20.0</ele><time>2026-05-03T12:52:32Z</time></trkpt><trkpt lat="44.32457504893454" lon="11.90318934763628"><ele>20.0</ele><time>2026-05-03T12:52:33Z</time></trkpt><trkpt lat="44.324633599233024" lon="11.903039515121183"><ele>20.0</ele><time>2026-05-03T12:52:34Z</time></trkpt><trkpt lat="44.32469277121362" lon="11.902890957034952"><ele>20.0</ele><time>2026-05-03T12:52:35Z</time></trkpt><trkpt lat="44.32475419896479" lon="11.90274082171562"><ele>20.0</ele><time>2026-05-03T12:52:36Z</time></trkpt><trkpt lat="44.32481613990659" lon="11.90258737888665"><ele>19.5</ele><time>2026-05-03T12:52:37Z</time></trkpt><trkpt lat="44.324876743351524" lon="11.902431154542516"><ele>19.0</ele><time>2026-05-03T12:52:38Z</time></trkpt><trkpt lat="44.32494376831214" lon="11.902274025083775"><ele>18.5</ele><time>2026-05-03T12:52:39Z</time></trkpt><trkpt lat="44.325010045353054" lon="11.902120404810649"><ele>18.0</ele><time>2026-05-03T12:52:40Z</time></trkpt><trkpt lat="44.3250755681556" lon="11.901972352784727"><ele>18.0</ele><time>2026-05-03T12:52:41Z</time></trkpt><trkpt lat="44.32514079704591" lon="11.901826624312916"><ele>18.0</ele><time>2026-05-03T12:52:42Z</time></trkpt><trkpt lat="44.32520299521826" lon="11.901682291564589"><ele>18.0</ele><time>2026-05-03T12:52:43Z</time></trkpt><trkpt lat="44.32526128009303" lon="11.901537395030163"><ele>18.0</ele><time>2026-05-03T12:52:44Z</time></trkpt><trkpt lat="44.32531161587688" lon="11.901387831005088"><ele>18.25</ele><time>2026-05-03T12:52:45Z</time></trkpt><trkpt lat="44.32536265683537" lon="11.901236412847892"><ele>18.5</ele><time>2026-05-03T12:52:46Z</time></trkpt><trkpt lat="44.325418228771376" lon="11.90108389721673"><ele>18.75</ele><time>2026-05-03T12:52:47Z</time></trkpt><trkpt lat="44.32547711261511" lon="11.900928205561502"><ele>19.0</ele><time>2026-05-03T12:52:48Z</time></trkpt><trkpt lat="44.32553467886608" lon="11.900769540683015"><ele>19.25</ele><time>2026-05-03T12:52:49Z</time></trkpt><trkpt lat="44.32559734240644" lon="11.90060955548326"><ele>19.5</ele><time>2026-05-03T12:52:50Z</time></trkpt><trkpt lat="44.325662518644684" lon="11.900448223202458"><ele>19.75</ele><time>2026-05-03T12:52:51Z</time></trkpt><trkpt lat="44.32572795200443" lon="11.900283741754631"><ele>20.0</ele><time>2026-05-03T12:52:52Z</time></trkpt><trkpt lat="44.325794247997855" lon="11.900115322325712"><ele>20.25</ele><time>2026-05-03T12:52:53Z</time></trkpt><trkpt lat="44.32586004915181" lon="11.899944389152752"><ele>20.5</ele><time>2026-05-03T12:52:54Z</time></trkpt><trkpt lat="44.32592603430619" lon="11.899771577928583"><ele>20.75</ele><time>2026-05-03T12:52:55Z</time></trkpt><trkpt lat="44.325992617961305" lon="11.899599108032904"><ele>21.0</ele><time>2026-05-03T12:52:56Z</time></trkpt><trkpt lat="44.326061216809784" lon="11.899427448730432"><ele>21.0</ele><time>2026-05-03T12:52:56.999Z</time></trkpt><trkpt lat="44.32612973658215" lon="11.899256442515036"><ele>21.0</ele><time>2026-05-03T12:52:57.999Z</time></trkpt><trkpt lat="44.32619849629607" lon="11.899087474804531"><ele>21.0</ele><time>2026-05-03T12:52:58.999Z</time></trkpt><trkpt lat="44.3262670959966" lon="11.898916975183985"><ele>21.0</ele><time>2026-05-03T12:52:59.999Z</time></trkpt><trkpt lat="44.32633555299327" lon="11.89874479874259"><ele>21.0</ele><time>2026-05-03T12:53:00.999Z</time></trkpt><trkpt lat="44.32640619221085" lon="11.898569002282256"><ele>21.0</ele><time>2026-05-03T12:53:01.999Z</time></trkpt><trkpt lat="44.326475521477974" lon="11.898392238148118"><ele>21.0</ele><time>2026-05-03T12:53:02.999Z</time></trkpt><trkpt lat="44.32654510548785" lon="11.898213162710336"><ele>21.0</ele><time>2026-05-03T12:53:03.999Z</time></trkpt><trkpt lat="44.326617648060065" lon="11.898033496178373"><ele>21.5</ele><time>2026-05-03T12:53:04.999Z</time></trkpt><trkpt lat="44.32668850795371" lon="11.897851049739607"><ele>22.0</ele><time>2026-05-03T12:53:05.999Z</time></trkpt><trkpt lat="44.32675996276551" lon="11.897667908646786"><ele>22.5</ele><time>2026-05-03T12:53:06.999Z</time></trkpt><trkpt lat="44.326833390942284" lon="11.897483639460361"><ele>23.0</ele><time>2026-05-03T12:53:07.999Z</time></trkpt><trkpt lat="44.32690773557433" lon="11.89729808101208"><ele>23.0</ele><time>2026-05-03T12:53:08.999Z</time></trkpt><trkpt lat="44.32698276034987" lon="11.897112685613111"><ele>23.0</ele><time>2026-05-03T12:53:09.999Z</time></trkpt><trkpt lat="44.32705823547972" lon="11.896924020168397"><ele>23.0</ele><time>2026-05-03T12:53:10.999Z</time></trkpt><trkpt lat="44.3271335223543" lon="11.896735643721522"><ele>23.0</ele><time>2026-05-03T12:53:11.999Z</time></trkpt><trkpt lat="44.32720977163281" lon="11.896545965115726"><ele>23.0</ele><time>2026-05-03T12:53:12.999Z</time></trkpt><trkpt lat="44.327284512819055" lon="11.896357622053596"><ele>23.0</ele><time>2026-05-03T12:53:13.999Z</time></trkpt><trkpt lat="44.32736257861053" lon="11.896170173321329"><ele>23.0</ele><time>2026-05-03T12:53:14.999Z</time></trkpt><trkpt lat="44.32743890068901" lon="11.895981765051056"><ele>23.0</ele><time>2026-05-03T12:53:15.999Z</time></trkpt><trkpt lat="44.32751416549544" lon="11.89579501403002"><ele>23.0</ele><time>2026-05-03T12:53:16.999Z</time></trkpt><trkpt lat="44.32758945532665" lon="11.895607839964807"><ele>22.666666666666668</ele><time>2026-05-03T12:53:17.999Z</time></trkpt><trkpt lat="44.32766397220795" lon="11.895421196022326"><ele>22.333333333333332</ele><time>2026-05-03T12:53:18.999Z</time></trkpt><trkpt lat="44.32773961984247" lon="11.895233005337849"><ele>22.0</ele><time>2026-05-03T12:53:19.999Z</time></trkpt><trkpt lat="44.32781427657201" lon="11.895045451150448"><ele>22.666666666666664</ele><time>2026-05-03T12:53:20.999Z</time></trkpt><trkpt lat="44.327889027872175" lon="11.894856784819085"><ele>23.333333333333332</ele><time>2026-05-03T12:53:21.999Z</time></trkpt><trkpt lat="44.32796420819203" lon="11.894668662171407"><ele>24.0</ele><time>2026-05-03T12:53:22.999Z</time></trkpt><trkpt lat="44.328039744004144" lon="11.89447971623858"><ele>23.333333333333332</ele><time>2026-05-03T12:53:23.999Z</time></trkpt><trkpt lat="44.328115920929" lon="11.894290817271347"><ele>22.666666666666664</ele><time>2026-05-03T12:53:24.999Z</time></trkpt><trkpt lat="44.328191069085754" lon="11.894096450786762"><ele>22.0</ele><time>2026-05-03T12:53:25.999Z</time></trkpt><trkpt lat="44.328267230044325" lon="11.893902257503541"><ele>22.0</ele><time>2026-05-03T12:53:26.999Z</time></trkpt><trkpt lat="44.32834534446154" lon="11.893709972524867"><ele>22.0</ele><time>2026-05-03T12:53:27.999Z</time></trkpt><trkpt lat="44.328423494292934" lon="11.893512767071684"><ele>22.0</ele><time>2026-05-03T12:53:28.999Z</time></trkpt><trkpt lat="44.32850313141011" lon="11.893313590695417"><ele>22.0</ele><time>2026-05-03T12:53:29.999Z</time></trkpt><trkpt lat="44.32858469870355" lon="11.89311106435821"><ele>22.0</ele><time>2026-05-03T12:53:30.999Z</time></trkpt><trkpt lat="44.328671312638" lon="11.892897588913232"><ele>22.0</ele><time>2026-05-03T12:53:31.999Z</time></trkpt><trkpt lat="44.3287635611932" lon="11.892678323153675"><ele>22.0</ele><time>2026-05-03T12:53:32.999Z</time></trkpt><trkpt lat="44.328860174852515" lon="11.892452339725374"><ele>22.0</ele><time>2026-05-03T12:53:33.999Z</time></trkpt><trkpt lat="44.328963131553735" lon="11.892217652606917"><ele>22.0</ele><time>2026-05-03T12:53:34.999Z</time></trkpt><trkpt lat="44.32906870312638" lon="11.89197860567569"><ele>21.333333333333332</ele><time>2026-05-03T12:53:35.999Z</time></trkpt><trkpt lat="44.32910413470088" lon="11.891812632704614"><ele>20.666666666666668</ele><time>2026-05-03T12:53:36.999Z</time></trkpt><trkpt lat="44.32919514000796" lon="11.891582028455712"><ele>20.0</ele><time>2026-05-03T12:53:37.999Z</time></trkpt><trkpt lat="44.32929189708039" lon="11.891349170692884"><ele>20.0</ele><time>2026-05-03T12:53:38.999Z</time></trkpt><trkpt lat="44.32938651232681" lon="11.891110550149262"><ele>20.0</ele><time>2026-05-03T12:53:39.999Z</time></trkpt><trkpt lat="44.329477104396425" lon="11.890869089665223"><ele>20.0</ele><time>2026-05-03T12:53:40.999Z</time></trkpt><trkpt lat="44.32957590188423" lon="11.890623656399898"><ele>20.333333333333336</ele><time>2026-05-03T12:53:41.999Z</time></trkpt><trkpt lat="44.32967314682218" lon="11.890379080644607"><ele>20.666666666666668</ele><time>2026-05-03T12:53:42.999Z</time></trkpt><trkpt lat="44.32976991641824" lon="11.890135910674209"><ele>21.0</ele><time>2026-05-03T12:53:43.999Z</time></trkpt><trkpt lat="44.32986969631404" lon="11.889893927972262"><ele>21.666666666666668</ele><time>2026-05-03T12:53:44.999Z</time></trkpt><trkpt lat="44.32996708694613" lon="11.88964700795358"><ele>22.333333333333336</ele><time>2026-05-03T12:53:45.999Z</time></trkpt><trkpt lat="44.33006900838224" lon="11.889406167801468"><ele>23.0</ele><time>2026-05-03T12:53:46.999Z</time></trkpt><trkpt lat="44.330165903459005" lon="11.889164180809972"><ele>23.0</ele><time>2026-05-03T12:53:48Z</time></trkpt><trkpt lat="44.33026301158657" lon="11.888923440220799"><ele>23.0</ele><time>2026-05-03T12:53:49Z</time></trkpt><trkpt lat="44.33035745261067" lon="11.888678374789325"><ele>23.0</ele><time>2026-05-03T12:53:50Z</time></trkpt><trkpt lat="44.33045098486517" lon="11.888440086340141"><ele>22.666666666666668</ele><time>2026-05-03T12:53:51Z</time></trkpt><trkpt lat="44.33054552285655" lon="11.888212465885825"><ele>22.333333333333332</ele><time>2026-05-03T12:53:52Z</time></trkpt><trkpt lat="44.33063219752159" lon="11.88798442600517"><ele>22.0</ele><time>2026-05-03T12:53:53Z</time></trkpt><trkpt lat="44.330717726228926" lon="11.887766468812025"><ele>21.666666666666664</ele><time>2026-05-03T12:53:54Z</time></trkpt><trkpt lat="44.330797540557185" lon="11.887569269425159"><ele>21.333333333333332</ele><time>2026-05-03T12:53:55Z</time></trkpt><trkpt lat="44.33087496355479" lon="11.887381744252247"><ele>21.0</ele><time>2026-05-03T12:53:56Z</time></trkpt><trkpt lat="44.330943845088214" lon="11.887207613864295"><ele>21.0</ele><time>2026-05-03T12:53:57Z</time></trkpt><trkpt lat="44.33100995639561" lon="11.887041991513485"><ele>21.0</ele><time>2026-05-03T12:53:58Z</time></trkpt><trkpt lat="44.3310741188565" lon="11.886889261250792"><ele>21.0</ele><time>2026-05-03T12:53:59Z</time></trkpt><trkpt lat="44.331130537244114" lon="11.886757002915957"><ele>21.0</ele><time>2026-05-03T12:54:00Z</time></trkpt><trkpt lat="44.33118768654897" lon="11.886611822642617"><ele>21.25</ele><time>2026-05-03T12:54:01Z</time></trkpt><trkpt lat="44.331256208236375" lon="11.886449829446951"><ele>21.5</ele><time>2026-05-03T12:54:02Z</time></trkpt><trkpt lat="44.33132713623911" lon="11.886268195301323"><ele>21.75</ele><time>2026-05-03T12:54:03Z</time></trkpt><trkpt lat="44.331399632077044" lon="11.886077713817116"><ele>22.0</ele><time>2026-05-03T12:54:04Z</time></trkpt><trkpt lat="44.331477268070834" lon="11.885880551835818"><ele>22.666666666666664</ele><time>2026-05-03T12:54:05Z</time></trkpt><trkpt lat="44.33155735040072" lon="11.885678198807966"><ele>23.333333333333332</ele><time>2026-05-03T12:54:06Z</time></trkpt><trkpt lat="44.33163789181979" lon="11.885472722938909"><ele>24.0</ele><time>2026-05-03T12:54:07Z</time></trkpt><trkpt lat="44.33172107001576" lon="11.885264169868746"><ele>24.333333333333336</ele><time>2026-05-03T12:54:08Z</time></trkpt><trkpt lat="44.33180857780849" lon="11.885050622283133"><ele>24.666666666666668</ele><time>2026-05-03T12:54:09Z</time></trkpt><trkpt lat="44.33189352743207" lon="11.884838371841665"><ele>25.0</ele><time>2026-05-03T12:54:10Z</time></trkpt><trkpt lat="44.33197564216968" lon="11.884628272921926"><ele>25.0</ele><time>2026-05-03T12:54:11Z</time></trkpt><trkpt lat="44.332062641793186" lon="11.884421725538417"><ele>25.0</ele><time>2026-05-03T12:54:12Z</time></trkpt><trkpt lat="44.33214499096093" lon="11.884214327024246"><ele>25.0</ele><time>2026-05-03T12:54:13Z</time></trkpt><trkpt lat="44.332226310103884" lon="11.884009956250626"><ele>25.0</ele><time>2026-05-03T12:54:14Z</time></trkpt><trkpt lat="44.33230990495677" lon="11.8838035458467"><ele>25.0</ele><time>2026-05-03T12:54:15Z</time></trkpt><trkpt lat="44.332393671706974" lon="11.883597208724586"><ele>25.0</ele><time>2026-05-03T12:54:16Z</time></trkpt><trkpt lat="44.33247279315412" lon="11.883396074241844"><ele>25.333333333333336</ele><time>2026-05-03T12:54:17Z</time></trkpt><trkpt lat="44.3325573277443" lon="11.883185622377027"><ele>25.666666666666664</ele><time>2026-05-03T12:54:18Z</time></trkpt><trkpt lat="44.33264317865093" lon="11.882981813115782"><ele>26.0</ele><time>2026-05-03T12:54:19Z</time></trkpt><trkpt lat="44.33272575088263" lon="11.882774253411522"><ele>25.666666666666664</ele><time>2026-05-03T12:54:20Z</time></trkpt><trkpt lat="44.33280455196891" lon="11.882567108402304"><ele>25.333333333333336</ele><time>2026-05-03T12:54:21Z</time></trkpt><trkpt lat="44.33289007672099" lon="11.882354585374632"><ele>25.0</ele><time>2026-05-03T12:54:22Z</time></trkpt><trkpt lat="44.3329747791278" lon="11.882144104912697"><ele>25.0</ele><time>2026-05-03T12:54:23Z</time></trkpt><trkpt lat="44.33306024851311" lon="11.881926513518188"><ele>25.0</ele><time>2026-05-03T12:54:24Z</time></trkpt><trkpt lat="44.333145969435655" lon="11.88171270180408"><ele>25.0</ele><time>2026-05-03T12:54:25Z</time></trkpt><trkpt lat="44.333232525989914" lon="11.881495213169757"><ele>25.333333333333336</ele><time>2026-05-03T12:54:26Z</time></trkpt><trkpt lat="44.33332140649818" lon="11.881274619108666"><ele>25.666666666666664</ele><time>2026-05-03T12:54:27Z</time></trkpt><trkpt lat="44.333408625684534" lon="11.881053366430715"><ele>26.0</ele><time>2026-05-03T12:54:28Z</time></trkpt><trkpt lat="44.333497675267246" lon="11.880828392946324"><ele>25.0</ele><time>2026-05-03T12:54:29Z</time></trkpt><trkpt lat="44.33359107404916" lon="11.880600057380208"><ele>24.0</ele><time>2026-05-03T12:54:30Z</time></trkpt><trkpt lat="44.333682609879006" lon="11.880373031903337"><ele>23.0</ele><time>2026-05-03T12:54:31Z</time></trkpt><trkpt lat="44.33377454552153" lon="11.880141219842553"><ele>22.666666666666668</ele><time>2026-05-03T12:54:32Z</time></trkpt><trkpt lat="44.333866891789164" lon="11.879907064094002"><ele>22.333333333333332</ele><time>2026-05-03T12:54:33Z</time></trkpt><trkpt lat="44.333964904553476" lon="11.879660500131546"><ele>22.0</ele><time>2026-05-03T12:54:34Z</time></trkpt><trkpt lat="44.33406854874747" lon="11.879406679011304"><ele>23.0</ele><time>2026-05-03T12:54:35Z</time></trkpt><trkpt lat="44.33416677485394" lon="11.879153964901153"><ele>24.0</ele><time>2026-05-03T12:54:36Z</time></trkpt><trkpt lat="44.33426946085418" lon="11.878895463816804"><ele>25.0</ele><time>2026-05-03T12:54:37Z</time></trkpt><trkpt lat="44.33437454968144" lon="11.878630794688847"><ele>25.333333333333336</ele><time>2026-05-03T12:54:38Z</time></trkpt><trkpt lat="44.33447854532636" lon="11.87837154318277"><ele>25.666666666666664</ele><time>2026-05-03T12:54:39Z</time></trkpt><trkpt lat="44.33458402990922" lon="11.878110020315818"><ele>26.0</ele><time>2026-05-03T12:54:40Z</time></trkpt><trkpt lat="44.33469159954697" lon="11.877847754399836"><ele>24.666666666666664</ele><time>2026-05-03T12:54:41Z</time></trkpt><trkpt lat="44.33479938821915" lon="11.877578938979463"><ele>23.333333333333332</ele><time>2026-05-03T12:54:42Z</time></trkpt><trkpt lat="44.334908329536326" lon="11.877307326918046"><ele>22.0</ele><time>2026-05-03T12:54:43Z</time></trkpt><trkpt lat="44.33502102168772" lon="11.877030204702747"><ele>22.5</ele><time>2026-05-03T12:54:44Z</time></trkpt><trkpt lat="44.33513508753771" lon="11.876746460865782"><ele>23.0</ele><time>2026-05-03T12:54:45Z</time></trkpt><trkpt lat="44.33525035813798" lon="11.876455062881474"><ele>23.0</ele><time>2026-05-03T12:54:46Z</time></trkpt><trkpt lat="44.33536502720962" lon="11.876163840362814"><ele>23.0</ele><time>2026-05-03T12:54:47Z</time></trkpt><trkpt lat="44.33547762365538" lon="11.875880434894848"><ele>24.5</ele><time>2026-05-03T12:54:48Z</time></trkpt><trkpt lat="44.33558839481404" lon="11.875605157903298"><ele>26.0</ele><time>2026-05-03T12:54:49Z</time></trkpt><trkpt lat="44.335697305476316" lon="11.875329572563997"><ele>26.0</ele><time>2026-05-03T12:54:50Z</time></trkpt><trkpt lat="44.33580678329296" lon="11.875062392818332"><ele>26.0</ele><time>2026-05-03T12:54:51Z</time></trkpt><trkpt lat="44.33591321399884" lon="11.87479337168246"><ele>26.0</ele><time>2026-05-03T12:54:52Z</time></trkpt><trkpt lat="44.336022764590915" lon="11.874522097116992"><ele>25.0</ele><time>2026-05-03T12:54:53Z</time></trkpt><trkpt lat="44.33613264920734" lon="11.874246671662656"><ele>24.0</ele><time>2026-05-03T12:54:54Z</time></trkpt><trkpt lat="44.33623945343431" lon="11.873968890339475"><ele>24.0</ele><time>2026-05-03T12:54:55Z</time></trkpt><trkpt lat="44.336354094790266" lon="11.873686789164363"><ele>24.0</ele><time>2026-05-03T12:54:56Z</time></trkpt><trkpt lat="44.33646669354604" lon="11.873406450810355"><ele>24.0</ele><time>2026-05-03T12:54:57Z</time></trkpt><trkpt lat="44.3365746082681" lon="11.873135837691082"><ele>24.0</ele><time>2026-05-03T12:54:58Z</time></trkpt><trkpt lat="44.33668269067885" lon="11.872868536458638"><ele>24.0</ele><time>2026-05-03T12:54:59Z</time></trkpt><trkpt lat="44.33678767565345" lon="11.872605763944293"><ele>24.0</ele><time>2026-05-03T12:55:00Z</time></trkpt><trkpt lat="44.336892630681874" lon="11.872346331087057"><ele>24.0</ele><time>2026-05-03T12:55:01Z</time></trkpt><trkpt lat="44.336995880216435" lon="11.872089788376156"><ele>24.0</ele><time>2026-05-03T12:55:02Z</time></trkpt><trkpt lat="44.337095503476284" lon="11.871838515235975"><ele>24.333333333333336</ele><time>2026-05-03T12:55:03Z</time></trkpt><trkpt lat="44.33719310104296" lon="11.871590820396495"><ele>24.666666666666668</ele><time>2026-05-03T12:55:04Z</time></trkpt><trkpt lat="44.33728712880674" lon="11.871351597640611"><ele>25.0</ele><time>2026-05-03T12:55:05Z</time></trkpt><trkpt lat="44.33737706091612" lon="11.871122404726615"><ele>25.666666666666668</ele><time>2026-05-03T12:55:06Z</time></trkpt><trkpt lat="44.3374619292088" lon="11.870901190586498"><ele>26.333333333333336</ele><time>2026-05-03T12:55:07Z</time></trkpt><trkpt lat="44.33754211155742" lon="11.870681996840299"><ele>27.0</ele><time>2026-05-03T12:55:07.999Z</time></trkpt><trkpt lat="44.337618642284355" lon="11.870456549914408"><ele>27.0</ele><time>2026-05-03T12:55:08.999Z</time></trkpt><trkpt lat="44.3376926993343" lon="11.870229544196784"><ele>27.0</ele><time>2026-05-03T12:55:09.999Z</time></trkpt><trkpt lat="44.337762953111415" lon="11.869999290149224"><ele>27.0</ele><time>2026-05-03T12:55:10.999Z</time></trkpt><trkpt lat="44.337830110894565" lon="11.869766433572464"><ele>27.0</ele><time>2026-05-03T12:55:11.999Z</time></trkpt><trkpt lat="44.33789274389219" lon="11.869535746898151"><ele>27.0</ele><time>2026-05-03T12:55:12.999Z</time></trkpt><trkpt lat="44.337953234712124" lon="11.869306762839303"><ele>27.0</ele><time>2026-05-03T12:55:13.999Z</time></trkpt><trkpt lat="44.33801010139567" lon="11.86907656043574"><ele>27.0</ele><time>2026-05-03T12:55:14.999Z</time></trkpt><trkpt lat="44.33806242446029" lon="11.86884314121021"><ele>27.0</ele><time>2026-05-03T12:55:15.999Z</time></trkpt><trkpt lat="44.33811273933082" lon="11.868610459140278"><ele>27.0</ele><time>2026-05-03T12:55:16.999Z</time></trkpt><trkpt lat="44.33815957361598" lon="11.868376740810696"><ele>27.0</ele><time>2026-05-03T12:55:17.999Z</time></trkpt><trkpt lat="44.338203780687735" lon="11.868140492479549"><ele>27.0</ele><time>2026-05-03T12:55:18.999Z</time></trkpt><trkpt lat="44.33824369428759" lon="11.867904221096259"><ele>27.0</ele><time>2026-05-03T12:55:19.999Z</time></trkpt><trkpt lat="44.3382792334421" lon="11.86766746606835"><ele>27.0</ele><time>2026-05-03T12:55:20.999Z</time></trkpt><trkpt lat="44.33831238121305" lon="11.86743218243891"><ele>27.0</ele><time>2026-05-03T12:55:21.999Z</time></trkpt><trkpt lat="44.338343105836216" lon="11.86719706544642"><ele>27.0</ele><time>2026-05-03T12:55:22.999Z</time></trkpt><trkpt lat="44.338375217253855" lon="11.866965761065646"><ele>27.0</ele><time>2026-05-03T12:55:23.999Z</time></trkpt><trkpt lat="44.338408272363196" lon="11.86673555562433"><ele>27.0</ele><time>2026-05-03T12:55:24.999Z</time></trkpt><trkpt lat="44.338439888707015" lon="11.86650539352671"><ele>27.0</ele><time>2026-05-03T12:55:25.999Z</time></trkpt><trkpt lat="44.33848012609983" lon="11.866283855306168"><ele>27.0</ele><time>2026-05-03T12:55:26.999Z</time></trkpt><trkpt lat="44.33850943706653" lon="11.866047821258485"><ele>27.0</ele><time>2026-05-03T12:55:27.999Z</time></trkpt><trkpt lat="44.338539494616455" lon="11.865807497314643"><ele>27.0</ele><time>2026-05-03T12:55:28.999Z</time></trkpt><trkpt lat="44.338576903137884" lon="11.86557112435628"><ele>27.0</ele><time>2026-05-03T12:55:29.999Z</time></trkpt><trkpt lat="44.33861188786378" lon="11.865330654578374"><ele>27.0</ele><time>2026-05-03T12:55:30.999Z</time></trkpt><trkpt lat="44.33864460721739" lon="11.865086141707469"><ele>27.0</ele><time>2026-05-03T12:55:31.999Z</time></trkpt><trkpt lat="44.338677354472956" lon="11.864843917923372"><ele>27.333333333333336</ele><time>2026-05-03T12:55:32.999Z</time></trkpt><trkpt lat="44.33871156433572" lon="11.864598043677487"><ele>27.666666666666668</ele><time>2026-05-03T12:55:33.999Z</time></trkpt><trkpt lat="44.33874392411869" lon="11.864352285782424"><ele>28.0</ele><time>2026-05-03T12:55:34.999Z</time></trkpt><trkpt lat="44.33877674662762" lon="11.864124481667625"><ele>28.0</ele><time>2026-05-03T12:55:35.999Z</time></trkpt><trkpt lat="44.33880791049345" lon="11.863912414459579"><ele>28.0</ele><time>2026-05-03T12:55:36.999Z</time></trkpt><trkpt lat="44.33883834261442" lon="11.863699719997596"><ele>28.0</ele><time>2026-05-03T12:55:37.999Z</time></trkpt><trkpt lat="44.33886697735769" lon="11.863483379783155"><ele>28.25</ele><time>2026-05-03T12:55:38.999Z</time></trkpt><trkpt lat="44.338897091729315" lon="11.863279485103888"><ele>28.5</ele><time>2026-05-03T12:55:39.999Z</time></trkpt><trkpt lat="44.3389224580415" lon="11.863090712807006"><ele>28.75</ele><time>2026-05-03T12:55:40.999Z</time></trkpt><trkpt lat="44.33894590216029" lon="11.862912783552643"><ele>29.0</ele><time>2026-05-03T12:55:41.999Z</time></trkpt><trkpt lat="44.338969398543846" lon="11.86274525794629"><ele>29.4</ele><time>2026-05-03T12:55:42.999Z</time></trkpt><trkpt lat="44.33899055894631" lon="11.862591182068472"><ele>29.799999999999997</ele><time>2026-05-03T12:55:43.999Z</time></trkpt><trkpt lat="44.33900773549075" lon="11.862456944473896"><ele>30.200000000000003</ele><time>2026-05-03T12:55:44.999Z</time></trkpt><trkpt lat="44.33902294341096" lon="11.862346815469905"><ele>30.6</ele><time>2026-05-03T12:55:45.999Z</time></trkpt><trkpt lat="44.33903455920511" lon="11.862259332440429"><ele>31.0</ele><time>2026-05-03T12:55:46.999Z</time></trkpt><trkpt lat="44.339050850914596" lon="11.862126563200055"><ele>31.000000000000004</ele><time>2026-05-03T12:55:48.999Z</time></trkpt><trkpt lat="44.33906759183867" lon="11.862014262221077"><ele>31.0</ele><time>2026-05-03T12:56:00Z</time></trkpt><trkpt lat="44.33908474792184" lon="11.861897325705689"><ele>31.0</ele><time>2026-05-03T12:56:02Z</time></trkpt><trkpt lat="44.33909733951205" lon="11.861782650356293"><ele>31.0</ele><time>2026-05-03T12:56:04Z</time></trkpt><trkpt lat="44.33911341668631" lon="11.861668380900001"><ele>31.000000000000004</ele><time>2026-05-03T12:56:06Z</time></trkpt><trkpt lat="44.33912939986204" lon="11.861556331692324"><ele>31.0</ele><time>2026-05-03T12:56:08Z</time></trkpt><trkpt lat="44.33915229726838" lon="11.861395420370279"><ele>30.833333333333336</ele><time>2026-05-03T12:56:10Z</time></trkpt><trkpt lat="44.33916751529796" lon="11.861298327326068"><ele>30.666666666666668</ele><time>2026-05-03T12:56:11Z</time></trkpt><trkpt lat="44.33918135192399" lon="11.86120318508564"><ele>30.5</ele><time>2026-05-03T12:56:12Z</time></trkpt><trkpt lat="44.339195455164905" lon="11.861096925359991"><ele>30.333333333333336</ele><time>2026-05-03T12:56:13Z</time></trkpt><trkpt lat="44.33921308139802" lon="11.8609715206397"><ele>30.166666666666668</ele><time>2026-05-03T12:56:14Z</time></trkpt><trkpt lat="44.33922986519152" lon="11.860849843815727"><ele>30.0</ele><time>2026-05-03T12:56:15Z</time></trkpt><trkpt lat="44.33924673870144" lon="11.860730320131163"><ele>30.0</ele><time>2026-05-03T12:56:16Z</time></trkpt><trkpt lat="44.33926135038944" lon="11.860618064664227"><ele>30.0</ele><time>2026-05-03T12:56:17Z</time></trkpt><trkpt lat="44.3392746847615" lon="11.86052111713784"><ele>30.0</ele><time>2026-05-03T12:56:18Z</time></trkpt><trkpt lat="44.33928762802948" lon="11.860429309891655"><ele>30.0</ele><time>2026-05-03T12:56:19Z</time></trkpt><trkpt lat="44.33930173984842" lon="11.860329028009291"><ele>30.0</ele><time>2026-05-03T12:56:20Z</time></trkpt><trkpt lat="44.339315236257754" lon="11.860225176458359"><ele>30.0</ele><time>2026-05-03T12:56:21Z</time></trkpt><trkpt lat="44.33932941204229" lon="11.860130091707253"><ele>30.0</ele><time>2026-05-03T12:56:22Z</time></trkpt><trkpt lat="44.33934262292733" lon="11.86004193958157"><ele>30.166666666666668</ele><time>2026-05-03T12:56:23Z</time></trkpt><trkpt lat="44.339355610413676" lon="11.85995128972225"><ele>30.333333333333336</ele><time>2026-05-03T12:56:24Z</time></trkpt><trkpt lat="44.33936913104876" lon="11.859855965794795"><ele>30.5</ele><time>2026-05-03T12:56:25Z</time></trkpt><trkpt lat="44.339381815777685" lon="11.859768732928138"><ele>30.666666666666668</ele><time>2026-05-03T12:56:26Z</time></trkpt><trkpt lat="44.33940478721681" lon="11.85961068951558"><ele>30.833333333333336</ele><time>2026-05-03T12:56:28Z</time></trkpt><trkpt lat="44.33941938680418" lon="11.85951047133788"><ele>31.0</ele><time>2026-05-03T12:56:29Z</time></trkpt><trkpt lat="44.33943415567364" lon="11.859405808263643"><ele>31.0</ele><time>2026-05-03T12:56:30Z</time></trkpt><trkpt lat="44.3394470853693" lon="11.859302583894488"><ele>31.0</ele><time>2026-05-03T12:56:31Z</time></trkpt><trkpt lat="44.339460384130625" lon="11.859181601526721"><ele>31.0</ele><time>2026-05-03T12:56:32Z</time></trkpt><trkpt lat="44.33947744002588" lon="11.859050568582692"><ele>31.0</ele><time>2026-05-03T12:56:33Z</time></trkpt><trkpt lat="44.339496386662525" lon="11.858909506197941"><ele>31.0</ele><time>2026-05-03T12:56:34Z</time></trkpt><trkpt lat="44.33951861410751" lon="11.858755136396642"><ele>31.0</ele><time>2026-05-03T12:56:35Z</time></trkpt><trkpt lat="44.33954366702099" lon="11.858573573975224"><ele>31.0</ele><time>2026-05-03T12:56:36Z</time></trkpt><trkpt lat="44.33957316949238" lon="11.858351891578243"><ele>31.0</ele><time>2026-05-03T12:56:37Z</time></trkpt><trkpt lat="44.339605231376424" lon="11.858126351176661"><ele>31.0</ele><time>2026-05-03T12:56:38Z</time></trkpt><trkpt lat="44.33963909152915" lon="11.85788474365536"><ele>31.0</ele><time>2026-05-03T12:56:39Z</time></trkpt><trkpt lat="44.33967437993122" lon="11.857633437337713"><ele>31.0</ele><time>2026-05-03T12:56:40Z</time></trkpt><trkpt lat="44.339708727529334" lon="11.857380483053058"><ele>31.0</ele><time>2026-05-03T12:56:41Z</time></trkpt><trkpt lat="44.33974383275298" lon="11.857125713234455"><ele>31.0</ele><time>2026-05-03T12:56:42Z</time></trkpt><trkpt lat="44.33977965748707" lon="11.85686781435036"><ele>31.0</ele><time>2026-05-03T12:56:43Z</time></trkpt><trkpt lat="44.33981345614526" lon="11.856611907276434"><ele>30.333333333333336</ele><time>2026-05-03T12:56:44Z</time></trkpt><trkpt lat="44.339848346112" lon="11.856356932685555"><ele>29.666666666666664</ele><time>2026-05-03T12:56:45Z</time></trkpt><trkpt lat="44.339883550627334" lon="11.856100875251533"><ele>29.0</ele><time>2026-05-03T12:56:46Z</time></trkpt><trkpt lat="44.339918840306495" lon="11.855844126475569"><ele>29.0</ele><time>2026-05-03T12:56:47Z</time></trkpt><trkpt lat="44.33995438793067" lon="11.855586045133792"><ele>29.0</ele><time>2026-05-03T12:56:48Z</time></trkpt><trkpt lat="44.33998944145582" lon="11.855334314440684"><ele>29.0</ele><time>2026-05-03T12:56:49Z</time></trkpt><trkpt lat="44.34002344900611" lon="11.855094941943294"><ele>29.0</ele><time>2026-05-03T12:56:50Z</time></trkpt><trkpt lat="44.34005863468372" lon="11.854853719623252"><ele>29.0</ele><time>2026-05-03T12:56:51Z</time></trkpt><trkpt lat="44.340093106044" lon="11.854612274808963"><ele>29.0</ele><time>2026-05-03T12:56:52Z</time></trkpt><trkpt lat="44.34012572168214" lon="11.854374579500558"><ele>28.666666666666664</ele><time>2026-05-03T12:56:53Z</time></trkpt><trkpt lat="44.340160434391144" lon="11.854136653005861"><ele>28.333333333333336</ele><time>2026-05-03T12:56:54Z</time></trkpt><trkpt lat="44.34019886219609" lon="11.85390226615865"><ele>28.0</ele><time>2026-05-03T12:56:55Z</time></trkpt><trkpt lat="44.34023997599444" lon="11.853672536374777"><ele>28.0</ele><time>2026-05-03T12:56:56Z</time></trkpt><trkpt lat="44.340280951561176" lon="11.853457181671958"><ele>28.0</ele><time>2026-05-03T12:56:57Z</time></trkpt><trkpt lat="44.340323378063935" lon="11.853252713036573"><ele>28.0</ele><time>2026-05-03T12:56:58Z</time></trkpt><trkpt lat="44.340367243557964" lon="11.85305423290676"><ele>27.666666666666668</ele><time>2026-05-03T12:56:59Z</time></trkpt><trkpt lat="44.34041384666587" lon="11.852854032124462"><ele>27.333333333333336</ele><time>2026-05-03T12:57:00Z</time></trkpt><trkpt lat="44.34046500312121" lon="11.85265231096055"><ele>27.0</ele><time>2026-05-03T12:57:01Z</time></trkpt><trkpt lat="44.34051781086712" lon="11.852451483728736"><ele>26.666666666666664</ele><time>2026-05-03T12:57:02Z</time></trkpt><trkpt lat="44.34057345640192" lon="11.852246772373924"><ele>26.333333333333332</ele><time>2026-05-03T12:57:03Z</time></trkpt><trkpt lat="44.340631826878955" lon="11.852039688346602"><ele>26.0</ele><time>2026-05-03T12:57:04Z</time></trkpt><trkpt lat="44.34069619255461" lon="11.851829647526124"><ele>25.666666666666664</ele><time>2026-05-03T12:57:05Z</time></trkpt><trkpt lat="44.34076666879012" lon="11.85161570048124"><ele>25.333333333333336</ele><time>2026-05-03T12:57:06Z</time></trkpt><trkpt lat="44.34084026458014" lon="11.851402309399036"><ele>25.0</ele><time>2026-05-03T12:57:07Z</time></trkpt><trkpt lat="44.34091932956608" lon="11.851185364005577"><ele>25.0</ele><time>2026-05-03T12:57:07.999Z</time></trkpt><trkpt lat="44.34100223867128" lon="11.850966834643518"><ele>25.0</ele><time>2026-05-03T12:57:08.999Z</time></trkpt><trkpt lat="44.34108638185652" lon="11.85074938915221"><ele>25.0</ele><time>2026-05-03T12:57:09.999Z</time></trkpt><trkpt lat="44.341171845544785" lon="11.85053680240724"><ele>25.0</ele><time>2026-05-03T12:57:10.999Z</time></trkpt><trkpt lat="44.34125743428124" lon="11.850327306732236"><ele>25.0</ele><time>2026-05-03T12:57:11.999Z</time></trkpt><trkpt lat="44.34134403398721" lon="11.850125174040276"><ele>25.0</ele><time>2026-05-03T12:57:12.999Z</time></trkpt><trkpt lat="44.34142782683406" lon="11.849939890332509"><ele>24.75</ele><time>2026-05-03T12:57:13.999Z</time></trkpt><trkpt lat="44.341506867881535" lon="11.849763742046067"><ele>24.5</ele><time>2026-05-03T12:57:14.999Z</time></trkpt><trkpt lat="44.341584858276114" lon="11.849584807365096"><ele>24.25</ele><time>2026-05-03T12:57:15.999Z</time></trkpt><trkpt lat="44.34166267889773" lon="11.849408115352663"><ele>24.0</ele><time>2026-05-03T12:57:16.999Z</time></trkpt><trkpt lat="44.341740812310505" lon="11.849238783185509"><ele>24.5</ele><time>2026-05-03T12:57:17.999Z</time></trkpt><trkpt lat="44.34182106125439" lon="11.849071115571995"><ele>25.0</ele><time>2026-05-03T12:57:18.999Z</time></trkpt><trkpt lat="44.34189740576323" lon="11.848900642107276"><ele>25.5</ele><time>2026-05-03T12:57:19.999Z</time></trkpt><trkpt lat="44.34197311166868" lon="11.84872919695169"><ele>26.0</ele><time>2026-05-03T12:57:20.999Z</time></trkpt><trkpt lat="44.3420517785628" lon="11.848558867280246"><ele>25.75</ele><time>2026-05-03T12:57:21.999Z</time></trkpt><trkpt lat="44.34213181880423" lon="11.848387823307219"><ele>25.5</ele><time>2026-05-03T12:57:22.999Z</time></trkpt><trkpt lat="44.34221684646294" lon="11.848213863828597"><ele>25.25</ele><time>2026-05-03T12:57:23.999Z</time></trkpt><trkpt lat="44.34229845133434" lon="11.848035784600834"><ele>25.0</ele><time>2026-05-03T12:57:24.999Z</time></trkpt><trkpt lat="44.342378080679715" lon="11.847855728079672"><ele>25.666666666666668</ele><time>2026-05-03T12:57:25.999Z</time></trkpt><trkpt lat="44.342459408983785" lon="11.84767925947972"><ele>26.333333333333336</ele><time>2026-05-03T12:57:26.999Z</time></trkpt><trkpt lat="44.34253923429566" lon="11.84750401346089"><ele>27.0</ele><time>2026-05-03T12:57:27.999Z</time></trkpt><trkpt lat="44.342619747745594" lon="11.847324283693085"><ele>27.0</ele><time>2026-05-03T12:57:28.999Z</time></trkpt><trkpt lat="44.342701783893354" lon="11.84714328822094"><ele>27.0</ele><time>2026-05-03T12:57:29.999Z</time></trkpt><trkpt lat="44.342784310797214" lon="11.846962357814187"><ele>27.0</ele><time>2026-05-03T12:57:30.999Z</time></trkpt><trkpt lat="44.34286672755668" lon="11.846781760273295"><ele>27.0</ele><time>2026-05-03T12:57:31.999Z</time></trkpt><trkpt lat="44.342948162182275" lon="11.846605591518372"><ele>27.0</ele><time>2026-05-03T12:57:32.999Z</time></trkpt><trkpt lat="44.343027204546466" lon="11.846432861124956"><ele>27.0</ele><time>2026-05-03T12:57:33.999Z</time></trkpt><trkpt lat="44.34310492154096" lon="11.846260606489931"><ele>27.0</ele><time>2026-05-03T12:57:34.999Z</time></trkpt><trkpt lat="44.34318326989588" lon="11.846089313602695"><ele>26.75</ele><time>2026-05-03T12:57:35.999Z</time></trkpt><trkpt lat="44.34326428447708" lon="11.84591708729317"><ele>26.5</ele><time>2026-05-03T12:57:36.999Z</time></trkpt><trkpt lat="44.34334697657054" lon="11.845743193679654"><ele>26.25</ele><time>2026-05-03T12:57:37.999Z</time></trkpt><trkpt lat="44.34343080307067" lon="11.845567227158822"><ele>26.0</ele><time>2026-05-03T12:57:38.999Z</time></trkpt><trkpt lat="44.34351555139456" lon="11.845391364752036"><ele>26.0</ele><time>2026-05-03T12:57:39.999Z</time></trkpt><trkpt lat="44.343599111824126" lon="11.845216330419408"><ele>26.0</ele><time>2026-05-03T12:57:40.999Z</time></trkpt><trkpt lat="44.34367916430931" lon="11.845043454871902"><ele>26.0</ele><time>2026-05-03T12:57:41.999Z</time></trkpt><trkpt lat="44.34375741543599" lon="11.84487813438008"><ele>26.0</ele><time>2026-05-03T12:57:42.999Z</time></trkpt><trkpt lat="44.34383472703861" lon="11.844714050593838"><ele>25.75</ele><time>2026-05-03T12:57:43.999Z</time></trkpt><trkpt lat="44.34391072046337" lon="11.844549188085782"><ele>25.5</ele><time>2026-05-03T12:57:44.999Z</time></trkpt><trkpt lat="44.34398611391462" lon="11.844385474771881"><ele>25.25</ele><time>2026-05-03T12:57:45.999Z</time></trkpt><trkpt lat="44.34406335189283" lon="11.844220295670857"><ele>25.0</ele><time>2026-05-03T12:57:46.999Z</time></trkpt><trkpt lat="44.34413824222176" lon="11.844053188860839"><ele>25.0</ele><time>2026-05-03T12:57:47.999Z</time></trkpt><trkpt lat="44.34420962205673" lon="11.843878267665131"><ele>25.0</ele><time>2026-05-03T12:57:48.999Z</time></trkpt><trkpt lat="44.344282940864176" lon="11.843693166882822"><ele>25.0</ele><time>2026-05-03T12:57:49.999Z</time></trkpt><trkpt lat="44.34436051117805" lon="11.843508239355794"><ele>25.0</ele><time>2026-05-03T12:57:50.999Z</time></trkpt><trkpt lat="44.34444278173268" lon="11.843318894336829"><ele>25.333333333333336</ele><time>2026-05-03T12:57:51.999Z</time></trkpt><trkpt lat="44.34452703793237" lon="11.843129232347982"><ele>25.666666666666664</ele><time>2026-05-03T12:57:52.999Z</time></trkpt><trkpt lat="44.344610890143294" lon="11.842943625198041"><ele>26.0</ele><time>2026-05-03T12:57:53.999Z</time></trkpt><trkpt lat="44.3446890562812" lon="11.842769109457613"><ele>26.0</ele><time>2026-05-03T12:57:54.999Z</time></trkpt><trkpt lat="44.34476591282483" lon="11.842595591753692"><ele>26.0</ele><time>2026-05-03T12:57:55.999Z</time></trkpt><trkpt lat="44.344844329206" lon="11.84242035805885"><ele>26.0</ele><time>2026-05-03T12:57:56.999Z</time></trkpt><trkpt lat="44.34492277742585" lon="11.842245916505597"><ele>26.0</ele><time>2026-05-03T12:57:57.999Z</time></trkpt><trkpt lat="44.34500157842574" lon="11.842071340258363"><ele>26.0</ele><time>2026-05-03T12:57:58.999Z</time></trkpt><trkpt lat="44.34508028628175" lon="11.841898006884948"><ele>26.0</ele><time>2026-05-03T12:58:00Z</time></trkpt><trkpt lat="44.345157548876855" lon="11.841725649747826"><ele>26.0</ele><time>2026-05-03T12:58:01Z</time></trkpt><trkpt lat="44.34523588514047" lon="11.841551954815245"><ele>26.0</ele><time>2026-05-03T12:58:02Z</time></trkpt><trkpt lat="44.345315999073016" lon="11.841376999420078"><ele>26.333333333333332</ele><time>2026-05-03T12:58:03Z</time></trkpt><trkpt lat="44.34539639761971" lon="11.841201928865205"><ele>26.666666666666664</ele><time>2026-05-03T12:58:04Z</time></trkpt><trkpt lat="44.34548039507941" lon="11.841019339472437"><ele>27.0</ele><time>2026-05-03T12:58:05Z</time></trkpt><trkpt lat="44.3455661201097" lon="11.840831366919799"><ele>27.0</ele><time>2026-05-03T12:58:06Z</time></trkpt><trkpt lat="44.34565255996843" lon="11.840641723577768"><ele>27.0</ele><time>2026-05-03T12:58:07Z</time></trkpt><trkpt lat="44.34574020974201" lon="11.8404481922172"><ele>27.0</ele><time>2026-05-03T12:58:08Z</time></trkpt><trkpt lat="44.34582850959685" lon="11.840252476913367"><ele>27.333333333333336</ele><time>2026-05-03T12:58:09Z</time></trkpt><trkpt lat="44.34591588106984" lon="11.840055964733626"><ele>27.666666666666668</ele><time>2026-05-03T12:58:10Z</time></trkpt><trkpt lat="44.34600412348141" lon="11.839857089067277"><ele>28.0</ele><time>2026-05-03T12:58:11Z</time></trkpt><trkpt lat="44.34609291609087" lon="11.839664099788271"><ele>28.0</ele><time>2026-05-03T12:58:12Z</time></trkpt><trkpt lat="44.34618135950302" lon="11.83947480934895"><ele>28.0</ele><time>2026-05-03T12:58:13Z</time></trkpt><trkpt lat="44.34627863404177" lon="11.839263894246868"><ele>28.0</ele><time>2026-05-03T12:58:14Z</time></trkpt><trkpt lat="44.34637165706998" lon="11.839065018924346"><ele>27.666666666666668</ele><time>2026-05-03T12:58:15Z</time></trkpt><trkpt lat="44.34646404813942" lon="11.838862991621726"><ele>27.333333333333336</ele><time>2026-05-03T12:58:16Z</time></trkpt><trkpt lat="44.34655516694063" lon="11.838661502541774"><ele>27.0</ele><time>2026-05-03T12:58:17Z</time></trkpt><trkpt lat="44.346642002232294" lon="11.838460526368834"><ele>27.0</ele><time>2026-05-03T12:58:18Z</time></trkpt><trkpt lat="44.34672820965013" lon="11.838262861007106"><ele>27.0</ele><time>2026-05-03T12:58:19Z</time></trkpt><trkpt lat="44.3468195131661" lon="11.83806085128106"><ele>27.0</ele><time>2026-05-03T12:58:20Z</time></trkpt><trkpt lat="44.346908641409236" lon="11.83784458744847"><ele>26.333333333333336</ele><time>2026-05-03T12:58:21Z</time></trkpt><trkpt lat="44.347000215788185" lon="11.83763163526194"><ele>25.666666666666668</ele><time>2026-05-03T12:58:22Z</time></trkpt><trkpt lat="44.347093061292675" lon="11.837417663026777"><ele>25.0</ele><time>2026-05-03T12:58:23Z</time></trkpt><trkpt lat="44.34718255261946" lon="11.837192163125613"><ele>25.0</ele><time>2026-05-03T12:58:24Z</time></trkpt><trkpt lat="44.34727162619404" lon="11.836969044754246"><ele>25.0</ele><time>2026-05-03T12:58:25Z</time></trkpt><trkpt lat="44.3473591986156" lon="11.83674459511195"><ele>25.0</ele><time>2026-05-03T12:58:26Z</time></trkpt><trkpt lat="44.347447986116634" lon="11.836519191932707"><ele>25.0</ele><time>2026-05-03T12:58:27Z</time></trkpt><trkpt lat="44.34753259330008" lon="11.836290122405943"><ele>25.0</ele><time>2026-05-03T12:58:28Z</time></trkpt><trkpt lat="44.34761570328461" lon="11.83606365429057"><ele>25.0</ele><time>2026-05-03T12:58:29Z</time></trkpt><trkpt lat="44.34769494442684" lon="11.835835456329976"><ele>25.333333333333336</ele><time>2026-05-03T12:58:30Z</time></trkpt><trkpt lat="44.347776146087305" lon="11.835607252573052"><ele>25.666666666666664</ele><time>2026-05-03T12:58:31Z</time></trkpt><trkpt lat="44.34785456019096" lon="11.835387716020543"><ele>26.0</ele><time>2026-05-03T12:58:32Z</time></trkpt><trkpt lat="44.34793053856723" lon="11.835167415063918"><ele>26.0</ele><time>2026-05-03T12:58:33Z</time></trkpt><trkpt lat="44.34800630294198" lon="11.83494032784173"><ele>26.0</ele><time>2026-05-03T12:58:34Z</time></trkpt><trkpt lat="44.34808037082586" lon="11.83471391109896"><ele>26.0</ele><time>2026-05-03T12:58:35Z</time></trkpt><trkpt lat="44.34815044239459" lon="11.83448853156759"><ele>26.0</ele><time>2026-05-03T12:58:36Z</time></trkpt><trkpt lat="44.348220291437976" lon="11.83426404727361"><ele>26.0</ele><time>2026-05-03T12:58:37Z</time></trkpt><trkpt lat="44.3482941681354" lon="11.834038146836924"><ele>26.0</ele><time>2026-05-03T12:58:38Z</time></trkpt><trkpt lat="44.348366741720774" lon="11.833811591558673"><ele>26.0</ele><time>2026-05-03T12:58:39Z</time></trkpt><trkpt lat="44.34843814709048" lon="11.833586504653605"><ele>26.0</ele><time>2026-05-03T12:58:40Z</time></trkpt><trkpt lat="44.34850379614334" lon="11.833360124174014"><ele>26.0</ele><time>2026-05-03T12:58:41Z</time></trkpt><trkpt lat="44.34857658508672" lon="11.833129933239304"><ele>25.666666666666664</ele><time>2026-05-03T12:58:42Z</time></trkpt><trkpt lat="44.348648596516036" lon="11.832902497636217"><ele>25.333333333333336</ele><time>2026-05-03T12:58:43Z</time></trkpt><trkpt lat="44.34871757890812" lon="11.83267939056054"><ele>25.0</ele><time>2026-05-03T12:58:44Z</time></trkpt><trkpt lat="44.348792264334406" lon="11.832453982655698"><ele>25.0</ele><time>2026-05-03T12:58:45Z</time></trkpt><trkpt lat="44.348857419359675" lon="11.832230140358556"><ele>25.0</ele><time>2026-05-03T12:58:46Z</time></trkpt><trkpt lat="44.34892224784697" lon="11.832004556507695"><ele>25.0</ele><time>2026-05-03T12:58:47Z</time></trkpt><trkpt lat="44.34899455623207" lon="11.831778535235653"><ele>24.666666666666668</ele><time>2026-05-03T12:58:48Z</time></trkpt><trkpt lat="44.34906571589322" lon="11.831557037768023"><ele>24.333333333333336</ele><time>2026-05-03T12:58:49Z</time></trkpt><trkpt lat="44.3491336805902" lon="11.831335882965446"><ele>24.0</ele><time>2026-05-03T12:58:50Z</time></trkpt><trkpt lat="44.34920405316715" lon="11.831124061140981"><ele>24.333333333333336</ele><time>2026-05-03T12:58:50.999Z</time></trkpt><trkpt lat="44.34927184225384" lon="11.830906565138145"><ele>24.666666666666668</ele><time>2026-05-03T12:58:51.999Z</time></trkpt><trkpt lat="44.349335944688875" lon="11.830690600252842"><ele>25.0</ele><time>2026-05-03T12:58:52.999Z</time></trkpt><trkpt lat="44.3493995275774" lon="11.830482200932224"><ele>25.0</ele><time>2026-05-03T12:58:53.999Z</time></trkpt><trkpt lat="44.349450629159136" lon="11.830302431595948"><ele>25.0</ele><time>2026-05-03T12:58:54.999Z</time></trkpt><trkpt lat="44.34950151632092" lon="11.830174186383262"><ele>25.0</ele><time>2026-05-03T12:58:55.999Z</time></trkpt><trkpt lat="44.349531201588" lon="11.830074147419978"><ele>25.0</ele><time>2026-05-03T12:58:56.999Z</time></trkpt><trkpt lat="44.34955122550726" lon="11.82998311784948"><ele>25.0</ele><time>2026-05-03T12:58:57.999Z</time></trkpt><trkpt lat="44.34958045640175" lon="11.829867321215728"><ele>25.000000000000004</ele><time>2026-05-03T12:58:59.999Z</time></trkpt><trkpt lat="44.34960673793921" lon="11.829777492983396"><ele>25.0</ele><time>2026-05-03T12:59:01.999Z</time></trkpt><trkpt lat="44.349638195517386" lon="11.82965959853675"><ele>25.0</ele><time>2026-05-03T12:59:03.999Z</time></trkpt><trkpt lat="44.34967345723486" lon="11.829529002842124"><ele>25.0</ele><time>2026-05-03T12:59:05.999Z</time></trkpt><trkpt lat="44.34971410635612" lon="11.82937638256285"><ele>25.000000000000004</ele><time>2026-05-03T12:59:07.999Z</time></trkpt><trkpt lat="44.34973882184388" lon="11.829280149211577"><ele>25.0</ele><time>2026-05-03T12:59:08.999Z</time></trkpt><trkpt lat="44.34976818736285" lon="11.8291752364688"><ele>25.000000000000004</ele><time>2026-05-03T12:59:09.999Z</time></trkpt><trkpt lat="44.34980246043904" lon="11.82906296985577"><ele>25.0</ele><time>2026-05-03T12:59:10.999Z</time></trkpt><trkpt lat="44.34983809983895" lon="11.828946699209228"><ele>25.0</ele><time>2026-05-03T12:59:11.999Z</time></trkpt><trkpt lat="44.349874732956366" lon="11.828829149501338"><ele>25.0</ele><time>2026-05-03T12:59:12.999Z</time></trkpt><trkpt lat="44.349910536505384" lon="11.828715191786934"><ele>25.000000000000004</ele><time>2026-05-03T12:59:13.999Z</time></trkpt><trkpt lat="44.34994452251414" lon="11.828605177759853"><ele>25.0</ele><time>2026-05-03T12:59:14.999Z</time></trkpt><trkpt lat="44.34997525593933" lon="11.828498240287622"><ele>25.000000000000004</ele><time>2026-05-03T12:59:15.999Z</time></trkpt><trkpt lat="44.350003639416265" lon="11.828392408893915"><ele>25.0</ele><time>2026-05-03T12:59:16.999Z</time></trkpt><trkpt lat="44.35003268834307" lon="11.828282546737046"><ele>25.0</ele><time>2026-05-03T12:59:17.999Z</time></trkpt><trkpt lat="44.35006211207907" lon="11.828175269066246"><ele>25.0</ele><time>2026-05-03T12:59:18.999Z</time></trkpt><trkpt lat="44.35009313759637" lon="11.828061417715942"><ele>25.000000000000004</ele><time>2026-05-03T12:59:19.999Z</time></trkpt><trkpt lat="44.35012731647921" lon="11.827946524066578"><ele>25.0</ele><time>2026-05-03T12:59:20.999Z</time></trkpt><trkpt lat="44.350165178789275" lon="11.827823169349486"><ele>25.0</ele><time>2026-05-03T12:59:21.999Z</time></trkpt><trkpt lat="44.35020630110228" lon="11.827685066810712"><ele>25.0</ele><time>2026-05-03T12:59:22.999Z</time></trkpt><trkpt lat="44.350250751937516" lon="11.827535943876887"><ele>25.0</ele><time>2026-05-03T12:59:23.999Z</time></trkpt><trkpt lat="44.350295793007135" lon="11.827380141183607"><ele>25.0</ele><time>2026-05-03T12:59:24.999Z</time></trkpt><trkpt lat="44.35034219028029" lon="11.827216367729147"><ele>25.0</ele><time>2026-05-03T12:59:25.999Z</time></trkpt><trkpt lat="44.35039068246942" lon="11.82704602248947"><ele>25.0</ele><time>2026-05-03T12:59:26.999Z</time></trkpt><trkpt lat="44.35044135665423" lon="11.826877904154738"><ele>25.0</ele><time>2026-05-03T12:59:27.999Z</time></trkpt><trkpt lat="44.35049451621153" lon="11.826708339038312"><ele>25.0</ele><time>2026-05-03T12:59:28.999Z</time></trkpt><trkpt lat="44.35054860781577" lon="11.826532970636839"><ele>25.25</ele><time>2026-05-03T12:59:29.999Z</time></trkpt><trkpt lat="44.35060493440947" lon="11.826353798788626"><ele>25.5</ele><time>2026-05-03T12:59:30.999Z</time></trkpt><trkpt lat="44.35066240175397" lon="11.826171141769887"><ele>25.75</ele><time>2026-05-03T12:59:31.999Z</time></trkpt><trkpt lat="44.350721626831856" lon="11.825988774374782"><ele>26.0</ele><time>2026-05-03T12:59:32.999Z</time></trkpt><trkpt lat="44.35078153325474" lon="11.825812264893196"><ele>26.0</ele><time>2026-05-03T12:59:33.999Z</time></trkpt><trkpt lat="44.35084275592321" lon="11.825638665664707"><ele>26.0</ele><time>2026-05-03T12:59:34.999Z</time></trkpt><trkpt lat="44.35089901641512" lon="11.825472186096896"><ele>26.0</ele><time>2026-05-03T12:59:35.999Z</time></trkpt><trkpt lat="44.35094916781289" lon="11.825320164784154"><ele>26.0</ele><time>2026-05-03T12:59:36.999Z</time></trkpt><trkpt lat="44.35099362382291" lon="11.825182957910844"><ele>26.0</ele><time>2026-05-03T12:59:37.999Z</time></trkpt><trkpt lat="44.35103449580929" lon="11.825056364381414"><ele>26.0</ele><time>2026-05-03T12:59:38.999Z</time></trkpt><trkpt lat="44.35107522465529" lon="11.824936401919928"><ele>26.0</ele><time>2026-05-03T12:59:39.999Z</time></trkpt><trkpt lat="44.35111719513441" lon="11.824821265675814"><ele>26.0</ele><time>2026-05-03T12:59:40.999Z</time></trkpt><trkpt lat="44.35116518255346" lon="11.824697796148776"><ele>26.0</ele><time>2026-05-03T12:59:41.999Z</time></trkpt><trkpt lat="44.35121871563407" lon="11.824559866066954"><ele>26.0</ele><time>2026-05-03T12:59:42.999Z</time></trkpt><trkpt lat="44.35127149357451" lon="11.824409810528199"><ele>26.0</ele><time>2026-05-03T12:59:43.999Z</time></trkpt><trkpt lat="44.35132335363805" lon="11.824252512118811"><ele>26.0</ele><time>2026-05-03T12:59:44.999Z</time></trkpt><trkpt lat="44.3513744894156" lon="11.82409296195477"><ele>26.0</ele><time>2026-05-03T12:59:45.999Z</time></trkpt><trkpt lat="44.35142478812511" lon="11.823931594057761"><ele>25.75</ele><time>2026-05-03T12:59:46.999Z</time></trkpt><trkpt lat="44.35147197933816" lon="11.82377006584561"><ele>25.5</ele><time>2026-05-03T12:59:47.999Z</time></trkpt><trkpt lat="44.351526180399105" lon="11.823610316194637"><ele>25.25</ele><time>2026-05-03T12:59:48.999Z</time></trkpt><trkpt lat="44.35157606125034" lon="11.82345172715709"><ele>25.0</ele><time>2026-05-03T12:59:49.999Z</time></trkpt><trkpt lat="44.351623417115505" lon="11.82329293945409"><ele>25.5</ele><time>2026-05-03T12:59:50.999Z</time></trkpt><trkpt lat="44.35167379729262" lon="11.823136932621601"><ele>26.0</ele><time>2026-05-03T12:59:51.999Z</time></trkpt><trkpt lat="44.35172020343648" lon="11.82298379868365"><ele>26.5</ele><time>2026-05-03T12:59:52.999Z</time></trkpt><trkpt lat="44.35176680712516" lon="11.822834645361967"><ele>27.0</ele><time>2026-05-03T12:59:53.999Z</time></trkpt><trkpt lat="44.35181319920668" lon="11.822693187478057"><ele>26.6</ele><time>2026-05-03T12:59:54.999Z</time></trkpt><trkpt lat="44.35185690037218" lon="11.822558717450073"><ele>26.200000000000003</ele><time>2026-05-03T12:59:55.999Z</time></trkpt><trkpt lat="44.35189730601331" lon="11.822429027075172"><ele>25.8</ele><time>2026-05-03T12:59:56.999Z</time></trkpt><trkpt lat="44.35193846795112" lon="11.822297266758396"><ele>25.4</ele><time>2026-05-03T12:59:57.999Z</time></trkpt><trkpt lat="44.35198387031477" lon="11.822164846912342"><ele>25.0</ele><time>2026-05-03T12:59:58.999Z</time></trkpt><trkpt lat="44.35203298598426" lon="11.82202510534618"><ele>25.0</ele><time>2026-05-03T12:59:59.999Z</time></trkpt><trkpt lat="44.35208484550828" lon="11.821877118553212"><ele>25.0</ele><time>2026-05-03T13:00:00.999Z</time></trkpt><trkpt lat="44.35213797398183" lon="11.821719286166687"><ele>25.0</ele><time>2026-05-03T13:00:01.999Z</time></trkpt><trkpt lat="44.35219316205211" lon="11.821554743442139"><ele>25.0</ele><time>2026-05-03T13:00:02.999Z</time></trkpt><trkpt lat="44.35224798699426" lon="11.821383169855638"><ele>25.0</ele><time>2026-05-03T13:00:03.999Z</time></trkpt><trkpt lat="44.352304797757135" lon="11.8212072936935"><ele>25.0</ele><time>2026-05-03T13:00:04.999Z</time></trkpt><trkpt lat="44.3523626212904" lon="11.82102596964761"><ele>25.0</ele><time>2026-05-03T13:00:06Z</time></trkpt><trkpt lat="44.352422645244275" lon="11.820838733209964"><ele>25.0</ele><time>2026-05-03T13:00:07Z</time></trkpt><trkpt lat="44.3524844527733" lon="11.82064796266315"><ele>25.0</ele><time>2026-05-03T13:00:08Z</time></trkpt><trkpt lat="44.35254762941572" lon="11.820455601819985"><ele>25.0</ele><time>2026-05-03T13:00:09Z</time></trkpt><trkpt lat="44.35261067385908" lon="11.820263222457996"><ele>25.0</ele><time>2026-05-03T13:00:10Z</time></trkpt><trkpt lat="44.35267468703119" lon="11.820060904677153"><ele>24.333333333333336</ele><time>2026-05-03T13:00:11Z</time></trkpt><trkpt lat="44.35273750776107" lon="11.819860857079677"><ele>23.666666666666668</ele><time>2026-05-03T13:00:12Z</time></trkpt><trkpt lat="44.35279987317143" lon="11.819658256724473"><ele>23.0</ele><time>2026-05-03T13:00:13Z</time></trkpt><trkpt lat="44.35286108206251" lon="11.81945714953031"><ele>23.0</ele><time>2026-05-03T13:00:14Z</time></trkpt><trkpt lat="44.35292267523482" lon="11.819257257845377"><ele>23.0</ele><time>2026-05-03T13:00:15Z</time></trkpt><trkpt lat="44.3529832787087" lon="11.81906285919204"><ele>23.0</ele><time>2026-05-03T13:00:16.001Z</time></trkpt><trkpt lat="44.353040666974664" lon="11.818875698512349"><ele>23.25</ele><time>2026-05-03T13:00:17.001Z</time></trkpt><trkpt lat="44.35309660046614" lon="11.818694230024787"><ele>23.5</ele><time>2026-05-03T13:00:18.001Z</time></trkpt><trkpt lat="44.35315235471148" lon="11.818515840424533"><ele>23.75</ele><time>2026-05-03T13:00:19.001Z</time></trkpt><trkpt lat="44.353206928092476" lon="11.818340154709706"><ele>24.0</ele><time>2026-05-03T13:00:20.001Z</time></trkpt><trkpt lat="44.353258673917125" lon="11.818166635775986"><ele>24.0</ele><time>2026-05-03T13:00:21.001Z</time></trkpt><trkpt lat="44.353310724607326" lon="11.817996718374838"><ele>24.0</ele><time>2026-05-03T13:00:22.001Z</time></trkpt><trkpt lat="44.35336465713257" lon="11.81782618495609"><ele>24.0</ele><time>2026-05-03T13:00:23.001Z</time></trkpt><trkpt lat="44.35342085835895" lon="11.817648867247092"><ele>24.0</ele><time>2026-05-03T13:00:24.001Z</time></trkpt><trkpt lat="44.35347778224074" lon="11.817463839390681"><ele>24.0</ele><time>2026-05-03T13:00:25.001Z</time></trkpt><trkpt lat="44.353535601693494" lon="11.817276101069497"><ele>24.0</ele><time>2026-05-03T13:00:26.001Z</time></trkpt><trkpt lat="44.35359570650899" lon="11.817079705024597"><ele>24.0</ele><time>2026-05-03T13:00:27.001Z</time></trkpt><trkpt lat="44.35365654875788" lon="11.816884357979673"><ele>24.333333333333336</ele><time>2026-05-03T13:00:28.001Z</time></trkpt><trkpt lat="44.35371980009986" lon="11.816683822056609"><ele>24.666666666666668</ele><time>2026-05-03T13:00:29.001Z</time></trkpt><trkpt lat="44.35378373977856" lon="11.81648308341933"><ele>25.0</ele><time>2026-05-03T13:00:30.001Z</time></trkpt><trkpt lat="44.35384800249978" lon="11.816277896182704"><ele>25.333333333333336</ele><time>2026-05-03T13:00:31.001Z</time></trkpt><trkpt lat="44.35391162207795" lon="11.816073601360792"><ele>25.666666666666664</ele><time>2026-05-03T13:00:32.001Z</time></trkpt><trkpt lat="44.35397503046097" lon="11.815871932242176"><ele>26.0</ele><time>2026-05-03T13:00:33.001Z</time></trkpt><trkpt lat="44.3540387940311" lon="11.815669508803168"><ele>26.0</ele><time>2026-05-03T13:00:34.001Z</time></trkpt><trkpt lat="44.35411507148333" lon="11.81546561703574"><ele>26.0</ele><time>2026-05-03T13:00:35.001Z</time></trkpt><trkpt lat="44.354185256367614" lon="11.81528184386803"><ele>26.0</ele><time>2026-05-03T13:00:36.001Z</time></trkpt><trkpt lat="44.354225043183945" lon="11.815083166944124"><ele>26.0</ele><time>2026-05-03T13:00:37.001Z</time></trkpt><trkpt lat="44.354287328874975" lon="11.81489066244181"><ele>26.0</ele><time>2026-05-03T13:00:38.001Z</time></trkpt><trkpt lat="44.35434939510676" lon="11.814703368322565"><ele>26.0</ele><time>2026-05-03T13:00:39.001Z</time></trkpt><trkpt lat="44.35440849242841" lon="11.814514389126575"><ele>26.0</ele><time>2026-05-03T13:00:40Z</time></trkpt><trkpt lat="44.35446589980202" lon="11.814324947427282"><ele>25.75</ele><time>2026-05-03T13:00:41Z</time></trkpt><trkpt lat="44.35452496429767" lon="11.814137742368146"><ele>25.5</ele><time>2026-05-03T13:00:42Z</time></trkpt><trkpt lat="44.35458379017904" lon="11.81395055415375"><ele>25.25</ele><time>2026-05-03T13:00:43Z</time></trkpt><trkpt lat="44.35464105496771" lon="11.81376078431914"><ele>25.0</ele><time>2026-05-03T13:00:44Z</time></trkpt><trkpt lat="44.35470064006876" lon="11.813568584956476"><ele>24.75</ele><time>2026-05-03T13:00:45Z</time></trkpt><trkpt lat="44.35476044881614" lon="11.813376353714455"><ele>24.5</ele><time>2026-05-03T13:00:46Z</time></trkpt><trkpt lat="44.35482003366517" lon="11.813183897570607"><ele>24.25</ele><time>2026-05-03T13:00:47Z</time></trkpt><trkpt lat="44.35487734740142" lon="11.812992097354632"><ele>24.0</ele><time>2026-05-03T13:00:48Z</time></trkpt><trkpt lat="44.354934356517965" lon="11.81280124226511"><ele>24.0</ele><time>2026-05-03T13:00:49Z</time></trkpt><trkpt lat="44.35499320221777" lon="11.812612179920405"><ele>24.0</ele><time>2026-05-03T13:00:50Z</time></trkpt><trkpt lat="44.35505167754425" lon="11.812424371394872"><ele>24.0</ele><time>2026-05-03T13:00:51Z</time></trkpt><trkpt lat="44.35511108613638" lon="11.812240240986869"><ele>24.0</ele><time>2026-05-03T13:00:52Z</time></trkpt><trkpt lat="44.35516736863462" lon="11.812071285078693"><ele>24.0</ele><time>2026-05-03T13:00:53Z</time></trkpt><trkpt lat="44.355218313900444" lon="11.811925124407907"><ele>24.0</ele><time>2026-05-03T13:00:54Z</time></trkpt><trkpt lat="44.355261499520076" lon="11.81178848304623"><ele>24.0</ele><time>2026-05-03T13:00:55Z</time></trkpt><trkpt lat="44.35529862316132" lon="11.811661309814003"><ele>24.0</ele><time>2026-05-03T13:00:56Z</time></trkpt><trkpt lat="44.355334409027215" lon="11.81154469257263"><ele>24.0</ele><time>2026-05-03T13:00:57Z</time></trkpt><trkpt lat="44.35536594800268" lon="11.811437418264816"><ele>24.0</ele><time>2026-05-03T13:00:58Z</time></trkpt><trkpt lat="44.35540281398881" lon="11.811325926642343"><ele>24.0</ele><time>2026-05-03T13:00:59Z</time></trkpt><trkpt lat="44.35544756456012" lon="11.811207319057056"><ele>24.0</ele><time>2026-05-03T13:01:00Z</time></trkpt><trkpt lat="44.355492563830325" lon="11.811096401392032"><ele>24.0</ele><time>2026-05-03T13:01:01Z</time></trkpt><trkpt lat="44.355522004604595" lon="11.810979619328652"><ele>24.0</ele><time>2026-05-03T13:01:02Z</time></trkpt><trkpt lat="44.35556263309042" lon="11.81085220298881"><ele>24.2</ele><time>2026-05-03T13:01:03Z</time></trkpt><trkpt lat="44.35562187520116" lon="11.81072731111197"><ele>24.4</ele><time>2026-05-03T13:01:04Z</time></trkpt><trkpt lat="44.355662752203486" lon="11.810584741927817"><ele>24.6</ele><time>2026-05-03T13:01:05Z</time></trkpt><trkpt lat="44.35570659800896" lon="11.810442255342249"><ele>24.8</ele><time>2026-05-03T13:01:06Z</time></trkpt><trkpt lat="44.35575219107725" lon="11.81029543701119"><ele>25.0</ele><time>2026-05-03T13:01:07Z</time></trkpt><trkpt lat="44.355798248373155" lon="11.810142028545192"><ele>25.2</ele><time>2026-05-03T13:01:08Z</time></trkpt><trkpt lat="44.355844278889236" lon="11.809987898766718"><ele>25.4</ele><time>2026-05-03T13:01:09Z</time></trkpt><trkpt lat="44.35588791640677" lon="11.809836418993623"><ele>25.6</ele><time>2026-05-03T13:01:10Z</time></trkpt><trkpt lat="44.35593115377377" lon="11.809695731559719"><ele>25.8</ele><time>2026-05-03T13:01:11Z</time></trkpt><trkpt lat="44.355963439957755" lon="11.809591840494276"><ele>26.0</ele><time>2026-05-03T13:01:12Z</time></trkpt><trkpt lat="44.355993014037416" lon="11.809501569491838"><ele>26.0</ele><time>2026-05-03T13:01:13Z</time></trkpt><trkpt lat="44.356029171336644" lon="11.809391899605973"><ele>26.0</ele><time>2026-05-03T13:01:14Z</time></trkpt><trkpt lat="44.35606545317639" lon="11.809262751319523"><ele>26.0</ele><time>2026-05-03T13:01:15Z</time></trkpt><trkpt lat="44.35610511301933" lon="11.809121386992574"><ele>26.0</ele><time>2026-05-03T13:01:16Z</time></trkpt><trkpt lat="44.356149646948886" lon="11.8089755750117"><ele>26.0</ele><time>2026-05-03T13:01:17Z</time></trkpt><trkpt lat="44.35619540399109" lon="11.808824073017492"><ele>26.0</ele><time>2026-05-03T13:01:18Z</time></trkpt><trkpt lat="44.35623964635683" lon="11.8086706714624"><ele>26.0</ele><time>2026-05-03T13:01:19Z</time></trkpt><trkpt lat="44.356282706793266" lon="11.808528823170601"><ele>26.0</ele><time>2026-05-03T13:01:20Z</time></trkpt><trkpt lat="44.35632309629511" lon="11.808395513040429"><ele>26.0</ele><time>2026-05-03T13:01:21Z</time></trkpt><trkpt lat="44.35635834518173" lon="11.808273515457795"><ele>26.0</ele><time>2026-05-03T13:01:22Z</time></trkpt><trkpt lat="44.35639196345716" lon="11.808166527987279"><ele>25.8</ele><time>2026-05-03T13:01:23Z</time></trkpt><trkpt lat="44.35641758826353" lon="11.808083478999214"><ele>25.6</ele><time>2026-05-03T13:01:24Z</time></trkpt><trkpt lat="44.356460509664046" lon="11.807947454062896"><ele>25.4</ele><time>2026-05-03T13:01:26Z</time></trkpt><trkpt lat="44.35650503913994" lon="11.807811736597705"><ele>25.2</ele><time>2026-05-03T13:01:28Z</time></trkpt><trkpt lat="44.35655959834522" lon="11.807629553689349"><ele>25.0</ele><time>2026-05-03T13:01:30Z</time></trkpt><trkpt lat="44.35660141046886" lon="11.807498087738002"><ele>25.25</ele><time>2026-05-03T13:01:31Z</time></trkpt><trkpt lat="44.35665277081135" lon="11.80733394188079"><ele>25.5</ele><time>2026-05-03T13:01:32Z</time></trkpt><trkpt lat="44.356711336013184" lon="11.807138993150337"><ele>25.75</ele><time>2026-05-03T13:01:33Z</time></trkpt><trkpt lat="44.356777063234865" lon="11.806928570326749"><ele>26.0</ele><time>2026-05-03T13:01:34Z</time></trkpt><trkpt lat="44.35684468189511" lon="11.806714287428235"><ele>26.0</ele><time>2026-05-03T13:01:35Z</time></trkpt><trkpt lat="44.35691313132506" lon="11.806493624014722"><ele>26.0</ele><time>2026-05-03T13:01:36Z</time></trkpt><trkpt lat="44.356979962299796" lon="11.806274830820383"><ele>26.0</ele><time>2026-05-03T13:01:37Z</time></trkpt><trkpt lat="44.35704489333683" lon="11.806057908260458"><ele>26.0</ele><time>2026-05-03T13:01:38Z</time></trkpt><trkpt lat="44.35710893545326" lon="11.805842138770887"><ele>26.0</ele><time>2026-05-03T13:01:39Z</time></trkpt><trkpt lat="44.35721208332702" lon="11.805538392384296"><ele>26.0</ele><time>2026-05-03T13:01:40Z</time></trkpt><trkpt lat="44.35728494661522" lon="11.805287834254832"><ele>26.333333333333332</ele><time>2026-05-03T13:01:41Z</time></trkpt><trkpt lat="44.35736149557294" lon="11.805027505747754"><ele>26.666666666666664</ele><time>2026-05-03T13:01:42Z</time></trkpt><trkpt lat="44.35744190597044" lon="11.804762483273203"><ele>27.0</ele><time>2026-05-03T13:01:43Z</time></trkpt><trkpt lat="44.35752467643189" lon="11.80449940465407"><ele>27.0</ele><time>2026-05-03T13:01:44Z</time></trkpt><trkpt lat="44.35760576614718" lon="11.804233742303385"><ele>27.0</ele><time>2026-05-03T13:01:45Z</time></trkpt><trkpt lat="44.35768802568864" lon="11.8039707913028"><ele>27.0</ele><time>2026-05-03T13:01:46Z</time></trkpt><trkpt lat="44.357771090549036" lon="11.803704080369473"><ele>27.0</ele><time>2026-05-03T13:01:47Z</time></trkpt><trkpt lat="44.357854075030154" lon="11.803438693192982"><ele>27.0</ele><time>2026-05-03T13:01:48Z</time></trkpt><trkpt lat="44.35793971399081" lon="11.803169595920954"><ele>27.0</ele><time>2026-05-03T13:01:49Z</time></trkpt><trkpt lat="44.358025043933345" lon="11.802894070374599"><ele>26.666666666666664</ele><time>2026-05-03T13:01:50Z</time></trkpt><trkpt lat="44.358109510983006" lon="11.802616222317356"><ele>26.333333333333332</ele><time>2026-05-03T13:01:51Z</time></trkpt><trkpt lat="44.35819355838607" lon="11.80234286351165"><ele>26.0</ele><time>2026-05-03T13:01:52Z</time></trkpt><trkpt lat="44.358277206649404" lon="11.802070011297486"><ele>26.333333333333332</ele><time>2026-05-03T13:01:53Z</time></trkpt><trkpt lat="44.35836235305708" lon="11.801798426730581"><ele>26.666666666666664</ele><time>2026-05-03T13:01:54Z</time></trkpt><trkpt lat="44.358448999788926" lon="11.80153265819817"><ele>27.0</ele><time>2026-05-03T13:01:55Z</time></trkpt><trkpt lat="44.358529213413405" lon="11.80126611262401"><ele>27.0</ele><time>2026-05-03T13:01:56Z</time></trkpt><trkpt lat="44.35861902076999" lon="11.800997496672117"><ele>27.0</ele><time>2026-05-03T13:01:57Z</time></trkpt><trkpt lat="44.35870325607092" lon="11.800726815674203"><ele>27.0</ele><time>2026-05-03T13:01:58Z</time></trkpt><trkpt lat="44.35878920104976" lon="11.800459041571527"><ele>27.333333333333336</ele><time>2026-05-03T13:01:59Z</time></trkpt><trkpt lat="44.35887136970198" lon="11.800186683533799"><ele>27.666666666666668</ele><time>2026-05-03T13:02:00Z</time></trkpt><trkpt lat="44.358956997606576" lon="11.79991603910654"><ele>28.0</ele><time>2026-05-03T13:02:01Z</time></trkpt><trkpt lat="44.35904204837852" lon="11.799656348839763"><ele>28.0</ele><time>2026-05-03T13:02:02Z</time></trkpt><trkpt lat="44.3591253336362" lon="11.799391287013009"><ele>28.0</ele><time>2026-05-03T13:02:03Z</time></trkpt><trkpt lat="44.35920773923056" lon="11.799123772426427"><ele>28.0</ele><time>2026-05-03T13:02:04Z</time></trkpt><trkpt lat="44.359288891539876" lon="11.798859992425177"><ele>27.333333333333336</ele><time>2026-05-03T13:02:05Z</time></trkpt><trkpt lat="44.35936940776931" lon="11.798596923413644"><ele>26.666666666666664</ele><time>2026-05-03T13:02:06Z</time></trkpt><trkpt lat="44.35945185016105" lon="11.798336225458689"><ele>26.0</ele><time>2026-05-03T13:02:07Z</time></trkpt><trkpt lat="44.35953395219676" lon="11.798073961136243"><ele>26.0</ele><time>2026-05-03T13:02:08Z</time></trkpt><trkpt lat="44.35961552315563" lon="11.797810799711755"><ele>26.0</ele><time>2026-05-03T13:02:09Z</time></trkpt><trkpt lat="44.3596981664225" lon="11.79754877185324"><ele>26.0</ele><time>2026-05-03T13:02:10Z</time></trkpt><trkpt lat="44.35977910367028" lon="11.79728629800363"><ele>26.0</ele><time>2026-05-03T13:02:11.001Z</time></trkpt><trkpt lat="44.35985798535248" lon="11.797029181851295"><ele>26.0</ele><time>2026-05-03T13:02:12.001Z</time></trkpt><trkpt lat="44.35993895848796" lon="11.7967711184442"><ele>26.0</ele><time>2026-05-03T13:02:13.001Z</time></trkpt><trkpt lat="44.36002007986271" lon="11.796512568899457"><ele>26.0</ele><time>2026-05-03T13:02:14.001Z</time></trkpt><trkpt lat="44.36010147630897" lon="11.796254489769913"><ele>26.0</ele><time>2026-05-03T13:02:15.001Z</time></trkpt><trkpt lat="44.360182024169" lon="11.795994297098687"><ele>26.0</ele><time>2026-05-03T13:02:16.001Z</time></trkpt><trkpt lat="44.36026333892293" lon="11.795733494878391"><ele>25.666666666666664</ele><time>2026-05-03T13:02:17.001Z</time></trkpt><trkpt lat="44.36034574077848" lon="11.795471444856567"><ele>25.333333333333336</ele><time>2026-05-03T13:02:18.001Z</time></trkpt><trkpt lat="44.360429012007614" lon="11.795206020359009"><ele>25.0</ele><time>2026-05-03T13:02:19.001Z</time></trkpt><trkpt lat="44.36051315354921" lon="11.79493376767969"><ele>25.666666666666668</ele><time>2026-05-03T13:02:20.001Z</time></trkpt><trkpt lat="44.36059788738026" lon="11.794663288132153"><ele>26.333333333333336</ele><time>2026-05-03T13:02:21.001Z</time></trkpt><trkpt lat="44.3606828756359" lon="11.794387499789238"><ele>27.0</ele><time>2026-05-03T13:02:22.001Z</time></trkpt><trkpt lat="44.36076924728276" lon="11.794114536510067"><ele>27.666666666666664</ele><time>2026-05-03T13:02:23.001Z</time></trkpt><trkpt lat="44.36085547902362" lon="11.793837371834531"><ele>28.333333333333332</ele><time>2026-05-03T13:02:24.001Z</time></trkpt><trkpt lat="44.36094047497466" lon="11.793566230933719"><ele>29.0</ele><time>2026-05-03T13:02:25.001Z</time></trkpt><trkpt lat="44.361027883419865" lon="11.793292712946327"><ele>29.333333333333332</ele><time>2026-05-03T13:02:26.001Z</time></trkpt><trkpt lat="44.361113238115536" lon="11.793020087177153"><ele>29.666666666666664</ele><time>2026-05-03T13:02:27.001Z</time></trkpt><trkpt lat="44.36119922646283" lon="11.79274911360172"><ele>30.0</ele><time>2026-05-03T13:02:28.001Z</time></trkpt><trkpt lat="44.361285532606054" lon="11.792478503773832"><ele>29.0</ele><time>2026-05-03T13:02:29.001Z</time></trkpt><trkpt lat="44.361372642150876" lon="11.792207967206766"><ele>28.0</ele><time>2026-05-03T13:02:30Z</time></trkpt><trkpt lat="44.3614640424693" lon="11.791940313866894"><ele>27.0</ele><time>2026-05-03T13:02:31Z</time></trkpt><trkpt lat="44.36155761771319" lon="11.791676499724149"><ele>26.666666666666664</ele><time>2026-05-03T13:02:32Z</time></trkpt><trkpt lat="44.36165097428529" lon="11.79141628130673"><ele>26.333333333333332</ele><time>2026-05-03T13:02:33Z</time></trkpt><trkpt lat="44.36174292376815" lon="11.791157659287475"><ele>26.0</ele><time>2026-05-03T13:02:34Z</time></trkpt><trkpt lat="44.3618365166019" lon="11.790901703142966"><ele>26.0</ele><time>2026-05-03T13:02:35Z</time></trkpt><trkpt lat="44.36193114422363" lon="11.790649534011733"><ele>26.0</ele><time>2026-05-03T13:02:36Z</time></trkpt><trkpt lat="44.362027446814245" lon="11.790400309619137"><ele>26.0</ele><time>2026-05-03T13:02:37Z</time></trkpt><trkpt lat="44.36212546091517" lon="11.790146396145628"><ele>25.666666666666664</ele><time>2026-05-03T13:02:38Z</time></trkpt><trkpt lat="44.3622267833642" lon="11.789904007623845"><ele>25.333333333333336</ele><time>2026-05-03T13:02:39Z</time></trkpt><trkpt lat="44.36232706244725" lon="11.789657955343634"><ele>25.0</ele><time>2026-05-03T13:02:40Z</time></trkpt><trkpt lat="44.36242850587425" lon="11.789412828643943"><ele>24.666666666666668</ele><time>2026-05-03T13:02:41Z</time></trkpt><trkpt lat="44.36253126259553" lon="11.78917256882511"><ele>24.333333333333336</ele><time>2026-05-03T13:02:42Z</time></trkpt><trkpt lat="44.36263462078676" lon="11.788932959611108"><ele>24.0</ele><time>2026-05-03T13:02:43Z</time></trkpt><trkpt lat="44.3627439898856" lon="11.788693831190596"><ele>24.333333333333336</ele><time>2026-05-03T13:02:44Z</time></trkpt><trkpt lat="44.3628463390436" lon="11.788467733095304"><ele>24.666666666666668</ele><time>2026-05-03T13:02:45Z</time></trkpt><trkpt lat="44.36295011763075" lon="11.788244658778682"><ele>25.0</ele><time>2026-05-03T13:02:46Z</time></trkpt><trkpt lat="44.36305313884311" lon="11.788023099507225"><ele>25.0</ele><time>2026-05-03T13:02:47Z</time></trkpt><trkpt lat="44.36315661513634" lon="11.787801892405689"><ele>25.0</ele><time>2026-05-03T13:02:48Z</time></trkpt><trkpt lat="44.36325897331547" lon="11.787582754110872"><ele>25.0</ele><time>2026-05-03T13:02:49Z</time></trkpt><trkpt lat="44.36336287834074" lon="11.787363322738273"><ele>25.0</ele><time>2026-05-03T13:02:50Z</time></trkpt><trkpt lat="44.36346564793349" lon="11.787137367518426"><ele>25.0</ele><time>2026-05-03T13:02:51Z</time></trkpt><trkpt lat="44.36356818454738" lon="11.786907579150729"><ele>25.0</ele><time>2026-05-03T13:02:52Z</time></trkpt><trkpt lat="44.36367261528765" lon="11.786678162099156"><ele>25.0</ele><time>2026-05-03T13:02:53Z</time></trkpt><trkpt lat="44.363775758581305" lon="11.786452113471471"><ele>25.0</ele><time>2026-05-03T13:02:54Z</time></trkpt><trkpt lat="44.36387791183983" lon="11.786229003220974"><ele>25.0</ele><time>2026-05-03T13:02:55Z</time></trkpt><trkpt lat="44.36398054464988" lon="11.786005273725614"><ele>25.0</ele><time>2026-05-03T13:02:56Z</time></trkpt><trkpt lat="44.36408272827039" lon="11.785784452280776"><ele>25.0</ele><time>2026-05-03T13:02:57Z</time></trkpt><trkpt lat="44.36418202538853" lon="11.785566125326165"><ele>25.0</ele><time>2026-05-03T13:02:58Z</time></trkpt><trkpt lat="44.36427865479954" lon="11.785353167355618"><ele>25.0</ele><time>2026-05-03T13:02:59Z</time></trkpt><trkpt lat="44.364372999494975" lon="11.785144819693022"><ele>25.0</ele><time>2026-05-03T13:03:00Z</time></trkpt><trkpt lat="44.364466824316345" lon="11.784942994072242"><ele>25.0</ele><time>2026-05-03T13:03:01Z</time></trkpt><trkpt lat="44.36455833099772" lon="11.784740486127106"><ele>25.0</ele><time>2026-05-03T13:03:02Z</time></trkpt><trkpt lat="44.36464877204227" lon="11.784541668978864"><ele>25.0</ele><time>2026-05-03T13:03:03Z</time></trkpt><trkpt lat="44.36474020734712" lon="11.784342930630432"><ele>25.0</ele><time>2026-05-03T13:03:04Z</time></trkpt><trkpt lat="44.364831394594134" lon="11.784143668279373"><ele>25.333333333333336</ele><time>2026-05-03T13:03:05Z</time></trkpt><trkpt lat="44.3649202347798" lon="11.783948750453044"><ele>25.666666666666664</ele><time>2026-05-03T13:03:06Z</time></trkpt><trkpt lat="44.365011114325654" lon="11.783755866532667"><ele>26.0</ele><time>2026-05-03T13:03:07Z</time></trkpt><trkpt lat="44.36510082687674" lon="11.783559834922286"><ele>26.0</ele><time>2026-05-03T13:03:08Z</time></trkpt><trkpt lat="44.36519270788192" lon="11.783359152795114"><ele>26.0</ele><time>2026-05-03T13:03:09Z</time></trkpt><trkpt lat="44.365285943867235" lon="11.783156192822153"><ele>26.0</ele><time>2026-05-03T13:03:10Z</time></trkpt><trkpt lat="44.36538042532116" lon="11.782947834664583"><ele>26.0</ele><time>2026-05-03T13:03:11Z</time></trkpt><trkpt lat="44.3654762442221" lon="11.782736529698948"><ele>26.0</ele><time>2026-05-03T13:03:12Z</time></trkpt><trkpt lat="44.3655732272934" lon="11.782524821723781"><ele>26.0</ele><time>2026-05-03T13:03:13Z</time></trkpt><trkpt lat="44.36567042965494" lon="11.782311597628006"><ele>26.0</ele><time>2026-05-03T13:03:14Z</time></trkpt><trkpt lat="44.36577005638468" lon="11.782094572947948"><ele>26.0</ele><time>2026-05-03T13:03:15Z</time></trkpt><trkpt lat="44.36586997633563" lon="11.7818790627901"><ele>26.0</ele><time>2026-05-03T13:03:16Z</time></trkpt><trkpt lat="44.365970780908604" lon="11.781660793369415"><ele>26.0</ele><time>2026-05-03T13:03:17Z</time></trkpt><trkpt lat="44.366070322625085" lon="11.781445394649584"><ele>26.0</ele><time>2026-05-03T13:03:18Z</time></trkpt><trkpt lat="44.36617147067199" lon="11.781226538831024"><ele>26.0</ele><time>2026-05-03T13:03:19Z</time></trkpt><trkpt lat="44.36627186793716" lon="11.781006886629358"><ele>26.333333333333332</ele><time>2026-05-03T13:03:20Z</time></trkpt><trkpt lat="44.36637158503038" lon="11.780788104034077"><ele>26.666666666666664</ele><time>2026-05-03T13:03:21Z</time></trkpt><trkpt lat="44.366474067840976" lon="11.780564433789237"><ele>27.0</ele><time>2026-05-03T13:03:22Z</time></trkpt><trkpt lat="44.36657576437098" lon="11.780343319570374"><ele>27.333333333333336</ele><time>2026-05-03T13:03:23Z</time></trkpt><trkpt lat="44.366678506416456" lon="11.780119414331608"><ele>27.666666666666668</ele><time>2026-05-03T13:03:24Z</time></trkpt><trkpt lat="44.36678002499279" lon="11.779900067182727"><ele>28.0</ele><time>2026-05-03T13:03:25Z</time></trkpt><trkpt lat="44.366881085563655" lon="11.779679540132603"><ele>28.0</ele><time>2026-05-03T13:03:26Z</time></trkpt><trkpt lat="44.36698203999646" lon="11.779457572609097"><ele>28.0</ele><time>2026-05-03T13:03:27Z</time></trkpt><trkpt lat="44.367082880908754" lon="11.779235791740959"><ele>28.0</ele><time>2026-05-03T13:03:28Z</time></trkpt><trkpt lat="44.367182415553025" lon="11.779016364912254"><ele>28.0</ele><time>2026-05-03T13:03:29Z</time></trkpt><trkpt lat="44.36728277744696" lon="11.778795679650528"><ele>28.0</ele><time>2026-05-03T13:03:30Z</time></trkpt><trkpt lat="44.367384743676695" lon="11.778574954080408"><ele>28.0</ele><time>2026-05-03T13:03:31Z</time></trkpt><trkpt lat="44.3674864559927" lon="11.778353754393493"><ele>28.0</ele><time>2026-05-03T13:03:32Z</time></trkpt><trkpt lat="44.36758749192957" lon="11.778132116374655"><ele>28.0</ele><time>2026-05-03T13:03:33Z</time></trkpt><trkpt lat="44.36768857372146" lon="11.777911682738505"><ele>28.0</ele><time>2026-05-03T13:03:34Z</time></trkpt><trkpt lat="44.36779191327934" lon="11.777687935710588"><ele>28.333333333333336</ele><time>2026-05-03T13:03:35Z</time></trkpt><trkpt lat="44.36789332154176" lon="11.77746602453909"><ele>28.666666666666664</ele><time>2026-05-03T13:03:36Z</time></trkpt><trkpt lat="44.3679948940581" lon="11.777239695996064"><ele>29.0</ele><time>2026-05-03T13:03:37Z</time></trkpt><trkpt lat="44.368097027823076" lon="11.777015726573346"><ele>28.333333333333332</ele><time>2026-05-03T13:03:38Z</time></trkpt><trkpt lat="44.3682008366357" lon="11.776787612405801"><ele>27.666666666666664</ele><time>2026-05-03T13:03:39Z</time></trkpt><trkpt lat="44.36830140368306" lon="11.776558920463263"><ele>27.0</ele><time>2026-05-03T13:03:40Z</time></trkpt><trkpt lat="44.368402147614475" lon="11.776328468117569"><ele>27.0</ele><time>2026-05-03T13:03:41Z</time></trkpt><trkpt lat="44.36849914782709" lon="11.776101116100866"><ele>27.0</ele><time>2026-05-03T13:03:42Z</time></trkpt><trkpt lat="44.368599098086584" lon="11.775871409443223"><ele>27.0</ele><time>2026-05-03T13:03:43Z</time></trkpt><trkpt lat="44.3686962635947" lon="11.775642765659871"><ele>27.0</ele><time>2026-05-03T13:03:44Z</time></trkpt><trkpt lat="44.368792554590705" lon="11.775415702983244"><ele>27.0</ele><time>2026-05-03T13:03:45Z</time></trkpt><trkpt lat="44.36888722468974" lon="11.775188440487582"><ele>27.0</ele><time>2026-05-03T13:03:46Z</time></trkpt><trkpt lat="44.36897927729217" lon="11.77496373630538"><ele>27.0</ele><time>2026-05-03T13:03:47Z</time></trkpt><trkpt lat="44.369070025854704" lon="11.774741315670989"><ele>27.0</ele><time>2026-05-03T13:03:48Z</time></trkpt><trkpt lat="44.36915903701861" lon="11.77452421596711"><ele>27.0</ele><time>2026-05-03T13:03:49Z</time></trkpt><trkpt lat="44.3692479481757" lon="11.77430439996437"><ele>27.333333333333336</ele><time>2026-05-03T13:03:50Z</time></trkpt><trkpt lat="44.36933332971017" lon="11.774087895366337"><ele>27.666666666666668</ele><time>2026-05-03T13:03:51Z</time></trkpt><trkpt lat="44.36941982089848" lon="11.773869711349"><ele>28.0</ele><time>2026-05-03T13:03:52Z</time></trkpt><trkpt lat="44.36950676940244" lon="11.773651641505946"><ele>28.0</ele><time>2026-05-03T13:03:53Z</time></trkpt><trkpt lat="44.36959095625278" lon="11.77343261165173"><ele>28.0</ele><time>2026-05-03T13:03:54Z</time></trkpt><trkpt lat="44.36967369705114" lon="11.77321480549987"><ele>28.0</ele><time>2026-05-03T13:03:55Z</time></trkpt><trkpt lat="44.36975728535306" lon="11.772996067687217"><ele>27.666666666666668</ele><time>2026-05-03T13:03:56Z</time></trkpt><trkpt lat="44.36984316692423" lon="11.772773738576529"><ele>27.333333333333336</ele><time>2026-05-03T13:03:57Z</time></trkpt><trkpt lat="44.36992489728286" lon="11.772555198600893"><ele>27.0</ele><time>2026-05-03T13:03:58Z</time></trkpt><trkpt lat="44.37000698133371" lon="11.772330688433831"><ele>27.0</ele><time>2026-05-03T13:03:59Z</time></trkpt><trkpt lat="44.37008634467481" lon="11.772107514786311"><ele>27.0</ele><time>2026-05-03T13:04:00Z</time></trkpt><trkpt lat="44.37016600760036" lon="11.771882016706407"><ele>27.0</ele><time>2026-05-03T13:04:01Z</time></trkpt><trkpt lat="44.37024890433331" lon="11.771654940673"><ele>27.0</ele><time>2026-05-03T13:04:02Z</time></trkpt><trkpt lat="44.37033059073251" lon="11.771429209027486"><ele>27.0</ele><time>2026-05-03T13:04:03Z</time></trkpt><trkpt lat="44.37041241982168" lon="11.77119794158198"><ele>27.0</ele><time>2026-05-03T13:04:04Z</time></trkpt><trkpt lat="44.370495535926416" lon="11.770968434398604"><ele>27.5</ele><time>2026-05-03T13:04:05Z</time></trkpt><trkpt lat="44.37056085380485" lon="11.770755132761133"><ele>28.0</ele><time>2026-05-03T13:04:06Z</time></trkpt><trkpt lat="44.37062724214625" lon="11.770583008736113"><ele>28.5</ele><time>2026-05-03T13:04:07Z</time></trkpt><trkpt lat="44.37069306284618" lon="11.770408241427731"><ele>29.0</ele><time>2026-05-03T13:04:08Z</time></trkpt><trkpt lat="44.3707574750836" lon="11.770232685119732"><ele>29.0</ele><time>2026-05-03T13:04:09Z</time></trkpt><trkpt lat="44.37082466584703" lon="11.770043072071726"><ele>29.0</ele><time>2026-05-03T13:04:10Z</time></trkpt><trkpt lat="44.370895840130245" lon="11.769846140079245"><ele>29.0</ele><time>2026-05-03T13:04:11Z</time></trkpt><trkpt lat="44.37097180069545" lon="11.769645751701036"><ele>29.0</ele><time>2026-05-03T13:04:12Z</time></trkpt><trkpt lat="44.371047974256896" lon="11.769430396086625"><ele>29.0</ele><time>2026-05-03T13:04:13Z</time></trkpt><trkpt lat="44.371125250534455" lon="11.769214080817362"><ele>29.0</ele><time>2026-05-03T13:04:14Z</time></trkpt><trkpt lat="44.37120505058364" lon="11.768991502666468"><ele>28.666666666666664</ele><time>2026-05-03T13:04:15Z</time></trkpt><trkpt lat="44.371285243566334" lon="11.768767006523866"><ele>28.333333333333336</ele><time>2026-05-03T13:04:16Z</time></trkpt><trkpt lat="44.37136574198185" lon="11.768541126824084"><ele>28.0</ele><time>2026-05-03T13:04:17.001Z</time></trkpt><trkpt lat="44.37144607714568" lon="11.76831446282253"><ele>28.0</ele><time>2026-05-03T13:04:18.001Z</time></trkpt><trkpt lat="44.37152818447965" lon="11.768086239540478"><ele>28.0</ele><time>2026-05-03T13:04:19.001Z</time></trkpt><trkpt lat="44.371609461266296" lon="11.767854759741255"><ele>28.0</ele><time>2026-05-03T13:04:20.001Z</time></trkpt><trkpt lat="44.371690280620285" lon="11.767623886188032"><ele>28.0</ele><time>2026-05-03T13:04:21.001Z</time></trkpt><trkpt lat="44.37177272896645" lon="11.767392494216733"><ele>28.0</ele><time>2026-05-03T13:04:22.001Z</time></trkpt><trkpt lat="44.37185457997284" lon="11.76716092979968"><ele>28.0</ele><time>2026-05-03T13:04:23.001Z</time></trkpt><trkpt lat="44.371936499092484" lon="11.766928739069073"><ele>28.0</ele><time>2026-05-03T13:04:24.001Z</time></trkpt><trkpt lat="44.37202090590547" lon="11.766695264327797"><ele>28.0</ele><time>2026-05-03T13:04:25Z</time></trkpt><trkpt lat="44.37210568413598" lon="11.766461322386135"><ele>28.0</ele><time>2026-05-03T13:04:26Z</time></trkpt><trkpt lat="44.372189986579556" lon="11.766227447595105"><ele>28.0</ele><time>2026-05-03T13:04:27Z</time></trkpt><trkpt lat="44.372274331967276" lon="11.765990424289003"><ele>28.0</ele><time>2026-05-03T13:04:28Z</time></trkpt><trkpt lat="44.372359911537195" lon="11.765754185675846"><ele>28.0</ele><time>2026-05-03T13:04:29Z</time></trkpt><trkpt lat="44.37244545543225" lon="11.765516741822285"><ele>28.0</ele><time>2026-05-03T13:04:30Z</time></trkpt><trkpt lat="44.37253101713195" lon="11.765280341369536"><ele>28.0</ele><time>2026-05-03T13:04:31Z</time></trkpt><trkpt lat="44.37261545067201" lon="11.765043043906697"><ele>28.0</ele><time>2026-05-03T13:04:32Z</time></trkpt><trkpt lat="44.37269997355586" lon="11.76480680796638"><ele>28.0</ele><time>2026-05-03T13:04:33Z</time></trkpt><trkpt lat="44.372784508040496" lon="11.764571452603853"><ele>28.0</ele><time>2026-05-03T13:04:34Z</time></trkpt><trkpt lat="44.37286753682474" lon="11.764338959863922"><ele>28.0</ele><time>2026-05-03T13:04:35Z</time></trkpt><trkpt lat="44.37294966215228" lon="11.764105966656913"><ele>28.333333333333336</ele><time>2026-05-03T13:04:36Z</time></trkpt><trkpt lat="44.37303168060984" lon="11.763874367003764"><ele>28.666666666666664</ele><time>2026-05-03T13:04:37Z</time></trkpt><trkpt lat="44.3731131449426" lon="11.763646152778968"><ele>29.0</ele><time>2026-05-03T13:04:38Z</time></trkpt><trkpt lat="44.373195219715804" lon="11.76341596152772"><ele>29.666666666666664</ele><time>2026-05-03T13:04:39Z</time></trkpt><trkpt lat="44.373277744313086" lon="11.763188247825322"><ele>30.333333333333336</ele><time>2026-05-03T13:04:40Z</time></trkpt><trkpt lat="44.37336085606109" lon="11.762961073243856"><ele>31.0</ele><time>2026-05-03T13:04:41Z</time></trkpt><trkpt lat="44.37344249089587" lon="11.762734836971301"><ele>30.333333333333336</ele><time>2026-05-03T13:04:42Z</time></trkpt><trkpt lat="44.373524570744664" lon="11.762502471134875"><ele>29.666666666666664</ele><time>2026-05-03T13:04:43Z</time></trkpt><trkpt lat="44.373608152721715" lon="11.762268535437906"><ele>29.0</ele><time>2026-05-03T13:04:44Z</time></trkpt><trkpt lat="44.373692504250315" lon="11.76203387573245"><ele>29.0</ele><time>2026-05-03T13:04:45Z</time></trkpt><trkpt lat="44.37377462137384" lon="11.761797871182715"><ele>29.0</ele><time>2026-05-03T13:04:46Z</time></trkpt><trkpt lat="44.37385837831709" lon="11.761562822441064"><ele>29.0</ele><time>2026-05-03T13:04:47Z</time></trkpt><trkpt lat="44.37394372131076" lon="11.761326831866146"><ele>29.0</ele><time>2026-05-03T13:04:48Z</time></trkpt><trkpt lat="44.37402879748442" lon="11.76109044274027"><ele>29.0</ele><time>2026-05-03T13:04:49Z</time></trkpt><trkpt lat="44.37411425634731" lon="11.760855417564228"><ele>29.0</ele><time>2026-05-03T13:04:50Z</time></trkpt><trkpt lat="44.37419829054067" lon="11.76062017595204"><ele>29.0</ele><time>2026-05-03T13:04:51Z</time></trkpt><trkpt lat="44.37428249664492" lon="11.760379483401065"><ele>29.0</ele><time>2026-05-03T13:04:52Z</time></trkpt><trkpt lat="44.374367369490415" lon="11.760141908790976"><ele>29.0</ele><time>2026-05-03T13:04:53Z</time></trkpt><trkpt lat="44.37445153406332" lon="11.75990688252066"><ele>28.666666666666664</ele><time>2026-05-03T13:04:54Z</time></trkpt><trkpt lat="44.37453532211259" lon="11.759670619407196"><ele>28.333333333333336</ele><time>2026-05-03T13:04:55Z</time></trkpt><trkpt lat="44.374618861408315" lon="11.759435522701313"><ele>28.0</ele><time>2026-05-03T13:04:56Z</time></trkpt><trkpt lat="44.37470273246296" lon="11.759200383134743"><ele>28.666666666666668</ele><time>2026-05-03T13:04:57Z</time></trkpt><trkpt lat="44.37478717772761" lon="11.758969168045589"><ele>29.333333333333336</ele><time>2026-05-03T13:04:58Z</time></trkpt><trkpt lat="44.37487108273329" lon="11.758740929932202"><ele>30.0</ele><time>2026-05-03T13:04:59Z</time></trkpt><trkpt lat="44.37495316524287" lon="11.758515567110711"><ele>30.0</ele><time>2026-05-03T13:05:00Z</time></trkpt><trkpt lat="44.37503457752618" lon="11.758285218681777"><ele>30.0</ele><time>2026-05-03T13:05:01Z</time></trkpt><trkpt lat="44.37511617057391" lon="11.75805676576311"><ele>30.0</ele><time>2026-05-03T13:05:02Z</time></trkpt><trkpt lat="44.375196350366316" lon="11.757835100515624"><ele>29.333333333333336</ele><time>2026-05-03T13:05:03Z</time></trkpt><trkpt lat="44.37527314658474" lon="11.757618898265116"><ele>28.666666666666668</ele><time>2026-05-03T13:05:04Z</time></trkpt><trkpt lat="44.375348648269856" lon="11.757405483219662"><ele>28.0</ele><time>2026-05-03T13:05:05Z</time></trkpt><trkpt lat="44.37542233725371" lon="11.757195445668524"><ele>28.0</ele><time>2026-05-03T13:05:06Z</time></trkpt><trkpt lat="44.375498247018555" lon="11.75698190249255"><ele>28.0</ele><time>2026-05-03T13:05:07Z</time></trkpt><trkpt lat="44.37557684591681" lon="11.756763905834497"><ele>28.0</ele><time>2026-05-03T13:05:08Z</time></trkpt><trkpt lat="44.37565498165373" lon="11.756547743356254"><ele>28.333333333333336</ele><time>2026-05-03T13:05:09Z</time></trkpt><trkpt lat="44.375732979964205" lon="11.756327403346148"><ele>28.666666666666664</ele><time>2026-05-03T13:05:10Z</time></trkpt><trkpt lat="44.375812087058506" lon="11.756105121519223"><ele>29.0</ele><time>2026-05-03T13:05:11Z</time></trkpt><trkpt lat="44.37589165998295" lon="11.755884311385909"><ele>29.333333333333332</ele><time>2026-05-03T13:05:12Z</time></trkpt><trkpt lat="44.375972533038116" lon="11.755660682284654"><ele>29.666666666666664</ele><time>2026-05-03T13:05:13Z</time></trkpt><trkpt lat="44.37605317183972" lon="11.75543480384571"><ele>30.0</ele><time>2026-05-03T13:05:14Z</time></trkpt><trkpt lat="44.37613550579798" lon="11.755206010196899"><ele>30.0</ele><time>2026-05-03T13:05:15Z</time></trkpt><trkpt lat="44.376220219345825" lon="11.75497702205919"><ele>30.0</ele><time>2026-05-03T13:05:16Z</time></trkpt><trkpt lat="44.37630203439101" lon="11.75474625373178"><ele>30.0</ele><time>2026-05-03T13:05:17Z</time></trkpt><trkpt lat="44.376384241053664" lon="11.754509334861783"><ele>29.0</ele><time>2026-05-03T13:05:18Z</time></trkpt><trkpt lat="44.37646951528849" lon="11.75427836669397"><ele>28.0</ele><time>2026-05-03T13:05:19Z</time></trkpt><trkpt lat="44.376553340043195" lon="11.75404407883029"><ele>27.0</ele><time>2026-05-03T13:05:20Z</time></trkpt><trkpt lat="44.37663795184711" lon="11.753807301243285"><ele>27.0</ele><time>2026-05-03T13:05:21Z</time></trkpt><trkpt lat="44.3767220755451" lon="11.75356827881741"><ele>27.0</ele><time>2026-05-03T13:05:22Z</time></trkpt><trkpt lat="44.37680709888459" lon="11.753329743574115"><ele>27.0</ele><time>2026-05-03T13:05:23Z</time></trkpt><trkpt lat="44.37689417315088" lon="11.753094019392105"><ele>27.0</ele><time>2026-05-03T13:05:24Z</time></trkpt><trkpt lat="44.37697968298668" lon="11.75285759653308"><ele>27.0</ele><time>2026-05-03T13:05:25Z</time></trkpt><trkpt lat="44.37706481248824" lon="11.752619695183112"><ele>27.0</ele><time>2026-05-03T13:05:26Z</time></trkpt><trkpt lat="44.37715021088192" lon="11.752382711366755"><ele>27.0</ele><time>2026-05-03T13:05:27Z</time></trkpt><trkpt lat="44.37723501096494" lon="11.752147268094225"><ele>27.0</ele><time>2026-05-03T13:05:28Z</time></trkpt><trkpt lat="44.377318537536325" lon="11.751912111867423"><ele>27.0</ele><time>2026-05-03T13:05:29Z</time></trkpt><trkpt lat="44.37740166590438" lon="11.75167737303716"><ele>27.0</ele><time>2026-05-03T13:05:30Z</time></trkpt><trkpt lat="44.3774848300221" lon="11.751445083410632"><ele>27.0</ele><time>2026-05-03T13:05:31Z</time></trkpt><trkpt lat="44.37756681167548" lon="11.751216168871292"><ele>27.0</ele><time>2026-05-03T13:05:32Z</time></trkpt><trkpt lat="44.37764815120425" lon="11.750986474013551"><ele>27.0</ele><time>2026-05-03T13:05:33Z</time></trkpt><trkpt lat="44.37772776920757" lon="11.750759349533089"><ele>27.0</ele><time>2026-05-03T13:05:34Z</time></trkpt><trkpt lat="44.37780809099015" lon="11.750532027021357"><ele>27.0</ele><time>2026-05-03T13:05:35Z</time></trkpt><trkpt lat="44.377888180159424" lon="11.750309845867935"><ele>27.333333333333336</ele><time>2026-05-03T13:05:36Z</time></trkpt><trkpt lat="44.37796832870894" lon="11.750085889503728"><ele>27.666666666666668</ele><time>2026-05-03T13:05:37Z</time></trkpt><trkpt lat="44.37804801505538" lon="11.749863007753302"><ele>28.0</ele><time>2026-05-03T13:05:38Z</time></trkpt><trkpt lat="44.37812860238819" lon="11.7496397480656"><ele>28.0</ele><time>2026-05-03T13:05:39Z</time></trkpt><trkpt lat="44.37820958640159" lon="11.749417091926036"><ele>28.0</ele><time>2026-05-03T13:05:40Z</time></trkpt><trkpt lat="44.37828847999836" lon="11.749195554029473"><ele>28.0</ele><time>2026-05-03T13:05:41Z</time></trkpt><trkpt lat="44.37836746134371" lon="11.748975644422666"><ele>28.0</ele><time>2026-05-03T13:05:42Z</time></trkpt><trkpt lat="44.378446523709584" lon="11.748755584474772"><ele>28.0</ele><time>2026-05-03T13:05:43Z</time></trkpt><trkpt lat="44.37852453033834" lon="11.748536191052978"><ele>28.0</ele><time>2026-05-03T13:05:44Z</time></trkpt><trkpt lat="44.378601607822155" lon="11.74831936822308"><ele>28.0</ele><time>2026-05-03T13:05:45Z</time></trkpt><trkpt lat="44.37867587239604" lon="11.74810745007034"><ele>28.0</ele><time>2026-05-03T13:05:46Z</time></trkpt><trkpt lat="44.37874780604326" lon="11.74790488214182"><ele>28.0</ele><time>2026-05-03T13:05:47Z</time></trkpt><trkpt lat="44.37881702402015" lon="11.747709834240528"><ele>28.25</ele><time>2026-05-03T13:05:48Z</time></trkpt><trkpt lat="44.37888454473531" lon="11.747527177332522"><ele>28.5</ele><time>2026-05-03T13:05:49Z</time></trkpt><trkpt lat="44.37894838767699" lon="11.747354057701177"><ele>28.75</ele><time>2026-05-03T13:05:50Z</time></trkpt><trkpt lat="44.379007546819025" lon="11.747187644061407"><ele>29.0</ele><time>2026-05-03T13:05:51Z</time></trkpt><trkpt lat="44.379064704939594" lon="11.747025268588066"><ele>29.5</ele><time>2026-05-03T13:05:52Z</time></trkpt><trkpt lat="44.379126073013886" lon="11.746858236718715"><ele>30.0</ele><time>2026-05-03T13:05:53Z</time></trkpt><trkpt lat="44.379186612679256" lon="11.746686764000449"><ele>30.5</ele><time>2026-05-03T13:05:54Z</time></trkpt><trkpt lat="44.37924886477584" lon="11.746515544461621"><ele>31.0</ele><time>2026-05-03T13:05:55Z</time></trkpt><trkpt lat="44.37931138970466" lon="11.74634770715981"><ele>31.0</ele><time>2026-05-03T13:05:56Z</time></trkpt><trkpt lat="44.37936492536853" lon="11.746190296977026"><ele>31.0</ele><time>2026-05-03T13:05:57Z</time></trkpt><trkpt lat="44.3794160271889" lon="11.746038517318146"><ele>31.0</ele><time>2026-05-03T13:05:58Z</time></trkpt><trkpt lat="44.37946670401754" lon="11.745894480154782"><ele>31.0</ele><time>2026-05-03T13:05:59Z</time></trkpt><trkpt lat="44.37951799317867" lon="11.745742436130778"><ele>30.25</ele><time>2026-05-03T13:06:00Z</time></trkpt><trkpt lat="44.37957223006418" lon="11.745585680731486"><ele>29.5</ele><time>2026-05-03T13:06:01Z</time></trkpt><trkpt lat="44.37963141441233" lon="11.745420065786286"><ele>28.75</ele><time>2026-05-03T13:06:02Z</time></trkpt><trkpt lat="44.379696904466606" lon="11.745244361511574"><ele>28.0</ele><time>2026-05-03T13:06:03Z</time></trkpt><trkpt lat="44.37976245408096" lon="11.745060068046197"><ele>27.666666666666668</ele><time>2026-05-03T13:06:04Z</time></trkpt><trkpt lat="44.379829802538595" lon="11.744871911037032"><ele>27.333333333333336</ele><time>2026-05-03T13:06:05Z</time></trkpt><trkpt lat="44.379899569882106" lon="11.744680019940313"><ele>27.0</ele><time>2026-05-03T13:06:06Z</time></trkpt><trkpt lat="44.37996692420208" lon="11.74448926706506"><ele>27.0</ele><time>2026-05-03T13:06:07Z</time></trkpt><trkpt lat="44.38003229435023" lon="11.744297586823357"><ele>27.0</ele><time>2026-05-03T13:06:08Z</time></trkpt><trkpt lat="44.38009825788853" lon="11.744107098117933"><ele>27.0</ele><time>2026-05-03T13:06:09Z</time></trkpt><trkpt lat="44.38016734743448" lon="11.743916950576056"><ele>27.0</ele><time>2026-05-03T13:06:10Z</time></trkpt><trkpt lat="44.3802354845821" lon="11.74372665875021"><ele>27.0</ele><time>2026-05-03T13:06:11Z</time></trkpt><trkpt lat="44.38030273538532" lon="11.743536730432647"><ele>27.0</ele><time>2026-05-03T13:06:12Z</time></trkpt><trkpt lat="44.38036664766553" lon="11.743356344101104"><ele>27.0</ele><time>2026-05-03T13:06:13Z</time></trkpt><trkpt lat="44.38042749849384" lon="11.743185984187233"><ele>27.0</ele><time>2026-05-03T13:06:14Z</time></trkpt><trkpt lat="44.380482620426676" lon="11.743029572148373"><ele>27.000000000000004</ele><time>2026-05-03T13:06:15Z</time></trkpt><trkpt lat="44.38053604140155" lon="11.742888205765473"><ele>27.000000000000004</ele><time>2026-05-03T13:06:16Z</time></trkpt><trkpt lat="44.380589740932486" lon="11.742758522393462"><ele>27.0</ele><time>2026-05-03T13:06:17Z</time></trkpt><trkpt lat="44.38063850715754" lon="11.742634506427645"><ele>27.0</ele><time>2026-05-03T13:06:18Z</time></trkpt><trkpt lat="44.38068540752204" lon="11.742506434249218"><ele>28.200000000000003</ele><time>2026-05-03T13:06:19Z</time></trkpt><trkpt lat="44.38073288066273" lon="11.74237459855477"><ele>29.400000000000002</ele><time>2026-05-03T13:06:20Z</time></trkpt><trkpt lat="44.380780848240605" lon="11.742241014343596"><ele>30.599999999999998</ele><time>2026-05-03T13:06:21Z</time></trkpt><trkpt lat="44.380830995452655" lon="11.742110752285136"><ele>31.799999999999997</ele><time>2026-05-03T13:06:22Z</time></trkpt><trkpt lat="44.380878502204936" lon="11.741984253116273"><ele>33.0</ele><time>2026-05-03T13:06:23Z</time></trkpt><trkpt lat="44.380923788341356" lon="11.741858587959644"><ele>33.166666666666664</ele><time>2026-05-03T13:06:24Z</time></trkpt><trkpt lat="44.38096567059528" lon="11.741739841185236"><ele>33.333333333333336</ele><time>2026-05-03T13:06:25Z</time></trkpt><trkpt lat="44.381005856812095" lon="11.741629037794613"><ele>33.5</ele><time>2026-05-03T13:06:26Z</time></trkpt><trkpt lat="44.381047075202424" lon="11.741521297566395"><ele>33.66666666666667</ele><time>2026-05-03T13:06:27Z</time></trkpt><trkpt lat="44.38108658709087" lon="11.741418334548204"><ele>33.833333333333336</ele><time>2026-05-03T13:06:28Z</time></trkpt><trkpt lat="44.38112334280939" lon="11.741319130128966"><ele>34.0</ele><time>2026-05-03T13:06:29Z</time></trkpt><trkpt lat="44.38115466178828" lon="11.741231761602444"><ele>34.0</ele><time>2026-05-03T13:06:30Z</time></trkpt><trkpt lat="44.38118327489721" lon="11.74115189725679"><ele>34.0</ele><time>2026-05-03T13:06:31Z</time></trkpt><trkpt lat="44.38123440184039" lon="11.741012149428315"><ele>34.0</ele><time>2026-05-03T13:06:33Z</time></trkpt><trkpt lat="44.38126887794439" lon="11.740910156403379"><ele>34.0</ele><time>2026-05-03T13:06:35Z</time></trkpt><trkpt lat="44.38129857287876" lon="11.74082341693712"><ele>34.0</ele><time>2026-05-03T13:06:37Z</time></trkpt><trkpt lat="44.38132307162243" lon="11.740736055183334"><ele>34.0</ele><time>2026-05-03T13:06:40Z</time></trkpt><trkpt lat="44.38135338247095" lon="11.740640311110486"><ele>33.8</ele><time>2026-05-03T13:06:43Z</time></trkpt><trkpt lat="44.38139115099606" lon="11.740544297663133"><ele>33.599999999999994</ele><time>2026-05-03T13:06:45Z</time></trkpt><trkpt lat="44.381442277733726" lon="11.740385436230326"><ele>33.4</ele><time>2026-05-03T13:06:47Z</time></trkpt><trkpt lat="44.38147393450279" lon="11.740291538194247"><ele>33.199999999999996</ele><time>2026-05-03T13:06:48Z</time></trkpt><trkpt lat="44.38151403042027" lon="11.740183463136958"><ele>33.0</ele><time>2026-05-03T13:06:49Z</time></trkpt><trkpt lat="44.38155436078233" lon="11.74006523350445"><ele>32.75</ele><time>2026-05-03T13:06:50Z</time></trkpt><trkpt lat="44.38159941409638" lon="11.739931297815664"><ele>32.5</ele><time>2026-05-03T13:06:51Z</time></trkpt><trkpt lat="44.38165262844605" lon="11.739774319641684"><ele>32.25</ele><time>2026-05-03T13:06:52Z</time></trkpt><trkpt lat="44.381708442913876" lon="11.73960741777495"><ele>32.0</ele><time>2026-05-03T13:06:53Z</time></trkpt><trkpt lat="44.38176940929198" lon="11.73943236079312"><ele>31.25</ele><time>2026-05-03T13:06:54Z</time></trkpt><trkpt lat="44.38183459698296" lon="11.739251928117593"><ele>30.5</ele><time>2026-05-03T13:06:55Z</time></trkpt><trkpt lat="44.38190070468047" lon="11.739067515511003"><ele>29.75</ele><time>2026-05-03T13:06:56Z</time></trkpt><trkpt lat="44.38196908770602" lon="11.738878478583121"><ele>29.0</ele><time>2026-05-03T13:06:57Z</time></trkpt><trkpt lat="44.38203572244786" lon="11.738689941099976"><ele>29.666666666666664</ele><time>2026-05-03T13:06:58Z</time></trkpt><trkpt lat="44.38210417513575" lon="11.738498077305444"><ele>30.333333333333336</ele><time>2026-05-03T13:06:59Z</time></trkpt><trkpt lat="44.3821737499422" lon="11.738305430306628"><ele>31.0</ele><time>2026-05-03T13:07:00Z</time></trkpt><trkpt lat="44.38224336415256" lon="11.738112089940115"><ele>31.0</ele><time>2026-05-03T13:07:01Z</time></trkpt><trkpt lat="44.382313529923124" lon="11.737916531553472"><ele>31.0</ele><time>2026-05-03T13:07:02Z</time></trkpt><trkpt lat="44.38238454186141" lon="11.737718274879366"><ele>31.0</ele><time>2026-05-03T13:07:03Z</time></trkpt><trkpt lat="44.38245716572946" lon="11.737516303115333"><ele>30.0</ele><time>2026-05-03T13:07:04Z</time></trkpt><trkpt lat="44.38252990482202" lon="11.737313112907758"><ele>29.0</ele><time>2026-05-03T13:07:05Z</time></trkpt><trkpt lat="44.38260356959383" lon="11.737107904972836"><ele>28.0</ele><time>2026-05-03T13:07:06Z</time></trkpt><trkpt lat="44.38267844615033" lon="11.736899434175138"><ele>28.0</ele><time>2026-05-03T13:07:07Z</time></trkpt><trkpt lat="44.3827546623482" lon="11.736686164234836"><ele>28.0</ele><time>2026-05-03T13:07:08Z</time></trkpt><trkpt lat="44.38283162523028" lon="11.736472515405607"><ele>28.0</ele><time>2026-05-03T13:07:09Z</time></trkpt><trkpt lat="44.38291041018076" lon="11.736255825009803"><ele>28.333333333333336</ele><time>2026-05-03T13:07:10Z</time></trkpt><trkpt lat="44.38298844056191" lon="11.736036578412033"><ele>28.666666666666664</ele><time>2026-05-03T13:07:11Z</time></trkpt><trkpt lat="44.383068421485284" lon="11.73581351965221"><ele>29.0</ele><time>2026-05-03T13:07:12Z</time></trkpt><trkpt lat="44.38314829955862" lon="11.735589459398536"><ele>29.0</ele><time>2026-05-03T13:07:13Z</time></trkpt><trkpt lat="44.38322971578742" lon="11.735364383707278"><ele>29.0</ele><time>2026-05-03T13:07:14Z</time></trkpt><trkpt lat="44.38330963823801" lon="11.735137949565743"><ele>29.0</ele><time>2026-05-03T13:07:15Z</time></trkpt><trkpt lat="44.38339187871484" lon="11.734907571135306"><ele>29.333333333333332</ele><time>2026-05-03T13:07:16Z</time></trkpt><trkpt lat="44.38347323117127" lon="11.734678610470482"><ele>29.666666666666664</ele><time>2026-05-03T13:07:17Z</time></trkpt><trkpt lat="44.38355560723874" lon="11.734445408766883"><ele>30.0</ele><time>2026-05-03T13:07:18Z</time></trkpt><trkpt lat="44.38363841968292" lon="11.734213078689418"><ele>30.0</ele><time>2026-05-03T13:07:19Z</time></trkpt><trkpt lat="44.38372228532279" lon="11.733978581037483"><ele>30.0</ele><time>2026-05-03T13:07:20Z</time></trkpt><trkpt lat="44.38380805849486" lon="11.733741456789692"><ele>30.0</ele><time>2026-05-03T13:07:21Z</time></trkpt><trkpt lat="44.38389351782496" lon="11.733504288745337"><ele>30.333333333333336</ele><time>2026-05-03T13:07:22Z</time></trkpt><trkpt lat="44.383977587801716" lon="11.733266251245087"><ele>30.666666666666668</ele><time>2026-05-03T13:07:23Z</time></trkpt><trkpt lat="44.38406191919501" lon="11.733027655448979"><ele>31.0</ele><time>2026-05-03T13:07:24Z</time></trkpt><trkpt lat="44.38414738084686" lon="11.732790250044463"><ele>30.666666666666668</ele><time>2026-05-03T13:07:25Z</time></trkpt><trkpt lat="44.384233976770794" lon="11.732552237252177"><ele>30.333333333333336</ele><time>2026-05-03T13:07:26Z</time></trkpt><trkpt lat="44.38432024455776" lon="11.732313466164868"><ele>30.0</ele><time>2026-05-03T13:07:27Z</time></trkpt><trkpt lat="44.384405497005915" lon="11.732074328573205"><ele>30.0</ele><time>2026-05-03T13:07:28Z</time></trkpt><trkpt lat="44.3844896188022" lon="11.731836155858787"><ele>30.0</ele><time>2026-05-03T13:07:29Z</time></trkpt><trkpt lat="44.3845727284393" lon="11.731600429257693"><ele>30.0</ele><time>2026-05-03T13:07:30Z</time></trkpt><trkpt lat="44.384656736545026" lon="11.731366631174044"><ele>30.0</ele><time>2026-05-03T13:07:31Z</time></trkpt><trkpt lat="44.38474196787785" lon="11.73113289461899"><ele>30.0</ele><time>2026-05-03T13:07:32Z</time></trkpt><trkpt lat="44.38482384165847" lon="11.730903234366213"><ele>30.0</ele><time>2026-05-03T13:07:33Z</time></trkpt><trkpt lat="44.38490813037327" lon="11.730669676844526"><ele>29.666666666666664</ele><time>2026-05-03T13:07:34Z</time></trkpt><trkpt lat="44.3849922075604" lon="11.730432562982104"><ele>29.333333333333332</ele><time>2026-05-03T13:07:35Z</time></trkpt><trkpt lat="44.38507411532713" lon="11.730200437316812"><ele>29.0</ele><time>2026-05-03T13:07:36Z</time></trkpt><trkpt lat="44.385155426198416" lon="11.72997210406668"><ele>28.333333333333332</ele><time>2026-05-03T13:07:37Z</time></trkpt><trkpt lat="44.38523683141734" lon="11.72974238974162"><ele>27.666666666666664</ele><time>2026-05-03T13:07:38Z</time></trkpt><trkpt lat="44.38531668072444" lon="11.729514652453801"><ele>27.0</ele><time>2026-05-03T13:07:39Z</time></trkpt><trkpt lat="44.385397872949305" lon="11.729285786652342"><ele>27.0</ele><time>2026-05-03T13:07:40Z</time></trkpt><trkpt lat="44.385478697001936" lon="11.7290558459043"><ele>27.0</ele><time>2026-05-03T13:07:41Z</time></trkpt><trkpt lat="44.38556121276624" lon="11.728823008036219"><ele>27.0</ele><time>2026-05-03T13:07:42Z</time></trkpt><trkpt lat="44.38564419623586" lon="11.728587455263105"><ele>27.0</ele><time>2026-05-03T13:07:43Z</time></trkpt><trkpt lat="44.385725468979416" lon="11.728351975712858"><ele>27.0</ele><time>2026-05-03T13:07:44Z</time></trkpt><trkpt lat="44.38580961911178" lon="11.728113316486207"><ele>27.0</ele><time>2026-05-03T13:07:45Z</time></trkpt><trkpt lat="44.385904210377525" lon="11.727864962980494"><ele>27.0</ele><time>2026-05-03T13:07:46Z</time></trkpt><trkpt lat="44.38600393531852" lon="11.72759157629665"><ele>27.0</ele><time>2026-05-03T13:07:47Z</time></trkpt><trkpt lat="44.38610328044065" lon="11.727307200151282"><ele>27.0</ele><time>2026-05-03T13:07:48Z</time></trkpt><trkpt lat="44.38620009722821" lon="11.727027859379456"><ele>27.333333333333336</ele><time>2026-05-03T13:07:49Z</time></trkpt><trkpt lat="44.38629393729709" lon="11.72674602326312"><ele>27.666666666666668</ele><time>2026-05-03T13:07:50Z</time></trkpt><trkpt lat="44.38638666681256" lon="11.726471186085861"><ele>28.0</ele><time>2026-05-03T13:07:51Z</time></trkpt><trkpt lat="44.386481148240925" lon="11.726201894804644"><ele>28.666666666666668</ele><time>2026-05-03T13:07:52Z</time></trkpt><trkpt lat="44.38657204767689" lon="11.725941621455457"><ele>29.333333333333336</ele><time>2026-05-03T13:07:53Z</time></trkpt><trkpt lat="44.386659964818314" lon="11.72569044006016"><ele>30.0</ele><time>2026-05-03T13:07:54Z</time></trkpt><trkpt lat="44.3867462139269" lon="11.72544597850085"><ele>29.666666666666664</ele><time>2026-05-03T13:07:55Z</time></trkpt><trkpt lat="44.38683527542583" lon="11.725202380729757"><ele>29.333333333333332</ele><time>2026-05-03T13:07:56Z</time></trkpt><trkpt lat="44.38692831648228" lon="11.72495782735288"><ele>29.0</ele><time>2026-05-03T13:07:57Z</time></trkpt><trkpt lat="44.38702381399435" lon="11.724709889550343"><ele>29.0</ele><time>2026-05-03T13:07:58Z</time></trkpt><trkpt lat="44.387122177443196" lon="11.724449416968465"><ele>29.0</ele><time>2026-05-03T13:07:59Z</time></trkpt><trkpt lat="44.38722148207516" lon="11.72417851827461"><ele>29.0</ele><time>2026-05-03T13:08:00Z</time></trkpt><trkpt lat="44.387317771390116" lon="11.72389278771906"><ele>29.0</ele><time>2026-05-03T13:08:01Z</time></trkpt><trkpt lat="44.38741017896317" lon="11.723590111789695"><ele>29.0</ele><time>2026-05-03T13:08:02Z</time></trkpt><trkpt lat="44.38751299549662" lon="11.723288708485368"><ele>29.0</ele><time>2026-05-03T13:08:03Z</time></trkpt><trkpt lat="44.387617877554504" lon="11.722988717201405"><ele>29.0</ele><time>2026-05-03T13:08:04Z</time></trkpt><trkpt lat="44.38772424217583" lon="11.72268433686734"><ele>29.5</ele><time>2026-05-03T13:08:05Z</time></trkpt><trkpt lat="44.387833266138934" lon="11.722375823603697"><ele>30.0</ele><time>2026-05-03T13:08:06Z</time></trkpt><trkpt lat="44.38794350480783" lon="11.722066325134469"><ele>30.5</ele><time>2026-05-03T13:08:07Z</time></trkpt><trkpt lat="44.38805556675831" lon="11.72175570201898"><ele>31.0</ele><time>2026-05-03T13:08:08Z</time></trkpt><trkpt lat="44.38816989369695" lon="11.721442927570532"><ele>31.0</ele><time>2026-05-03T13:08:09Z</time></trkpt><trkpt lat="44.38828442614245" lon="11.721131831577415"><ele>31.0</ele><time>2026-05-03T13:08:10Z</time></trkpt><trkpt lat="44.38839844710748" lon="11.720819486899538"><ele>31.0</ele><time>2026-05-03T13:08:11Z</time></trkpt><trkpt lat="44.388511474170805" lon="11.7205093284921"><ele>31.0</ele><time>2026-05-03T13:08:12Z</time></trkpt><trkpt lat="44.38862439503012" lon="11.720199337444198"><ele>31.0</ele><time>2026-05-03T13:08:13Z</time></trkpt><trkpt lat="44.38873500646271" lon="11.719888913590308"><ele>31.0</ele><time>2026-05-03T13:08:14Z</time></trkpt><trkpt lat="44.38884566315225" lon="11.719579454278996"><ele>31.0</ele><time>2026-05-03T13:08:15Z</time></trkpt><trkpt lat="44.388957101231185" lon="11.719269245011612"><ele>31.0</ele><time>2026-05-03T13:08:16Z</time></trkpt><trkpt lat="44.38906845300842" lon="11.718958504465544"><ele>31.0</ele><time>2026-05-03T13:08:17Z</time></trkpt><trkpt lat="44.38918021809729" lon="11.718644831794176"><ele>31.0</ele><time>2026-05-03T13:08:18Z</time></trkpt><trkpt lat="44.389291949467875" lon="11.71833143458435"><ele>31.0</ele><time>2026-05-03T13:08:19Z</time></trkpt><trkpt lat="44.3894035310553" lon="11.718019684894001"><ele>31.0</ele><time>2026-05-03T13:08:20Z</time></trkpt><trkpt lat="44.389514349367" lon="11.717709581718122"><ele>31.0</ele><time>2026-05-03T13:08:21Z</time></trkpt><trkpt lat="44.389625082590904" lon="11.71739812628566"><ele>31.0</ele><time>2026-05-03T13:08:22Z</time></trkpt><trkpt lat="44.38973640213721" lon="11.717085590953802"><ele>31.5</ele><time>2026-05-03T13:08:23Z</time></trkpt><trkpt lat="44.38984712699741" lon="11.716766962771008"><ele>32.0</ele><time>2026-05-03T13:08:24Z</time></trkpt><trkpt lat="44.38995749333468" lon="11.716444837446442"><ele>32.0</ele><time>2026-05-03T13:08:25Z</time></trkpt><trkpt lat="44.3900695287128" lon="11.716124066712153"><ele>32.0</ele><time>2026-05-03T13:08:26Z</time></trkpt><trkpt lat="44.39018346342691" lon="11.715802097151979"><ele>32.0</ele><time>2026-05-03T13:08:27Z</time></trkpt><trkpt lat="44.3902977508756" lon="11.715479341795621"><ele>32.0</ele><time>2026-05-03T13:08:28Z</time></trkpt><trkpt lat="44.39041458042961" lon="11.715157816303348"><ele>32.0</ele><time>2026-05-03T13:08:29Z</time></trkpt><trkpt lat="44.39052945641757" lon="11.714840403967862"><ele>32.0</ele><time>2026-05-03T13:08:30Z</time></trkpt><trkpt lat="44.39064098855711" lon="11.714523409024974"><ele>32.0</ele><time>2026-05-03T13:08:31Z</time></trkpt><trkpt lat="44.390751896849984" lon="11.714210396190913"><ele>32.0</ele><time>2026-05-03T13:08:32Z</time></trkpt><trkpt lat="44.39086177742354" lon="11.71390361022618"><ele>32.0</ele><time>2026-05-03T13:08:33Z</time></trkpt><trkpt lat="44.39097181419233" lon="11.713597703438724"><ele>32.0</ele><time>2026-05-03T13:08:34Z</time></trkpt><trkpt lat="44.39108066528228" lon="11.713293984280327"><ele>32.5</ele><time>2026-05-03T13:08:35Z</time></trkpt><trkpt lat="44.39118741827829" lon="11.712995103931812"><ele>33.0</ele><time>2026-05-03T13:08:36Z</time></trkpt><trkpt lat="44.39129282479583" lon="11.712700842350452"><ele>31.5</ele><time>2026-05-03T13:08:37Z</time></trkpt><trkpt lat="44.391395933722286" lon="11.712412518980454"><ele>30.0</ele><time>2026-05-03T13:08:38Z</time></trkpt><trkpt lat="44.391498254763924" lon="11.712127838159859"><ele>30.5</ele><time>2026-05-03T13:08:39Z</time></trkpt><trkpt lat="44.391603414328" lon="11.711847649593116"><ele>31.0</ele><time>2026-05-03T13:08:40Z</time></trkpt><trkpt lat="44.391714644304656" lon="11.71155842415205"><ele>31.0</ele><time>2026-05-03T13:08:41Z</time></trkpt><trkpt lat="44.39181110345919" lon="11.711294645526444"><ele>31.0</ele><time>2026-05-03T13:08:42Z</time></trkpt><trkpt lat="44.391925583580594" lon="11.711009513621171"><ele>31.0</ele><time>2026-05-03T13:08:43Z</time></trkpt><trkpt lat="44.39204178481495" lon="11.71071299727118"><ele>31.666666666666668</ele><time>2026-05-03T13:08:44Z</time></trkpt><trkpt lat="44.39213275769002" lon="11.710455857154097"><ele>32.333333333333336</ele><time>2026-05-03T13:08:45Z</time></trkpt><trkpt lat="44.392237378997145" lon="11.71017325847789"><ele>33.0</ele><time>2026-05-03T13:08:46Z</time></trkpt><trkpt lat="44.392349414312804" lon="11.709883034222877"><ele>33.5</ele><time>2026-05-03T13:08:47Z</time></trkpt><trkpt lat="44.392466175033285" lon="11.70960183235393"><ele>34.0</ele><time>2026-05-03T13:08:48Z</time></trkpt><trkpt lat="44.392585757411474" lon="11.70932238182872"><ele>34.0</ele><time>2026-05-03T13:08:49Z</time></trkpt><trkpt lat="44.392709815161716" lon="11.709044345556071"><ele>34.0</ele><time>2026-05-03T13:08:50Z</time></trkpt><trkpt lat="44.392838700518034" lon="11.708771109077086"><ele>34.0</ele><time>2026-05-03T13:08:51Z</time></trkpt><trkpt lat="44.39296902365115" lon="11.70849554474829"><ele>34.0</ele><time>2026-05-03T13:08:52Z</time></trkpt><trkpt lat="44.39310368651387" lon="11.708224332157231"><ele>34.0</ele><time>2026-05-03T13:08:53Z</time></trkpt><trkpt lat="44.39323974168215" lon="11.707954917308108"><ele>34.0</ele><time>2026-05-03T13:08:54Z</time></trkpt><trkpt lat="44.39337584998295" lon="11.70768006430219"><ele>34.0</ele><time>2026-05-03T13:08:55Z</time></trkpt><trkpt lat="44.39351555993991" lon="11.707406013802139"><ele>34.0</ele><time>2026-05-03T13:08:56Z</time></trkpt><trkpt lat="44.393655497018514" lon="11.707135110092123"><ele>33.5</ele><time>2026-05-03T13:08:57Z</time></trkpt><trkpt lat="44.393799748469895" lon="11.706861222634402"><ele>33.0</ele><time>2026-05-03T13:08:58Z</time></trkpt><trkpt lat="44.39394567300129" lon="11.706579476006365"><ele>33.0</ele><time>2026-05-03T13:08:59Z</time></trkpt><trkpt lat="44.39408938803033" lon="11.706301550681337"><ele>33.0</ele><time>2026-05-03T13:09:00Z</time></trkpt><trkpt lat="44.394230228790526" lon="11.706024639646406"><ele>33.5</ele><time>2026-05-03T13:09:01Z</time></trkpt><trkpt lat="44.39436994812794" lon="11.705745534803567"><ele>34.0</ele><time>2026-05-03T13:09:02Z</time></trkpt><trkpt lat="44.39451070143766" lon="11.70547210942969"><ele>34.0</ele><time>2026-05-03T13:09:03Z</time></trkpt><trkpt lat="44.39465209722054" lon="11.705193194055472"><ele>34.0</ele><time>2026-05-03T13:09:04Z</time></trkpt><trkpt lat="44.39479620955334" lon="11.704917871244062"><ele>34.0</ele><time>2026-05-03T13:09:05Z</time></trkpt><trkpt lat="44.3949303077859" lon="11.704648203056884"><ele>34.0</ele><time>2026-05-03T13:09:06Z</time></trkpt><trkpt lat="44.39506198017149" lon="11.704375980138009"><ele>34.0</ele><time>2026-05-03T13:09:07Z</time></trkpt><trkpt lat="44.395195178862934" lon="11.704104260083303"><ele>34.0</ele><time>2026-05-03T13:09:08Z</time></trkpt><trkpt lat="44.395328293919505" lon="11.703826553045221"><ele>33.5</ele><time>2026-05-03T13:09:09Z</time></trkpt><trkpt lat="44.39546120033007" lon="11.70354263536345"><ele>33.0</ele><time>2026-05-03T13:09:10Z</time></trkpt><trkpt lat="44.39559709103984" lon="11.70326151434808"><ele>34.0</ele><time>2026-05-03T13:09:11Z</time></trkpt><trkpt lat="44.39573802394837" lon="11.702982176232943"><ele>35.0</ele><time>2026-05-03T13:09:12Z</time></trkpt><trkpt lat="44.39588352156319" lon="11.702703118874732"><ele>35.5</ele><time>2026-05-03T13:09:13Z</time></trkpt><trkpt lat="44.39603462954534" lon="11.702419977817014"><ele>36.0</ele><time>2026-05-03T13:09:14Z</time></trkpt><trkpt lat="44.39618822773304" lon="11.702133250611128"><ele>35.5</ele><time>2026-05-03T13:09:15Z</time></trkpt><trkpt lat="44.396343083206304" lon="11.701841180339482"><ele>35.0</ele><time>2026-05-03T13:09:16Z</time></trkpt><trkpt lat="44.3965017728152" lon="11.701525121798442"><ele>35.0</ele><time>2026-05-03T13:09:17Z</time></trkpt><trkpt lat="44.39666118518792" lon="11.701199310357115"><ele>35.0</ele><time>2026-05-03T13:09:18Z</time></trkpt><trkpt lat="44.396817063437396" lon="11.700867307068815"><ele>34.5</ele><time>2026-05-03T13:09:19Z</time></trkpt><trkpt lat="44.396971135137356" lon="11.700527583357246"><ele>34.0</ele><time>2026-05-03T13:09:20Z</time></trkpt><trkpt lat="44.397121565681076" lon="11.700184244633006"><ele>34.0</ele><time>2026-05-03T13:09:21Z</time></trkpt><trkpt lat="44.3972647788592" lon="11.69983934632354"><ele>34.0</ele><time>2026-05-03T13:09:22Z</time></trkpt><trkpt lat="44.397405798107634" lon="11.699490607646885"><ele>35.0</ele><time>2026-05-03T13:09:23Z</time></trkpt><trkpt lat="44.39754304415538" lon="11.699139177674365"><ele>36.0</ele><time>2026-05-03T13:09:24Z</time></trkpt><trkpt lat="44.397674165156296" lon="11.69878382915927"><ele>36.5</ele><time>2026-05-03T13:09:25Z</time></trkpt><trkpt lat="44.39779915249608" lon="11.698427694468586"><ele>37.0</ele><time>2026-05-03T13:09:26Z</time></trkpt><trkpt lat="44.39792419171567" lon="11.698069705738035"><ele>37.0</ele><time>2026-05-03T13:09:27Z</time></trkpt><trkpt lat="44.39804931405778" lon="11.697713294596886"><ele>37.0</ele><time>2026-05-03T13:09:28Z</time></trkpt><trkpt lat="44.398178115556064" lon="11.697355124079314"><ele>37.0</ele><time>2026-05-03T13:09:29Z</time></trkpt><trkpt lat="44.39830785209024" lon="11.697003256737007"><ele>37.0</ele><time>2026-05-03T13:09:30Z</time></trkpt><trkpt lat="44.39843302562051" lon="11.696657581970474"><ele>37.0</ele><time>2026-05-03T13:09:31Z</time></trkpt><trkpt lat="44.39855253079212" lon="11.696314116078922"><ele>37.0</ele><time>2026-05-03T13:09:32Z</time></trkpt><trkpt lat="44.39867021646994" lon="11.695972019685119"><ele>37.0</ele><time>2026-05-03T13:09:33Z</time></trkpt><trkpt lat="44.39879151786578" lon="11.695634468417012"><ele>37.0</ele><time>2026-05-03T13:09:34Z</time></trkpt><trkpt lat="44.398911899796154" lon="11.695299373536532"><ele>37.0</ele><time>2026-05-03T13:09:35Z</time></trkpt><trkpt lat="44.399032051120244" lon="11.69496442170813"><ele>37.0</ele><time>2026-05-03T13:09:36Z</time></trkpt><trkpt lat="44.399154419779855" lon="11.694633527490884"><ele>37.5</ele><time>2026-05-03T13:09:37Z</time></trkpt><trkpt lat="44.39927541680814" lon="11.69430626620499"><ele>38.0</ele><time>2026-05-03T13:09:38Z</time></trkpt><trkpt lat="44.39939602785399" lon="11.693981249099727"><ele>38.0</ele><time>2026-05-03T13:09:39Z</time></trkpt><trkpt lat="44.399516821310485" lon="11.693656342133211"><ele>38.0</ele><time>2026-05-03T13:09:40Z</time></trkpt><trkpt lat="44.39963678790375" lon="11.693331792257043"><ele>38.0</ele><time>2026-05-03T13:09:41Z</time></trkpt><trkpt lat="44.399756610877155" lon="11.693009590550513"><ele>38.0</ele><time>2026-05-03T13:09:42Z</time></trkpt><trkpt lat="44.39987766400902" lon="11.69268440162282"><ele>39.0</ele><time>2026-05-03T13:09:43Z</time></trkpt><trkpt lat="44.399998984476646" lon="11.69235566064768"><ele>40.0</ele><time>2026-05-03T13:09:44Z</time></trkpt><trkpt lat="44.40012071338031" lon="11.692028088452131"><ele>39.5</ele><time>2026-05-03T13:09:45Z</time></trkpt><trkpt lat="44.40024496108107" lon="11.691693885711697"><ele>39.0</ele><time>2026-05-03T13:09:46Z</time></trkpt><trkpt lat="44.400369252741214" lon="11.69136412579889"><ele>38.5</ele><time>2026-05-03T13:09:47Z</time></trkpt><trkpt lat="44.40049371322158" lon="11.691033423570692"><ele>38.0</ele><time>2026-05-03T13:09:48Z</time></trkpt><trkpt lat="44.40062058047287" lon="11.690700334920368"><ele>37.5</ele><time>2026-05-03T13:09:49Z</time></trkpt><trkpt lat="44.400745021734764" lon="11.690366481186587"><ele>37.0</ele><time>2026-05-03T13:09:50Z</time></trkpt><trkpt lat="44.40086962994335" lon="11.690029615432886"><ele>38.5</ele><time>2026-05-03T13:09:51Z</time></trkpt><trkpt lat="44.4009959349983" lon="11.689693099306325"><ele>40.0</ele><time>2026-05-03T13:09:52Z</time></trkpt><trkpt lat="44.40112249960038" lon="11.689355810304448"><ele>40.5</ele><time>2026-05-03T13:09:53Z</time></trkpt><trkpt lat="44.40124490619937" lon="11.689015748499054"><ele>41.0</ele><time>2026-05-03T13:09:54Z</time></trkpt><trkpt lat="44.40137217851084" lon="11.68866753838114"><ele>39.0</ele><time>2026-05-03T13:09:55Z</time></trkpt><trkpt lat="44.40149974705668" lon="11.68832449868398"><ele>37.0</ele><time>2026-05-03T13:09:56Z</time></trkpt><trkpt lat="44.40162715619807" lon="11.687979760899742"><ele>38.5</ele><time>2026-05-03T13:09:57Z</time></trkpt><trkpt lat="44.401755376851185" lon="11.687636177720258"><ele>40.0</ele><time>2026-05-03T13:09:58Z</time></trkpt><trkpt lat="44.401885573597184" lon="11.687296650440542"><ele>40.0</ele><time>2026-05-03T13:09:59Z</time></trkpt><trkpt lat="44.40201628762294" lon="11.686963556690868"><ele>40.0</ele><time>2026-05-03T13:10:00Z</time></trkpt><trkpt lat="44.40214751141803" lon="11.686633871045514"><ele>39.5</ele><time>2026-05-03T13:10:01Z</time></trkpt><trkpt lat="44.40227661067495" lon="11.686301891852645"><ele>39.0</ele><time>2026-05-03T13:10:02Z</time></trkpt><trkpt lat="44.40240231510101" lon="11.68596996974557"><ele>39.0</ele><time>2026-05-03T13:10:03Z</time></trkpt><trkpt lat="44.40252785264018" lon="11.685641203395592"><ele>39.0</ele><time>2026-05-03T13:10:04Z</time></trkpt><trkpt lat="44.402649992058606" lon="11.68531447605431"><ele>39.0</ele><time>2026-05-03T13:10:05Z</time></trkpt><trkpt lat="44.40277172144072" lon="11.684985523174078"><ele>39.0</ele><time>2026-05-03T13:10:06Z</time></trkpt><trkpt lat="44.40289460997538" lon="11.684659578892273"><ele>39.5</ele><time>2026-05-03T13:10:07Z</time></trkpt><trkpt lat="44.4030165617794" lon="11.684334130723023"><ele>40.0</ele><time>2026-05-03T13:10:08Z</time></trkpt><trkpt lat="44.40313695657227" lon="11.684010275915794"><ele>40.0</ele><time>2026-05-03T13:10:09Z</time></trkpt><trkpt lat="44.40325698865462" lon="11.683684427013738"><ele>40.0</ele><time>2026-05-03T13:10:10Z</time></trkpt><trkpt lat="44.40337654561093" lon="11.683362804629779"><ele>40.0</ele><time>2026-05-03T13:10:11Z</time></trkpt><trkpt lat="44.403495896047176" lon="11.683037270154253"><ele>40.0</ele><time>2026-05-03T13:10:12Z</time></trkpt><trkpt lat="44.40361546819319" lon="11.68271178121268"><ele>40.0</ele><time>2026-05-03T13:10:13Z</time></trkpt><trkpt lat="44.403739926178005" lon="11.68238752602387"><ele>40.0</ele><time>2026-05-03T13:10:14Z</time></trkpt><trkpt lat="44.403858315837" lon="11.6820611546242"><ele>39.5</ele><time>2026-05-03T13:10:15Z</time></trkpt><trkpt lat="44.40397916676468" lon="11.681738198318389"><ele>39.0</ele><time>2026-05-03T13:10:16Z</time></trkpt><trkpt lat="44.40409889273846" lon="11.681409721296031"><ele>39.5</ele><time>2026-05-03T13:10:17Z</time></trkpt><trkpt lat="44.40421926761586" lon="11.681083338900557"><ele>40.0</ele><time>2026-05-03T13:10:18Z</time></trkpt><trkpt lat="44.40434077260161" lon="11.680759520479157"><ele>40.0</ele><time>2026-05-03T13:10:19Z</time></trkpt><trkpt lat="44.404461129451356" lon="11.680434978689059"><ele>40.0</ele><time>2026-05-03T13:10:20Z</time></trkpt><trkpt lat="44.40458257811312" lon="11.680109084344492"><ele>40.0</ele><time>2026-05-03T13:10:21Z</time></trkpt><trkpt lat="44.40470508748079" lon="11.679783525119024"><ele>40.0</ele><time>2026-05-03T13:10:22Z</time></trkpt><trkpt lat="44.404825573692044" lon="11.679449146768174"><ele>40.0</ele><time>2026-05-03T13:10:23Z</time></trkpt><trkpt lat="44.40494817644665" lon="11.67911844653832"><ele>40.0</ele><time>2026-05-03T13:10:24Z</time></trkpt><trkpt lat="44.40507291879991" lon="11.678788969227664"><ele>39.5</ele><time>2026-05-03T13:10:25Z</time></trkpt><trkpt lat="44.40519877112599" lon="11.678452687789267"><ele>39.0</ele><time>2026-05-03T13:10:26Z</time></trkpt><trkpt lat="44.405327771428944" lon="11.678111620873212"><ele>39.0</ele><time>2026-05-03T13:10:27Z</time></trkpt><trkpt lat="44.4054605451018" lon="11.677759777776068"><ele>39.0</ele><time>2026-05-03T13:10:28Z</time></trkpt><trkpt lat="44.405592823579006" lon="11.677407270802032"><ele>39.5</ele><time>2026-05-03T13:10:29Z</time></trkpt><trkpt lat="44.40572336122331" lon="11.677057353983761"><ele>40.0</ele><time>2026-05-03T13:10:30Z</time></trkpt><trkpt lat="44.4058544995556" lon="11.67670262841009"><ele>41.5</ele><time>2026-05-03T13:10:31Z</time></trkpt><trkpt lat="44.405980892150716" lon="11.676343973077294"><ele>43.0</ele><time>2026-05-03T13:10:32Z</time></trkpt><trkpt lat="44.406109987676494" lon="11.675985542129046"><ele>43.0</ele><time>2026-05-03T13:10:33Z</time></trkpt><trkpt lat="44.40624622607492" lon="11.675633849890161"><ele>43.0</ele><time>2026-05-03T13:10:34Z</time></trkpt><trkpt lat="44.406382588223956" lon="11.67528316135234"><ele>41.5</ele><time>2026-05-03T13:10:35Z</time></trkpt><trkpt lat="44.40651298319968" lon="11.674929991543852"><ele>40.0</ele><time>2026-05-03T13:10:36Z</time></trkpt><trkpt lat="44.40664135825243" lon="11.674575219460307"><ele>39.5</ele><time>2026-05-03T13:10:37Z</time></trkpt><trkpt lat="44.406771611377124" lon="11.674221158009539"><ele>39.0</ele><time>2026-05-03T13:10:38Z</time></trkpt><trkpt lat="44.40690331790627" lon="11.673865743895142"><ele>39.0</ele><time>2026-05-03T13:10:39Z</time></trkpt><trkpt lat="44.40703473526336" lon="11.673509249212014"><ele>39.0</ele><time>2026-05-03T13:10:40Z</time></trkpt><trkpt lat="44.407168587923294" lon="11.67314883828368"><ele>39.0</ele><time>2026-05-03T13:10:41Z</time></trkpt><trkpt lat="44.40730092115865" lon="11.67279224862895"><ele>39.0</ele><time>2026-05-03T13:10:42Z</time></trkpt><trkpt lat="44.40743561980024" lon="11.67243261624168"><ele>39.5</ele><time>2026-05-03T13:10:43Z</time></trkpt><trkpt lat="44.40757062931159" lon="11.672073478052784"><ele>40.0</ele><time>2026-05-03T13:10:44Z</time></trkpt><trkpt lat="44.40770639179011" lon="11.671712759821244"><ele>40.0</ele><time>2026-05-03T13:10:45Z</time></trkpt><trkpt lat="44.407841405944126" lon="11.671350250675502"><ele>40.0</ele><time>2026-05-03T13:10:46Z</time></trkpt><trkpt lat="44.407977209987756" lon="11.670985958219319"><ele>40.5</ele><time>2026-05-03T13:10:47Z</time></trkpt><trkpt lat="44.40811243941124" lon="11.670619887770748"><ele>41.0</ele><time>2026-05-03T13:10:48Z</time></trkpt><trkpt lat="44.4082499418315" lon="11.670256927985266"><ele>41.5</ele><time>2026-05-03T13:10:49Z</time></trkpt><trkpt lat="44.40839008689839" lon="11.669894981751044"><ele>42.0</ele><time>2026-05-03T13:10:50Z</time></trkpt><trkpt lat="44.4085308957631" lon="11.669529202308597"><ele>42.5</ele><time>2026-05-03T13:10:51Z</time></trkpt><trkpt lat="44.40867077589393" lon="11.66916150298816"><ele>43.0</ele><time>2026-05-03T13:10:52Z</time></trkpt><trkpt lat="44.40880903158398" lon="11.668792281031934"><ele>42.5</ele><time>2026-05-03T13:10:53Z</time></trkpt><trkpt lat="44.40894691910522" lon="11.668423566141241"><ele>42.0</ele><time>2026-05-03T13:10:54Z</time></trkpt><trkpt lat="44.40908275427165" lon="11.668056144626838"><ele>41.0</ele><time>2026-05-03T13:10:55Z</time></trkpt><trkpt lat="44.409218235827915" lon="11.667689459776483"><ele>40.0</ele><time>2026-05-03T13:10:56Z</time></trkpt><trkpt lat="44.40935210503118" lon="11.667326912380702"><ele>40.0</ele><time>2026-05-03T13:10:57Z</time></trkpt><trkpt lat="44.409487470857854" lon="11.66696285915486"><ele>40.0</ele><time>2026-05-03T13:10:58Z</time></trkpt><trkpt lat="44.40962267984807" lon="11.666602529284354"><ele>40.5</ele><time>2026-05-03T13:10:59Z</time></trkpt><trkpt lat="44.4097552195521" lon="11.666243192970914"><ele>41.0</ele><time>2026-05-03T13:11:00Z</time></trkpt><trkpt lat="44.40988344671231" lon="11.665882114825012"><ele>41.0</ele><time>2026-05-03T13:11:01Z</time></trkpt><trkpt lat="44.41000640706797" lon="11.665517238939895"><ele>41.0</ele><time>2026-05-03T13:11:02Z</time></trkpt><trkpt lat="44.410121446255225" lon="11.665150707448653"><ele>41.0</ele><time>2026-05-03T13:11:03Z</time></trkpt><trkpt lat="44.41023463914175" lon="11.664782756113453"><ele>41.0</ele><time>2026-05-03T13:11:04Z</time></trkpt><trkpt lat="44.41034434195107" lon="11.664415972666996"><ele>42.0</ele><time>2026-05-03T13:11:05Z</time></trkpt><trkpt lat="44.410449654901704" lon="11.664046458883641"><ele>43.0</ele><time>2026-05-03T13:11:06Z</time></trkpt><trkpt lat="44.410549322755706" lon="11.66367480975331"><ele>43.0</ele><time>2026-05-03T13:11:07Z</time></trkpt><trkpt lat="44.41064706796058" lon="11.66330085014673"><ele>43.0</ele><time>2026-05-03T13:11:08Z</time></trkpt><trkpt lat="44.410737468550764" lon="11.662927877490484"><ele>41.5</ele><time>2026-05-03T13:11:09Z</time></trkpt><trkpt lat="44.41082206999675" lon="11.662554884388362"><ele>40.0</ele><time>2026-05-03T13:11:10Z</time></trkpt><trkpt lat="44.41090117591962" lon="11.662186191585372"><ele>40.5</ele><time>2026-05-03T13:11:11Z</time></trkpt><trkpt lat="44.41097827320847" lon="11.661815544544964"><ele>41.0</ele><time>2026-05-03T13:11:12Z</time></trkpt><trkpt lat="44.41105096566462" lon="11.661447475171112"><ele>41.5</ele><time>2026-05-03T13:11:13Z</time></trkpt><trkpt lat="44.411117145472424" lon="11.66109433541133"><ele>42.0</ele><time>2026-05-03T13:11:14Z</time></trkpt><trkpt lat="44.41117614412505" lon="11.66075519571538"><ele>42.0</ele><time>2026-05-03T13:11:15Z</time></trkpt><trkpt lat="44.4112314950374" lon="11.660432715753132"><ele>42.0</ele><time>2026-05-03T13:11:16Z</time></trkpt><trkpt lat="44.411279735158814" lon="11.660126886159063"><ele>42.0</ele><time>2026-05-03T13:11:17Z</time></trkpt><trkpt lat="44.41132239226688" lon="11.659831977316028"><ele>42.0</ele><time>2026-05-03T13:11:18Z</time></trkpt><trkpt lat="44.4113610695899" lon="11.659539683098227"><ele>42.0</ele><time>2026-05-03T13:11:19Z</time></trkpt><trkpt lat="44.4113970215173" lon="11.659246212453596"><ele>42.0</ele><time>2026-05-03T13:11:20Z</time></trkpt><trkpt lat="44.41143442168655" lon="11.658952412878042"><ele>42.0</ele><time>2026-05-03T13:11:21Z</time></trkpt><trkpt lat="44.41147059441332" lon="11.658651772631325"><ele>42.0</ele><time>2026-05-03T13:11:22Z</time></trkpt><trkpt lat="44.41150701279742" lon="11.65835012142797"><ele>42.333333333333336</ele><time>2026-05-03T13:11:23Z</time></trkpt><trkpt lat="44.4115441245388" lon="11.658047380944936"><ele>42.66666666666667</ele><time>2026-05-03T13:11:24Z</time></trkpt><trkpt lat="44.411581481280066" lon="11.657743431984859"><ele>43.0</ele><time>2026-05-03T13:11:25Z</time></trkpt><trkpt lat="44.411619427314825" lon="11.65744040685983"><ele>42.333333333333336</ele><time>2026-05-03T13:11:26Z</time></trkpt><trkpt lat="44.411658950517364" lon="11.657135247125513"><ele>41.666666666666664</ele><time>2026-05-03T13:11:27Z</time></trkpt><trkpt lat="44.41169760421038" lon="11.656831907191217"><ele>41.0</ele><time>2026-05-03T13:11:28Z</time></trkpt><trkpt lat="44.41173611741932" lon="11.656526255274342"><ele>40.666666666666664</ele><time>2026-05-03T13:11:29Z</time></trkpt><trkpt lat="44.411774995109106" lon="11.656219290340212"><ele>40.333333333333336</ele><time>2026-05-03T13:11:30Z</time></trkpt><trkpt lat="44.41181284255326" lon="11.655910752561361"><ele>40.0</ele><time>2026-05-03T13:11:31Z</time></trkpt><trkpt lat="44.41185166124297" lon="11.655595087475016"><ele>39.5</ele><time>2026-05-03T13:11:32Z</time></trkpt><trkpt lat="44.411892314801236" lon="11.655281228851768"><ele>39.0</ele><time>2026-05-03T13:11:33Z</time></trkpt><trkpt lat="44.4119391882006" lon="11.654959294866392"><ele>39.0</ele><time>2026-05-03T13:11:34Z</time></trkpt><trkpt lat="44.41196638905986" lon="11.654684127143"><ele>39.0</ele><time>2026-05-03T13:11:35Z</time></trkpt><trkpt lat="44.41200367343021" lon="11.654386366691954"><ele>39.0</ele><time>2026-05-03T13:11:36Z</time></trkpt><trkpt lat="44.412037815775406" lon="11.654091048335733"><ele>39.333333333333336</ele><time>2026-05-03T13:11:37Z</time></trkpt><trkpt lat="44.412076837710046" lon="11.65379667716835"><ele>39.66666666666667</ele><time>2026-05-03T13:11:38Z</time></trkpt><trkpt lat="44.412112652094685" lon="11.653509291085443"><ele>40.0</ele><time>2026-05-03T13:11:39Z</time></trkpt><trkpt lat="44.41214895872723" lon="11.653217823271348"><ele>40.333333333333336</ele><time>2026-05-03T13:11:40Z</time></trkpt><trkpt lat="44.41218392280415" lon="11.652938780859586"><ele>40.666666666666664</ele><time>2026-05-03T13:11:41Z</time></trkpt><trkpt lat="44.412217894214805" lon="11.652665776846858"><ele>41.0</ele><time>2026-05-03T13:11:42Z</time></trkpt><trkpt lat="44.41224983510275" lon="11.652390889240966"><ele>41.0</ele><time>2026-05-03T13:11:43Z</time></trkpt><trkpt lat="44.41228304757473" lon="11.652114494575196"><ele>41.0</ele><time>2026-05-03T13:11:44Z</time></trkpt><trkpt lat="44.41231435307827" lon="11.651847409180043"><ele>41.0</ele><time>2026-05-03T13:11:45Z</time></trkpt><trkpt lat="44.412344969451006" lon="11.651591879869102"><ele>40.0</ele><time>2026-05-03T13:11:46Z</time></trkpt><trkpt lat="44.412373834714145" lon="11.651339064260194"><ele>39.0</ele><time>2026-05-03T13:11:47Z</time></trkpt><trkpt lat="44.412397207583005" lon="11.651143115725795"><ele>38.0</ele><time>2026-05-03T13:11:48Z</time></trkpt><trkpt lat="44.412423284580385" lon="11.650948058731522"><ele>38.0</ele><time>2026-05-03T13:11:49Z</time></trkpt><trkpt lat="44.412449428677085" lon="11.650751079385792"><ele>38.0</ele><time>2026-05-03T13:11:50Z</time></trkpt><trkpt lat="44.41247596873973" lon="11.650539085894968"><ele>38.0</ele><time>2026-05-03T13:11:51Z</time></trkpt><trkpt lat="44.41250538937344" lon="11.650322271685226"><ele>38.33333333333333</ele><time>2026-05-03T13:11:52Z</time></trkpt><trkpt lat="44.41253451734455" lon="11.650093040777397"><ele>38.666666666666664</ele><time>2026-05-03T13:11:53Z</time></trkpt><trkpt lat="44.412564121740736" lon="11.649855426248266"><ele>39.0</ele><time>2026-05-03T13:11:54Z</time></trkpt><trkpt lat="44.412595781349246" lon="11.649620918196494"><ele>39.666666666666664</ele><time>2026-05-03T13:11:55Z</time></trkpt><trkpt lat="44.41262816032534" lon="11.649383049790655"><ele>40.33333333333333</ele><time>2026-05-03T13:11:56Z</time></trkpt><trkpt lat="44.41266135530447" lon="11.649131666283482"><ele>41.0</ele><time>2026-05-03T13:11:57Z</time></trkpt><trkpt lat="44.41269634993274" lon="11.648887832946583"><ele>41.0</ele><time>2026-05-03T13:11:58Z</time></trkpt><trkpt lat="44.4127295682447" lon="11.648639655684958"><ele>41.0</ele><time>2026-05-03T13:11:59Z</time></trkpt><trkpt lat="44.4127588043817" lon="11.648388604324701"><ele>41.0</ele><time>2026-05-03T13:12:00Z</time></trkpt><trkpt lat="44.41278984867098" lon="11.64813012478315"><ele>40.666666666666664</ele><time>2026-05-03T13:12:01Z</time></trkpt><trkpt lat="44.412821983387246" lon="11.647870015318388"><ele>40.333333333333336</ele><time>2026-05-03T13:12:02Z</time></trkpt><trkpt lat="44.412853684795984" lon="11.64760865719477"><ele>40.0</ele><time>2026-05-03T13:12:03Z</time></trkpt><trkpt lat="44.41288755493247" lon="11.647346662006937"><ele>40.0</ele><time>2026-05-03T13:12:04Z</time></trkpt><trkpt lat="44.41292345023682" lon="11.647083132325001"><ele>40.0</ele><time>2026-05-03T13:12:05Z</time></trkpt><trkpt lat="44.41295764021784" lon="11.646816875954283"><ele>40.0</ele><time>2026-05-03T13:12:06Z</time></trkpt><trkpt lat="44.41298988618974" lon="11.646545130163481"><ele>40.333333333333336</ele><time>2026-05-03T13:12:07Z</time></trkpt><trkpt lat="44.41301994525396" lon="11.646271543647925"><ele>40.666666666666664</ele><time>2026-05-03T13:12:08Z</time></trkpt><trkpt lat="44.413051979270755" lon="11.645995832105914"><ele>41.0</ele><time>2026-05-03T13:12:09Z</time></trkpt><trkpt lat="44.41308637249422" lon="11.645717010194833"><ele>41.0</ele><time>2026-05-03T13:12:10Z</time></trkpt><trkpt lat="44.41312097322323" lon="11.645435607300923"><ele>41.0</ele><time>2026-05-03T13:12:11Z</time></trkpt><trkpt lat="44.41315610567478" lon="11.645153682457513"><ele>41.0</ele><time>2026-05-03T13:12:12Z</time></trkpt><trkpt lat="44.41319149451363" lon="11.644872053770698"><ele>40.666666666666664</ele><time>2026-05-03T13:12:13Z</time></trkpt><trkpt lat="44.41322609300681" lon="11.644590328294106"><ele>40.333333333333336</ele><time>2026-05-03T13:12:14Z</time></trkpt><trkpt lat="44.41325797924243" lon="11.644311185302437"><ele>40.0</ele><time>2026-05-03T13:12:15Z</time></trkpt><trkpt lat="44.413294209638" lon="11.644029844514968"><ele>40.0</ele><time>2026-05-03T13:12:16Z</time></trkpt><trkpt lat="44.41332836719053" lon="11.643747689387688"><ele>40.0</ele><time>2026-05-03T13:12:17Z</time></trkpt><trkpt lat="44.41336218926523" lon="11.643464650745946"><ele>40.0</ele><time>2026-05-03T13:12:18Z</time></trkpt><trkpt lat="44.413393932012774" lon="11.643184523289333"><ele>40.66666666666667</ele><time>2026-05-03T13:12:19Z</time></trkpt><trkpt lat="44.41342952480596" lon="11.642897352444653"><ele>41.333333333333336</ele><time>2026-05-03T13:12:20Z</time></trkpt><trkpt lat="44.41346220350291" lon="11.642612664774612"><ele>42.0</ele><time>2026-05-03T13:12:21Z</time></trkpt><trkpt lat="44.41349948465644" lon="11.642321402199817"><ele>42.0</ele><time>2026-05-03T13:12:22Z</time></trkpt><trkpt lat="44.41353453626105" lon="11.642037289943222"><ele>42.0</ele><time>2026-05-03T13:12:23Z</time></trkpt><trkpt lat="44.41357114786773" lon="11.641750976466867"><ele>42.0</ele><time>2026-05-03T13:12:24Z</time></trkpt><trkpt lat="44.413607160388125" lon="11.641461324301355"><ele>42.0</ele><time>2026-05-03T13:12:25Z</time></trkpt><trkpt lat="44.41364167597519" lon="11.64117031394638"><ele>42.0</ele><time>2026-05-03T13:12:26Z</time></trkpt><trkpt lat="44.413675572855304" lon="11.640879044083652"><ele>42.0</ele><time>2026-05-03T13:12:27Z</time></trkpt><trkpt lat="44.41371231151991" lon="11.640584473999235"><ele>42.333333333333336</ele><time>2026-05-03T13:12:28Z</time></trkpt><trkpt lat="44.41374815628718" lon="11.640289171842706"><ele>42.66666666666667</ele><time>2026-05-03T13:12:29Z</time></trkpt><trkpt lat="44.41378489589994" lon="11.639991637960124"><ele>43.0</ele><time>2026-05-03T13:12:30Z</time></trkpt><trkpt lat="44.41382066723852" lon="11.639693615230593"><ele>43.0</ele><time>2026-05-03T13:12:31Z</time></trkpt><trkpt lat="44.41385687033558" lon="11.639395715413597"><ele>43.0</ele><time>2026-05-03T13:12:32Z</time></trkpt><trkpt lat="44.413894976387525" lon="11.639093692328926"><ele>43.0</ele><time>2026-05-03T13:12:33Z</time></trkpt><trkpt lat="44.4139326797717" lon="11.638793858364254"><ele>42.66666666666667</ele><time>2026-05-03T13:12:34Z</time></trkpt><trkpt lat="44.413971929717455" lon="11.638493304578331"><ele>42.333333333333336</ele><time>2026-05-03T13:12:35Z</time></trkpt><trkpt lat="44.414009105225325" lon="11.63819295260781"><ele>42.0</ele><time>2026-05-03T13:12:36Z</time></trkpt><trkpt lat="44.414045074958224" lon="11.6378919937072"><ele>41.666666666666664</ele><time>2026-05-03T13:12:37Z</time></trkpt><trkpt lat="44.41408104804385" lon="11.637590110964249"><ele>41.33333333333333</ele><time>2026-05-03T13:12:38Z</time></trkpt><trkpt lat="44.4141154920005" lon="11.63728287772092"><ele>41.0</ele><time>2026-05-03T13:12:39Z</time></trkpt><trkpt lat="44.41414549200222" lon="11.636980258651136"><ele>41.0</ele><time>2026-05-03T13:12:40Z</time></trkpt><trkpt lat="44.41417634522034" lon="11.636677610631905"><ele>41.0</ele><time>2026-05-03T13:12:41Z</time></trkpt><trkpt lat="44.41420887624891" lon="11.636373357204661"><ele>41.0</ele><time>2026-05-03T13:12:42Z</time></trkpt><trkpt lat="44.41424298124661" lon="11.636070213009726"><ele>41.33333333333333</ele><time>2026-05-03T13:12:43Z</time></trkpt><trkpt lat="44.41427376873223" lon="11.635773609610613"><ele>41.666666666666664</ele><time>2026-05-03T13:12:44Z</time></trkpt><trkpt lat="44.41430883291201" lon="11.63547808649839"><ele>42.0</ele><time>2026-05-03T13:12:45Z</time></trkpt><trkpt lat="44.41434504193344" lon="11.635183510406002"><ele>42.333333333333336</ele><time>2026-05-03T13:12:46Z</time></trkpt><trkpt lat="44.41438377129332" lon="11.634891661415258"><ele>42.66666666666667</ele><time>2026-05-03T13:12:47Z</time></trkpt><trkpt lat="44.41442503675558" lon="11.634597508035169"><ele>43.0</ele><time>2026-05-03T13:12:48Z</time></trkpt><trkpt lat="44.41446881306471" lon="11.634314150577868"><ele>43.0</ele><time>2026-05-03T13:12:49Z</time></trkpt><trkpt lat="44.41451324865602" lon="11.634027192486613"><ele>43.0</ele><time>2026-05-03T13:12:50Z</time></trkpt><trkpt lat="44.41455781204752" lon="11.63373413103417"><ele>43.0</ele><time>2026-05-03T13:12:51Z</time></trkpt><trkpt lat="44.41459445996658" lon="11.633447446378357"><ele>42.66666666666667</ele><time>2026-05-03T13:12:52Z</time></trkpt><trkpt lat="44.41462759285278" lon="11.633156426035512"><ele>42.333333333333336</ele><time>2026-05-03T13:12:53Z</time></trkpt><trkpt lat="44.41466125981392" lon="11.632869221873856"><ele>42.0</ele><time>2026-05-03T13:12:54Z</time></trkpt><trkpt lat="44.41469778958333" lon="11.632580831643342"><ele>42.0</ele><time>2026-05-03T13:12:55Z</time></trkpt><trkpt lat="44.41473622438991" lon="11.632291202296663"><ele>42.0</ele><time>2026-05-03T13:12:56Z</time></trkpt><trkpt lat="44.41478036530715" lon="11.632006948581129"><ele>42.0</ele><time>2026-05-03T13:12:57Z</time></trkpt><trkpt lat="44.41482804930122" lon="11.631722583148965"><ele>42.333333333333336</ele><time>2026-05-03T13:12:58Z</time></trkpt><trkpt lat="44.41488108584384" lon="11.631440937318574"><ele>42.66666666666667</ele><time>2026-05-03T13:12:59Z</time></trkpt><trkpt lat="44.41494015988721" lon="11.631164254325656"><ele>43.0</ele><time>2026-05-03T13:13:00Z</time></trkpt><trkpt lat="44.41500386898176" lon="11.630890542232459"><ele>43.66666666666667</ele><time>2026-05-03T13:13:01Z</time></trkpt><trkpt lat="44.41507242171048" lon="11.630615727931469"><ele>44.333333333333336</ele><time>2026-05-03T13:13:02Z</time></trkpt><trkpt lat="44.4151463637257" lon="11.630344363960246"><ele>45.0</ele><time>2026-05-03T13:13:03Z</time></trkpt><trkpt lat="44.41522371480157" lon="11.63007470165289"><ele>45.333333333333336</ele><time>2026-05-03T13:13:04Z</time></trkpt><trkpt lat="44.41530198414359" lon="11.629805752195962"><ele>45.66666666666667</ele><time>2026-05-03T13:13:05Z</time></trkpt><trkpt lat="44.41538402236084" lon="11.629538771070013"><ele>46.0</ele><time>2026-05-03T13:13:06Z</time></trkpt><trkpt lat="44.41547258503862" lon="11.629276027134567"><ele>45.66666666666667</ele><time>2026-05-03T13:13:07Z</time></trkpt><trkpt lat="44.415568374202266" lon="11.62902222776733"><ele>45.333333333333336</ele><time>2026-05-03T13:13:08Z</time></trkpt><trkpt lat="44.415668589817024" lon="11.628777801224722"><ele>45.0</ele><time>2026-05-03T13:13:09Z</time></trkpt><trkpt lat="44.41576784257699" lon="11.62853693051988"><ele>45.0</ele><time>2026-05-03T13:13:10Z</time></trkpt><trkpt lat="44.41586845147351" lon="11.628299459310776"><ele>45.0</ele><time>2026-05-03T13:13:11Z</time></trkpt><trkpt lat="44.415972454179176" lon="11.628065870467797"><ele>45.0</ele><time>2026-05-03T13:13:12Z</time></trkpt><trkpt lat="44.4160801231379" lon="11.627835233206026"><ele>44.666666666666664</ele><time>2026-05-03T13:13:13Z</time></trkpt><trkpt lat="44.41619399995896" lon="11.627611041658081"><ele>44.33333333333333</ele><time>2026-05-03T13:13:14Z</time></trkpt><trkpt lat="44.41631027187888" lon="11.627390970142901"><ele>44.0</ele><time>2026-05-03T13:13:15Z</time></trkpt><trkpt lat="44.41643047283245" lon="11.627174191460396"><ele>43.666666666666664</ele><time>2026-05-03T13:13:16Z</time></trkpt><trkpt lat="44.416552049429406" lon="11.626963060906053"><ele>43.333333333333336</ele><time>2026-05-03T13:13:17Z</time></trkpt><trkpt lat="44.416678065087744" lon="11.626749912842962"><ele>43.0</ele><time>2026-05-03T13:13:18Z</time></trkpt><trkpt lat="44.41680552990127" lon="11.62653890642124"><ele>43.0</ele><time>2026-05-03T13:13:19Z</time></trkpt><trkpt lat="44.41693606529856" lon="11.626332482728696"><ele>43.0</ele><time>2026-05-03T13:13:20Z</time></trkpt><trkpt lat="44.417070616336034" lon="11.626128153000401"><ele>43.0</ele><time>2026-05-03T13:13:21Z</time></trkpt><trkpt lat="44.41720445969148" lon="11.62592124920339"><ele>43.0</ele><time>2026-05-03T13:13:22Z</time></trkpt><trkpt lat="44.41733666846705" lon="11.625710515037595"><ele>43.0</ele><time>2026-05-03T13:13:23Z</time></trkpt><trkpt lat="44.41746873591747" lon="11.62549977800913"><ele>43.0</ele><time>2026-05-03T13:13:24Z</time></trkpt><trkpt lat="44.41760151702015" lon="11.625290334789735"><ele>43.333333333333336</ele><time>2026-05-03T13:13:25Z</time></trkpt><trkpt lat="44.417737629881046" lon="11.62508280428359"><ele>43.666666666666664</ele><time>2026-05-03T13:13:26Z</time></trkpt><trkpt lat="44.41787396926281" lon="11.624873459234738"><ele>44.0</ele><time>2026-05-03T13:13:27Z</time></trkpt><trkpt lat="44.41800909416893" lon="11.624665930701548"><ele>43.0</ele><time>2026-05-03T13:13:28Z</time></trkpt><trkpt lat="44.41814590519809" lon="11.624456250393482"><ele>42.0</ele><time>2026-05-03T13:13:29Z</time></trkpt><trkpt lat="44.41827975096237" lon="11.624245160570414"><ele>41.0</ele><time>2026-05-03T13:13:30Z</time></trkpt><trkpt lat="44.418413963922646" lon="11.624033907607663"><ele>41.0</ele><time>2026-05-03T13:13:31Z</time></trkpt><trkpt lat="44.418548565259" lon="11.623821572459168"><ele>41.0</ele><time>2026-05-03T13:13:32Z</time></trkpt><trkpt lat="44.41868305925914" lon="11.62361280262765"><ele>41.0</ele><time>2026-05-03T13:13:33Z</time></trkpt><trkpt lat="44.418816931535616" lon="11.623402093980756"><ele>41.33333333333333</ele><time>2026-05-03T13:13:34Z</time></trkpt><trkpt lat="44.41895263015543" lon="11.623193782107375"><ele>41.666666666666664</ele><time>2026-05-03T13:13:35Z</time></trkpt><trkpt lat="44.419085274732396" lon="11.622988826407875"><ele>42.0</ele><time>2026-05-03T13:13:36Z</time></trkpt><trkpt lat="44.419217293863916" lon="11.62278157824571"><ele>42.666666666666664</ele><time>2026-05-03T13:13:37Z</time></trkpt><trkpt lat="44.419350054815794" lon="11.622575957737084"><ele>43.33333333333333</ele><time>2026-05-03T13:13:38Z</time></trkpt><trkpt lat="44.41948214941576" lon="11.62237040847565"><ele>44.0</ele><time>2026-05-03T13:13:39Z</time></trkpt><trkpt lat="44.41961484320012" lon="11.622161634347918"><ele>44.666666666666664</ele><time>2026-05-03T13:13:40Z</time></trkpt><trkpt lat="44.419747470740475" lon="11.621957251181092"><ele>45.333333333333336</ele><time>2026-05-03T13:13:41Z</time></trkpt><trkpt lat="44.41987960689362" lon="11.621747599786863"><ele>46.0</ele><time>2026-05-03T13:13:42Z</time></trkpt><trkpt lat="44.42001391276712" lon="11.621532755144491"><ele>46.0</ele><time>2026-05-03T13:13:43Z</time></trkpt><trkpt lat="44.42014942691037" lon="11.621315994308898"><ele>46.0</ele><time>2026-05-03T13:13:44Z</time></trkpt><trkpt lat="44.42028397915122" lon="11.621092643278706"><ele>46.0</ele><time>2026-05-03T13:13:45Z</time></trkpt><trkpt lat="44.42042073287032" lon="11.620867104892826"><ele>46.66666666666667</ele><time>2026-05-03T13:13:46Z</time></trkpt><trkpt lat="44.420558816027146" lon="11.620644044597755"><ele>47.333333333333336</ele><time>2026-05-03T13:13:47Z</time></trkpt><trkpt lat="44.42069995686039" lon="11.62041700155499"><ele>48.0</ele><time>2026-05-03T13:13:48Z</time></trkpt><trkpt lat="44.42084061945272" lon="11.620192701015506"><ele>48.33333333333333</ele><time>2026-05-03T13:13:49Z</time></trkpt><trkpt lat="44.420983453878" lon="11.619967314783013"><ele>48.666666666666664</ele><time>2026-05-03T13:13:50Z</time></trkpt><trkpt lat="44.42112688526873" lon="11.619742191434531"><ele>49.0</ele><time>2026-05-03T13:13:51Z</time></trkpt><trkpt lat="44.42127139798074" lon="11.619516033290878"><ele>48.666666666666664</ele><time>2026-05-03T13:13:52Z</time></trkpt><trkpt lat="44.421416049330254" lon="11.6192850351267"><ele>48.33333333333333</ele><time>2026-05-03T13:13:53Z</time></trkpt><trkpt lat="44.42155804943834" lon="11.619053577931433"><ele>48.0</ele><time>2026-05-03T13:13:54Z</time></trkpt><trkpt lat="44.421702937053155" lon="11.618812608729554"><ele>48.0</ele><time>2026-05-03T13:13:55Z</time></trkpt><trkpt lat="44.421847584479316" lon="11.618571419540887"><ele>48.0</ele><time>2026-05-03T13:13:56Z</time></trkpt><trkpt lat="44.42199846191908" lon="11.618313889961813"><ele>49.0</ele><time>2026-05-03T13:13:57Z</time></trkpt><trkpt lat="44.4221535759599" lon="11.618043509866222"><ele>50.0</ele><time>2026-05-03T13:13:58Z</time></trkpt><trkpt lat="44.42231167014552" lon="11.617767684614162"><ele>50.0</ele><time>2026-05-03T13:13:59Z</time></trkpt><trkpt lat="44.42247231384923" lon="11.617479078331712"><ele>50.0</ele><time>2026-05-03T13:14:00Z</time></trkpt><trkpt lat="44.42262981152536" lon="11.617190539874851"><ele>49.0</ele><time>2026-05-03T13:14:01Z</time></trkpt><trkpt lat="44.42278589324821" lon="11.616892304616064"><ele>48.0</ele><time>2026-05-03T13:14:02Z</time></trkpt><trkpt lat="44.422940002865346" lon="11.616589876037114"><ele>48.5</ele><time>2026-05-03T13:14:03Z</time></trkpt><trkpt lat="44.42309227055353" lon="11.61628376456748"><ele>49.0</ele><time>2026-05-03T13:14:04Z</time></trkpt><trkpt lat="44.423243563679954" lon="11.615975962262212"><ele>49.0</ele><time>2026-05-03T13:14:05Z</time></trkpt><trkpt lat="44.423390653694774" lon="11.615669524980504"><ele>49.0</ele><time>2026-05-03T13:14:06Z</time></trkpt><trkpt lat="44.423531968449176" lon="11.61536483142445"><ele>49.0</ele><time>2026-05-03T13:14:07Z</time></trkpt><trkpt lat="44.42366627696833" lon="11.615060353808577"><ele>49.0</ele><time>2026-05-03T13:14:08Z</time></trkpt><trkpt lat="44.42380031134251" lon="11.614756948180549"><ele>49.0</ele><time>2026-05-03T13:14:09Z</time></trkpt><trkpt lat="44.42392763988391" lon="11.614453999676785"><ele>49.0</ele><time>2026-05-03T13:14:10Z</time></trkpt><trkpt lat="44.424047390741684" lon="11.61415221805624"><ele>49.0</ele><time>2026-05-03T13:14:11Z</time></trkpt><trkpt lat="44.42416392150355" lon="11.613856083624627"><ele>49.0</ele><time>2026-05-03T13:14:12Z</time></trkpt><trkpt lat="44.42427431320373" lon="11.613570707812011"><ele>48.666666666666664</ele><time>2026-05-03T13:14:13Z</time></trkpt><trkpt lat="44.42437562173597" lon="11.613295168098388"><ele>48.33333333333333</ele><time>2026-05-03T13:14:14Z</time></trkpt><trkpt lat="44.42447340943799" lon="11.613024802453067"><ele>48.0</ele><time>2026-05-03T13:14:15Z</time></trkpt><trkpt lat="44.42456591976847" lon="11.612766434353123"><ele>48.33333333333333</ele><time>2026-05-03T13:14:16Z</time></trkpt><trkpt lat="44.424652292945396" lon="11.61251486290575"><ele>48.666666666666664</ele><time>2026-05-03T13:14:17Z</time></trkpt><trkpt lat="44.4247345877502" lon="11.612269686152386"><ele>49.0</ele><time>2026-05-03T13:14:18Z</time></trkpt><trkpt lat="44.424849216838275" lon="11.611972219687708"><ele>49.33333333333333</ele><time>2026-05-03T13:14:19Z</time></trkpt><trkpt lat="44.42492354475001" lon="11.611732344995533"><ele>49.66666666666667</ele><time>2026-05-03T13:14:20Z</time></trkpt><trkpt lat="44.42499581970756" lon="11.611498921480704"><ele>50.0</ele><time>2026-05-03T13:14:21Z</time></trkpt><trkpt lat="44.42506559792306" lon="11.611271793234387"><ele>50.333333333333336</ele><time>2026-05-03T13:14:22Z</time></trkpt><trkpt lat="44.425136854022945" lon="11.611033842601616"><ele>50.66666666666667</ele><time>2026-05-03T13:14:23Z</time></trkpt><trkpt lat="44.42521157919203" lon="11.610788244376232"><ele>51.0</ele><time>2026-05-03T13:14:24Z</time></trkpt><trkpt lat="44.42528414008159" lon="11.610542844230114"><ele>50.66666666666667</ele><time>2026-05-03T13:14:25Z</time></trkpt><trkpt lat="44.425357107079165" lon="11.610284830793569"><ele>50.333333333333336</ele><time>2026-05-03T13:14:26Z</time></trkpt><trkpt lat="44.425429644341335" lon="11.610023726628667"><ele>50.0</ele><time>2026-05-03T13:14:27Z</time></trkpt><trkpt lat="44.42550554140735" lon="11.609759396651032"><ele>49.333333333333336</ele><time>2026-05-03T13:14:28Z</time></trkpt><trkpt lat="44.42558285226328" lon="11.609489444178202"><ele>48.66666666666667</ele><time>2026-05-03T13:14:29Z</time></trkpt><trkpt lat="44.425661413119016" lon="11.609211541845639"><ele>48.0</ele><time>2026-05-03T13:14:30Z</time></trkpt><trkpt lat="44.42573526282587" lon="11.608939393695067"><ele>48.0</ele><time>2026-05-03T13:14:31Z</time></trkpt><trkpt lat="44.42580877786523" lon="11.608669793846829"><ele>48.0</ele><time>2026-05-03T13:14:32Z</time></trkpt><trkpt lat="44.425888891888796" lon="11.608390126460785"><ele>48.0</ele><time>2026-05-03T13:14:33Z</time></trkpt><trkpt lat="44.42596688386297" lon="11.60811887877671"><ele>48.33333333333333</ele><time>2026-05-03T13:14:34Z</time></trkpt><trkpt lat="44.42604219933773" lon="11.607841868470203"><ele>48.666666666666664</ele><time>2026-05-03T13:14:35Z</time></trkpt><trkpt lat="44.426120742141265" lon="11.607562882718023"><ele>49.0</ele><time>2026-05-03T13:14:36Z</time></trkpt><trkpt lat="44.42620548949685" lon="11.607280437173763"><ele>49.33333333333333</ele><time>2026-05-03T13:14:37Z</time></trkpt><trkpt lat="44.42628363900553" lon="11.606998084188527"><ele>49.66666666666667</ele><time>2026-05-03T13:14:38Z</time></trkpt><trkpt lat="44.4263612789023" lon="11.606715964147126"><ele>50.0</ele><time>2026-05-03T13:14:39Z</time></trkpt><trkpt lat="44.426443603359736" lon="11.606438330384249"><ele>49.66666666666667</ele><time>2026-05-03T13:14:40Z</time></trkpt><trkpt lat="44.426527582413065" lon="11.60615664088125"><ele>49.33333333333333</ele><time>2026-05-03T13:14:41Z</time></trkpt><trkpt lat="44.426604214202" lon="11.605867283686397"><ele>49.0</ele><time>2026-05-03T13:14:42Z</time></trkpt><trkpt lat="44.426678667339395" lon="11.605569829311298"><ele>49.0</ele><time>2026-05-03T13:14:43Z</time></trkpt><trkpt lat="44.42675943338972" lon="11.605270831680444"><ele>49.0</ele><time>2026-05-03T13:14:44Z</time></trkpt><trkpt lat="44.42683922952415" lon="11.604961871251351"><ele>49.0</ele><time>2026-05-03T13:14:45Z</time></trkpt><trkpt lat="44.4269271400417" lon="11.604648482702451"><ele>49.0</ele><time>2026-05-03T13:14:46Z</time></trkpt><trkpt lat="44.42702119203173" lon="11.604332712985926"><ele>50.5</ele><time>2026-05-03T13:14:47Z</time></trkpt><trkpt lat="44.42712415075682" lon="11.60401516758284"><ele>52.0</ele><time>2026-05-03T13:14:48Z</time></trkpt><trkpt lat="44.42722517632848" lon="11.60369424370932"><ele>51.0</ele><time>2026-05-03T13:14:49Z</time></trkpt><trkpt lat="44.42731888879919" lon="11.60336496077303"><ele>50.0</ele><time>2026-05-03T13:14:50Z</time></trkpt><trkpt lat="44.427416091579296" lon="11.60303994538535"><ele>50.5</ele><time>2026-05-03T13:14:51Z</time></trkpt><trkpt lat="44.42750989943116" lon="11.602709829031015"><ele>51.0</ele><time>2026-05-03T13:14:52Z</time></trkpt><trkpt lat="44.42760445327521" lon="11.602379659686145"><ele>51.0</ele><time>2026-05-03T13:14:53Z</time></trkpt><trkpt lat="44.42769782778532" lon="11.60204881300639"><ele>51.0</ele><time>2026-05-03T13:14:54Z</time></trkpt><trkpt lat="44.42779040518134" lon="11.601722503183165"><ele>50.5</ele><time>2026-05-03T13:14:55Z</time></trkpt><trkpt lat="44.42788370389445" lon="11.601395561824534"><ele>50.0</ele><time>2026-05-03T13:14:56Z</time></trkpt><trkpt lat="44.42797781581096" lon="11.601069267256287"><ele>50.0</ele><time>2026-05-03T13:14:57Z</time></trkpt><trkpt lat="44.42807046532119" lon="11.600742279687783"><ele>50.0</ele><time>2026-05-03T13:14:58Z</time></trkpt><trkpt lat="44.42816156561873" lon="11.600418769627737"><ele>51.0</ele><time>2026-05-03T13:14:59Z</time></trkpt><trkpt lat="44.42825222431439" lon="11.60009978950157"><ele>52.0</ele><time>2026-05-03T13:15:00Z</time></trkpt><trkpt lat="44.428342952825965" lon="11.59978470483722"><ele>52.5</ele><time>2026-05-03T13:15:01Z</time></trkpt><trkpt lat="44.428432387244285" lon="11.599472973398766"><ele>53.0</ele><time>2026-05-03T13:15:02Z</time></trkpt><trkpt lat="44.42851966356352" lon="11.599172667832722"><ele>53.0</ele><time>2026-05-03T13:15:03Z</time></trkpt><trkpt lat="44.42860782283829" lon="11.59888086388076"><ele>53.0</ele><time>2026-05-03T13:15:04Z</time></trkpt><trkpt lat="44.42869430404661" lon="11.598597747444432"><ele>53.0</ele><time>2026-05-03T13:15:05Z</time></trkpt><trkpt lat="44.428778586759854" lon="11.598329437218252"><ele>52.333333333333336</ele><time>2026-05-03T13:15:06Z</time></trkpt><trkpt lat="44.42886253434266" lon="11.598064782771965"><ele>51.66666666666667</ele><time>2026-05-03T13:15:07Z</time></trkpt><trkpt lat="44.428947573643974" lon="11.59780420391601"><ele>51.0</ele><time>2026-05-03T13:15:08Z</time></trkpt><trkpt lat="44.42903354463572" lon="11.59754790345434"><ele>50.66666666666667</ele><time>2026-05-03T13:15:09Z</time></trkpt><trkpt lat="44.42912569442887" lon="11.597299927360503"><ele>50.333333333333336</ele><time>2026-05-03T13:15:10Z</time></trkpt><trkpt lat="44.4292192672461" lon="11.597055028597248"><ele>50.0</ele><time>2026-05-03T13:15:11Z</time></trkpt><trkpt lat="44.42930813336434" lon="11.59680585099541"><ele>49.66666666666667</ele><time>2026-05-03T13:15:12Z</time></trkpt><trkpt lat="44.429391967047394" lon="11.596550570414026"><ele>49.33333333333333</ele><time>2026-05-03T13:15:13Z</time></trkpt><trkpt lat="44.429471860868844" lon="11.596292319377119"><ele>49.0</ele><time>2026-05-03T13:15:14Z</time></trkpt><trkpt lat="44.42955358533286" lon="11.596038534614939"><ele>49.0</ele><time>2026-05-03T13:15:15Z</time></trkpt><trkpt lat="44.42963580055094" lon="11.595776901787723"><ele>49.0</ele><time>2026-05-03T13:15:16Z</time></trkpt><trkpt lat="44.429720643727926" lon="11.595515445264223"><ele>49.0</ele><time>2026-05-03T13:15:17Z</time></trkpt><trkpt lat="44.42980709400083" lon="11.595258302402192"><ele>49.0</ele><time>2026-05-03T13:15:18Z</time></trkpt><trkpt lat="44.42989413751072" lon="11.594995218593061"><ele>49.0</ele><time>2026-05-03T13:15:19Z</time></trkpt><trkpt lat="44.42998108645249" lon="11.594731857689506"><ele>49.0</ele><time>2026-05-03T13:15:20Z</time></trkpt><trkpt lat="44.43006971071391" lon="11.594463344922637"><ele>49.0</ele><time>2026-05-03T13:15:21Z</time></trkpt><trkpt lat="44.43015944681645" lon="11.594195365182458"><ele>49.0</ele><time>2026-05-03T13:15:22Z</time></trkpt><trkpt lat="44.430250887791615" lon="11.593923688530527"><ele>49.0</ele><time>2026-05-03T13:15:23Z</time></trkpt><trkpt lat="44.43034168426907" lon="11.593649263673505"><ele>49.0</ele><time>2026-05-03T13:15:24Z</time></trkpt><trkpt lat="44.430432709049775" lon="11.593374004520872"><ele>49.0</ele><time>2026-05-03T13:15:25Z</time></trkpt><trkpt lat="44.43052279738344" lon="11.593096738095708"><ele>49.0</ele><time>2026-05-03T13:15:26Z</time></trkpt><trkpt lat="44.4306131442559" lon="11.592818263893113"><ele>49.0</ele><time>2026-05-03T13:15:27Z</time></trkpt><trkpt lat="44.430706238511185" lon="11.592540525282683"><ele>49.0</ele><time>2026-05-03T13:15:28Z</time></trkpt><trkpt lat="44.430798501268725" lon="11.592266525230512"><ele>49.0</ele><time>2026-05-03T13:15:29Z</time></trkpt><trkpt lat="44.43089020813803" lon="11.591989232269302"><ele>49.0</ele><time>2026-05-03T13:15:30Z</time></trkpt><trkpt lat="44.430976999075796" lon="11.591712114510715"><ele>49.0</ele><time>2026-05-03T13:15:31Z</time></trkpt><trkpt lat="44.4310648096349" lon="11.591437446975855"><ele>49.0</ele><time>2026-05-03T13:15:32Z</time></trkpt><trkpt lat="44.43114976554374" lon="11.591162531695907"><ele>48.33333333333333</ele><time>2026-05-03T13:15:33Z</time></trkpt><trkpt lat="44.431236326228415" lon="11.590892551794726"><ele>47.666666666666664</ele><time>2026-05-03T13:15:34Z</time></trkpt><trkpt lat="44.431324870487536" lon="11.590625541736424"><ele>47.0</ele><time>2026-05-03T13:15:35Z</time></trkpt><trkpt lat="44.43141267438404" lon="11.59035803574302"><ele>46.0</ele><time>2026-05-03T13:15:36Z</time></trkpt><trkpt lat="44.43150013152325" lon="11.590094278675611"><ele>45.0</ele><time>2026-05-03T13:15:37Z</time></trkpt><trkpt lat="44.43158717952057" lon="11.589828163947296"><ele>44.0</ele><time>2026-05-03T13:15:38Z</time></trkpt><trkpt lat="44.4316726013535" lon="11.58956577780425"><ele>44.33333333333333</ele><time>2026-05-03T13:15:39Z</time></trkpt><trkpt lat="44.431757242593285" lon="11.589303946569542"><ele>44.666666666666664</ele><time>2026-05-03T13:15:40Z</time></trkpt><trkpt lat="44.43184008522016" lon="11.589050401414672"><ele>45.0</ele><time>2026-05-03T13:15:41Z</time></trkpt><trkpt lat="44.4319177491746" lon="11.588810380777938"><ele>44.666666666666664</ele><time>2026-05-03T13:15:42Z</time></trkpt><trkpt lat="44.431992513826" lon="11.588580713622974"><ele>44.33333333333333</ele><time>2026-05-03T13:15:43Z</time></trkpt><trkpt lat="44.4320633116563" lon="11.5883628084522"><ele>44.0</ele><time>2026-05-03T13:15:44Z</time></trkpt><trkpt lat="44.43212994941358" lon="11.58815465073988"><ele>44.33333333333333</ele><time>2026-05-03T13:15:45Z</time></trkpt><trkpt lat="44.43219736548346" lon="11.587955172191927"><ele>44.666666666666664</ele><time>2026-05-03T13:15:46Z</time></trkpt><trkpt lat="44.43226081438065" lon="11.587760224678352"><ele>45.0</ele><time>2026-05-03T13:15:47Z</time></trkpt><trkpt lat="44.43231903708965" lon="11.587579860172005"><ele>45.0</ele><time>2026-05-03T13:15:48Z</time></trkpt><trkpt lat="44.432378933535645" lon="11.587405465237344"><ele>45.0</ele><time>2026-05-03T13:15:49Z</time></trkpt><trkpt lat="44.43243607473323" lon="11.587229761417827"><ele>45.0</ele><time>2026-05-03T13:15:50Z</time></trkpt><trkpt lat="44.432491958031015" lon="11.587061340990871"><ele>45.0</ele><time>2026-05-03T13:15:51Z</time></trkpt><trkpt lat="44.432545826871475" lon="11.586899037144397"><ele>44.5</ele><time>2026-05-03T13:15:52Z</time></trkpt><trkpt lat="44.432596047376464" lon="11.586748480775437"><ele>44.0</ele><time>2026-05-03T13:15:53Z</time></trkpt><trkpt lat="44.43264309224038" lon="11.586602194332585"><ele>43.5</ele><time>2026-05-03T13:15:54Z</time></trkpt><trkpt lat="44.432690109840536" lon="11.58645335680376"><ele>43.0</ele><time>2026-05-03T13:15:55Z</time></trkpt><trkpt lat="44.432742515243" lon="11.586301449611414"><ele>43.25</ele><time>2026-05-03T13:15:56Z</time></trkpt><trkpt lat="44.43279052458172" lon="11.586152812212699"><ele>43.5</ele><time>2026-05-03T13:15:57Z</time></trkpt><trkpt lat="44.432835599854194" lon="11.586011340222173"><ele>43.75</ele><time>2026-05-03T13:15:58Z</time></trkpt><trkpt lat="44.4328809034758" lon="11.585870863298839"><ele>44.0</ele><time>2026-05-03T13:15:59Z</time></trkpt><trkpt lat="44.43292757320686" lon="11.585725415909566"><ele>44.0</ele><time>2026-05-03T13:16:00Z</time></trkpt><trkpt lat="44.432975729276464" lon="11.585578889770852"><ele>44.0</ele><time>2026-05-03T13:16:01Z</time></trkpt><trkpt lat="44.43302296598882" lon="11.585428184022463"><ele>44.0</ele><time>2026-05-03T13:16:02Z</time></trkpt><trkpt lat="44.433073880723825" lon="11.585272899149972"><ele>44.0</ele><time>2026-05-03T13:16:03Z</time></trkpt><trkpt lat="44.43312698228924" lon="11.585113906647594"><ele>44.0</ele><time>2026-05-03T13:16:04Z</time></trkpt><trkpt lat="44.43317867998044" lon="11.58495374003271"><ele>44.0</ele><time>2026-05-03T13:16:05Z</time></trkpt><trkpt lat="44.433232934952464" lon="11.584800867823452"><ele>44.0</ele><time>2026-05-03T13:16:06Z</time></trkpt><trkpt lat="44.43328233953558" lon="11.584651446304202"><ele>44.0</ele><time>2026-05-03T13:16:07Z</time></trkpt><trkpt lat="44.43332802178143" lon="11.584500195371618"><ele>44.0</ele><time>2026-05-03T13:16:08Z</time></trkpt><trkpt lat="44.433376900171815" lon="11.58435375194955"><ele>44.0</ele><time>2026-05-03T13:16:09Z</time></trkpt><trkpt lat="44.4334212827576" lon="11.584221959183456"><ele>44.0</ele><time>2026-05-03T13:16:10Z</time></trkpt><trkpt lat="44.433465368873414" lon="11.58409889533868"><ele>44.0</ele><time>2026-05-03T13:16:11Z</time></trkpt><trkpt lat="44.4335058201009" lon="11.583980610655418"><ele>44.0</ele><time>2026-05-03T13:16:12Z</time></trkpt><trkpt lat="44.4335437014301" lon="11.583865805608689"><ele>44.0</ele><time>2026-05-03T13:16:13Z</time></trkpt><trkpt lat="44.43358275309637" lon="11.583745630185499"><ele>44.0</ele><time>2026-05-03T13:16:14Z</time></trkpt><trkpt lat="44.43362228859131" lon="11.583618838627112"><ele>44.0</ele><time>2026-05-03T13:16:15Z</time></trkpt><trkpt lat="44.43366771222499" lon="11.583479832192056"><ele>44.0</ele><time>2026-05-03T13:16:16Z</time></trkpt><trkpt lat="44.4337190265607" lon="11.583329697645746"><ele>44.0</ele><time>2026-05-03T13:16:17Z</time></trkpt><trkpt lat="44.43377124846248" lon="11.583162482738109"><ele>43.75</ele><time>2026-05-03T13:16:18Z</time></trkpt><trkpt lat="44.43382520300371" lon="11.582994063934049"><ele>43.5</ele><time>2026-05-03T13:16:19Z</time></trkpt><trkpt lat="44.433885151122865" lon="11.582811044935548"><ele>43.25</ele><time>2026-05-03T13:16:20Z</time></trkpt><trkpt lat="44.43394795425661" lon="11.582620168246741"><ele>43.0</ele><time>2026-05-03T13:16:21Z</time></trkpt><trkpt lat="44.43401104673879" lon="11.582424709294607"><ele>43.0</ele><time>2026-05-03T13:16:22Z</time></trkpt><trkpt lat="44.43407305400865" lon="11.582231973729366"><ele>43.0</ele><time>2026-05-03T13:16:23Z</time></trkpt><trkpt lat="44.434136229044384" lon="11.582042862356902"><ele>43.0</ele><time>2026-05-03T13:16:24Z</time></trkpt><trkpt lat="44.43419906918727" lon="11.581856790050352"><ele>43.0</ele><time>2026-05-03T13:16:25Z</time></trkpt><trkpt lat="44.434263412792035" lon="11.581668445376959"><ele>43.0</ele><time>2026-05-03T13:16:26Z</time></trkpt><trkpt lat="44.43432761887205" lon="11.581470665145181"><ele>43.0</ele><time>2026-05-03T13:16:27Z</time></trkpt><trkpt lat="44.43438610763336" lon="11.58128222483566"><ele>43.0</ele><time>2026-05-03T13:16:28Z</time></trkpt><trkpt lat="44.43444241390895" lon="11.581102140716057"><ele>43.0</ele><time>2026-05-03T13:16:29Z</time></trkpt><trkpt lat="44.4345020997601" lon="11.580921405728116"><ele>43.0</ele><time>2026-05-03T13:16:30Z</time></trkpt><trkpt lat="44.43456475977766" lon="11.580733762604483"><ele>43.0</ele><time>2026-05-03T13:16:31Z</time></trkpt><trkpt lat="44.43462699313" lon="11.580539583304919"><ele>43.0</ele><time>2026-05-03T13:16:32Z</time></trkpt><trkpt lat="44.434692923515776" lon="11.580340812776072"><ele>43.0</ele><time>2026-05-03T13:16:33Z</time></trkpt><trkpt lat="44.43475764741071" lon="11.580146868014124"><ele>43.0</ele><time>2026-05-03T13:16:34Z</time></trkpt><trkpt lat="44.43481942973874" lon="11.579961563663275"><ele>43.0</ele><time>2026-05-03T13:16:35Z</time></trkpt><trkpt lat="44.43488179540265" lon="11.579777511795733"><ele>43.0</ele><time>2026-05-03T13:16:36Z</time></trkpt><trkpt lat="44.4349528391791" lon="11.579574995899105"><ele>42.66666666666667</ele><time>2026-05-03T13:16:37Z</time></trkpt><trkpt lat="44.435028320718125" lon="11.579334866253237"><ele>42.333333333333336</ele><time>2026-05-03T13:16:38Z</time></trkpt><trkpt lat="44.43511244313965" lon="11.579063796643116"><ele>42.0</ele><time>2026-05-03T13:16:39Z</time></trkpt><trkpt lat="44.435204095691454" lon="11.5787865005507"><ele>42.0</ele><time>2026-05-03T13:16:40Z</time></trkpt><trkpt lat="44.4352956746425" lon="11.578504056816131"><ele>42.0</ele><time>2026-05-03T13:16:41Z</time></trkpt><trkpt lat="44.43538634448917" lon="11.578223445971101"><ele>42.0</ele><time>2026-05-03T13:16:42Z</time></trkpt><trkpt lat="44.43547859964518" lon="11.577941767409232"><ele>41.666666666666664</ele><time>2026-05-03T13:16:43Z</time></trkpt><trkpt lat="44.43557294545906" lon="11.577658185497523"><ele>41.33333333333333</ele><time>2026-05-03T13:16:44Z</time></trkpt><trkpt lat="44.43566696559371" lon="11.577374589224497"><ele>41.0</ele><time>2026-05-03T13:16:45Z</time></trkpt><trkpt lat="44.43575976171776" lon="11.577089378250832"><ele>41.33333333333333</ele><time>2026-05-03T13:16:46Z</time></trkpt><trkpt lat="44.435851862484355" lon="11.576808566748314"><ele>41.666666666666664</ele><time>2026-05-03T13:16:47Z</time></trkpt><trkpt lat="44.43594412626818" lon="11.576530239938712"><ele>42.0</ele><time>2026-05-03T13:16:48Z</time></trkpt><trkpt lat="44.436034870068546" lon="11.576253378461036"><ele>41.666666666666664</ele><time>2026-05-03T13:16:49Z</time></trkpt><trkpt lat="44.43612484347626" lon="11.575978843159774"><ele>41.33333333333333</ele><time>2026-05-03T13:16:50Z</time></trkpt><trkpt lat="44.43621020360449" lon="11.575717340752512"><ele>41.0</ele><time>2026-05-03T13:16:51Z</time></trkpt><trkpt lat="44.43628901091257" lon="11.575479941834557"><ele>41.0</ele><time>2026-05-03T13:16:52Z</time></trkpt><trkpt lat="44.43637191880899" lon="11.575238419477072"><ele>41.0</ele><time>2026-05-03T13:16:53Z</time></trkpt><trkpt lat="44.436449628194616" lon="11.574998951190945"><ele>41.0</ele><time>2026-05-03T13:16:54Z</time></trkpt><trkpt lat="44.43652769656591" lon="11.574757805379265"><ele>41.33333333333333</ele><time>2026-05-03T13:16:55Z</time></trkpt><trkpt lat="44.43660548607152" lon="11.574518015562115"><ele>41.666666666666664</ele><time>2026-05-03T13:16:56Z</time></trkpt><trkpt lat="44.43668433981359" lon="11.574276991656163"><ele>42.0</ele><time>2026-05-03T13:16:57Z</time></trkpt><trkpt lat="44.43676356996645" lon="11.574032537110654"><ele>42.0</ele><time>2026-05-03T13:16:58Z</time></trkpt><trkpt lat="44.436844212183" lon="11.573787353169749"><ele>42.0</ele><time>2026-05-03T13:16:59Z</time></trkpt><trkpt lat="44.43692604588442" lon="11.57354132915099"><ele>42.0</ele><time>2026-05-03T13:17:00Z</time></trkpt><trkpt lat="44.43700648214094" lon="11.573293201671294"><ele>42.0</ele><time>2026-05-03T13:17:01Z</time></trkpt><trkpt lat="44.43708647706233" lon="11.573050599078973"><ele>42.0</ele><time>2026-05-03T13:17:02Z</time></trkpt><trkpt lat="44.43716630824157" lon="11.57280712653865"><ele>42.0</ele><time>2026-05-03T13:17:03Z</time></trkpt><trkpt lat="44.43724616508956" lon="11.57256534558431"><ele>41.666666666666664</ele><time>2026-05-03T13:17:04Z</time></trkpt><trkpt lat="44.43732490320503" lon="11.57232318328233"><ele>41.33333333333333</ele><time>2026-05-03T13:17:05Z</time></trkpt><trkpt lat="44.43740181984873" lon="11.572082610862319"><ele>41.0</ele><time>2026-05-03T13:17:06Z</time></trkpt><trkpt lat="44.43747833110423" lon="11.571840778772822"><ele>41.0</ele><time>2026-05-03T13:17:07Z</time></trkpt><trkpt lat="44.437557474881764" lon="11.571602813208097"><ele>41.0</ele><time>2026-05-03T13:17:08Z</time></trkpt><trkpt lat="44.437636619935205" lon="11.571365454081889"><ele>41.0</ele><time>2026-05-03T13:17:09Z</time></trkpt><trkpt lat="44.437714414007644" lon="11.571129142767662"><ele>41.666666666666664</ele><time>2026-05-03T13:17:10Z</time></trkpt><trkpt lat="44.43779275965128" lon="11.570889968454756"><ele>42.333333333333336</ele><time>2026-05-03T13:17:11Z</time></trkpt><trkpt lat="44.437871509638896" lon="11.570650432071435"><ele>43.0</ele><time>2026-05-03T13:17:12Z</time></trkpt><trkpt lat="44.43794993280872" lon="11.570413005918326"><ele>42.333333333333336</ele><time>2026-05-03T13:17:13Z</time></trkpt><trkpt lat="44.438029082712774" lon="11.570173768263167"><ele>41.666666666666664</ele><time>2026-05-03T13:17:14Z</time></trkpt><trkpt lat="44.43810857148385" lon="11.569934212417568"><ele>41.0</ele><time>2026-05-03T13:17:15Z</time></trkpt><trkpt lat="44.43818692231476" lon="11.569694013730645"><ele>41.0</ele><time>2026-05-03T13:17:16Z</time></trkpt><trkpt lat="44.438266263868485" lon="11.569450321417522"><ele>41.0</ele><time>2026-05-03T13:17:17Z</time></trkpt><trkpt lat="44.4383456990812" lon="11.569205381362107"><ele>41.0</ele><time>2026-05-03T13:17:18Z</time></trkpt><trkpt lat="44.43842548957329" lon="11.568961567652076"><ele>41.0</ele><time>2026-05-03T13:17:19Z</time></trkpt><trkpt lat="44.43850658111479" lon="11.568713837467058"><ele>41.0</ele><time>2026-05-03T13:17:20Z</time></trkpt><trkpt lat="44.438589312851505" lon="11.56845831622552"><ele>41.0</ele><time>2026-05-03T13:17:21Z</time></trkpt><trkpt lat="44.43867329716777" lon="11.568200345216596"><ele>41.0</ele><time>2026-05-03T13:17:22Z</time></trkpt><trkpt lat="44.438759785938196" lon="11.567937245842334"><ele>41.0</ele><time>2026-05-03T13:17:23Z</time></trkpt><trkpt lat="44.43884692171609" lon="11.56767327632795"><ele>41.0</ele><time>2026-05-03T13:17:24Z</time></trkpt><trkpt lat="44.4389359147267" lon="11.567407471784568"><ele>41.0</ele><time>2026-05-03T13:17:25Z</time></trkpt><trkpt lat="44.43902413160937" lon="11.567148039756319"><ele>41.0</ele><time>2026-05-03T13:17:26Z</time></trkpt><trkpt lat="44.43911116225699" lon="11.566895144547516"><ele>41.0</ele><time>2026-05-03T13:17:27Z</time></trkpt><trkpt lat="44.43919703884999" lon="11.566652292356661"><ele>41.0</ele><time>2026-05-03T13:17:28Z</time></trkpt><trkpt lat="44.439282312000095" lon="11.566417647325661"><ele>41.0</ele><time>2026-05-03T13:17:29Z</time></trkpt><trkpt lat="44.43937472325338" lon="11.566174026754044"><ele>41.0</ele><time>2026-05-03T13:17:30Z</time></trkpt><trkpt lat="44.43947642350191" lon="11.565898967967527"><ele>40.666666666666664</ele><time>2026-05-03T13:17:31Z</time></trkpt><trkpt lat="44.4395685632883" lon="11.565652904644734"><ele>40.333333333333336</ele><time>2026-05-03T13:17:32Z</time></trkpt><trkpt lat="44.43966156253452" lon="11.565405153352181"><ele>40.0</ele><time>2026-05-03T13:17:33Z</time></trkpt><trkpt lat="44.439754274204915" lon="11.565158546952906"><ele>39.66666666666667</ele><time>2026-05-03T13:17:34Z</time></trkpt><trkpt lat="44.439853203668775" lon="11.56490838432455"><ele>39.333333333333336</ele><time>2026-05-03T13:17:35Z</time></trkpt><trkpt lat="44.439957694206335" lon="11.564667186645675"><ele>39.0</ele><time>2026-05-03T13:17:36Z</time></trkpt><trkpt lat="44.44005960462014" lon="11.564418783044113"><ele>39.666666666666664</ele><time>2026-05-03T13:17:37Z</time></trkpt><trkpt lat="44.440167845782625" lon="11.564172318089328"><ele>40.33333333333333</ele><time>2026-05-03T13:17:38Z</time></trkpt><trkpt lat="44.440277553915514" lon="11.563920353885"><ele>41.0</ele><time>2026-05-03T13:17:39Z</time></trkpt><trkpt lat="44.44038948574108" lon="11.563667156766142"><ele>42.33333333333333</ele><time>2026-05-03T13:17:40Z</time></trkpt><trkpt lat="44.44049708410285" lon="11.563417165975856"><ele>43.666666666666664</ele><time>2026-05-03T13:17:41Z</time></trkpt><trkpt lat="44.44061248088327" lon="11.563172085686112"><ele>45.0</ele><time>2026-05-03T13:17:42Z</time></trkpt><trkpt lat="44.44072977171641" lon="11.562919143856277"><ele>44.0</ele><time>2026-05-03T13:17:43Z</time></trkpt><trkpt lat="44.44084724145357" lon="11.56266882947781"><ele>43.0</ele><time>2026-05-03T13:17:44Z</time></trkpt><trkpt lat="44.44096701229314" lon="11.56240959173408"><ele>42.0</ele><time>2026-05-03T13:17:45Z</time></trkpt><trkpt lat="44.441085292781516" lon="11.562157649585737"><ele>42.0</ele><time>2026-05-03T13:17:46Z</time></trkpt><trkpt lat="44.4412037391221" lon="11.56190983853124"><ele>42.0</ele><time>2026-05-03T13:17:47Z</time></trkpt><trkpt lat="44.44131879271025" lon="11.56165629665854"><ele>42.0</ele><time>2026-05-03T13:17:48Z</time></trkpt><trkpt lat="44.44143550061231" lon="11.56141149567239"><ele>41.666666666666664</ele><time>2026-05-03T13:17:49Z</time></trkpt><trkpt lat="44.44155820313228" lon="11.561157725186602"><ele>41.33333333333333</ele><time>2026-05-03T13:17:50Z</time></trkpt><trkpt lat="44.44167992977231" lon="11.560903207611622"><ele>41.0</ele><time>2026-05-03T13:17:51Z</time></trkpt><trkpt lat="44.4417981613815" lon="11.560649679672558"><ele>41.0</ele><time>2026-05-03T13:17:52Z</time></trkpt><trkpt lat="44.44191764464944" lon="11.56039212306684"><ele>41.0</ele><time>2026-05-03T13:17:53Z</time></trkpt><trkpt lat="44.44204096937027" lon="11.560141192857042"><ele>41.0</ele><time>2026-05-03T13:17:54Z</time></trkpt><trkpt lat="44.442165609337344" lon="11.559875510017283"><ele>40.666666666666664</ele><time>2026-05-03T13:17:55Z</time></trkpt><trkpt lat="44.442288688030004" lon="11.559612243175716"><ele>40.333333333333336</ele><time>2026-05-03T13:17:56Z</time></trkpt><trkpt lat="44.442410624195446" lon="11.559352891485856"><ele>40.0</ele><time>2026-05-03T13:17:57Z</time></trkpt><trkpt lat="44.44253587019003" lon="11.559093415251278"><ele>40.0</ele><time>2026-05-03T13:17:58Z</time></trkpt><trkpt lat="44.44265913015442" lon="11.558830137113238"><ele>40.0</ele><time>2026-05-03T13:17:59Z</time></trkpt><trkpt lat="44.44278160298475" lon="11.55856792729247"><ele>40.0</ele><time>2026-05-03T13:18:00Z</time></trkpt><trkpt lat="44.44290412045597" lon="11.55830031860383"><ele>40.0</ele><time>2026-05-03T13:18:01Z</time></trkpt><trkpt lat="44.44302956112662" lon="11.558032613452676"><ele>40.0</ele><time>2026-05-03T13:18:02Z</time></trkpt><trkpt lat="44.44316119847763" lon="11.557762712261127"><ele>41.0</ele><time>2026-05-03T13:18:03Z</time></trkpt><trkpt lat="44.443287451593086" lon="11.557493562731159"><ele>42.0</ele><time>2026-05-03T13:18:04Z</time></trkpt><trkpt lat="44.44341705076203" lon="11.557223594456744"><ele>41.5</ele><time>2026-05-03T13:18:05Z</time></trkpt><trkpt lat="44.44354390342036" lon="11.556951408797728"><ele>41.0</ele><time>2026-05-03T13:18:06Z</time></trkpt><trkpt lat="44.443669001451255" lon="11.556678118673544"><ele>41.0</ele><time>2026-05-03T13:18:07Z</time></trkpt><trkpt lat="44.44379489221379" lon="11.556402878215962"><ele>41.0</ele><time>2026-05-03T13:18:08Z</time></trkpt><trkpt lat="44.443926107726796" lon="11.556129429747378"><ele>40.5</ele><time>2026-05-03T13:18:09Z</time></trkpt><trkpt lat="44.444054421968865" lon="11.555856980474987"><ele>40.0</ele><time>2026-05-03T13:18:10Z</time></trkpt><trkpt lat="44.44418375790811" lon="11.555584871728273"><ele>40.5</ele><time>2026-05-03T13:18:11Z</time></trkpt><trkpt lat="44.44431230219206" lon="11.555316894932798"><ele>41.0</ele><time>2026-05-03T13:18:12Z</time></trkpt><trkpt lat="44.444438600380884" lon="11.555048866851024"><ele>41.0</ele><time>2026-05-03T13:18:13Z</time></trkpt><trkpt lat="44.44456375344005" lon="11.554781228826036"><ele>41.0</ele><time>2026-05-03T13:18:14Z</time></trkpt><trkpt lat="44.44468836375405" lon="11.554513779257645"><ele>40.0</ele><time>2026-05-03T13:18:15Z</time></trkpt><trkpt lat="44.44481171905008" lon="11.554247746393205"><ele>39.0</ele><time>2026-05-03T13:18:16Z</time></trkpt><trkpt lat="44.44493691076196" lon="11.553982028168214"><ele>39.0</ele><time>2026-05-03T13:18:17Z</time></trkpt><trkpt lat="44.44506024407159" lon="11.553715019393689"><ele>39.0</ele><time>2026-05-03T13:18:18Z</time></trkpt><trkpt lat="44.44518519949574" lon="11.553449299653877"><ele>38.0</ele><time>2026-05-03T13:18:19Z</time></trkpt><trkpt lat="44.44531097763999" lon="11.553184835200145"><ele>37.0</ele><time>2026-05-03T13:18:20Z</time></trkpt><trkpt lat="44.44543585845303" lon="11.552922085580096"><ele>37.5</ele><time>2026-05-03T13:18:21Z</time></trkpt><trkpt lat="44.445555938188434" lon="11.552656990902062"><ele>38.0</ele><time>2026-05-03T13:18:22Z</time></trkpt><trkpt lat="44.44568062277673" lon="11.552392594105116"><ele>38.0</ele><time>2026-05-03T13:18:23Z</time></trkpt><trkpt lat="44.445800861756396" lon="11.552126024392324"><ele>38.0</ele><time>2026-05-03T13:18:24Z</time></trkpt><trkpt lat="44.44591877644213" lon="11.55186094595839"><ele>38.0</ele><time>2026-05-03T13:18:25Z</time></trkpt><trkpt lat="44.446038354278386" lon="11.551597219705945"><ele>37.666666666666664</ele><time>2026-05-03T13:18:26Z</time></trkpt><trkpt lat="44.44615783864554" lon="11.551337710390499"><ele>37.333333333333336</ele><time>2026-05-03T13:18:27Z</time></trkpt><trkpt lat="44.44627795257138" lon="11.551080957354165"><ele>37.0</ele><time>2026-05-03T13:18:28Z</time></trkpt><trkpt lat="44.44640041953463" lon="11.550826419272017"><ele>37.333333333333336</ele><time>2026-05-03T13:18:29Z</time></trkpt><trkpt lat="44.446521610306206" lon="11.550572950149364"><ele>37.666666666666664</ele><time>2026-05-03T13:18:30Z</time></trkpt><trkpt lat="44.44664199672614" lon="11.550317109976298"><ele>38.0</ele><time>2026-05-03T13:18:31Z</time></trkpt><trkpt lat="44.44676133640796" lon="11.550062259566584"><ele>38.0</ele><time>2026-05-03T13:18:32Z</time></trkpt><trkpt lat="44.44688119161838" lon="11.549809370381347"><ele>38.0</ele><time>2026-05-03T13:18:33Z</time></trkpt><trkpt lat="44.4469993884291" lon="11.54956089175811"><ele>38.0</ele><time>2026-05-03T13:18:34Z</time></trkpt><trkpt lat="44.44711585806028" lon="11.549313977629799"><ele>37.666666666666664</ele><time>2026-05-03T13:18:35Z</time></trkpt><trkpt lat="44.447227262739545" lon="11.549072406792826"><ele>37.333333333333336</ele><time>2026-05-03T13:18:36Z</time></trkpt><trkpt lat="44.44733813455224" lon="11.54883193144419"><ele>37.0</ele><time>2026-05-03T13:18:37Z</time></trkpt><trkpt lat="44.44744738124044" lon="11.548594566755131"><ele>36.66666666666667</ele><time>2026-05-03T13:18:38Z</time></trkpt><trkpt lat="44.44755856220628" lon="11.548359269074547"><ele>36.333333333333336</ele><time>2026-05-03T13:18:39Z</time></trkpt><trkpt lat="44.44767132800346" lon="11.548128780453546"><ele>36.0</ele><time>2026-05-03T13:18:40Z</time></trkpt><trkpt lat="44.44778447345096" lon="11.547898424151855"><ele>36.333333333333336</ele><time>2026-05-03T13:18:41Z</time></trkpt><trkpt lat="44.44789837804946" lon="11.547662449927541"><ele>36.66666666666667</ele><time>2026-05-03T13:18:42Z</time></trkpt><trkpt lat="44.448012789918636" lon="11.547425995266735"><ele>37.0</ele><time>2026-05-03T13:18:43Z</time></trkpt><trkpt lat="44.448130622302635" lon="11.547184790042921"><ele>37.66666666666667</ele><time>2026-05-03T13:18:44Z</time></trkpt><trkpt lat="44.448250329653774" lon="11.546943990585921"><ele>38.333333333333336</ele><time>2026-05-03T13:18:45Z</time></trkpt><trkpt lat="44.448368440357996" lon="11.546697246788275"><ele>39.0</ele><time>2026-05-03T13:18:46Z</time></trkpt><trkpt lat="44.44848560793752" lon="11.546446094919045"><ele>39.0</ele><time>2026-05-03T13:18:47Z</time></trkpt><trkpt lat="44.448604242910285" lon="11.546190006596724"><ele>39.0</ele><time>2026-05-03T13:18:48Z</time></trkpt><trkpt lat="44.448724678965995" lon="11.545929794563051"><ele>39.0</ele><time>2026-05-03T13:18:49Z</time></trkpt><trkpt lat="44.44884815004952" lon="11.545664686277622"><ele>39.0</ele><time>2026-05-03T13:18:50Z</time></trkpt><trkpt lat="44.44897618747564" lon="11.545393503629464"><ele>39.0</ele><time>2026-05-03T13:18:51Z</time></trkpt><trkpt lat="44.449103350984764" lon="11.545122899002788"><ele>41.0</ele><time>2026-05-03T13:18:52Z</time></trkpt><trkpt lat="44.449232093844216" lon="11.544850289195661"><ele>43.0</ele><time>2026-05-03T13:18:53Z</time></trkpt><trkpt lat="44.449363027048314" lon="11.544574001276073"><ele>42.5</ele><time>2026-05-03T13:18:54Z</time></trkpt><trkpt lat="44.449491662996884" lon="11.544298891656728"><ele>42.0</ele><time>2026-05-03T13:18:54.999Z</time></trkpt><trkpt lat="44.449624232398065" lon="11.544025005125986"><ele>40.5</ele><time>2026-05-03T13:18:55.999Z</time></trkpt><trkpt lat="44.44975597754477" lon="11.543743711494509"><ele>39.0</ele><time>2026-05-03T13:18:56.999Z</time></trkpt><trkpt lat="44.44988619975962" lon="11.543461481146714"><ele>39.0</ele><time>2026-05-03T13:18:57.999Z</time></trkpt><trkpt lat="44.450023133033504" lon="11.543170561274975"><ele>39.0</ele><time>2026-05-03T13:18:59Z</time></trkpt><trkpt lat="44.45016134068932" lon="11.542875422581709"><ele>38.5</ele><time>2026-05-03T13:19:00Z</time></trkpt><trkpt lat="44.45030359580269" lon="11.542573176636939"><ele>38.0</ele><time>2026-05-03T13:19:01Z</time></trkpt><trkpt lat="44.45044780935639" lon="11.542264688050365"><ele>39.0</ele><time>2026-05-03T13:19:02Z</time></trkpt><trkpt lat="44.45059477465855" lon="11.541946530461844"><ele>40.0</ele><time>2026-05-03T13:19:03Z</time></trkpt><trkpt lat="44.45074136365715" lon="11.541616712507997"><ele>40.0</ele><time>2026-05-03T13:19:04Z</time></trkpt><trkpt lat="44.45088882891144" lon="11.541285534587091"><ele>40.0</ele><time>2026-05-03T13:19:05Z</time></trkpt><trkpt lat="44.451041296769866" lon="11.54095300088"><ele>40.5</ele><time>2026-05-03T13:19:06Z</time></trkpt><trkpt lat="44.451198767007824" lon="11.540617390554713"><ele>41.0</ele><time>2026-05-03T13:19:07Z</time></trkpt><trkpt lat="44.451357308688436" lon="11.540282328695405"><ele>41.0</ele><time>2026-05-03T13:19:08Z</time></trkpt><trkpt lat="44.45151367371033" lon="11.539945717016098"><ele>41.0</ele><time>2026-05-03T13:19:09Z</time></trkpt><trkpt lat="44.45166727680479" lon="11.53961534206032"><ele>41.0</ele><time>2026-05-03T13:19:10Z</time></trkpt><trkpt lat="44.451820121749876" lon="11.539284671097992"><ele>41.0</ele><time>2026-05-03T13:19:11Z</time></trkpt><trkpt lat="44.45197240246687" lon="11.538959655219161"><ele>40.5</ele><time>2026-05-03T13:19:12Z</time></trkpt><trkpt lat="44.45212363227768" lon="11.538638553043926"><ele>40.0</ele><time>2026-05-03T13:19:13Z</time></trkpt><trkpt lat="44.4522735784008" lon="11.538321660973478"><ele>40.0</ele><time>2026-05-03T13:19:14Z</time></trkpt><trkpt lat="44.452421135860725" lon="11.538008646389276"><ele>40.0</ele><time>2026-05-03T13:19:15Z</time></trkpt><trkpt lat="44.452568092221526" lon="11.537691652971645"><ele>40.5</ele><time>2026-05-03T13:19:16Z</time></trkpt><trkpt lat="44.452713439553904" lon="11.537371603311648"><ele>41.0</ele><time>2026-05-03T13:19:17Z</time></trkpt><trkpt lat="44.45285391923361" lon="11.537048325560747"><ele>42.0</ele><time>2026-05-03T13:19:18Z</time></trkpt><trkpt lat="44.4529895225202" lon="11.536716668270225"><ele>43.0</ele><time>2026-05-03T13:19:19Z</time></trkpt><trkpt lat="44.45311869643036" lon="11.536382427832317"><ele>43.5</ele><time>2026-05-03T13:19:20Z</time></trkpt><trkpt lat="44.45324535311615" lon="11.536049817424677"><ele>44.0</ele><time>2026-05-03T13:19:21Z</time></trkpt><trkpt lat="44.453368976603905" lon="11.535718918639944"><ele>43.5</ele><time>2026-05-03T13:19:22Z</time></trkpt><trkpt lat="44.45348644056135" lon="11.53538669786149"><ele>43.0</ele><time>2026-05-03T13:19:23Z</time></trkpt><trkpt lat="44.453595032284724" lon="11.535052912698063"><ele>43.0</ele><time>2026-05-03T13:19:24Z</time></trkpt><trkpt lat="44.45369792846811" lon="11.534715276278966"><ele>43.0</ele><time>2026-05-03T13:19:25Z</time></trkpt><trkpt lat="44.453794408274426" lon="11.534386070694737"><ele>42.5</ele><time>2026-05-03T13:19:26Z</time></trkpt><trkpt lat="44.453884963472866" lon="11.534071674189331"><ele>42.0</ele><time>2026-05-03T13:19:27Z</time></trkpt><trkpt lat="44.453969865113216" lon="11.533772947321651"><ele>42.0</ele><time>2026-05-03T13:19:28Z</time></trkpt><trkpt lat="44.454050825038784" lon="11.533476734123091"><ele>42.0</ele><time>2026-05-03T13:19:29Z</time></trkpt><trkpt lat="44.454130657704646" lon="11.533173913108431"><ele>41.0</ele><time>2026-05-03T13:19:30Z</time></trkpt><trkpt lat="44.45420919259405" lon="11.532863433034024"><ele>40.0</ele><time>2026-05-03T13:19:31Z</time></trkpt><trkpt lat="44.454285563726444" lon="11.532548865174093"><ele>40.0</ele><time>2026-05-03T13:19:32Z</time></trkpt><trkpt lat="44.45436099034363" lon="11.532228242363855"><ele>40.0</ele><time>2026-05-03T13:19:33Z</time></trkpt><trkpt lat="44.45443402636656" lon="11.531904475281472"><ele>39.5</ele><time>2026-05-03T13:19:34Z</time></trkpt><trkpt lat="44.4545040771466" lon="11.531581034435733"><ele>39.0</ele><time>2026-05-03T13:19:35Z</time></trkpt><trkpt lat="44.45457126121454" lon="11.531269014166066"><ele>39.0</ele><time>2026-05-03T13:19:36Z</time></trkpt><trkpt lat="44.454637991162" lon="11.530960627492323"><ele>39.0</ele><time>2026-05-03T13:19:37Z</time></trkpt><trkpt lat="44.45470753043573" lon="11.530647052734217"><ele>40.0</ele><time>2026-05-03T13:19:38Z</time></trkpt><trkpt lat="44.45478096969482" lon="11.530333332795333"><ele>41.0</ele><time>2026-05-03T13:19:39Z</time></trkpt><trkpt lat="44.45485672576592" lon="11.530019269290085"><ele>41.0</ele><time>2026-05-03T13:19:40Z</time></trkpt><trkpt lat="44.454931964541096" lon="11.529702440359964"><ele>41.0</ele><time>2026-05-03T13:19:41Z</time></trkpt><trkpt lat="44.45500688523783" lon="11.52938652726128"><ele>41.0</ele><time>2026-05-03T13:19:42Z</time></trkpt><trkpt lat="44.45507894929583" lon="11.529070327711345"><ele>41.0</ele><time>2026-05-03T13:19:43Z</time></trkpt><trkpt lat="44.455151032970974" lon="11.528756361946543"><ele>40.5</ele><time>2026-05-03T13:19:44Z</time></trkpt><trkpt lat="44.45522042623095" lon="11.528440902534358"><ele>40.0</ele><time>2026-05-03T13:19:45Z</time></trkpt><trkpt lat="44.45529189275591" lon="11.528124023729134"><ele>40.0</ele><time>2026-05-03T13:19:46Z</time></trkpt><trkpt lat="44.45536383379509" lon="11.527808837251142"><ele>40.0</ele><time>2026-05-03T13:19:47Z</time></trkpt><trkpt lat="44.45543627652788" lon="11.527489343160006"><ele>39.5</ele><time>2026-05-03T13:19:48Z</time></trkpt><trkpt lat="44.45550944191117" lon="11.527164685967238"><ele>39.0</ele><time>2026-05-03T13:19:49Z</time></trkpt><trkpt lat="44.45558489721088" lon="11.526841284928196"><ele>40.0</ele><time>2026-05-03T13:19:50Z</time></trkpt><trkpt lat="44.455659728947694" lon="11.526515485689902"><ele>41.0</ele><time>2026-05-03T13:19:51Z</time></trkpt><trkpt lat="44.4557358042378" lon="11.526189697082396"><ele>41.5</ele><time>2026-05-03T13:19:52Z</time></trkpt><trkpt lat="44.455811922267316" lon="11.525860803315304"><ele>42.0</ele><time>2026-05-03T13:19:53Z</time></trkpt><trkpt lat="44.45588960907223" lon="11.525525620862222"><ele>42.0</ele><time>2026-05-03T13:19:54Z</time></trkpt><trkpt lat="44.45596815428819" lon="11.525191123851663"><ele>42.0</ele><time>2026-05-03T13:19:55Z</time></trkpt><trkpt lat="44.45604523093399" lon="11.524860169255078"><ele>41.5</ele><time>2026-05-03T13:19:56Z</time></trkpt><trkpt lat="44.45612200578435" lon="11.524521538216854"><ele>41.0</ele><time>2026-05-03T13:19:57Z</time></trkpt><trkpt lat="44.45620497433587" lon="11.5241871519875"><ele>41.5</ele><time>2026-05-03T13:19:58Z</time></trkpt><trkpt lat="44.45628882528103" lon="11.523852199954069"><ele>42.0</ele><time>2026-05-03T13:19:59Z</time></trkpt><trkpt lat="44.45636850230825" lon="11.523516902764069"><ele>43.5</ele><time>2026-05-03T13:20:00Z</time></trkpt><trkpt lat="44.456447232867646" lon="11.523182600126392"><ele>45.0</ele><time>2026-05-03T13:20:01Z</time></trkpt><trkpt lat="44.45652832198025" lon="11.52284599567043"><ele>45.0</ele><time>2026-05-03T13:20:02Z</time></trkpt><trkpt lat="44.456607250739836" lon="11.52250994744277"><ele>45.0</ele><time>2026-05-03T13:20:03Z</time></trkpt><trkpt lat="44.45668478227705" lon="11.522172670303256"><ele>44.5</ele><time>2026-05-03T13:20:04Z</time></trkpt><trkpt lat="44.45676067248968" lon="11.52183763262766"><ele>44.0</ele><time>2026-05-03T13:20:05Z</time></trkpt><trkpt lat="44.4568384076466" lon="11.521498415888185"><ele>43.5</ele><time>2026-05-03T13:20:06Z</time></trkpt><trkpt lat="44.456914429302806" lon="11.521160636261278"><ele>43.0</ele><time>2026-05-03T13:20:07Z</time></trkpt><trkpt lat="44.45699104970505" lon="11.520821281999448"><ele>43.0</ele><time>2026-05-03T13:20:08Z</time></trkpt><trkpt lat="44.45706738883197" lon="11.520482630415632"><ele>43.0</ele><time>2026-05-03T13:20:09Z</time></trkpt><trkpt lat="44.45714377335585" lon="11.520145028380787"><ele>43.0</ele><time>2026-05-03T13:20:10Z</time></trkpt><trkpt lat="44.45722058106307" lon="11.519807657600568"><ele>43.0</ele><time>2026-05-03T13:20:11Z</time></trkpt><trkpt lat="44.45729606260934" lon="11.51947391599572"><ele>43.0</ele><time>2026-05-03T13:20:12Z</time></trkpt><trkpt lat="44.45737223135616" lon="11.51914278776311"><ele>43.0</ele><time>2026-05-03T13:20:13Z</time></trkpt><trkpt lat="44.4574491649777" lon="11.518810264970089"><ele>42.5</ele><time>2026-05-03T13:20:14Z</time></trkpt><trkpt lat="44.45752452078386" lon="11.518479516318159"><ele>42.0</ele><time>2026-05-03T13:20:15Z</time></trkpt><trkpt lat="44.45760016573517" lon="11.518149908468246"><ele>43.5</ele><time>2026-05-03T13:20:16Z</time></trkpt><trkpt lat="44.45767451536208" lon="11.51782280445883"><ele>45.0</ele><time>2026-05-03T13:20:17Z</time></trkpt><trkpt lat="44.45774902956436" lon="11.517496982375054"><ele>45.0</ele><time>2026-05-03T13:20:18Z</time></trkpt><trkpt lat="44.457824685721576" lon="11.517170714893934"><ele>45.0</ele><time>2026-05-03T13:20:19Z</time></trkpt><trkpt lat="44.45790010652752" lon="11.516852511967432"><ele>43.5</ele><time>2026-05-03T13:20:20Z</time></trkpt><trkpt lat="44.45797287932691" lon="11.516544283040417"><ele>42.0</ele><time>2026-05-03T13:20:21Z</time></trkpt><trkpt lat="44.45804708240322" lon="11.516234500655736"><ele>42.0</ele><time>2026-05-03T13:20:22Z</time></trkpt><trkpt lat="44.45812407780692" lon="11.515925268310955"><ele>42.0</ele><time>2026-05-03T13:20:23Z</time></trkpt><trkpt lat="44.458201290704864" lon="11.515615461790201"><ele>43.5</ele><time>2026-05-03T13:20:24Z</time></trkpt><trkpt lat="44.45827796111558" lon="11.515305175465125"><ele>45.0</ele><time>2026-05-03T13:20:25Z</time></trkpt><trkpt lat="44.458355634196366" lon="11.514989298297397"><ele>45.0</ele><time>2026-05-03T13:20:26Z</time></trkpt><trkpt lat="44.45843139922759" lon="11.51467246296402"><ele>45.0</ele><time>2026-05-03T13:20:27Z</time></trkpt><trkpt lat="44.45850594819499" lon="11.514356155218218"><ele>44.5</ele><time>2026-05-03T13:20:28Z</time></trkpt><trkpt lat="44.45858068223756" lon="11.514040355740919"><ele>44.0</ele><time>2026-05-03T13:20:29Z</time></trkpt><trkpt lat="44.45865539210816" lon="11.513723747650342"><ele>43.5</ele><time>2026-05-03T13:20:30Z</time></trkpt><trkpt lat="44.45872960746568" lon="11.51340724501467"><ele>43.0</ele><time>2026-05-03T13:20:31Z</time></trkpt><trkpt lat="44.45880308998493" lon="11.513087806796571"><ele>43.0</ele><time>2026-05-03T13:20:32Z</time></trkpt><trkpt lat="44.458876067004084" lon="11.512768655533412"><ele>43.0</ele><time>2026-05-03T13:20:33Z</time></trkpt><trkpt lat="44.45894735097524" lon="11.512451826129553"><ele>43.0</ele><time>2026-05-03T13:20:34Z</time></trkpt><trkpt lat="44.45901888364484" lon="11.512134998476254"><ele>43.0</ele><time>2026-05-03T13:20:35Z</time></trkpt><trkpt lat="44.4590898161754" lon="11.511817655985677"><ele>43.0</ele><time>2026-05-03T13:20:36Z</time></trkpt><trkpt lat="44.4591617525186" lon="11.51150024235984"><ele>43.0</ele><time>2026-05-03T13:20:37Z</time></trkpt><trkpt lat="44.459234007580825" lon="11.511186221133359"><ele>43.0</ele><time>2026-05-03T13:20:38Z</time></trkpt><trkpt lat="44.45930697172254" lon="11.510873681497113"><ele>43.0</ele><time>2026-05-03T13:20:39Z</time></trkpt><trkpt lat="44.45938333157669" lon="11.51055966291808"><ele>42.5</ele><time>2026-05-03T13:20:40Z</time></trkpt><trkpt lat="44.459461683518285" lon="11.510244137078779"><ele>42.0</ele><time>2026-05-03T13:20:41Z</time></trkpt><trkpt lat="44.45953766817605" lon="11.509922146022465"><ele>42.0</ele><time>2026-05-03T13:20:42Z</time></trkpt><trkpt lat="44.45961130020512" lon="11.509600057889369"><ele>42.0</ele><time>2026-05-03T13:20:43Z</time></trkpt><trkpt lat="44.459684477663" lon="11.509272183697902"><ele>43.0</ele><time>2026-05-03T13:20:44Z</time></trkpt><trkpt lat="44.459759245972066" lon="11.508945292883894"><ele>44.0</ele><time>2026-05-03T13:20:45Z</time></trkpt><trkpt lat="44.45983503895996" lon="11.508615694527476"><ele>44.0</ele><time>2026-05-03T13:20:45.999Z</time></trkpt><trkpt lat="44.459912125846984" lon="11.50828237636822"><ele>44.0</ele><time>2026-05-03T13:20:46.999Z</time></trkpt><trkpt lat="44.459990043586735" lon="11.50795076954701"><ele>45.5</ele><time>2026-05-03T13:20:47.999Z</time></trkpt><trkpt lat="44.460069940255664" lon="11.507616872171166"><ele>47.0</ele><time>2026-05-03T13:20:48.999Z</time></trkpt><trkpt lat="44.460150807859534" lon="11.507282106675207"><ele>46.0</ele><time>2026-05-03T13:20:49.999Z</time></trkpt><trkpt lat="44.46023321955121" lon="11.506948174529693"><ele>45.0</ele><time>2026-05-03T13:20:50.999Z</time></trkpt><trkpt lat="44.46031803873796" lon="11.506611632517808"><ele>45.0</ele><time>2026-05-03T13:20:51.999Z</time></trkpt><trkpt lat="44.460405291668145" lon="11.506272695439469"><ele>45.0</ele><time>2026-05-03T13:20:52.999Z</time></trkpt><trkpt lat="44.46049267909811" lon="11.505941161656535"><ele>45.0</ele><time>2026-05-03T13:20:53.999Z</time></trkpt><trkpt lat="44.4605835964649" lon="11.505609685678028"><ele>45.0</ele><time>2026-05-03T13:20:54.999Z</time></trkpt><trkpt lat="44.46067563058688" lon="11.505277183821136"><ele>45.5</ele><time>2026-05-03T13:20:55.999Z</time></trkpt><trkpt lat="44.46076742471568" lon="11.50494538167982"><ele>46.0</ele><time>2026-05-03T13:20:56.999Z</time></trkpt><trkpt lat="44.46086185868622" lon="11.504614875642455"><ele>45.5</ele><time>2026-05-03T13:20:57.999Z</time></trkpt><trkpt lat="44.46095588496447" lon="11.504286415015038"><ele>45.0</ele><time>2026-05-03T13:20:58.999Z</time></trkpt><trkpt lat="44.46104929912941" lon="11.503957055898999"><ele>43.5</ele><time>2026-05-03T13:20:59.999Z</time></trkpt><trkpt lat="44.46114275268528" lon="11.503627803685879"><ele>42.0</ele><time>2026-05-03T13:21:00.999Z</time></trkpt><trkpt lat="44.461237237373126" lon="11.503300106861136"><ele>42.0</ele><time>2026-05-03T13:21:01.999Z</time></trkpt><trkpt lat="44.46132713079936" lon="11.502978129760022"><ele>42.0</ele><time>2026-05-03T13:21:02.999Z</time></trkpt><trkpt lat="44.46141403075551" lon="11.502653527011026"><ele>42.0</ele><time>2026-05-03T13:21:03.999Z</time></trkpt><trkpt lat="44.46149847497128" lon="11.502333542527861"><ele>42.0</ele><time>2026-05-03T13:21:05Z</time></trkpt><trkpt lat="44.461581241028156" lon="11.502027110547894"><ele>42.0</ele><time>2026-05-03T13:21:06Z</time></trkpt><trkpt lat="44.46166243919641" lon="11.501737646385221"><ele>42.0</ele><time>2026-05-03T13:21:07Z</time></trkpt><trkpt lat="44.46174252534019" lon="11.501459236754997"><ele>42.0</ele><time>2026-05-03T13:21:08Z</time></trkpt><trkpt lat="44.4618227809269" lon="11.501184379871354"><ele>41.666666666666664</ele><time>2026-05-03T13:21:09Z</time></trkpt><trkpt lat="44.46190257847285" lon="11.500912783317421"><ele>41.33333333333333</ele><time>2026-05-03T13:21:10Z</time></trkpt><trkpt lat="44.46198310243439" lon="11.500642679235343"><ele>41.0</ele><time>2026-05-03T13:21:11Z</time></trkpt><trkpt lat="44.462062662560776" lon="11.500379169196755"><ele>40.666666666666664</ele><time>2026-05-03T13:21:12Z</time></trkpt><trkpt lat="44.46209937009354" lon="11.500183209952771"><ele>40.333333333333336</ele><time>2026-05-03T13:21:13Z</time></trkpt><trkpt lat="44.46216759677796" lon="11.49994757212005"><ele>40.0</ele><time>2026-05-03T13:21:14Z</time></trkpt><trkpt lat="44.462234302552645" lon="11.49970744370187"><ele>40.333333333333336</ele><time>2026-05-03T13:21:15Z</time></trkpt><trkpt lat="44.46230375302286" lon="11.499466652582349"><ele>40.666666666666664</ele><time>2026-05-03T13:21:16Z</time></trkpt><trkpt lat="44.462374704278986" lon="11.49922423472333"><ele>41.0</ele><time>2026-05-03T13:21:17Z</time></trkpt><trkpt lat="44.4624459856554" lon="11.498979231585455"><ele>41.0</ele><time>2026-05-03T13:21:18Z</time></trkpt><trkpt lat="44.462520114588195" lon="11.498733176270772"><ele>41.0</ele><time>2026-05-03T13:21:19Z</time></trkpt><trkpt lat="44.46259266743209" lon="11.498487800690565"><ele>41.0</ele><time>2026-05-03T13:21:20Z</time></trkpt><trkpt lat="44.46266483993612" lon="11.498243650150531"><ele>41.0</ele><time>2026-05-03T13:21:21Z</time></trkpt><trkpt lat="44.46273960378789" lon="11.497997032388994"><ele>41.0</ele><time>2026-05-03T13:21:22Z</time></trkpt><trkpt lat="44.46281143311105" lon="11.497749515367213"><ele>41.0</ele><time>2026-05-03T13:21:23Z</time></trkpt><trkpt lat="44.462881286363164" lon="11.497499413080376"><ele>40.666666666666664</ele><time>2026-05-03T13:21:24Z</time></trkpt><trkpt lat="44.4629505599659" lon="11.497247703764822"><ele>40.333333333333336</ele><time>2026-05-03T13:21:25Z</time></trkpt><trkpt lat="44.46301932216978" lon="11.496995012297681"><ele>40.0</ele><time>2026-05-03T13:21:26Z</time></trkpt><trkpt lat="44.46309011763416" lon="11.496737657899363"><ele>40.0</ele><time>2026-05-03T13:21:27Z</time></trkpt><trkpt lat="44.46316377036932" lon="11.496477161250626"><ele>40.0</ele><time>2026-05-03T13:21:28Z</time></trkpt><trkpt lat="44.46323793783063" lon="11.496217113224382"><ele>40.0</ele><time>2026-05-03T13:21:29Z</time></trkpt><trkpt lat="44.46331463015006" lon="11.495953845952206"><ele>39.66666666666667</ele><time>2026-05-03T13:21:30Z</time></trkpt><trkpt lat="44.46339014572573" lon="11.495685477304747"><ele>39.333333333333336</ele><time>2026-05-03T13:21:31Z</time></trkpt><trkpt lat="44.46346489687321" lon="11.495413854386001"><ele>39.0</ele><time>2026-05-03T13:21:32Z</time></trkpt><trkpt lat="44.46354248669398" lon="11.495141537265582"><ele>39.333333333333336</ele><time>2026-05-03T13:21:33Z</time></trkpt><trkpt lat="44.46362171415511" lon="11.494866374021056"><ele>39.66666666666667</ele><time>2026-05-03T13:21:34Z</time></trkpt><trkpt lat="44.4637002686284" lon="11.494591469982492"><ele>40.0</ele><time>2026-05-03T13:21:35Z</time></trkpt><trkpt lat="44.463782532402895" lon="11.494310290722968"><ele>40.0</ele><time>2026-05-03T13:21:36Z</time></trkpt><trkpt lat="44.46386657515074" lon="11.494023197425317"><ele>40.0</ele><time>2026-05-03T13:21:37Z</time></trkpt><trkpt lat="44.46395044849246" lon="11.493729991965616"><ele>40.0</ele><time>2026-05-03T13:21:38Z</time></trkpt><trkpt lat="44.46403753385031" lon="11.493429803139481"><ele>41.0</ele><time>2026-05-03T13:21:39Z</time></trkpt><trkpt lat="44.46412313247411" lon="11.493131310769085"><ele>42.0</ele><time>2026-05-03T13:21:40Z</time></trkpt><trkpt lat="44.46420824695667" lon="11.492830359146183"><ele>43.5</ele><time>2026-05-03T13:21:41Z</time></trkpt><trkpt lat="44.464292653276296" lon="11.492529434975303"><ele>45.0</ele><time>2026-05-03T13:21:42Z</time></trkpt><trkpt lat="44.46437664769677" lon="11.492227708535356"><ele>45.0</ele><time>2026-05-03T13:21:43Z</time></trkpt><trkpt lat="44.464460937528735" lon="11.491923960863426"><ele>45.0</ele><time>2026-05-03T13:21:44Z</time></trkpt><trkpt lat="44.46454603126162" lon="11.491618563637505"><ele>43.5</ele><time>2026-05-03T13:21:45Z</time></trkpt><trkpt lat="44.46463463916307" lon="11.491307410535667"><ele>42.0</ele><time>2026-05-03T13:21:46Z</time></trkpt><trkpt lat="44.464724094563124" lon="11.490994313280318"><ele>42.0</ele><time>2026-05-03T13:21:47Z</time></trkpt><trkpt lat="44.4648157093179" lon="11.490676828065565"><ele>42.0</ele><time>2026-05-03T13:21:48Z</time></trkpt><trkpt lat="44.46490977769297" lon="11.490358141687429"><ele>42.5</ele><time>2026-05-03T13:21:49Z</time></trkpt><trkpt lat="44.46500385738707" lon="11.490035452139846"><ele>43.0</ele><time>2026-05-03T13:21:50Z</time></trkpt><trkpt lat="44.46509476696753" lon="11.489711097749979"><ele>42.5</ele><time>2026-05-03T13:21:51Z</time></trkpt><trkpt lat="44.46518757579479" lon="11.48938415533316"><ele>42.0</ele><time>2026-05-03T13:21:52Z</time></trkpt><trkpt lat="44.46528187794507" lon="11.489056297940751"><ele>42.0</ele><time>2026-05-03T13:21:53Z</time></trkpt><trkpt lat="44.46537671262944" lon="11.48872688697914"><ele>42.0</ele><time>2026-05-03T13:21:54Z</time></trkpt><trkpt lat="44.46546905675158" lon="11.488400806807435"><ele>42.0</ele><time>2026-05-03T13:21:55Z</time></trkpt><trkpt lat="44.46555995899894" lon="11.488078644267839"><ele>42.0</ele><time>2026-05-03T13:21:56Z</time></trkpt><trkpt lat="44.465648394803004" lon="11.487760790108826"><ele>42.0</ele><time>2026-05-03T13:21:57Z</time></trkpt><trkpt lat="44.46573795537258" lon="11.487447045056427"><ele>42.0</ele><time>2026-05-03T13:21:58Z</time></trkpt><trkpt lat="44.465829543879806" lon="11.487133718679651"><ele>41.5</ele><time>2026-05-03T13:21:59Z</time></trkpt><trkpt lat="44.46592335163929" lon="11.486824898149813"><ele>41.0</ele><time>2026-05-03T13:22:00Z</time></trkpt><trkpt lat="44.46602044250066" lon="11.486515935530395"><ele>41.0</ele><time>2026-05-03T13:22:01Z</time></trkpt><trkpt lat="44.46611889157475" lon="11.48620765973348"><ele>41.0</ele><time>2026-05-03T13:22:02Z</time></trkpt><trkpt lat="44.4662222903202" lon="11.485905932752093"><ele>42.0</ele><time>2026-05-03T13:22:03Z</time></trkpt><trkpt lat="44.46632890621153" lon="11.485607126603266"><ele>43.0</ele><time>2026-05-03T13:22:04Z</time></trkpt><trkpt lat="44.46643634362772" lon="11.485308234216053"><ele>43.0</ele><time>2026-05-03T13:22:05Z</time></trkpt><trkpt lat="44.466545800390826" lon="11.48501117032569"><ele>43.0</ele><time>2026-05-03T13:22:06Z</time></trkpt><trkpt lat="44.46665897453493" lon="11.484716364051609"><ele>42.0</ele><time>2026-05-03T13:22:07Z</time></trkpt><trkpt lat="44.46677870678229" lon="11.484422127281814"><ele>41.0</ele><time>2026-05-03T13:22:08Z</time></trkpt><trkpt lat="44.46689940770083" lon="11.484126537678799"><ele>41.0</ele><time>2026-05-03T13:22:09Z</time></trkpt><trkpt lat="44.46702078088339" lon="11.483827409893738"><ele>41.0</ele><time>2026-05-03T13:22:10Z</time></trkpt><trkpt lat="44.467142595363036" lon="11.48353062377921"><ele>40.5</ele><time>2026-05-03T13:22:11Z</time></trkpt><trkpt lat="44.46726473737945" lon="11.48323276402763"><ele>40.0</ele><time>2026-05-03T13:22:12Z</time></trkpt><trkpt lat="44.467385976909874" lon="11.482935165161507"><ele>40.0</ele><time>2026-05-03T13:22:13Z</time></trkpt><trkpt lat="44.46750827649192" lon="11.482637312812761"><ele>40.0</ele><time>2026-05-03T13:22:14Z</time></trkpt><trkpt lat="44.46762941931933" lon="11.482339076070911"><ele>41.0</ele><time>2026-05-03T13:22:15Z</time></trkpt><trkpt lat="44.467749678462795" lon="11.482043120550962"><ele>42.0</ele><time>2026-05-03T13:22:16Z</time></trkpt><trkpt lat="44.46787143713234" lon="11.481746010154541"><ele>42.0</ele><time>2026-05-03T13:22:17Z</time></trkpt><trkpt lat="44.46799304946973" lon="11.481450162417485"><ele>42.0</ele><time>2026-05-03T13:22:18Z</time></trkpt><trkpt lat="44.46811394233229" lon="11.481156118655166"><ele>41.5</ele><time>2026-05-03T13:22:19Z</time></trkpt><trkpt lat="44.46823589709936" lon="11.480861962525124"><ele>41.0</ele><time>2026-05-03T13:22:20Z</time></trkpt><trkpt lat="44.468356061694614" lon="11.480570207786691"><ele>40.5</ele><time>2026-05-03T13:22:21Z</time></trkpt><trkpt lat="44.4684746366226" lon="11.480282569948653"><ele>40.0</ele><time>2026-05-03T13:22:22Z</time></trkpt><trkpt lat="44.46858964309869" lon="11.480003275465416"><ele>40.0</ele><time>2026-05-03T13:22:23Z</time></trkpt><trkpt lat="44.46870146140946" lon="11.479733857894036"><ele>40.0</ele><time>2026-05-03T13:22:24Z</time></trkpt><trkpt lat="44.468809999038285" lon="11.479466037196923"><ele>40.0</ele><time>2026-05-03T13:22:25Z</time></trkpt><trkpt lat="44.46891569626999" lon="11.479205424529862"><ele>40.66666666666667</ele><time>2026-05-03T13:22:26Z</time></trkpt><trkpt lat="44.46901768591737" lon="11.47895147707677"><ele>41.333333333333336</ele><time>2026-05-03T13:22:27Z</time></trkpt><trkpt lat="44.469116226494066" lon="11.478700484490503"><ele>42.0</ele><time>2026-05-03T13:22:28Z</time></trkpt><trkpt lat="44.46925478815616" lon="11.478380917878411"><ele>42.0</ele><time>2026-05-03T13:22:29Z</time></trkpt><trkpt lat="44.469357168301514" lon="11.478112629674875"><ele>42.0</ele><time>2026-05-03T13:22:30Z</time></trkpt><trkpt lat="44.46946457277246" lon="11.477838942187773"><ele>42.0</ele><time>2026-05-03T13:22:31Z</time></trkpt><trkpt lat="44.46957557912568" lon="11.477558487756088"><ele>43.0</ele><time>2026-05-03T13:22:32Z</time></trkpt><trkpt lat="44.469686126871444" lon="11.477269014481964"><ele>44.0</ele><time>2026-05-03T13:22:33Z</time></trkpt><trkpt lat="44.469798969414384" lon="11.47697455599762"><ele>44.5</ele><time>2026-05-03T13:22:34Z</time></trkpt><trkpt lat="44.46991451516869" lon="11.476679247224753"><ele>45.0</ele><time>2026-05-03T13:22:35Z</time></trkpt><trkpt lat="44.47003232802619" lon="11.47639189019727"><ele>45.0</ele><time>2026-05-03T13:22:36Z</time></trkpt><trkpt lat="44.47015199850817" lon="11.476104375317032"><ele>45.0</ele><time>2026-05-03T13:22:37Z</time></trkpt><trkpt lat="44.4702708286824" lon="11.47581199772308"><ele>45.0</ele><time>2026-05-03T13:22:38Z</time></trkpt><trkpt lat="44.4703892366802" lon="11.475524005885223"><ele>45.0</ele><time>2026-05-03T13:22:39Z</time></trkpt><trkpt lat="44.47050914132608" lon="11.475227959342293"><ele>45.0</ele><time>2026-05-03T13:22:40Z</time></trkpt><trkpt lat="44.4706309080604" lon="11.474941358902905"><ele>45.0</ele><time>2026-05-03T13:22:41Z</time></trkpt><trkpt lat="44.47075084362652" lon="11.474646732069571"><ele>46.5</ele><time>2026-05-03T13:22:42Z</time></trkpt><trkpt lat="44.47087439250577" lon="11.47435544364968"><ele>48.0</ele><time>2026-05-03T13:22:43Z</time></trkpt><trkpt lat="44.47099640750317" lon="11.474067374966372"><ele>47.5</ele><time>2026-05-03T13:22:44Z</time></trkpt><trkpt lat="44.47111560647395" lon="11.47377131001882"><ele>47.0</ele><time>2026-05-03T13:22:45Z</time></trkpt><trkpt lat="44.47123543288623" lon="11.473463894566825"><ele>46.5</ele><time>2026-05-03T13:22:46Z</time></trkpt><trkpt lat="44.47135269016291" lon="11.473163712088919"><ele>46.0</ele><time>2026-05-03T13:22:46.999Z</time></trkpt><trkpt lat="44.47147246104769" lon="11.472853758041499"><ele>45.5</ele><time>2026-05-03T13:22:47.999Z</time></trkpt><trkpt lat="44.471590760390306" lon="11.472541494638905"><ele>45.0</ele><time>2026-05-03T13:22:48.999Z</time></trkpt><trkpt lat="44.471708280172784" lon="11.472223051732566"><ele>45.5</ele><time>2026-05-03T13:22:49.999Z</time></trkpt><trkpt lat="44.47183610807925" lon="11.47190411184422"><ele>46.0</ele><time>2026-05-03T13:22:50.999Z</time></trkpt><trkpt lat="44.471967757483085" lon="11.471585900361935"><ele>46.0</ele><time>2026-05-03T13:22:51.999Z</time></trkpt><trkpt lat="44.472099876399014" lon="11.471263184961494"><ele>46.0</ele><time>2026-05-03T13:22:52.999Z</time></trkpt><trkpt lat="44.472232484815265" lon="11.47093968154095"><ele>46.0</ele><time>2026-05-03T13:22:53.999Z</time></trkpt><trkpt lat="44.472364676270665" lon="11.47061287418612"><ele>46.0</ele><time>2026-05-03T13:22:54.999Z</time></trkpt><trkpt lat="44.472494538685424" lon="11.470291261903736"><ele>46.5</ele><time>2026-05-03T13:22:55.999Z</time></trkpt><trkpt lat="44.47261945719097" lon="11.469973346475866"><ele>47.0</ele><time>2026-05-03T13:22:56.999Z</time></trkpt><trkpt lat="44.47274191715676" lon="11.469659623728605"><ele>48.0</ele><time>2026-05-03T13:22:57.999Z</time></trkpt><trkpt lat="44.47285938670997" lon="11.469350500677779"><ele>49.0</ele><time>2026-05-03T13:22:58.999Z</time></trkpt><trkpt lat="44.47297471780977" lon="11.46904799497826"><ele>49.0</ele><time>2026-05-03T13:22:59.999Z</time></trkpt><trkpt lat="44.47308959377376" lon="11.468744298807284"><ele>49.0</ele><time>2026-05-03T13:23:00.999Z</time></trkpt><trkpt lat="44.47320235132226" lon="11.468436522395365"><ele>49.0</ele><time>2026-05-03T13:23:01.999Z</time></trkpt><trkpt lat="44.47331616087392" lon="11.468127667936972"><ele>49.0</ele><time>2026-05-03T13:23:02.999Z</time></trkpt><trkpt lat="44.473427495365996" lon="11.467815346861702"><ele>48.0</ele><time>2026-05-03T13:23:03.999Z</time></trkpt><trkpt lat="44.473537390578024" lon="11.467502047690305"><ele>47.0</ele><time>2026-05-03T13:23:04.999Z</time></trkpt><trkpt lat="44.47364688323748" lon="11.467183890703113"><ele>47.5</ele><time>2026-05-03T13:23:05.999Z</time></trkpt><trkpt lat="44.47375679106887" lon="11.4668641443752"><ele>48.0</ele><time>2026-05-03T13:23:06.999Z</time></trkpt><trkpt lat="44.473866549618016" lon="11.466537331474967"><ele>48.5</ele><time>2026-05-03T13:23:07.999Z</time></trkpt><trkpt lat="44.47397664393891" lon="11.466213070972847"><ele>49.0</ele><time>2026-05-03T13:23:08.999Z</time></trkpt><trkpt lat="44.47408747041323" lon="11.465879212556787"><ele>49.0</ele><time>2026-05-03T13:23:09.999Z</time></trkpt><trkpt lat="44.47419269412805" lon="11.46554364797575"><ele>49.0</ele><time>2026-05-03T13:23:11Z</time></trkpt><trkpt lat="44.47429813953935" lon="11.465207444972004"><ele>48.5</ele><time>2026-05-03T13:23:12Z</time></trkpt><trkpt lat="44.47440305421955" lon="11.464872176735032"><ele>48.0</ele><time>2026-05-03T13:23:13Z</time></trkpt><trkpt lat="44.474507791306046" lon="11.46453556001713"><ele>49.0</ele><time>2026-05-03T13:23:14Z</time></trkpt><trkpt lat="44.474612371227096" lon="11.464200304175195"><ele>50.0</ele><time>2026-05-03T13:23:15Z</time></trkpt><trkpt lat="44.474715544157235" lon="11.463868884623405"><ele>50.0</ele><time>2026-05-03T13:23:16Z</time></trkpt><trkpt lat="44.47481759145036" lon="11.463537480022406"><ele>50.0</ele><time>2026-05-03T13:23:17Z</time></trkpt><trkpt lat="44.47491658739149" lon="11.46321246478264"><ele>50.0</ele><time>2026-05-03T13:23:18Z</time></trkpt><trkpt lat="44.47501156989208" lon="11.462889003693544"><ele>50.0</ele><time>2026-05-03T13:23:19Z</time></trkpt><trkpt lat="44.475111303343695" lon="11.462565563298606"><ele>50.0</ele><time>2026-05-03T13:23:20Z</time></trkpt><trkpt lat="44.475208355242984" lon="11.46224443586889"><ele>50.0</ele><time>2026-05-03T13:23:21Z</time></trkpt><trkpt lat="44.47530532853425" lon="11.461920575029964"><ele>49.5</ele><time>2026-05-03T13:23:22Z</time></trkpt><trkpt lat="44.47540208134482" lon="11.46159882448129"><ele>49.0</ele><time>2026-05-03T13:23:23Z</time></trkpt><trkpt lat="44.475498768022874" lon="11.461273488415358"><ele>48.5</ele><time>2026-05-03T13:23:24Z</time></trkpt><trkpt lat="44.47559707518443" lon="11.460949399525523"><ele>48.0</ele><time>2026-05-03T13:23:25Z</time></trkpt><trkpt lat="44.475697034391054" lon="11.460624880648432"><ele>49.0</ele><time>2026-05-03T13:23:26Z</time></trkpt><trkpt lat="44.47579629156554" lon="11.46030478906188"><ele>50.0</ele><time>2026-05-03T13:23:27Z</time></trkpt><trkpt lat="44.475895625087674" lon="11.459979960384217"><ele>50.0</ele><time>2026-05-03T13:23:28Z</time></trkpt><trkpt lat="44.4759939679543" lon="11.459650658394978"><ele>50.0</ele><time>2026-05-03T13:23:29Z</time></trkpt><trkpt lat="44.47609193862941" lon="11.459323489298122"><ele>50.5</ele><time>2026-05-03T13:23:30Z</time></trkpt><trkpt lat="44.47619329854431" lon="11.458989318381832"><ele>51.0</ele><time>2026-05-03T13:23:31Z</time></trkpt><trkpt lat="44.47629338127347" lon="11.458655999087107"><ele>51.5</ele><time>2026-05-03T13:23:32Z</time></trkpt><trkpt lat="44.4763947732177" lon="11.458321887971564"><ele>52.0</ele><time>2026-05-03T13:23:33Z</time></trkpt><trkpt lat="44.47649718392559" lon="11.457983803431924"><ele>52.0</ele><time>2026-05-03T13:23:34Z</time></trkpt><trkpt lat="44.47659428313793" lon="11.457640515750956"><ele>52.0</ele><time>2026-05-03T13:23:35Z</time></trkpt><trkpt lat="44.476699464447876" lon="11.457304376166665"><ele>52.0</ele><time>2026-05-03T13:23:36Z</time></trkpt><trkpt lat="44.47680027089055" lon="11.456960363069841"><ele>52.0</ele><time>2026-05-03T13:23:37Z</time></trkpt><trkpt lat="44.47690467076259" lon="11.456615993021682"><ele>52.0</ele><time>2026-05-03T13:23:38Z</time></trkpt><trkpt lat="44.477008034635844" lon="11.456273036868716"><ele>52.0</ele><time>2026-05-03T13:23:39Z</time></trkpt><trkpt lat="44.47711589953703" lon="11.455925669020912"><ele>52.0</ele><time>2026-05-03T13:23:40Z</time></trkpt><trkpt lat="44.47722316946276" lon="11.45557536644678"><ele>52.0</ele><time>2026-05-03T13:23:41Z</time></trkpt><trkpt lat="44.477331738684704" lon="11.455222137400462"><ele>52.0</ele><time>2026-05-03T13:23:42Z</time></trkpt><trkpt lat="44.47744196992529" lon="11.45486343414767"><ele>52.0</ele><time>2026-05-03T13:23:43Z</time></trkpt><trkpt lat="44.47755320934815" lon="11.454504483946168"><ele>52.0</ele><time>2026-05-03T13:23:44Z</time></trkpt><trkpt lat="44.47766356198124" lon="11.454138453177247"><ele>52.0</ele><time>2026-05-03T13:23:45Z</time></trkpt><trkpt lat="44.47777250901621" lon="11.453767817076317"><ele>52.0</ele><time>2026-05-03T13:23:46Z</time></trkpt><trkpt lat="44.477883082981506" lon="11.45339467612216"><ele>52.0</ele><time>2026-05-03T13:23:47Z</time></trkpt><trkpt lat="44.477994363207486" lon="11.453023052195537"><ele>51.0</ele><time>2026-05-03T13:23:48Z</time></trkpt><trkpt lat="44.47810688169267" lon="11.452649435738108"><ele>50.0</ele><time>2026-05-03T13:23:49Z</time></trkpt><trkpt lat="44.47822180369499" lon="11.452277082657373"><ele>51.0</ele><time>2026-05-03T13:23:50Z</time></trkpt><trkpt lat="44.478338670063" lon="11.451901226123157"><ele>52.0</ele><time>2026-05-03T13:23:51Z</time></trkpt><trkpt lat="44.47845477605542" lon="11.451523603222745"><ele>52.0</ele><time>2026-05-03T13:23:52Z</time></trkpt><trkpt lat="44.47857074324222" lon="11.451141731917884"><ele>52.0</ele><time>2026-05-03T13:23:53Z</time></trkpt><trkpt lat="44.478686914617306" lon="11.450762590950456"><ele>52.5</ele><time>2026-05-03T13:23:54Z</time></trkpt><trkpt lat="44.47880272663086" lon="11.450381726720407"><ele>53.0</ele><time>2026-05-03T13:23:55Z</time></trkpt><trkpt lat="44.4789234585547" lon="11.449986675862423"><ele>52.5</ele><time>2026-05-03T13:23:56Z</time></trkpt><trkpt lat="44.47903348544873" lon="11.449616378158169"><ele>52.0</ele><time>2026-05-03T13:23:57Z</time></trkpt><trkpt lat="44.479153923323516" lon="11.449236202564048"><ele>52.0</ele><time>2026-05-03T13:23:58Z</time></trkpt><trkpt lat="44.47927718260554" lon="11.448860540832467"><ele>52.0</ele><time>2026-05-03T13:23:59Z</time></trkpt><trkpt lat="44.47939860552883" lon="11.44848489809443"><ele>50.0</ele><time>2026-05-03T13:24:00Z</time></trkpt><trkpt lat="44.479517133759146" lon="11.448109914795818"><ele>48.0</ele><time>2026-05-03T13:24:01Z</time></trkpt><trkpt lat="44.47963117812815" lon="11.44773181246784"><ele>48.0</ele><time>2026-05-03T13:24:02Z</time></trkpt><trkpt lat="44.479742328124985" lon="11.447356666181856"><ele>48.0</ele><time>2026-05-03T13:24:03Z</time></trkpt><trkpt lat="44.479849581590884" lon="11.44698020547481"><ele>47.5</ele><time>2026-05-03T13:24:04Z</time></trkpt><trkpt lat="44.47995176939423" lon="11.446604411699683"><ele>47.0</ele><time>2026-05-03T13:24:05Z</time></trkpt><trkpt lat="44.48004478722431" lon="11.446251713527642"><ele>48.5</ele><time>2026-05-03T13:24:06Z</time></trkpt><trkpt lat="44.48012325545253" lon="11.445916368086332"><ele>50.0</ele><time>2026-05-03T13:24:07Z</time></trkpt><trkpt lat="44.48019061582671" lon="11.44559382792197"><ele>50.0</ele><time>2026-05-03T13:24:08Z</time></trkpt><trkpt lat="44.480252857579366" lon="11.44528162691311"><ele>50.0</ele><time>2026-05-03T13:24:09Z</time></trkpt><trkpt lat="44.48031308602786" lon="11.4449759957914"><ele>50.0</ele><time>2026-05-03T13:24:10Z</time></trkpt><trkpt lat="44.480372310723844" lon="11.44466657325879"><ele>50.0</ele><time>2026-05-03T13:24:11Z</time></trkpt><trkpt lat="44.480425694044285" lon="11.444356089162433"><ele>48.66666666666667</ele><time>2026-05-03T13:24:12Z</time></trkpt><trkpt lat="44.480475386853634" lon="11.444051028917158"><ele>47.333333333333336</ele><time>2026-05-03T13:24:13Z</time></trkpt><trkpt lat="44.48051722706389" lon="11.443751818831709"><ele>46.0</ele><time>2026-05-03T13:24:14Z</time></trkpt><trkpt lat="44.480550840072624" lon="11.443455443017209"><ele>46.0</ele><time>2026-05-03T13:24:15Z</time></trkpt><trkpt lat="44.48058167552201" lon="11.443163980128201"><ele>46.0</ele><time>2026-05-03T13:24:16Z</time></trkpt><trkpt lat="44.480608277509944" lon="11.442886768155537"><ele>46.0</ele><time>2026-05-03T13:24:17Z</time></trkpt><trkpt lat="44.480630563369864" lon="11.442622239060709"><ele>45.66666666666667</ele><time>2026-05-03T13:24:18Z</time></trkpt><trkpt lat="44.48064900089358" lon="11.442366393089742"><ele>45.333333333333336</ele><time>2026-05-03T13:24:19Z</time></trkpt><trkpt lat="44.48066183412325" lon="11.442120349357937"><ele>45.0</ele><time>2026-05-03T13:24:20Z</time></trkpt><trkpt lat="44.48067170784598" lon="11.44187481690303"><ele>45.0</ele><time>2026-05-03T13:24:21Z</time></trkpt><trkpt lat="44.480682150034504" lon="11.441635905837522"><ele>45.0</ele><time>2026-05-03T13:24:22Z</time></trkpt><trkpt lat="44.48069206294896" lon="11.441399509155614"><ele>45.0</ele><time>2026-05-03T13:24:23Z</time></trkpt><trkpt lat="44.48069768626901" lon="11.441163745780313"><ele>45.0</ele><time>2026-05-03T13:24:24Z</time></trkpt><trkpt lat="44.48069770060625" lon="11.440930956350416"><ele>45.0</ele><time>2026-05-03T13:24:25Z</time></trkpt><trkpt lat="44.48069949922898" lon="11.440702394032483"><ele>45.0</ele><time>2026-05-03T13:24:26Z</time></trkpt><trkpt lat="44.48070068521786" lon="11.440479954707142"><ele>45.0</ele><time>2026-05-03T13:24:27Z</time></trkpt><trkpt lat="44.4807003029096" lon="11.440254290957439"><ele>45.0</ele><time>2026-05-03T13:24:28Z</time></trkpt><trkpt lat="44.48070151863718" lon="11.44003974564093"><ele>45.0</ele><time>2026-05-03T13:24:29Z</time></trkpt><trkpt lat="44.48070102639232" lon="11.439835049648368"><ele>45.0</ele><time>2026-05-03T13:24:30Z</time></trkpt><trkpt lat="44.4807028475563" lon="11.439636370414219"><ele>45.0</ele><time>2026-05-03T13:24:31Z</time></trkpt><trkpt lat="44.48070109220481" lon="11.439441789688352"><ele>45.0</ele><time>2026-05-03T13:24:32Z</time></trkpt><trkpt lat="44.48069843599665" lon="11.439251162770626"><ele>45.0</ele><time>2026-05-03T13:24:33Z</time></trkpt><trkpt lat="44.480694664416994" lon="11.439067773134152"><ele>45.0</ele><time>2026-05-03T13:24:34Z</time></trkpt><trkpt lat="44.48069194986827" lon="11.4388929060608"><ele>45.0</ele><time>2026-05-03T13:24:35Z</time></trkpt><trkpt lat="44.48069195006028" lon="11.438730337303719"><ele>45.0</ele><time>2026-05-03T13:24:36Z</time></trkpt><trkpt lat="44.48069069510138" lon="11.438566608603947"><ele>45.0</ele><time>2026-05-03T13:24:37Z</time></trkpt><trkpt lat="44.480693813124795" lon="11.438402628876576"><ele>45.0</ele><time>2026-05-03T13:24:38Z</time></trkpt><trkpt lat="44.48069628042485" lon="11.438231893977012"><ele>45.0</ele><time>2026-05-03T13:24:39Z</time></trkpt><trkpt lat="44.48069845579859" lon="11.438057321924303"><ele>45.0</ele><time>2026-05-03T13:24:40Z</time></trkpt><trkpt lat="44.48069711025123" lon="11.437880133066184"><ele>45.0</ele><time>2026-05-03T13:24:41Z</time></trkpt><trkpt lat="44.48069887786237" lon="11.437694733710925"><ele>45.0</ele><time>2026-05-03T13:24:41.999Z</time></trkpt><trkpt lat="44.480697164026644" lon="11.437502613146279"><ele>45.0</ele><time>2026-05-03T13:24:42.999Z</time></trkpt><trkpt lat="44.48069463028846" lon="11.437304554264117"><ele>45.0</ele><time>2026-05-03T13:24:43.999Z</time></trkpt><trkpt lat="44.48069424980614" lon="11.43710077086861"><ele>45.0</ele><time>2026-05-03T13:24:44.999Z</time></trkpt><trkpt lat="44.48069526836225" lon="11.436890385307077"><ele>45.666666666666664</ele><time>2026-05-03T13:24:45.999Z</time></trkpt><trkpt lat="44.48069664571747" lon="11.436676212227065"><ele>46.33333333333333</ele><time>2026-05-03T13:24:46.999Z</time></trkpt><trkpt lat="44.48069822271712" lon="11.436459445606094"><ele>47.0</ele><time>2026-05-03T13:24:47.999Z</time></trkpt><trkpt lat="44.48069809022074" lon="11.436238707389645"><ele>47.0</ele><time>2026-05-03T13:24:48.999Z</time></trkpt><trkpt lat="44.48069776811521" lon="11.436016495277588"><ele>47.0</ele><time>2026-05-03T13:24:49.999Z</time></trkpt><trkpt lat="44.48069814227613" lon="11.435787857606364"><ele>47.0</ele><time>2026-05-03T13:24:50.999Z</time></trkpt><trkpt lat="44.48069910521352" lon="11.435561910876908"><ele>47.33333333333333</ele><time>2026-05-03T13:24:51.999Z</time></trkpt><trkpt lat="44.480698905497285" lon="11.435327136517605"><ele>47.666666666666664</ele><time>2026-05-03T13:24:52.999Z</time></trkpt><trkpt lat="44.480698785423236" lon="11.435091197168864"><ele>48.0</ele><time>2026-05-03T13:24:53.999Z</time></trkpt><trkpt lat="44.480698701421346" lon="11.434852466368904"><ele>48.0</ele><time>2026-05-03T13:24:54.999Z</time></trkpt><trkpt lat="44.48069821091265" lon="11.434605290579741"><ele>48.0</ele><time>2026-05-03T13:24:55.999Z</time></trkpt><trkpt lat="44.480699741723186" lon="11.434355371733156"><ele>48.0</ele><time>2026-05-03T13:24:56.999Z</time></trkpt><trkpt lat="44.48070146279352" lon="11.434098936411589"><ele>48.0</ele><time>2026-05-03T13:24:57.999Z</time></trkpt><trkpt lat="44.48070419488354" lon="11.433837616292317"><ele>48.0</ele><time>2026-05-03T13:24:58.999Z</time></trkpt><trkpt lat="44.48070577499733" lon="11.433579502551524"><ele>48.0</ele><time>2026-05-03T13:24:59.999Z</time></trkpt><trkpt lat="44.48070555121886" lon="11.43331617435023"><ele>48.33333333333333</ele><time>2026-05-03T13:25:00.999Z</time></trkpt><trkpt lat="44.48070613290849" lon="11.433060078740878"><ele>48.666666666666664</ele><time>2026-05-03T13:25:01.999Z</time></trkpt><trkpt lat="44.480707326065975" lon="11.432803982297225"><ele>49.0</ele><time>2026-05-03T13:25:02.999Z</time></trkpt><trkpt lat="44.48070607215461" lon="11.43254555993037"><ele>49.666666666666664</ele><time>2026-05-03T13:25:03.999Z</time></trkpt><trkpt lat="44.480706101876535" lon="11.432286456658911"><ele>50.33333333333333</ele><time>2026-05-03T13:25:04.999Z</time></trkpt><trkpt lat="44.4807056707261" lon="11.432024883771813"><ele>51.0</ele><time>2026-05-03T13:25:05.999Z</time></trkpt><trkpt lat="44.48070454412396" lon="11.43176036371146"><ele>51.0</ele><time>2026-05-03T13:25:06.999Z</time></trkpt><trkpt lat="44.48070357115646" lon="11.431497237806818"><ele>51.0</ele><time>2026-05-03T13:25:07.999Z</time></trkpt><trkpt lat="44.48070438715311" lon="11.431235154095933"><ele>51.0</ele><time>2026-05-03T13:25:08.999Z</time></trkpt><trkpt lat="44.48070507061534" lon="11.43097347751955"><ele>51.0</ele><time>2026-05-03T13:25:09.999Z</time></trkpt><trkpt lat="44.48070664300497" lon="11.430710792998553"><ele>51.0</ele><time>2026-05-03T13:25:10.999Z</time></trkpt><trkpt lat="44.480706851907044" lon="11.430446032072178"><ele>51.0</ele><time>2026-05-03T13:25:11.999Z</time></trkpt><trkpt lat="44.48070682818314" lon="11.430179270714437"><ele>51.33333333333333</ele><time>2026-05-03T13:25:12.999Z</time></trkpt><trkpt lat="44.48070726492544" lon="11.429905815485053"><ele>51.666666666666664</ele><time>2026-05-03T13:25:13.999Z</time></trkpt><trkpt lat="44.48070822103528" lon="11.42962770788041"><ele>52.0</ele><time>2026-05-03T13:25:14.999Z</time></trkpt><trkpt lat="44.48070932233166" lon="11.429339859639137"><ele>52.5</ele><time>2026-05-03T13:25:15.999Z</time></trkpt><trkpt lat="44.48071265805839" lon="11.429031755392653"><ele>53.0</ele><time>2026-05-03T13:25:17Z</time></trkpt><trkpt lat="44.4807088694947" lon="11.428707377422722"><ele>52.333333333333336</ele><time>2026-05-03T13:25:18Z</time></trkpt><trkpt lat="44.48070477968017" lon="11.428494998476397"><ele>51.66666666666667</ele><time>2026-05-03T13:25:19Z</time></trkpt><trkpt lat="44.48070621088186" lon="11.428213646832551"><ele>51.0</ele><time>2026-05-03T13:25:20Z</time></trkpt><trkpt lat="44.48070583487336" lon="11.427931609680648"><ele>51.0</ele><time>2026-05-03T13:25:21Z</time></trkpt><trkpt lat="44.48070351024211" lon="11.42764009046118"><ele>51.0</ele><time>2026-05-03T13:25:22Z</time></trkpt><trkpt lat="44.480701876610006" lon="11.427345576103573"><ele>51.0</ele><time>2026-05-03T13:25:23Z</time></trkpt><trkpt lat="44.48069913165974" lon="11.427049500967508"><ele>51.0</ele><time>2026-05-03T13:25:24Z</time></trkpt><trkpt lat="44.48070022239793" lon="11.426745364915806"><ele>51.0</ele><time>2026-05-03T13:25:25Z</time></trkpt><trkpt lat="44.480704618234256" lon="11.426431271590788"><ele>51.0</ele><time>2026-05-03T13:25:26Z</time></trkpt><trkpt lat="44.48070645391565" lon="11.426114797448134"><ele>51.0</ele><time>2026-05-03T13:25:27Z</time></trkpt><trkpt lat="44.48070429905409" lon="11.425801326728896"><ele>51.0</ele><time>2026-05-03T13:25:28Z</time></trkpt><trkpt lat="44.4807052670051" lon="11.425490377641115"><ele>51.0</ele><time>2026-05-03T13:25:29Z</time></trkpt><trkpt lat="44.48070689190109" lon="11.425174722478024"><ele>51.33333333333333</ele><time>2026-05-03T13:25:30Z</time></trkpt><trkpt lat="44.48071324055579" lon="11.424867541667226"><ele>51.666666666666664</ele><time>2026-05-03T13:25:31Z</time></trkpt><trkpt lat="44.480719659742874" lon="11.424547612242906"><ele>52.0</ele><time>2026-05-03T13:25:32Z</time></trkpt><trkpt lat="44.480731907208444" lon="11.424228272195998"><ele>52.0</ele><time>2026-05-03T13:25:33Z</time></trkpt><trkpt lat="44.48074833725723" lon="11.423910487252101"><ele>52.0</ele><time>2026-05-03T13:25:34Z</time></trkpt><trkpt lat="44.48076939074682" lon="11.423583186128184"><ele>51.5</ele><time>2026-05-03T13:25:35Z</time></trkpt><trkpt lat="44.48079709683933" lon="11.423259371243049"><ele>51.0</ele><time>2026-05-03T13:25:36Z</time></trkpt><trkpt lat="44.4808324774449" lon="11.42293429939339"><ele>51.0</ele><time>2026-05-03T13:25:37Z</time></trkpt><trkpt lat="44.48087688673874" lon="11.422600663478562"><ele>51.0</ele><time>2026-05-03T13:25:38Z</time></trkpt><trkpt lat="44.48092335724333" lon="11.422268675188837"><ele>51.5</ele><time>2026-05-03T13:25:39Z</time></trkpt><trkpt lat="44.48097946620678" lon="11.421941431855387"><ele>52.0</ele><time>2026-05-03T13:25:40Z</time></trkpt><trkpt lat="44.481038329332556" lon="11.42161482595072"><ele>52.0</ele><time>2026-05-03T13:25:41Z</time></trkpt><trkpt lat="44.48111478578846" lon="11.421293613290066"><ele>52.0</ele><time>2026-05-03T13:25:42Z</time></trkpt><trkpt lat="44.48118899149477" lon="11.420971801994972"><ele>52.0</ele><time>2026-05-03T13:25:43Z</time></trkpt><trkpt lat="44.481270225580765" lon="11.420654623748225"><ele>52.0</ele><time>2026-05-03T13:25:44Z</time></trkpt><trkpt lat="44.48135842714101" lon="11.42034080156204"><ele>52.0</ele><time>2026-05-03T13:25:45Z</time></trkpt><trkpt lat="44.48144928041726" lon="11.420027230874894"><ele>52.0</ele><time>2026-05-03T13:25:46Z</time></trkpt><trkpt lat="44.48154189283853" lon="11.419717275634877"><ele>52.5</ele><time>2026-05-03T13:25:47Z</time></trkpt><trkpt lat="44.481637787361905" lon="11.419408921174588"><ele>53.0</ele><time>2026-05-03T13:25:48Z</time></trkpt><trkpt lat="44.48173565357358" lon="11.419100895643012"><ele>52.5</ele><time>2026-05-03T13:25:49Z</time></trkpt><trkpt lat="44.481831965052386" lon="11.418788181372047"><ele>52.0</ele><time>2026-05-03T13:25:50Z</time></trkpt><trkpt lat="44.48192781568012" lon="11.418470900231304"><ele>52.0</ele><time>2026-05-03T13:25:51Z</time></trkpt><trkpt lat="44.4820280259608" lon="11.418147530149815"><ele>52.0</ele><time>2026-05-03T13:25:52Z</time></trkpt><trkpt lat="44.48213464608118" lon="11.417823981530763"><ele>52.5</ele><time>2026-05-03T13:25:53Z</time></trkpt><trkpt lat="44.48224556496851" lon="11.41749763718488"><ele>53.0</ele><time>2026-05-03T13:25:54Z</time></trkpt><trkpt lat="44.48235727463645" lon="11.417170126494279"><ele>53.0</ele><time>2026-05-03T13:25:55Z</time></trkpt><trkpt lat="44.48247016028748" lon="11.416836307749263"><ele>53.0</ele><time>2026-05-03T13:25:56Z</time></trkpt><trkpt lat="44.48258288692439" lon="11.416503205689684"><ele>53.0</ele><time>2026-05-03T13:25:57Z</time></trkpt><trkpt lat="44.482696425548454" lon="11.41617230566241"><ele>53.0</ele><time>2026-05-03T13:25:58Z</time></trkpt><trkpt lat="44.48280895787067" lon="11.415842068625222"><ele>53.0</ele><time>2026-05-03T13:25:59Z</time></trkpt><trkpt lat="44.48291915518662" lon="11.415512914547575"><ele>53.0</ele><time>2026-05-03T13:26:00Z</time></trkpt><trkpt lat="44.48302868370936" lon="11.415184237279105"><ele>53.0</ele><time>2026-05-03T13:26:01Z</time></trkpt><trkpt lat="44.483138503518425" lon="11.414856178078892"><ele>53.0</ele><time>2026-05-03T13:26:02Z</time></trkpt><trkpt lat="44.48325177934705" lon="11.414533991179765"><ele>53.0</ele><time>2026-05-03T13:26:03Z</time></trkpt><trkpt lat="44.483364970106486" lon="11.414211014949377"><ele>53.0</ele><time>2026-05-03T13:26:04Z</time></trkpt><trkpt lat="44.483477325199736" lon="11.413890850321966"><ele>53.0</ele><time>2026-05-03T13:26:05Z</time></trkpt><trkpt lat="44.48358645114271" lon="11.413569561437043"><ele>53.0</ele><time>2026-05-03T13:26:06Z</time></trkpt><trkpt lat="44.48369464951618" lon="11.413248757448786"><ele>52.5</ele><time>2026-05-03T13:26:07Z</time></trkpt><trkpt lat="44.483802536904136" lon="11.412930210538914"><ele>52.0</ele><time>2026-05-03T13:26:08Z</time></trkpt><trkpt lat="44.483908383606135" lon="11.412616567782791"><ele>52.0</ele><time>2026-05-03T13:26:09Z</time></trkpt><trkpt lat="44.48401243287356" lon="11.412304733995125"><ele>52.0</ele><time>2026-05-03T13:26:10Z</time></trkpt><trkpt lat="44.48411614383759" lon="11.411991043748895"><ele>53.5</ele><time>2026-05-03T13:26:11Z</time></trkpt><trkpt lat="44.48421958132677" lon="11.411681403925149"><ele>55.0</ele><time>2026-05-03T13:26:12Z</time></trkpt><trkpt lat="44.48432497577919" lon="11.411374778989574"><ele>56.0</ele><time>2026-05-03T13:26:13Z</time></trkpt><trkpt lat="44.48443066095161" lon="11.41106578010548"><ele>57.0</ele><time>2026-05-03T13:26:14Z</time></trkpt><trkpt lat="44.48453453579852" lon="11.410757622907074"><ele>56.0</ele><time>2026-05-03T13:26:15Z</time></trkpt><trkpt lat="44.484635485872374" lon="11.410449064884926"><ele>55.0</ele><time>2026-05-03T13:26:16Z</time></trkpt><trkpt lat="44.484735370939276" lon="11.410145394450682"><ele>55.0</ele><time>2026-05-03T13:26:17Z</time></trkpt><trkpt lat="44.48483431669883" lon="11.409842191088936"><ele>55.0</ele><time>2026-05-03T13:26:18Z</time></trkpt><trkpt lat="44.484934178632386" lon="11.40953891442437"><ele>55.0</ele><time>2026-05-03T13:26:19Z</time></trkpt><trkpt lat="44.485035124455045" lon="11.4092359365553"><ele>55.0</ele><time>2026-05-03T13:26:19.999Z</time></trkpt><trkpt lat="44.48513631793046" lon="11.408936417374047"><ele>54.5</ele><time>2026-05-03T13:26:20.999Z</time></trkpt><trkpt lat="44.48523925207426" lon="11.408632533472506"><ele>54.0</ele><time>2026-05-03T13:26:21.999Z</time></trkpt><trkpt lat="44.48534375533176" lon="11.408327263706731"><ele>54.0</ele><time>2026-05-03T13:26:22.999Z</time></trkpt><trkpt lat="44.48544740903043" lon="11.408016273804236"><ele>54.0</ele><time>2026-05-03T13:26:23.999Z</time></trkpt><trkpt lat="44.48555210927662" lon="11.407702450129698"><ele>54.0</ele><time>2026-05-03T13:26:24.999Z</time></trkpt><trkpt lat="44.48565697400794" lon="11.407387797436028"><ele>54.0</ele><time>2026-05-03T13:26:25.999Z</time></trkpt><trkpt lat="44.48576182896107" lon="11.407071324434291"><ele>53.5</ele><time>2026-05-03T13:26:26.999Z</time></trkpt><trkpt lat="44.48586750651429" lon="11.406749041667835"><ele>53.0</ele><time>2026-05-03T13:26:27.999Z</time></trkpt><trkpt lat="44.485971360038455" lon="11.406430040943897"><ele>52.5</ele><time>2026-05-03T13:26:28.999Z</time></trkpt><trkpt lat="44.48607615799756" lon="11.406108570430911"><ele>52.0</ele><time>2026-05-03T13:26:29.999Z</time></trkpt><trkpt lat="44.48617797186114" lon="11.405786143040933"><ele>52.5</ele><time>2026-05-03T13:26:30.999Z</time></trkpt><trkpt lat="44.48628028623489" lon="11.405464461599248"><ele>53.0</ele><time>2026-05-03T13:26:31.999Z</time></trkpt><trkpt lat="44.48638297581329" lon="11.4051435146351"><ele>53.0</ele><time>2026-05-03T13:26:32.999Z</time></trkpt><trkpt lat="44.48648319184475" lon="11.40481887628005"><ele>53.0</ele><time>2026-05-03T13:26:33.999Z</time></trkpt><trkpt lat="44.48658530243144" lon="11.404497934328612"><ele>53.0</ele><time>2026-05-03T13:26:34.999Z</time></trkpt><trkpt lat="44.48669225526569" lon="11.404177709910089"><ele>53.0</ele><time>2026-05-03T13:26:35.999Z</time></trkpt><trkpt lat="44.48679913216409" lon="11.403856555228426"><ele>53.5</ele><time>2026-05-03T13:26:36.999Z</time></trkpt><trkpt lat="44.486905498633796" lon="11.40353624786034"><ele>54.0</ele><time>2026-05-03T13:26:37.999Z</time></trkpt><trkpt lat="44.48701275771602" lon="11.403216645036826"><ele>53.5</ele><time>2026-05-03T13:26:38.999Z</time></trkpt><trkpt lat="44.48711836578796" lon="11.402894933292737"><ele>53.0</ele><time>2026-05-03T13:26:39.999Z</time></trkpt><trkpt lat="44.48722282005448" lon="11.402573932309458"><ele>53.0</ele><time>2026-05-03T13:26:40.999Z</time></trkpt><trkpt lat="44.48732708174333" lon="11.40225409119066"><ele>53.0</ele><time>2026-05-03T13:26:41.999Z</time></trkpt><trkpt lat="44.48743440930045" lon="11.401936281388066"><ele>53.0</ele><time>2026-05-03T13:26:42.999Z</time></trkpt><trkpt lat="44.48754327103318" lon="11.401619951739166"><ele>53.0</ele><time>2026-05-03T13:26:43.999Z</time></trkpt><trkpt lat="44.48765005566448" lon="11.40130207301991"><ele>52.5</ele><time>2026-05-03T13:26:44.999Z</time></trkpt><trkpt lat="44.48775356531928" lon="11.400980095731738"><ele>52.0</ele><time>2026-05-03T13:26:45.999Z</time></trkpt><trkpt lat="44.487857659612004" lon="11.40065915227931"><ele>51.5</ele><time>2026-05-03T13:26:46.999Z</time></trkpt><trkpt lat="44.487966092958565" lon="11.400339548625974"><ele>51.0</ele><time>2026-05-03T13:26:47.999Z</time></trkpt><trkpt lat="44.488072905131894" lon="11.400021090293132"><ele>51.0</ele><time>2026-05-03T13:26:48.999Z</time></trkpt><trkpt lat="44.48817763638685" lon="11.399701163525437"><ele>51.0</ele><time>2026-05-03T13:26:49.999Z</time></trkpt><trkpt lat="44.488284932355654" lon="11.399378877905265"><ele>51.5</ele><time>2026-05-03T13:26:50.999Z</time></trkpt><trkpt lat="44.488395472285966" lon="11.399056155216128"><ele>52.0</ele><time>2026-05-03T13:26:51.999Z</time></trkpt><trkpt lat="44.4885065716561" lon="11.398733330291984"><ele>52.0</ele><time>2026-05-03T13:26:52.999Z</time></trkpt><trkpt lat="44.48861504322856" lon="11.398408326537899"><ele>52.0</ele><time>2026-05-03T13:26:53.999Z</time></trkpt><trkpt lat="44.48872163030196" lon="11.398082081214532"><ele>52.5</ele><time>2026-05-03T13:26:54.999Z</time></trkpt><trkpt lat="44.48883210491525" lon="11.397759848401753"><ele>53.0</ele><time>2026-05-03T13:26:55.999Z</time></trkpt><trkpt lat="44.488945113732925" lon="11.397438648079255"><ele>52.5</ele><time>2026-05-03T13:26:56.999Z</time></trkpt><trkpt lat="44.48906323186581" lon="11.397123630103096"><ele>52.0</ele><time>2026-05-03T13:26:57.999Z</time></trkpt><trkpt lat="44.48918857823834" lon="11.39681015832193"><ele>52.0</ele><time>2026-05-03T13:26:58.999Z</time></trkpt><trkpt lat="44.48931994124733" lon="11.39650277588807"><ele>52.0</ele><time>2026-05-03T13:26:59.999Z</time></trkpt><trkpt lat="44.48945506555672" lon="11.396199072444176"><ele>52.0</ele><time>2026-05-03T13:27:00.999Z</time></trkpt><trkpt lat="44.489595499650406" lon="11.395899046021363"><ele>52.0</ele><time>2026-05-03T13:27:01.999Z</time></trkpt><trkpt lat="44.489744054796084" lon="11.395606334720217"><ele>52.5</ele><time>2026-05-03T13:27:02.999Z</time></trkpt><trkpt lat="44.48990122977813" lon="11.39531859708617"><ele>53.0</ele><time>2026-05-03T13:27:03.999Z</time></trkpt><trkpt lat="44.4900655048324" lon="11.395039597401668"><ele>53.0</ele><time>2026-05-03T13:27:04.999Z</time></trkpt><trkpt lat="44.49023434857419" lon="11.394766057525139"><ele>53.0</ele><time>2026-05-03T13:27:05.999Z</time></trkpt><trkpt lat="44.49040848250234" lon="11.394497775659238"><ele>53.5</ele><time>2026-05-03T13:27:06.999Z</time></trkpt><trkpt lat="44.490589007322264" lon="11.394234493168481"><ele>54.0</ele><time>2026-05-03T13:27:07.999Z</time></trkpt><trkpt lat="44.49077314429841" lon="11.393980935694236"><ele>54.0</ele><time>2026-05-03T13:27:08.999Z</time></trkpt><trkpt lat="44.49096173553223" lon="11.393734642960291"><ele>54.0</ele><time>2026-05-03T13:27:09.999Z</time></trkpt><trkpt lat="44.491151703806906" lon="11.393495632544868"><ele>53.0</ele><time>2026-05-03T13:27:10.999Z</time></trkpt><trkpt lat="44.49134792091126" lon="11.393263794621033"><ele>52.0</ele><time>2026-05-03T13:27:11.999Z</time></trkpt><trkpt lat="44.49154842189693" lon="11.393035180245956"><ele>52.0</ele><time>2026-05-03T13:27:12.999Z</time></trkpt><trkpt lat="44.491756756331895" lon="11.392812873963898"><ele>52.0</ele><time>2026-05-03T13:27:13.999Z</time></trkpt><trkpt lat="44.49197299463721" lon="11.392599028999694"><ele>53.5</ele><time>2026-05-03T13:27:14.999Z</time></trkpt><trkpt lat="44.492194347236016" lon="11.392392785977503"><ele>55.0</ele><time>2026-05-03T13:27:15.999Z</time></trkpt><trkpt lat="44.492421961310896" lon="11.392191759848643"><ele>54.0</ele><time>2026-05-03T13:27:16.999Z</time></trkpt><trkpt lat="44.492651118833194" lon="11.391991298040217"><ele>53.0</ele><time>2026-05-03T13:27:17.999Z</time></trkpt><trkpt lat="44.49288277961583" lon="11.391783877013854"><ele>52.0</ele><time>2026-05-03T13:27:18.999Z</time></trkpt><trkpt lat="44.49311385903894" lon="11.391576820041754"><ele>51.0</ele><time>2026-05-03T13:27:19.999Z</time></trkpt><trkpt lat="44.49334673938881" lon="11.391367231091822"><ele>51.0</ele><time>2026-05-03T13:27:20.999Z</time></trkpt><trkpt lat="44.493579975278465" lon="11.391158108744511"><ele>51.0</ele><time>2026-05-03T13:27:21.999Z</time></trkpt><trkpt lat="44.49381195850081" lon="11.390954228957215"><ele>50.5</ele><time>2026-05-03T13:27:22.999Z</time></trkpt><trkpt lat="44.49404087981376" lon="11.39074825090429"><ele>50.0</ele><time>2026-05-03T13:27:23.999Z</time></trkpt><trkpt lat="44.494272779656605" lon="11.390530382362268"><ele>50.5</ele><time>2026-05-03T13:27:24.999Z</time></trkpt><trkpt lat="44.49450537959597" lon="11.39031536872809"><ele>51.0</ele><time>2026-05-03T13:27:25.999Z</time></trkpt><trkpt lat="44.49474064904945" lon="11.390109006260523"><ele>49.5</ele><time>2026-05-03T13:27:26.999Z</time></trkpt><trkpt lat="44.49497712960898" lon="11.389896478199931"><ele>48.0</ele><time>2026-05-03T13:27:27.999Z</time></trkpt><trkpt lat="44.49521190445104" lon="11.389692497081969"><ele>49.0</ele><time>2026-05-03T13:27:28.999Z</time></trkpt><trkpt lat="44.49544706733174" lon="11.389486802216787"><ele>50.0</ele><time>2026-05-03T13:27:29.999Z</time></trkpt><trkpt lat="44.49567834122833" lon="11.389280387837857"><ele>50.0</ele><time>2026-05-03T13:27:30.999Z</time></trkpt><trkpt lat="44.495913900741776" lon="11.389074792136418"><ele>50.0</ele><time>2026-05-03T13:27:31.999Z</time></trkpt><trkpt lat="44.496149479367716" lon="11.3888688655257"><ele>49.0</ele><time>2026-05-03T13:27:32.999Z</time></trkpt><trkpt lat="44.49638490783091" lon="11.388662749749374"><ele>48.0</ele><time>2026-05-03T13:27:33.999Z</time></trkpt><trkpt lat="44.496622491202395" lon="11.388455986244537"><ele>48.0</ele><time>2026-05-03T13:27:34.999Z</time></trkpt><trkpt lat="44.49686151184396" lon="11.388250064032528"><ele>48.0</ele><time>2026-05-03T13:27:35.999Z</time></trkpt><trkpt lat="44.497105024905224" lon="11.388045818021235"><ele>49.0</ele><time>2026-05-03T13:27:37Z</time></trkpt><trkpt lat="44.49734915862231" lon="11.387845613231667"><ele>50.0</ele><time>2026-05-03T13:27:38Z</time></trkpt><trkpt lat="44.49759166535729" lon="11.387637738783798"><ele>50.0</ele><time>2026-05-03T13:27:39Z</time></trkpt><trkpt lat="44.49783347464933" lon="11.387420137509176"><ele>50.0</ele><time>2026-05-03T13:27:40Z</time></trkpt><trkpt lat="44.49807662706038" lon="11.387205726629709"><ele>51.5</ele><time>2026-05-03T13:27:41Z</time></trkpt><trkpt lat="44.49832095537878" lon="11.386992551841226"><ele>53.0</ele><time>2026-05-03T13:27:42Z</time></trkpt><trkpt lat="44.4985645787654" lon="11.38678065995563"><ele>51.5</ele><time>2026-05-03T13:27:43Z</time></trkpt><trkpt lat="44.49880912030251" lon="11.386566843341454"><ele>50.0</ele><time>2026-05-03T13:27:44Z</time></trkpt><trkpt lat="44.49905170458362" lon="11.386352835222517"><ele>50.5</ele><time>2026-05-03T13:27:45Z</time></trkpt><trkpt lat="44.49929106645685" lon="11.386136548880078"><ele>51.0</ele><time>2026-05-03T13:27:46Z</time></trkpt><trkpt lat="44.49953271948862" lon="11.385919115246805"><ele>49.0</ele><time>2026-05-03T13:27:47Z</time></trkpt><trkpt lat="44.49977675785452" lon="11.385703336623017"><ele>47.0</ele><time>2026-05-03T13:27:48Z</time></trkpt><trkpt lat="44.5000211844491" lon="11.385488334324751"><ele>47.0</ele><time>2026-05-03T13:27:49Z</time></trkpt><trkpt lat="44.50026510790161" lon="11.385265061191"><ele>47.0</ele><time>2026-05-03T13:27:50Z</time></trkpt><trkpt lat="44.500506433785844" lon="11.385040665304125"><ele>48.0</ele><time>2026-05-03T13:27:51Z</time></trkpt><trkpt lat="44.50074722489208" lon="11.384816466373778"><ele>49.0</ele><time>2026-05-03T13:27:52Z</time></trkpt><trkpt lat="44.50098538355964" lon="11.384601280083173"><ele>50.0</ele><time>2026-05-03T13:27:53Z</time></trkpt><trkpt lat="44.50122157168942" lon="11.38439218161414"><ele>51.0</ele><time>2026-05-03T13:27:54Z</time></trkpt><trkpt lat="44.50145827176855" lon="11.384187698719384"><ele>49.5</ele><time>2026-05-03T13:27:55Z</time></trkpt><trkpt lat="44.501695721394775" lon="11.383978746245887"><ele>48.0</ele><time>2026-05-03T13:27:56Z</time></trkpt><trkpt lat="44.50192764302286" lon="11.383773562869033"><ele>48.0</ele><time>2026-05-03T13:27:57Z</time></trkpt><trkpt lat="44.50215897273888" lon="11.383566110436522"><ele>48.0</ele><time>2026-05-03T13:27:58Z</time></trkpt><trkpt lat="44.50239240114813" lon="11.383356229828571"><ele>48.0</ele><time>2026-05-03T13:27:59Z</time></trkpt><trkpt lat="44.50262624742073" lon="11.383153884896256"><ele>48.0</ele><time>2026-05-03T13:28:00Z</time></trkpt><trkpt lat="44.50285877057466" lon="11.382954614178987"><ele>46.0</ele><time>2026-05-03T13:28:01Z</time></trkpt><trkpt lat="44.503093187986394" lon="11.382760103435796"><ele>44.0</ele><time>2026-05-03T13:28:02Z</time></trkpt><trkpt lat="44.503328687788255" lon="11.38257733766912"><ele>44.0</ele><time>2026-05-03T13:28:03Z</time></trkpt><trkpt lat="44.503572676391336" lon="11.382404370680135"><ele>44.0</ele><time>2026-05-03T13:28:04Z</time></trkpt><trkpt lat="44.503820462258254" lon="11.382246540977796"><ele>44.0</ele><time>2026-05-03T13:28:05Z</time></trkpt><trkpt lat="44.50407599759761" lon="11.382109016729398"><ele>44.0</ele><time>2026-05-03T13:28:06Z</time></trkpt><trkpt lat="44.504333751658834" lon="11.381987714304834"><ele>45.0</ele><time>2026-05-03T13:28:07Z</time></trkpt><trkpt lat="44.50459339023575" lon="11.381887029601666"><ele>46.0</ele><time>2026-05-03T13:28:08Z</time></trkpt><trkpt lat="44.504853252440206" lon="11.381806905822383"><ele>46.0</ele><time>2026-05-03T13:28:09Z</time></trkpt><trkpt lat="44.50510543881663" lon="11.381739294660504"><ele>46.0</ele><time>2026-05-03T13:28:10Z</time></trkpt><trkpt lat="44.505354966852735" lon="11.381683654968265"><ele>46.0</ele><time>2026-05-03T13:28:11Z</time></trkpt><trkpt lat="44.50560255754685" lon="11.381638570034841"><ele>46.0</ele><time>2026-05-03T13:28:12Z</time></trkpt><trkpt lat="44.50584599175609" lon="11.381608746728515"><ele>46.0</ele><time>2026-05-03T13:28:13Z</time></trkpt><trkpt lat="44.50608611002895" lon="11.38158706905111"><ele>46.0</ele><time>2026-05-03T13:28:14Z</time></trkpt><trkpt lat="44.50630848966984" lon="11.381569664038075"><ele>45.66666666666667</ele><time>2026-05-03T13:28:15Z</time></trkpt><trkpt lat="44.50652252677546" lon="11.38155167511052"><ele>45.333333333333336</ele><time>2026-05-03T13:28:16Z</time></trkpt><trkpt lat="44.50673240544368" lon="11.381537727079168"><ele>45.0</ele><time>2026-05-03T13:28:17Z</time></trkpt><trkpt lat="44.50694291373375" lon="11.381527937429384"><ele>44.666666666666664</ele><time>2026-05-03T13:28:18Z</time></trkpt><trkpt lat="44.50715312406881" lon="11.38151978465023"><ele>44.33333333333333</ele><time>2026-05-03T13:28:19Z</time></trkpt><trkpt lat="44.507358726136296" lon="11.381510828268986"><ele>44.0</ele><time>2026-05-03T13:28:20Z</time></trkpt><trkpt lat="44.5075614771991" lon="11.3815013519921"><ele>44.0</ele><time>2026-05-03T13:28:21Z</time></trkpt><trkpt lat="44.507762965734685" lon="11.381492475619883"><ele>44.0</ele><time>2026-05-03T13:28:21.999Z</time></trkpt><trkpt lat="44.5079677975842" lon="11.381476933517725"><ele>44.0</ele><time>2026-05-03T13:28:22.999Z</time></trkpt><trkpt lat="44.508172683551926" lon="11.381451802217878"><ele>43.666666666666664</ele><time>2026-05-03T13:28:23.999Z</time></trkpt><trkpt lat="44.508380805233905" lon="11.38142403385857"><ele>43.333333333333336</ele><time>2026-05-03T13:28:24.999Z</time></trkpt><trkpt lat="44.50859245592671" lon="11.381389506099884"><ele>43.0</ele><time>2026-05-03T13:28:25.999Z</time></trkpt><trkpt lat="44.5088074820027" lon="11.381344539363631"><ele>44.333333333333336</ele><time>2026-05-03T13:28:26.999Z</time></trkpt><trkpt lat="44.50902574355657" lon="11.38128711276652"><ele>45.666666666666664</ele><time>2026-05-03T13:28:27.999Z</time></trkpt><trkpt lat="44.509247310969506" lon="11.381221260940402"><ele>47.0</ele><time>2026-05-03T13:28:28.999Z</time></trkpt><trkpt lat="44.50947715374168" lon="11.381142190298206"><ele>45.0</ele><time>2026-05-03T13:28:29.999Z</time></trkpt><trkpt lat="44.50968829540242" lon="11.381067416006612"><ele>43.0</ele><time>2026-05-03T13:28:30.999Z</time></trkpt><trkpt lat="44.509926128259444" lon="11.380960782009865"><ele>43.0</ele><time>2026-05-03T13:28:31.999Z</time></trkpt><trkpt lat="44.510156314897785" lon="11.380838713982573"><ele>43.0</ele><time>2026-05-03T13:28:32.999Z</time></trkpt><trkpt lat="44.51038396285247" lon="11.380710346343996"><ele>42.5</ele><time>2026-05-03T13:28:33.999Z</time></trkpt><trkpt lat="44.510607595374914" lon="11.380565947588657"><ele>42.0</ele><time>2026-05-03T13:28:34.999Z</time></trkpt><trkpt lat="44.510819958784296" lon="11.38041033651978"><ele>42.0</ele><time>2026-05-03T13:28:35.999Z</time></trkpt><trkpt lat="44.511034226407475" lon="11.38025425586482"><ele>42.0</ele><time>2026-05-03T13:28:36.999Z</time></trkpt><trkpt lat="44.511231845138084" lon="11.380095917176185"><ele>42.0</ele><time>2026-05-03T13:28:37.999Z</time></trkpt><trkpt lat="44.511423601867456" lon="11.379936952225542"><ele>42.0</ele><time>2026-05-03T13:28:38.999Z</time></trkpt><trkpt lat="44.511615883265456" lon="11.379788955179714"><ele>42.0</ele><time>2026-05-03T13:28:39.999Z</time></trkpt><trkpt lat="44.51180737934008" lon="11.379636538391939"><ele>41.333333333333336</ele><time>2026-05-03T13:28:40.999Z</time></trkpt><trkpt lat="44.511998001529285" lon="11.379490355607466"><ele>40.66666666666667</ele><time>2026-05-03T13:28:41.999Z</time></trkpt><trkpt lat="44.51218635473242" lon="11.37934286572998"><ele>40.0</ele><time>2026-05-03T13:28:42.999Z</time></trkpt><trkpt lat="44.512373030907455" lon="11.379191186108075"><ele>40.333333333333336</ele><time>2026-05-03T13:28:43.999Z</time></trkpt><trkpt lat="44.51255606387464" lon="11.379047490620447"><ele>40.666666666666664</ele><time>2026-05-03T13:28:44.999Z</time></trkpt><trkpt lat="44.51273501918951" lon="11.3789042805077"><ele>41.0</ele><time>2026-05-03T13:28:45.999Z</time></trkpt><trkpt lat="44.512908147901264" lon="11.378766786136012"><ele>41.0</ele><time>2026-05-03T13:28:46.999Z</time></trkpt><trkpt lat="44.5130804207788" lon="11.378634646163537"><ele>41.0</ele><time>2026-05-03T13:28:47.999Z</time></trkpt><trkpt lat="44.513252759569454" lon="11.378503734092074"><ele>41.0</ele><time>2026-05-03T13:28:48.999Z</time></trkpt><trkpt lat="44.51342763014695" lon="11.378370682241073"><ele>41.0</ele><time>2026-05-03T13:28:49.999Z</time></trkpt><trkpt lat="44.51360944924287" lon="11.378227777778514"><ele>41.0</ele><time>2026-05-03T13:28:50.999Z</time></trkpt><trkpt lat="44.51379110913326" lon="11.378080092035832"><ele>41.0</ele><time>2026-05-03T13:28:51.999Z</time></trkpt><trkpt lat="44.51397388555019" lon="11.377936234846674"><ele>41.0</ele><time>2026-05-03T13:28:52.999Z</time></trkpt><trkpt lat="44.51415241971059" lon="11.377794437789094"><ele>41.0</ele><time>2026-05-03T13:28:53.999Z</time></trkpt><trkpt lat="44.51433148970403" lon="11.377656462042244"><ele>41.0</ele><time>2026-05-03T13:28:54.999Z</time></trkpt><trkpt lat="44.514504414976564" lon="11.377516433685647"><ele>41.33333333333333</ele><time>2026-05-03T13:28:55.999Z</time></trkpt><trkpt lat="44.51467793006703" lon="11.377379964669709"><ele>41.666666666666664</ele><time>2026-05-03T13:28:56.999Z</time></trkpt><trkpt lat="44.51486092016828" lon="11.37723995384059"><ele>42.0</ele><time>2026-05-03T13:28:57.999Z</time></trkpt><trkpt lat="44.51503756937675" lon="11.37709648757455"><ele>42.0</ele><time>2026-05-03T13:28:58.999Z</time></trkpt><trkpt lat="44.51521226662755" lon="11.376944374862306"><ele>42.0</ele><time>2026-05-03T13:28:59.999Z</time></trkpt><trkpt lat="44.51538164181933" lon="11.37678740066438"><ele>42.0</ele><time>2026-05-03T13:29:00.999Z</time></trkpt><trkpt lat="44.515552317155894" lon="11.376630638036925"><ele>42.0</ele><time>2026-05-03T13:29:01.999Z</time></trkpt><trkpt lat="44.51572390795775" lon="11.376473520895985"><ele>42.0</ele><time>2026-05-03T13:29:02.999Z</time></trkpt><trkpt lat="44.515892404742935" lon="11.376311291891769"><ele>42.0</ele><time>2026-05-03T13:29:03.999Z</time></trkpt><trkpt lat="44.51605414624902" lon="11.376148363825859"><ele>40.666666666666664</ele><time>2026-05-03T13:29:04.999Z</time></trkpt><trkpt lat="44.51621390725497" lon="11.375982984886425"><ele>39.33333333333333</ele><time>2026-05-03T13:29:05.999Z</time></trkpt><trkpt lat="44.51636985675526" lon="11.37581372051529"><ele>38.0</ele><time>2026-05-03T13:29:06.999Z</time></trkpt><trkpt lat="44.51652704952732" lon="11.375637618056782"><ele>37.33333333333333</ele><time>2026-05-03T13:29:07.999Z</time></trkpt><trkpt lat="44.516675061822404" lon="11.375438646899692"><ele>36.666666666666664</ele><time>2026-05-03T13:29:08.999Z</time></trkpt><trkpt lat="44.51683812360576" lon="11.375227643481699"><ele>36.0</ele><time>2026-05-03T13:29:09.999Z</time></trkpt><trkpt lat="44.51701466171871" lon="11.375010312965271"><ele>36.0</ele><time>2026-05-03T13:29:10.999Z</time></trkpt><trkpt lat="44.51718945003319" lon="11.374805826515908"><ele>36.0</ele><time>2026-05-03T13:29:11.999Z</time></trkpt><trkpt lat="44.517359964932865" lon="11.374588668436184"><ele>36.0</ele><time>2026-05-03T13:29:12.999Z</time></trkpt><trkpt lat="44.517525174800696" lon="11.374360700136062"><ele>36.0</ele><time>2026-05-03T13:29:13.999Z</time></trkpt><trkpt lat="44.51768462993152" lon="11.374142229401475"><ele>36.0</ele><time>2026-05-03T13:29:14.999Z</time></trkpt><trkpt lat="44.51783313130212" lon="11.373934470333255"><ele>36.0</ele><time>2026-05-03T13:29:15.999Z</time></trkpt><trkpt lat="44.51798060317201" lon="11.373724168345246"><ele>36.0</ele><time>2026-05-03T13:29:16.999Z</time></trkpt><trkpt lat="44.518120732625306" lon="11.373515698871598"><ele>36.0</ele><time>2026-05-03T13:29:17.999Z</time></trkpt><trkpt lat="44.518248773203865" lon="11.37329847956415"><ele>36.0</ele><time>2026-05-03T13:29:18.999Z</time></trkpt><trkpt lat="44.51837894249488" lon="11.373083038671464"><ele>36.0</ele><time>2026-05-03T13:29:19.999Z</time></trkpt><trkpt lat="44.5185068657716" lon="11.372870878349927"><ele>36.0</ele><time>2026-05-03T13:29:20.999Z</time></trkpt><trkpt lat="44.51863247928535" lon="11.372657432151687"><ele>36.0</ele><time>2026-05-03T13:29:21.999Z</time></trkpt><trkpt lat="44.51875014250277" lon="11.372444517628226"><ele>36.0</ele><time>2026-05-03T13:29:22.999Z</time></trkpt><trkpt lat="44.51886500361776" lon="11.372230832324147"><ele>36.666666666666664</ele><time>2026-05-03T13:29:23.999Z</time></trkpt><trkpt lat="44.51898076608116" lon="11.372016313721046"><ele>37.33333333333333</ele><time>2026-05-03T13:29:24.999Z</time></trkpt><trkpt lat="44.519090065932694" lon="11.371804584554944"><ele>38.0</ele><time>2026-05-03T13:29:25.999Z</time></trkpt><trkpt lat="44.51918846087144" lon="11.371592080258313"><ele>38.0</ele><time>2026-05-03T13:29:26.999Z</time></trkpt><trkpt lat="44.519293868087296" lon="11.371394480963025"><ele>38.0</ele><time>2026-05-03T13:29:27.999Z</time></trkpt><trkpt lat="44.519389687344095" lon="11.37119649834609"><ele>38.0</ele><time>2026-05-03T13:29:28.999Z</time></trkpt><trkpt lat="44.51948281310409" lon="11.370997168831867"><ele>38.0</ele><time>2026-05-03T13:29:29.999Z</time></trkpt><trkpt lat="44.519572660432345" lon="11.370810032165188"><ele>38.0</ele><time>2026-05-03T13:29:30.999Z</time></trkpt><trkpt lat="44.5196639441542" lon="11.370623758918573"><ele>38.0</ele><time>2026-05-03T13:29:31.999Z</time></trkpt><trkpt lat="44.51976693433428" lon="11.370443385920101"><ele>38.0</ele><time>2026-05-03T13:29:32.999Z</time></trkpt><trkpt lat="44.5198640011125" lon="11.370259787173632"><ele>38.0</ele><time>2026-05-03T13:29:33.999Z</time></trkpt><trkpt lat="44.519945638099095" lon="11.370087915384554"><ele>38.0</ele><time>2026-05-03T13:29:34.999Z</time></trkpt><trkpt lat="44.520026021431654" lon="11.369919763702994"><ele>38.0</ele><time>2026-05-03T13:29:35.999Z</time></trkpt><trkpt lat="44.52010451191976" lon="11.36975597311488"><ele>38.0</ele><time>2026-05-03T13:29:36.999Z</time></trkpt><trkpt lat="44.52018201330849" lon="11.36959146523349"><ele>38.0</ele><time>2026-05-03T13:29:37.999Z</time></trkpt><trkpt lat="44.520262727713025" lon="11.36942105009899"><ele>38.0</ele><time>2026-05-03T13:29:38.999Z</time></trkpt><trkpt lat="44.5203460850035" lon="11.369243842723026"><ele>37.666666666666664</ele><time>2026-05-03T13:29:39.999Z</time></trkpt><trkpt lat="44.52043309915583" lon="11.369061445698602"><ele>37.333333333333336</ele><time>2026-05-03T13:29:40.999Z</time></trkpt><trkpt lat="44.52052092669172" lon="11.368876246986533"><ele>37.0</ele><time>2026-05-03T13:29:41.999Z</time></trkpt><trkpt lat="44.52061152578621" lon="11.368685258908092"><ele>36.66666666666667</ele><time>2026-05-03T13:29:42.999Z</time></trkpt><trkpt lat="44.52070026547695" lon="11.368497971214909"><ele>36.333333333333336</ele><time>2026-05-03T13:29:43.999Z</time></trkpt><trkpt lat="44.52078627705087" lon="11.368316697867716"><ele>36.0</ele><time>2026-05-03T13:29:44.999Z</time></trkpt><trkpt lat="44.52087443250134" lon="11.368132337208008"><ele>36.333333333333336</ele><time>2026-05-03T13:29:45.999Z</time></trkpt><trkpt lat="44.52096244257618" lon="11.367948809373154"><ele>36.66666666666667</ele><time>2026-05-03T13:29:46.999Z</time></trkpt><trkpt lat="44.5210541082793" lon="11.367763798662738"><ele>37.0</ele><time>2026-05-03T13:29:48Z</time></trkpt><trkpt lat="44.52114728812818" lon="11.367574363943534"><ele>37.0</ele><time>2026-05-03T13:29:49Z</time></trkpt><trkpt lat="44.52124275848733" lon="11.367376431836053"><ele>37.0</ele><time>2026-05-03T13:29:50Z</time></trkpt><trkpt lat="44.521337278547364" lon="11.367177822269616"><ele>37.0</ele><time>2026-05-03T13:29:51Z</time></trkpt><trkpt lat="44.52142967282304" lon="11.366983010576138"><ele>37.0</ele><time>2026-05-03T13:29:52Z</time></trkpt><trkpt lat="44.521521213478486" lon="11.366789251223596"><ele>37.0</ele><time>2026-05-03T13:29:53Z</time></trkpt><trkpt lat="44.5216114059616" lon="11.366604556350506"><ele>37.0</ele><time>2026-05-03T13:29:54Z</time></trkpt><trkpt lat="44.52169522462813" lon="11.366433257396196"><ele>37.2</ele><time>2026-05-03T13:29:55Z</time></trkpt><trkpt lat="44.52177011451336" lon="11.366275750097419"><ele>37.400000000000006</ele><time>2026-05-03T13:29:56Z</time></trkpt><trkpt lat="44.52183164225286" lon="11.366144487443313"><ele>37.599999999999994</ele><time>2026-05-03T13:29:57Z</time></trkpt><trkpt lat="44.52188619222536" lon="11.36603117499334"><ele>37.8</ele><time>2026-05-03T13:29:58Z</time></trkpt><trkpt lat="44.5219307831308" lon="11.365938449647999"><ele>38.0</ele><time>2026-05-03T13:29:59Z</time></trkpt><trkpt lat="44.521985718979785" lon="11.365829121424186"><ele>38.0</ele><time>2026-05-03T13:30:01Z</time></trkpt><trkpt lat="44.52202979028562" lon="11.365741527239928"><ele>38.0</ele><time>2026-05-03T13:30:04Z</time></trkpt><trkpt lat="44.522067638945266" lon="11.365668870855918"><ele>38.0</ele><time>2026-05-03T13:30:07Z</time></trkpt><trkpt lat="44.52211592324338" lon="11.365564932131578"><ele>38.0</ele><time>2026-05-03T13:30:12Z</time></trkpt><trkpt lat="44.52216491976884" lon="11.36546619191729"><ele>38.0</ele><time>2026-05-03T13:30:14Z</time></trkpt><trkpt lat="44.52223987073297" lon="11.365349322726559"><ele>38.0</ele><time>2026-05-03T13:30:15.999Z</time></trkpt><trkpt lat="44.52228381092651" lon="11.365259857989315"><ele>38.199999999999996</ele><time>2026-05-03T13:30:16.999Z</time></trkpt><trkpt lat="44.522337713035036" lon="11.365147273281945"><ele>38.4</ele><time>2026-05-03T13:30:17.999Z</time></trkpt><trkpt lat="44.522397198695266" lon="11.365030541078845"><ele>38.599999999999994</ele><time>2026-05-03T13:30:18.999Z</time></trkpt><trkpt lat="44.52246185289154" lon="11.36489528566689"><ele>38.8</ele><time>2026-05-03T13:30:19.999Z</time></trkpt><trkpt lat="44.52252925113289" lon="11.364754162407207"><ele>39.0</ele><time>2026-05-03T13:30:20.999Z</time></trkpt><trkpt lat="44.52260245634385" lon="11.364601027410933"><ele>39.0</ele><time>2026-05-03T13:30:21.999Z</time></trkpt><trkpt lat="44.52267756227268" lon="11.364442242650767"><ele>39.0</ele><time>2026-05-03T13:30:22.999Z</time></trkpt><trkpt lat="44.52275413552572" lon="11.36427354281138"><ele>39.0</ele><time>2026-05-03T13:30:23.999Z</time></trkpt><trkpt lat="44.522832009486805" lon="11.364096891143308"><ele>39.0</ele><time>2026-05-03T13:30:24.999Z</time></trkpt><trkpt lat="44.52291424491243" lon="11.36391443000553"><ele>38.0</ele><time>2026-05-03T13:30:25.999Z</time></trkpt><trkpt lat="44.52300325282403" lon="11.363722748479548"><ele>37.0</ele><time>2026-05-03T13:30:26.999Z</time></trkpt><trkpt lat="44.523096377209555" lon="11.363524066344045"><ele>36.0</ele><time>2026-05-03T13:30:27.999Z</time></trkpt><trkpt lat="44.52318914624714" lon="11.363326311019884"><ele>36.0</ele><time>2026-05-03T13:30:28.999Z</time></trkpt><trkpt lat="44.52328537213342" lon="11.36311769345749"><ele>36.0</ele><time>2026-05-03T13:30:29.999Z</time></trkpt><trkpt lat="44.52338078250334" lon="11.362914941138477"><ele>36.0</ele><time>2026-05-03T13:30:30.999Z</time></trkpt><trkpt lat="44.52347278781291" lon="11.362723983941907"><ele>36.0</ele><time>2026-05-03T13:30:31.999Z</time></trkpt><trkpt lat="44.52356127230009" lon="11.362534882034545"><ele>36.0</ele><time>2026-05-03T13:30:32.999Z</time></trkpt><trkpt lat="44.52365075095727" lon="11.362348361258539"><ele>36.0</ele><time>2026-05-03T13:30:33.999Z</time></trkpt><trkpt lat="44.523738320416925" lon="11.362161733912696"><ele>36.0</ele><time>2026-05-03T13:30:34.999Z</time></trkpt><trkpt lat="44.52382655895521" lon="11.361975151522657"><ele>36.0</ele><time>2026-05-03T13:30:35.999Z</time></trkpt><trkpt lat="44.52391355334588" lon="11.361792821411752"><ele>36.0</ele><time>2026-05-03T13:30:36.999Z</time></trkpt><trkpt lat="44.52400180627764" lon="11.361609572548184"><ele>36.0</ele><time>2026-05-03T13:30:37.999Z</time></trkpt><trkpt lat="44.524091670053366" lon="11.361425871250752"><ele>36.0</ele><time>2026-05-03T13:30:38.999Z</time></trkpt><trkpt lat="44.52418281650506" lon="11.361238691573696"><ele>36.0</ele><time>2026-05-03T13:30:39.999Z</time></trkpt><trkpt lat="44.52427446941532" lon="11.361046323293236"><ele>36.333333333333336</ele><time>2026-05-03T13:30:40.999Z</time></trkpt><trkpt lat="44.52436973883915" lon="11.360841892648173"><ele>36.66666666666667</ele><time>2026-05-03T13:30:41.999Z</time></trkpt><trkpt lat="44.524467352049776" lon="11.360639001538358"><ele>37.0</ele><time>2026-05-03T13:30:42.999Z</time></trkpt><trkpt lat="44.524569219373426" lon="11.360429486176983"><ele>37.66666666666667</ele><time>2026-05-03T13:30:43.999Z</time></trkpt><trkpt lat="44.524673643494516" lon="11.360214030717003"><ele>38.333333333333336</ele><time>2026-05-03T13:30:44.999Z</time></trkpt><trkpt lat="44.524778559901044" lon="11.359994227350033"><ele>39.0</ele><time>2026-05-03T13:30:45.999Z</time></trkpt><trkpt lat="44.52488359567138" lon="11.35977282651236"><ele>39.0</ele><time>2026-05-03T13:30:46.999Z</time></trkpt><trkpt lat="44.524990204544345" lon="11.359545579185628"><ele>39.0</ele><time>2026-05-03T13:30:47.999Z</time></trkpt><trkpt lat="44.52509377052016" lon="11.359325761712629"><ele>39.0</ele><time>2026-05-03T13:30:48.999Z</time></trkpt><trkpt lat="44.525194491593005" lon="11.359120723167553"><ele>39.0</ele><time>2026-05-03T13:30:49.999Z</time></trkpt><trkpt lat="44.52528983369143" lon="11.358928326038335"><ele>39.0</ele><time>2026-05-03T13:30:50.999Z</time></trkpt><trkpt lat="44.52537529256224" lon="11.358749772443016"><ele>39.0</ele><time>2026-05-03T13:30:51.999Z</time></trkpt><trkpt lat="44.52545018744758" lon="11.358588749827875"><ele>38.5</ele><time>2026-05-03T13:30:52.999Z</time></trkpt><trkpt lat="44.52551823708043" lon="11.358438398047776"><ele>38.0</ele><time>2026-05-03T13:30:53.999Z</time></trkpt><trkpt lat="44.52558617836637" lon="11.358296060455963"><ele>37.5</ele><time>2026-05-03T13:30:54.999Z</time></trkpt><trkpt lat="44.525651268957105" lon="11.358157817578435"><ele>37.0</ele><time>2026-05-03T13:30:55.999Z</time></trkpt><trkpt lat="44.5257189128281" lon="11.3580132895051"><ele>36.75</ele><time>2026-05-03T13:30:56.999Z</time></trkpt><trkpt lat="44.52578947330588" lon="11.35786199446028"><ele>36.5</ele><time>2026-05-03T13:30:57.999Z</time></trkpt><trkpt lat="44.52586243626766" lon="11.357712424855434"><ele>36.25</ele><time>2026-05-03T13:30:58.999Z</time></trkpt><trkpt lat="44.525932063063365" lon="11.357567497129665"><ele>36.0</ele><time>2026-05-03T13:30:59.999Z</time></trkpt><trkpt lat="44.52599834743761" lon="11.357421638938114"><ele>36.0</ele><time>2026-05-03T13:31:00.999Z</time></trkpt><trkpt lat="44.5260667172282" lon="11.35727632554655"><ele>36.0</ele><time>2026-05-03T13:31:01.999Z</time></trkpt><trkpt lat="44.5261318292389" lon="11.357140518501499"><ele>36.0</ele><time>2026-05-03T13:31:02.999Z</time></trkpt><trkpt lat="44.52619142589688" lon="11.35701059809374"><ele>36.0</ele><time>2026-05-03T13:31:03.999Z</time></trkpt><trkpt lat="44.52624574361752" lon="11.356891243514037"><ele>36.0</ele><time>2026-05-03T13:31:04.999Z</time></trkpt><trkpt lat="44.52629033528678" lon="11.356797350711735"><ele>36.0</ele><time>2026-05-03T13:31:05.999Z</time></trkpt><trkpt lat="44.52634171547945" lon="11.356679657106136"><ele>36.0</ele><time>2026-05-03T13:31:07.999Z</time></trkpt><trkpt lat="44.52637918482577" lon="11.356598387539265"><ele>36.0</ele><time>2026-05-03T13:31:09.999Z</time></trkpt><trkpt lat="44.52643996913241" lon="11.356488546191843"><ele>36.0</ele><time>2026-05-03T13:31:11.999Z</time></trkpt><trkpt lat="44.52648747844173" lon="11.356408700437452"><ele>36.0</ele><time>2026-05-03T13:31:12.999Z</time></trkpt><trkpt lat="44.52654016259006" lon="11.356312320928135"><ele>36.166666666666664</ele><time>2026-05-03T13:31:13.999Z</time></trkpt><trkpt lat="44.5265904361264" lon="11.356201432200425"><ele>36.333333333333336</ele><time>2026-05-03T13:31:14.999Z</time></trkpt><trkpt lat="44.526638028890986" lon="11.35608408095982"><ele>36.5</ele><time>2026-05-03T13:31:15.999Z</time></trkpt><trkpt lat="44.52668080026875" lon="11.355975671260381"><ele>36.66666666666667</ele><time>2026-05-03T13:31:16.999Z</time></trkpt><trkpt lat="44.52672325226145" lon="11.355870220008445"><ele>36.833333333333336</ele><time>2026-05-03T13:31:17.999Z</time></trkpt><trkpt lat="44.52676140482576" lon="11.355775671864151"><ele>37.0</ele><time>2026-05-03T13:31:18.999Z</time></trkpt><trkpt lat="44.526798484661434" lon="11.355683068132977"><ele>37.0</ele><time>2026-05-03T13:31:19.999Z</time></trkpt><trkpt lat="44.52683739333883" lon="11.355585534596937"><ele>37.0</ele><time>2026-05-03T13:31:20.999Z</time></trkpt><trkpt lat="44.52687646213423" lon="11.355486475835017"><ele>37.0</ele><time>2026-05-03T13:31:21.999Z</time></trkpt><trkpt lat="44.526915825087876" lon="11.35538588277921"><ele>37.0</ele><time>2026-05-03T13:31:22.999Z</time></trkpt><trkpt lat="44.526955972373955" lon="11.355286433913616"><ele>37.0</ele><time>2026-05-03T13:31:23.999Z</time></trkpt><trkpt lat="44.52699537746499" lon="11.355188214161974"><ele>37.0</ele><time>2026-05-03T13:31:24.999Z</time></trkpt><trkpt lat="44.527031888963684" lon="11.355092043665028"><ele>36.66666666666667</ele><time>2026-05-03T13:31:25.999Z</time></trkpt><trkpt lat="44.52706851334307" lon="11.355002966750703"><ele>36.333333333333336</ele><time>2026-05-03T13:31:26.999Z</time></trkpt><trkpt lat="44.52710467223547" lon="11.35492134164077"><ele>36.0</ele><time>2026-05-03T13:31:27.999Z</time></trkpt><trkpt lat="44.527150491841624" lon="11.354791187581464"><ele>35.666666666666664</ele><time>2026-05-03T13:31:29.999Z</time></trkpt><trkpt lat="44.52719644453502" lon="11.354669852275132"><ele>35.33333333333333</ele><time>2026-05-03T13:31:31.999Z</time></trkpt><trkpt lat="44.52723893472583" lon="11.354540964280368"><ele>35.0</ele><time>2026-05-03T13:31:33.999Z</time></trkpt><trkpt lat="44.52729460858719" lon="11.354375218955575"><ele>34.83333333333333</ele><time>2026-05-03T13:31:35.999Z</time></trkpt><trkpt lat="44.52732570393129" lon="11.354279533596056"><ele>34.666666666666664</ele><time>2026-05-03T13:31:36.999Z</time></trkpt><trkpt lat="44.52736023743129" lon="11.354175876878571"><ele>34.5</ele><time>2026-05-03T13:31:37.999Z</time></trkpt><trkpt lat="44.52739581039385" lon="11.354069482209761"><ele>34.333333333333336</ele><time>2026-05-03T13:31:38.999Z</time></trkpt><trkpt lat="44.52743465233671" lon="11.35395643809513"><ele>34.16666666666667</ele><time>2026-05-03T13:31:39.999Z</time></trkpt><trkpt lat="44.52747390336664" lon="11.35383569442968"><ele>34.0</ele><time>2026-05-03T13:31:40.999Z</time></trkpt><trkpt lat="44.5275151993103" lon="11.353710254248107"><ele>34.0</ele><time>2026-05-03T13:31:41.999Z</time></trkpt><trkpt lat="44.52755685823513" lon="11.353578363036663"><ele>34.0</ele><time>2026-05-03T13:31:42.999Z</time></trkpt><trkpt lat="44.527602852061705" lon="11.353441059002249"><ele>34.0</ele><time>2026-05-03T13:31:43.999Z</time></trkpt><trkpt lat="44.52764954349971" lon="11.353294265204735"><ele>34.0</ele><time>2026-05-03T13:31:44.999Z</time></trkpt><trkpt lat="44.52769842417801" lon="11.353140245175908"><ele>34.0</ele><time>2026-05-03T13:31:45.999Z</time></trkpt><trkpt lat="44.52775325127352" lon="11.35297702268665"><ele>34.0</ele><time>2026-05-03T13:31:46.999Z</time></trkpt><trkpt lat="44.52780645175384" lon="11.35280637299805"><ele>34.0</ele><time>2026-05-03T13:31:47.999Z</time></trkpt><trkpt lat="44.527860538410195" lon="11.352633599381592"><ele>34.0</ele><time>2026-05-03T13:31:48.999Z</time></trkpt><trkpt lat="44.52791726378073" lon="11.352457844227287"><ele>34.0</ele><time>2026-05-03T13:31:49.999Z</time></trkpt><trkpt lat="44.527975528457894" lon="11.35228037160255"><ele>34.5</ele><time>2026-05-03T13:31:50.999Z</time></trkpt><trkpt lat="44.52803452031642" lon="11.352100376959388"><ele>35.0</ele><time>2026-05-03T13:31:51.999Z</time></trkpt><trkpt lat="44.52809090078691" lon="11.351918271627353"><ele>35.5</ele><time>2026-05-03T13:31:52.999Z</time></trkpt><trkpt lat="44.52814788030691" lon="11.351734156532743"><ele>36.0</ele><time>2026-05-03T13:31:53.999Z</time></trkpt><trkpt lat="44.528209322356695" lon="11.351541124830687"><ele>35.666666666666664</ele><time>2026-05-03T13:31:54.999Z</time></trkpt><trkpt lat="44.52827285737294" lon="11.351347393596374"><ele>35.33333333333333</ele><time>2026-05-03T13:31:55.999Z</time></trkpt><trkpt lat="44.52833812822323" lon="11.351148968917476"><ele>35.0</ele><time>2026-05-03T13:31:56.999Z</time></trkpt><trkpt lat="44.528404565980686" lon="11.350945424336755"><ele>35.0</ele><time>2026-05-03T13:31:57.999Z</time></trkpt><trkpt lat="44.52847129848021" lon="11.350734830434275"><ele>35.0</ele><time>2026-05-03T13:31:58.999Z</time></trkpt><trkpt lat="44.528539596724436" lon="11.350521705548166"><ele>35.0</ele><time>2026-05-03T13:31:59.999Z</time></trkpt><trkpt lat="44.52860885518024" lon="11.350305045297162"><ele>35.33333333333333</ele><time>2026-05-03T13:32:00.999Z</time></trkpt><trkpt lat="44.528679563628174" lon="11.350083277866025"><ele>35.666666666666664</ele><time>2026-05-03T13:32:01.999Z</time></trkpt><trkpt lat="44.52875090974137" lon="11.349859176377267"><ele>36.0</ele><time>2026-05-03T13:32:02.999Z</time></trkpt><trkpt lat="44.528821185317206" lon="11.349634520284287"><ele>37.0</ele><time>2026-05-03T13:32:03.999Z</time></trkpt><trkpt lat="44.528891000248755" lon="11.349410212711124"><ele>38.0</ele><time>2026-05-03T13:32:04.999Z</time></trkpt><trkpt lat="44.52895960001912" lon="11.349188700711212"><ele>39.0</ele><time>2026-05-03T13:32:05.999Z</time></trkpt><trkpt lat="44.52902555704487" lon="11.34896360113621"><ele>38.666666666666664</ele><time>2026-05-03T13:32:06.999Z</time></trkpt><trkpt lat="44.529092554963306" lon="11.348726310961021"><ele>38.33333333333333</ele><time>2026-05-03T13:32:07.999Z</time></trkpt><trkpt lat="44.529164127528404" lon="11.348477659996586"><ele>38.0</ele><time>2026-05-03T13:32:08.999Z</time></trkpt><trkpt lat="44.52923597798362" lon="11.348220726923575"><ele>37.666666666666664</ele><time>2026-05-03T13:32:09.999Z</time></trkpt><trkpt lat="44.529313131288404" lon="11.347945559367435"><ele>37.333333333333336</ele><time>2026-05-03T13:32:10.999Z</time></trkpt><trkpt lat="44.52939495412267" lon="11.347654321496014"><ele>37.0</ele><time>2026-05-03T13:32:11.999Z</time></trkpt><trkpt lat="44.52947887987869" lon="11.347358005003395"><ele>36.66666666666667</ele><time>2026-05-03T13:32:12.999Z</time></trkpt><trkpt lat="44.529563516297046" lon="11.347059990573577"><ele>36.333333333333336</ele><time>2026-05-03T13:32:13.999Z</time></trkpt><trkpt lat="44.52960244103267" lon="11.346867364570736"><ele>36.0</ele><time>2026-05-03T13:32:14.999Z</time></trkpt><trkpt lat="44.5296688929582" lon="11.346613499446454"><ele>35.666666666666664</ele><time>2026-05-03T13:32:15.999Z</time></trkpt><trkpt lat="44.529723580900665" lon="11.346369586573454"><ele>35.33333333333333</ele><time>2026-05-03T13:32:16.999Z</time></trkpt><trkpt lat="44.52977462780481" lon="11.346143715255677"><ele>35.0</ele><time>2026-05-03T13:32:17.999Z</time></trkpt><trkpt lat="44.5298139150889" lon="11.34593669345281"><ele>35.0</ele><time>2026-05-03T13:32:18.999Z</time></trkpt><trkpt lat="44.52985514655675" lon="11.345752891928504"><ele>35.0</ele><time>2026-05-03T13:32:19.999Z</time></trkpt><trkpt lat="44.529905980075945" lon="11.345584934995635"><ele>35.0</ele><time>2026-05-03T13:32:20.999Z</time></trkpt><trkpt lat="44.52995668062413" lon="11.345392482371457"><ele>35.0</ele><time>2026-05-03T13:32:21.999Z</time></trkpt><trkpt lat="44.529999682180225" lon="11.345207901615913"><ele>35.0</ele><time>2026-05-03T13:32:22.999Z</time></trkpt><trkpt lat="44.530034017132955" lon="11.3450290818702"><ele>35.0</ele><time>2026-05-03T13:32:23.999Z</time></trkpt><trkpt lat="44.5300524783744" lon="11.34484861321105"><ele>35.0</ele><time>2026-05-03T13:32:24.999Z</time></trkpt><trkpt lat="44.530079236134604" lon="11.344667552365783"><ele>35.0</ele><time>2026-05-03T13:32:25.999Z</time></trkpt><trkpt lat="44.53010734842877" lon="11.34450316163557"><ele>34.4</ele><time>2026-05-03T13:32:26.999Z</time></trkpt><trkpt lat="44.530130714515685" lon="11.344361262165812"><ele>33.8</ele><time>2026-05-03T13:32:27.999Z</time></trkpt><trkpt lat="44.530158055439884" lon="11.344220821001613"><ele>33.2</ele><time>2026-05-03T13:32:28.999Z</time></trkpt><trkpt lat="44.530184182355356" lon="11.34408783026715"><ele>32.6</ele><time>2026-05-03T13:32:29.999Z</time></trkpt><trkpt lat="44.53020870629156" lon="11.34396030619406"><ele>32.0</ele><time>2026-05-03T13:32:30.999Z</time></trkpt><trkpt lat="44.53023339603765" lon="11.343832414221351"><ele>31.200000000000003</ele><time>2026-05-03T13:32:31.999Z</time></trkpt><trkpt lat="44.53025527985213" lon="11.343697726089166"><ele>30.400000000000002</ele><time>2026-05-03T13:32:32.999Z</time></trkpt><trkpt lat="44.530280383009355" lon="11.343562172060292"><ele>29.599999999999998</ele><time>2026-05-03T13:32:33.999Z</time></trkpt><trkpt lat="44.53030386077808" lon="11.343418067673827"><ele>28.799999999999997</ele><time>2026-05-03T13:32:34.999Z</time></trkpt><trkpt lat="44.53033380914081" lon="11.343261821417407"><ele>28.0</ele><time>2026-05-03T13:32:35.999Z</time></trkpt><trkpt lat="44.53036488974167" lon="11.343106857998412"><ele>28.0</ele><time>2026-05-03T13:32:36.999Z</time></trkpt><trkpt lat="44.53039562746617" lon="11.342945524371633"><ele>28.0</ele><time>2026-05-03T13:32:37.999Z</time></trkpt><trkpt lat="44.53042545726581" lon="11.342782777410042"><ele>28.0</ele><time>2026-05-03T13:32:38.999Z</time></trkpt><trkpt lat="44.53045568268956" lon="11.342616084013285"><ele>28.0</ele><time>2026-05-03T13:32:39.999Z</time></trkpt><trkpt lat="44.53048583785221" lon="11.342447635251583"><ele>28.0</ele><time>2026-05-03T13:32:40.999Z</time></trkpt><trkpt lat="44.530517570158445" lon="11.34227266813242"><ele>28.0</ele><time>2026-05-03T13:32:41.999Z</time></trkpt><trkpt lat="44.53055201140303" lon="11.342090023038848"><ele>28.0</ele><time>2026-05-03T13:32:42.999Z</time></trkpt><trkpt lat="44.53058610612296" lon="11.341901751825434"><ele>28.0</ele><time>2026-05-03T13:32:43.999Z</time></trkpt><trkpt lat="44.53062179749979" lon="11.341713650162749"><ele>27.5</ele><time>2026-05-03T13:32:44.999Z</time></trkpt><trkpt lat="44.5306543683582" lon="11.341548724080086"><ele>27.0</ele><time>2026-05-03T13:32:45.999Z</time></trkpt><trkpt lat="44.53068309822297" lon="11.341399730285518"><ele>26.5</ele><time>2026-05-03T13:32:46.999Z</time></trkpt><trkpt lat="44.5307113558629" lon="11.341253949126335"><ele>26.0</ele><time>2026-05-03T13:32:47.999Z</time></trkpt><trkpt lat="44.5307460579787" lon="11.341095195836399"><ele>26.25</ele><time>2026-05-03T13:32:48.999Z</time></trkpt><trkpt lat="44.530788718858076" lon="11.340913868366354"><ele>26.5</ele><time>2026-05-03T13:32:49.999Z</time></trkpt><trkpt lat="44.5308335046005" lon="11.340712183606316"><ele>26.75</ele><time>2026-05-03T13:32:50.999Z</time></trkpt><trkpt lat="44.530875223123516" lon="11.340500512416792"><ele>27.0</ele><time>2026-05-03T13:32:51.999Z</time></trkpt><trkpt lat="44.53091312779769" lon="11.340286054713781"><ele>27.0</ele><time>2026-05-03T13:32:52.999Z</time></trkpt><trkpt lat="44.5309504250463" lon="11.340069465283177"><ele>27.0</ele><time>2026-05-03T13:32:53.999Z</time></trkpt><trkpt lat="44.530989278659504" lon="11.339853030537324"><ele>27.0</ele><time>2026-05-03T13:32:54.999Z</time></trkpt><trkpt lat="44.5310295070843" lon="11.339640243898778"><ele>27.666666666666664</ele><time>2026-05-03T13:32:55.999Z</time></trkpt><trkpt lat="44.531069921940755" lon="11.339427351760943"><ele>28.333333333333332</ele><time>2026-05-03T13:32:56.999Z</time></trkpt><trkpt lat="44.531107699875534" lon="11.339217101633963"><ele>29.0</ele><time>2026-05-03T13:32:57.999Z</time></trkpt><trkpt lat="44.531146167478965" lon="11.33900785447021"><ele>29.333333333333332</ele><time>2026-05-03T13:32:58.999Z</time></trkpt><trkpt lat="44.531183594057076" lon="11.338799018497562"><ele>29.666666666666664</ele><time>2026-05-03T13:32:59.999Z</time></trkpt><trkpt lat="44.53122304480774" lon="11.338585323117874"><ele>30.0</ele><time>2026-05-03T13:33:00.999Z</time></trkpt><trkpt lat="44.53126529598732" lon="11.338369597746933"><ele>30.0</ele><time>2026-05-03T13:33:01.999Z</time></trkpt><trkpt lat="44.53130831486703" lon="11.338144795263393"><ele>30.0</ele><time>2026-05-03T13:33:02.999Z</time></trkpt><trkpt lat="44.53134981243125" lon="11.337919227865067"><ele>30.0</ele><time>2026-05-03T13:33:03.999Z</time></trkpt><trkpt lat="44.5313921727746" lon="11.33768063553238"><ele>30.0</ele><time>2026-05-03T13:33:04.999Z</time></trkpt><trkpt lat="44.531435868313594" lon="11.337435502479847"><ele>30.0</ele><time>2026-05-03T13:33:05.999Z</time></trkpt><trkpt lat="44.53147908861029" lon="11.337179366810343"><ele>30.0</ele><time>2026-05-03T13:33:06.999Z</time></trkpt><trkpt lat="44.53152164731058" lon="11.336908360236453"><ele>30.333333333333336</ele><time>2026-05-03T13:33:07.999Z</time></trkpt><trkpt lat="44.53156757035757" lon="11.336630550943621"><ele>30.666666666666668</ele><time>2026-05-03T13:33:08.999Z</time></trkpt><trkpt lat="44.53162290533466" lon="11.336324109193614"><ele>31.0</ele><time>2026-05-03T13:33:09.999Z</time></trkpt><trkpt lat="44.531679180414244" lon="11.336009314177888"><ele>31.5</ele><time>2026-05-03T13:33:10.999Z</time></trkpt><trkpt lat="44.531735107209556" lon="11.33568434738462"><ele>32.0</ele><time>2026-05-03T13:33:11.999Z</time></trkpt><trkpt lat="44.53179053856856" lon="11.335349591570559"><ele>32.0</ele><time>2026-05-03T13:33:12.999Z</time></trkpt><trkpt lat="44.53184330363079" lon="11.334984862707694"><ele>32.0</ele><time>2026-05-03T13:33:13.999Z</time></trkpt><trkpt lat="44.53190605779765" lon="11.334635706516753"><ele>32.0</ele><time>2026-05-03T13:33:14.999Z</time></trkpt><trkpt lat="44.531971658803506" lon="11.334270420201259"><ele>32.0</ele><time>2026-05-03T13:33:15.999Z</time></trkpt><trkpt lat="44.53203582341169" lon="11.333922027358591"><ele>32.5</ele><time>2026-05-03T13:33:16.999Z</time></trkpt><trkpt lat="44.53209219629418" lon="11.333557411600092"><ele>33.0</ele><time>2026-05-03T13:33:17.999Z</time></trkpt><trkpt lat="44.53213943886371" lon="11.333211905741393"><ele>32.0</ele><time>2026-05-03T13:33:18.999Z</time></trkpt><trkpt lat="44.53219050515545" lon="11.3328652983556"><ele>31.0</ele><time>2026-05-03T13:33:19.999Z</time></trkpt><trkpt lat="44.53223062374472" lon="11.332517138688715"><ele>31.0</ele><time>2026-05-03T13:33:20.999Z</time></trkpt><trkpt lat="44.532265987452874" lon="11.332175131945096"><ele>31.0</ele><time>2026-05-03T13:33:21.999Z</time></trkpt><trkpt lat="44.532294605687866" lon="11.331834838081397"><ele>31.0</ele><time>2026-05-03T13:33:22.999Z</time></trkpt><trkpt lat="44.532319898470604" lon="11.331498831317038"><ele>31.0</ele><time>2026-05-03T13:33:23.999Z</time></trkpt><trkpt lat="44.53234354576163" lon="11.331166242801785"><ele>31.0</ele><time>2026-05-03T13:33:24.999Z</time></trkpt><trkpt lat="44.53236182435836" lon="11.330835642567344"><ele>31.0</ele><time>2026-05-03T13:33:25.999Z</time></trkpt><trkpt lat="44.53237648257873" lon="11.330505427819242"><ele>31.0</ele><time>2026-05-03T13:33:26.999Z</time></trkpt><trkpt lat="44.53238497575616" lon="11.330173910771387"><ele>31.0</ele><time>2026-05-03T13:33:27.999Z</time></trkpt><trkpt lat="44.53238930104545" lon="11.329838181237944"><ele>31.5</ele><time>2026-05-03T13:33:28.999Z</time></trkpt><trkpt lat="44.53239002930048" lon="11.32950681589939"><ele>32.0</ele><time>2026-05-03T13:33:29.999Z</time></trkpt><trkpt lat="44.532386296212906" lon="11.329179577749084"><ele>33.0</ele><time>2026-05-03T13:33:30.999Z</time></trkpt><trkpt lat="44.5323794947748" lon="11.328852335823637"><ele>34.0</ele><time>2026-05-03T13:33:31.999Z</time></trkpt><trkpt lat="44.53237081163652" lon="11.328529900536985"><ele>34.0</ele><time>2026-05-03T13:33:32.999Z</time></trkpt><trkpt lat="44.53235803274737" lon="11.328208527749563"><ele>34.0</ele><time>2026-05-03T13:33:33.999Z</time></trkpt><trkpt lat="44.532342790932155" lon="11.327886729694255"><ele>35.0</ele><time>2026-05-03T13:33:34.999Z</time></trkpt><trkpt lat="44.53232146708151" lon="11.327566728740985"><ele>36.0</ele><time>2026-05-03T13:33:35.999Z</time></trkpt><trkpt lat="44.53229461149906" lon="11.327245531831892"><ele>35.666666666666664</ele><time>2026-05-03T13:33:36.999Z</time></trkpt><trkpt lat="44.53226307974462" lon="11.326931383828708"><ele>35.33333333333333</ele><time>2026-05-03T13:33:37.999Z</time></trkpt><trkpt lat="44.53223065147378" lon="11.326621850219393"><ele>35.0</ele><time>2026-05-03T13:33:38.999Z</time></trkpt><trkpt lat="44.53218924307041" lon="11.32630109578921"><ele>33.5</ele><time>2026-05-03T13:33:39.999Z</time></trkpt><trkpt lat="44.532144327427886" lon="11.32599171073072"><ele>32.0</ele><time>2026-05-03T13:33:40.999Z</time></trkpt><trkpt lat="44.53209974401859" lon="11.325673913753269"><ele>32.5</ele><time>2026-05-03T13:33:41.999Z</time></trkpt><trkpt lat="44.53205103734492" lon="11.325357035455573"><ele>33.0</ele><time>2026-05-03T13:33:42.999Z</time></trkpt><trkpt lat="44.53199540548623" lon="11.325038821112935"><ele>33.5</ele><time>2026-05-03T13:33:43.999Z</time></trkpt><trkpt lat="44.53193618582926" lon="11.324714701994969"><ele>34.0</ele><time>2026-05-03T13:33:44.999Z</time></trkpt><trkpt lat="44.53187296530076" lon="11.3243962925591"><ele>34.0</ele><time>2026-05-03T13:33:45.999Z</time></trkpt><trkpt lat="44.531808276176086" lon="11.324078694894496"><ele>34.0</ele><time>2026-05-03T13:33:46.999Z</time></trkpt><trkpt lat="44.531738018125914" lon="11.32376031336962"><ele>33.66666666666667</ele><time>2026-05-03T13:33:47.999Z</time></trkpt><trkpt lat="44.53166225612421" lon="11.323458041399995"><ele>33.333333333333336</ele><time>2026-05-03T13:33:48.999Z</time></trkpt><trkpt lat="44.53159431049538" lon="11.323166567772285"><ele>33.0</ele><time>2026-05-03T13:33:49.999Z</time></trkpt><trkpt lat="44.53151868669806" lon="11.322888757786805"><ele>33.0</ele><time>2026-05-03T13:33:50.999Z</time></trkpt><trkpt lat="44.531445590439795" lon="11.322619665945465"><ele>33.0</ele><time>2026-05-03T13:33:51.999Z</time></trkpt><trkpt lat="44.53137286251028" lon="11.322359458920843"><ele>33.0</ele><time>2026-05-03T13:33:52.999Z</time></trkpt><trkpt lat="44.531293828998805" lon="11.322099977245388"><ele>33.0</ele><time>2026-05-03T13:33:53.999Z</time></trkpt><trkpt lat="44.53121072803836" lon="11.32184493575772"><ele>33.0</ele><time>2026-05-03T13:33:54.999Z</time></trkpt><trkpt lat="44.53112482117423" lon="11.321584640448117"><ele>33.0</ele><time>2026-05-03T13:33:55.999Z</time></trkpt><trkpt lat="44.53103921167003" lon="11.321325949228159"><ele>33.0</ele><time>2026-05-03T13:33:56.999Z</time></trkpt><trkpt lat="44.530950974868524" lon="11.321067101545442"><ele>33.0</ele><time>2026-05-03T13:33:57.999Z</time></trkpt><trkpt lat="44.53085741885251" lon="11.320805765844016"><ele>33.0</ele><time>2026-05-03T13:33:58.999Z</time></trkpt><trkpt lat="44.53075559920336" lon="11.320537013446392"><ele>34.0</ele><time>2026-05-03T13:33:59.999Z</time></trkpt><trkpt lat="44.53064757539907" lon="11.320266390075906"><ele>35.0</ele><time>2026-05-03T13:34:00.999Z</time></trkpt><trkpt lat="44.53053591713391" lon="11.319991645929088"><ele>36.0</ele><time>2026-05-03T13:34:01.999Z</time></trkpt><trkpt lat="44.53042206228856" lon="11.319720322229378"><ele>36.0</ele><time>2026-05-03T13:34:02.999Z</time></trkpt><trkpt lat="44.530299133993466" lon="11.3194451888422"><ele>36.0</ele><time>2026-05-03T13:34:03.999Z</time></trkpt><trkpt lat="44.53017162168055" lon="11.319171154322209"><ele>35.0</ele><time>2026-05-03T13:34:04.999Z</time></trkpt><trkpt lat="44.53004181650887" lon="11.318897209288531"><ele>34.0</ele><time>2026-05-03T13:34:05.999Z</time></trkpt><trkpt lat="44.52991315071108" lon="11.318625082129026"><ele>34.0</ele><time>2026-05-03T13:34:06.999Z</time></trkpt><trkpt lat="44.529784251118144" lon="11.318354446274276"><ele>34.0</ele><time>2026-05-03T13:34:07.999Z</time></trkpt><trkpt lat="44.529657074764714" lon="11.318087536608317"><ele>34.66666666666667</ele><time>2026-05-03T13:34:08.999Z</time></trkpt><trkpt lat="44.52953150857562" lon="11.31782447045076"><ele>35.333333333333336</ele><time>2026-05-03T13:34:09.999Z</time></trkpt><trkpt lat="44.52941152126162" lon="11.317570333936848"><ele>36.0</ele><time>2026-05-03T13:34:10.999Z</time></trkpt><trkpt lat="44.5292968642703" lon="11.317327709525419"><ele>37.0</ele><time>2026-05-03T13:34:11.999Z</time></trkpt><trkpt lat="44.52918517272071" lon="11.317093180883745"><ele>38.0</ele><time>2026-05-03T13:34:12.999Z</time></trkpt><trkpt lat="44.529073212594675" lon="11.316861482871353"><ele>39.0</ele><time>2026-05-03T13:34:13.999Z</time></trkpt><trkpt lat="44.52895895605051" lon="11.316629929084733"><ele>38.666666666666664</ele><time>2026-05-03T13:34:14.999Z</time></trkpt><trkpt lat="44.52884534898308" lon="11.316396453221246"><ele>38.33333333333333</ele><time>2026-05-03T13:34:15.999Z</time></trkpt><trkpt lat="44.52873148997198" lon="11.316159709776311"><ele>38.0</ele><time>2026-05-03T13:34:16.999Z</time></trkpt><trkpt lat="44.52862092664832" lon="11.31592361154927"><ele>38.0</ele><time>2026-05-03T13:34:17.999Z</time></trkpt><trkpt lat="44.52850655282923" lon="11.31568228808179"><ele>38.0</ele><time>2026-05-03T13:34:18.999Z</time></trkpt><trkpt lat="44.52839215767366" lon="11.315438489093436"><ele>38.0</ele><time>2026-05-03T13:34:19.999Z</time></trkpt><trkpt lat="44.52827570760032" lon="11.315191658214934"><ele>38.0</ele><time>2026-05-03T13:34:20.999Z</time></trkpt><trkpt lat="44.528157859945296" lon="11.314944806853257"><ele>38.0</ele><time>2026-05-03T13:34:21.999Z</time></trkpt><trkpt lat="44.52803726784481" lon="11.31469585623974"><ele>38.0</ele><time>2026-05-03T13:34:22.999Z</time></trkpt><trkpt lat="44.52791822037916" lon="11.314448620656554"><ele>38.33333333333333</ele><time>2026-05-03T13:34:23.999Z</time></trkpt><trkpt lat="44.527798995078705" lon="11.314198372053822"><ele>38.666666666666664</ele><time>2026-05-03T13:34:24.999Z</time></trkpt><trkpt lat="44.527682837701526" lon="11.313947624009693"><ele>39.0</ele><time>2026-05-03T13:34:25.999Z</time></trkpt><trkpt lat="44.52757230403721" lon="11.313691432392151"><ele>39.333333333333336</ele><time>2026-05-03T13:34:26.999Z</time></trkpt><trkpt lat="44.52746335972194" lon="11.313430768273628"><ele>39.66666666666667</ele><time>2026-05-03T13:34:27.999Z</time></trkpt><trkpt lat="44.52734538083573" lon="11.313169952369886"><ele>40.0</ele><time>2026-05-03T13:34:28.999Z</time></trkpt><trkpt lat="44.52722466198465" lon="11.31291095970746"><ele>39.333333333333336</ele><time>2026-05-03T13:34:29.999Z</time></trkpt><trkpt lat="44.52710346496478" lon="11.312649125423269"><ele>38.666666666666664</ele><time>2026-05-03T13:34:30.999Z</time></trkpt><trkpt lat="44.526981203041814" lon="11.312384256590926"><ele>38.0</ele><time>2026-05-03T13:34:31.999Z</time></trkpt><trkpt lat="44.52685705285503" lon="11.312118962939941"><ele>37.0</ele><time>2026-05-03T13:34:32.999Z</time></trkpt><trkpt lat="44.52673196685521" lon="11.31184569441505"><ele>36.0</ele><time>2026-05-03T13:34:33.999Z</time></trkpt><trkpt lat="44.52661095944323" lon="11.311566668522143"><ele>35.0</ele><time>2026-05-03T13:34:34.999Z</time></trkpt><trkpt lat="44.52648774862507" lon="11.311287697182419"><ele>34.0</ele><time>2026-05-03T13:34:35.999Z</time></trkpt><trkpt lat="44.52635647053117" lon="11.311009914309432"><ele>34.0</ele><time>2026-05-03T13:34:36.999Z</time></trkpt><trkpt lat="44.52622351071872" lon="11.310731946011696"><ele>34.0</ele><time>2026-05-03T13:34:37.999Z</time></trkpt><trkpt lat="44.5260906599288" lon="11.310446993827858"><ele>33.5</ele><time>2026-05-03T13:34:38.999Z</time></trkpt><trkpt lat="44.525963469877645" lon="11.310154565591963"><ele>33.0</ele><time>2026-05-03T13:34:39.999Z</time></trkpt><trkpt lat="44.52584248216994" lon="11.309855510252133"><ele>34.0</ele><time>2026-05-03T13:34:40.999Z</time></trkpt><trkpt lat="44.52572726728799" lon="11.30954927694552"><ele>35.0</ele><time>2026-05-03T13:34:41.999Z</time></trkpt><trkpt lat="44.52561747216129" lon="11.30923734440939"><ele>35.0</ele><time>2026-05-03T13:34:42.999Z</time></trkpt><trkpt lat="44.52551335918661" lon="11.308921854240282"><ele>35.0</ele><time>2026-05-03T13:34:43.999Z</time></trkpt><trkpt lat="44.52541624404595" lon="11.3086088322634"><ele>35.5</ele><time>2026-05-03T13:34:44.999Z</time></trkpt><trkpt lat="44.525329873884466" lon="11.308294154755036"><ele>36.0</ele><time>2026-05-03T13:34:45.999Z</time></trkpt><trkpt lat="44.52525251116099" lon="11.307973681927285"><ele>36.5</ele><time>2026-05-03T13:34:46.999Z</time></trkpt><trkpt lat="44.5251786112961" lon="11.307645810413007"><ele>37.0</ele><time>2026-05-03T13:34:47.999Z</time></trkpt><trkpt lat="44.52511168076137" lon="11.307323243792247"><ele>36.0</ele><time>2026-05-03T13:34:48.999Z</time></trkpt><trkpt lat="44.52504622855935" lon="11.306994458369493"><ele>35.0</ele><time>2026-05-03T13:34:49.999Z</time></trkpt><trkpt lat="44.52498800682026" lon="11.306665887791493"><ele>34.5</ele><time>2026-05-03T13:34:50.999Z</time></trkpt><trkpt lat="44.52493860255609" lon="11.306335063944779"><ele>34.0</ele><time>2026-05-03T13:34:51.999Z</time></trkpt><trkpt lat="44.52489122617898" lon="11.306001631543403"><ele>34.0</ele><time>2026-05-03T13:34:52.999Z</time></trkpt><trkpt lat="44.524851897620195" lon="11.305662622008638"><ele>34.0</ele><time>2026-05-03T13:34:53.999Z</time></trkpt><trkpt lat="44.52482260784846" lon="11.305319487408573"><ele>34.5</ele><time>2026-05-03T13:34:54.999Z</time></trkpt><trkpt lat="44.52479945985688" lon="11.304980672680804"><ele>35.0</ele><time>2026-05-03T13:34:55.999Z</time></trkpt><trkpt lat="44.52477969005917" lon="11.304641458439209"><ele>35.0</ele><time>2026-05-03T13:34:56.999Z</time></trkpt><trkpt lat="44.52476110420625" lon="11.304300505565001"><ele>35.0</ele><time>2026-05-03T13:34:57.999Z</time></trkpt><trkpt lat="44.52474361351533" lon="11.303960667578611"><ele>35.5</ele><time>2026-05-03T13:34:58.999Z</time></trkpt><trkpt lat="44.52472888040363" lon="11.303619786685427"><ele>36.0</ele><time>2026-05-03T13:34:59.999Z</time></trkpt><trkpt lat="44.52471437657421" lon="11.303281208204519"><ele>36.5</ele><time>2026-05-03T13:35:00.999Z</time></trkpt><trkpt lat="44.52470112605326" lon="11.302942171792434"><ele>37.0</ele><time>2026-05-03T13:35:01.999Z</time></trkpt><trkpt lat="44.52468825105956" lon="11.302606677762746"><ele>37.0</ele><time>2026-05-03T13:35:02.999Z</time></trkpt><trkpt lat="44.52467638729794" lon="11.302269064559816"><ele>37.0</ele><time>2026-05-03T13:35:03.999Z</time></trkpt><trkpt lat="44.52466435009211" lon="11.301933413696519"><ele>35.5</ele><time>2026-05-03T13:35:04.999Z</time></trkpt><trkpt lat="44.524650024697806" lon="11.301596267436317"><ele>34.0</ele><time>2026-05-03T13:35:05.999Z</time></trkpt><trkpt lat="44.524635641891464" lon="11.30125522016192"><ele>33.5</ele><time>2026-05-03T13:35:06.999Z</time></trkpt><trkpt lat="44.5246186737919" lon="11.300914224801435"><ele>33.0</ele><time>2026-05-03T13:35:07.999Z</time></trkpt><trkpt lat="44.52460117105671" lon="11.300573724950434"><ele>35.0</ele><time>2026-05-03T13:35:08.999Z</time></trkpt><trkpt lat="44.52458774100792" lon="11.300231608607234"><ele>37.0</ele><time>2026-05-03T13:35:09.999Z</time></trkpt><trkpt lat="44.52457357100833" lon="11.299890191272985"><ele>36.0</ele><time>2026-05-03T13:35:10.999Z</time></trkpt><trkpt lat="44.524561876143714" lon="11.29954907019749"><ele>35.0</ele><time>2026-05-03T13:35:11.999Z</time></trkpt><trkpt lat="44.52454973904026" lon="11.299209680585351"><ele>36.5</ele><time>2026-05-03T13:35:12.999Z</time></trkpt><trkpt lat="44.524534350338115" lon="11.298869666691829"><ele>38.0</ele><time>2026-05-03T13:35:13.999Z</time></trkpt><trkpt lat="44.52452076828381" lon="11.2985261280108"><ele>38.0</ele><time>2026-05-03T13:35:14.999Z</time></trkpt><trkpt lat="44.52450817027856" lon="11.298180521150066"><ele>38.0</ele><time>2026-05-03T13:35:15.999Z</time></trkpt><trkpt lat="44.52449112143011" lon="11.29783466277646"><ele>39.0</ele><time>2026-05-03T13:35:16.999Z</time></trkpt><trkpt lat="44.52447386707507" lon="11.297485759636189"><ele>40.0</ele><time>2026-05-03T13:35:17.999Z</time></trkpt><trkpt lat="44.524455785940184" lon="11.297137404303518"><ele>40.0</ele><time>2026-05-03T13:35:18.999Z</time></trkpt><trkpt lat="44.52443746730593" lon="11.29679284050398"><ele>40.0</ele><time>2026-05-03T13:35:19.999Z</time></trkpt><trkpt lat="44.5244172925506" lon="11.296442956774113"><ele>39.5</ele><time>2026-05-03T13:35:20.999Z</time></trkpt><trkpt lat="44.52439532015918" lon="11.296092494472646"><ele>39.0</ele><time>2026-05-03T13:35:21.999Z</time></trkpt><trkpt lat="44.52437401305509" lon="11.295743604449633"><ele>39.5</ele><time>2026-05-03T13:35:22.999Z</time></trkpt><trkpt lat="44.524351854349256" lon="11.295397545294488"><ele>40.0</ele><time>2026-05-03T13:35:23.999Z</time></trkpt><trkpt lat="44.52433173323505" lon="11.295052156566271"><ele>39.5</ele><time>2026-05-03T13:35:24.999Z</time></trkpt><trkpt lat="44.52431761211442" lon="11.294702222336142"><ele>39.0</ele><time>2026-05-03T13:35:25.999Z</time></trkpt><trkpt lat="44.52430530845979" lon="11.294347743808242"><ele>39.0</ele><time>2026-05-03T13:35:26.999Z</time></trkpt><trkpt lat="44.52429246452721" lon="11.29398705359572"><ele>39.0</ele><time>2026-05-03T13:35:27.999Z</time></trkpt><trkpt lat="44.52427792938404" lon="11.293624027269713"><ele>39.0</ele><time>2026-05-03T13:35:28.999Z</time></trkpt><trkpt lat="44.52426244533568" lon="11.293257371406588"><ele>39.0</ele><time>2026-05-03T13:35:29.999Z</time></trkpt><trkpt lat="44.524247068176116" lon="11.29288942256144"><ele>38.0</ele><time>2026-05-03T13:35:30.999Z</time></trkpt><trkpt lat="44.52422936927531" lon="11.292520184630645"><ele>37.0</ele><time>2026-05-03T13:35:31.999Z</time></trkpt><trkpt lat="44.524207861292055" lon="11.29214808809287"><ele>36.5</ele><time>2026-05-03T13:35:32.999Z</time></trkpt><trkpt lat="44.52418254088171" lon="11.291767851518092"><ele>36.0</ele><time>2026-05-03T13:35:33.999Z</time></trkpt><trkpt lat="44.52415934718599" lon="11.291377331807347"><ele>37.5</ele><time>2026-05-03T13:35:34.999Z</time></trkpt><trkpt lat="44.52413978608587" lon="11.290961346724792"><ele>39.0</ele><time>2026-05-03T13:35:35.999Z</time></trkpt><trkpt lat="44.52411697891448" lon="11.290535280691206"><ele>40.0</ele><time>2026-05-03T13:35:36.999Z</time></trkpt><trkpt lat="44.52409504842803" lon="11.290102195509414"><ele>41.0</ele><time>2026-05-03T13:35:37.999Z</time></trkpt><trkpt lat="44.52407428975642" lon="11.289657728600051"><ele>41.0</ele><time>2026-05-03T13:35:38.999Z</time></trkpt><trkpt lat="44.52405589544932" lon="11.289214252559722"><ele>41.0</ele><time>2026-05-03T13:35:39.999Z</time></trkpt><trkpt lat="44.52403594962359" lon="11.288772393555119"><ele>41.0</ele><time>2026-05-03T13:35:40.999Z</time></trkpt><trkpt lat="44.524013779249394" lon="11.288334699369914"><ele>41.0</ele><time>2026-05-03T13:35:41.999Z</time></trkpt><trkpt lat="44.52399300207617" lon="11.287899759380343"><ele>40.5</ele><time>2026-05-03T13:35:42.999Z</time></trkpt><trkpt lat="44.52397587646342" lon="11.287469373876164"><ele>40.0</ele><time>2026-05-03T13:35:43.999Z</time></trkpt><trkpt lat="44.52395910193036" lon="11.28704250377843"><ele>38.0</ele><time>2026-05-03T13:35:44.999Z</time></trkpt><trkpt lat="44.52393704657445" lon="11.28661979240867"><ele>36.0</ele><time>2026-05-03T13:35:45.999Z</time></trkpt><trkpt lat="44.52392061807347" lon="11.286197471316493"><ele>35.5</ele><time>2026-05-03T13:35:46.999Z</time></trkpt><trkpt lat="44.523903085700184" lon="11.285772888144278"><ele>35.0</ele><time>2026-05-03T13:35:47.999Z</time></trkpt><trkpt lat="44.52388460512159" lon="11.285348552216922"><ele>38.0</ele><time>2026-05-03T13:35:48.999Z</time></trkpt><trkpt lat="44.523864815088665" lon="11.284923599688799"><ele>41.0</ele><time>2026-05-03T13:35:49.999Z</time></trkpt><trkpt lat="44.523845291355215" lon="11.284493247889763"><ele>41.0</ele><time>2026-05-03T13:35:50.999Z</time></trkpt><trkpt lat="44.52382700138273" lon="11.284062308776747"><ele>41.0</ele><time>2026-05-03T13:35:51.999Z</time></trkpt><trkpt lat="44.52381231644565" lon="11.283620019924836"><ele>41.0</ele><time>2026-05-03T13:35:52.999Z</time></trkpt><trkpt lat="44.52380240422001" lon="11.283173613428161"><ele>41.0</ele><time>2026-05-03T13:35:53.999Z</time></trkpt><trkpt lat="44.52380133316412" lon="11.282727962158088"><ele>40.5</ele><time>2026-05-03T13:35:54.999Z</time></trkpt><trkpt lat="44.52381420394315" lon="11.282280483638079"><ele>40.0</ele><time>2026-05-03T13:35:55.999Z</time></trkpt><trkpt lat="44.52383985845039" lon="11.28183457956795"><ele>40.0</ele><time>2026-05-03T13:35:56.999Z</time></trkpt><trkpt lat="44.52387743766682" lon="11.28138929063434"><ele>40.0</ele><time>2026-05-03T13:35:57.999Z</time></trkpt><trkpt lat="44.523926117289975" lon="11.280944318541938"><ele>40.0</ele><time>2026-05-03T13:35:58.999Z</time></trkpt><trkpt lat="44.5239834912117" lon="11.280502301205036"><ele>40.0</ele><time>2026-05-03T13:35:59.999Z</time></trkpt><trkpt lat="44.524050723242745" lon="11.280062623543255"><ele>40.5</ele><time>2026-05-03T13:36:00.999Z</time></trkpt><trkpt lat="44.52412848149574" lon="11.279625821041591"><ele>41.0</ele><time>2026-05-03T13:36:01.999Z</time></trkpt><trkpt lat="44.52421891377102" lon="11.279196362959881"><ele>41.5</ele><time>2026-05-03T13:36:02.999Z</time></trkpt><trkpt lat="44.52432302957211" lon="11.278776024276992"><ele>42.0</ele><time>2026-05-03T13:36:03.999Z</time></trkpt><trkpt lat="44.524437573713925" lon="11.27836301720171"><ele>42.0</ele><time>2026-05-03T13:36:04.999Z</time></trkpt><trkpt lat="44.52456120117096" lon="11.277954039863074"><ele>42.0</ele><time>2026-05-03T13:36:05.999Z</time></trkpt><trkpt lat="44.52469523154067" lon="11.277549385882443"><ele>42.5</ele><time>2026-05-03T13:36:06.999Z</time></trkpt><trkpt lat="44.52483805622585" lon="11.277149463626321"><ele>43.0</ele><time>2026-05-03T13:36:07.999Z</time></trkpt><trkpt lat="44.52499000984428" lon="11.276752437037556"><ele>43.0</ele><time>2026-05-03T13:36:08.999Z</time></trkpt><trkpt lat="44.52514541794095" lon="11.27635488492931"><ele>43.0</ele><time>2026-05-03T13:36:09.999Z</time></trkpt><trkpt lat="44.52530022200325" lon="11.27595182487937"><ele>41.5</ele><time>2026-05-03T13:36:10.999Z</time></trkpt><trkpt lat="44.52545524871569" lon="11.27554797634027"><ele>40.0</ele><time>2026-05-03T13:36:11.999Z</time></trkpt><trkpt lat="44.52560923346533" lon="11.275142260601934"><ele>39.5</ele><time>2026-05-03T13:36:12.999Z</time></trkpt><trkpt lat="44.52576233387003" lon="11.27473705234816"><ele>39.0</ele><time>2026-05-03T13:36:13.999Z</time></trkpt><trkpt lat="44.52591709226959" lon="11.274331115418658"><ele>38.0</ele><time>2026-05-03T13:36:14.999Z</time></trkpt><trkpt lat="44.52607145120223" lon="11.273923104186965"><ele>37.0</ele><time>2026-05-03T13:36:15.999Z</time></trkpt><trkpt lat="44.5262238202074" lon="11.273514255431403"><ele>37.0</ele><time>2026-05-03T13:36:16.999Z</time></trkpt><trkpt lat="44.52637789842868" lon="11.2731099849278"><ele>37.0</ele><time>2026-05-03T13:36:17.999Z</time></trkpt><trkpt lat="44.526531095734114" lon="11.27270723902898"><ele>37.5</ele><time>2026-05-03T13:36:18.999Z</time></trkpt><trkpt lat="44.52668317109227" lon="11.272305370899884"><ele>38.0</ele><time>2026-05-03T13:36:19.999Z</time></trkpt><trkpt lat="44.52683314817136" lon="11.271905171136819"><ele>38.0</ele><time>2026-05-03T13:36:20.999Z</time></trkpt><trkpt lat="44.52698231856419" lon="11.271508939892053"><ele>38.0</ele><time>2026-05-03T13:36:21.999Z</time></trkpt><trkpt lat="44.52713221359065" lon="11.271111799308118"><ele>38.0</ele><time>2026-05-03T13:36:22.999Z</time></trkpt><trkpt lat="44.527283347919216" lon="11.270718430607081"><ele>38.0</ele><time>2026-05-03T13:36:23.999Z</time></trkpt><trkpt lat="44.527435688281166" lon="11.270327313488808"><ele>38.0</ele><time>2026-05-03T13:36:24.999Z</time></trkpt><trkpt lat="44.52758650683299" lon="11.269936042034642"><ele>38.0</ele><time>2026-05-03T13:36:25.999Z</time></trkpt><trkpt lat="44.5277348215241" lon="11.269544107725295"><ele>38.0</ele><time>2026-05-03T13:36:26.999Z</time></trkpt><trkpt lat="44.527881825876825" lon="11.269152733518837"><ele>38.0</ele><time>2026-05-03T13:36:27.999Z</time></trkpt><trkpt lat="44.52802933117511" lon="11.268763340304776"><ele>37.5</ele><time>2026-05-03T13:36:28.999Z</time></trkpt><trkpt lat="44.528176598307915" lon="11.268373316222316"><ele>37.0</ele><time>2026-05-03T13:36:29.999Z</time></trkpt><trkpt lat="44.52832477999398" lon="11.26798028953937"><ele>36.5</ele><time>2026-05-03T13:36:30.999Z</time></trkpt><trkpt lat="44.52847199984732" lon="11.267586737941587"><ele>36.0</ele><time>2026-05-03T13:36:31.999Z</time></trkpt><trkpt lat="44.52861682808341" lon="11.267190994914758"><ele>38.0</ele><time>2026-05-03T13:36:32.999Z</time></trkpt><trkpt lat="44.52875267031167" lon="11.266786847633957"><ele>40.0</ele><time>2026-05-03T13:36:33.999Z</time></trkpt><trkpt lat="44.52887741237294" lon="11.266376055497677"><ele>40.0</ele><time>2026-05-03T13:36:34.999Z</time></trkpt><trkpt lat="44.5289879274577" lon="11.26595754189802"><ele>40.0</ele><time>2026-05-03T13:36:35.999Z</time></trkpt><trkpt lat="44.529088120857075" lon="11.265535758103708"><ele>39.0</ele><time>2026-05-03T13:36:36.999Z</time></trkpt><trkpt lat="44.529173979201566" lon="11.265109767525109"><ele>38.0</ele><time>2026-05-03T13:36:37.999Z</time></trkpt><trkpt lat="44.52925139514042" lon="11.26467990343893"><ele>37.5</ele><time>2026-05-03T13:36:38.999Z</time></trkpt><trkpt lat="44.529319882618445" lon="11.26424903208752"><ele>37.0</ele><time>2026-05-03T13:36:39.999Z</time></trkpt><trkpt lat="44.529382136486525" lon="11.263818003206204"><ele>38.0</ele><time>2026-05-03T13:36:40.999Z</time></trkpt><trkpt lat="44.529438213602596" lon="11.26339216080833"><ele>39.0</ele><time>2026-05-03T13:36:41.999Z</time></trkpt><trkpt lat="44.52948223111503" lon="11.262970793683582"><ele>39.0</ele><time>2026-05-03T13:36:42.999Z</time></trkpt><trkpt lat="44.52951559087415" lon="11.262548429279835"><ele>39.0</ele><time>2026-05-03T13:36:43.999Z</time></trkpt><trkpt lat="44.52953386483355" lon="11.262129166131494"><ele>39.0</ele><time>2026-05-03T13:36:44.999Z</time></trkpt><trkpt lat="44.52953963381992" lon="11.261711503666161"><ele>39.0</ele><time>2026-05-03T13:36:45.999Z</time></trkpt><trkpt lat="44.52953284298669" lon="11.261296692964809"><ele>41.0</ele><time>2026-05-03T13:36:46.999Z</time></trkpt><trkpt lat="44.52951676823675" lon="11.260885127195925"><ele>43.0</ele><time>2026-05-03T13:36:47.999Z</time></trkpt><trkpt lat="44.52949268160814" lon="11.260478274018705"><ele>43.0</ele><time>2026-05-03T13:36:48.999Z</time></trkpt><trkpt lat="44.52945803586606" lon="11.260074115701805"><ele>43.0</ele><time>2026-05-03T13:36:49.999Z</time></trkpt><trkpt lat="44.52941332723037" lon="11.259676858742727"><ele>42.5</ele><time>2026-05-03T13:36:50.999Z</time></trkpt><trkpt lat="44.529355674808635" lon="11.25928420026382"><ele>42.0</ele><time>2026-05-03T13:36:51.999Z</time></trkpt><trkpt lat="44.5292844828091" lon="11.258896049296874"><ele>42.0</ele><time>2026-05-03T13:36:52.999Z</time></trkpt><trkpt lat="44.52920653446375" lon="11.258506008252995"><ele>42.0</ele><time>2026-05-03T13:36:53.999Z</time></trkpt><trkpt lat="44.529127424558645" lon="11.25812849178704"><ele>42.0</ele><time>2026-05-03T13:36:54.999Z</time></trkpt><trkpt lat="44.52904713052183" lon="11.257779224906104"><ele>42.0</ele><time>2026-05-03T13:36:55.999Z</time></trkpt><trkpt lat="44.528967684312995" lon="11.25744554405088"><ele>42.0</ele><time>2026-05-03T13:36:56.999Z</time></trkpt><trkpt lat="44.52888198996816" lon="11.25711564794182"><ele>42.0</ele><time>2026-05-03T13:36:57.999Z</time></trkpt><trkpt lat="44.528788403567" lon="11.256786431271525"><ele>42.0</ele><time>2026-05-03T13:36:58.999Z</time></trkpt><trkpt lat="44.52868707679536" lon="11.25645923120669"><ele>42.0</ele><time>2026-05-03T13:36:59.999Z</time></trkpt><trkpt lat="44.52857765573926" lon="11.256134723681672"><ele>43.5</ele><time>2026-05-03T13:37:00.999Z</time></trkpt><trkpt lat="44.52846521868923" lon="11.255809139924724"><ele>45.0</ele><time>2026-05-03T13:37:01.999Z</time></trkpt><trkpt lat="44.52834979082198" lon="11.255481627649715"><ele>45.0</ele><time>2026-05-03T13:37:02.999Z</time></trkpt><trkpt lat="44.528234289257" lon="11.255153018080646"><ele>45.0</ele><time>2026-05-03T13:37:03.999Z</time></trkpt><trkpt lat="44.52811683940406" lon="11.254825802508075"><ele>45.0</ele><time>2026-05-03T13:37:04.999Z</time></trkpt><trkpt lat="44.52799789724348" lon="11.25449810353596"><ele>45.0</ele><time>2026-05-03T13:37:05.999Z</time></trkpt><trkpt lat="44.52787910421799" lon="11.254170525393713"><ele>45.0</ele><time>2026-05-03T13:37:06.999Z</time></trkpt><trkpt lat="44.52776255467931" lon="11.253841987018447"><ele>45.0</ele><time>2026-05-03T13:37:07.999Z</time></trkpt><trkpt lat="44.52764556665717" lon="11.253514068230965"><ele>45.0</ele><time>2026-05-03T13:37:08.999Z</time></trkpt><trkpt lat="44.52752913500822" lon="11.253190580760446"><ele>45.0</ele><time>2026-05-03T13:37:09.999Z</time></trkpt><trkpt lat="44.52741306248327" lon="11.2528641777744"><ele>45.0</ele><time>2026-05-03T13:37:10.999Z</time></trkpt><trkpt lat="44.52729539273222" lon="11.252537614656553"><ele>45.0</ele><time>2026-05-03T13:37:11.999Z</time></trkpt><trkpt lat="44.527176744408095" lon="11.252208818604785"><ele>44.0</ele><time>2026-05-03T13:37:12.999Z</time></trkpt><trkpt lat="44.52705803284578" lon="11.251876209634876"><ele>43.0</ele><time>2026-05-03T13:37:13.999Z</time></trkpt><trkpt lat="44.52693907791568" lon="11.25153758987054"><ele>44.5</ele><time>2026-05-03T13:37:14.999Z</time></trkpt><trkpt lat="44.526819644190674" lon="11.251200009071326"><ele>46.0</ele><time>2026-05-03T13:37:15.999Z</time></trkpt><trkpt lat="44.526699500521104" lon="11.250863309089384"><ele>45.0</ele><time>2026-05-03T13:37:16.999Z</time></trkpt><trkpt lat="44.526579533630304" lon="11.250525827883774"><ele>44.0</ele><time>2026-05-03T13:37:17.999Z</time></trkpt><trkpt lat="44.52646124773396" lon="11.250188777071262"><ele>44.0</ele><time>2026-05-03T13:37:18.999Z</time></trkpt><trkpt lat="44.5263436672084" lon="11.249852005725844"><ele>44.0</ele><time>2026-05-03T13:37:19.999Z</time></trkpt><trkpt lat="44.52622597216226" lon="11.249514716398238"><ele>45.5</ele><time>2026-05-03T13:37:20.999Z</time></trkpt><trkpt lat="44.526108037982524" lon="11.249182006335493"><ele>47.0</ele><time>2026-05-03T13:37:21.999Z</time></trkpt><trkpt lat="44.525988355921626" lon="11.248850347432853"><ele>47.5</ele><time>2026-05-03T13:37:22.999Z</time></trkpt><trkpt lat="44.52586927003344" lon="11.248519873436205"><ele>48.0</ele><time>2026-05-03T13:37:23.999Z</time></trkpt><trkpt lat="44.52575056793363" lon="11.248186469423148"><ele>48.5</ele><time>2026-05-03T13:37:24.999Z</time></trkpt><trkpt lat="44.52563066503032" lon="11.247855004862124"><ele>49.0</ele><time>2026-05-03T13:37:25.999Z</time></trkpt><trkpt lat="44.525512626624526" lon="11.247527461798741"><ele>48.5</ele><time>2026-05-03T13:37:26.999Z</time></trkpt><trkpt lat="44.525395421023966" lon="11.247202039768228"><ele>48.0</ele><time>2026-05-03T13:37:27.999Z</time></trkpt><trkpt lat="44.52527889777184" lon="11.2468791917406"><ele>48.0</ele><time>2026-05-03T13:37:28.999Z</time></trkpt><trkpt lat="44.52516412072506" lon="11.246557682993922"><ele>48.0</ele><time>2026-05-03T13:37:29.999Z</time></trkpt><trkpt lat="44.52505009194767" lon="11.246235955625567"><ele>48.0</ele><time>2026-05-03T13:37:30.999Z</time></trkpt><trkpt lat="44.524936557635094" lon="11.245913468807831"><ele>48.0</ele><time>2026-05-03T13:37:31.999Z</time></trkpt><trkpt lat="44.52482233705483" lon="11.245592265083177"><ele>48.0</ele><time>2026-05-03T13:37:32.999Z</time></trkpt><trkpt lat="44.52470730613255" lon="11.245273094836863"><ele>48.0</ele><time>2026-05-03T13:37:33.999Z</time></trkpt><trkpt lat="44.52459194196471" lon="11.2449531364568"><ele>46.5</ele><time>2026-05-03T13:37:34.999Z</time></trkpt><trkpt lat="44.52447665060249" lon="11.244633835884564"><ele>45.0</ele><time>2026-05-03T13:37:35.999Z</time></trkpt><trkpt lat="44.524362261902546" lon="11.244314788155316"><ele>45.0</ele><time>2026-05-03T13:37:36.999Z</time></trkpt><trkpt lat="44.52425125494166" lon="11.24399935503158"><ele>45.0</ele><time>2026-05-03T13:37:37.999Z</time></trkpt><trkpt lat="44.52414414335287" lon="11.243696125622776"><ele>45.5</ele><time>2026-05-03T13:37:38.999Z</time></trkpt><trkpt lat="44.52404010522135" lon="11.243404649048735"><ele>46.0</ele><time>2026-05-03T13:37:39.999Z</time></trkpt><trkpt lat="44.523942697253815" lon="11.243129204313949"><ele>46.0</ele><time>2026-05-03T13:37:40.999Z</time></trkpt><trkpt lat="44.523848532129705" lon="11.242866591040158"><ele>46.0</ele><time>2026-05-03T13:37:41.999Z</time></trkpt><trkpt lat="44.52375778808283" lon="11.242611758759411"><ele>46.0</ele><time>2026-05-03T13:37:42.999Z</time></trkpt><trkpt lat="44.523665849660425" lon="11.242353350080755"><ele>46.0</ele><time>2026-05-03T13:37:43.999Z</time></trkpt><trkpt lat="44.52357672857457" lon="11.242098670813037"><ele>46.0</ele><time>2026-05-03T13:37:44.999Z</time></trkpt><trkpt lat="44.523488323792904" lon="11.241850147107138"><ele>46.0</ele><time>2026-05-03T13:37:45.999Z</time></trkpt><trkpt lat="44.52339976088469" lon="11.241600421148814"><ele>46.66666666666667</ele><time>2026-05-03T13:37:46.999Z</time></trkpt><trkpt lat="44.523317543273606" lon="11.241371706565863"><ele>47.333333333333336</ele><time>2026-05-03T13:37:47.999Z</time></trkpt><trkpt lat="44.523248484744954" lon="11.24117939873601"><ele>48.0</ele><time>2026-05-03T13:37:48.999Z</time></trkpt><trkpt lat="44.52318746026934" lon="11.241011141748423"><ele>48.0</ele><time>2026-05-03T13:37:49.999Z</time></trkpt><trkpt lat="44.52313900191708" lon="11.24087737654487"><ele>48.0</ele><time>2026-05-03T13:37:50.999Z</time></trkpt><trkpt lat="44.52309659723066" lon="11.240757417526973"><ele>48.0</ele><time>2026-05-03T13:37:51.999Z</time></trkpt><trkpt lat="44.52305925146213" lon="11.24064583227902"><ele>48.0</ele><time>2026-05-03T13:37:53Z</time></trkpt><trkpt lat="44.52302601678406" lon="11.24053449335052"><ele>48.0</ele><time>2026-05-03T13:37:54Z</time></trkpt><trkpt lat="44.52299503519512" lon="11.240420501570272"><ele>47.99999999999999</ele><time>2026-05-03T13:37:55Z</time></trkpt><trkpt lat="44.52296379910622" lon="11.240318343399705"><ele>48.0</ele><time>2026-05-03T13:37:56Z</time></trkpt><trkpt lat="44.52293095521281" lon="11.240224847831062"><ele>48.0</ele><time>2026-05-03T13:37:57Z</time></trkpt><trkpt lat="44.52289891070235" lon="11.240137655552228"><ele>48.0</ele><time>2026-05-03T13:37:58Z</time></trkpt><trkpt lat="44.52286832767115" lon="11.240052365278046"><ele>48.0</ele><time>2026-05-03T13:37:59Z</time></trkpt><trkpt lat="44.522836510376216" lon="11.23996067544228"><ele>47.99999999999999</ele><time>2026-05-03T13:38:00Z</time></trkpt><trkpt lat="44.522805772613985" lon="11.239870477276941"><ele>48.0</ele><time>2026-05-03T13:38:01Z</time></trkpt><trkpt lat="44.52277732910525" lon="11.239783706142784"><ele>47.8</ele><time>2026-05-03T13:38:02Z</time></trkpt><trkpt lat="44.52274873812126" lon="11.23969849669298"><ele>47.599999999999994</ele><time>2026-05-03T13:38:03Z</time></trkpt><trkpt lat="44.522720621729036" lon="11.239619199685963"><ele>47.400000000000006</ele><time>2026-05-03T13:38:04Z</time></trkpt><trkpt lat="44.52267270110788" lon="11.239470706238595"><ele>47.2</ele><time>2026-05-03T13:38:06Z</time></trkpt><trkpt lat="44.52261748777576" lon="11.239321640618916"><ele>47.0</ele><time>2026-05-03T13:38:08Z</time></trkpt><trkpt lat="44.52256688968805" lon="11.239188290451319"><ele>47.0</ele><time>2026-05-03T13:38:10Z</time></trkpt><trkpt lat="44.52251845183803" lon="11.239044755094865"><ele>47.0</ele><time>2026-05-03T13:38:12Z</time></trkpt><trkpt lat="44.52248027645807" lon="11.238915988236203"><ele>47.0</ele><time>2026-05-03T13:38:14Z</time></trkpt><trkpt lat="44.52244638430214" lon="11.238801407774298"><ele>47.0</ele><time>2026-05-03T13:38:16Z</time></trkpt><trkpt lat="44.52242354804413" lon="11.238651752945616"><ele>47.0</ele><time>2026-05-03T13:38:18Z</time></trkpt><trkpt lat="44.522384832784276" lon="11.238507262128703"><ele>47.2</ele><time>2026-05-03T13:38:20Z</time></trkpt><trkpt lat="44.522355876359235" lon="11.238394618416136"><ele>47.400000000000006</ele><time>2026-05-03T13:38:22Z</time></trkpt><trkpt lat="44.522333743332766" lon="11.238300497769865"><ele>47.599999999999994</ele><time>2026-05-03T13:38:25Z</time></trkpt><trkpt lat="44.52230638049889" lon="11.238103620260029"><ele>47.8</ele><time>2026-05-03T13:38:27Z</time></trkpt><trkpt lat="44.522270590448954" lon="11.237976862059082"><ele>48.0</ele><time>2026-05-03T13:38:28Z</time></trkpt><trkpt lat="44.52223596435407" lon="11.237835392940033"><ele>48.0</ele><time>2026-05-03T13:38:29Z</time></trkpt><trkpt lat="44.52220148166374" lon="11.237685758029318"><ele>48.0</ele><time>2026-05-03T13:38:30Z</time></trkpt><trkpt lat="44.52216610717954" lon="11.237514942742973"><ele>48.0</ele><time>2026-05-03T13:38:31Z</time></trkpt><trkpt lat="44.52212871319099" lon="11.237336716167421"><ele>48.0</ele><time>2026-05-03T13:38:32Z</time></trkpt><trkpt lat="44.522089666748414" lon="11.237149628818619"><ele>47.75</ele><time>2026-05-03T13:38:33Z</time></trkpt><trkpt lat="44.522054406104175" lon="11.236951865260702"><ele>47.5</ele><time>2026-05-03T13:38:34Z</time></trkpt><trkpt lat="44.522018777478976" lon="11.236737431012287"><ele>47.25</ele><time>2026-05-03T13:38:35Z</time></trkpt><trkpt lat="44.521984047764526" lon="11.236560305613052"><ele>47.0</ele><time>2026-05-03T13:38:36Z</time></trkpt><trkpt lat="44.5219525990355" lon="11.236347497668607"><ele>47.0</ele><time>2026-05-03T13:38:37Z</time></trkpt><trkpt lat="44.52192012642493" lon="11.236127169517237"><ele>47.0</ele><time>2026-05-03T13:38:38Z</time></trkpt><trkpt lat="44.521891728093934" lon="11.235909917416771"><ele>47.0</ele><time>2026-05-03T13:38:39Z</time></trkpt><trkpt lat="44.521872582139764" lon="11.23569244743781"><ele>47.666666666666664</ele><time>2026-05-03T13:38:40Z</time></trkpt><trkpt lat="44.52184480149459" lon="11.235472605495053"><ele>48.33333333333333</ele><time>2026-05-03T13:38:41Z</time></trkpt><trkpt lat="44.521811334769296" lon="11.235237222470127"><ele>49.0</ele><time>2026-05-03T13:38:42Z</time></trkpt><trkpt lat="44.521775074267" lon="11.234986582195953"><ele>49.0</ele><time>2026-05-03T13:38:43Z</time></trkpt><trkpt lat="44.52174040720284" lon="11.234718247411362"><ele>49.0</ele><time>2026-05-03T13:38:44Z</time></trkpt><trkpt lat="44.52170656235536" lon="11.234445674712752"><ele>49.0</ele><time>2026-05-03T13:38:45Z</time></trkpt><trkpt lat="44.52167639370113" lon="11.234173967238824"><ele>48.33333333333333</ele><time>2026-05-03T13:38:46Z</time></trkpt><trkpt lat="44.5216392618007" lon="11.233892151715283"><ele>47.666666666666664</ele><time>2026-05-03T13:38:47Z</time></trkpt><trkpt lat="44.52160119417356" lon="11.233600629297914"><ele>47.0</ele><time>2026-05-03T13:38:48Z</time></trkpt><trkpt lat="44.521564236870525" lon="11.233304455809082"><ele>47.0</ele><time>2026-05-03T13:38:49Z</time></trkpt><trkpt lat="44.521527837738695" lon="11.233012985605404"><ele>47.0</ele><time>2026-05-03T13:38:50Z</time></trkpt><trkpt lat="44.521490751846876" lon="11.232724454178644"><ele>47.0</ele><time>2026-05-03T13:38:51Z</time></trkpt><trkpt lat="44.521460439604645" lon="11.232448752952788"><ele>47.666666666666664</ele><time>2026-05-03T13:38:52Z</time></trkpt><trkpt lat="44.52142100021517" lon="11.232169600675114"><ele>48.33333333333333</ele><time>2026-05-03T13:38:53Z</time></trkpt><trkpt lat="44.52138544134275" lon="11.231887292176614"><ele>49.0</ele><time>2026-05-03T13:38:54Z</time></trkpt><trkpt lat="44.52134830181726" lon="11.231603879815099"><ele>49.0</ele><time>2026-05-03T13:38:55Z</time></trkpt><trkpt lat="44.521312002756744" lon="11.231319672470992"><ele>49.0</ele><time>2026-05-03T13:38:56Z</time></trkpt><trkpt lat="44.521276476125806" lon="11.231042892724838"><ele>49.0</ele><time>2026-05-03T13:38:57Z</time></trkpt><trkpt lat="44.5212425002488" lon="11.230758822075863"><ele>48.666666666666664</ele><time>2026-05-03T13:38:58Z</time></trkpt><trkpt lat="44.52120726282842" lon="11.230471346497739"><ele>48.33333333333333</ele><time>2026-05-03T13:38:59Z</time></trkpt><trkpt lat="44.521172240974266" lon="11.230190161596202"><ele>48.0</ele><time>2026-05-03T13:39:00Z</time></trkpt><trkpt lat="44.52113546737925" lon="11.229905006058063"><ele>47.666666666666664</ele><time>2026-05-03T13:39:01Z</time></trkpt><trkpt lat="44.52109878564831" lon="11.229620602786364"><ele>47.33333333333333</ele><time>2026-05-03T13:39:02Z</time></trkpt><trkpt lat="44.521062077276085" lon="11.229335922364427"><ele>47.0</ele><time>2026-05-03T13:39:03Z</time></trkpt><trkpt lat="44.52102724064533" lon="11.229057511943244"><ele>47.33333333333333</ele><time>2026-05-03T13:39:04Z</time></trkpt><trkpt lat="44.52099788175253" lon="11.228788452594806"><ele>47.666666666666664</ele><time>2026-05-03T13:39:05Z</time></trkpt><trkpt lat="44.52096242331175" lon="11.22852420406186"><ele>48.0</ele><time>2026-05-03T13:39:06Z</time></trkpt><trkpt lat="44.52092723549211" lon="11.228246672337288"><ele>47.666666666666664</ele><time>2026-05-03T13:39:07Z</time></trkpt><trkpt lat="44.52089237040135" lon="11.227976947003114"><ele>47.33333333333333</ele><time>2026-05-03T13:39:08Z</time></trkpt><trkpt lat="44.520860626350796" lon="11.227715972914421"><ele>47.0</ele><time>2026-05-03T13:39:09Z</time></trkpt><trkpt lat="44.52082813351943" lon="11.22746250451215"><ele>47.33333333333333</ele><time>2026-05-03T13:39:10Z</time></trkpt><trkpt lat="44.52079654150445" lon="11.227224014224117"><ele>47.666666666666664</ele><time>2026-05-03T13:39:11Z</time></trkpt><trkpt lat="44.52076829268654" lon="11.226995629906723"><ele>48.0</ele><time>2026-05-03T13:39:12Z</time></trkpt><trkpt lat="44.520739455533956" lon="11.22676771642906"><ele>48.0</ele><time>2026-05-03T13:39:13Z</time></trkpt><trkpt lat="44.520713660063436" lon="11.226541807569314"><ele>48.0</ele><time>2026-05-03T13:39:14Z</time></trkpt><trkpt lat="44.52068408957198" lon="11.226308777545361"><ele>48.0</ele><time>2026-05-03T13:39:15Z</time></trkpt><trkpt lat="44.520652672339956" lon="11.22607335952068"><ele>48.66666666666667</ele><time>2026-05-03T13:39:16Z</time></trkpt><trkpt lat="44.520619923462384" lon="11.225836888606459"><ele>49.333333333333336</ele><time>2026-05-03T13:39:17Z</time></trkpt><trkpt lat="44.52058983440811" lon="11.225596834417102"><ele>50.0</ele><time>2026-05-03T13:39:18Z</time></trkpt><trkpt lat="44.520559167699076" lon="11.225354211649606"><ele>50.0</ele><time>2026-05-03T13:39:19Z</time></trkpt><trkpt lat="44.52052767948177" lon="11.225108547502725"><ele>50.0</ele><time>2026-05-03T13:39:20Z</time></trkpt><trkpt lat="44.52049807948698" lon="11.224865442418931"><ele>50.0</ele><time>2026-05-03T13:39:21Z</time></trkpt><trkpt lat="44.52046639690078" lon="11.224617695266732"><ele>49.333333333333336</ele><time>2026-05-03T13:39:22Z</time></trkpt><trkpt lat="44.52043471014882" lon="11.224371536623135"><ele>48.66666666666667</ele><time>2026-05-03T13:39:23Z</time></trkpt><trkpt lat="44.520403016416836" lon="11.22412113540833"><ele>48.0</ele><time>2026-05-03T13:39:24Z</time></trkpt><trkpt lat="44.520372935242214" lon="11.223874887738658"><ele>48.0</ele><time>2026-05-03T13:39:25Z</time></trkpt><trkpt lat="44.520340702807665" lon="11.223629332301627"><ele>48.0</ele><time>2026-05-03T13:39:26Z</time></trkpt><trkpt lat="44.52031054301701" lon="11.22338293355962"><ele>48.0</ele><time>2026-05-03T13:39:27Z</time></trkpt><trkpt lat="44.5202810726427" lon="11.223139245900771"><ele>48.0</ele><time>2026-05-03T13:39:28Z</time></trkpt><trkpt lat="44.52024810726111" lon="11.222896343349754"><ele>48.0</ele><time>2026-05-03T13:39:29Z</time></trkpt><trkpt lat="44.52021837752647" lon="11.222663010302949"><ele>48.0</ele><time>2026-05-03T13:39:30Z</time></trkpt><trkpt lat="44.52019272042548" lon="11.222428426443827"><ele>48.0</ele><time>2026-05-03T13:39:31Z</time></trkpt><trkpt lat="44.52016105519281" lon="11.222210095637058"><ele>48.0</ele><time>2026-05-03T13:39:32Z</time></trkpt><trkpt lat="44.520138251355" lon="11.222013547369174"><ele>48.0</ele><time>2026-05-03T13:39:33Z</time></trkpt><trkpt lat="44.52011561771949" lon="11.221820283343975"><ele>48.0</ele><time>2026-05-03T13:39:34Z</time></trkpt><trkpt lat="44.520090349778386" lon="11.221625594849458"><ele>47.5</ele><time>2026-05-03T13:39:35Z</time></trkpt><trkpt lat="44.52006536243943" lon="11.221424269143965"><ele>47.0</ele><time>2026-05-03T13:39:36Z</time></trkpt><trkpt lat="44.52004079444994" lon="11.22122142731908"><ele>46.5</ele><time>2026-05-03T13:39:37Z</time></trkpt><trkpt lat="44.520016611343465" lon="11.221012816524699"><ele>46.0</ele><time>2026-05-03T13:39:38Z</time></trkpt><trkpt lat="44.51998815058176" lon="11.220799893234206"><ele>46.66666666666667</ele><time>2026-05-03T13:39:39Z</time></trkpt><trkpt lat="44.519963452847065" lon="11.220585457160388"><ele>47.333333333333336</ele><time>2026-05-03T13:39:40Z</time></trkpt><trkpt lat="44.51993966555903" lon="11.220367072854978"><ele>48.0</ele><time>2026-05-03T13:39:41Z</time></trkpt><trkpt lat="44.51991693637513" lon="11.22014175684797"><ele>48.0</ele><time>2026-05-03T13:39:42Z</time></trkpt><trkpt lat="44.51989003579145" lon="11.219911320750363"><ele>48.0</ele><time>2026-05-03T13:39:43Z</time></trkpt><trkpt lat="44.51985921564604" lon="11.21967819060301"><ele>48.0</ele><time>2026-05-03T13:39:44Z</time></trkpt><trkpt lat="44.519825808613625" lon="11.21944277295984"><ele>48.0</ele><time>2026-05-03T13:39:45Z</time></trkpt><trkpt lat="44.51979536720409" lon="11.21920404991045"><ele>48.0</ele><time>2026-05-03T13:39:46Z</time></trkpt><trkpt lat="44.51976198437325" lon="11.218967914004613"><ele>48.0</ele><time>2026-05-03T13:39:47Z</time></trkpt><trkpt lat="44.519729782703635" lon="11.21872850749066"><ele>48.0</ele><time>2026-05-03T13:39:48Z</time></trkpt><trkpt lat="44.51969848394947" lon="11.218491289527114"><ele>48.0</ele><time>2026-05-03T13:39:49Z</time></trkpt><trkpt lat="44.51966839171943" lon="11.218253072364895"><ele>48.0</ele><time>2026-05-03T13:39:50Z</time></trkpt><trkpt lat="44.51963833220266" lon="11.218014555544137"><ele>47.666666666666664</ele><time>2026-05-03T13:39:51Z</time></trkpt><trkpt lat="44.519608262143564" lon="11.217781885164058"><ele>47.33333333333333</ele><time>2026-05-03T13:39:52Z</time></trkpt><trkpt lat="44.51957486306978" lon="11.217555493634347"><ele>47.0</ele><time>2026-05-03T13:39:53Z</time></trkpt><trkpt lat="44.51954269676925" lon="11.217332127558786"><ele>47.5</ele><time>2026-05-03T13:39:54Z</time></trkpt><trkpt lat="44.519513264030195" lon="11.217122990977295"><ele>48.0</ele><time>2026-05-03T13:39:55Z</time></trkpt><trkpt lat="44.5194892745397" lon="11.216926696731235"><ele>48.5</ele><time>2026-05-03T13:39:56Z</time></trkpt><trkpt lat="44.51946587274119" lon="11.21674166900703"><ele>49.0</ele><time>2026-05-03T13:39:57Z</time></trkpt><trkpt lat="44.51944334608604" lon="11.216564367241565"><ele>49.5</ele><time>2026-05-03T13:39:58Z</time></trkpt><trkpt lat="44.51942095422715" lon="11.216387860610416"><ele>50.0</ele><time>2026-05-03T13:39:59Z</time></trkpt><trkpt lat="44.51939892133437" lon="11.216213295255997"><ele>50.5</ele><time>2026-05-03T13:40:00Z</time></trkpt><trkpt lat="44.51937664223143" lon="11.216041073190398"><ele>51.0</ele><time>2026-05-03T13:40:01Z</time></trkpt><trkpt lat="44.51935472185157" lon="11.21586893284706"><ele>51.0</ele><time>2026-05-03T13:40:02Z</time></trkpt><trkpt lat="44.51933394616322" lon="11.21569856561925"><ele>51.0</ele><time>2026-05-03T13:40:03Z</time></trkpt><trkpt lat="44.51931212343982" lon="11.215527709350845"><ele>51.0</ele><time>2026-05-03T13:40:04Z</time></trkpt><trkpt lat="44.51929126805454" lon="11.215358358983146"><ele>51.0</ele><time>2026-05-03T13:40:05Z</time></trkpt><trkpt lat="44.519270438141696" lon="11.215190444978179"><ele>50.75</ele><time>2026-05-03T13:40:06Z</time></trkpt><trkpt lat="44.519250715748605" lon="11.215023365247765"><ele>50.5</ele><time>2026-05-03T13:40:07Z</time></trkpt><trkpt lat="44.51923027137063" lon="11.214856620273144"><ele>50.25</ele><time>2026-05-03T13:40:08Z</time></trkpt><trkpt lat="44.519207128415125" lon="11.214693224969592"><ele>50.0</ele><time>2026-05-03T13:40:09Z</time></trkpt><trkpt lat="44.51918599308103" lon="11.214528038591174"><ele>50.0</ele><time>2026-05-03T13:40:10Z</time></trkpt><trkpt lat="44.51916490622399" lon="11.214364524490144"><ele>50.0</ele><time>2026-05-03T13:40:11Z</time></trkpt><trkpt lat="44.51914323641255" lon="11.21420035381176"><ele>50.0</ele><time>2026-05-03T13:40:12Z</time></trkpt><trkpt lat="44.51912116652691" lon="11.214035859103786"><ele>50.0</ele><time>2026-05-03T13:40:13Z</time></trkpt><trkpt lat="44.519101139324256" lon="11.213869926010789"><ele>50.0</ele><time>2026-05-03T13:40:14Z</time></trkpt><trkpt lat="44.519081638658456" lon="11.213705775953636"><ele>50.0</ele><time>2026-05-03T13:40:15Z</time></trkpt><trkpt lat="44.51906483254449" lon="11.21354440918705"><ele>50.0</ele><time>2026-05-03T13:40:16Z</time></trkpt><trkpt lat="44.5190426161599" lon="11.213380884758104"><ele>50.0</ele><time>2026-05-03T13:40:17Z</time></trkpt><trkpt lat="44.519020236438294" lon="11.21321889719582"><ele>49.75</ele><time>2026-05-03T13:40:18Z</time></trkpt><trkpt lat="44.519000207410386" lon="11.213058969550707"><ele>49.5</ele><time>2026-05-03T13:40:19Z</time></trkpt><trkpt lat="44.51898041653405" lon="11.212898417976565"><ele>49.25</ele><time>2026-05-03T13:40:20Z</time></trkpt><trkpt lat="44.51895952630767" lon="11.21274196289907"><ele>49.0</ele><time>2026-05-03T13:40:21Z</time></trkpt><trkpt lat="44.51894131434937" lon="11.21258889759965"><ele>49.0</ele><time>2026-05-03T13:40:22Z</time></trkpt><trkpt lat="44.518923007441444" lon="11.212436545941186"><ele>49.0</ele><time>2026-05-03T13:40:23Z</time></trkpt><trkpt lat="44.518901354670675" lon="11.212287763649867"><ele>49.0</ele><time>2026-05-03T13:40:24Z</time></trkpt><trkpt lat="44.51888099827327" lon="11.212132035748583"><ele>49.0</ele><time>2026-05-03T13:40:25Z</time></trkpt><trkpt lat="44.51886344111054" lon="11.211977506171886"><ele>49.0</ele><time>2026-05-03T13:40:26Z</time></trkpt><trkpt lat="44.518838717002275" lon="11.211835664129174"><ele>49.0</ele><time>2026-05-03T13:40:27Z</time></trkpt><trkpt lat="44.51881932771189" lon="11.211694212760387"><ele>49.0</ele><time>2026-05-03T13:40:28Z</time></trkpt><trkpt lat="44.5188058881345" lon="11.21154457901822"><ele>49.0</ele><time>2026-05-03T13:40:29Z</time></trkpt><trkpt lat="44.518793159945616" lon="11.211380003251021"><ele>49.0</ele><time>2026-05-03T13:40:30Z</time></trkpt><trkpt lat="44.51877729718482" lon="11.211212606652733"><ele>49.0</ele><time>2026-05-03T13:40:31Z</time></trkpt><trkpt lat="44.518756835919156" lon="11.211034993993078"><ele>49.0</ele><time>2026-05-03T13:40:32Z</time></trkpt><trkpt lat="44.51873429039645" lon="11.210849025123279"><ele>49.0</ele><time>2026-05-03T13:40:33Z</time></trkpt><trkpt lat="44.51871088808904" lon="11.210651862780248"><ele>49.0</ele><time>2026-05-03T13:40:34Z</time></trkpt><trkpt lat="44.51868596365975" lon="11.210447223316415"><ele>49.0</ele><time>2026-05-03T13:40:35Z</time></trkpt><trkpt lat="44.51865832281625" lon="11.210234907173744"><ele>49.0</ele><time>2026-05-03T13:40:36Z</time></trkpt><trkpt lat="44.518629536163296" lon="11.210020705199943"><ele>49.0</ele><time>2026-05-03T13:40:37Z</time></trkpt><trkpt lat="44.51860277233316" lon="11.209805510111076"><ele>49.0</ele><time>2026-05-03T13:40:38Z</time></trkpt><trkpt lat="44.51857611564202" lon="11.20959336696571"><ele>49.0</ele><time>2026-05-03T13:40:39Z</time></trkpt><trkpt lat="44.518549639260065" lon="11.209379336984874"><ele>49.0</ele><time>2026-05-03T13:40:40Z</time></trkpt><trkpt lat="44.51852437098039" lon="11.209170400894015"><ele>49.0</ele><time>2026-05-03T13:40:41Z</time></trkpt><trkpt lat="44.51849882510264" lon="11.208961581839045"><ele>49.0</ele><time>2026-05-03T13:40:42Z</time></trkpt><trkpt lat="44.51846869675486" lon="11.208751737734072"><ele>49.0</ele><time>2026-05-03T13:40:43Z</time></trkpt><trkpt lat="44.51844133563131" lon="11.208541566447817"><ele>49.0</ele><time>2026-05-03T13:40:44Z</time></trkpt><trkpt lat="44.51841544145589" lon="11.208334383617686"><ele>48.5</ele><time>2026-05-03T13:40:45Z</time></trkpt><trkpt lat="44.51839173738125" lon="11.208131884910545"><ele>48.0</ele><time>2026-05-03T13:40:46Z</time></trkpt><trkpt lat="44.518368946951064" lon="11.207936365005965"><ele>47.5</ele><time>2026-05-03T13:40:47Z</time></trkpt><trkpt lat="44.518345363298586" lon="11.20775135917874"><ele>47.0</ele><time>2026-05-03T13:40:48Z</time></trkpt><trkpt lat="44.51832234061695" lon="11.207580336394587"><ele>47.0</ele><time>2026-05-03T13:40:49Z</time></trkpt><trkpt lat="44.51830469619673" lon="11.207425882534714"><ele>47.0</ele><time>2026-05-03T13:40:50Z</time></trkpt><trkpt lat="44.51828801670555" lon="11.207279259442675"><ele>47.0</ele><time>2026-05-03T13:40:51Z</time></trkpt><trkpt lat="44.518269869327604" lon="11.207151382957385"><ele>47.0</ele><time>2026-05-03T13:40:52Z</time></trkpt><trkpt lat="44.51825416777929" lon="11.207029942090799"><ele>47.0</ele><time>2026-05-03T13:40:53Z</time></trkpt><trkpt lat="44.518238252316095" lon="11.206916574563964"><ele>47.400000000000006</ele><time>2026-05-03T13:40:54Z</time></trkpt><trkpt lat="44.51822715609636" lon="11.206798965906627"><ele>47.800000000000004</ele><time>2026-05-03T13:40:55Z</time></trkpt><trkpt lat="44.518214849365684" lon="11.20667820577965"><ele>48.2</ele><time>2026-05-03T13:40:56Z</time></trkpt><trkpt lat="44.51819515189935" lon="11.206552891868641"><ele>48.6</ele><time>2026-05-03T13:40:57Z</time></trkpt><trkpt lat="44.518173086792736" lon="11.206426515326456"><ele>49.0</ele><time>2026-05-03T13:40:58Z</time></trkpt><trkpt lat="44.51815041123018" lon="11.206295115811672"><ele>49.0</ele><time>2026-05-03T13:40:59Z</time></trkpt><trkpt lat="44.51812960414448" lon="11.206153393848098"><ele>49.0</ele><time>2026-05-03T13:41:00Z</time></trkpt><trkpt lat="44.51810971055617" lon="11.205999956536589"><ele>49.0</ele><time>2026-05-03T13:41:01Z</time></trkpt><trkpt lat="44.51809157002312" lon="11.205841227810591"><ele>49.0</ele><time>2026-05-03T13:41:02Z</time></trkpt><trkpt lat="44.5180698919496" lon="11.205679799070449"><ele>49.0</ele><time>2026-05-03T13:41:03Z</time></trkpt><trkpt lat="44.518047262108986" lon="11.20551499760069"><ele>49.0</ele><time>2026-05-03T13:41:04Z</time></trkpt><trkpt lat="44.51802752059134" lon="11.205347964172136"><ele>49.0</ele><time>2026-05-03T13:41:05Z</time></trkpt><trkpt lat="44.5180045083404" lon="11.205173368483639"><ele>49.0</ele><time>2026-05-03T13:41:06Z</time></trkpt><trkpt lat="44.51798260561664" lon="11.20499195762942"><ele>49.0</ele><time>2026-05-03T13:41:07Z</time></trkpt><trkpt lat="44.51795691570151" lon="11.204801110231713"><ele>49.0</ele><time>2026-05-03T13:41:08Z</time></trkpt><trkpt lat="44.51793332833464" lon="11.204605437993825"><ele>49.0</ele><time>2026-05-03T13:41:09Z</time></trkpt><trkpt lat="44.517905297436265" lon="11.204402943233532"><ele>49.0</ele><time>2026-05-03T13:41:10Z</time></trkpt><trkpt lat="44.51787749876824" lon="11.204188950189637"><ele>49.0</ele><time>2026-05-03T13:41:11Z</time></trkpt><trkpt lat="44.51784881125266" lon="11.203966716711498"><ele>49.666666666666664</ele><time>2026-05-03T13:41:12Z</time></trkpt><trkpt lat="44.517820095076026" lon="11.2037364808387"><ele>50.33333333333333</ele><time>2026-05-03T13:41:13Z</time></trkpt><trkpt lat="44.51779072879312" lon="11.203506844360247"><ele>51.0</ele><time>2026-05-03T13:41:14Z</time></trkpt><trkpt lat="44.51775698028753" lon="11.203260297119535"><ele>51.0</ele><time>2026-05-03T13:41:15Z</time></trkpt><trkpt lat="44.51772240647127" lon="11.203007221809653"><ele>51.0</ele><time>2026-05-03T13:41:16Z</time></trkpt><trkpt lat="44.51768721787872" lon="11.20275322782025"><ele>51.0</ele><time>2026-05-03T13:41:17Z</time></trkpt><trkpt lat="44.517651297007966" lon="11.202496508648686"><ele>51.33333333333333</ele><time>2026-05-03T13:41:18Z</time></trkpt><trkpt lat="44.51761524143451" lon="11.202240547126463"><ele>51.666666666666664</ele><time>2026-05-03T13:41:19Z</time></trkpt><trkpt lat="44.517580913142325" lon="11.201984436679957"><ele>52.0</ele><time>2026-05-03T13:41:20Z</time></trkpt><trkpt lat="44.51754805708307" lon="11.201727613172782"><ele>52.33333333333333</ele><time>2026-05-03T13:41:21Z</time></trkpt><trkpt lat="44.517514798865896" lon="11.201470597593838"><ele>52.66666666666667</ele><time>2026-05-03T13:41:22Z</time></trkpt><trkpt lat="44.5174794981252" lon="11.201215587576153"><ele>53.0</ele><time>2026-05-03T13:41:23Z</time></trkpt><trkpt lat="44.51744495961031" lon="11.200961693111958"><ele>53.0</ele><time>2026-05-03T13:41:24Z</time></trkpt><trkpt lat="44.51740880282273" lon="11.200709273033052"><ele>53.0</ele><time>2026-05-03T13:41:25Z</time></trkpt><trkpt lat="44.517375865231244" lon="11.200455510284698"><ele>53.0</ele><time>2026-05-03T13:41:26Z</time></trkpt><trkpt lat="44.51734085894415" lon="11.200198919851426"><ele>53.0</ele><time>2026-05-03T13:41:27Z</time></trkpt><trkpt lat="44.51731179106807" lon="11.199939170774714"><ele>53.0</ele><time>2026-05-03T13:41:28Z</time></trkpt><trkpt lat="44.51728152140646" lon="11.199677366017793"><ele>53.0</ele><time>2026-05-03T13:41:29Z</time></trkpt><trkpt lat="44.517249827471574" lon="11.19941125141682"><ele>52.66666666666667</ele><time>2026-05-03T13:41:30Z</time></trkpt><trkpt lat="44.517213175593156" lon="11.199150800080137"><ele>52.33333333333333</ele><time>2026-05-03T13:41:31Z</time></trkpt><trkpt lat="44.517178188692014" lon="11.19888651840519"><ele>52.0</ele><time>2026-05-03T13:41:32Z</time></trkpt><trkpt lat="44.51714242301645" lon="11.198616457732378"><ele>52.0</ele><time>2026-05-03T13:41:33Z</time></trkpt><trkpt lat="44.517108609483955" lon="11.19834502132018"><ele>52.0</ele><time>2026-05-03T13:41:34Z</time></trkpt><trkpt lat="44.517071730987794" lon="11.198077171115825"><ele>52.0</ele><time>2026-05-03T13:41:35Z</time></trkpt><trkpt lat="44.51703515912929" lon="11.197808163509599"><ele>52.0</ele><time>2026-05-03T13:41:36Z</time></trkpt><trkpt lat="44.51699973157068" lon="11.197533652353723"><ele>52.0</ele><time>2026-05-03T13:41:37Z</time></trkpt><trkpt lat="44.51696241345674" lon="11.197255568253405"><ele>52.0</ele><time>2026-05-03T13:41:38Z</time></trkpt><trkpt lat="44.51693114177497" lon="11.196975601100858"><ele>52.33333333333333</ele><time>2026-05-03T13:41:39Z</time></trkpt><trkpt lat="44.51688892788393" lon="11.196702738702871"><ele>52.66666666666667</ele><time>2026-05-03T13:41:40Z</time></trkpt><trkpt lat="44.516844596393746" lon="11.196422639749875"><ele>53.0</ele><time>2026-05-03T13:41:41Z</time></trkpt><trkpt lat="44.51679764911559" lon="11.196143900748215"><ele>52.333333333333336</ele><time>2026-05-03T13:41:42Z</time></trkpt><trkpt lat="44.516745432156625" lon="11.195862529696914"><ele>51.66666666666667</ele><time>2026-05-03T13:41:43Z</time></trkpt><trkpt lat="44.51669401435385" lon="11.19558354252289"><ele>51.0</ele><time>2026-05-03T13:41:44Z</time></trkpt><trkpt lat="44.51663678183024" lon="11.195301285107579"><ele>51.0</ele><time>2026-05-03T13:41:45Z</time></trkpt><trkpt lat="44.51657327116114" lon="11.19501870525539"><ele>51.0</ele><time>2026-05-03T13:41:46Z</time></trkpt><trkpt lat="44.516508781994794" lon="11.194740020080442"><ele>51.0</ele><time>2026-05-03T13:41:47Z</time></trkpt><trkpt lat="44.51644309843048" lon="11.194492374404135"><ele>51.33333333333333</ele><time>2026-05-03T13:41:48Z</time></trkpt><trkpt lat="44.51636725368482" lon="11.194268712413532"><ele>51.666666666666664</ele><time>2026-05-03T13:41:49Z</time></trkpt><trkpt lat="44.5162952420378" lon="11.194049360608144"><ele>52.0</ele><time>2026-05-03T13:41:50Z</time></trkpt><trkpt lat="44.51621502367349" lon="11.193815846873301"><ele>52.0</ele><time>2026-05-03T13:41:51Z</time></trkpt><trkpt lat="44.51612663189988" lon="11.193590886032888"><ele>52.0</ele><time>2026-05-03T13:41:52Z</time></trkpt><trkpt lat="44.51603382419088" lon="11.193374195742193"><ele>52.0</ele><time>2026-05-03T13:41:53Z</time></trkpt><trkpt lat="44.51593399185547" lon="11.193165361345661"><ele>52.0</ele><time>2026-05-03T13:41:54Z</time></trkpt><trkpt lat="44.515833395712654" lon="11.192958681391394"><ele>52.0</ele><time>2026-05-03T13:41:55Z</time></trkpt><trkpt lat="44.51573006025076" lon="11.192753986742147"><ele>52.0</ele><time>2026-05-03T13:41:56Z</time></trkpt><trkpt lat="44.51562041390086" lon="11.192562478060234"><ele>52.0</ele><time>2026-05-03T13:41:57Z</time></trkpt><trkpt lat="44.51550271259818" lon="11.192379988372704"><ele>52.0</ele><time>2026-05-03T13:41:58Z</time></trkpt><trkpt lat="44.515387026284195" lon="11.192209139889677"><ele>52.0</ele><time>2026-05-03T13:41:59Z</time></trkpt><trkpt lat="44.5152739824042" lon="11.192058189527453"><ele>52.5</ele><time>2026-05-03T13:42:00Z</time></trkpt><trkpt lat="44.51516650203754" lon="11.19191575663102"><ele>53.0</ele><time>2026-05-03T13:42:01Z</time></trkpt><trkpt lat="44.51506248566442" lon="11.191782562217101"><ele>53.5</ele><time>2026-05-03T13:42:02Z</time></trkpt><trkpt lat="44.51496428991912" lon="11.191656844515043"><ele>54.0</ele><time>2026-05-03T13:42:03Z</time></trkpt><trkpt lat="44.51487228019029" lon="11.191537304964095"><ele>54.0</ele><time>2026-05-03T13:42:04Z</time></trkpt><trkpt lat="44.514778479334616" lon="11.191421355726987"><ele>54.0</ele><time>2026-05-03T13:42:05Z</time></trkpt><trkpt lat="44.51468489400533" lon="11.191307013782463"><ele>54.0</ele><time>2026-05-03T13:42:06Z</time></trkpt><trkpt lat="44.51458975443113" lon="11.191190267552603"><ele>54.0</ele><time>2026-05-03T13:42:07Z</time></trkpt><trkpt lat="44.51449628989626" lon="11.191077452026938"><ele>54.0</ele><time>2026-05-03T13:42:08Z</time></trkpt><trkpt lat="44.514403757104006" lon="11.190962365627945"><ele>54.0</ele><time>2026-05-03T13:42:09Z</time></trkpt><trkpt lat="44.51431013346831" lon="11.190845058577551"><ele>54.0</ele><time>2026-05-03T13:42:10Z</time></trkpt><trkpt lat="44.51421713907176" lon="11.190723343390674"><ele>54.0</ele><time>2026-05-03T13:42:11Z</time></trkpt><trkpt lat="44.51412284419088" lon="11.190597247345568"><ele>53.75</ele><time>2026-05-03T13:42:12Z</time></trkpt><trkpt lat="44.514029867283334" lon="11.190466118602817"><ele>53.5</ele><time>2026-05-03T13:42:13Z</time></trkpt><trkpt lat="44.513937021336254" lon="11.190329583514611"><ele>53.25</ele><time>2026-05-03T13:42:14Z</time></trkpt><trkpt lat="44.51384377940148" lon="11.190192531691645"><ele>53.0</ele><time>2026-05-03T13:42:15Z</time></trkpt><trkpt lat="44.513752321127505" lon="11.190050692334992"><ele>53.25</ele><time>2026-05-03T13:42:16Z</time></trkpt><trkpt lat="44.51366536528817" lon="11.189905819450992"><ele>53.5</ele><time>2026-05-03T13:42:17Z</time></trkpt><trkpt lat="44.51357997362846" lon="11.189754790170786"><ele>53.75</ele><time>2026-05-03T13:42:18Z</time></trkpt><trkpt lat="44.513498036305904" lon="11.189596411989674"><ele>54.0</ele><time>2026-05-03T13:42:19Z</time></trkpt><trkpt lat="44.51341663081285" lon="11.189433766504784"><ele>53.25</ele><time>2026-05-03T13:42:20Z</time></trkpt><trkpt lat="44.51334114972082" lon="11.18926426618548"><ele>52.5</ele><time>2026-05-03T13:42:21Z</time></trkpt><trkpt lat="44.51326913207288" lon="11.189092465673715"><ele>51.75</ele><time>2026-05-03T13:42:22Z</time></trkpt><trkpt lat="44.51320276406934" lon="11.188915374897913"><ele>51.0</ele><time>2026-05-03T13:42:23Z</time></trkpt><trkpt lat="44.513142007188094" lon="11.188729867667037"><ele>50.75</ele><time>2026-05-03T13:42:24Z</time></trkpt><trkpt lat="44.51308927810818" lon="11.188539284845087"><ele>50.5</ele><time>2026-05-03T13:42:25Z</time></trkpt><trkpt lat="44.51304514650595" lon="11.188344495709579"><ele>50.25</ele><time>2026-05-03T13:42:26Z</time></trkpt><trkpt lat="44.513004689174124" lon="11.188142938381333"><ele>50.0</ele><time>2026-05-03T13:42:27Z</time></trkpt><trkpt lat="44.51297498503134" lon="11.187939431331069"><ele>50.66666666666667</ele><time>2026-05-03T13:42:28Z</time></trkpt><trkpt lat="44.51295016044818" lon="11.18772858399801"><ele>51.33333333333333</ele><time>2026-05-03T13:42:29Z</time></trkpt><trkpt lat="44.51293246485008" lon="11.187520121268609"><ele>52.0</ele><time>2026-05-03T13:42:30Z</time></trkpt><trkpt lat="44.5129251459414" lon="11.187311068744274"><ele>52.0</ele><time>2026-05-03T13:42:31Z</time></trkpt><trkpt lat="44.51291915979843" lon="11.187099562368545"><ele>52.0</ele><time>2026-05-03T13:42:32Z</time></trkpt><trkpt lat="44.51292522591023" lon="11.186889161467697"><ele>52.0</ele><time>2026-05-03T13:42:33Z</time></trkpt><trkpt lat="44.512939735139774" lon="11.186680440774595"><ele>51.33333333333333</ele><time>2026-05-03T13:42:34Z</time></trkpt><trkpt lat="44.51296270921231" lon="11.186474076919547"><ele>50.66666666666667</ele><time>2026-05-03T13:42:35Z</time></trkpt><trkpt lat="44.51299096185754" lon="11.18626229223802"><ele>50.0</ele><time>2026-05-03T13:42:36Z</time></trkpt><trkpt lat="44.51302505302415" lon="11.186054335202984"><ele>50.0</ele><time>2026-05-03T13:42:37Z</time></trkpt><trkpt lat="44.51306637587716" lon="11.185846064404783"><ele>50.0</ele><time>2026-05-03T13:42:38Z</time></trkpt><trkpt lat="44.51311636937019" lon="11.185637586467081"><ele>50.0</ele><time>2026-05-03T13:42:39Z</time></trkpt><trkpt lat="44.513168415826" lon="11.185426555936289"><ele>50.0</ele><time>2026-05-03T13:42:40Z</time></trkpt><trkpt lat="44.51322443422395" lon="11.185214231270606"><ele>50.0</ele><time>2026-05-03T13:42:41Z</time></trkpt><trkpt lat="44.51328171594453" lon="11.185001820814334"><ele>50.0</ele><time>2026-05-03T13:42:42Z</time></trkpt><trkpt lat="44.51332951814967" lon="11.184777508600597"><ele>49.333333333333336</ele><time>2026-05-03T13:42:43Z</time></trkpt><trkpt lat="44.51341760210823" lon="11.184570964680802"><ele>48.66666666666667</ele><time>2026-05-03T13:42:44Z</time></trkpt><trkpt lat="44.51349581159098" lon="11.184342299709051"><ele>48.0</ele><time>2026-05-03T13:42:45Z</time></trkpt><trkpt lat="44.51357696471149" lon="11.184109746862344"><ele>48.66666666666667</ele><time>2026-05-03T13:42:46Z</time></trkpt><trkpt lat="44.513661640572025" lon="11.183875405495948"><ele>49.333333333333336</ele><time>2026-05-03T13:42:47Z</time></trkpt><trkpt lat="44.51374719973378" lon="11.183633100723837"><ele>50.0</ele><time>2026-05-03T13:42:48Z</time></trkpt><trkpt lat="44.51383190433861" lon="11.183382410767768"><ele>49.66666666666667</ele><time>2026-05-03T13:42:49Z</time></trkpt><trkpt lat="44.51391694415343" lon="11.183131211199106"><ele>49.33333333333333</ele><time>2026-05-03T13:42:50Z</time></trkpt><trkpt lat="44.514008411979844" lon="11.182874919684188"><ele>49.0</ele><time>2026-05-03T13:42:51.001Z</time></trkpt><trkpt lat="44.51410054697906" lon="11.182614074474005"><ele>49.0</ele><time>2026-05-03T13:42:52.001Z</time></trkpt><trkpt lat="44.51419190890379" lon="11.182353129691956"><ele>49.0</ele><time>2026-05-03T13:42:53.001Z</time></trkpt><trkpt lat="44.51428203511622" lon="11.182097712678496"><ele>49.0</ele><time>2026-05-03T13:42:54.001Z</time></trkpt><trkpt lat="44.514372950292554" lon="11.181840746530415"><ele>49.33333333333333</ele><time>2026-05-03T13:42:55.001Z</time></trkpt><trkpt lat="44.51446414536602" lon="11.181588134243572"><ele>49.66666666666667</ele><time>2026-05-03T13:42:56.001Z</time></trkpt><trkpt lat="44.51455625907776" lon="11.18133364684647"><ele>50.0</ele><time>2026-05-03T13:42:57.001Z</time></trkpt><trkpt lat="44.51464763526023" lon="11.1810734952807"><ele>49.0</ele><time>2026-05-03T13:42:58.001Z</time></trkpt><trkpt lat="44.514738549644086" lon="11.180810025019412"><ele>48.0</ele><time>2026-05-03T13:42:59.001Z</time></trkpt><trkpt lat="44.51482950412187" lon="11.180548165891802"><ele>47.0</ele><time>2026-05-03T13:43:00.001Z</time></trkpt><trkpt lat="44.51492197504948" lon="11.180286231937886"><ele>47.0</ele><time>2026-05-03T13:43:01.001Z</time></trkpt><trkpt lat="44.51501736485307" lon="11.180024059015622"><ele>47.0</ele><time>2026-05-03T13:43:02.001Z</time></trkpt><trkpt lat="44.51511489527371" lon="11.179761441262084"><ele>47.0</ele><time>2026-05-03T13:43:03.001Z</time></trkpt><trkpt lat="44.515212251685824" lon="11.179501761744557"><ele>46.666666666666664</ele><time>2026-05-03T13:43:04.001Z</time></trkpt><trkpt lat="44.515309080955355" lon="11.179235321171953"><ele>46.333333333333336</ele><time>2026-05-03T13:43:05.001Z</time></trkpt><trkpt lat="44.5154020854907" lon="11.178968688856282"><ele>46.0</ele><time>2026-05-03T13:43:06.001Z</time></trkpt><trkpt lat="44.51549599387903" lon="11.17869656908931"><ele>46.0</ele><time>2026-05-03T13:43:07.001Z</time></trkpt><trkpt lat="44.515592797163634" lon="11.178424918344799"><ele>46.0</ele><time>2026-05-03T13:43:08.001Z</time></trkpt><trkpt lat="44.51569560141372" lon="11.178145715291626"><ele>46.0</ele><time>2026-05-03T13:43:09.001Z</time></trkpt><trkpt lat="44.51579905887688" lon="11.177859775020577"><ele>47.0</ele><time>2026-05-03T13:43:10.001Z</time></trkpt><trkpt lat="44.515903238946905" lon="11.177566504177165"><ele>48.0</ele><time>2026-05-03T13:43:11.001Z</time></trkpt><trkpt lat="44.51600744716982" lon="11.177274857984719"><ele>48.33333333333333</ele><time>2026-05-03T13:43:12.001Z</time></trkpt><trkpt lat="44.51610906540891" lon="11.176988204162342"><ele>48.666666666666664</ele><time>2026-05-03T13:43:13.001Z</time></trkpt><trkpt lat="44.51620902805338" lon="11.17671358164551"><ele>49.0</ele><time>2026-05-03T13:43:14.001Z</time></trkpt><trkpt lat="44.51630660273985" lon="11.17644101589629"><ele>49.33333333333333</ele><time>2026-05-03T13:43:15.001Z</time></trkpt><trkpt lat="44.5164017091591" lon="11.176181129640348"><ele>49.66666666666667</ele><time>2026-05-03T13:43:16.001Z</time></trkpt><trkpt lat="44.51649571526805" lon="11.175922494019147"><ele>50.0</ele><time>2026-05-03T13:43:17.001Z</time></trkpt><trkpt lat="44.51658652606205" lon="11.175657096505635"><ele>50.66666666666667</ele><time>2026-05-03T13:43:18.001Z</time></trkpt><trkpt lat="44.51667650634723" lon="11.17538790731179"><ele>51.33333333333333</ele><time>2026-05-03T13:43:19.001Z</time></trkpt><trkpt lat="44.51676809726174" lon="11.175118754077014"><ele>52.0</ele><time>2026-05-03T13:43:20.001Z</time></trkpt><trkpt lat="44.51686014307009" lon="11.174847024914486"><ele>52.0</ele><time>2026-05-03T13:43:21Z</time></trkpt><trkpt lat="44.516951165002155" lon="11.174581632387609"><ele>52.0</ele><time>2026-05-03T13:43:22Z</time></trkpt><trkpt lat="44.51704191661117" lon="11.174326218392823"><ele>52.0</ele><time>2026-05-03T13:43:23Z</time></trkpt><trkpt lat="44.51713425204178" lon="11.174082786520819"><ele>52.0</ele><time>2026-05-03T13:43:24Z</time></trkpt><trkpt lat="44.517231080402674" lon="11.173845764166625"><ele>52.0</ele><time>2026-05-03T13:43:25Z</time></trkpt><trkpt lat="44.5173295999351" lon="11.173601448402822"><ele>52.0</ele><time>2026-05-03T13:43:26Z</time></trkpt><trkpt lat="44.517425879089146" lon="11.173349962738014"><ele>51.33333333333333</ele><time>2026-05-03T13:43:27Z</time></trkpt><trkpt lat="44.517516608168314" lon="11.173104871842945"><ele>50.66666666666667</ele><time>2026-05-03T13:43:28Z</time></trkpt><trkpt lat="44.51760546117403" lon="11.172870490185979"><ele>50.0</ele><time>2026-05-03T13:43:29Z</time></trkpt><trkpt lat="44.51769338008681" lon="11.17263939523459"><ele>50.0</ele><time>2026-05-03T13:43:30Z</time></trkpt><trkpt lat="44.51778166996781" lon="11.172406458570144"><ele>50.0</ele><time>2026-05-03T13:43:31Z</time></trkpt><trkpt lat="44.51787590501593" lon="11.17216537495871"><ele>50.0</ele><time>2026-05-03T13:43:32Z</time></trkpt><trkpt lat="44.5179705444961" lon="11.171914873053606"><ele>49.66666666666667</ele><time>2026-05-03T13:43:33Z</time></trkpt><trkpt lat="44.5180636505871" lon="11.171652877749242"><ele>49.33333333333333</ele><time>2026-05-03T13:43:34Z</time></trkpt><trkpt lat="44.51815993053036" lon="11.171385058965964"><ele>49.0</ele><time>2026-05-03T13:43:35Z</time></trkpt><trkpt lat="44.51825346992935" lon="11.171117731548884"><ele>49.33333333333333</ele><time>2026-05-03T13:43:36Z</time></trkpt><trkpt lat="44.51834442052243" lon="11.170848534598328"><ele>49.66666666666667</ele><time>2026-05-03T13:43:37Z</time></trkpt><trkpt lat="44.51843496394064" lon="11.170582699122738"><ele>50.0</ele><time>2026-05-03T13:43:38Z</time></trkpt><trkpt lat="44.51852637256704" lon="11.170318649507179"><ele>50.0</ele><time>2026-05-03T13:43:39Z</time></trkpt><trkpt lat="44.51861743687689" lon="11.170058883552997"><ele>50.0</ele><time>2026-05-03T13:43:40Z</time></trkpt><trkpt lat="44.518706952453286" lon="11.169799389280811"><ele>50.0</ele><time>2026-05-03T13:43:41Z</time></trkpt><trkpt lat="44.51879495706159" lon="11.16954382986322"><ele>50.333333333333336</ele><time>2026-05-03T13:43:42Z</time></trkpt><trkpt lat="44.518880723601825" lon="11.169288676517475"><ele>50.66666666666667</ele><time>2026-05-03T13:43:43Z</time></trkpt><trkpt lat="44.518965810158015" lon="11.169045699343805"><ele>51.0</ele><time>2026-05-03T13:43:44Z</time></trkpt><trkpt lat="44.519044717896506" lon="11.168815070119276"><ele>51.66666666666667</ele><time>2026-05-03T13:43:45Z</time></trkpt><trkpt lat="44.51912210111916" lon="11.168586364667934"><ele>52.333333333333336</ele><time>2026-05-03T13:43:46Z</time></trkpt><trkpt lat="44.51920153874237" lon="11.168359339637993"><ele>53.0</ele><time>2026-05-03T13:43:47Z</time></trkpt><trkpt lat="44.519281555988236" lon="11.168126819130007"><ele>53.0</ele><time>2026-05-03T13:43:48Z</time></trkpt><trkpt lat="44.519360367606225" lon="11.167899700636704"><ele>53.0</ele><time>2026-05-03T13:43:49Z</time></trkpt><trkpt lat="44.519440544331964" lon="11.167669746477719"><ele>53.0</ele><time>2026-05-03T13:43:50Z</time></trkpt><trkpt lat="44.51951606122694" lon="11.167441250751654"><ele>52.0</ele><time>2026-05-03T13:43:51Z</time></trkpt><trkpt lat="44.519595380690866" lon="11.167211704513287"><ele>51.0</ele><time>2026-05-03T13:43:52Z</time></trkpt><trkpt lat="44.51967407423604" lon="11.166977449739711"><ele>50.0</ele><time>2026-05-03T13:43:53Z</time></trkpt><trkpt lat="44.51975401284894" lon="11.166743145478712"><ele>50.333333333333336</ele><time>2026-05-03T13:43:54Z</time></trkpt><trkpt lat="44.519835318271326" lon="11.166505408999292"><ele>50.66666666666667</ele><time>2026-05-03T13:43:55Z</time></trkpt><trkpt lat="44.51991619420038" lon="11.166261864263959"><ele>51.0</ele><time>2026-05-03T13:43:56Z</time></trkpt><trkpt lat="44.519997422428084" lon="11.16602045259324"><ele>51.0</ele><time>2026-05-03T13:43:57Z</time></trkpt><trkpt lat="44.52008189270214" lon="11.165775332434427"><ele>51.0</ele><time>2026-05-03T13:43:58Z</time></trkpt><trkpt lat="44.52016692680897" lon="11.16552677104342"><ele>51.0</ele><time>2026-05-03T13:43:59Z</time></trkpt><trkpt lat="44.52025173912208" lon="11.165278844743096"><ele>51.0</ele><time>2026-05-03T13:44:00Z</time></trkpt><trkpt lat="44.520335612034295" lon="11.16502829049479"><ele>51.0</ele><time>2026-05-03T13:44:01Z</time></trkpt><trkpt lat="44.52042104114537" lon="11.164774905884046"><ele>51.0</ele><time>2026-05-03T13:44:02Z</time></trkpt><trkpt lat="44.52050544707091" lon="11.16452059777769"><ele>50.66666666666667</ele><time>2026-05-03T13:44:03Z</time></trkpt><trkpt lat="44.52058908146208" lon="11.164266717820215"><ele>50.333333333333336</ele><time>2026-05-03T13:44:04Z</time></trkpt><trkpt lat="44.520674269313275" lon="11.16401171078143"><ele>50.0</ele><time>2026-05-03T13:44:05Z</time></trkpt><trkpt lat="44.52075964147212" lon="11.163759953115784"><ele>49.66666666666667</ele><time>2026-05-03T13:44:06Z</time></trkpt><trkpt lat="44.52084995279019" lon="11.163512643712288"><ele>49.33333333333333</ele><time>2026-05-03T13:44:07Z</time></trkpt><trkpt lat="44.52094091948177" lon="11.163259828836663"><ele>49.0</ele><time>2026-05-03T13:44:08Z</time></trkpt><trkpt lat="44.521030522604114" lon="11.162995329180768"><ele>49.666666666666664</ele><time>2026-05-03T13:44:09Z</time></trkpt><trkpt lat="44.521122760212236" lon="11.162722001469023"><ele>50.33333333333333</ele><time>2026-05-03T13:44:10.001Z</time></trkpt><trkpt lat="44.521217043376915" lon="11.162437605636653"><ele>51.0</ele><time>2026-05-03T13:44:11.001Z</time></trkpt><trkpt lat="44.521310533841934" lon="11.162150853065928"><ele>51.0</ele><time>2026-05-03T13:44:12.001Z</time></trkpt><trkpt lat="44.52139807740991" lon="11.16187577303139"><ele>51.0</ele><time>2026-05-03T13:44:13.001Z</time></trkpt><trkpt lat="44.521502740212945" lon="11.161566594378446"><ele>52.0</ele><time>2026-05-03T13:44:14.001Z</time></trkpt><trkpt lat="44.5216030708897" lon="11.161271406642534"><ele>53.0</ele><time>2026-05-03T13:44:15.001Z</time></trkpt><trkpt lat="44.521703520630815" lon="11.160974349849756"><ele>53.0</ele><time>2026-05-03T13:44:16.001Z</time></trkpt><trkpt lat="44.52180222444141" lon="11.160679273560577"><ele>53.0</ele><time>2026-05-03T13:44:17.001Z</time></trkpt><trkpt lat="44.52189666689613" lon="11.160402850029376"><ele>53.0</ele><time>2026-05-03T13:44:18.001Z</time></trkpt><trkpt lat="44.52199448984402" lon="11.160094346640594"><ele>53.0</ele><time>2026-05-03T13:44:19.001Z</time></trkpt><trkpt lat="44.52209135736879" lon="11.15980352971283"><ele>52.5</ele><time>2026-05-03T13:44:20.001Z</time></trkpt><trkpt lat="44.52218762518703" lon="11.159512324923702"><ele>52.0</ele><time>2026-05-03T13:44:21.001Z</time></trkpt><trkpt lat="44.522280792607866" lon="11.159224287565772"><ele>51.33333333333333</ele><time>2026-05-03T13:44:22.001Z</time></trkpt><trkpt lat="44.52236468916477" lon="11.158930289552877"><ele>50.66666666666667</ele><time>2026-05-03T13:44:23.001Z</time></trkpt><trkpt lat="44.52245228944281" lon="11.158647698838733"><ele>50.0</ele><time>2026-05-03T13:44:24.001Z</time></trkpt><trkpt lat="44.52254962132374" lon="11.158364075697055"><ele>50.0</ele><time>2026-05-03T13:44:25.001Z</time></trkpt><trkpt lat="44.5226471531529" lon="11.158068806523117"><ele>50.0</ele><time>2026-05-03T13:44:26.001Z</time></trkpt><trkpt lat="44.52274235653169" lon="11.15777629956272"><ele>50.0</ele><time>2026-05-03T13:44:27.001Z</time></trkpt><trkpt lat="44.5228412870021" lon="11.157480543767786"><ele>50.0</ele><time>2026-05-03T13:44:28.001Z</time></trkpt><trkpt lat="44.52294019921695" lon="11.157177988073455"><ele>50.0</ele><time>2026-05-03T13:44:29.001Z</time></trkpt><trkpt lat="44.52303842398294" lon="11.156889207116919"><ele>50.0</ele><time>2026-05-03T13:44:30.001Z</time></trkpt><trkpt lat="44.52313307203511" lon="11.156598938984942"><ele>50.0</ele><time>2026-05-03T13:44:31.001Z</time></trkpt><trkpt lat="44.52323287616127" lon="11.1563137150905"><ele>50.0</ele><time>2026-05-03T13:44:32.001Z</time></trkpt><trkpt lat="44.523327482646785" lon="11.156035861790961"><ele>50.0</ele><time>2026-05-03T13:44:33.001Z</time></trkpt><trkpt lat="44.52342765578137" lon="11.155750581993713"><ele>51.5</ele><time>2026-05-03T13:44:34.001Z</time></trkpt><trkpt lat="44.52352685731018" lon="11.155466841066426"><ele>53.0</ele><time>2026-05-03T13:44:35.001Z</time></trkpt><trkpt lat="44.52362643945894" lon="11.155180228098102"><ele>53.0</ele><time>2026-05-03T13:44:36.001Z</time></trkpt><trkpt lat="44.52372263786616" lon="11.154892335855203"><ele>53.0</ele><time>2026-05-03T13:44:37.001Z</time></trkpt><trkpt lat="44.52381756129721" lon="11.154613810099276"><ele>53.0</ele><time>2026-05-03T13:44:38.001Z</time></trkpt><trkpt lat="44.52391358768034" lon="11.154331127357437"><ele>52.0</ele><time>2026-05-03T13:44:39.001Z</time></trkpt><trkpt lat="44.52400883877931" lon="11.154048742328767"><ele>51.0</ele><time>2026-05-03T13:44:40.001Z</time></trkpt><trkpt lat="44.52410351385962" lon="11.153766319794363"><ele>50.0</ele><time>2026-05-03T13:44:41.001Z</time></trkpt><trkpt lat="44.524195353908006" lon="11.153478437492026"><ele>51.5</ele><time>2026-05-03T13:44:42.001Z</time></trkpt><trkpt lat="44.524283373017084" lon="11.153186784505458"><ele>53.0</ele><time>2026-05-03T13:44:43.001Z</time></trkpt><trkpt lat="44.524374159351666" lon="11.15288540842339"><ele>53.0</ele><time>2026-05-03T13:44:44.001Z</time></trkpt><trkpt lat="44.524469371695325" lon="11.152583054308632"><ele>53.0</ele><time>2026-05-03T13:44:45.001Z</time></trkpt><trkpt lat="44.52456750427123" lon="11.1522755691839"><ele>53.5</ele><time>2026-05-03T13:44:46.001Z</time></trkpt><trkpt lat="44.52467253102596" lon="11.151960936298412"><ele>54.0</ele><time>2026-05-03T13:44:47.001Z</time></trkpt><trkpt lat="44.524782906655496" lon="11.151638268734613"><ele>53.5</ele><time>2026-05-03T13:44:48.001Z</time></trkpt><trkpt lat="44.52489643238299" lon="11.15130818334935"><ele>53.0</ele><time>2026-05-03T13:44:49.001Z</time></trkpt><trkpt lat="44.52500840071262" lon="11.150972110587958"><ele>53.0</ele><time>2026-05-03T13:44:50.001Z</time></trkpt><trkpt lat="44.52512136622514" lon="11.150628887045828"><ele>53.0</ele><time>2026-05-03T13:44:51.001Z</time></trkpt><trkpt lat="44.525232618446935" lon="11.150279417522519"><ele>53.0</ele><time>2026-05-03T13:44:52.001Z</time></trkpt><trkpt lat="44.52534337488" lon="11.149927025426564"><ele>53.0</ele><time>2026-05-03T13:44:53.001Z</time></trkpt><trkpt lat="44.52545636924894" lon="11.149573915881264"><ele>52.5</ele><time>2026-05-03T13:44:54.001Z</time></trkpt><trkpt lat="44.525574334808816" lon="11.149219790794508"><ele>52.0</ele><time>2026-05-03T13:44:55.001Z</time></trkpt><trkpt lat="44.52569500224233" lon="11.148865798196463"><ele>52.0</ele><time>2026-05-03T13:44:56.001Z</time></trkpt><trkpt lat="44.52581647317522" lon="11.148515601788574"><ele>52.0</ele><time>2026-05-03T13:44:57.001Z</time></trkpt><trkpt lat="44.525937598038766" lon="11.148163486495251"><ele>52.0</ele><time>2026-05-03T13:44:58.001Z</time></trkpt><trkpt lat="44.52605802874502" lon="11.147810620684174"><ele>52.0</ele><time>2026-05-03T13:44:59.001Z</time></trkpt><trkpt lat="44.5261767748247" lon="11.14745620225557"><ele>51.0</ele><time>2026-05-03T13:45:00.001Z</time></trkpt><trkpt lat="44.52629589194619" lon="11.147102321093149"><ele>50.0</ele><time>2026-05-03T13:45:01.001Z</time></trkpt><trkpt lat="44.52641557266411" lon="11.146747769924225"><ele>51.0</ele><time>2026-05-03T13:45:02.001Z</time></trkpt><trkpt lat="44.526533677286864" lon="11.146389812660253"><ele>52.0</ele><time>2026-05-03T13:45:03.001Z</time></trkpt><trkpt lat="44.526653551463326" lon="11.146034683941767"><ele>52.5</ele><time>2026-05-03T13:45:04.001Z</time></trkpt><trkpt lat="44.52677557780739" lon="11.14567971382042"><ele>53.0</ele><time>2026-05-03T13:45:05.001Z</time></trkpt><trkpt lat="44.526900217820994" lon="11.14532531967653"><ele>53.0</ele><time>2026-05-03T13:45:06.001Z</time></trkpt><trkpt lat="44.527024277108744" lon="11.144969233205103"><ele>53.0</ele><time>2026-05-03T13:45:07.001Z</time></trkpt><trkpt lat="44.527145833463734" lon="11.144609864005924"><ele>52.0</ele><time>2026-05-03T13:45:08.001Z</time></trkpt><trkpt lat="44.52726785545897" lon="11.144247312813715"><ele>51.0</ele><time>2026-05-03T13:45:09.001Z</time></trkpt><trkpt lat="44.52739061532997" lon="11.14388210448491"><ele>51.0</ele><time>2026-05-03T13:45:10.001Z</time></trkpt><trkpt lat="44.52751900189807" lon="11.143524678941443"><ele>51.0</ele><time>2026-05-03T13:45:11.001Z</time></trkpt><trkpt lat="44.52764025849099" lon="11.143162326687728"><ele>52.0</ele><time>2026-05-03T13:45:12.001Z</time></trkpt><trkpt lat="44.52776120777908" lon="11.14279870097987"><ele>53.0</ele><time>2026-05-03T13:45:13.001Z</time></trkpt><trkpt lat="44.527883246167605" lon="11.142432072478979"><ele>54.5</ele><time>2026-05-03T13:45:14.001Z</time></trkpt><trkpt lat="44.52800199713544" lon="11.142070274036449"><ele>56.0</ele><time>2026-05-03T13:45:15.001Z</time></trkpt><trkpt lat="44.52812702782169" lon="11.14170368524639"><ele>55.5</ele><time>2026-05-03T13:45:16.001Z</time></trkpt><trkpt lat="44.52825183723651" lon="11.141340050248193"><ele>55.0</ele><time>2026-05-03T13:45:17.001Z</time></trkpt><trkpt lat="44.52837422384438" lon="11.140976094197853"><ele>54.5</ele><time>2026-05-03T13:45:18.001Z</time></trkpt><trkpt lat="44.528496160641645" lon="11.140608185936358"><ele>54.0</ele><time>2026-05-03T13:45:19.001Z</time></trkpt><trkpt lat="44.52862177942716" lon="11.140242927819951"><ele>53.0</ele><time>2026-05-03T13:45:20.001Z</time></trkpt><trkpt lat="44.52874859734586" lon="11.139880336412318"><ele>52.0</ele><time>2026-05-03T13:45:21.001Z</time></trkpt><trkpt lat="44.52887458981241" lon="11.139513247263391"><ele>52.0</ele><time>2026-05-03T13:45:22.001Z</time></trkpt><trkpt lat="44.529000156333254" lon="11.139145690771125"><ele>52.0</ele><time>2026-05-03T13:45:23.001Z</time></trkpt><trkpt lat="44.529125493928376" lon="11.138774380133315"><ele>52.5</ele><time>2026-05-03T13:45:24.001Z</time></trkpt><trkpt lat="44.529250916590904" lon="11.138398811699366"><ele>53.0</ele><time>2026-05-03T13:45:25.001Z</time></trkpt><trkpt lat="44.52937868641362" lon="11.138023836136725"><ele>54.5</ele><time>2026-05-03T13:45:26.001Z</time></trkpt><trkpt lat="44.529506917016036" lon="11.137645665110748"><ele>56.0</ele><time>2026-05-03T13:45:27.001Z</time></trkpt><trkpt lat="44.5296366125153" lon="11.13726947909723"><ele>56.0</ele><time>2026-05-03T13:45:28.001Z</time></trkpt><trkpt lat="44.529764833499954" lon="11.13689655463232"><ele>56.0</ele><time>2026-05-03T13:45:29.001Z</time></trkpt><trkpt lat="44.52989417325424" lon="11.13651989185262"><ele>55.5</ele><time>2026-05-03T13:45:30.001Z</time></trkpt><trkpt lat="44.530022308663796" lon="11.136140839412194"><ele>55.0</ele><time>2026-05-03T13:45:31Z</time></trkpt><trkpt lat="44.530148794219876" lon="11.135763337514868"><ele>54.5</ele><time>2026-05-03T13:45:32Z</time></trkpt><trkpt lat="44.5302760670484" lon="11.13538146638956"><ele>54.0</ele><time>2026-05-03T13:45:33Z</time></trkpt><trkpt lat="44.53040464834621" lon="11.134998628570905"><ele>53.5</ele><time>2026-05-03T13:45:34Z</time></trkpt><trkpt lat="44.53053519329301" lon="11.134612237529694"><ele>53.0</ele><time>2026-05-03T13:45:35Z</time></trkpt><trkpt lat="44.5306657556251" lon="11.134228002634282"><ele>54.5</ele><time>2026-05-03T13:45:36Z</time></trkpt><trkpt lat="44.53079675641114" lon="11.133844450508839"><ele>56.0</ele><time>2026-05-03T13:45:37Z</time></trkpt><trkpt lat="44.53093019838208" lon="11.133460523013984"><ele>55.5</ele><time>2026-05-03T13:45:38Z</time></trkpt><trkpt lat="44.53106801963376" lon="11.133071946139586"><ele>55.0</ele><time>2026-05-03T13:45:39Z</time></trkpt><trkpt lat="44.53120414658948" lon="11.132690027147948"><ele>54.0</ele><time>2026-05-03T13:45:40Z</time></trkpt><trkpt lat="44.531344414005666" lon="11.132301948453003"><ele>53.0</ele><time>2026-05-03T13:45:41Z</time></trkpt><trkpt lat="44.53147988603307" lon="11.131914922786494"><ele>54.5</ele><time>2026-05-03T13:45:42Z</time></trkpt><trkpt lat="44.53161507145073" lon="11.131525000543123"><ele>56.0</ele><time>2026-05-03T13:45:43Z</time></trkpt><trkpt lat="44.53174960189895" lon="11.131136316210904"><ele>56.0</ele><time>2026-05-03T13:45:44Z</time></trkpt><trkpt lat="44.53188402737056" lon="11.130747666635827"><ele>56.0</ele><time>2026-05-03T13:45:45Z</time></trkpt><trkpt lat="44.53201724050338" lon="11.130357346147568"><ele>55.5</ele><time>2026-05-03T13:45:46Z</time></trkpt><trkpt lat="44.53214803502696" lon="11.129965056790601"><ele>55.0</ele><time>2026-05-03T13:45:47Z</time></trkpt><trkpt lat="44.53227793254678" lon="11.129576220776672"><ele>54.5</ele><time>2026-05-03T13:45:48Z</time></trkpt><trkpt lat="44.53240967772743" lon="11.129190390126462"><ele>54.0</ele><time>2026-05-03T13:45:49Z</time></trkpt><trkpt lat="44.53254156291842" lon="11.128804841791858"><ele>55.0</ele><time>2026-05-03T13:45:50Z</time></trkpt><trkpt lat="44.53267264174848" lon="11.128420328413746"><ele>56.0</ele><time>2026-05-03T13:45:51Z</time></trkpt><trkpt lat="44.53280728375123" lon="11.12802879282826"><ele>55.0</ele><time>2026-05-03T13:45:52Z</time></trkpt><trkpt lat="44.532939334001185" lon="11.12764647978125"><ele>54.0</ele><time>2026-05-03T13:45:53Z</time></trkpt><trkpt lat="44.53306964725835" lon="11.12726420202723"><ele>54.0</ele><time>2026-05-03T13:45:54Z</time></trkpt><trkpt lat="44.53320208218938" lon="11.126879886023778"><ele>54.0</ele><time>2026-05-03T13:45:55Z</time></trkpt><trkpt lat="44.53333425181177" lon="11.126497190815838"><ele>54.0</ele><time>2026-05-03T13:45:56Z</time></trkpt><trkpt lat="44.53346327609136" lon="11.126109811698669"><ele>54.0</ele><time>2026-05-03T13:45:57Z</time></trkpt><trkpt lat="44.533595442285545" lon="11.125724588170499"><ele>54.0</ele><time>2026-05-03T13:45:58Z</time></trkpt><trkpt lat="44.53373110594648" lon="11.125340674637876"><ele>54.0</ele><time>2026-05-03T13:45:59Z</time></trkpt><trkpt lat="44.53387073377098" lon="11.1249560685708"><ele>54.0</ele><time>2026-05-03T13:46:00Z</time></trkpt><trkpt lat="44.534010114992725" lon="11.12457423127648"><ele>54.0</ele><time>2026-05-03T13:46:01Z</time></trkpt><trkpt lat="44.53415438671577" lon="11.124194880059724"><ele>55.0</ele><time>2026-05-03T13:46:02Z</time></trkpt><trkpt lat="44.53429800085733" lon="11.12381480845298"><ele>56.0</ele><time>2026-05-03T13:46:03Z</time></trkpt><trkpt lat="44.534443303610814" lon="11.12343355086531"><ele>55.5</ele><time>2026-05-03T13:46:04Z</time></trkpt><trkpt lat="44.5345900840417" lon="11.123051282905225"><ele>55.0</ele><time>2026-05-03T13:46:05Z</time></trkpt><trkpt lat="44.53473681619207" lon="11.122667741597349"><ele>55.5</ele><time>2026-05-03T13:46:06Z</time></trkpt><trkpt lat="44.53488045452981" lon="11.122284284717795"><ele>56.0</ele><time>2026-05-03T13:46:07Z</time></trkpt><trkpt lat="44.53502654417959" lon="11.121899171951366"><ele>55.5</ele><time>2026-05-03T13:46:08Z</time></trkpt><trkpt lat="44.535171084855016" lon="11.121516456279158"><ele>55.0</ele><time>2026-05-03T13:46:09Z</time></trkpt><trkpt lat="44.53531567809255" lon="11.121129163418177"><ele>55.0</ele><time>2026-05-03T13:46:10Z</time></trkpt><trkpt lat="44.53546073327467" lon="11.120745085182346"><ele>55.0</ele><time>2026-05-03T13:46:11Z</time></trkpt><trkpt lat="44.53560498333363" lon="11.120365921800873"><ele>54.5</ele><time>2026-05-03T13:46:12Z</time></trkpt><trkpt lat="44.535750200786" lon="11.119988624608045"><ele>54.0</ele><time>2026-05-03T13:46:13Z</time></trkpt><trkpt lat="44.53590154214336" lon="11.119604686938231"><ele>54.0</ele><time>2026-05-03T13:46:14Z</time></trkpt><trkpt lat="44.536047713458146" lon="11.119229979912989"><ele>54.0</ele><time>2026-05-03T13:46:15Z</time></trkpt><trkpt lat="44.536191389676155" lon="11.11885313296069"><ele>54.0</ele><time>2026-05-03T13:46:16.001Z</time></trkpt><trkpt lat="44.53633717790344" lon="11.118470587369407"><ele>54.0</ele><time>2026-05-03T13:46:17.001Z</time></trkpt><trkpt lat="44.536481240452176" lon="11.11809397907457"><ele>54.0</ele><time>2026-05-03T13:46:18.001Z</time></trkpt><trkpt lat="44.53662642896786" lon="11.117715131258805"><ele>54.0</ele><time>2026-05-03T13:46:19.001Z</time></trkpt><trkpt lat="44.53676969011945" lon="11.117340482052068"><ele>54.0</ele><time>2026-05-03T13:46:20.001Z</time></trkpt><trkpt lat="44.536913480744694" lon="11.11696090131164"><ele>54.0</ele><time>2026-05-03T13:46:21.001Z</time></trkpt><trkpt lat="44.53705432413965" lon="11.116583256578174"><ele>54.0</ele><time>2026-05-03T13:46:22.001Z</time></trkpt><trkpt lat="44.53719549057525" lon="11.116205934922396"><ele>54.0</ele><time>2026-05-03T13:46:23.001Z</time></trkpt><trkpt lat="44.537335106193005" lon="11.11582756307405"><ele>54.5</ele><time>2026-05-03T13:46:24.001Z</time></trkpt><trkpt lat="44.53747165499551" lon="11.11544919010047"><ele>55.0</ele><time>2026-05-03T13:46:25.001Z</time></trkpt><trkpt lat="44.53760927557677" lon="11.115067023898883"><ele>55.0</ele><time>2026-05-03T13:46:26.001Z</time></trkpt><trkpt lat="44.537748449155785" lon="11.114690337925287"><ele>55.0</ele><time>2026-05-03T13:46:27.001Z</time></trkpt><trkpt lat="44.537890058244784" lon="11.11431761318605"><ele>55.5</ele><time>2026-05-03T13:46:28.001Z</time></trkpt><trkpt lat="44.53803379313864" lon="11.113943306351626"><ele>56.0</ele><time>2026-05-03T13:46:29.001Z</time></trkpt><trkpt lat="44.53817770812293" lon="11.113572425506774"><ele>55.0</ele><time>2026-05-03T13:46:30.001Z</time></trkpt><trkpt lat="44.53831914160763" lon="11.113202476211923"><ele>54.0</ele><time>2026-05-03T13:46:31.001Z</time></trkpt><trkpt lat="44.53845873685613" lon="11.112827099144905"><ele>54.0</ele><time>2026-05-03T13:46:32.001Z</time></trkpt><trkpt lat="44.53860025480316" lon="11.112456992914415"><ele>54.0</ele><time>2026-05-03T13:46:33.001Z</time></trkpt><trkpt lat="44.538744553066266" lon="11.112089780906832"><ele>54.5</ele><time>2026-05-03T13:46:34.001Z</time></trkpt><trkpt lat="44.53888831808123" lon="11.11172237543623"><ele>55.0</ele><time>2026-05-03T13:46:35.001Z</time></trkpt><trkpt lat="44.53903134242585" lon="11.111358892953044"><ele>55.0</ele><time>2026-05-03T13:46:36.001Z</time></trkpt><trkpt lat="44.53917275207689" lon="11.110995323597155"><ele>55.0</ele><time>2026-05-03T13:46:37.001Z</time></trkpt><trkpt lat="44.53931024524425" lon="11.11063173297849"><ele>55.5</ele><time>2026-05-03T13:46:38.001Z</time></trkpt><trkpt lat="44.53944902843528" lon="11.110268789838477"><ele>56.0</ele><time>2026-05-03T13:46:39.001Z</time></trkpt><trkpt lat="44.53958837617511" lon="11.109906733437626"><ele>56.5</ele><time>2026-05-03T13:46:40.001Z</time></trkpt><trkpt lat="44.53972701359274" lon="11.109542965549842"><ele>57.0</ele><time>2026-05-03T13:46:41.001Z</time></trkpt><trkpt lat="44.53986469874964" lon="11.109181182709403"><ele>56.5</ele><time>2026-05-03T13:46:42.001Z</time></trkpt><trkpt lat="44.54000196486297" lon="11.108825118012067"><ele>56.0</ele><time>2026-05-03T13:46:43.001Z</time></trkpt><trkpt lat="44.54014011654298" lon="11.108460335118455"><ele>56.0</ele><time>2026-05-03T13:46:44.001Z</time></trkpt><trkpt lat="44.54027797368738" lon="11.108097878813455"><ele>56.0</ele><time>2026-05-03T13:46:45.001Z</time></trkpt><trkpt lat="44.540416087887166" lon="11.107735237598018"><ele>57.5</ele><time>2026-05-03T13:46:46.001Z</time></trkpt><trkpt lat="44.54055615504622" lon="11.107372466974384"><ele>59.0</ele><time>2026-05-03T13:46:47.001Z</time></trkpt><trkpt lat="44.540696549406064" lon="11.107008909022952"><ele>59.0</ele><time>2026-05-03T13:46:48.001Z</time></trkpt><trkpt lat="44.5408376549344" lon="11.106645213898954"><ele>59.0</ele><time>2026-05-03T13:46:49.001Z</time></trkpt><trkpt lat="44.54097799163622" lon="11.106281643917063"><ele>59.0</ele><time>2026-05-03T13:46:50.001Z</time></trkpt><trkpt lat="44.54111923990622" lon="11.10591477456418"><ele>59.0</ele><time>2026-05-03T13:46:51.001Z</time></trkpt><trkpt lat="44.5412603675934" lon="11.105546146551532"><ele>57.5</ele><time>2026-05-03T13:46:52.001Z</time></trkpt><trkpt lat="44.54140083708596" lon="11.105178724912312"><ele>56.0</ele><time>2026-05-03T13:46:53.001Z</time></trkpt><trkpt lat="44.54154174906306" lon="11.10481243223333"><ele>56.0</ele><time>2026-05-03T13:46:54.001Z</time></trkpt><trkpt lat="44.54168271583884" lon="11.10444614576183"><ele>56.0</ele><time>2026-05-03T13:46:55.001Z</time></trkpt><trkpt lat="44.541824275554404" lon="11.10407812807976"><ele>56.0</ele><time>2026-05-03T13:46:56.001Z</time></trkpt><trkpt lat="44.541964323860256" lon="11.103710427221543"><ele>56.0</ele><time>2026-05-03T13:46:57.001Z</time></trkpt><trkpt lat="44.5421057985516" lon="11.103341974626124"><ele>55.5</ele><time>2026-05-03T13:46:58.001Z</time></trkpt><trkpt lat="44.54224526449777" lon="11.102975144162006"><ele>55.0</ele><time>2026-05-03T13:46:59.001Z</time></trkpt><trkpt lat="44.54238379918065" lon="11.102609183547873"><ele>54.5</ele><time>2026-05-03T13:47:00Z</time></trkpt><trkpt lat="44.54252347631384" lon="11.102242243304191"><ele>54.0</ele><time>2026-05-03T13:47:01Z</time></trkpt><trkpt lat="44.542662920983375" lon="11.101873842863837"><ele>54.0</ele><time>2026-05-03T13:47:02Z</time></trkpt><trkpt lat="44.54280352202058" lon="11.101506286658745"><ele>54.0</ele><time>2026-05-03T13:47:03Z</time></trkpt><trkpt lat="44.54294561453802" lon="11.101139029546982"><ele>54.5</ele><time>2026-05-03T13:47:04Z</time></trkpt><trkpt lat="44.54308817917864" lon="11.100772736207466"><ele>55.0</ele><time>2026-05-03T13:47:05Z</time></trkpt><trkpt lat="44.543231451942376" lon="11.100406686639618"><ele>54.0</ele><time>2026-05-03T13:47:06Z</time></trkpt><trkpt lat="44.54337336612558" lon="11.10004018545625"><ele>53.0</ele><time>2026-05-03T13:47:07Z</time></trkpt><trkpt lat="44.54351358064131" lon="11.099675083824444"><ele>53.0</ele><time>2026-05-03T13:47:08Z</time></trkpt><trkpt lat="44.54365550273618" lon="11.099311135149588"><ele>53.0</ele><time>2026-05-03T13:47:09Z</time></trkpt><trkpt lat="44.54379956490482" lon="11.098949178960051"><ele>53.0</ele><time>2026-05-03T13:47:10Z</time></trkpt><trkpt lat="44.54394380758738" lon="11.098587221105381"><ele>53.0</ele><time>2026-05-03T13:47:11Z</time></trkpt><trkpt lat="44.5440865158754" lon="11.098224537942242"><ele>53.0</ele><time>2026-05-03T13:47:12Z</time></trkpt><trkpt lat="44.54422714451393" lon="11.09786150498156"><ele>53.0</ele><time>2026-05-03T13:47:13Z</time></trkpt><trkpt lat="44.54436843724937" lon="11.097498436863336"><ele>53.5</ele><time>2026-05-03T13:47:14Z</time></trkpt><trkpt lat="44.54451064437747" lon="11.097135463465852"><ele>54.0</ele><time>2026-05-03T13:47:15Z</time></trkpt><trkpt lat="44.5446526551978" lon="11.096773181432225"><ele>55.5</ele><time>2026-05-03T13:47:16Z</time></trkpt><trkpt lat="44.544794440930616" lon="11.096407229125406"><ele>57.0</ele><time>2026-05-03T13:47:17Z</time></trkpt><trkpt lat="44.54493420693029" lon="11.09604163068507"><ele>56.5</ele><time>2026-05-03T13:47:18Z</time></trkpt><trkpt lat="44.54507410987081" lon="11.095674359296217"><ele>56.0</ele><time>2026-05-03T13:47:19Z</time></trkpt><trkpt lat="44.545212779007365" lon="11.095306089020792"><ele>56.0</ele><time>2026-05-03T13:47:20Z</time></trkpt><trkpt lat="44.545351340965084" lon="11.094937924467676"><ele>56.0</ele><time>2026-05-03T13:47:21Z</time></trkpt><trkpt lat="44.54549173466971" lon="11.094572213351036"><ele>55.0</ele><time>2026-05-03T13:47:22Z</time></trkpt><trkpt lat="44.54563304567175" lon="11.09420535297318"><ele>54.0</ele><time>2026-05-03T13:47:23Z</time></trkpt><trkpt lat="44.54577320457141" lon="11.093840649411701"><ele>54.0</ele><time>2026-05-03T13:47:24Z</time></trkpt><trkpt lat="44.545911308997574" lon="11.093474853802878"><ele>54.0</ele><time>2026-05-03T13:47:25Z</time></trkpt><trkpt lat="44.54605025482385" lon="11.09310832166783"><ele>53.5</ele><time>2026-05-03T13:47:26Z</time></trkpt><trkpt lat="44.546189114009756" lon="11.09274114418362"><ele>53.0</ele><time>2026-05-03T13:47:27Z</time></trkpt><trkpt lat="44.54632842026552" lon="11.09237887551609"><ele>54.0</ele><time>2026-05-03T13:47:28Z</time></trkpt><trkpt lat="44.546467570867804" lon="11.092014534018364"><ele>55.0</ele><time>2026-05-03T13:47:29Z</time></trkpt><trkpt lat="44.5466072959037" lon="11.091652298108336"><ele>55.0</ele><time>2026-05-03T13:47:30Z</time></trkpt><trkpt lat="44.54674693674879" lon="11.091287354856034"><ele>55.0</ele><time>2026-05-03T13:47:31Z</time></trkpt><trkpt lat="44.54688718930659" lon="11.09092078839828"><ele>54.5</ele><time>2026-05-03T13:47:32Z</time></trkpt><trkpt lat="44.547028458601154" lon="11.090552113988664"><ele>54.0</ele><time>2026-05-03T13:47:33Z</time></trkpt><trkpt lat="44.5471709840633" lon="11.090183327302704"><ele>54.0</ele><time>2026-05-03T13:47:34Z</time></trkpt><trkpt lat="44.547312142359004" lon="11.089814312088516"><ele>54.0</ele><time>2026-05-03T13:47:35Z</time></trkpt><trkpt lat="44.54745365469633" lon="11.089443844598181"><ele>53.5</ele><time>2026-05-03T13:47:36Z</time></trkpt><trkpt lat="44.54759541542437" lon="11.089075840800712"><ele>53.0</ele><time>2026-05-03T13:47:37Z</time></trkpt><trkpt lat="44.547735733468365" lon="11.088708681026597"><ele>53.0</ele><time>2026-05-03T13:47:38Z</time></trkpt><trkpt lat="44.54787484650505" lon="11.088340666976556"><ele>53.0</ele><time>2026-05-03T13:47:39Z</time></trkpt><trkpt lat="44.54801209707232" lon="11.087976807747484"><ele>52.5</ele><time>2026-05-03T13:47:40Z</time></trkpt><trkpt lat="44.54815012924007" lon="11.087611292907418"><ele>52.0</ele><time>2026-05-03T13:47:41Z</time></trkpt><trkpt lat="44.54829006656464" lon="11.08724864875772"><ele>52.5</ele><time>2026-05-03T13:47:42Z</time></trkpt><trkpt lat="44.54843109450671" lon="11.086884700006395"><ele>53.0</ele><time>2026-05-03T13:47:43Z</time></trkpt><trkpt lat="44.54857273015742" lon="11.086520505467618"><ele>53.0</ele><time>2026-05-03T13:47:44Z</time></trkpt><trkpt lat="44.54871376613394" lon="11.086153400449193"><ele>53.0</ele><time>2026-05-03T13:47:45Z</time></trkpt><trkpt lat="44.54885411705487" lon="11.085788895603882"><ele>52.5</ele><time>2026-05-03T13:47:46Z</time></trkpt><trkpt lat="44.548991004708824" lon="11.085437492287253"><ele>52.0</ele><time>2026-05-03T13:47:47Z</time></trkpt><trkpt lat="44.5491170786008" lon="11.085107940652081"><ele>52.5</ele><time>2026-05-03T13:47:48Z</time></trkpt><trkpt lat="44.549236087833016" lon="11.084790140019532"><ele>53.0</ele><time>2026-05-03T13:47:49Z</time></trkpt><trkpt lat="44.5493511379673" lon="11.084486876817552"><ele>53.0</ele><time>2026-05-03T13:47:50Z</time></trkpt><trkpt lat="44.54946736465192" lon="11.084187502722761"><ele>53.0</ele><time>2026-05-03T13:47:51Z</time></trkpt><trkpt lat="44.54958794687233" lon="11.083887336329813"><ele>53.0</ele><time>2026-05-03T13:47:52Z</time></trkpt><trkpt lat="44.549708707442875" lon="11.083581646766687"><ele>53.0</ele><time>2026-05-03T13:47:53Z</time></trkpt><trkpt lat="44.54982853241029" lon="11.083267711382602"><ele>53.5</ele><time>2026-05-03T13:47:54Z</time></trkpt><trkpt lat="44.54994965250413" lon="11.082950485834425"><ele>54.0</ele><time>2026-05-03T13:47:55Z</time></trkpt><trkpt lat="44.55007223823707" lon="11.082630554610962"><ele>54.0</ele><time>2026-05-03T13:47:56Z</time></trkpt><trkpt lat="44.55019541442926" lon="11.082307336276736"><ele>54.0</ele><time>2026-05-03T13:47:57Z</time></trkpt><trkpt lat="44.55031898873151" lon="11.081982704620605"><ele>53.5</ele><time>2026-05-03T13:47:58Z</time></trkpt><trkpt lat="44.55044341772741" lon="11.081655729468322"><ele>53.0</ele><time>2026-05-03T13:47:59Z</time></trkpt><trkpt lat="44.55056886255217" lon="11.081326852365637"><ele>53.0</ele><time>2026-05-03T13:48:00Z</time></trkpt><trkpt lat="44.550695867795426" lon="11.080992893214374"><ele>53.0</ele><time>2026-05-03T13:48:01Z</time></trkpt><trkpt lat="44.55082379856522" lon="11.080659492263555"><ele>53.0</ele><time>2026-05-03T13:48:02Z</time></trkpt><trkpt lat="44.55095319090334" lon="11.080322914098328"><ele>53.0</ele><time>2026-05-03T13:48:03Z</time></trkpt><trkpt lat="44.55108199387138" lon="11.079986071138293"><ele>53.5</ele><time>2026-05-03T13:48:04Z</time></trkpt><trkpt lat="44.55121307647537" lon="11.079644693219254"><ele>54.0</ele><time>2026-05-03T13:48:05Z</time></trkpt><trkpt lat="44.55134508596332" lon="11.079300415814771"><ele>54.5</ele><time>2026-05-03T13:48:06Z</time></trkpt><trkpt lat="44.55147628884851" lon="11.078956261005253"><ele>55.0</ele><time>2026-05-03T13:48:07Z</time></trkpt><trkpt lat="44.551608251983595" lon="11.078606769047935"><ele>53.5</ele><time>2026-05-03T13:48:08Z</time></trkpt><trkpt lat="44.55174161768639" lon="11.078259579056537"><ele>52.0</ele><time>2026-05-03T13:48:09Z</time></trkpt><trkpt lat="44.55187588442587" lon="11.077912006788639"><ele>52.0</ele><time>2026-05-03T13:48:10Z</time></trkpt><trkpt lat="44.55200989895085" lon="11.077564857337059"><ele>52.0</ele><time>2026-05-03T13:48:11Z</time></trkpt><trkpt lat="44.55214857970717" lon="11.077217442781793"><ele>52.0</ele><time>2026-05-03T13:48:12Z</time></trkpt><trkpt lat="44.55228996230162" lon="11.076872131359838"><ele>52.0</ele><time>2026-05-03T13:48:13Z</time></trkpt><trkpt lat="44.5524297551632" lon="11.076526154016463"><ele>52.5</ele><time>2026-05-03T13:48:14Z</time></trkpt><trkpt lat="44.55256675517718" lon="11.076177363226522"><ele>53.0</ele><time>2026-05-03T13:48:15Z</time></trkpt><trkpt lat="44.552701818315306" lon="11.075829726886674"><ele>53.5</ele><time>2026-05-03T13:48:16Z</time></trkpt><trkpt lat="44.5528380373173" lon="11.07547818156742"><ele>54.0</ele><time>2026-05-03T13:48:17Z</time></trkpt><trkpt lat="44.552973905233486" lon="11.075128632328212"><ele>52.0</ele><time>2026-05-03T13:48:18Z</time></trkpt><trkpt lat="44.55310863460291" lon="11.074778050877503"><ele>50.0</ele><time>2026-05-03T13:48:19Z</time></trkpt><trkpt lat="44.5532432236259" lon="11.074425936948465"><ele>50.5</ele><time>2026-05-03T13:48:20Z</time></trkpt><trkpt lat="44.553378953659866" lon="11.074071820093742"><ele>51.0</ele><time>2026-05-03T13:48:21.001Z</time></trkpt><trkpt lat="44.55351485515737" lon="11.073719543728574"><ele>51.0</ele><time>2026-05-03T13:48:22.001Z</time></trkpt><trkpt lat="44.553650484494696" lon="11.073365035828164"><ele>51.0</ele><time>2026-05-03T13:48:23.001Z</time></trkpt><trkpt lat="44.553786131794745" lon="11.073009346418578"><ele>51.0</ele><time>2026-05-03T13:48:24.001Z</time></trkpt><trkpt lat="44.55392015894616" lon="11.072656395014354"><ele>51.0</ele><time>2026-05-03T13:48:25.001Z</time></trkpt><trkpt lat="44.554054111650785" lon="11.072304105534668"><ele>51.0</ele><time>2026-05-03T13:48:26.001Z</time></trkpt><trkpt lat="44.554186939071585" lon="11.07195392929184"><ele>51.0</ele><time>2026-05-03T13:48:27.001Z</time></trkpt><trkpt lat="44.554318840781214" lon="11.071605275061492"><ele>51.5</ele><time>2026-05-03T13:48:28.001Z</time></trkpt><trkpt lat="44.55445113070129" lon="11.071257040324332"><ele>52.0</ele><time>2026-05-03T13:48:29.001Z</time></trkpt><trkpt lat="44.55458291568542" lon="11.070913322387904"><ele>51.5</ele><time>2026-05-03T13:48:30.001Z</time></trkpt><trkpt lat="44.55471427102139" lon="11.070571611785043"><ele>51.0</ele><time>2026-05-03T13:48:31.001Z</time></trkpt><trkpt lat="44.55484524447099" lon="11.070231638177075"><ele>51.0</ele><time>2026-05-03T13:48:32.001Z</time></trkpt><trkpt lat="44.5549754351264" lon="11.069897104946532"><ele>51.0</ele><time>2026-05-03T13:48:33.001Z</time></trkpt><trkpt lat="44.555103573642164" lon="11.069564804874583"><ele>51.0</ele><time>2026-05-03T13:48:34.001Z</time></trkpt><trkpt lat="44.555233289758135" lon="11.069230784778448"><ele>51.0</ele><time>2026-05-03T13:48:35.001Z</time></trkpt><trkpt lat="44.555360416170224" lon="11.068895717395382"><ele>50.5</ele><time>2026-05-03T13:48:36.001Z</time></trkpt><trkpt lat="44.555487261358735" lon="11.068563461906768"><ele>50.0</ele><time>2026-05-03T13:48:37.001Z</time></trkpt><trkpt lat="44.55561271097013" lon="11.0682311387984"><ele>49.5</ele><time>2026-05-03T13:48:38.001Z</time></trkpt><trkpt lat="44.55573742112449" lon="11.067899706885052"><ele>49.0</ele><time>2026-05-03T13:48:39.001Z</time></trkpt><trkpt lat="44.55586300102875" lon="11.067568066462904"><ele>49.0</ele><time>2026-05-03T13:48:40.001Z</time></trkpt><trkpt lat="44.55598873875745" lon="11.067238871156434"><ele>49.0</ele><time>2026-05-03T13:48:41.001Z</time></trkpt><trkpt lat="44.556114452391725" lon="11.066909722440085"><ele>50.0</ele><time>2026-05-03T13:48:42.001Z</time></trkpt><trkpt lat="44.55623952036488" lon="11.066579808138382"><ele>51.0</ele><time>2026-05-03T13:48:43.001Z</time></trkpt><trkpt lat="44.55636416761475" lon="11.066251501942054"><ele>51.0</ele><time>2026-05-03T13:48:44.001Z</time></trkpt><trkpt lat="44.55648968072637" lon="11.065923411722727"><ele>51.0</ele><time>2026-05-03T13:48:45.001Z</time></trkpt><trkpt lat="44.55661507064714" lon="11.065595438858525"><ele>50.5</ele><time>2026-05-03T13:48:46.001Z</time></trkpt><trkpt lat="44.55674106946102" lon="11.065269520431471"><ele>50.0</ele><time>2026-05-03T13:48:47.001Z</time></trkpt><trkpt lat="44.55686878297256" lon="11.064944020297839"><ele>50.0</ele><time>2026-05-03T13:48:48.001Z</time></trkpt><trkpt lat="44.55699642774776" lon="11.064617302369658"><ele>50.0</ele><time>2026-05-03T13:48:49Z</time></trkpt><trkpt lat="44.55712284699699" lon="11.06429122504963"><ele>50.5</ele><time>2026-05-03T13:48:50Z</time></trkpt><trkpt lat="44.55724604831479" lon="11.063964327201505"><ele>51.0</ele><time>2026-05-03T13:48:51Z</time></trkpt><trkpt lat="44.55736844677665" lon="11.063637285772609"><ele>51.0</ele><time>2026-05-03T13:48:52Z</time></trkpt><trkpt lat="44.557492451089026" lon="11.063309908569634"><ele>51.0</ele><time>2026-05-03T13:48:53Z</time></trkpt><trkpt lat="44.55761650818545" lon="11.062982471498403"><ele>51.0</ele><time>2026-05-03T13:48:54Z</time></trkpt><trkpt lat="44.5577398083184" lon="11.062653835283303"><ele>51.0</ele><time>2026-05-03T13:48:55Z</time></trkpt><trkpt lat="44.55786536156917" lon="11.06232454794005"><ele>51.5</ele><time>2026-05-03T13:48:56Z</time></trkpt><trkpt lat="44.55799040101086" lon="11.061994222404877"><ele>52.0</ele><time>2026-05-03T13:48:57Z</time></trkpt><trkpt lat="44.55811680937393" lon="11.061661943094256"><ele>52.5</ele><time>2026-05-03T13:48:58Z</time></trkpt><trkpt lat="44.558242837053534" lon="11.061330361700131"><ele>53.0</ele><time>2026-05-03T13:48:59Z</time></trkpt><trkpt lat="44.558369433974" lon="11.060998982366069"><ele>53.5</ele><time>2026-05-03T13:49:00Z</time></trkpt><trkpt lat="44.55849580342748" lon="11.060666531946296"><ele>54.0</ele><time>2026-05-03T13:49:01Z</time></trkpt><trkpt lat="44.55862282693512" lon="11.060331433948358"><ele>53.5</ele><time>2026-05-03T13:49:02Z</time></trkpt><trkpt lat="44.558750957698344" lon="11.059993315765452"><ele>53.0</ele><time>2026-05-03T13:49:03Z</time></trkpt><trkpt lat="44.55888103502355" lon="11.059656609171764"><ele>52.5</ele><time>2026-05-03T13:49:04Z</time></trkpt><trkpt lat="44.559012919217274" lon="11.059319706248056"><ele>52.0</ele><time>2026-05-03T13:49:05Z</time></trkpt><trkpt lat="44.55914465601735" lon="11.058981061288973"><ele>51.5</ele><time>2026-05-03T13:49:06Z</time></trkpt><trkpt lat="44.55927632730184" lon="11.058641896296677"><ele>51.0</ele><time>2026-05-03T13:49:07Z</time></trkpt><trkpt lat="44.559406271777576" lon="11.058303246162723"><ele>50.0</ele><time>2026-05-03T13:49:08Z</time></trkpt><trkpt lat="44.559537084177315" lon="11.05796360267783"><ele>49.0</ele><time>2026-05-03T13:49:09Z</time></trkpt><trkpt lat="44.55966740128711" lon="11.057621599329352"><ele>48.5</ele><time>2026-05-03T13:49:10Z</time></trkpt><trkpt lat="44.559796979152395" lon="11.057279272869875"><ele>48.0</ele><time>2026-05-03T13:49:11Z</time></trkpt><trkpt lat="44.55992704493545" lon="11.05693705190207"><ele>48.0</ele><time>2026-05-03T13:49:12Z</time></trkpt><trkpt lat="44.560055650459255" lon="11.056597303171479"><ele>48.0</ele><time>2026-05-03T13:49:13Z</time></trkpt><trkpt lat="44.56018442365406" lon="11.0562582557921"><ele>48.0</ele><time>2026-05-03T13:49:14Z</time></trkpt><trkpt lat="44.560314060394894" lon="11.055921102245122"><ele>48.0</ele><time>2026-05-03T13:49:15Z</time></trkpt><trkpt lat="44.560443238663424" lon="11.05558511486249"><ele>48.0</ele><time>2026-05-03T13:49:16Z</time></trkpt><trkpt lat="44.56057254624959" lon="11.055249973772257"><ele>48.0</ele><time>2026-05-03T13:49:17Z</time></trkpt><trkpt lat="44.560701031539274" lon="11.054915907705086"><ele>48.5</ele><time>2026-05-03T13:49:18Z</time></trkpt><trkpt lat="44.56083038690878" lon="11.05458191402572"><ele>49.0</ele><time>2026-05-03T13:49:19Z</time></trkpt><trkpt lat="44.5609604311624" lon="11.054248627158712"><ele>49.5</ele><time>2026-05-03T13:49:20Z</time></trkpt><trkpt lat="44.56108637362413" lon="11.053918832942966"><ele>50.0</ele><time>2026-05-03T13:49:21Z</time></trkpt><trkpt lat="44.56121120785249" lon="11.053593250802095"><ele>50.0</ele><time>2026-05-03T13:49:22Z</time></trkpt><trkpt lat="44.56133420517278" lon="11.053269737034277"><ele>50.0</ele><time>2026-05-03T13:49:23Z</time></trkpt><trkpt lat="44.56145615986044" lon="11.052951275373415"><ele>50.0</ele><time>2026-05-03T13:49:24Z</time></trkpt><trkpt lat="44.5615793625721" lon="11.052637888735838"><ele>50.0</ele><time>2026-05-03T13:49:25Z</time></trkpt><trkpt lat="44.56169973370178" lon="11.052325647390413"><ele>49.5</ele><time>2026-05-03T13:49:26Z</time></trkpt><trkpt lat="44.56181768581918" lon="11.052013008376994"><ele>49.0</ele><time>2026-05-03T13:49:27Z</time></trkpt><trkpt lat="44.56193664154221" lon="11.051698347069236"><ele>49.0</ele><time>2026-05-03T13:49:28Z</time></trkpt><trkpt lat="44.56205808397584" lon="11.051379665169755"><ele>49.0</ele><time>2026-05-03T13:49:29Z</time></trkpt><trkpt lat="44.56218052159084" lon="11.051058778614655"><ele>48.5</ele><time>2026-05-03T13:49:30Z</time></trkpt><trkpt lat="44.56230469068511" lon="11.050733455431132"><ele>48.0</ele><time>2026-05-03T13:49:31Z</time></trkpt><trkpt lat="44.562430065936354" lon="11.050403419345743"><ele>48.0</ele><time>2026-05-03T13:49:32Z</time></trkpt><trkpt lat="44.56255649759939" lon="11.050071120283883"><ele>48.0</ele><time>2026-05-03T13:49:33Z</time></trkpt><trkpt lat="44.56268294697101" lon="11.049736799881892"><ele>47.5</ele><time>2026-05-03T13:49:34Z</time></trkpt><trkpt lat="44.56281017364882" lon="11.049401407372335"><ele>47.0</ele><time>2026-05-03T13:49:35Z</time></trkpt><trkpt lat="44.56293883917001" lon="11.04906673631581"><ele>47.0</ele><time>2026-05-03T13:49:36Z</time></trkpt><trkpt lat="44.5630706358634" lon="11.048727920449464"><ele>47.0</ele><time>2026-05-03T13:49:37Z</time></trkpt><trkpt lat="44.56320178598173" lon="11.048389153403214"><ele>47.5</ele><time>2026-05-03T13:49:38Z</time></trkpt><trkpt lat="44.563331909036506" lon="11.04804977555577"><ele>48.0</ele><time>2026-05-03T13:49:39Z</time></trkpt><trkpt lat="44.56346145598412" lon="11.047705046186968"><ele>47.5</ele><time>2026-05-03T13:49:40Z</time></trkpt><trkpt lat="44.56359199023279" lon="11.047362157457309"><ele>47.0</ele><time>2026-05-03T13:49:41Z</time></trkpt><trkpt lat="44.56372352068133" lon="11.04701667521937"><ele>47.0</ele><time>2026-05-03T13:49:42Z</time></trkpt><trkpt lat="44.56385519874284" lon="11.046674494482275"><ele>47.0</ele><time>2026-05-03T13:49:43Z</time></trkpt><trkpt lat="44.56398783196056" lon="11.046329178588618"><ele>47.5</ele><time>2026-05-03T13:49:44Z</time></trkpt><trkpt lat="44.56411895449577" lon="11.045984153628432"><ele>48.0</ele><time>2026-05-03T13:49:45Z</time></trkpt><trkpt lat="44.564249376090565" lon="11.045636845636741"><ele>46.5</ele><time>2026-05-03T13:49:46Z</time></trkpt><trkpt lat="44.56437617277864" lon="11.045290427816475"><ele>45.0</ele><time>2026-05-03T13:49:47Z</time></trkpt><trkpt lat="44.5645002396799" lon="11.04493769467234"><ele>47.0</ele><time>2026-05-03T13:49:48Z</time></trkpt><trkpt lat="44.56462120937078" lon="11.044582431351891"><ele>49.0</ele><time>2026-05-03T13:49:49Z</time></trkpt><trkpt lat="44.564740088480605" lon="11.044224818280659"><ele>49.0</ele><time>2026-05-03T13:49:50Z</time></trkpt><trkpt lat="44.56485269132385" lon="11.043865696322401"><ele>49.0</ele><time>2026-05-03T13:49:51Z</time></trkpt><trkpt lat="44.56496133558345" lon="11.043504498239116"><ele>49.0</ele><time>2026-05-03T13:49:52Z</time></trkpt><trkpt lat="44.565066277898694" lon="11.043140536314127"><ele>49.0</ele><time>2026-05-03T13:49:53Z</time></trkpt><trkpt lat="44.565168393115535" lon="11.042773458134166"><ele>48.5</ele><time>2026-05-03T13:49:54Z</time></trkpt><trkpt lat="44.56526631196638" lon="11.042403887098978"><ele>48.0</ele><time>2026-05-03T13:49:55Z</time></trkpt><trkpt lat="44.56536138677212" lon="11.04203007066227"><ele>48.0</ele><time>2026-05-03T13:49:56Z</time></trkpt><trkpt lat="44.565450585928566" lon="11.041656520669498"><ele>48.0</ele><time>2026-05-03T13:49:57Z</time></trkpt><trkpt lat="44.56553538862869" lon="11.041277453824357"><ele>48.0</ele><time>2026-05-03T13:49:58Z</time></trkpt><trkpt lat="44.56561722173296" lon="11.040897291851925"><ele>48.0</ele><time>2026-05-03T13:49:59Z</time></trkpt><trkpt lat="44.56569786746103" lon="11.04051712271737"><ele>48.0</ele><time>2026-05-03T13:50:00Z</time></trkpt><trkpt lat="44.565776308152074" lon="11.040136400327604"><ele>48.0</ele><time>2026-05-03T13:50:01Z</time></trkpt><trkpt lat="44.56585466628931" lon="11.039753032457337"><ele>48.0</ele><time>2026-05-03T13:50:02Z</time></trkpt><trkpt lat="44.565931329618124" lon="11.039370857036555"><ele>48.0</ele><time>2026-05-03T13:50:03Z</time></trkpt><trkpt lat="44.56600809097704" lon="11.038987312313361"><ele>48.0</ele><time>2026-05-03T13:50:04Z</time></trkpt><trkpt lat="44.56608739003014" lon="11.038603728838009"><ele>48.0</ele><time>2026-05-03T13:50:05Z</time></trkpt><trkpt lat="44.566165308511685" lon="11.038222861132423"><ele>49.0</ele><time>2026-05-03T13:50:06Z</time></trkpt><trkpt lat="44.56624236698759" lon="11.03784025705905"><ele>50.0</ele><time>2026-05-03T13:50:07Z</time></trkpt><trkpt lat="44.56632022555526" lon="11.03745812506917"><ele>51.0</ele><time>2026-05-03T13:50:08Z</time></trkpt><trkpt lat="44.566397951667284" lon="11.037077055098115"><ele>52.0</ele><time>2026-05-03T13:50:09Z</time></trkpt><trkpt lat="44.56647652028061" lon="11.036696449102216"><ele>52.5</ele><time>2026-05-03T13:50:10Z</time></trkpt><trkpt lat="44.56655451810289" lon="11.036317176661145"><ele>53.0</ele><time>2026-05-03T13:50:11Z</time></trkpt><trkpt lat="44.56663186016661" lon="11.03593579506227"><ele>52.0</ele><time>2026-05-03T13:50:12Z</time></trkpt><trkpt lat="44.56671097530011" lon="11.035552178892283"><ele>51.0</ele><time>2026-05-03T13:50:13Z</time></trkpt><trkpt lat="44.56678959342922" lon="11.035172406198187"><ele>50.5</ele><time>2026-05-03T13:50:14Z</time></trkpt><trkpt lat="44.56686864663092" lon="11.034795268088509"><ele>50.0</ele><time>2026-05-03T13:50:15Z</time></trkpt><trkpt lat="44.56694582433995" lon="11.034419387780444"><ele>49.5</ele><time>2026-05-03T13:50:16Z</time></trkpt><trkpt lat="44.56702309895583" lon="11.03404773721329"><ele>49.0</ele><time>2026-05-03T13:50:17Z</time></trkpt><trkpt lat="44.56710050558879" lon="11.033676042909928"><ele>49.0</ele><time>2026-05-03T13:50:18Z</time></trkpt><trkpt lat="44.567178750830315" lon="11.033300207652573"><ele>49.0</ele><time>2026-05-03T13:50:19Z</time></trkpt><trkpt lat="44.5672568470258" lon="11.032924510500358"><ele>49.0</ele><time>2026-05-03T13:50:20Z</time></trkpt><trkpt lat="44.56733382357245" lon="11.03254890191773"><ele>49.0</ele><time>2026-05-03T13:50:21Z</time></trkpt><trkpt lat="44.56741089192815" lon="11.032174535987416"><ele>48.5</ele><time>2026-05-03T13:50:22Z</time></trkpt><trkpt lat="44.56748957730743" lon="11.031799916710334"><ele>48.0</ele><time>2026-05-03T13:50:23Z</time></trkpt><trkpt lat="44.56756812320532" lon="11.031424242559558"><ele>47.5</ele><time>2026-05-03T13:50:24Z</time></trkpt><trkpt lat="44.56764544904127" lon="11.03104839916374"><ele>47.0</ele><time>2026-05-03T13:50:25Z</time></trkpt><trkpt lat="44.56772151676401" lon="11.030671139096178"><ele>46.5</ele><time>2026-05-03T13:50:26Z</time></trkpt><trkpt lat="44.56779697864752" lon="11.030293867214507"><ele>46.0</ele><time>2026-05-03T13:50:27.001Z</time></trkpt><trkpt lat="44.56787425528377" lon="11.029916507215752"><ele>47.0</ele><time>2026-05-03T13:50:28.001Z</time></trkpt><trkpt lat="44.56795328659472" lon="11.02953941052857"><ele>48.0</ele><time>2026-05-03T13:50:29.001Z</time></trkpt><trkpt lat="44.568032674663016" lon="11.029162095918004"><ele>48.0</ele><time>2026-05-03T13:50:30.001Z</time></trkpt><trkpt lat="44.56811030469564" lon="11.02878498712526"><ele>48.0</ele><time>2026-05-03T13:50:31.001Z</time></trkpt><trkpt lat="44.568187729791845" lon="11.028409526231949"><ele>48.0</ele><time>2026-05-03T13:50:32.001Z</time></trkpt><trkpt lat="44.56826571545114" lon="11.028035960365907"><ele>48.0</ele><time>2026-05-03T13:50:33.001Z</time></trkpt><trkpt lat="44.568342809396206" lon="11.027664323910587"><ele>48.0</ele><time>2026-05-03T13:50:34.001Z</time></trkpt><trkpt lat="44.56841829315646" lon="11.027297133966984"><ele>48.0</ele><time>2026-05-03T13:50:35.001Z</time></trkpt><trkpt lat="44.56848948681522" lon="11.026934429804427"><ele>47.5</ele><time>2026-05-03T13:50:36.001Z</time></trkpt><trkpt lat="44.568559845687595" lon="11.026574188301952"><ele>47.0</ele><time>2026-05-03T13:50:37.001Z</time></trkpt><trkpt lat="44.56863535556709" lon="11.026219211915507"><ele>47.0</ele><time>2026-05-03T13:50:38.001Z</time></trkpt><trkpt lat="44.568714674697524" lon="11.025867538998861"><ele>47.0</ele><time>2026-05-03T13:50:39.001Z</time></trkpt><trkpt lat="44.56879507568335" lon="11.025515137412773"><ele>47.0</ele><time>2026-05-03T13:50:40.001Z</time></trkpt><trkpt lat="44.56887338985008" lon="11.025161364903855"><ele>47.0</ele><time>2026-05-03T13:50:41.001Z</time></trkpt><trkpt lat="44.56895087127665" lon="11.024812295677927"><ele>47.0</ele><time>2026-05-03T13:50:42Z</time></trkpt><trkpt lat="44.56902650065603" lon="11.024466173232085"><ele>47.0</ele><time>2026-05-03T13:50:43Z</time></trkpt><trkpt lat="44.56910182990404" lon="11.024122183500568"><ele>46.0</ele><time>2026-05-03T13:50:44Z</time></trkpt><trkpt lat="44.569174494427045" lon="11.023781371699528"><ele>45.0</ele><time>2026-05-03T13:50:45Z</time></trkpt><trkpt lat="44.569246014642864" lon="11.023442969847935"><ele>45.0</ele><time>2026-05-03T13:50:46Z</time></trkpt><trkpt lat="44.56931844507693" lon="11.0231085535885"><ele>45.0</ele><time>2026-05-03T13:50:47Z</time></trkpt><trkpt lat="44.56938948501608" lon="11.02277592216815"><ele>45.5</ele><time>2026-05-03T13:50:48Z</time></trkpt><trkpt lat="44.569459938067354" lon="11.022446783575052"><ele>46.0</ele><time>2026-05-03T13:50:49Z</time></trkpt><trkpt lat="44.56952830813535" lon="11.022117147576097"><ele>46.0</ele><time>2026-05-03T13:50:50Z</time></trkpt><trkpt lat="44.569596474333856" lon="11.021787399649574"><ele>46.0</ele><time>2026-05-03T13:50:51Z</time></trkpt><trkpt lat="44.569663461042914" lon="11.021457724926314"><ele>46.0</ele><time>2026-05-03T13:50:52Z</time></trkpt><trkpt lat="44.56972904173243" lon="11.021128385255338"><ele>46.0</ele><time>2026-05-03T13:50:53Z</time></trkpt><trkpt lat="44.569794411711904" lon="11.020799727421505"><ele>46.0</ele><time>2026-05-03T13:50:54Z</time></trkpt><trkpt lat="44.569861164433526" lon="11.020469880311087"><ele>46.0</ele><time>2026-05-03T13:50:55Z</time></trkpt><trkpt lat="44.569926401856655" lon="11.0201367701847"><ele>46.5</ele><time>2026-05-03T13:50:56Z</time></trkpt><trkpt lat="44.56999241168321" lon="11.019804464771385"><ele>47.0</ele><time>2026-05-03T13:50:57Z</time></trkpt><trkpt lat="44.570061390283215" lon="11.019473245791618"><ele>47.0</ele><time>2026-05-03T13:50:58Z</time></trkpt><trkpt lat="44.57013287158639" lon="11.019141722595888"><ele>47.0</ele><time>2026-05-03T13:50:59Z</time></trkpt><trkpt lat="44.570202592446186" lon="11.018803856087725"><ele>47.0</ele><time>2026-05-03T13:51:00Z</time></trkpt><trkpt lat="44.57026920937451" lon="11.018466865452007"><ele>47.0</ele><time>2026-05-03T13:51:01Z</time></trkpt><trkpt lat="44.57033860795189" lon="11.018130201027029"><ele>47.0</ele><time>2026-05-03T13:51:02Z</time></trkpt><trkpt lat="44.570409735355476" lon="11.017792232717833"><ele>47.0</ele><time>2026-05-03T13:51:03Z</time></trkpt><trkpt lat="44.57047958970316" lon="11.017454929488862"><ele>47.0</ele><time>2026-05-03T13:51:04Z</time></trkpt><trkpt lat="44.57055045967102" lon="11.017116003809843"><ele>47.0</ele><time>2026-05-03T13:51:05Z</time></trkpt><trkpt lat="44.570620673558075" lon="11.016776047799226"><ele>46.5</ele><time>2026-05-03T13:51:06Z</time></trkpt><trkpt lat="44.570691065862995" lon="11.016435237394209"><ele>46.0</ele><time>2026-05-03T13:51:07Z</time></trkpt><trkpt lat="44.57075989195245" lon="11.016096278800749"><ele>46.5</ele><time>2026-05-03T13:51:08Z</time></trkpt><trkpt lat="44.57082949130563" lon="11.015755430020736"><ele>47.0</ele><time>2026-05-03T13:51:09Z</time></trkpt><trkpt lat="44.57089913030508" lon="11.015414434205042"><ele>47.0</ele><time>2026-05-03T13:51:10Z</time></trkpt><trkpt lat="44.57097037730582" lon="11.015071931432695"><ele>47.0</ele><time>2026-05-03T13:51:11Z</time></trkpt><trkpt lat="44.57104223655834" lon="11.014729863735843"><ele>47.0</ele><time>2026-05-03T13:51:12Z</time></trkpt><trkpt lat="44.57111329925281" lon="11.014387812658374"><ele>47.0</ele><time>2026-05-03T13:51:13Z</time></trkpt><trkpt lat="44.57118252725215" lon="11.014044598172143"><ele>47.5</ele><time>2026-05-03T13:51:14Z</time></trkpt><trkpt lat="44.57125205900464" lon="11.013701168386604"><ele>48.0</ele><time>2026-05-03T13:51:15Z</time></trkpt><trkpt lat="44.57132221503632" lon="11.013357664249783"><ele>47.0</ele><time>2026-05-03T13:51:16Z</time></trkpt><trkpt lat="44.57139369224991" lon="11.013014315398003"><ele>46.0</ele><time>2026-05-03T13:51:17Z</time></trkpt><trkpt lat="44.57146295936158" lon="11.012670059660739"><ele>45.5</ele><time>2026-05-03T13:51:18Z</time></trkpt><trkpt lat="44.571532484485225" lon="11.012325883116901"><ele>45.0</ele><time>2026-05-03T13:51:19Z</time></trkpt><trkpt lat="44.57160438067553" lon="11.011982692835826"><ele>45.5</ele><time>2026-05-03T13:51:20Z</time></trkpt><trkpt lat="44.571676483490585" lon="11.011638932316323"><ele>46.0</ele><time>2026-05-03T13:51:21Z</time></trkpt><trkpt lat="44.57174785433892" lon="11.011295806192141"><ele>46.0</ele><time>2026-05-03T13:51:22Z</time></trkpt><trkpt lat="44.57181960058525" lon="11.010949298953012"><ele>46.0</ele><time>2026-05-03T13:51:23Z</time></trkpt><trkpt lat="44.5718911298926" lon="11.010603948199428"><ele>46.5</ele><time>2026-05-03T13:51:24Z</time></trkpt><trkpt lat="44.57196352747625" lon="11.010260693724856"><ele>47.0</ele><time>2026-05-03T13:51:25Z</time></trkpt><trkpt lat="44.572035992450395" lon="11.009917394309225"><ele>47.5</ele><time>2026-05-03T13:51:26Z</time></trkpt><trkpt lat="44.572106863784036" lon="11.009574063220745"><ele>48.0</ele><time>2026-05-03T13:51:27Z</time></trkpt><trkpt lat="44.57217743015076" lon="11.009229549602557"><ele>48.0</ele><time>2026-05-03T13:51:28Z</time></trkpt><trkpt lat="44.57224772282869" lon="11.008884479815539"><ele>48.0</ele><time>2026-05-03T13:51:29Z</time></trkpt><trkpt lat="44.572319742866064" lon="11.008539388942804"><ele>48.0</ele><time>2026-05-03T13:51:30Z</time></trkpt><trkpt lat="44.572391761629774" lon="11.008194986989428"><ele>48.0</ele><time>2026-05-03T13:51:31Z</time></trkpt><trkpt lat="44.57246365606274" lon="11.007850795325274"><ele>48.0</ele><time>2026-05-03T13:51:32Z</time></trkpt><trkpt lat="44.572536253671046" lon="11.007509577341672"><ele>48.0</ele><time>2026-05-03T13:51:33Z</time></trkpt><trkpt lat="44.572606311418824" lon="11.007172979565144"><ele>48.5</ele><time>2026-05-03T13:51:34Z</time></trkpt><trkpt lat="44.57267257036251" lon="11.00683850540373"><ele>49.0</ele><time>2026-05-03T13:51:35Z</time></trkpt><trkpt lat="44.572738193352386" lon="11.006509769913674"><ele>47.5</ele><time>2026-05-03T13:51:36Z</time></trkpt><trkpt lat="44.57280359990535" lon="11.006184189996754"><ele>46.0</ele><time>2026-05-03T13:51:37Z</time></trkpt><trkpt lat="44.57286701168043" lon="11.005857474241239"><ele>46.5</ele><time>2026-05-03T13:51:38Z</time></trkpt><trkpt lat="44.57292858622917" lon="11.005527818128689"><ele>47.0</ele><time>2026-05-03T13:51:39Z</time></trkpt><trkpt lat="44.57299125094177" lon="11.005192302291562"><ele>47.0</ele><time>2026-05-03T13:51:40Z</time></trkpt><trkpt lat="44.57305660832316" lon="11.004856393495846"><ele>47.0</ele><time>2026-05-03T13:51:41Z</time></trkpt><trkpt lat="44.57312316260177" lon="11.004520908682554"><ele>47.0</ele><time>2026-05-03T13:51:42Z</time></trkpt><trkpt lat="44.5731899028408" lon="11.004186490484978"><ele>47.0</ele><time>2026-05-03T13:51:43Z</time></trkpt><trkpt lat="44.573257858403295" lon="11.00385222094438"><ele>47.5</ele><time>2026-05-03T13:51:44Z</time></trkpt><trkpt lat="44.57332763343941" lon="11.003516530035261"><ele>48.0</ele><time>2026-05-03T13:51:45Z</time></trkpt><trkpt lat="44.57339651000417" lon="11.003178062321718"><ele>47.0</ele><time>2026-05-03T13:51:46Z</time></trkpt><trkpt lat="44.57346694287932" lon="11.002837023496502"><ele>46.0</ele><time>2026-05-03T13:51:47Z</time></trkpt><trkpt lat="44.573537522675096" lon="11.002493809347495"><ele>46.0</ele><time>2026-05-03T13:51:48Z</time></trkpt><trkpt lat="44.573607272180666" lon="11.002151929582418"><ele>46.0</ele><time>2026-05-03T13:51:49Z</time></trkpt><trkpt lat="44.57367721147846" lon="11.001807773215095"><ele>46.5</ele><time>2026-05-03T13:51:50Z</time></trkpt><trkpt lat="44.57374689793969" lon="11.001461812480724"><ele>47.0</ele><time>2026-05-03T13:51:51Z</time></trkpt><trkpt lat="44.573818397288925" lon="11.001119103321884"><ele>46.5</ele><time>2026-05-03T13:51:52Z</time></trkpt><trkpt lat="44.573889659139" lon="11.000776027089278"><ele>46.0</ele><time>2026-05-03T13:51:53Z</time></trkpt><trkpt lat="44.5739597159603" lon="11.00043040410099"><ele>46.0</ele><time>2026-05-03T13:51:54Z</time></trkpt><trkpt lat="44.57403113413809" lon="11.000084347165037"><ele>46.0</ele><time>2026-05-03T13:51:55Z</time></trkpt><trkpt lat="44.574103162689305" lon="10.99974144888172"><ele>46.0</ele><time>2026-05-03T13:51:56Z</time></trkpt><trkpt lat="44.57417866327715" lon="10.999398665609348"><ele>46.0</ele><time>2026-05-03T13:51:57Z</time></trkpt><trkpt lat="44.57425541504424" lon="10.999056470773526"><ele>45.0</ele><time>2026-05-03T13:51:58Z</time></trkpt><trkpt lat="44.57433418474098" lon="10.998716435348602"><ele>44.0</ele><time>2026-05-03T13:51:59Z</time></trkpt><trkpt lat="44.57441484621106" lon="10.9983789830809"><ele>44.5</ele><time>2026-05-03T13:52:00Z</time></trkpt><trkpt lat="44.57449613772677" lon="10.998039484385812"><ele>45.0</ele><time>2026-05-03T13:52:01Z</time></trkpt><trkpt lat="44.57458002322801" lon="10.997701628049738"><ele>46.0</ele><time>2026-05-03T13:52:02Z</time></trkpt><trkpt lat="44.574661267050324" lon="10.997365489480948"><ele>47.0</ele><time>2026-05-03T13:52:03Z</time></trkpt><trkpt lat="44.57474613076486" lon="10.997030318770271"><ele>47.0</ele><time>2026-05-03T13:52:04Z</time></trkpt><trkpt lat="44.57483226122363" lon="10.996697900576876"><ele>47.0</ele><time>2026-05-03T13:52:05Z</time></trkpt><trkpt lat="44.57491835923307" lon="10.996366494239934"><ele>47.0</ele><time>2026-05-03T13:52:06Z</time></trkpt><trkpt lat="44.57500494603206" lon="10.99603617658023"><ele>47.0</ele><time>2026-05-03T13:52:07Z</time></trkpt><trkpt lat="44.57509255389335" lon="10.995706624640308"><ele>47.0</ele><time>2026-05-03T13:52:08Z</time></trkpt><trkpt lat="44.57518079085791" lon="10.995377556555976"><ele>47.0</ele><time>2026-05-03T13:52:09Z</time></trkpt><trkpt lat="44.575267848159484" lon="10.995049379281056"><ele>45.5</ele><time>2026-05-03T13:52:10Z</time></trkpt><trkpt lat="44.575354017733645" lon="10.994719007274734"><ele>44.0</ele><time>2026-05-03T13:52:11Z</time></trkpt><trkpt lat="44.57544121910048" lon="10.994388166084809"><ele>44.0</ele><time>2026-05-03T13:52:12Z</time></trkpt><trkpt lat="44.57553086565992" lon="10.994055247490433"><ele>44.0</ele><time>2026-05-03T13:52:13Z</time></trkpt><trkpt lat="44.57561869926806" lon="10.993718027294333"><ele>44.0</ele><time>2026-05-03T13:52:14Z</time></trkpt><trkpt lat="44.57570956520587" lon="10.993377717362277"><ele>44.0</ele><time>2026-05-03T13:52:15Z</time></trkpt><trkpt lat="44.575803798956" lon="10.993035222723329"><ele>44.5</ele><time>2026-05-03T13:52:16Z</time></trkpt><trkpt lat="44.57589628440232" lon="10.99269150998784"><ele>45.0</ele><time>2026-05-03T13:52:17Z</time></trkpt><trkpt lat="44.57598772934753" lon="10.992347244530551"><ele>45.0</ele><time>2026-05-03T13:52:18Z</time></trkpt><trkpt lat="44.57607689654555" lon="10.991999105181147"><ele>45.0</ele><time>2026-05-03T13:52:19Z</time></trkpt><trkpt lat="44.576166270384874" lon="10.991649040805806"><ele>46.5</ele><time>2026-05-03T13:52:20Z</time></trkpt><trkpt lat="44.57625977231846" lon="10.991298169330587"><ele>48.0</ele><time>2026-05-03T13:52:21Z</time></trkpt><trkpt lat="44.57635147056558" lon="10.990944077808898"><ele>46.5</ele><time>2026-05-03T13:52:22Z</time></trkpt><trkpt lat="44.57644426791992" lon="10.990586488753282"><ele>45.0</ele><time>2026-05-03T13:52:23Z</time></trkpt><trkpt lat="44.576541728473345" lon="10.990224724309412"><ele>44.5</ele><time>2026-05-03T13:52:24Z</time></trkpt><trkpt lat="44.576635941358056" lon="10.989855626954988"><ele>44.0</ele><time>2026-05-03T13:52:25Z</time></trkpt><trkpt lat="44.576734292781076" lon="10.989480365232438"><ele>43.5</ele><time>2026-05-03T13:52:26Z</time></trkpt><trkpt lat="44.57683213639224" lon="10.989100214180368"><ele>43.0</ele><time>2026-05-03T13:52:27Z</time></trkpt><trkpt lat="44.576932839435486" lon="10.988718178656455"><ele>42.0</ele><time>2026-05-03T13:52:28Z</time></trkpt><trkpt lat="44.57703470536348" lon="10.988334785274443"><ele>41.0</ele><time>2026-05-03T13:52:29Z</time></trkpt><trkpt lat="44.57713875824345" lon="10.98794523344746"><ele>41.0</ele><time>2026-05-03T13:52:30Z</time></trkpt><trkpt lat="44.57724518478526" lon="10.98755471798922"><ele>41.0</ele><time>2026-05-03T13:52:31Z</time></trkpt><trkpt lat="44.57735075225551" lon="10.98716520568816"><ele>42.5</ele><time>2026-05-03T13:52:32.001Z</time></trkpt><trkpt lat="44.57745248034868" lon="10.986771104570224"><ele>44.0</ele><time>2026-05-03T13:52:33.001Z</time></trkpt><trkpt lat="44.57755439353433" lon="10.98637585955729"><ele>45.0</ele><time>2026-05-03T13:52:34.001Z</time></trkpt><trkpt lat="44.57765605587622" lon="10.985978961949028"><ele>46.0</ele><time>2026-05-03T13:52:35.001Z</time></trkpt><trkpt lat="44.57775887740411" lon="10.98558219701724"><ele>46.5</ele><time>2026-05-03T13:52:36.001Z</time></trkpt><trkpt lat="44.57786327025534" lon="10.985184839466923"><ele>47.0</ele><time>2026-05-03T13:52:37.001Z</time></trkpt><trkpt lat="44.57796587592627" lon="10.984789182916401"><ele>48.0</ele><time>2026-05-03T13:52:38.001Z</time></trkpt><trkpt lat="44.578072275570584" lon="10.98439737379582"><ele>49.0</ele><time>2026-05-03T13:52:39.001Z</time></trkpt><trkpt lat="44.57817683236996" lon="10.984006148473583"><ele>49.0</ele><time>2026-05-03T13:52:40.001Z</time></trkpt><trkpt lat="44.57828173159221" lon="10.983614210701257"><ele>49.0</ele><time>2026-05-03T13:52:41.001Z</time></trkpt><trkpt lat="44.57838607185367" lon="10.983223205175348"><ele>49.0</ele><time>2026-05-03T13:52:42.001Z</time></trkpt><trkpt lat="44.57849126394008" lon="10.982831836172513"><ele>49.0</ele><time>2026-05-03T13:52:43Z</time></trkpt><trkpt lat="44.57859607809863" lon="10.982438519958587"><ele>48.0</ele><time>2026-05-03T13:52:44Z</time></trkpt><trkpt lat="44.578696667798624" lon="10.982050524514401"><ele>47.0</ele><time>2026-05-03T13:52:45Z</time></trkpt><trkpt lat="44.57879559422878" lon="10.981666973111649"><ele>47.0</ele><time>2026-05-03T13:52:46Z</time></trkpt><trkpt lat="44.57889696342863" lon="10.98128421337941"><ele>47.0</ele><time>2026-05-03T13:52:47Z</time></trkpt><trkpt lat="44.578997111787" lon="10.980902516945259"><ele>48.0</ele><time>2026-05-03T13:52:48Z</time></trkpt><trkpt lat="44.57909852170695" lon="10.980521390099694"><ele>49.0</ele><time>2026-05-03T13:52:49Z</time></trkpt><trkpt lat="44.57919956203267" lon="10.980141009523875"><ele>48.0</ele><time>2026-05-03T13:52:50Z</time></trkpt><trkpt lat="44.57930224979493" lon="10.979757468957121"><ele>47.0</ele><time>2026-05-03T13:52:51Z</time></trkpt><trkpt lat="44.57940452155683" lon="10.979375178694953"><ele>47.0</ele><time>2026-05-03T13:52:52Z</time></trkpt><trkpt lat="44.57950517778975" lon="10.978993014301848"><ele>47.0</ele><time>2026-05-03T13:52:53Z</time></trkpt><trkpt lat="44.579604431343185" lon="10.9786110243411"><ele>47.0</ele><time>2026-05-03T13:52:54Z</time></trkpt><trkpt lat="44.5797027951616" lon="10.978230059169952"><ele>47.0</ele><time>2026-05-03T13:52:55Z</time></trkpt><trkpt lat="44.57980475015565" lon="10.977848116462425"><ele>46.5</ele><time>2026-05-03T13:52:56Z</time></trkpt><trkpt lat="44.57990955308721" lon="10.977468376213778"><ele>46.0</ele><time>2026-05-03T13:52:57Z</time></trkpt><trkpt lat="44.5800091562012" lon="10.977086627309257"><ele>46.0</ele><time>2026-05-03T13:52:58Z</time></trkpt><trkpt lat="44.580108848833575" lon="10.976705203669992"><ele>46.0</ele><time>2026-05-03T13:52:59Z</time></trkpt><trkpt lat="44.5802109415496" lon="10.976322490787782"><ele>46.0</ele><time>2026-05-03T13:53:00Z</time></trkpt><trkpt lat="44.5803117457759" lon="10.975937900916307"><ele>46.0</ele><time>2026-05-03T13:53:01Z</time></trkpt><trkpt lat="44.58041427108715" lon="10.975549314447996"><ele>46.0</ele><time>2026-05-03T13:53:02Z</time></trkpt><trkpt lat="44.58051700955858" lon="10.975157172629242"><ele>46.0</ele><time>2026-05-03T13:53:03Z</time></trkpt><trkpt lat="44.58062045390883" lon="10.974764904294844"><ele>46.0</ele><time>2026-05-03T13:53:04Z</time></trkpt><trkpt lat="44.58072586479519" lon="10.974373827249748"><ele>46.0</ele><time>2026-05-03T13:53:05Z</time></trkpt><trkpt lat="44.58083275728727" lon="10.973984451237463"><ele>46.0</ele><time>2026-05-03T13:53:06Z</time></trkpt><trkpt lat="44.580942858054655" lon="10.973597394916181"><ele>46.0</ele><time>2026-05-03T13:53:07Z</time></trkpt><trkpt lat="44.581056163791025" lon="10.973211360510827"><ele>46.0</ele><time>2026-05-03T13:53:08Z</time></trkpt><trkpt lat="44.581174388085515" lon="10.972827937406443"><ele>46.0</ele><time>2026-05-03T13:53:09Z</time></trkpt><trkpt lat="44.581297800365334" lon="10.972453957687327"><ele>46.0</ele><time>2026-05-03T13:53:10Z</time></trkpt><trkpt lat="44.58141980095047" lon="10.972079969105184"><ele>46.0</ele><time>2026-05-03T13:53:11Z</time></trkpt><trkpt lat="44.581543130980094" lon="10.971709313825944"><ele>47.0</ele><time>2026-05-03T13:53:12Z</time></trkpt><trkpt lat="44.58167028725632" lon="10.971340542128345"><ele>48.0</ele><time>2026-05-03T13:53:13Z</time></trkpt><trkpt lat="44.581800739578746" lon="10.970977536471937"><ele>48.0</ele><time>2026-05-03T13:53:14Z</time></trkpt><trkpt lat="44.58193346276852" lon="10.970617798327979"><ele>48.0</ele><time>2026-05-03T13:53:15Z</time></trkpt><trkpt lat="44.582065510126434" lon="10.970253588841654"><ele>48.5</ele><time>2026-05-03T13:53:16Z</time></trkpt><trkpt lat="44.58219922157112" lon="10.969887613997454"><ele>49.0</ele><time>2026-05-03T13:53:17Z</time></trkpt><trkpt lat="44.58233868265787" lon="10.96952283316159"><ele>48.0</ele><time>2026-05-03T13:53:18Z</time></trkpt><trkpt lat="44.582486578942074" lon="10.969161118805461"><ele>47.0</ele><time>2026-05-03T13:53:19Z</time></trkpt><trkpt lat="44.58263569142775" lon="10.968798970292227"><ele>47.0</ele><time>2026-05-03T13:53:20Z</time></trkpt><trkpt lat="44.58278486054191" lon="10.968435532895707"><ele>47.0</ele><time>2026-05-03T13:53:21Z</time></trkpt><trkpt lat="44.58293589673107" lon="10.96807222750497"><ele>45.5</ele><time>2026-05-03T13:53:22Z</time></trkpt><trkpt lat="44.583088534537794" lon="10.967711401083102"><ele>44.0</ele><time>2026-05-03T13:53:23Z</time></trkpt><trkpt lat="44.583245542685326" lon="10.967349786293354"><ele>43.5</ele><time>2026-05-03T13:53:24Z</time></trkpt><trkpt lat="44.583401286099445" lon="10.96698652649261"><ele>43.0</ele><time>2026-05-03T13:53:25Z</time></trkpt><trkpt lat="44.583554019977825" lon="10.966624939621164"><ele>43.5</ele><time>2026-05-03T13:53:26Z</time></trkpt><trkpt lat="44.58371135615051" lon="10.966263768717932"><ele>44.0</ele><time>2026-05-03T13:53:27Z</time></trkpt><trkpt lat="44.583867404930075" lon="10.96590043456166"><ele>43.5</ele><time>2026-05-03T13:53:28Z</time></trkpt><trkpt lat="44.584022333873634" lon="10.965535099545312"><ele>43.0</ele><time>2026-05-03T13:53:29Z</time></trkpt><trkpt lat="44.58418003041015" lon="10.965173903582516"><ele>42.5</ele><time>2026-05-03T13:53:30Z</time></trkpt><trkpt lat="44.584335694968466" lon="10.964812081036804"><ele>42.0</ele><time>2026-05-03T13:53:31Z</time></trkpt><trkpt lat="44.58449274872067" lon="10.964448408316697"><ele>42.5</ele><time>2026-05-03T13:53:32Z</time></trkpt><trkpt lat="44.58464770584649" lon="10.964084189853642"><ele>43.0</ele><time>2026-05-03T13:53:33Z</time></trkpt><trkpt lat="44.58480487081182" lon="10.963723336862687"><ele>43.0</ele><time>2026-05-03T13:53:34Z</time></trkpt><trkpt lat="44.58495938242943" lon="10.963363266834092"><ele>43.0</ele><time>2026-05-03T13:53:35Z</time></trkpt><trkpt lat="44.585110753889126" lon="10.96300477780775"><ele>43.0</ele><time>2026-05-03T13:53:36Z</time></trkpt><trkpt lat="44.585263871908424" lon="10.962666260407731"><ele>43.0</ele><time>2026-05-03T13:53:37Z</time></trkpt><trkpt lat="44.585431096697334" lon="10.962316988296914"><ele>44.5</ele><time>2026-05-03T13:53:38Z</time></trkpt><trkpt lat="44.58558228326722" lon="10.961978558443194"><ele>46.0</ele><time>2026-05-03T13:53:39Z</time></trkpt><trkpt lat="44.58572776616757" lon="10.96164922274942"><ele>46.5</ele><time>2026-05-03T13:53:40Z</time></trkpt><trkpt lat="44.585861908274474" lon="10.96134331964323"><ele>47.0</ele><time>2026-05-03T13:53:41Z</time></trkpt><trkpt lat="44.58598565294259" lon="10.961068288183444"><ele>46.33333333333333</ele><time>2026-05-03T13:53:42Z</time></trkpt><trkpt lat="44.58610592150255" lon="10.960797626617682"><ele>45.666666666666664</ele><time>2026-05-03T13:53:43Z</time></trkpt><trkpt lat="44.58621984465314" lon="10.960532212070111"><ele>45.0</ele><time>2026-05-03T13:53:44Z</time></trkpt><trkpt lat="44.586333965564485" lon="10.960263848719745"><ele>45.0</ele><time>2026-05-03T13:53:45Z</time></trkpt><trkpt lat="44.586452031167575" lon="10.959986397438861"><ele>45.0</ele><time>2026-05-03T13:53:46Z</time></trkpt><trkpt lat="44.586572294514454" lon="10.959705901838145"><ele>45.0</ele><time>2026-05-03T13:53:47Z</time></trkpt><trkpt lat="44.586696036203286" lon="10.959417594338712"><ele>45.0</ele><time>2026-05-03T13:53:48Z</time></trkpt><trkpt lat="44.5868246154856" lon="10.95912251319527"><ele>44.333333333333336</ele><time>2026-05-03T13:53:49Z</time></trkpt><trkpt lat="44.58695036693166" lon="10.958830721300455"><ele>43.66666666666667</ele><time>2026-05-03T13:53:50Z</time></trkpt><trkpt lat="44.587033170520186" lon="10.958614927423131"><ele>43.0</ele><time>2026-05-03T13:53:51Z</time></trkpt><trkpt lat="44.58715728722043" lon="10.958332964439418"><ele>42.5</ele><time>2026-05-03T13:53:52Z</time></trkpt><trkpt lat="44.58727848197709" lon="10.958049259531268"><ele>42.0</ele><time>2026-05-03T13:53:53Z</time></trkpt><trkpt lat="44.58740286256478" lon="10.957766469059134"><ele>42.5</ele><time>2026-05-03T13:53:54Z</time></trkpt><trkpt lat="44.5875320059147" lon="10.957467920883802"><ele>43.0</ele><time>2026-05-03T13:53:55Z</time></trkpt><trkpt lat="44.587660326697915" lon="10.957170276510114"><ele>43.0</ele><time>2026-05-03T13:53:56Z</time></trkpt><trkpt lat="44.587786249183424" lon="10.95687670508186"><ele>43.0</ele><time>2026-05-03T13:53:57Z</time></trkpt><trkpt lat="44.587916475448594" lon="10.956585332151674"><ele>43.5</ele><time>2026-05-03T13:53:58Z</time></trkpt><trkpt lat="44.58804532280356" lon="10.956296353378859"><ele>44.0</ele><time>2026-05-03T13:53:59Z</time></trkpt><trkpt lat="44.58817564659842" lon="10.956004343708166"><ele>44.5</ele><time>2026-05-03T13:54:00Z</time></trkpt><trkpt lat="44.58830221183141" lon="10.955707391885898"><ele>45.0</ele><time>2026-05-03T13:54:01Z</time></trkpt><trkpt lat="44.588435218168534" lon="10.955416317735459"><ele>45.0</ele><time>2026-05-03T13:54:02Z</time></trkpt><trkpt lat="44.58856699985236" lon="10.955120757653965"><ele>45.0</ele><time>2026-05-03T13:54:03Z</time></trkpt><trkpt lat="44.58868868284987" lon="10.954825708155942"><ele>45.0</ele><time>2026-05-03T13:54:04Z</time></trkpt><trkpt lat="44.58881590612123" lon="10.954525124556532"><ele>45.0</ele><time>2026-05-03T13:54:05Z</time></trkpt><trkpt lat="44.588945013832536" lon="10.954225113622083"><ele>44.5</ele><time>2026-05-03T13:54:06Z</time></trkpt><trkpt lat="44.589074912821445" lon="10.953927350814741"><ele>44.0</ele><time>2026-05-03T13:54:07Z</time></trkpt><trkpt lat="44.58920080323173" lon="10.953626981357328"><ele>44.0</ele><time>2026-05-03T13:54:08Z</time></trkpt><trkpt lat="44.58932688816876" lon="10.953324925173616"><ele>44.0</ele><time>2026-05-03T13:54:09Z</time></trkpt><trkpt lat="44.5894517401901" lon="10.953017364557319"><ele>43.5</ele><time>2026-05-03T13:54:10Z</time></trkpt><trkpt lat="44.58957734962076" lon="10.952710163419843"><ele>43.0</ele><time>2026-05-03T13:54:11Z</time></trkpt><trkpt lat="44.5897050086102" lon="10.952407762921275"><ele>43.0</ele><time>2026-05-03T13:54:12Z</time></trkpt><trkpt lat="44.589830163995416" lon="10.952109469119936"><ele>43.0</ele><time>2026-05-03T13:54:13Z</time></trkpt><trkpt lat="44.58995235156833" lon="10.95180771768956"><ele>42.0</ele><time>2026-05-03T13:54:14Z</time></trkpt><trkpt lat="44.59007720739322" lon="10.951505562506144"><ele>41.0</ele><time>2026-05-03T13:54:15Z</time></trkpt><trkpt lat="44.59020670014249" lon="10.95120017008066"><ele>41.0</ele><time>2026-05-03T13:54:16Z</time></trkpt><trkpt lat="44.590336637369624" lon="10.950892630750404"><ele>41.0</ele><time>2026-05-03T13:54:17Z</time></trkpt><trkpt lat="44.59046488333518" lon="10.950581319099522"><ele>42.5</ele><time>2026-05-03T13:54:18Z</time></trkpt><trkpt lat="44.590597863216125" lon="10.950259498162266"><ele>44.0</ele><time>2026-05-03T13:54:19Z</time></trkpt><trkpt lat="44.590732102093945" lon="10.949927452530217"><ele>44.0</ele><time>2026-05-03T13:54:20Z</time></trkpt><trkpt lat="44.5908668442225" lon="10.94958129610129"><ele>44.0</ele><time>2026-05-03T13:54:21Z</time></trkpt><trkpt lat="44.59101139247025" lon="10.94923871799128"><ele>44.0</ele><time>2026-05-03T13:54:22Z</time></trkpt><trkpt lat="44.5911709051187" lon="10.948894625528977"><ele>44.0</ele><time>2026-05-03T13:54:23Z</time></trkpt><trkpt lat="44.59131699495148" lon="10.948537768862119"><ele>43.5</ele><time>2026-05-03T13:54:24Z</time></trkpt><trkpt lat="44.591464035327995" lon="10.948193593055006"><ele>43.0</ele><time>2026-05-03T13:54:25Z</time></trkpt><trkpt lat="44.5916173655463" lon="10.947843151923296"><ele>43.0</ele><time>2026-05-03T13:54:26Z</time></trkpt><trkpt lat="44.591770172669875" lon="10.947493724760323"><ele>43.0</ele><time>2026-05-03T13:54:27Z</time></trkpt><trkpt lat="44.59191850718657" lon="10.947143855526734"><ele>43.0</ele><time>2026-05-03T13:54:28Z</time></trkpt><trkpt lat="44.59206773173493" lon="10.946795597508327"><ele>43.0</ele><time>2026-05-03T13:54:29Z</time></trkpt><trkpt lat="44.59221931305005" lon="10.946451877094143"><ele>43.0</ele><time>2026-05-03T13:54:30Z</time></trkpt><trkpt lat="44.5923659083341" lon="10.94610969584179"><ele>43.0</ele><time>2026-05-03T13:54:31Z</time></trkpt><trkpt lat="44.59251105554158" lon="10.945760644390427"><ele>43.5</ele><time>2026-05-03T13:54:32Z</time></trkpt><trkpt lat="44.59264988325131" lon="10.945410683937274"><ele>44.0</ele><time>2026-05-03T13:54:33Z</time></trkpt><trkpt lat="44.59280184972568" lon="10.945070222759334"><ele>42.5</ele><time>2026-05-03T13:54:34Z</time></trkpt><trkpt lat="44.59295504223868" lon="10.94473050924723"><ele>41.0</ele><time>2026-05-03T13:54:35Z</time></trkpt><trkpt lat="44.5930991158688" lon="10.944382556412023"><ele>41.0</ele><time>2026-05-03T13:54:36Z</time></trkpt><trkpt lat="44.593242775944546" lon="10.944030964460042"><ele>41.0</ele><time>2026-05-03T13:54:37Z</time></trkpt><trkpt lat="44.593392607735396" lon="10.943686346810477"><ele>42.0</ele><time>2026-05-03T13:54:38Z</time></trkpt><trkpt lat="44.59354899812665" lon="10.943339915895288"><ele>43.0</ele><time>2026-05-03T13:54:39Z</time></trkpt><trkpt lat="44.59369341576067" lon="10.942986387454031"><ele>43.0</ele><time>2026-05-03T13:54:40Z</time></trkpt><trkpt lat="44.593837180977076" lon="10.94263354685335"><ele>43.0</ele><time>2026-05-03T13:54:41Z</time></trkpt><trkpt lat="44.593985425417394" lon="10.94228904309248"><ele>42.5</ele><time>2026-05-03T13:54:42Z</time></trkpt><trkpt lat="44.59413614092064" lon="10.941939263237177"><ele>42.0</ele><time>2026-05-03T13:54:43Z</time></trkpt><trkpt lat="44.5942805157151" lon="10.941595707002145"><ele>42.0</ele><time>2026-05-03T13:54:44Z</time></trkpt><trkpt lat="44.59442417165528" lon="10.941248502410188"><ele>42.0</ele><time>2026-05-03T13:54:45Z</time></trkpt><trkpt lat="44.59456887755464" lon="10.940906201848517"><ele>40.5</ele><time>2026-05-03T13:54:46Z</time></trkpt><trkpt lat="44.59471904029666" lon="10.940568859912176"><ele>39.0</ele><time>2026-05-03T13:54:47Z</time></trkpt><trkpt lat="44.59486776620247" lon="10.94022858810513"><ele>39.5</ele><time>2026-05-03T13:54:48Z</time></trkpt><trkpt lat="44.59501235258353" lon="10.939885210440751"><ele>40.0</ele><time>2026-05-03T13:54:49Z</time></trkpt><trkpt lat="44.59515705985183" lon="10.939540649690263"><ele>40.0</ele><time>2026-05-03T13:54:50Z</time></trkpt><trkpt lat="44.595289887350404" lon="10.939219778012129"><ele>40.0</ele><time>2026-05-03T13:54:51Z</time></trkpt><trkpt lat="44.59542143949149" lon="10.938912441796717"><ele>40.0</ele><time>2026-05-03T13:54:52Z</time></trkpt><trkpt lat="44.59556478094925" lon="10.938590727114342"><ele>40.0</ele><time>2026-05-03T13:54:53Z</time></trkpt><trkpt lat="44.59570960090001" lon="10.938270569372273"><ele>41.0</ele><time>2026-05-03T13:54:54Z</time></trkpt><trkpt lat="44.595844028519544" lon="10.937967473596048"><ele>42.0</ele><time>2026-05-03T13:54:55Z</time></trkpt><trkpt lat="44.59597591551509" lon="10.937668587031224"><ele>42.5</ele><time>2026-05-03T13:54:56Z</time></trkpt><trkpt lat="44.59610798513219" lon="10.937377002911182"><ele>43.0</ele><time>2026-05-03T13:54:57Z</time></trkpt><trkpt lat="44.596234804540686" lon="10.937082735533872"><ele>43.0</ele><time>2026-05-03T13:54:58Z</time></trkpt><trkpt lat="44.59636875159006" lon="10.936784324327808"><ele>43.0</ele><time>2026-05-03T13:54:59Z</time></trkpt><trkpt lat="44.5965009359636" lon="10.936491441966623"><ele>43.0</ele><time>2026-05-03T13:55:00Z</time></trkpt><trkpt lat="44.59663061118117" lon="10.936197902854255"><ele>43.0</ele><time>2026-05-03T13:55:01Z</time></trkpt><trkpt lat="44.596754708937674" lon="10.935906827024265"><ele>43.0</ele><time>2026-05-03T13:55:02Z</time></trkpt><trkpt lat="44.59688094875241" lon="10.935630207919354"><ele>43.0</ele><time>2026-05-03T13:55:03Z</time></trkpt><trkpt lat="44.59701016679829" lon="10.93534966908675"><ele>43.0</ele><time>2026-05-03T13:55:04Z</time></trkpt><trkpt lat="44.59713984934807" lon="10.935066619272014"><ele>43.0</ele><time>2026-05-03T13:55:05Z</time></trkpt><trkpt lat="44.597262167258705" lon="10.934788869965711"><ele>43.0</ele><time>2026-05-03T13:55:06Z</time></trkpt><trkpt lat="44.597383302891444" lon="10.93450112555078"><ele>43.0</ele><time>2026-05-03T13:55:07Z</time></trkpt><trkpt lat="44.59750595649562" lon="10.934221046682273"><ele>43.0</ele><time>2026-05-03T13:55:08Z</time></trkpt><trkpt lat="44.597626992353746" lon="10.933939619486836"><ele>43.0</ele><time>2026-05-03T13:55:09Z</time></trkpt><trkpt lat="44.597746396715664" lon="10.933661343936134"><ele>42.5</ele><time>2026-05-03T13:55:10Z</time></trkpt><trkpt lat="44.5978636546884" lon="10.93338354189646"><ele>42.0</ele><time>2026-05-03T13:55:11Z</time></trkpt><trkpt lat="44.59797739088888" lon="10.933115210967019"><ele>42.0</ele><time>2026-05-03T13:55:12Z</time></trkpt><trkpt lat="44.598083609128864" lon="10.932864073469077"><ele>42.0</ele><time>2026-05-03T13:55:13Z</time></trkpt><trkpt lat="44.59818847957853" lon="10.932621404889016"><ele>42.0</ele><time>2026-05-03T13:55:14Z</time></trkpt><trkpt lat="44.59828852128168" lon="10.932391151078571"><ele>41.333333333333336</ele><time>2026-05-03T13:55:15Z</time></trkpt><trkpt lat="44.59838488773116" lon="10.932167966718032"><ele>40.66666666666667</ele><time>2026-05-03T13:55:16Z</time></trkpt><trkpt lat="44.59847533012816" lon="10.931952633457998"><ele>40.0</ele><time>2026-05-03T13:55:17Z</time></trkpt><trkpt lat="44.59856930338402" lon="10.931731760877803"><ele>39.66666666666667</ele><time>2026-05-03T13:55:18Z</time></trkpt><trkpt lat="44.598663785622755" lon="10.931509302880427"><ele>39.333333333333336</ele><time>2026-05-03T13:55:19Z</time></trkpt><trkpt lat="44.598757761894184" lon="10.931291280644423"><ele>39.0</ele><time>2026-05-03T13:55:20Z</time></trkpt><trkpt lat="44.59885147745349" lon="10.931078686852105"><ele>40.333333333333336</ele><time>2026-05-03T13:55:21Z</time></trkpt><trkpt lat="44.59894609781868" lon="10.93086264924057"><ele>41.66666666666667</ele><time>2026-05-03T13:55:22Z</time></trkpt><trkpt lat="44.59903746688951" lon="10.930645972580779"><ele>43.0</ele><time>2026-05-03T13:55:23Z</time></trkpt><trkpt lat="44.59913029787324" lon="10.930430011895245"><ele>43.0</ele><time>2026-05-03T13:55:24Z</time></trkpt><trkpt lat="44.599223545982184" lon="10.930213253645311"><ele>43.0</ele><time>2026-05-03T13:55:25Z</time></trkpt><trkpt lat="44.59931582217584" lon="10.929995928523837"><ele>43.0</ele><time>2026-05-03T13:55:26Z</time></trkpt><trkpt lat="44.599411303933216" lon="10.929777311904095"><ele>43.0</ele><time>2026-05-03T13:55:27Z</time></trkpt><trkpt lat="44.59950697424363" lon="10.929553824608794"><ele>43.0</ele><time>2026-05-03T13:55:28Z</time></trkpt><trkpt lat="44.599603390534256" lon="10.929323981010969"><ele>43.0</ele><time>2026-05-03T13:55:29Z</time></trkpt><trkpt lat="44.59969961731113" lon="10.929093507453718"><ele>42.66666666666667</ele><time>2026-05-03T13:55:30Z</time></trkpt><trkpt lat="44.59979799246158" lon="10.928856714340652"><ele>42.333333333333336</ele><time>2026-05-03T13:55:31Z</time></trkpt><trkpt lat="44.599892746889" lon="10.928630385531461"><ele>42.0</ele><time>2026-05-03T13:55:32Z</time></trkpt><trkpt lat="44.599992780887305" lon="10.928404760769952"><ele>41.333333333333336</ele><time>2026-05-03T13:55:33Z</time></trkpt><trkpt lat="44.60008825537497" lon="10.928181301446083"><ele>40.66666666666667</ele><time>2026-05-03T13:55:34Z</time></trkpt><trkpt lat="44.60018252319329" lon="10.927959734153987"><ele>40.0</ele><time>2026-05-03T13:55:35Z</time></trkpt><trkpt lat="44.600274523784265" lon="10.927746184765747"><ele>40.333333333333336</ele><time>2026-05-03T13:55:36Z</time></trkpt><trkpt lat="44.60036536166588" lon="10.927534520679389"><ele>40.666666666666664</ele><time>2026-05-03T13:55:37Z</time></trkpt><trkpt lat="44.60045633686078" lon="10.927321198921181"><ele>41.0</ele><time>2026-05-03T13:55:38Z</time></trkpt><trkpt lat="44.600546796421156" lon="10.927108180704462"><ele>41.0</ele><time>2026-05-03T13:55:39Z</time></trkpt><trkpt lat="44.600634866735135" lon="10.926898033477267"><ele>41.0</ele><time>2026-05-03T13:55:40Z</time></trkpt><trkpt lat="44.60072589767401" lon="10.926684394526173"><ele>41.0</ele><time>2026-05-03T13:55:41Z</time></trkpt><trkpt lat="44.60081760097297" lon="10.926476661139164"><ele>41.0</ele><time>2026-05-03T13:55:42Z</time></trkpt><trkpt lat="44.600908913124506" lon="10.926269495627862"><ele>41.0</ele><time>2026-05-03T13:55:43Z</time></trkpt><trkpt lat="44.600996550250414" lon="10.926065671584983"><ele>41.0</ele><time>2026-05-03T13:55:44Z</time></trkpt><trkpt lat="44.601079708776226" lon="10.92586348937215"><ele>41.0</ele><time>2026-05-03T13:55:45Z</time></trkpt><trkpt lat="44.60116143973649" lon="10.925663336776482"><ele>41.0</ele><time>2026-05-03T13:55:46Z</time></trkpt><trkpt lat="44.60124529063384" lon="10.925467770638887"><ele>41.0</ele><time>2026-05-03T13:55:47Z</time></trkpt><trkpt lat="44.60132948598379" lon="10.925277005457069"><ele>41.0</ele><time>2026-05-03T13:55:48Z</time></trkpt><trkpt lat="44.601414278406644" lon="10.925087023132546"><ele>41.0</ele><time>2026-05-03T13:55:49Z</time></trkpt><trkpt lat="44.60149896108316" lon="10.92489807850063"><ele>41.0</ele><time>2026-05-03T13:55:50Z</time></trkpt><trkpt lat="44.60157915816978" lon="10.924709253224224"><ele>41.0</ele><time>2026-05-03T13:55:51Z</time></trkpt><trkpt lat="44.60165814587253" lon="10.924521167419426"><ele>41.0</ele><time>2026-05-03T13:55:52Z</time></trkpt><trkpt lat="44.60173644491374" lon="10.924333774854116"><ele>41.0</ele><time>2026-05-03T13:55:53Z</time></trkpt><trkpt lat="44.6018126431887" lon="10.924152510194101"><ele>40.75</ele><time>2026-05-03T13:55:54Z</time></trkpt><trkpt lat="44.60188813476034" lon="10.923974046423512"><ele>40.5</ele><time>2026-05-03T13:55:55Z</time></trkpt><trkpt lat="44.601958595582225" lon="10.923799986614505"><ele>40.25</ele><time>2026-05-03T13:55:56Z</time></trkpt><trkpt lat="44.60203221724544" lon="10.923626659000094"><ele>40.0</ele><time>2026-05-03T13:55:57Z</time></trkpt><trkpt lat="44.60210551819206" lon="10.9234632330432"><ele>40.0</ele><time>2026-05-03T13:55:58Z</time></trkpt><trkpt lat="44.602178467002304" lon="10.923305404855533"><ele>40.0</ele><time>2026-05-03T13:55:59Z</time></trkpt><trkpt lat="44.60225265989737" lon="10.923138649949712"><ele>40.0</ele><time>2026-05-03T13:56:00Z</time></trkpt><trkpt lat="44.602324896644646" lon="10.922967459227467"><ele>40.0</ele><time>2026-05-03T13:56:01Z</time></trkpt><trkpt lat="44.60240014655355" lon="10.922797482498684"><ele>40.0</ele><time>2026-05-03T13:56:02Z</time></trkpt><trkpt lat="44.60247830781994" lon="10.922627268179015"><ele>40.0</ele><time>2026-05-03T13:56:03Z</time></trkpt><trkpt lat="44.60255620804289" lon="10.922454078809304"><ele>40.0</ele><time>2026-05-03T13:56:04Z</time></trkpt><trkpt lat="44.602637352202585" lon="10.92226770987434"><ele>40.0</ele><time>2026-05-03T13:56:05Z</time></trkpt><trkpt lat="44.60272049720091" lon="10.922077711487217"><ele>40.0</ele><time>2026-05-03T13:56:06Z</time></trkpt><trkpt lat="44.60280778545234" lon="10.92188029825724"><ele>40.0</ele><time>2026-05-03T13:56:07Z</time></trkpt><trkpt lat="44.60289319753785" lon="10.921680815235176"><ele>40.0</ele><time>2026-05-03T13:56:08Z</time></trkpt><trkpt lat="44.602978908034" lon="10.921479099146348"><ele>40.25</ele><time>2026-05-03T13:56:09Z</time></trkpt><trkpt lat="44.60305649094254" lon="10.921295417797415"><ele>40.5</ele><time>2026-05-03T13:56:10Z</time></trkpt><trkpt lat="44.60313223632322" lon="10.921122522794011"><ele>40.75</ele><time>2026-05-03T13:56:11Z</time></trkpt><trkpt lat="44.60320740969205" lon="10.920943867312333"><ele>41.0</ele><time>2026-05-03T13:56:12Z</time></trkpt><trkpt lat="44.60328666911045" lon="10.920757221376839"><ele>41.33333333333333</ele><time>2026-05-03T13:56:13Z</time></trkpt><trkpt lat="44.60336716778841" lon="10.920564020652687"><ele>41.666666666666664</ele><time>2026-05-03T13:56:14Z</time></trkpt><trkpt lat="44.60344973014036" lon="10.920369810387497"><ele>42.0</ele><time>2026-05-03T13:56:15Z</time></trkpt><trkpt lat="44.6035373720579" lon="10.920173051553757"><ele>41.666666666666664</ele><time>2026-05-03T13:56:16Z</time></trkpt><trkpt lat="44.603622029093955" lon="10.919973241215631"><ele>41.33333333333333</ele><time>2026-05-03T13:56:17Z</time></trkpt><trkpt lat="44.60370817713724" lon="10.919770734664837"><ele>41.0</ele><time>2026-05-03T13:56:18Z</time></trkpt><trkpt lat="44.60379487586111" lon="10.919570630364813"><ele>41.0</ele><time>2026-05-03T13:56:19Z</time></trkpt><trkpt lat="44.603882435338825" lon="10.91936795637877"><ele>41.0</ele><time>2026-05-03T13:56:20Z</time></trkpt><trkpt lat="44.60397077789716" lon="10.91916372888467"><ele>41.0</ele><time>2026-05-03T13:56:21Z</time></trkpt><trkpt lat="44.60405615986543" lon="10.918959535267525"><ele>41.0</ele><time>2026-05-03T13:56:22Z</time></trkpt><trkpt lat="44.604145207204446" lon="10.918760140710255"><ele>41.0</ele><time>2026-05-03T13:56:23Z</time></trkpt><trkpt lat="44.6042282919749" lon="10.918555279656319"><ele>41.0</ele><time>2026-05-03T13:56:24Z</time></trkpt><trkpt lat="44.60430994678035" lon="10.918348247915029"><ele>41.0</ele><time>2026-05-03T13:56:25Z</time></trkpt><trkpt lat="44.604398937130966" lon="10.918146536147793"><ele>41.0</ele><time>2026-05-03T13:56:26Z</time></trkpt><trkpt lat="44.604484636653375" lon="10.91794411416847"><ele>41.0</ele><time>2026-05-03T13:56:27Z</time></trkpt><trkpt lat="44.60457217629186" lon="10.917740240528211"><ele>40.0</ele><time>2026-05-03T13:56:28Z</time></trkpt><trkpt lat="44.60465868446484" lon="10.917540520085433"><ele>39.0</ele><time>2026-05-03T13:56:29Z</time></trkpt><trkpt lat="44.60474337817923" lon="10.917346500125928"><ele>38.0</ele><time>2026-05-03T13:56:30Z</time></trkpt><trkpt lat="44.60482611007847" lon="10.917149345856428"><ele>38.0</ele><time>2026-05-03T13:56:31Z</time></trkpt><trkpt lat="44.60491008089128" lon="10.916952920350232"><ele>38.0</ele><time>2026-05-03T13:56:32Z</time></trkpt><trkpt lat="44.60499512403407" lon="10.916753707797426"><ele>38.0</ele><time>2026-05-03T13:56:33Z</time></trkpt><trkpt lat="44.60508158947073" lon="10.916552761385162"><ele>38.666666666666664</ele><time>2026-05-03T13:56:34Z</time></trkpt><trkpt lat="44.60516783496771" lon="10.916351857567177"><ele>39.333333333333336</ele><time>2026-05-03T13:56:35Z</time></trkpt><trkpt lat="44.60525526339543" lon="10.916146240457627"><ele>40.0</ele><time>2026-05-03T13:56:36Z</time></trkpt><trkpt lat="44.605345620217996" lon="10.91593170104405"><ele>41.0</ele><time>2026-05-03T13:56:37Z</time></trkpt><trkpt lat="44.60543954384158" lon="10.915711996121505"><ele>42.0</ele><time>2026-05-03T13:56:38Z</time></trkpt><trkpt lat="44.60553425292556" lon="10.9154925702105"><ele>43.0</ele><time>2026-05-03T13:56:39Z</time></trkpt><trkpt lat="44.60563241603385" lon="10.915266686449877"><ele>42.0</ele><time>2026-05-03T13:56:40Z</time></trkpt><trkpt lat="44.60573082328645" lon="10.915038461164386"><ele>41.0</ele><time>2026-05-03T13:56:41Z</time></trkpt><trkpt lat="44.6058277269378" lon="10.914808924737683"><ele>40.0</ele><time>2026-05-03T13:56:42Z</time></trkpt><trkpt lat="44.60592548364518" lon="10.914575462439366"><ele>40.0</ele><time>2026-05-03T13:56:43Z</time></trkpt><trkpt lat="44.606024044053626" lon="10.914339990749351"><ele>40.0</ele><time>2026-05-03T13:56:44Z</time></trkpt><trkpt lat="44.606123968999974" lon="10.914103646603142"><ele>40.0</ele><time>2026-05-03T13:56:45Z</time></trkpt><trkpt lat="44.606225297514236" lon="10.913866572311552"><ele>40.333333333333336</ele><time>2026-05-03T13:56:46Z</time></trkpt><trkpt lat="44.60632610723774" lon="10.913631053667741"><ele>40.666666666666664</ele><time>2026-05-03T13:56:47Z</time></trkpt><trkpt lat="44.60642782332209" lon="10.913396039114797"><ele>41.0</ele><time>2026-05-03T13:56:48Z</time></trkpt><trkpt lat="44.60652910430448" lon="10.913160106954276"><ele>40.666666666666664</ele><time>2026-05-03T13:56:49Z</time></trkpt><trkpt lat="44.60662783713856" lon="10.912924716771123"><ele>40.333333333333336</ele><time>2026-05-03T13:56:50Z</time></trkpt><trkpt lat="44.606726793430774" lon="10.912688661840937"><ele>40.0</ele><time>2026-05-03T13:56:51Z</time></trkpt><trkpt lat="44.606826195974655" lon="10.912452267460331"><ele>40.0</ele><time>2026-05-03T13:56:52Z</time></trkpt><trkpt lat="44.606926834790855" lon="10.912213508306502"><ele>40.0</ele><time>2026-05-03T13:56:53Z</time></trkpt><trkpt lat="44.60702807521238" lon="10.911972860456995"><ele>40.0</ele><time>2026-05-03T13:56:54Z</time></trkpt><trkpt lat="44.607127950050774" lon="10.91174013188918"><ele>39.66666666666667</ele><time>2026-05-03T13:56:55Z</time></trkpt><trkpt lat="44.60722489001703" lon="10.91151632466669"><ele>39.333333333333336</ele><time>2026-05-03T13:56:56Z</time></trkpt><trkpt lat="44.60734820036432" lon="10.911239418863778"><ele>39.0</ele><time>2026-05-03T13:56:57Z</time></trkpt><trkpt lat="44.60746773089891" lon="10.910970940761631"><ele>39.5</ele><time>2026-05-03T13:56:58Z</time></trkpt><trkpt lat="44.60758461839986" lon="10.910694160222603"><ele>40.0</ele><time>2026-05-03T13:56:59Z</time></trkpt><trkpt lat="44.60769470262968" lon="10.910420894504147"><ele>40.0</ele><time>2026-05-03T13:57:00Z</time></trkpt><trkpt lat="44.60781151262304" lon="10.910151116945624"><ele>40.0</ele><time>2026-05-03T13:57:01Z</time></trkpt><trkpt lat="44.60792458515175" lon="10.909882810263776"><ele>40.0</ele><time>2026-05-03T13:57:02Z</time></trkpt><trkpt lat="44.608040096293685" lon="10.909618501683033"><ele>40.0</ele><time>2026-05-03T13:57:03Z</time></trkpt><trkpt lat="44.60815566304433" lon="10.909348407843584"><ele>40.0</ele><time>2026-05-03T13:57:04Z</time></trkpt><trkpt lat="44.60827179965179" lon="10.909075232686924"><ele>40.0</ele><time>2026-05-03T13:57:05Z</time></trkpt><trkpt lat="44.60838758099536" lon="10.90880666427269"><ele>40.0</ele><time>2026-05-03T13:57:06Z</time></trkpt><trkpt lat="44.60850644944977" lon="10.90853266700123"><ele>40.5</ele><time>2026-05-03T13:57:07Z</time></trkpt><trkpt lat="44.60862377213091" lon="10.908262233436394"><ele>41.0</ele><time>2026-05-03T13:57:08Z</time></trkpt><trkpt lat="44.6087434665286" lon="10.907988605659247"><ele>41.0</ele><time>2026-05-03T13:57:09Z</time></trkpt><trkpt lat="44.60885991366966" lon="10.90770956569725"><ele>41.0</ele><time>2026-05-03T13:57:10Z</time></trkpt><trkpt lat="44.60897721165531" lon="10.907431504738659"><ele>41.0</ele><time>2026-05-03T13:57:11Z</time></trkpt><trkpt lat="44.60909493841526" lon="10.907149805659826"><ele>41.0</ele><time>2026-05-03T13:57:12Z</time></trkpt><trkpt lat="44.609214603371825" lon="10.906870651048283"><ele>40.0</ele><time>2026-05-03T13:57:13Z</time></trkpt><trkpt lat="44.60933298097538" lon="10.906587419998113"><ele>39.0</ele><time>2026-05-03T13:57:14Z</time></trkpt><trkpt lat="44.6094573776185" lon="10.906311133506206"><ele>39.0</ele><time>2026-05-03T13:57:15Z</time></trkpt><trkpt lat="44.60957348144725" lon="10.906033984044724"><ele>39.0</ele><time>2026-05-03T13:57:16Z</time></trkpt><trkpt lat="44.60968746394246" lon="10.905759383503755"><ele>40.0</ele><time>2026-05-03T13:57:17Z</time></trkpt><trkpt lat="44.60980727830677" lon="10.905488027399088"><ele>41.0</ele><time>2026-05-03T13:57:18Z</time></trkpt><trkpt lat="44.609924744844626" lon="10.90520997789919"><ele>41.0</ele><time>2026-05-03T13:57:19Z</time></trkpt><trkpt lat="44.61004193350156" lon="10.904934659032651"><ele>41.0</ele><time>2026-05-03T13:57:20Z</time></trkpt><trkpt lat="44.61015753613573" lon="10.904662711480114"><ele>41.0</ele><time>2026-05-03T13:57:21Z</time></trkpt><trkpt lat="44.61027370066646" lon="10.904390823861444"><ele>41.0</ele><time>2026-05-03T13:57:22Z</time></trkpt><trkpt lat="44.61039160982872" lon="10.904127883705893"><ele>41.0</ele><time>2026-05-03T13:57:23Z</time></trkpt><trkpt lat="44.61050701192856" lon="10.90386034749399"><ele>41.0</ele><time>2026-05-03T13:57:24Z</time></trkpt><trkpt lat="44.61061689799583" lon="10.903593391527139"><ele>41.0</ele><time>2026-05-03T13:57:25Z</time></trkpt><trkpt lat="44.61072955574859" lon="10.903329158562912"><ele>41.0</ele><time>2026-05-03T13:57:26Z</time></trkpt><trkpt lat="44.610842320851866" lon="10.90306513988849"><ele>41.0</ele><time>2026-05-03T13:57:27Z</time></trkpt><trkpt lat="44.610955520776514" lon="10.902804228263674"><ele>41.0</ele><time>2026-05-03T13:57:28Z</time></trkpt><trkpt lat="44.61106807784889" lon="10.902545141909131"><ele>41.0</ele><time>2026-05-03T13:57:29Z</time></trkpt><trkpt lat="44.61117921662205" lon="10.90228579691527"><ele>40.666666666666664</ele><time>2026-05-03T13:57:30Z</time></trkpt><trkpt lat="44.61128802687931" lon="10.902028650103155"><ele>40.333333333333336</ele><time>2026-05-03T13:57:31Z</time></trkpt><trkpt lat="44.61139590779993" lon="10.901772412330383"><ele>40.0</ele><time>2026-05-03T13:57:32Z</time></trkpt><trkpt lat="44.61150384853112" lon="10.901520836072153"><ele>41.0</ele><time>2026-05-03T13:57:33Z</time></trkpt><trkpt lat="44.611612871881974" lon="10.901268488748933"><ele>42.0</ele><time>2026-05-03T13:57:34Z</time></trkpt><trkpt lat="44.61172088039386" lon="10.901020194089574"><ele>43.0</ele><time>2026-05-03T13:57:35Z</time></trkpt><trkpt lat="44.61182777191028" lon="10.900768307618058"><ele>43.0</ele><time>2026-05-03T13:57:36Z</time></trkpt><trkpt lat="44.61193346836289" lon="10.900518862441306"><ele>43.0</ele><time>2026-05-03T13:57:37Z</time></trkpt><trkpt lat="44.61203878354448" lon="10.900272570916586"><ele>43.0</ele><time>2026-05-03T13:57:38Z</time></trkpt><trkpt lat="44.61214427982928" lon="10.900028439488764"><ele>43.0</ele><time>2026-05-03T13:57:39Z</time></trkpt><trkpt lat="44.6122492191242" lon="10.899785498515332"><ele>43.0</ele><time>2026-05-03T13:57:40Z</time></trkpt><trkpt lat="44.61234975384715" lon="10.899549630618367"><ele>43.0</ele><time>2026-05-03T13:57:41Z</time></trkpt><trkpt lat="44.6124457660916" lon="10.899323222899115"><ele>43.333333333333336</ele><time>2026-05-03T13:57:42Z</time></trkpt><trkpt lat="44.612539760733334" lon="10.899100382837103"><ele>43.666666666666664</ele><time>2026-05-03T13:57:43Z</time></trkpt><trkpt lat="44.61263463605319" lon="10.898878107258858"><ele>44.0</ele><time>2026-05-03T13:57:44Z</time></trkpt><trkpt lat="44.612727299286774" lon="10.89865834027237"><ele>44.0</ele><time>2026-05-03T13:57:45Z</time></trkpt><trkpt lat="44.61281893724473" lon="10.898441135401326"><ele>44.0</ele><time>2026-05-03T13:57:46Z</time></trkpt><trkpt lat="44.61291326453806" lon="10.898224593105208"><ele>44.0</ele><time>2026-05-03T13:57:47Z</time></trkpt><trkpt lat="44.61300594318111" lon="10.898009985998348"><ele>44.0</ele><time>2026-05-03T13:57:48Z</time></trkpt><trkpt lat="44.613097855791445" lon="10.897796969417332"><ele>44.0</ele><time>2026-05-03T13:57:49Z</time></trkpt><trkpt lat="44.613185196431445" lon="10.897589495849434"><ele>44.0</ele><time>2026-05-03T13:57:50Z</time></trkpt><trkpt lat="44.6132706980095" lon="10.897386333653007"><ele>44.0</ele><time>2026-05-03T13:57:51Z</time></trkpt><trkpt lat="44.61335340533437" lon="10.897192165971665"><ele>44.0</ele><time>2026-05-03T13:57:52Z</time></trkpt><trkpt lat="44.613437358459315" lon="10.896997137728764"><ele>44.0</ele><time>2026-05-03T13:57:53Z</time></trkpt><trkpt lat="44.61352104270402" lon="10.896805954191864"><ele>44.33333333333333</ele><time>2026-05-03T13:57:54Z</time></trkpt><trkpt lat="44.613603076357855" lon="10.896616694714924"><ele>44.666666666666664</ele><time>2026-05-03T13:57:55Z</time></trkpt><trkpt lat="44.613682754178946" lon="10.896427007717474"><ele>45.0</ele><time>2026-05-03T13:57:56Z</time></trkpt><trkpt lat="44.6137622542186" lon="10.896237353880892"><ele>45.0</ele><time>2026-05-03T13:57:57Z</time></trkpt><trkpt lat="44.61384275888692" lon="10.896048059857227"><ele>45.0</ele><time>2026-05-03T13:57:58Z</time></trkpt><trkpt lat="44.6139236483721" lon="10.895854323197828"><ele>45.0</ele><time>2026-05-03T13:57:59Z</time></trkpt><trkpt lat="44.61400579126191" lon="10.895662370484793"><ele>44.666666666666664</ele><time>2026-05-03T13:58:00Z</time></trkpt><trkpt lat="44.614088341483445" lon="10.895472772398177"><ele>44.33333333333333</ele><time>2026-05-03T13:58:01Z</time></trkpt><trkpt lat="44.61417111137867" lon="10.895278727580157"><ele>44.0</ele><time>2026-05-03T13:58:02Z</time></trkpt><trkpt lat="44.614257513119206" lon="10.89508161976722"><ele>44.0</ele><time>2026-05-03T13:58:03Z</time></trkpt><trkpt lat="44.61434035765104" lon="10.894886431437612"><ele>44.0</ele><time>2026-05-03T13:58:04Z</time></trkpt><trkpt lat="44.61442903953291" lon="10.894682012259077"><ele>44.0</ele><time>2026-05-03T13:58:05Z</time></trkpt><trkpt lat="44.61451411780948" lon="10.894479463704164"><ele>44.0</ele><time>2026-05-03T13:58:06Z</time></trkpt><trkpt lat="44.61460376124069" lon="10.89426927443814"><ele>44.0</ele><time>2026-05-03T13:58:07Z</time></trkpt><trkpt lat="44.61469355704197" lon="10.894054511637211"><ele>44.0</ele><time>2026-05-03T13:58:08Z</time></trkpt><trkpt lat="44.61478890272742" lon="10.893831842093498"><ele>44.33333333333333</ele><time>2026-05-03T13:58:09Z</time></trkpt><trkpt lat="44.614888785536564" lon="10.893598559988321"><ele>44.666666666666664</ele><time>2026-05-03T13:58:10Z</time></trkpt><trkpt lat="44.6149935987918" lon="10.893349556966449"><ele>45.0</ele><time>2026-05-03T13:58:11Z</time></trkpt><trkpt lat="44.61510191150733" lon="10.893092283607073"><ele>45.0</ele><time>2026-05-03T13:58:12Z</time></trkpt><trkpt lat="44.61521427727871" lon="10.892831363311794"><ele>45.0</ele><time>2026-05-03T13:58:13Z</time></trkpt><trkpt lat="44.61532772095204" lon="10.892561324823918"><ele>45.0</ele><time>2026-05-03T13:58:14Z</time></trkpt><trkpt lat="44.6154470314439" lon="10.892281513756716"><ele>45.0</ele><time>2026-05-03T13:58:15Z</time></trkpt><trkpt lat="44.61556703622776" lon="10.892000762933185"><ele>45.0</ele><time>2026-05-03T13:58:16Z</time></trkpt><trkpt lat="44.615689096637965" lon="10.891718887309205"><ele>45.5</ele><time>2026-05-03T13:58:17Z</time></trkpt><trkpt lat="44.61581448929436" lon="10.89142986069758"><ele>46.0</ele><time>2026-05-03T13:58:18Z</time></trkpt><trkpt lat="44.6159381581908" lon="10.891138939812933"><ele>46.5</ele><time>2026-05-03T13:58:19Z</time></trkpt><trkpt lat="44.61606114125047" lon="10.890848435868584"><ele>47.0</ele><time>2026-05-03T13:58:20Z</time></trkpt><trkpt lat="44.61618696621652" lon="10.890552677643342"><ele>45.5</ele><time>2026-05-03T13:58:21Z</time></trkpt><trkpt lat="44.61631282660888" lon="10.890252198453588"><ele>44.0</ele><time>2026-05-03T13:58:22Z</time></trkpt><trkpt lat="44.616445572727514" lon="10.889947373877314"><ele>44.0</ele><time>2026-05-03T13:58:23Z</time></trkpt><trkpt lat="44.61657707116662" lon="10.889637864428424"><ele>44.0</ele><time>2026-05-03T13:58:24Z</time></trkpt><trkpt lat="44.6167075885815" lon="10.889325406358987"><ele>45.5</ele><time>2026-05-03T13:58:25Z</time></trkpt><trkpt lat="44.616837132855764" lon="10.889014398952112"><ele>47.0</ele><time>2026-05-03T13:58:26Z</time></trkpt><trkpt lat="44.6169683389654" lon="10.888707776955794"><ele>46.0</ele><time>2026-05-03T13:58:27Z</time></trkpt><trkpt lat="44.61710835154217" lon="10.88840115907209"><ele>45.0</ele><time>2026-05-03T13:58:28Z</time></trkpt><trkpt lat="44.617254431051926" lon="10.888102522811698"><ele>45.0</ele><time>2026-05-03T13:58:29Z</time></trkpt><trkpt lat="44.617408940780564" lon="10.887806665416997"><ele>45.0</ele><time>2026-05-03T13:58:30Z</time></trkpt><trkpt lat="44.61756896799796" lon="10.88751499918523"><ele>45.0</ele><time>2026-05-03T13:58:31Z</time></trkpt><trkpt lat="44.61773216699078" lon="10.887228893129901"><ele>45.0</ele><time>2026-05-03T13:58:32Z</time></trkpt><trkpt lat="44.61790227086808" lon="10.886946285496839"><ele>45.5</ele><time>2026-05-03T13:58:33Z</time></trkpt><trkpt lat="44.61807638365277" lon="10.88666290143364"><ele>46.0</ele><time>2026-05-03T13:58:34Z</time></trkpt><trkpt lat="44.618252725449125" lon="10.8863854110526"><ele>46.0</ele><time>2026-05-03T13:58:35Z</time></trkpt><trkpt lat="44.618437438690364" lon="10.88611472202801"><ele>46.0</ele><time>2026-05-03T13:58:36Z</time></trkpt><trkpt lat="44.618626454416585" lon="10.88585390215005"><ele>45.0</ele><time>2026-05-03T13:58:37Z</time></trkpt><trkpt lat="44.61881680944343" lon="10.885600818239505"><ele>44.0</ele><time>2026-05-03T13:58:38Z</time></trkpt><trkpt lat="44.619002440310034" lon="10.88536978722829"><ele>44.0</ele><time>2026-05-03T13:58:39Z</time></trkpt><trkpt lat="44.619181159193836" lon="10.885157549632904"><ele>44.0</ele><time>2026-05-03T13:58:40Z</time></trkpt><trkpt lat="44.619348214997174" lon="10.884956545516909"><ele>43.33333333333333</ele><time>2026-05-03T13:58:41Z</time></trkpt><trkpt lat="44.61950886921619" lon="10.884752815178778"><ele>42.666666666666664</ele><time>2026-05-03T13:58:42Z</time></trkpt><trkpt lat="44.619675065487826" lon="10.884551664049305"><ele>42.0</ele><time>2026-05-03T13:58:43Z</time></trkpt><trkpt lat="44.61984981481597" lon="10.88436094155003"><ele>42.5</ele><time>2026-05-03T13:58:44Z</time></trkpt><trkpt lat="44.62003049783106" lon="10.884176824411297"><ele>43.0</ele><time>2026-05-03T13:58:45Z</time></trkpt><trkpt lat="44.620219796898354" lon="10.883997900835618"><ele>43.5</ele><time>2026-05-03T13:58:46Z</time></trkpt><trkpt lat="44.62041213949811" lon="10.883830206609604"><ele>44.0</ele><time>2026-05-03T13:58:47Z</time></trkpt><trkpt lat="44.62060651975273" lon="10.883674345961476"><ele>44.0</ele><time>2026-05-03T13:58:48Z</time></trkpt><trkpt lat="44.62080583421863" lon="10.883524110660522"><ele>44.0</ele><time>2026-05-03T13:58:49Z</time></trkpt><trkpt lat="44.62099985099622" lon="10.883379480927555"><ele>44.0</ele><time>2026-05-03T13:58:50Z</time></trkpt><trkpt lat="44.6211944243352" lon="10.88323520986326"><ele>44.666666666666664</ele><time>2026-05-03T13:58:51Z</time></trkpt><trkpt lat="44.62139049364519" lon="10.883092499295524"><ele>45.333333333333336</ele><time>2026-05-03T13:58:52Z</time></trkpt><trkpt lat="44.62158384950334" lon="10.882954897164318"><ele>46.0</ele><time>2026-05-03T13:58:53Z</time></trkpt><trkpt lat="44.62178556596213" lon="10.882824145425046"><ele>46.0</ele><time>2026-05-03T13:58:54Z</time></trkpt><trkpt lat="44.621983698586156" lon="10.882700294084444"><ele>46.0</ele><time>2026-05-03T13:58:55Z</time></trkpt><trkpt lat="44.62216922369625" lon="10.882588356911832"><ele>46.0</ele><time>2026-05-03T13:58:56Z</time></trkpt><trkpt lat="44.6223472745818" lon="10.882485998439273"><ele>45.66666666666667</ele><time>2026-05-03T13:58:57Z</time></trkpt><trkpt lat="44.62252501732458" lon="10.882383911737394"><ele>45.333333333333336</ele><time>2026-05-03T13:58:58Z</time></trkpt><trkpt lat="44.62270575191081" lon="10.882281270136339"><ele>45.0</ele><time>2026-05-03T13:58:59Z</time></trkpt><trkpt lat="44.622887397898374" lon="10.882174987347183"><ele>44.333333333333336</ele><time>2026-05-03T13:59:00Z</time></trkpt><trkpt lat="44.62307018342277" lon="10.882063827359962"><ele>43.66666666666667</ele><time>2026-05-03T13:59:01Z</time></trkpt><trkpt lat="44.623253828331706" lon="10.881952298977591"><ele>43.0</ele><time>2026-05-03T13:59:02Z</time></trkpt><trkpt lat="44.62343710700746" lon="10.881841302178866"><ele>43.0</ele><time>2026-05-03T13:59:03Z</time></trkpt><trkpt lat="44.62362062692237" lon="10.881726415075512"><ele>43.0</ele><time>2026-05-03T13:59:04Z</time></trkpt><trkpt lat="44.623806462902756" lon="10.88161089905105"><ele>43.0</ele><time>2026-05-03T13:59:05Z</time></trkpt><trkpt lat="44.623991422601414" lon="10.881499719791702"><ele>43.0</ele><time>2026-05-03T13:59:06Z</time></trkpt><trkpt lat="44.624176516541034" lon="10.88138867652546"><ele>43.0</ele><time>2026-05-03T13:59:07Z</time></trkpt><trkpt lat="44.62436239434011" lon="10.881274902672851"><ele>43.0</ele><time>2026-05-03T13:59:08Z</time></trkpt><trkpt lat="44.62454767939667" lon="10.881159955465014"><ele>43.0</ele><time>2026-05-03T13:59:09Z</time></trkpt><trkpt lat="44.62473586781451" lon="10.881045918542737"><ele>43.0</ele><time>2026-05-03T13:59:10Z</time></trkpt><trkpt lat="44.62492470268472" lon="10.880930503414628"><ele>43.0</ele><time>2026-05-03T13:59:11Z</time></trkpt><trkpt lat="44.62511576397527" lon="10.880814003081861"><ele>43.0</ele><time>2026-05-03T13:59:12Z</time></trkpt><trkpt lat="44.62530948785402" lon="10.88069656183445"><ele>43.0</ele><time>2026-05-03T13:59:13Z</time></trkpt><trkpt lat="44.625506253253754" lon="10.880575847942918"><ele>43.0</ele><time>2026-05-03T13:59:14Z</time></trkpt><trkpt lat="44.62570265356268" lon="10.880455978692819"><ele>43.0</ele><time>2026-05-03T13:59:15Z</time></trkpt><trkpt lat="44.625902105208326" lon="10.880334584124876"><ele>43.0</ele><time>2026-05-03T13:59:16Z</time></trkpt><trkpt lat="44.626099806995484" lon="10.880214890029407"><ele>43.0</ele><time>2026-05-03T13:59:17Z</time></trkpt><trkpt lat="44.62629687369913" lon="10.880094112458883"><ele>43.0</ele><time>2026-05-03T13:59:18Z</time></trkpt><trkpt lat="44.6264928602718" lon="10.879974177488924"><ele>43.0</ele><time>2026-05-03T13:59:19Z</time></trkpt><trkpt lat="44.62668863796348" lon="10.87985599930669"><ele>43.0</ele><time>2026-05-03T13:59:20Z</time></trkpt><trkpt lat="44.62688334097737" lon="10.87973538167014"><ele>43.0</ele><time>2026-05-03T13:59:21Z</time></trkpt><trkpt lat="44.627077518820684" lon="10.87961451241408"><ele>43.0</ele><time>2026-05-03T13:59:22Z</time></trkpt><trkpt lat="44.62726938434452" lon="10.8794970698943"><ele>43.0</ele><time>2026-05-03T13:59:23Z</time></trkpt><trkpt lat="44.62745852232183" lon="10.879384148703057"><ele>43.0</ele><time>2026-05-03T13:59:24Z</time></trkpt><trkpt lat="44.627646247011334" lon="10.879271275308595"><ele>43.0</ele><time>2026-05-03T13:59:25Z</time></trkpt><trkpt lat="44.62783198868147" lon="10.879157125736018"><ele>43.0</ele><time>2026-05-03T13:59:26Z</time></trkpt><trkpt lat="44.62801696756397" lon="10.879042611962792"><ele>43.66666666666667</ele><time>2026-05-03T13:59:27Z</time></trkpt><trkpt lat="44.62820040789269" lon="10.878928716422793"><ele>44.333333333333336</ele><time>2026-05-03T13:59:28Z</time></trkpt><trkpt lat="44.628384594378275" lon="10.87881570130317"><ele>45.0</ele><time>2026-05-03T13:59:29Z</time></trkpt><trkpt lat="44.62856860930036" lon="10.878703374003853"><ele>45.333333333333336</ele><time>2026-05-03T13:59:30Z</time></trkpt><trkpt lat="44.62875521484575" lon="10.878591052051181"><ele>45.66666666666667</ele><time>2026-05-03T13:59:31Z</time></trkpt><trkpt lat="44.62893931689288" lon="10.878481128321045"><ele>46.0</ele><time>2026-05-03T13:59:32Z</time></trkpt><trkpt lat="44.629132942618924" lon="10.878362519258083"><ele>46.333333333333336</ele><time>2026-05-03T13:59:33Z</time></trkpt><trkpt lat="44.62931606794416" lon="10.878246866438692"><ele>46.666666666666664</ele><time>2026-05-03T13:59:34Z</time></trkpt><trkpt lat="44.62950312474381" lon="10.878130916698245"><ele>47.0</ele><time>2026-05-03T13:59:35Z</time></trkpt><trkpt lat="44.62969231255889" lon="10.878014115000134"><ele>44.666666666666664</ele><time>2026-05-03T13:59:36Z</time></trkpt><trkpt lat="44.62988348237625" lon="10.877897473406211"><ele>42.333333333333336</ele><time>2026-05-03T13:59:37Z</time></trkpt><trkpt lat="44.63007285937643" lon="10.87778107860695"><ele>40.0</ele><time>2026-05-03T13:59:38Z</time></trkpt><trkpt lat="44.630264746920595" lon="10.877664096223647"><ele>40.0</ele><time>2026-05-03T13:59:39Z</time></trkpt><trkpt lat="44.63045580221322" lon="10.87754866734383"><ele>40.0</ele><time>2026-05-03T13:59:40Z</time></trkpt><trkpt lat="44.63064539081929" lon="10.877434150901959"><ele>40.0</ele><time>2026-05-03T13:59:41Z</time></trkpt><trkpt lat="44.63083677294985" lon="10.877316904424987"><ele>40.0</ele><time>2026-05-03T13:59:42Z</time></trkpt><trkpt lat="44.63102745647862" lon="10.877200021199357"><ele>40.0</ele><time>2026-05-03T13:59:43Z</time></trkpt><trkpt lat="44.63121680997033" lon="10.877083005166458"><ele>40.0</ele><time>2026-05-03T13:59:44Z</time></trkpt><trkpt lat="44.631404238507486" lon="10.876969875936942"><ele>40.333333333333336</ele><time>2026-05-03T13:59:45Z</time></trkpt><trkpt lat="44.63159320190176" lon="10.876858459823577"><ele>40.666666666666664</ele><time>2026-05-03T13:59:46Z</time></trkpt><trkpt lat="44.63177971751616" lon="10.87674746799102"><ele>41.0</ele><time>2026-05-03T13:59:47Z</time></trkpt><trkpt lat="44.63196383309073" lon="10.876633205864184"><ele>41.33333333333333</ele><time>2026-05-03T13:59:48Z</time></trkpt><trkpt lat="44.63215029086338" lon="10.876515096096918"><ele>41.666666666666664</ele><time>2026-05-03T13:59:49Z</time></trkpt><trkpt lat="44.63232749328395" lon="10.87640564339969"><ele>42.0</ele><time>2026-05-03T13:59:50Z</time></trkpt><trkpt lat="44.632509227220126" lon="10.87629475145768"><ele>42.0</ele><time>2026-05-03T13:59:51Z</time></trkpt><trkpt lat="44.632692115517195" lon="10.876186668475963"><ele>42.0</ele><time>2026-05-03T13:59:52Z</time></trkpt><trkpt lat="44.63287305911335" lon="10.876070413844502"><ele>42.0</ele><time>2026-05-03T13:59:53Z</time></trkpt><trkpt lat="44.6330563547526" lon="10.875959850498358"><ele>41.333333333333336</ele><time>2026-05-03T13:59:54Z</time></trkpt><trkpt lat="44.63323136972177" lon="10.87585139628458"><ele>40.66666666666667</ele><time>2026-05-03T13:59:55Z</time></trkpt><trkpt lat="44.63340974257159" lon="10.875742791684035"><ele>40.0</ele><time>2026-05-03T13:59:56Z</time></trkpt><trkpt lat="44.633587348615976" lon="10.875635222198731"><ele>40.0</ele><time>2026-05-03T13:59:57Z</time></trkpt><trkpt lat="44.633757765451165" lon="10.875530060406266"><ele>40.0</ele><time>2026-05-03T13:59:58Z</time></trkpt><trkpt lat="44.63391173448792" lon="10.875427371410305"><ele>40.0</ele><time>2026-05-03T13:59:59Z</time></trkpt><trkpt lat="44.63406142945082" lon="10.875340440385951"><ele>40.0</ele><time>2026-05-03T14:00:00Z</time></trkpt><trkpt lat="44.63421017190508" lon="10.875246186676097"><ele>40.0</ele><time>2026-05-03T14:00:01Z</time></trkpt><trkpt lat="44.63435248400722" lon="10.875166522753721"><ele>40.0</ele><time>2026-05-03T14:00:02Z</time></trkpt><trkpt lat="44.63448231275431" lon="10.875087165905082"><ele>40.5</ele><time>2026-05-03T14:00:03Z</time></trkpt><trkpt lat="44.63458577793473" lon="10.875015272466245"><ele>41.0</ele><time>2026-05-03T14:00:04Z</time></trkpt><trkpt lat="44.63468752854414" lon="10.874949893307242"><ele>41.5</ele><time>2026-05-03T14:00:05Z</time></trkpt><trkpt lat="44.63479899911871" lon="10.874886212781762"><ele>42.0</ele><time>2026-05-03T14:00:06Z</time></trkpt><trkpt lat="44.63491579893424" lon="10.874813284641862"><ele>42.0</ele><time>2026-05-03T14:00:07Z</time></trkpt><trkpt lat="44.63503623752371" lon="10.874741580987047"><ele>42.0</ele><time>2026-05-03T14:00:08Z</time></trkpt><trkpt lat="44.635158435259605" lon="10.874669677274357"><ele>42.0</ele><time>2026-05-03T14:00:09Z</time></trkpt><trkpt lat="44.63527866797519" lon="10.87460031209417"><ele>42.0</ele><time>2026-05-03T14:00:10Z</time></trkpt><trkpt lat="44.63539899266857" lon="10.874518631789444"><ele>42.0</ele><time>2026-05-03T14:00:11Z</time></trkpt><trkpt lat="44.63552015557468" lon="10.874440556130057"><ele>42.0</ele><time>2026-05-03T14:00:12Z</time></trkpt><trkpt lat="44.635649474088" lon="10.874363222975212"><ele>42.0</ele><time>2026-05-03T14:00:13Z</time></trkpt><trkpt lat="44.63578039390668" lon="10.874284424567206"><ele>42.0</ele><time>2026-05-03T14:00:14Z</time></trkpt><trkpt lat="44.63591129145976" lon="10.874198854481916"><ele>42.0</ele><time>2026-05-03T14:00:15Z</time></trkpt><trkpt lat="44.636044172810266" lon="10.874113479833165"><ele>42.0</ele><time>2026-05-03T14:00:16Z</time></trkpt><trkpt lat="44.63618131844251" lon="10.874028896561779"><ele>42.0</ele><time>2026-05-03T14:00:17Z</time></trkpt><trkpt lat="44.63631981148513" lon="10.873949482322823"><ele>42.0</ele><time>2026-05-03T14:00:18Z</time></trkpt><trkpt lat="44.6364601065642" lon="10.873873066682275"><ele>42.0</ele><time>2026-05-03T14:00:19Z</time></trkpt><trkpt lat="44.63659297552719" lon="10.873792853252246"><ele>42.0</ele><time>2026-05-03T14:00:20Z</time></trkpt><trkpt lat="44.63672714718598" lon="10.873704132980986"><ele>42.0</ele><time>2026-05-03T14:00:21Z</time></trkpt><trkpt lat="44.63686443087239" lon="10.873619452244572"><ele>42.0</ele><time>2026-05-03T14:00:22Z</time></trkpt><trkpt lat="44.637000188213854" lon="10.873534304522847"><ele>42.0</ele><time>2026-05-03T14:00:23Z</time></trkpt><trkpt lat="44.63713756896372" lon="10.873453893624424"><ele>42.0</ele><time>2026-05-03T14:00:24Z</time></trkpt><trkpt lat="44.637273416144254" lon="10.873374210842817"><ele>42.0</ele><time>2026-05-03T14:00:25Z</time></trkpt><trkpt lat="44.63740631499528" lon="10.873290905163165"><ele>42.0</ele><time>2026-05-03T14:00:26Z</time></trkpt><trkpt lat="44.637536097451665" lon="10.87320931452637"><ele>42.0</ele><time>2026-05-03T14:00:27Z</time></trkpt><trkpt lat="44.637665062030926" lon="10.873131577175467"><ele>42.0</ele><time>2026-05-03T14:00:28Z</time></trkpt><trkpt lat="44.63779497446372" lon="10.873054552199182"><ele>42.0</ele><time>2026-05-03T14:00:29Z</time></trkpt><trkpt lat="44.637923129844076" lon="10.872975540480848"><ele>42.0</ele><time>2026-05-03T14:00:30Z</time></trkpt><trkpt lat="44.63804727858775" lon="10.872897095246469"><ele>42.0</ele><time>2026-05-03T14:00:31Z</time></trkpt><trkpt lat="44.63817213910515" lon="10.872822544328244"><ele>42.0</ele><time>2026-05-03T14:00:32Z</time></trkpt><trkpt lat="44.63829379526863" lon="10.87274911203317"><ele>42.0</ele><time>2026-05-03T14:00:33Z</time></trkpt><trkpt lat="44.63840642346955" lon="10.872678084334733"><ele>42.0</ele><time>2026-05-03T14:00:34Z</time></trkpt><trkpt lat="44.638510353810105" lon="10.872617580721256"><ele>41.6</ele><time>2026-05-03T14:00:35Z</time></trkpt><trkpt lat="44.63860854397514" lon="10.872555463777799"><ele>41.2</ele><time>2026-05-03T14:00:36Z</time></trkpt><trkpt lat="44.63870649569053" lon="10.872492347588887"><ele>40.8</ele><time>2026-05-03T14:00:37Z</time></trkpt><trkpt lat="44.63880415089749" lon="10.87243223983456"><ele>40.4</ele><time>2026-05-03T14:00:38Z</time></trkpt><trkpt lat="44.6389013868658" lon="10.872374760276847"><ele>40.0</ele><time>2026-05-03T14:00:39Z</time></trkpt><trkpt lat="44.63899353056199" lon="10.87232116813188"><ele>39.8</ele><time>2026-05-03T14:00:40Z</time></trkpt><trkpt lat="44.639077474416865" lon="10.872270572818381"><ele>39.6</ele><time>2026-05-03T14:00:41Z</time></trkpt><trkpt lat="44.63916351781011" lon="10.872217787332518"><ele>39.4</ele><time>2026-05-03T14:00:42Z</time></trkpt><trkpt lat="44.63925315419335" lon="10.872164176486828"><ele>39.2</ele><time>2026-05-03T14:00:43Z</time></trkpt><trkpt lat="44.6393434782093" lon="10.87211034572892"><ele>39.0</ele><time>2026-05-03T14:00:44Z</time></trkpt><trkpt lat="44.639428705004214" lon="10.87205658764324"><ele>39.2</ele><time>2026-05-03T14:00:45Z</time></trkpt><trkpt lat="44.639517169942955" lon="10.872002406921489"><ele>39.4</ele><time>2026-05-03T14:00:46Z</time></trkpt><trkpt lat="44.639603104983294" lon="10.871950549713002"><ele>39.6</ele><time>2026-05-03T14:00:46.999Z</time></trkpt><trkpt lat="44.63968799255733" lon="10.871898784766323"><ele>39.8</ele><time>2026-05-03T14:00:47.999Z</time></trkpt><trkpt lat="44.63976790205725" lon="10.871847405899947"><ele>40.0</ele><time>2026-05-03T14:00:48.999Z</time></trkpt><trkpt lat="44.639851632147675" lon="10.87179484974714"><ele>39.4</ele><time>2026-05-03T14:00:49.999Z</time></trkpt><trkpt lat="44.63993751243644" lon="10.871743104215684"><ele>38.8</ele><time>2026-05-03T14:00:50.999Z</time></trkpt><trkpt lat="44.640023417119906" lon="10.871691177831364"><ele>38.2</ele><time>2026-05-03T14:00:51.999Z</time></trkpt><trkpt lat="44.640107938046064" lon="10.871637592259285"><ele>37.6</ele><time>2026-05-03T14:00:52.999Z</time></trkpt><trkpt lat="44.64019837294449" lon="10.871579663676803"><ele>37.0</ele><time>2026-05-03T14:00:53.999Z</time></trkpt><trkpt lat="44.64029288310391" lon="10.871518893569387"><ele>37.8</ele><time>2026-05-03T14:00:55Z</time></trkpt><trkpt lat="44.64038977233319" lon="10.871453629814155"><ele>38.6</ele><time>2026-05-03T14:00:56Z</time></trkpt><trkpt lat="44.64049171203044" lon="10.871397744656957"><ele>39.4</ele><time>2026-05-03T14:00:57Z</time></trkpt><trkpt lat="44.64059829033064" lon="10.871338809851018"><ele>40.199999999999996</ele><time>2026-05-03T14:00:58Z</time></trkpt><trkpt lat="44.64070495190879" lon="10.871276021216959"><ele>41.0</ele><time>2026-05-03T14:00:59Z</time></trkpt><trkpt lat="44.640806227158464" lon="10.871213485121572"><ele>41.0</ele><time>2026-05-03T14:01:00Z</time></trkpt><trkpt lat="44.6409066817312" lon="10.871150614200365"><ele>41.0</ele><time>2026-05-03T14:01:01Z</time></trkpt><trkpt lat="44.641008805064686" lon="10.871089080537436"><ele>41.0</ele><time>2026-05-03T14:01:02Z</time></trkpt><trkpt lat="44.64111210535653" lon="10.871028893101457"><ele>41.0</ele><time>2026-05-03T14:01:03Z</time></trkpt><trkpt lat="44.64121540472299" lon="10.870965905754275"><ele>41.0</ele><time>2026-05-03T14:01:04Z</time></trkpt><trkpt lat="44.641319239643884" lon="10.870901614035938"><ele>40.599999999999994</ele><time>2026-05-03T14:01:05Z</time></trkpt><trkpt lat="44.64142084230113" lon="10.870841010264952"><ele>40.199999999999996</ele><time>2026-05-03T14:01:06Z</time></trkpt><trkpt lat="44.6415195210355" lon="10.870784472468085"><ele>39.8</ele><time>2026-05-03T14:01:07Z</time></trkpt><trkpt lat="44.64161835075618" lon="10.870723773523649"><ele>39.4</ele><time>2026-05-03T14:01:08Z</time></trkpt><trkpt lat="44.64172054899889" lon="10.870661161579582"><ele>39.0</ele><time>2026-05-03T14:01:09Z</time></trkpt><trkpt lat="44.64182558085485" lon="10.870597404512258"><ele>39.0</ele><time>2026-05-03T14:01:10Z</time></trkpt><trkpt lat="44.64193342214703" lon="10.870529689998811"><ele>39.0</ele><time>2026-05-03T14:01:11Z</time></trkpt><trkpt lat="44.64204335215411" lon="10.87046103118689"><ele>39.0</ele><time>2026-05-03T14:01:12Z</time></trkpt><trkpt lat="44.64215482286295" lon="10.870391147844323"><ele>39.0</ele><time>2026-05-03T14:01:13Z</time></trkpt><trkpt lat="44.64226323904625" lon="10.870322809624177"><ele>39.0</ele><time>2026-05-03T14:01:14Z</time></trkpt><trkpt lat="44.642373133760195" lon="10.870257133725014"><ele>39.0</ele><time>2026-05-03T14:01:15Z</time></trkpt><trkpt lat="44.64248499610496" lon="10.870188665302177"><ele>39.0</ele><time>2026-05-03T14:01:16Z</time></trkpt><trkpt lat="44.64259930438165" lon="10.870118926015842"><ele>39.0</ele><time>2026-05-03T14:01:17Z</time></trkpt><trkpt lat="44.642714893278985" lon="10.870046603259398"><ele>38.75</ele><time>2026-05-03T14:01:18Z</time></trkpt><trkpt lat="44.64283179810943" lon="10.869970171911229"><ele>38.5</ele><time>2026-05-03T14:01:19Z</time></trkpt><trkpt lat="44.64294979094656" lon="10.869896891686535"><ele>38.25</ele><time>2026-05-03T14:01:20Z</time></trkpt><trkpt lat="44.64307264663165" lon="10.869822554770032"><ele>38.0</ele><time>2026-05-03T14:01:21Z</time></trkpt><trkpt lat="44.64320080661255" lon="10.86974487089265"><ele>38.0</ele><time>2026-05-03T14:01:22Z</time></trkpt><trkpt lat="44.64332949966919" lon="10.86966456102781"><ele>38.0</ele><time>2026-05-03T14:01:23Z</time></trkpt><trkpt lat="44.64346152823242" lon="10.869585736256546"><ele>38.0</ele><time>2026-05-03T14:01:24Z</time></trkpt><trkpt lat="44.643596159800744" lon="10.869504770820395"><ele>38.0</ele><time>2026-05-03T14:01:25Z</time></trkpt><trkpt lat="44.64373441036849" lon="10.869419441334683"><ele>38.0</ele><time>2026-05-03T14:01:26Z</time></trkpt><trkpt lat="44.6438708993429" lon="10.869338353461655"><ele>38.0</ele><time>2026-05-03T14:01:27Z</time></trkpt><trkpt lat="44.64400565306624" lon="10.869256856950269"><ele>38.0</ele><time>2026-05-03T14:01:28Z</time></trkpt><trkpt lat="44.64413737080354" lon="10.869177407805191"><ele>38.0</ele><time>2026-05-03T14:01:29Z</time></trkpt><trkpt lat="44.644265834027955" lon="10.869101550217268"><ele>38.25</ele><time>2026-05-03T14:01:30Z</time></trkpt><trkpt lat="44.64438748325736" lon="10.869023568324886"><ele>38.5</ele><time>2026-05-03T14:01:31Z</time></trkpt><trkpt lat="44.64450281284234" lon="10.868951852345432"><ele>38.75</ele><time>2026-05-03T14:01:32Z</time></trkpt><trkpt lat="44.64462212477119" lon="10.86888008902041"><ele>39.0</ele><time>2026-05-03T14:01:33Z</time></trkpt><trkpt lat="44.64473904972211" lon="10.868807471261928"><ele>39.0</ele><time>2026-05-03T14:01:34Z</time></trkpt><trkpt lat="44.644858916808445" lon="10.868735091907295"><ele>39.0</ele><time>2026-05-03T14:01:35Z</time></trkpt><trkpt lat="44.64498024108566" lon="10.868660538890397"><ele>39.0</ele><time>2026-05-03T14:01:36Z</time></trkpt><trkpt lat="44.64510332153347" lon="10.868584995644124"><ele>39.0</ele><time>2026-05-03T14:01:37Z</time></trkpt><trkpt lat="44.64522793645149" lon="10.86850864393714"><ele>40.0</ele><time>2026-05-03T14:01:38Z</time></trkpt><trkpt lat="44.64533607219391" lon="10.86844053193608"><ele>41.0</ele><time>2026-05-03T14:01:39Z</time></trkpt><trkpt lat="44.64543908172982" lon="10.868376747467286"><ele>42.0</ele><time>2026-05-03T14:01:40Z</time></trkpt><trkpt lat="44.645532895154545" lon="10.868320598155535"><ele>43.0</ele><time>2026-05-03T14:01:41Z</time></trkpt><trkpt lat="44.6456260708007" lon="10.86826466346675"><ele>44.0</ele><time>2026-05-03T14:01:42Z</time></trkpt><trkpt lat="44.645722155678996" lon="10.868205695580588"><ele>44.0</ele><time>2026-05-03T14:01:43Z</time></trkpt><trkpt lat="44.64582029183522" lon="10.868145928438185"><ele>44.0</ele><time>2026-05-03T14:01:44Z</time></trkpt><trkpt lat="44.64591921730473" lon="10.868085866258799"><ele>44.0</ele><time>2026-05-03T14:01:45Z</time></trkpt><trkpt lat="44.64601710767576" lon="10.86802638851382"><ele>44.0</ele><time>2026-05-03T14:01:46Z</time></trkpt><trkpt lat="44.64611666561658" lon="10.867961179679835"><ele>44.0</ele><time>2026-05-03T14:01:47Z</time></trkpt><trkpt lat="44.64621800519721" lon="10.867901127723284"><ele>43.6</ele><time>2026-05-03T14:01:48Z</time></trkpt><trkpt lat="44.64632019981807" lon="10.867838192413524"><ele>43.2</ele><time>2026-05-03T14:01:49Z</time></trkpt><trkpt lat="44.64642174847459" lon="10.867774130545182"><ele>42.800000000000004</ele><time>2026-05-03T14:01:50Z</time></trkpt><trkpt lat="44.64652364860388" lon="10.867710881141637"><ele>42.400000000000006</ele><time>2026-05-03T14:01:51Z</time></trkpt><trkpt lat="44.64662521900995" lon="10.867651933035162"><ele>42.0</ele><time>2026-05-03T14:01:52Z</time></trkpt><trkpt lat="44.64672554576103" lon="10.86759210299017"><ele>42.0</ele><time>2026-05-03T14:01:53Z</time></trkpt><trkpt lat="44.646816558356306" lon="10.867534894521649"><ele>42.0</ele><time>2026-05-03T14:01:54Z</time></trkpt><trkpt lat="44.6469035487996" lon="10.867482559240191"><ele>42.0</ele><time>2026-05-03T14:01:55Z</time></trkpt><trkpt lat="44.646990033798815" lon="10.867430673339056"><ele>42.0</ele><time>2026-05-03T14:01:56Z</time></trkpt><trkpt lat="44.64707870816427" lon="10.867375570068221"><ele>42.0</ele><time>2026-05-03T14:01:57Z</time></trkpt><trkpt lat="44.64717159929254" lon="10.867316335193413"><ele>41.4</ele><time>2026-05-03T14:01:58Z</time></trkpt><trkpt lat="44.64726826818647" lon="10.867257235298558"><ele>40.800000000000004</ele><time>2026-05-03T14:01:59Z</time></trkpt><trkpt lat="44.647373107182496" lon="10.867194913951531"><ele>40.2</ele><time>2026-05-03T14:02:00Z</time></trkpt><trkpt lat="44.64747865767426" lon="10.867130842472733"><ele>39.6</ele><time>2026-05-03T14:02:01Z</time></trkpt><trkpt lat="44.64758178203601" lon="10.867067007305897"><ele>39.0</ele><time>2026-05-03T14:02:02Z</time></trkpt><trkpt lat="44.64768819481649" lon="10.867002066021758"><ele>39.0</ele><time>2026-05-03T14:02:03Z</time></trkpt><trkpt lat="44.64779139620359" lon="10.866939695358067"><ele>39.0</ele><time>2026-05-03T14:02:04Z</time></trkpt><trkpt lat="44.647898613130494" lon="10.866874598712112"><ele>39.0</ele><time>2026-05-03T14:02:05Z</time></trkpt><trkpt lat="44.64800465419312" lon="10.866807434864162"><ele>39.0</ele><time>2026-05-03T14:02:06Z</time></trkpt><trkpt lat="44.64811092590259" lon="10.86673914261809"><ele>39.25</ele><time>2026-05-03T14:02:07Z</time></trkpt><trkpt lat="44.648221667581744" lon="10.866668634024824"><ele>39.5</ele><time>2026-05-03T14:02:08Z</time></trkpt><trkpt lat="44.64833139621533" lon="10.86660134257863"><ele>39.75</ele><time>2026-05-03T14:02:09Z</time></trkpt><trkpt lat="44.648440470371874" lon="10.866538038539835"><ele>40.0</ele><time>2026-05-03T14:02:10Z</time></trkpt><trkpt lat="44.64855177310604" lon="10.866468208042804"><ele>40.5</ele><time>2026-05-03T14:02:11Z</time></trkpt><trkpt lat="44.64866431290326" lon="10.866402691226591"><ele>41.0</ele><time>2026-05-03T14:02:12Z</time></trkpt><trkpt lat="44.648776610981955" lon="10.866332392423274"><ele>41.5</ele><time>2026-05-03T14:02:13Z</time></trkpt><trkpt lat="44.64888998316662" lon="10.86626349718411"><ele>42.0</ele><time>2026-05-03T14:02:14Z</time></trkpt><trkpt lat="44.64899726446863" lon="10.866196753796599"><ele>42.0</ele><time>2026-05-03T14:02:15Z</time></trkpt><trkpt lat="44.649103420247286" lon="10.866133016562433"><ele>42.0</ele><time>2026-05-03T14:02:16Z</time></trkpt><trkpt lat="44.64920541891963" lon="10.86607177123997"><ele>42.0</ele><time>2026-05-03T14:02:17Z</time></trkpt><trkpt lat="44.64930841296718" lon="10.866008462611848"><ele>42.0</ele><time>2026-05-03T14:02:18Z</time></trkpt><trkpt lat="44.64941249695779" lon="10.865945741502308"><ele>41.25</ele><time>2026-05-03T14:02:19Z</time></trkpt><trkpt lat="44.649518477036935" lon="10.865882941144385"><ele>40.5</ele><time>2026-05-03T14:02:20Z</time></trkpt><trkpt lat="44.6496228675104" lon="10.865821335925789"><ele>39.75</ele><time>2026-05-03T14:02:21Z</time></trkpt><trkpt lat="44.64972747205582" lon="10.865754381955181"><ele>39.0</ele><time>2026-05-03T14:02:22Z</time></trkpt><trkpt lat="44.64983411866398" lon="10.865687543959973"><ele>39.0</ele><time>2026-05-03T14:02:23Z</time></trkpt><trkpt lat="44.64994012294043" lon="10.865618228643322"><ele>39.0</ele><time>2026-05-03T14:02:24Z</time></trkpt><trkpt lat="44.650047108879725" lon="10.865549450077424"><ele>39.0</ele><time>2026-05-03T14:02:25Z</time></trkpt><trkpt lat="44.65015677617152" lon="10.865482527196894"><ele>39.0</ele><time>2026-05-03T14:02:26Z</time></trkpt><trkpt lat="44.6502648970706" lon="10.865420066015746"><ele>38.25</ele><time>2026-05-03T14:02:27Z</time></trkpt><trkpt lat="44.65037485053141" lon="10.865354537470425"><ele>37.5</ele><time>2026-05-03T14:02:28Z</time></trkpt><trkpt lat="44.6504831915561" lon="10.86528738377868"><ele>36.75</ele><time>2026-05-03T14:02:29Z</time></trkpt><trkpt lat="44.650589612815224" lon="10.865220962135817"><ele>36.0</ele><time>2026-05-03T14:02:30Z</time></trkpt><trkpt lat="44.65069536584391" lon="10.865154964490678"><ele>35.0</ele><time>2026-05-03T14:02:31Z</time></trkpt><trkpt lat="44.650800881114314" lon="10.865088964249438"><ele>34.0</ele><time>2026-05-03T14:02:32Z</time></trkpt><trkpt lat="44.65090502206146" lon="10.865022820651392"><ele>33.0</ele><time>2026-05-03T14:02:33Z</time></trkpt><trkpt lat="44.651008953699375" lon="10.864957511301462"><ele>32.0</ele><time>2026-05-03T14:02:34Z</time></trkpt><trkpt lat="44.65111561710053" lon="10.864894001381947"><ele>32.5</ele><time>2026-05-03T14:02:35Z</time></trkpt><trkpt lat="44.65122137523649" lon="10.86483099853246"><ele>33.0</ele><time>2026-05-03T14:02:36Z</time></trkpt><trkpt lat="44.65132649582643" lon="10.864767331729846"><ele>33.5</ele><time>2026-05-03T14:02:37Z</time></trkpt><trkpt lat="44.65143236257964" lon="10.86470340135812"><ele>34.0</ele><time>2026-05-03T14:02:38Z</time></trkpt><trkpt lat="44.65153919401793" lon="10.864639755761958"><ele>34.0</ele><time>2026-05-03T14:02:39Z</time></trkpt><trkpt lat="44.65164712005273" lon="10.86457642152922"><ele>34.0</ele><time>2026-05-03T14:02:40Z</time></trkpt><trkpt lat="44.65175370991184" lon="10.864512546354861"><ele>34.0</ele><time>2026-05-03T14:02:41Z</time></trkpt><trkpt lat="44.65185842445857" lon="10.864448085186021"><ele>34.0</ele><time>2026-05-03T14:02:41.999Z</time></trkpt><trkpt lat="44.65195706775533" lon="10.864388884694254"><ele>34.4</ele><time>2026-05-03T14:02:42.999Z</time></trkpt><trkpt lat="44.65204836091915" lon="10.86433046762903"><ele>34.8</ele><time>2026-05-03T14:02:43.999Z</time></trkpt><trkpt lat="44.6521339676104" lon="10.864275969907853"><ele>35.2</ele><time>2026-05-03T14:02:44.999Z</time></trkpt><trkpt lat="44.65221442568201" lon="10.86422624425176"><ele>35.6</ele><time>2026-05-03T14:02:45.999Z</time></trkpt><trkpt lat="44.6522943660819" lon="10.864178444831568"><ele>36.0</ele><time>2026-05-03T14:02:46.999Z</time></trkpt><trkpt lat="44.65237514352649" lon="10.864127114365457"><ele>36.0</ele><time>2026-05-03T14:02:47.999Z</time></trkpt><trkpt lat="44.65245663962262" lon="10.864074670345854"><ele>36.0</ele><time>2026-05-03T14:02:48.999Z</time></trkpt><trkpt lat="44.652538389789704" lon="10.864022321812266"><ele>36.0</ele><time>2026-05-03T14:02:49.999Z</time></trkpt><trkpt lat="44.65262168635983" lon="10.863968692503702"><ele>36.0</ele><time>2026-05-03T14:02:50.999Z</time></trkpt><trkpt lat="44.65270617086067" lon="10.863917538323205"><ele>36.0</ele><time>2026-05-03T14:02:51.999Z</time></trkpt><trkpt lat="44.65278724379906" lon="10.863866939479648"><ele>36.5</ele><time>2026-05-03T14:02:52.999Z</time></trkpt><trkpt lat="44.652861538196596" lon="10.863817211984692"><ele>37.0</ele><time>2026-05-03T14:02:53.999Z</time></trkpt><trkpt lat="44.65293264228246" lon="10.863770151030934"><ele>37.5</ele><time>2026-05-03T14:02:54.999Z</time></trkpt><trkpt lat="44.653001922510306" lon="10.863724871679105"><ele>38.0</ele><time>2026-05-03T14:02:55.999Z</time></trkpt><trkpt lat="44.65307130686304" lon="10.863680357589379"><ele>38.5</ele><time>2026-05-03T14:02:56.999Z</time></trkpt><trkpt lat="44.65314214667976" lon="10.863636589918986"><ele>39.0</ele><time>2026-05-03T14:02:57.999Z</time></trkpt><trkpt lat="44.653215013619096" lon="10.863594986204095"><ele>39.0</ele><time>2026-05-03T14:02:58.999Z</time></trkpt><trkpt lat="44.65328633286369" lon="10.863551882699841"><ele>39.0</ele><time>2026-05-03T14:02:59.999Z</time></trkpt><trkpt lat="44.653356563753064" lon="10.863509482809052"><ele>39.0</ele><time>2026-05-03T14:03:01Z</time></trkpt><trkpt lat="44.65342215177227" lon="10.863470294682772"><ele>39.0</ele><time>2026-05-03T14:03:02Z</time></trkpt><trkpt lat="44.6534870008267" lon="10.86343070231811"><ele>39.0</ele><time>2026-05-03T14:03:03Z</time></trkpt><trkpt lat="44.65355063236319" lon="10.86339157261734"><ele>39.0</ele><time>2026-05-03T14:03:04Z</time></trkpt><trkpt lat="44.65361350600487" lon="10.863354356408346"><ele>39.0</ele><time>2026-05-03T14:03:05Z</time></trkpt><trkpt lat="44.653676715724394" lon="10.863316047217799"><ele>39.142857142857146</ele><time>2026-05-03T14:03:06Z</time></trkpt><trkpt lat="44.653739830836116" lon="10.86327540177537"><ele>39.285714285714285</ele><time>2026-05-03T14:03:07Z</time></trkpt><trkpt lat="44.65380119114" lon="10.863235240241403"><ele>39.42857142857143</ele><time>2026-05-03T14:03:08Z</time></trkpt><trkpt lat="44.65385929814147" lon="10.863199228459212"><ele>39.57142857142857</ele><time>2026-05-03T14:03:09Z</time></trkpt><trkpt lat="44.65391763113988" lon="10.86316224759198"><ele>39.714285714285715</ele><time>2026-05-03T14:03:10Z</time></trkpt><trkpt lat="44.65397730221121" lon="10.863129308624925"><ele>39.857142857142854</ele><time>2026-05-03T14:03:11Z</time></trkpt><trkpt lat="44.6540369473362" lon="10.8630957724622"><ele>40.0</ele><time>2026-05-03T14:03:12Z</time></trkpt><trkpt lat="44.654156168385754" lon="10.863020125644525"><ele>40.0</ele><time>2026-05-03T14:03:14Z</time></trkpt><trkpt lat="44.6542183143479" lon="10.862980645602953"><ele>40.0</ele><time>2026-05-03T14:03:15Z</time></trkpt><trkpt lat="44.65428428068538" lon="10.86294029358066"><ele>40.0</ele><time>2026-05-03T14:03:16Z</time></trkpt><trkpt lat="44.65434998502684" lon="10.862900101732839"><ele>40.0</ele><time>2026-05-03T14:03:17Z</time></trkpt><trkpt lat="44.65441191698924" lon="10.862862190464975"><ele>40.0</ele><time>2026-05-03T14:03:18Z</time></trkpt><trkpt lat="44.654519175435" lon="10.86280152525848"><ele>40.0</ele><time>2026-05-03T14:03:20Z</time></trkpt><trkpt lat="44.65460069999378" lon="10.862747496258942"><ele>40.0</ele><time>2026-05-03T14:03:22Z</time></trkpt><trkpt lat="44.654666004218576" lon="10.862707642231515"><ele>40.0</ele><time>2026-05-03T14:03:24Z</time></trkpt><trkpt lat="44.65473041567288" lon="10.862669701554687"><ele>40.0</ele><time>2026-05-03T14:03:27Z</time></trkpt><trkpt lat="44.65480810956397" lon="10.862621580647376"><ele>40.0</ele><time>2026-05-03T14:03:39Z</time></trkpt><trkpt lat="44.65487533302253" lon="10.862581357612536"><ele>40.0</ele><time>2026-05-03T14:03:41Z</time></trkpt><trkpt lat="44.65494255108051" lon="10.862537934363099"><ele>40.0</ele><time>2026-05-03T14:03:43Z</time></trkpt><trkpt lat="44.65501896291683" lon="10.862498309279772"><ele>40.0</ele><time>2026-05-03T14:03:46Z</time></trkpt><trkpt lat="44.65509027788191" lon="10.862454373781079"><ele>40.0</ele><time>2026-05-03T14:03:49Z</time></trkpt><trkpt lat="44.65517412938417" lon="10.862402714845514"><ele>40.0</ele><time>2026-05-03T14:03:57Z</time></trkpt><trkpt lat="44.65525707079998" lon="10.862351616567679"><ele>40.0</ele><time>2026-05-03T14:03:59Z</time></trkpt><trkpt lat="44.65532348747165" lon="10.86231077211329"><ele>40.0</ele><time>2026-05-03T14:04:01Z</time></trkpt><trkpt lat="44.655384911813336" lon="10.862273083118039"><ele>40.0</ele><time>2026-05-03T14:04:03Z</time></trkpt><trkpt lat="44.65546147900298" lon="10.862226102659434"><ele>40.0</ele><time>2026-05-03T14:04:05Z</time></trkpt><trkpt lat="44.65553492758613" lon="10.86218103573715"><ele>40.0</ele><time>2026-05-03T14:04:07Z</time></trkpt><trkpt lat="44.6556156771803" lon="10.862131489026634"><ele>40.0</ele><time>2026-05-03T14:04:09Z</time></trkpt><trkpt lat="44.65572153169435" lon="10.862066538316238"><ele>40.0</ele><time>2026-05-03T14:04:11Z</time></trkpt><trkpt lat="44.65578815174655" lon="10.862025661271366"><ele>40.0</ele><time>2026-05-03T14:04:12Z</time></trkpt><trkpt lat="44.65586167114881" lon="10.861980550908301"><ele>40.0</ele><time>2026-05-03T14:04:13Z</time></trkpt><trkpt lat="44.65593852050715" lon="10.861933397316628"><ele>40.0</ele><time>2026-05-03T14:04:14Z</time></trkpt><trkpt lat="44.65601702648008" lon="10.861885227253335"><ele>40.0</ele><time>2026-05-03T14:04:15Z</time></trkpt><trkpt lat="44.656096823132295" lon="10.861836265251483"><ele>40.0</ele><time>2026-05-03T14:04:16Z</time></trkpt><trkpt lat="44.65617855927564" lon="10.861786113210108"><ele>40.0</ele><time>2026-05-03T14:04:17Z</time></trkpt><trkpt lat="44.65626795659292" lon="10.861755668934622"><ele>40.0</ele><time>2026-05-03T14:04:18Z</time></trkpt><trkpt lat="44.656345185647545" lon="10.861702064691293"><ele>40.0</ele><time>2026-05-03T14:04:19Z</time></trkpt><trkpt lat="44.65641660228419" lon="10.86165007448531"><ele>39.833333333333336</ele><time>2026-05-03T14:04:20Z</time></trkpt><trkpt lat="44.65648380437394" lon="10.861600404521608"><ele>39.66666666666667</ele><time>2026-05-03T14:04:21Z</time></trkpt><trkpt lat="44.65654402264536" lon="10.861557333506331"><ele>39.5</ele><time>2026-05-03T14:04:22Z</time></trkpt><trkpt lat="44.656630217634095" lon="10.86149606214678"><ele>39.333333333333336</ele><time>2026-05-03T14:04:24Z</time></trkpt><trkpt lat="44.656706827724626" lon="10.861445129956808"><ele>39.166666666666664</ele><time>2026-05-03T14:04:26.999Z</time></trkpt><trkpt lat="44.6567677119334" lon="10.861406016367877"><ele>39.0</ele><time>2026-05-03T14:04:28.999Z</time></trkpt><trkpt lat="44.65683278577564" lon="10.86136131756137"><ele>39.0</ele><time>2026-05-03T14:04:30.999Z</time></trkpt><trkpt lat="44.65690315569281" lon="10.861310739197434"><ele>39.0</ele><time>2026-05-03T14:04:32.999Z</time></trkpt><trkpt lat="44.65701437600211" lon="10.86124635588799"><ele>39.0</ele><time>2026-05-03T14:04:34.999Z</time></trkpt><trkpt lat="44.657095483480866" lon="10.86120388603141"><ele>39.0</ele><time>2026-05-03T14:04:35.999Z</time></trkpt><trkpt lat="44.65718805127324" lon="10.86115548885357"><ele>39.0</ele><time>2026-05-03T14:04:36.999Z</time></trkpt><trkpt lat="44.657289734338065" lon="10.861103606423136"><ele>39.0</ele><time>2026-05-03T14:04:37.999Z</time></trkpt><trkpt lat="44.657397658777256" lon="10.861041080063009"><ele>39.0</ele><time>2026-05-03T14:04:38.999Z</time></trkpt><trkpt lat="44.65750836080722" lon="10.860971612027546"><ele>39.0</ele><time>2026-05-03T14:04:39.999Z</time></trkpt><trkpt lat="44.65762189416808" lon="10.86090044309219"><ele>39.0</ele><time>2026-05-03T14:04:40.999Z</time></trkpt><trkpt lat="44.65773287635736" lon="10.860831656856625"><ele>38.75</ele><time>2026-05-03T14:04:41.999Z</time></trkpt><trkpt lat="44.65783677315557" lon="10.860765247242039"><ele>38.5</ele><time>2026-05-03T14:04:42.999Z</time></trkpt><trkpt lat="44.657941780673355" lon="10.860698840657758"><ele>38.25</ele><time>2026-05-03T14:04:43.999Z</time></trkpt><trkpt lat="44.65804537081916" lon="10.860631504220992"><ele>38.0</ele><time>2026-05-03T14:04:44.999Z</time></trkpt><trkpt lat="44.65814816639343" lon="10.860565941401969"><ele>38.0</ele><time>2026-05-03T14:04:45.999Z</time></trkpt><trkpt lat="44.65825032523768" lon="10.86050094906028"><ele>38.0</ele><time>2026-05-03T14:04:46.999Z</time></trkpt><trkpt lat="44.65835563819714" lon="10.860434926729116"><ele>38.0</ele><time>2026-05-03T14:04:47.999Z</time></trkpt><trkpt lat="44.65846539860787" lon="10.860368713092885"><ele>38.0</ele><time>2026-05-03T14:04:48.999Z</time></trkpt><trkpt lat="44.65857814697634" lon="10.860299695642368"><ele>38.0</ele><time>2026-05-03T14:04:49.999Z</time></trkpt><trkpt lat="44.65868849140835" lon="10.86022861049694"><ele>38.0</ele><time>2026-05-03T14:04:50.999Z</time></trkpt><trkpt lat="44.65879681652449" lon="10.860156754559346"><ele>38.0</ele><time>2026-05-03T14:04:51.999Z</time></trkpt><trkpt lat="44.65890093140865" lon="10.860086414405087"><ele>38.0</ele><time>2026-05-03T14:04:52.999Z</time></trkpt><trkpt lat="44.65900090664982" lon="10.860017581262468"><ele>38.0</ele><time>2026-05-03T14:04:53.999Z</time></trkpt><trkpt lat="44.65909908192052" lon="10.859947794990049"><ele>38.0</ele><time>2026-05-03T14:04:54.999Z</time></trkpt><trkpt lat="44.65920218693475" lon="10.859877467909651"><ele>38.0</ele><time>2026-05-03T14:04:55.999Z</time></trkpt><trkpt lat="44.659309456584396" lon="10.859806025954263"><ele>38.0</ele><time>2026-05-03T14:04:56.999Z</time></trkpt><trkpt lat="44.659418690243335" lon="10.85972771102997"><ele>37.75</ele><time>2026-05-03T14:04:57.999Z</time></trkpt><trkpt lat="44.65952991061865" lon="10.859643083354813"><ele>37.5</ele><time>2026-05-03T14:04:58.999Z</time></trkpt><trkpt lat="44.659641331517484" lon="10.859556551224317"><ele>37.25</ele><time>2026-05-03T14:04:59.999Z</time></trkpt><trkpt lat="44.65975269174703" lon="10.85946835833035"><ele>37.0</ele><time>2026-05-03T14:05:00.999Z</time></trkpt><trkpt lat="44.659863185911966" lon="10.859380397251586"><ele>37.0</ele><time>2026-05-03T14:05:01.999Z</time></trkpt><trkpt lat="44.65997677160547" lon="10.859290309510389"><ele>37.0</ele><time>2026-05-03T14:05:02.999Z</time></trkpt><trkpt lat="44.66008996941897" lon="10.85919911921442"><ele>37.0</ele><time>2026-05-03T14:05:03.999Z</time></trkpt><trkpt lat="44.66020241381419" lon="10.859106410167655"><ele>37.0</ele><time>2026-05-03T14:05:04.999Z</time></trkpt><trkpt lat="44.66031189996421" lon="10.8590148864917"><ele>37.75</ele><time>2026-05-03T14:05:05.999Z</time></trkpt><trkpt lat="44.660409597673286" lon="10.858905216418249"><ele>38.5</ele><time>2026-05-03T14:05:07Z</time></trkpt><trkpt lat="44.660511939005076" lon="10.858810796664567"><ele>39.25</ele><time>2026-05-03T14:05:08Z</time></trkpt><trkpt lat="44.660630194572725" lon="10.858757473276174"><ele>40.0</ele><time>2026-05-03T14:05:09Z</time></trkpt><trkpt lat="44.66073886741438" lon="10.858689423848093"><ele>40.0</ele><time>2026-05-03T14:05:10Z</time></trkpt><trkpt lat="44.66084717973221" lon="10.858634134908392"><ele>40.0</ele><time>2026-05-03T14:05:11Z</time></trkpt><trkpt lat="44.66095358115762" lon="10.858582549100282"><ele>40.0</ele><time>2026-05-03T14:05:12Z</time></trkpt><trkpt lat="44.66105709873502" lon="10.858528718681882"><ele>40.0</ele><time>2026-05-03T14:05:13Z</time></trkpt><trkpt lat="44.66115689620655" lon="10.858476082359156"><ele>40.0</ele><time>2026-05-03T14:05:14Z</time></trkpt><trkpt lat="44.66125202670798" lon="10.858413841598754"><ele>40.333333333333336</ele><time>2026-05-03T14:05:15Z</time></trkpt><trkpt lat="44.66133681081618" lon="10.85833463476503"><ele>40.66666666666667</ele><time>2026-05-03T14:05:16Z</time></trkpt><trkpt lat="44.66141257454636" lon="10.858248593684245"><ele>41.0</ele><time>2026-05-03T14:05:17Z</time></trkpt><trkpt lat="44.661475977114385" lon="10.858161154635697"><ele>41.333333333333336</ele><time>2026-05-03T14:05:18Z</time></trkpt><trkpt lat="44.661530659718586" lon="10.858085179048592"><ele>41.666666666666664</ele><time>2026-05-03T14:05:19Z</time></trkpt><trkpt lat="44.661562081117395" lon="10.858005817306404"><ele>42.0</ele><time>2026-05-03T14:05:20Z</time></trkpt><trkpt lat="44.661640010150826" lon="10.85800009348916"><ele>42.0</ele><time>2026-05-03T14:05:21Z</time></trkpt><trkpt lat="44.661734330350455" lon="10.857988781763055"><ele>42.0</ele><time>2026-05-03T14:05:23Z</time></trkpt><trkpt lat="44.66181603656454" lon="10.85797091049867"><ele>42.0</ele><time>2026-05-03T14:05:25Z</time></trkpt><trkpt lat="44.66189746715635" lon="10.857944770235735"><ele>42.0</ele><time>2026-05-03T14:05:27Z</time></trkpt><trkpt lat="44.661974114923936" lon="10.857926427724287"><ele>42.0</ele><time>2026-05-03T14:05:29Z</time></trkpt><trkpt lat="44.66206248158478" lon="10.85791171419141"><ele>42.0</ele><time>2026-05-03T14:05:32Z</time></trkpt><trkpt lat="44.6621254673774" lon="10.85789360268718"><ele>42.0</ele><time>2026-05-03T14:05:34Z</time></trkpt><trkpt lat="44.66218921306788" lon="10.857876728520635"><ele>42.0</ele><time>2026-05-03T14:05:36Z</time></trkpt><trkpt lat="44.66226090087469" lon="10.857869211224836"><ele>42.0</ele><time>2026-05-03T14:05:38Z</time></trkpt><trkpt lat="44.66232757234531" lon="10.857857259782792"><ele>42.0</ele><time>2026-05-03T14:05:40Z</time></trkpt><trkpt lat="44.66239368627488" lon="10.857943901040434"><ele>42.0</ele><time>2026-05-03T14:05:42Z</time></trkpt><trkpt lat="44.66238046462669" lon="10.85805983666682"><ele>42.0</ele><time>2026-05-03T14:05:43Z</time></trkpt><trkpt lat="44.66231442594782" lon="10.85809500215118"><ele>42.0</ele><time>2026-05-03T14:05:45Z</time></trkpt><trkpt lat="44.66222180090351" lon="10.85810746025357"><ele>42.0</ele><time>2026-05-03T14:05:48Z</time></trkpt><trkpt lat="44.662145569735365" lon="10.858112547532896"><ele>42.0</ele><time>2026-05-03T14:05:50Z</time></trkpt><trkpt lat="44.662077139883834" lon="10.858138957999289"><ele>42.0</ele><time>2026-05-03T14:05:52Z</time></trkpt><trkpt lat="44.66201017719057" lon="10.858177924392175"><ele>42.0</ele><time>2026-05-03T14:05:54Z</time></trkpt><trkpt lat="44.66193807796235" lon="10.858212731263242"><ele>42.0</ele><time>2026-05-03T14:05:56Z</time></trkpt><trkpt lat="44.66186535272589" lon="10.858236024647852"><ele>42.0</ele><time>2026-05-03T14:05:58Z</time></trkpt><trkpt lat="44.66179546003457" lon="10.858216642060805"><ele>42.0</ele><time>2026-05-03T14:06:00Z</time></trkpt><trkpt lat="44.661752967120385" lon="10.858126412003386"><ele>42.0</ele><time>2026-05-03T14:06:02Z</time></trkpt><trkpt lat="44.661770763726395" lon="10.858020988844467"><ele>42.0</ele><time>2026-05-03T14:06:04Z</time></trkpt><trkpt lat="44.66184676300215" lon="10.857962461190809"><ele>42.0</ele><time>2026-05-03T14:06:06Z</time></trkpt><trkpt lat="44.66193882242188" lon="10.857936011762456"><ele>42.0</ele><time>2026-05-03T14:06:08Z</time></trkpt><trkpt lat="44.662035070535495" lon="10.857926382935418"><ele>42.0</ele><time>2026-05-03T14:06:10Z</time></trkpt><trkpt lat="44.662129965846404" lon="10.85790949595242"><ele>42.0</ele><time>2026-05-03T14:06:12Z</time></trkpt><trkpt lat="44.66221649949259" lon="10.857874239593437"><ele>42.0</ele><time>2026-05-03T14:06:14Z</time></trkpt><trkpt lat="44.66230842721137" lon="10.857875174584347"><ele>42.0</ele><time>2026-05-03T14:06:16Z</time></trkpt><trkpt lat="44.66238785549374" lon="10.857934715105861"><ele>42.0</ele><time>2026-05-03T14:06:17.999Z</time></trkpt><trkpt lat="44.662353737621274" lon="10.858070650978265"><ele>42.0</ele><time>2026-05-03T14:06:19.999Z</time></trkpt><trkpt lat="44.662282308007235" lon="10.858126159121861"><ele>42.0</ele><time>2026-05-03T14:06:21.999Z</time></trkpt><trkpt lat="44.6622088574069" lon="10.858127947146238"><ele>42.0</ele><time>2026-05-03T14:06:24.999Z</time></trkpt><trkpt lat="44.66221464828647" lon="10.858237263655827"><ele>42.0</ele><time>2026-05-03T14:24:38.999Z</time></trkpt><trkpt lat="44.66218051459524" lon="10.858146535006709"><ele>42.0</ele><time>2026-05-03T14:31:42Z</time></trkpt><trkpt lat="44.66210022639878" lon="10.858163126808046"><ele>42.0</ele><time>2026-05-03T14:31:46Z</time></trkpt><trkpt lat="44.66203408801745" lon="10.858182590105216"><ele>42.0</ele><time>2026-05-03T14:31:48Z</time></trkpt><trkpt lat="44.66195030790593" lon="10.858195255082709"><ele>42.0</ele><time>2026-05-03T14:31:50Z</time></trkpt><trkpt lat="44.66186314812067" lon="10.85820597413735"><ele>42.0</ele><time>2026-05-03T14:31:52Z</time></trkpt><trkpt lat="44.66177353726325" lon="10.858194344881953"><ele>42.0</ele><time>2026-05-03T14:31:54Z</time></trkpt><trkpt lat="44.661746351045466" lon="10.858083197497926"><ele>42.0</ele><time>2026-05-03T14:31:56Z</time></trkpt><trkpt lat="44.66179760832983" lon="10.858012027810824"><ele>42.0</ele><time>2026-05-03T14:31:58Z</time></trkpt><trkpt lat="44.66188222175059" lon="10.857997031506848"><ele>42.0</ele><time>2026-05-03T14:32:01Z</time></trkpt><trkpt lat="44.661954259259545" lon="10.857973824685613"><ele>42.0</ele><time>2026-05-03T14:32:03Z</time></trkpt><trkpt lat="44.66201418817916" lon="10.857944889215942"><ele>42.0</ele><time>2026-05-03T14:32:06Z</time></trkpt><trkpt lat="44.66208267717506" lon="10.857882957174704"><ele>42.0</ele><time>2026-05-03T14:32:09Z</time></trkpt><trkpt lat="44.66216788756728" lon="10.857885097189026"><ele>42.0</ele><time>2026-05-03T14:32:11Z</time></trkpt><trkpt lat="44.66223354810925" lon="10.8578515580407"><ele>42.0</ele><time>2026-05-03T14:32:13Z</time></trkpt><trkpt lat="44.66225407726408" lon="10.857749161089599"><ele>42.0</ele><time>2026-05-03T14:32:16Z</time></trkpt><trkpt lat="44.662188111257784" lon="10.8576638504365"><ele>42.0</ele><time>2026-05-03T14:32:19Z</time></trkpt><trkpt lat="44.66212167627292" lon="10.85758144975209"><ele>42.0</ele><time>2026-05-03T14:32:21Z</time></trkpt><trkpt lat="44.66207396744022" lon="10.857508762834623"><ele>42.0</ele><time>2026-05-03T14:32:23Z</time></trkpt><trkpt lat="44.662138239132986" lon="10.857565068858312"><ele>42.0</ele><time>2026-05-03T14:32:44.001Z</time></trkpt><trkpt lat="44.6622094802578" lon="10.857575433412642"><ele>42.0</ele><time>2026-05-03T14:32:50.001Z</time></trkpt><trkpt lat="44.662276407137696" lon="10.85759311741329"><ele>42.0</ele><time>2026-05-03T14:32:56.001Z</time></trkpt><trkpt lat="44.66233473066425" lon="10.857626866832236"><ele>42.0</ele><time>2026-05-03T14:33:01Z</time></trkpt><trkpt lat="44.662392354216564" lon="10.857679860084385"><ele>42.0</ele><time>2026-05-03T14:33:07Z</time></trkpt><trkpt lat="44.66246116951932" lon="10.857700117433414"><ele>42.0</ele><time>2026-05-03T14:33:15Z</time></trkpt><trkpt lat="44.66250276724391" lon="10.857790055225566"><ele>42.0</ele><time>2026-05-03T14:33:21Z</time></trkpt><trkpt lat="44.662600836984225" lon="10.857906874254533"><ele>42.0</ele><time>2026-05-03T14:33:27Z</time></trkpt><trkpt lat="44.66258516910641" lon="10.857645118421244"><ele>42.0</ele><time>2026-05-03T14:33:56.329Z</time></trkpt><trkpt lat="44.66246606836568" lon="10.85762528425484"><ele>42.0</ele><time>2026-05-03T14:37:53.306Z</time></trkpt><trkpt lat="44.66237774983508" lon="10.857540708627537"><ele>42.0</ele><time>2026-05-03T14:38:05.303Z</time></trkpt><trkpt lat="44.66231210894471" lon="10.857515458102199"><ele>42.0</ele><time>2026-05-03T14:38:06.36Z</time></trkpt><trkpt lat="44.66246107840875" lon="10.857588992294577"><ele>42.0</ele><time>2026-05-03T14:38:21.308Z</time></trkpt><trkpt lat="44.66240296328269" lon="10.857642892693667"><ele>42.0</ele><time>2026-05-03T14:38:35.998Z</time></trkpt><trkpt lat="44.66232994152446" lon="10.857686873045118"><ele>42.0</ele><time>2026-05-03T14:38:41Z</time></trkpt><trkpt lat="44.66226679157724" lon="10.857636730073166"><ele>42.0</ele><time>2026-05-03T14:38:47Z</time></trkpt><trkpt lat="44.66220041911769" lon="10.857585155611154"><ele>42.0</ele><time>2026-05-03T14:38:54Z</time></trkpt><trkpt lat="44.6621373500482" lon="10.857564122007075"><ele>42.0</ele><time>2026-05-03T14:38:59Z</time></trkpt><trkpt lat="44.662081097591575" lon="10.857515887759558"><ele>42.0</ele><time>2026-05-03T14:39:05Z</time></trkpt><trkpt lat="44.66216061016254" lon="10.857499288351027"><ele>42.0</ele><time>2026-05-03T14:39:47Z</time></trkpt><trkpt lat="44.662244638913236" lon="10.857393238681205"><ele>42.0</ele><time>2026-05-03T14:39:49Z</time></trkpt><trkpt lat="44.66233009844379" lon="10.85729603065417"><ele>42.0</ele><time>2026-05-03T14:39:51Z</time></trkpt><trkpt lat="44.66242164981374" lon="10.857190096141151"><ele>42.0</ele><time>2026-05-03T14:39:53Z</time></trkpt><trkpt lat="44.662514179567104" lon="10.857082603269571"><ele>42.0</ele><time>2026-05-03T14:39:55Z</time></trkpt><trkpt lat="44.66259378553373" lon="10.856975931477638"><ele>42.0</ele><time>2026-05-03T14:39:57Z</time></trkpt><trkpt lat="44.662676168287646" lon="10.856869740382267"><ele>42.0</ele><time>2026-05-03T14:39:59Z</time></trkpt><trkpt lat="44.66277949303639" lon="10.856798652314588"><ele>42.0</ele><time>2026-05-03T14:40:01Z</time></trkpt><trkpt lat="44.66288644351294" lon="10.856769603178876"><ele>42.0</ele><time>2026-05-03T14:40:03Z</time></trkpt><trkpt lat="44.66297238906233" lon="10.856750576443796"><ele>41.833333333333336</ele><time>2026-05-03T14:40:05Z</time></trkpt><trkpt lat="44.66300700164189" lon="10.856656074736367"><ele>41.666666666666664</ele><time>2026-05-03T14:40:08Z</time></trkpt><trkpt lat="44.66306087200041" lon="10.856595684887285"><ele>41.5</ele><time>2026-05-03T14:40:16Z</time></trkpt><trkpt lat="44.66312782426151" lon="10.856552284022728"><ele>41.33333333333333</ele><time>2026-05-03T14:40:19Z</time></trkpt><trkpt lat="44.663097963202624" lon="10.856473644060113"><ele>41.166666666666664</ele><time>2026-05-03T14:42:51.032Z</time></trkpt><trkpt lat="44.66305157127959" lon="10.856612687115572"><ele>41.0</ele><time>2026-05-03T14:43:19.03Z</time></trkpt><trkpt lat="44.66313295860447" lon="10.856617842570484"><ele>41.0</ele><time>2026-05-03T14:43:24.999Z</time></trkpt><trkpt lat="44.663150467530926" lon="10.856526492431458"><ele>41.0</ele><time>2026-05-03T14:45:26.999Z</time></trkpt><trkpt lat="44.66318710098024" lon="10.856410051609434"><ele>41.0</ele><time>2026-05-03T14:45:36Z</time></trkpt><trkpt lat="44.66315727563949" lon="10.856301504523763"><ele>41.0</ele><time>2026-05-03T14:45:38Z</time></trkpt><trkpt lat="44.663144883094056" lon="10.856185113742962"><ele>41.0</ele><time>2026-05-03T14:45:41Z</time></trkpt><trkpt lat="44.663192956363716" lon="10.856041227465838"><ele>41.0</ele><time>2026-05-03T14:45:44Z</time></trkpt><trkpt lat="44.663245440341015" lon="10.855973247451928"><ele>41.166666666666664</ele><time>2026-05-03T14:45:45Z</time></trkpt><trkpt lat="44.66330588585943" lon="10.85589978006264"><ele>41.33333333333333</ele><time>2026-05-03T14:45:46Z</time></trkpt><trkpt lat="44.663366799910904" lon="10.855821811013437"><ele>41.5</ele><time>2026-05-03T14:45:47Z</time></trkpt><trkpt lat="44.66342220175464" lon="10.855725446010554"><ele>41.666666666666664</ele><time>2026-05-03T14:45:48Z</time></trkpt><trkpt lat="44.66347474998571" lon="10.855616719039494"><ele>41.833333333333336</ele><time>2026-05-03T14:45:49Z</time></trkpt><trkpt lat="44.663517467002364" lon="10.855495928875394"><ele>42.0</ele><time>2026-05-03T14:45:50Z</time></trkpt><trkpt lat="44.66355468207096" lon="10.855365187051294"><ele>42.0</ele><time>2026-05-03T14:45:51Z</time></trkpt><trkpt lat="44.66359156222336" lon="10.855228612587593"><ele>42.0</ele><time>2026-05-03T14:45:52Z</time></trkpt><trkpt lat="44.66363574021971" lon="10.855094268304493"><ele>42.0</ele><time>2026-05-03T14:45:53Z</time></trkpt><trkpt lat="44.66368678150111" lon="10.854958644545027"><ele>42.0</ele><time>2026-05-03T14:45:54Z</time></trkpt><trkpt lat="44.663742960358896" lon="10.854824208034323"><ele>42.0</ele><time>2026-05-03T14:45:55Z</time></trkpt><trkpt lat="44.66380964548134" lon="10.85469716502719"><ele>41.75</ele><time>2026-05-03T14:45:56Z</time></trkpt><trkpt lat="44.663830595317535" lon="10.85454867383347"><ele>41.5</ele><time>2026-05-03T14:45:57Z</time></trkpt><trkpt lat="44.66393925307033" lon="10.854422508319088"><ele>41.25</ele><time>2026-05-03T14:45:58Z</time></trkpt><trkpt lat="44.66401441856486" lon="10.854286286423354"><ele>41.0</ele><time>2026-05-03T14:45:59Z</time></trkpt><trkpt lat="44.664092149362475" lon="10.854143773725678"><ele>41.0</ele><time>2026-05-03T14:46:00Z</time></trkpt><trkpt lat="44.66418435548829" lon="10.85400835061982"><ele>41.0</ele><time>2026-05-03T14:46:01Z</time></trkpt><trkpt lat="44.66426223012545" lon="10.853845407670304"><ele>41.0</ele><time>2026-05-03T14:46:02Z</time></trkpt><trkpt lat="44.66434037264081" lon="10.853677103010343"><ele>41.0</ele><time>2026-05-03T14:46:03Z</time></trkpt><trkpt lat="44.6644192152083" lon="10.85350456970299"><ele>40.0</ele><time>2026-05-03T14:46:04Z</time></trkpt><trkpt lat="44.6645040209095" lon="10.853319466139451"><ele>39.0</ele><time>2026-05-03T14:46:05Z</time></trkpt><trkpt lat="44.66459493413156" lon="10.853123363137085"><ele>38.0</ele><time>2026-05-03T14:46:06Z</time></trkpt><trkpt lat="44.664683719150865" lon="10.852924997308826"><ele>38.0</ele><time>2026-05-03T14:46:07Z</time></trkpt><trkpt lat="44.66477663162843" lon="10.85272444735872"><ele>38.0</ele><time>2026-05-03T14:46:08Z</time></trkpt><trkpt lat="44.66486741515144" lon="10.852523564096638"><ele>38.0</ele><time>2026-05-03T14:46:09Z</time></trkpt><trkpt lat="44.66495456501761" lon="10.852325337089004"><ele>38.33333333333333</ele><time>2026-05-03T14:46:10Z</time></trkpt><trkpt lat="44.66504011644429" lon="10.852129569959676"><ele>38.666666666666664</ele><time>2026-05-03T14:46:11Z</time></trkpt><trkpt lat="44.66512584060857" lon="10.85192890218744"><ele>39.0</ele><time>2026-05-03T14:46:12Z</time></trkpt><trkpt lat="44.66520729757342" lon="10.851725197961365"><ele>38.666666666666664</ele><time>2026-05-03T14:46:13Z</time></trkpt><trkpt lat="44.66528621358951" lon="10.851516487581645"><ele>38.33333333333333</ele><time>2026-05-03T14:46:14Z</time></trkpt><trkpt lat="44.665362126436655" lon="10.851302215187786"><ele>38.0</ele><time>2026-05-03T14:46:15Z</time></trkpt><trkpt lat="44.66543681728426" lon="10.85108312476048"><ele>38.0</ele><time>2026-05-03T14:46:16Z</time></trkpt><trkpt lat="44.66551378310119" lon="10.850860889713099"><ele>38.0</ele><time>2026-05-03T14:46:17Z</time></trkpt><trkpt lat="44.66559262971515" lon="10.850635293285086"><ele>38.0</ele><time>2026-05-03T14:46:18Z</time></trkpt><trkpt lat="44.66567188119134" lon="10.850404181034731"><ele>38.0</ele><time>2026-05-03T14:46:19Z</time></trkpt><trkpt lat="44.66575068063314" lon="10.85017031412717"><ele>38.0</ele><time>2026-05-03T14:46:20Z</time></trkpt><trkpt lat="44.66582919130326" lon="10.849931741615519"><ele>38.0</ele><time>2026-05-03T14:46:21Z</time></trkpt><trkpt lat="44.66590940476465" lon="10.8496955717456"><ele>38.33333333333333</ele><time>2026-05-03T14:46:22Z</time></trkpt><trkpt lat="44.66598993676883" lon="10.849462959596973"><ele>38.666666666666664</ele><time>2026-05-03T14:46:23Z</time></trkpt><trkpt lat="44.666070643398434" lon="10.849230863989689"><ele>39.0</ele><time>2026-05-03T14:46:24Z</time></trkpt><trkpt lat="44.6661513115051" lon="10.849000471653587"><ele>39.0</ele><time>2026-05-03T14:46:25Z</time></trkpt><trkpt lat="44.66623077572106" lon="10.848772928269602"><ele>39.0</ele><time>2026-05-03T14:46:26Z</time></trkpt><trkpt lat="44.666308080071" lon="10.848548725680118"><ele>39.0</ele><time>2026-05-03T14:46:27Z</time></trkpt><trkpt lat="44.666384323071036" lon="10.848324138700184"><ele>39.333333333333336</ele><time>2026-05-03T14:46:28Z</time></trkpt><trkpt lat="44.666460180308164" lon="10.848099341034096"><ele>39.66666666666667</ele><time>2026-05-03T14:46:29Z</time></trkpt><trkpt lat="44.66653635847801" lon="10.847876908859272"><ele>40.0</ele><time>2026-05-03T14:46:30Z</time></trkpt><trkpt lat="44.666613861879874" lon="10.84765245925822"><ele>39.66666666666667</ele><time>2026-05-03T14:46:31Z</time></trkpt><trkpt lat="44.666691095015274" lon="10.84742720876833"><ele>39.333333333333336</ele><time>2026-05-03T14:46:32Z</time></trkpt><trkpt lat="44.66676843703925" lon="10.847201325084571"><ele>39.0</ele><time>2026-05-03T14:46:33Z</time></trkpt><trkpt lat="44.66684492530542" lon="10.8469813280427"><ele>39.666666666666664</ele><time>2026-05-03T14:46:34Z</time></trkpt><trkpt lat="44.66691918456879" lon="10.846765643635656"><ele>40.33333333333333</ele><time>2026-05-03T14:46:35Z</time></trkpt><trkpt lat="44.66699234814169" lon="10.84655275309567"><ele>41.0</ele><time>2026-05-03T14:46:36Z</time></trkpt><trkpt lat="44.6670671537535" lon="10.846339819007559"><ele>41.0</ele><time>2026-05-03T14:46:37Z</time></trkpt><trkpt lat="44.66714568737694" lon="10.846126308619207"><ele>41.0</ele><time>2026-05-03T14:46:38Z</time></trkpt><trkpt lat="44.6672243869296" lon="10.845915446262746"><ele>41.0</ele><time>2026-05-03T14:46:39Z</time></trkpt><trkpt lat="44.667301368818336" lon="10.845699588725976"><ele>41.0</ele><time>2026-05-03T14:46:40Z</time></trkpt><trkpt lat="44.66737692758725" lon="10.84548286957723"><ele>41.0</ele><time>2026-05-03T14:46:41Z</time></trkpt><trkpt lat="44.667452753491006" lon="10.845261581524836"><ele>41.0</ele><time>2026-05-03T14:46:42Z</time></trkpt><trkpt lat="44.667528833697446" lon="10.845039928537552"><ele>41.0</ele><time>2026-05-03T14:46:43Z</time></trkpt><trkpt lat="44.66760698565213" lon="10.844816597355495"><ele>41.0</ele><time>2026-05-03T14:46:44Z</time></trkpt><trkpt lat="44.66768451593554" lon="10.844594871786619"><ele>41.0</ele><time>2026-05-03T14:46:45Z</time></trkpt><trkpt lat="44.66776286093344" lon="10.844372029509076"><ele>40.33333333333333</ele><time>2026-05-03T14:46:46Z</time></trkpt><trkpt lat="44.66784181362412" lon="10.844148875941459"><ele>39.666666666666664</ele><time>2026-05-03T14:46:47Z</time></trkpt><trkpt lat="44.66791943886606" lon="10.843924507020226"><ele>39.0</ele><time>2026-05-03T14:46:48Z</time></trkpt><trkpt lat="44.66799799104923" lon="10.843697860871535"><ele>39.0</ele><time>2026-05-03T14:46:49Z</time></trkpt><trkpt lat="44.66807775075058" lon="10.843469224611983"><ele>39.0</ele><time>2026-05-03T14:46:50Z</time></trkpt><trkpt lat="44.66815569011" lon="10.843240414134875"><ele>39.0</ele><time>2026-05-03T14:46:51Z</time></trkpt><trkpt lat="44.66823481218613" lon="10.843008963919855"><ele>39.666666666666664</ele><time>2026-05-03T14:46:52Z</time></trkpt><trkpt lat="44.668315947227256" lon="10.842775362856523"><ele>40.33333333333333</ele><time>2026-05-03T14:46:53Z</time></trkpt><trkpt lat="44.66839734821895" lon="10.842540946845299"><ele>41.0</ele><time>2026-05-03T14:46:54Z</time></trkpt><trkpt lat="44.66847842362681" lon="10.842305409598723"><ele>41.0</ele><time>2026-05-03T14:46:55Z</time></trkpt><trkpt lat="44.668559039584245" lon="10.842067195048848"><ele>41.0</ele><time>2026-05-03T14:46:56Z</time></trkpt><trkpt lat="44.66864351437815" lon="10.841826125007406"><ele>41.0</ele><time>2026-05-03T14:46:57Z</time></trkpt><trkpt lat="44.66872846189432" lon="10.841583030678303"><ele>41.0</ele><time>2026-05-03T14:46:58Z</time></trkpt><trkpt lat="44.66881318141157" lon="10.841341974145124"><ele>41.0</ele><time>2026-05-03T14:46:59Z</time></trkpt><trkpt lat="44.66889588045079" lon="10.841102891704914"><ele>41.0</ele><time>2026-05-03T14:47:00Z</time></trkpt><trkpt lat="44.66897832901353" lon="10.840862758365912"><ele>40.33333333333333</ele><time>2026-05-03T14:47:01Z</time></trkpt><trkpt lat="44.66906037187664" lon="10.840625110646066"><ele>39.666666666666664</ele><time>2026-05-03T14:47:02Z</time></trkpt><trkpt lat="44.669142941653355" lon="10.840388994191215"><ele>39.0</ele><time>2026-05-03T14:47:03Z</time></trkpt><trkpt lat="44.66922717000139" lon="10.840153772141518"><ele>38.333333333333336</ele><time>2026-05-03T14:47:04Z</time></trkpt><trkpt lat="44.669312049998844" lon="10.839915221224581"><ele>37.66666666666667</ele><time>2026-05-03T14:47:05Z</time></trkpt><trkpt lat="44.66939839788486" lon="10.8396743769073"><ele>37.0</ele><time>2026-05-03T14:47:06Z</time></trkpt><trkpt lat="44.66948462936838" lon="10.839426483217327"><ele>37.66666666666667</ele><time>2026-05-03T14:47:07Z</time></trkpt><trkpt lat="44.6695702159075" lon="10.839174590635205"><ele>38.333333333333336</ele><time>2026-05-03T14:47:08Z</time></trkpt><trkpt lat="44.669651810637276" lon="10.83893138571461"><ele>39.0</ele><time>2026-05-03T14:47:09Z</time></trkpt><trkpt lat="44.66972844374565" lon="10.838699141068183"><ele>39.0</ele><time>2026-05-03T14:47:09.999Z</time></trkpt><trkpt lat="44.66980349137799" lon="10.8384698975934"><ele>39.0</ele><time>2026-05-03T14:47:10.999Z</time></trkpt><trkpt lat="44.66993494753516" lon="10.838145311503666"><ele>39.0</ele><time>2026-05-03T14:47:11.999Z</time></trkpt><trkpt lat="44.670024910535126" lon="10.837886136936742"><ele>39.333333333333336</ele><time>2026-05-03T14:47:12.999Z</time></trkpt><trkpt lat="44.67011127006684" lon="10.837628612520888"><ele>39.66666666666667</ele><time>2026-05-03T14:47:13.999Z</time></trkpt><trkpt lat="44.67019586957945" lon="10.837383059150303"><ele>40.0</ele><time>2026-05-03T14:47:14.999Z</time></trkpt><trkpt lat="44.67028220121186" lon="10.837138239896783"><ele>40.0</ele><time>2026-05-03T14:47:15.999Z</time></trkpt><trkpt lat="44.670369198498484" lon="10.836895890752944"><ele>40.0</ele><time>2026-05-03T14:47:16.999Z</time></trkpt><trkpt lat="44.67045075049381" lon="10.836648616253294"><ele>40.0</ele><time>2026-05-03T14:47:17.999Z</time></trkpt><trkpt lat="44.67053251202798" lon="10.836407605386169"><ele>40.0</ele><time>2026-05-03T14:47:18.999Z</time></trkpt><trkpt lat="44.67061300208863" lon="10.836164319250775"><ele>40.0</ele><time>2026-05-03T14:47:19.999Z</time></trkpt><trkpt lat="44.67069213529858" lon="10.835920777713214"><ele>40.0</ele><time>2026-05-03T14:47:20.999Z</time></trkpt><trkpt lat="44.67077440120852" lon="10.835672228302931"><ele>40.0</ele><time>2026-05-03T14:47:21.999Z</time></trkpt><trkpt lat="44.6708590749139" lon="10.835423290036667"><ele>40.0</ele><time>2026-05-03T14:47:22.999Z</time></trkpt><trkpt lat="44.67094550656616" lon="10.835178464797437"><ele>40.0</ele><time>2026-05-03T14:47:23.999Z</time></trkpt><trkpt lat="44.67103775106313" lon="10.834930532440772"><ele>39.0</ele><time>2026-05-03T14:47:24.999Z</time></trkpt><trkpt lat="44.67112040287575" lon="10.834682978785859"><ele>38.0</ele><time>2026-05-03T14:47:25.999Z</time></trkpt><trkpt lat="44.67120825458547" lon="10.834431990630156"><ele>37.0</ele><time>2026-05-03T14:47:26.999Z</time></trkpt><trkpt lat="44.671294648305626" lon="10.834177409895332"><ele>37.0</ele><time>2026-05-03T14:47:27.999Z</time></trkpt><trkpt lat="44.67137919214727" lon="10.833925304554274"><ele>37.0</ele><time>2026-05-03T14:47:28.999Z</time></trkpt><trkpt lat="44.67146495624938" lon="10.833678293152776"><ele>37.0</ele><time>2026-05-03T14:47:29.999Z</time></trkpt><trkpt lat="44.67155194567404" lon="10.833430116443518"><ele>38.0</ele><time>2026-05-03T14:47:30.999Z</time></trkpt><trkpt lat="44.67163959697011" lon="10.83318117720923"><ele>39.0</ele><time>2026-05-03T14:47:31.999Z</time></trkpt><trkpt lat="44.671726153731996" lon="10.832939841068814"><ele>40.0</ele><time>2026-05-03T14:47:32.999Z</time></trkpt><trkpt lat="44.67181079971729" lon="10.832695759966027"><ele>39.66666666666667</ele><time>2026-05-03T14:47:33.999Z</time></trkpt><trkpt lat="44.67189380113351" lon="10.832453882437836"><ele>39.333333333333336</ele><time>2026-05-03T14:47:34.999Z</time></trkpt><trkpt lat="44.671976602408876" lon="10.8322112993311"><ele>39.0</ele><time>2026-05-03T14:47:35.999Z</time></trkpt><trkpt lat="44.67205970769462" lon="10.831972065580716"><ele>40.333333333333336</ele><time>2026-05-03T14:47:36.999Z</time></trkpt><trkpt lat="44.672144039527204" lon="10.831735925302"><ele>41.66666666666667</ele><time>2026-05-03T14:47:37.999Z</time></trkpt><trkpt lat="44.67222677167325" lon="10.831497815831039"><ele>43.0</ele><time>2026-05-03T14:47:39Z</time></trkpt><trkpt lat="44.672304911727856" lon="10.831261049685487"><ele>43.0</ele><time>2026-05-03T14:47:40Z</time></trkpt><trkpt lat="44.67238871237573" lon="10.83102349528568"><ele>43.0</ele><time>2026-05-03T14:47:41Z</time></trkpt><trkpt lat="44.67247610276639" lon="10.83079221838697"><ele>43.0</ele><time>2026-05-03T14:47:42Z</time></trkpt><trkpt lat="44.67255237606122" lon="10.830550966507007"><ele>43.0</ele><time>2026-05-03T14:47:43Z</time></trkpt><trkpt lat="44.67263132161146" lon="10.830317003589782"><ele>43.0</ele><time>2026-05-03T14:47:44Z</time></trkpt><trkpt lat="44.672717867135205" lon="10.830084593077382"><ele>43.0</ele><time>2026-05-03T14:47:45Z</time></trkpt><trkpt lat="44.672800369078345" lon="10.829843462839884"><ele>42.66666666666667</ele><time>2026-05-03T14:47:46Z</time></trkpt><trkpt lat="44.67288040059444" lon="10.829602573006115"><ele>42.333333333333336</ele><time>2026-05-03T14:47:47Z</time></trkpt><trkpt lat="44.67296645375382" lon="10.829360662712162"><ele>42.0</ele><time>2026-05-03T14:47:48Z</time></trkpt><trkpt lat="44.67305302732897" lon="10.829121137891715"><ele>42.666666666666664</ele><time>2026-05-03T14:47:49Z</time></trkpt><trkpt lat="44.67313235740574" lon="10.82887508800668"><ele>43.33333333333333</ele><time>2026-05-03T14:47:50Z</time></trkpt><trkpt lat="44.673214676902234" lon="10.828631076904891"><ele>44.0</ele><time>2026-05-03T14:47:51Z</time></trkpt><trkpt lat="44.673302508587305" lon="10.828384201224072"><ele>44.0</ele><time>2026-05-03T14:47:52Z</time></trkpt><trkpt lat="44.673386234236034" lon="10.828139571098978"><ele>44.0</ele><time>2026-05-03T14:47:53Z</time></trkpt><trkpt lat="44.67347008924823" lon="10.827892828278186"><ele>44.0</ele><time>2026-05-03T14:47:54Z</time></trkpt><trkpt lat="44.67355801533909" lon="10.827644867461386"><ele>44.0</ele><time>2026-05-03T14:47:55Z</time></trkpt><trkpt lat="44.673640071670455" lon="10.827393385220297"><ele>44.0</ele><time>2026-05-03T14:47:56Z</time></trkpt><trkpt lat="44.67371709091072" lon="10.827128797968136"><ele>44.0</ele><time>2026-05-03T14:47:57Z</time></trkpt><trkpt lat="44.6738067617751" lon="10.826869255253683"><ele>44.0</ele><time>2026-05-03T14:47:58Z</time></trkpt><trkpt lat="44.6738951712116" lon="10.82661953469992"><ele>44.0</ele><time>2026-05-03T14:47:59Z</time></trkpt><trkpt lat="44.67397892909733" lon="10.826370969941776"><ele>44.0</ele><time>2026-05-03T14:48:00Z</time></trkpt><trkpt lat="44.674065416360584" lon="10.826123384072277"><ele>43.666666666666664</ele><time>2026-05-03T14:48:01Z</time></trkpt><trkpt lat="44.67415105970275" lon="10.825881641195334"><ele>43.333333333333336</ele><time>2026-05-03T14:48:02Z</time></trkpt><trkpt lat="44.67423644456152" lon="10.825636515632505"><ele>43.0</ele><time>2026-05-03T14:48:03Z</time></trkpt><trkpt lat="44.67432275914016" lon="10.825389604279481"><ele>43.0</ele><time>2026-05-03T14:48:04Z</time></trkpt><trkpt lat="44.674405175763546" lon="10.825147864765658"><ele>43.0</ele><time>2026-05-03T14:48:05Z</time></trkpt><trkpt lat="44.67448682388535" lon="10.824911815540007"><ele>43.0</ele><time>2026-05-03T14:48:06Z</time></trkpt><trkpt lat="44.67456516521191" lon="10.824671962481064"><ele>43.0</ele><time>2026-05-03T14:48:07Z</time></trkpt><trkpt lat="44.67464526092583" lon="10.824437221529179"><ele>43.0</ele><time>2026-05-03T14:48:08Z</time></trkpt><trkpt lat="44.67472400438677" lon="10.824200109988265"><ele>43.0</ele><time>2026-05-03T14:48:09Z</time></trkpt><trkpt lat="44.67480334133288" lon="10.823959369381301"><ele>42.66666666666667</ele><time>2026-05-03T14:48:10Z</time></trkpt><trkpt lat="44.67488529252536" lon="10.823714420336819"><ele>42.333333333333336</ele><time>2026-05-03T14:48:11Z</time></trkpt><trkpt lat="44.67496787537027" lon="10.823463290018818"><ele>42.0</ele><time>2026-05-03T14:48:12Z</time></trkpt><trkpt lat="44.67505362333436" lon="10.823205179544106"><ele>42.0</ele><time>2026-05-03T14:48:13Z</time></trkpt><trkpt lat="44.675142124267886" lon="10.822941432621136"><ele>42.0</ele><time>2026-05-03T14:48:14Z</time></trkpt><trkpt lat="44.67523418837698" lon="10.82266962216538"><ele>42.0</ele><time>2026-05-03T14:48:15Z</time></trkpt><trkpt lat="44.67532829738961" lon="10.822394591698046"><ele>42.0</ele><time>2026-05-03T14:48:16Z</time></trkpt><trkpt lat="44.67542232098735" lon="10.822117416463593"><ele>42.0</ele><time>2026-05-03T14:48:17Z</time></trkpt><trkpt lat="44.67551885645952" lon="10.821839703238691"><ele>42.0</ele><time>2026-05-03T14:48:18Z</time></trkpt><trkpt lat="44.67561677656493" lon="10.821562008710275"><ele>41.666666666666664</ele><time>2026-05-03T14:48:19Z</time></trkpt><trkpt lat="44.67571526842321" lon="10.821282130511202"><ele>41.33333333333333</ele><time>2026-05-03T14:48:20Z</time></trkpt><trkpt lat="44.67581220908043" lon="10.820999688607543"><ele>41.0</ele><time>2026-05-03T14:48:21Z</time></trkpt><trkpt lat="44.67591151750201" lon="10.82071922962324"><ele>41.0</ele><time>2026-05-03T14:48:22Z</time></trkpt><trkpt lat="44.676016826270235" lon="10.82044487994468"><ele>41.0</ele><time>2026-05-03T14:48:23Z</time></trkpt><trkpt lat="44.67612498319444" lon="10.820167356861981"><ele>41.0</ele><time>2026-05-03T14:48:24Z</time></trkpt><trkpt lat="44.67623031713442" lon="10.819885296715169"><ele>42.0</ele><time>2026-05-03T14:48:25Z</time></trkpt><trkpt lat="44.67633359654807" lon="10.819600413653404"><ele>43.0</ele><time>2026-05-03T14:48:26Z</time></trkpt><trkpt lat="44.6764336810069" lon="10.819317012853547"><ele>43.0</ele><time>2026-05-03T14:48:27Z</time></trkpt><trkpt lat="44.676533598739226" lon="10.819032233835209"><ele>43.0</ele><time>2026-05-03T14:48:28Z</time></trkpt><trkpt lat="44.67663275530035" lon="10.81874552831407"><ele>43.5</ele><time>2026-05-03T14:48:29Z</time></trkpt><trkpt lat="44.67673064119177" lon="10.818461657607108"><ele>44.0</ele><time>2026-05-03T14:48:30Z</time></trkpt><trkpt lat="44.676831619482186" lon="10.818172753409431"><ele>44.0</ele><time>2026-05-03T14:48:31Z</time></trkpt><trkpt lat="44.67693208792059" lon="10.817883874403366"><ele>44.0</ele><time>2026-05-03T14:48:32Z</time></trkpt><trkpt lat="44.67703186782898" lon="10.81759389447815"><ele>42.5</ele><time>2026-05-03T14:48:33Z</time></trkpt><trkpt lat="44.67713207199131" lon="10.817304508849507"><ele>41.0</ele><time>2026-05-03T14:48:34Z</time></trkpt><trkpt lat="44.677233588376076" lon="10.817009555881725"><ele>41.0</ele><time>2026-05-03T14:48:35Z</time></trkpt><trkpt lat="44.67733562118815" lon="10.816716336142067"><ele>41.0</ele><time>2026-05-03T14:48:36Z</time></trkpt><trkpt lat="44.677437432209445" lon="10.816420829145795"><ele>41.0</ele><time>2026-05-03T14:48:37Z</time></trkpt><trkpt lat="44.67753833565096" lon="10.81612612463948"><ele>41.0</ele><time>2026-05-03T14:48:38Z</time></trkpt><trkpt lat="44.67764143902504" lon="10.815833152953696"><ele>41.0</ele><time>2026-05-03T14:48:39Z</time></trkpt><trkpt lat="44.67774414964178" lon="10.815537407402882"><ele>41.0</ele><time>2026-05-03T14:48:40Z</time></trkpt><trkpt lat="44.67784656009735" lon="10.815241371382042"><ele>40.5</ele><time>2026-05-03T14:48:41Z</time></trkpt><trkpt lat="44.67794719489203" lon="10.814944459111574"><ele>40.0</ele><time>2026-05-03T14:48:42Z</time></trkpt><trkpt lat="44.678047909522256" lon="10.8146524398354"><ele>40.0</ele><time>2026-05-03T14:48:43Z</time></trkpt><trkpt lat="44.67814919284232" lon="10.814358378412509"><ele>40.0</ele><time>2026-05-03T14:48:44Z</time></trkpt><trkpt lat="44.67825229103532" lon="10.814069246544381"><ele>40.0</ele><time>2026-05-03T14:48:45Z</time></trkpt><trkpt lat="44.67835366181702" lon="10.813779705448798"><ele>40.0</ele><time>2026-05-03T14:48:46Z</time></trkpt><trkpt lat="44.678454797163035" lon="10.813490695284194"><ele>40.0</ele><time>2026-05-03T14:48:47Z</time></trkpt><trkpt lat="44.67855236193041" lon="10.813201241076946"><ele>40.0</ele><time>2026-05-03T14:48:48Z</time></trkpt><trkpt lat="44.67864782841816" lon="10.812912081278618"><ele>40.5</ele><time>2026-05-03T14:48:49Z</time></trkpt><trkpt lat="44.67874419943531" lon="10.812621374720521"><ele>41.0</ele><time>2026-05-03T14:48:50Z</time></trkpt><trkpt lat="44.67884180093032" lon="10.81234072237808"><ele>41.0</ele><time>2026-05-03T14:48:51Z</time></trkpt><trkpt lat="44.67894289365563" lon="10.812050100782644"><ele>41.0</ele><time>2026-05-03T14:48:52Z</time></trkpt><trkpt lat="44.679044183350726" lon="10.811767982429679"><ele>42.0</ele><time>2026-05-03T14:48:53Z</time></trkpt><trkpt lat="44.679146487657704" lon="10.811486387279508"><ele>43.0</ele><time>2026-05-03T14:48:54Z</time></trkpt><trkpt lat="44.67924708406691" lon="10.811196853366296"><ele>42.5</ele><time>2026-05-03T14:48:55Z</time></trkpt><trkpt lat="44.67934773401147" lon="10.810911343959086"><ele>42.0</ele><time>2026-05-03T14:48:56Z</time></trkpt><trkpt lat="44.67944969614303" lon="10.810621829317613"><ele>42.0</ele><time>2026-05-03T14:48:57Z</time></trkpt><trkpt lat="44.6795520200569" lon="10.810328213392056"><ele>42.0</ele><time>2026-05-03T14:48:58Z</time></trkpt><trkpt lat="44.679656105725485" lon="10.810032264137195"><ele>43.5</ele><time>2026-05-03T14:48:59Z</time></trkpt><trkpt lat="44.6797613029265" lon="10.809725078328151"><ele>45.0</ele><time>2026-05-03T14:49:00Z</time></trkpt><trkpt lat="44.67987014649939" lon="10.809413581500381"><ele>44.5</ele><time>2026-05-03T14:49:01Z</time></trkpt><trkpt lat="44.679980280575364" lon="10.809098853924397"><ele>44.0</ele><time>2026-05-03T14:49:02Z</time></trkpt><trkpt lat="44.680089488910724" lon="10.808784736737893"><ele>44.0</ele><time>2026-05-03T14:49:03Z</time></trkpt><trkpt lat="44.680199187310016" lon="10.808465477966955"><ele>44.0</ele><time>2026-05-03T14:49:04Z</time></trkpt><trkpt lat="44.68030564838359" lon="10.808142380601332"><ele>43.5</ele><time>2026-05-03T14:49:05Z</time></trkpt><trkpt lat="44.680406573647794" lon="10.80781333775073"><ele>43.0</ele><time>2026-05-03T14:49:06Z</time></trkpt><trkpt lat="44.68050982961667" lon="10.807487878620474"><ele>42.0</ele><time>2026-05-03T14:49:07Z</time></trkpt><trkpt lat="44.68061819403918" lon="10.807168341785589"><ele>41.0</ele><time>2026-05-03T14:49:08Z</time></trkpt><trkpt lat="44.68072885725334" lon="10.806852065974201"><ele>41.0</ele><time>2026-05-03T14:49:09Z</time></trkpt><trkpt lat="44.680837713227234" lon="10.806537291085252"><ele>41.0</ele><time>2026-05-03T14:49:10Z</time></trkpt><trkpt lat="44.68094659040881" lon="10.806224976130586"><ele>42.0</ele><time>2026-05-03T14:49:11Z</time></trkpt><trkpt lat="44.681054792071464" lon="10.805917014438034"><ele>43.0</ele><time>2026-05-03T14:49:12Z</time></trkpt><trkpt lat="44.681160130391426" lon="10.805610362543828"><ele>43.5</ele><time>2026-05-03T14:49:13Z</time></trkpt><trkpt lat="44.68126335440288" lon="10.805307544634992"><ele>44.0</ele><time>2026-05-03T14:49:14Z</time></trkpt><trkpt lat="44.68136696922382" lon="10.805008194484897"><ele>43.0</ele><time>2026-05-03T14:49:15Z</time></trkpt><trkpt lat="44.681470220994534" lon="10.804712114077969"><ele>42.0</ele><time>2026-05-03T14:49:16Z</time></trkpt><trkpt lat="44.68157258428997" lon="10.804415599358139"><ele>42.0</ele><time>2026-05-03T14:49:17Z</time></trkpt><trkpt lat="44.68167599604551" lon="10.80411825716531"><ele>42.0</ele><time>2026-05-03T14:49:18Z</time></trkpt><trkpt lat="44.68177885198625" lon="10.803816738057604"><ele>42.0</ele><time>2026-05-03T14:49:19Z</time></trkpt><trkpt lat="44.68187973838199" lon="10.803505263539185"><ele>42.0</ele><time>2026-05-03T14:49:20Z</time></trkpt><trkpt lat="44.681979940878726" lon="10.803176828107121"><ele>42.0</ele><time>2026-05-03T14:49:21Z</time></trkpt><trkpt lat="44.682087404332535" lon="10.802841480993756"><ele>42.0</ele><time>2026-05-03T14:49:22Z</time></trkpt><trkpt lat="44.682201702152035" lon="10.802498770142966"><ele>42.0</ele><time>2026-05-03T14:49:23Z</time></trkpt><trkpt lat="44.682319309929476" lon="10.802152521182478"><ele>42.0</ele><time>2026-05-03T14:49:24Z</time></trkpt><trkpt lat="44.68243820793248" lon="10.801810769858207"><ele>42.0</ele><time>2026-05-03T14:49:25Z</time></trkpt><trkpt lat="44.68255748409773" lon="10.801471552498205"><ele>42.0</ele><time>2026-05-03T14:49:26Z</time></trkpt><trkpt lat="44.682676288668006" lon="10.80113132052288"><ele>42.0</ele><time>2026-05-03T14:49:27Z</time></trkpt><trkpt lat="44.68279420363888" lon="10.800797791676185"><ele>42.0</ele><time>2026-05-03T14:49:27.999Z</time></trkpt><trkpt lat="44.68290665991319" lon="10.800475938985352"><ele>43.5</ele><time>2026-05-03T14:49:28.999Z</time></trkpt><trkpt lat="44.68301627663568" lon="10.800156826670138"><ele>45.0</ele><time>2026-05-03T14:49:29.999Z</time></trkpt><trkpt lat="44.68312316904436" lon="10.799848692095805"><ele>45.0</ele><time>2026-05-03T14:49:30.999Z</time></trkpt><trkpt lat="44.68322841266497" lon="10.799547635966919"><ele>45.0</ele><time>2026-05-03T14:49:31.999Z</time></trkpt><trkpt lat="44.68332793340198" lon="10.799259629366034"><ele>44.333333333333336</ele><time>2026-05-03T14:49:32.999Z</time></trkpt><trkpt lat="44.68342651299461" lon="10.798979572742015"><ele>43.66666666666667</ele><time>2026-05-03T14:49:33.999Z</time></trkpt><trkpt lat="44.68352376223217" lon="10.798699077489387"><ele>43.0</ele><time>2026-05-03T14:49:34.999Z</time></trkpt><trkpt lat="44.68362045173556" lon="10.798417513737036"><ele>42.0</ele><time>2026-05-03T14:49:35.999Z</time></trkpt><trkpt lat="44.683721063349374" lon="10.798133003037178"><ele>41.0</ele><time>2026-05-03T14:49:36.999Z</time></trkpt><trkpt lat="44.68382304450697" lon="10.79784624249593"><ele>41.5</ele><time>2026-05-03T14:49:37.999Z</time></trkpt><trkpt lat="44.683928101289524" lon="10.797553425683873"><ele>42.0</ele><time>2026-05-03T14:49:38.999Z</time></trkpt><trkpt lat="44.684035644280925" lon="10.79726340602116"><ele>42.0</ele><time>2026-05-03T14:49:39.999Z</time></trkpt><trkpt lat="44.684142982289394" lon="10.796971056738753"><ele>42.0</ele><time>2026-05-03T14:49:40.999Z</time></trkpt><trkpt lat="44.68424943252147" lon="10.796676042874566"><ele>42.0</ele><time>2026-05-03T14:49:41.999Z</time></trkpt><trkpt lat="44.68435544424686" lon="10.796379873270343"><ele>42.0</ele><time>2026-05-03T14:49:42.999Z</time></trkpt><trkpt lat="44.68446216536474" lon="10.796081370698225"><ele>41.5</ele><time>2026-05-03T14:49:44Z</time></trkpt><trkpt lat="44.68456879493076" lon="10.795781161381612"><ele>41.0</ele><time>2026-05-03T14:49:45Z</time></trkpt><trkpt lat="44.684672929534074" lon="10.795476370597349"><ele>41.0</ele><time>2026-05-03T14:49:46Z</time></trkpt><trkpt lat="44.68478301243603" lon="10.79516863839249"><ele>41.0</ele><time>2026-05-03T14:49:47Z</time></trkpt><trkpt lat="44.68489329484471" lon="10.794853178578688"><ele>41.0</ele><time>2026-05-03T14:49:48Z</time></trkpt><trkpt lat="44.68500151569531" lon="10.794538906972129"><ele>41.0</ele><time>2026-05-03T14:49:49Z</time></trkpt><trkpt lat="44.68511266147391" lon="10.794218326987943"><ele>41.0</ele><time>2026-05-03T14:49:50Z</time></trkpt><trkpt lat="44.685225164727356" lon="10.79389414368061"><ele>41.0</ele><time>2026-05-03T14:49:51Z</time></trkpt><trkpt lat="44.68533873751129" lon="10.793569206795103"><ele>40.0</ele><time>2026-05-03T14:49:52Z</time></trkpt><trkpt lat="44.685453121321565" lon="10.793241201665992"><ele>39.0</ele><time>2026-05-03T14:49:53Z</time></trkpt><trkpt lat="44.68556814145718" lon="10.792910384805374"><ele>39.5</ele><time>2026-05-03T14:49:54Z</time></trkpt><trkpt lat="44.68568372919429" lon="10.792578237012968"><ele>40.0</ele><time>2026-05-03T14:49:55Z</time></trkpt><trkpt lat="44.685799147602985" lon="10.792243831077672"><ele>40.0</ele><time>2026-05-03T14:49:56Z</time></trkpt><trkpt lat="44.685915185981465" lon="10.791907050520846"><ele>40.0</ele><time>2026-05-03T14:49:57Z</time></trkpt><trkpt lat="44.686032653904974" lon="10.791568918743172"><ele>39.5</ele><time>2026-05-03T14:49:58Z</time></trkpt><trkpt lat="44.686151758120616" lon="10.791230250624922"><ele>39.0</ele><time>2026-05-03T14:49:59Z</time></trkpt><trkpt lat="44.68627037974794" lon="10.790888802851335"><ele>40.5</ele><time>2026-05-03T14:50:00Z</time></trkpt><trkpt lat="44.6863891783105" lon="10.79054406514738"><ele>42.0</ele><time>2026-05-03T14:50:01Z</time></trkpt><trkpt lat="44.686508756200176" lon="10.790197510073645"><ele>42.0</ele><time>2026-05-03T14:50:02Z</time></trkpt><trkpt lat="44.686627922945625" lon="10.789853076688253"><ele>42.0</ele><time>2026-05-03T14:50:03Z</time></trkpt><trkpt lat="44.6867463155021" lon="10.789504800674987"><ele>42.5</ele><time>2026-05-03T14:50:04Z</time></trkpt><trkpt lat="44.686867086810295" lon="10.78915897155098"><ele>43.0</ele><time>2026-05-03T14:50:05Z</time></trkpt><trkpt lat="44.686989096304025" lon="10.788812642830434"><ele>42.0</ele><time>2026-05-03T14:50:06Z</time></trkpt><trkpt lat="44.68710997856128" lon="10.788467950805773"><ele>41.0</ele><time>2026-05-03T14:50:07Z</time></trkpt><trkpt lat="44.687227885952886" lon="10.788119928287886"><ele>41.0</ele><time>2026-05-03T14:50:08Z</time></trkpt><trkpt lat="44.68734820158641" lon="10.78777328170409"><ele>41.0</ele><time>2026-05-03T14:50:09Z</time></trkpt><trkpt lat="44.687468117574795" lon="10.787426795640277"><ele>41.0</ele><time>2026-05-03T14:50:10Z</time></trkpt><trkpt lat="44.68758813119114" lon="10.78708123603841"><ele>41.0</ele><time>2026-05-03T14:50:11Z</time></trkpt><trkpt lat="44.68770596843503" lon="10.786735860437897"><ele>40.5</ele><time>2026-05-03T14:50:12Z</time></trkpt><trkpt lat="44.687823452725766" lon="10.786387526127026"><ele>40.0</ele><time>2026-05-03T14:50:13Z</time></trkpt><trkpt lat="44.68794321332288" lon="10.786042186302122"><ele>40.5</ele><time>2026-05-03T14:50:14Z</time></trkpt><trkpt lat="44.68806410995148" lon="10.785698151509616"><ele>41.0</ele><time>2026-05-03T14:50:15Z</time></trkpt><trkpt lat="44.68819028044856" lon="10.785355083106047"><ele>41.5</ele><time>2026-05-03T14:50:16Z</time></trkpt><trkpt lat="44.68832406168251" lon="10.785019898092607"><ele>42.0</ele><time>2026-05-03T14:50:17Z</time></trkpt><trkpt lat="44.68845298814862" lon="10.784684051542444"><ele>42.5</ele><time>2026-05-03T14:50:18Z</time></trkpt><trkpt lat="44.68857594684182" lon="10.784340111038947"><ele>43.0</ele><time>2026-05-03T14:50:19Z</time></trkpt><trkpt lat="44.68869714764574" lon="10.783995991722856"><ele>43.0</ele><time>2026-05-03T14:50:20Z</time></trkpt><trkpt lat="44.68881799196849" lon="10.783652432091312"><ele>43.0</ele><time>2026-05-03T14:50:21Z</time></trkpt><trkpt lat="44.688937296536736" lon="10.78330664845298"><ele>43.0</ele><time>2026-05-03T14:50:22Z</time></trkpt><trkpt lat="44.68905495104667" lon="10.78296011859913"><ele>43.0</ele><time>2026-05-03T14:50:23Z</time></trkpt><trkpt lat="44.68917439040706" lon="10.782614687171387"><ele>42.0</ele><time>2026-05-03T14:50:24Z</time></trkpt><trkpt lat="44.689294099464156" lon="10.782272338941423"><ele>41.0</ele><time>2026-05-03T14:50:25Z</time></trkpt><trkpt lat="44.68941417321362" lon="10.781928941950445"><ele>42.0</ele><time>2026-05-03T14:50:26Z</time></trkpt><trkpt lat="44.689533789796" lon="10.78158504569897"><ele>43.0</ele><time>2026-05-03T14:50:27Z</time></trkpt><trkpt lat="44.68965204777469" lon="10.781241873446485"><ele>42.0</ele><time>2026-05-03T14:50:28Z</time></trkpt><trkpt lat="44.689769479123484" lon="10.780897011513726"><ele>41.0</ele><time>2026-05-03T14:50:29Z</time></trkpt><trkpt lat="44.689887646922884" lon="10.780552095366806"><ele>41.0</ele><time>2026-05-03T14:50:30Z</time></trkpt><trkpt lat="44.69000595825918" lon="10.780207825307686"><ele>41.0</ele><time>2026-05-03T14:50:31Z</time></trkpt><trkpt lat="44.69012588724993" lon="10.779861171383283"><ele>41.0</ele><time>2026-05-03T14:50:32Z</time></trkpt><trkpt lat="44.690245995912704" lon="10.779515007807223"><ele>41.0</ele><time>2026-05-03T14:50:33Z</time></trkpt><trkpt lat="44.6903676599472" lon="10.779168889995745"><ele>41.0</ele><time>2026-05-03T14:50:34Z</time></trkpt><trkpt lat="44.69048966137835" lon="10.77882026353308"><ele>41.0</ele><time>2026-05-03T14:50:35Z</time></trkpt><trkpt lat="44.69060963813595" lon="10.778467795372338"><ele>41.5</ele><time>2026-05-03T14:50:36Z</time></trkpt><trkpt lat="44.690731883674424" lon="10.77811560978952"><ele>42.0</ele><time>2026-05-03T14:50:37Z</time></trkpt><trkpt lat="44.69085593156755" lon="10.777763006275746"><ele>42.0</ele><time>2026-05-03T14:50:38Z</time></trkpt><trkpt lat="44.69098078769068" lon="10.77740764837758"><ele>42.0</ele><time>2026-05-03T14:50:39Z</time></trkpt><trkpt lat="44.69110540666665" lon="10.777051074846435"><ele>41.0</ele><time>2026-05-03T14:50:40Z</time></trkpt><trkpt lat="44.69123051330965" lon="10.776692249741062"><ele>40.0</ele><time>2026-05-03T14:50:41Z</time></trkpt><trkpt lat="44.69135459374985" lon="10.776335327118339"><ele>40.5</ele><time>2026-05-03T14:50:42Z</time></trkpt><trkpt lat="44.691478076752155" lon="10.775978172030758"><ele>41.0</ele><time>2026-05-03T14:50:43Z</time></trkpt><trkpt lat="44.6915982898161" lon="10.775627223666335"><ele>41.0</ele><time>2026-05-03T14:50:44Z</time></trkpt><trkpt lat="44.69170837582995" lon="10.775306250405603"><ele>41.0</ele><time>2026-05-03T14:50:45Z</time></trkpt><trkpt lat="44.6918114704161" lon="10.77500330579237"><ele>41.5</ele><time>2026-05-03T14:50:46Z</time></trkpt><trkpt lat="44.691911376803425" lon="10.774707636728929"><ele>42.0</ele><time>2026-05-03T14:50:47Z</time></trkpt><trkpt lat="44.69200511394469" lon="10.774420051372084"><ele>41.0</ele><time>2026-05-03T14:50:48Z</time></trkpt><trkpt lat="44.69209459887672" lon="10.774132177553122"><ele>40.0</ele><time>2026-05-03T14:50:49Z</time></trkpt><trkpt lat="44.69218624171349" lon="10.77383914301509"><ele>40.0</ele><time>2026-05-03T14:50:50Z</time></trkpt><trkpt lat="44.692288117915986" lon="10.773538514799396"><ele>40.0</ele><time>2026-05-03T14:50:51Z</time></trkpt><trkpt lat="44.69239588968693" lon="10.773239259833137"><ele>39.5</ele><time>2026-05-03T14:50:52Z</time></trkpt><trkpt lat="44.69250754957083" lon="10.77293484189402"><ele>39.0</ele><time>2026-05-03T14:50:53Z</time></trkpt><trkpt lat="44.69262454708446" lon="10.772627129489942"><ele>39.0</ele><time>2026-05-03T14:50:54Z</time></trkpt><trkpt lat="44.69274211655368" lon="10.77231572753992"><ele>39.0</ele><time>2026-05-03T14:50:55Z</time></trkpt><trkpt lat="44.69285650275402" lon="10.77200306025924"><ele>38.5</ele><time>2026-05-03T14:50:56Z</time></trkpt><trkpt lat="44.692969475952275" lon="10.771685414146443"><ele>38.0</ele><time>2026-05-03T14:50:57Z</time></trkpt><trkpt lat="44.69307989047063" lon="10.771367998643894"><ele>38.0</ele><time>2026-05-03T14:50:58Z</time></trkpt><trkpt lat="44.69319062574886" lon="10.7710505942008"><ele>38.0</ele><time>2026-05-03T14:50:59Z</time></trkpt><trkpt lat="44.69330078596336" lon="10.770732963196222"><ele>37.5</ele><time>2026-05-03T14:51:00Z</time></trkpt><trkpt lat="44.69341168590131" lon="10.770411760980558"><ele>37.0</ele><time>2026-05-03T14:51:01Z</time></trkpt><trkpt lat="44.69352374036077" lon="10.770090569636633"><ele>38.5</ele><time>2026-05-03T14:51:02Z</time></trkpt><trkpt lat="44.693635034688285" lon="10.769766713762891"><ele>40.0</ele><time>2026-05-03T14:51:03Z</time></trkpt><trkpt lat="44.69374626166222" lon="10.769442890094922"><ele>40.0</ele><time>2026-05-03T14:51:04Z</time></trkpt><trkpt lat="44.693856864331615" lon="10.76911968893246"><ele>40.0</ele><time>2026-05-03T14:51:05Z</time></trkpt><trkpt lat="44.693966797097545" lon="10.768798378764808"><ele>40.5</ele><time>2026-05-03T14:51:06Z</time></trkpt><trkpt lat="44.69407568115339" lon="10.768479757405771"><ele>41.0</ele><time>2026-05-03T14:51:07Z</time></trkpt><trkpt lat="44.694182814652166" lon="10.768165794068937"><ele>41.0</ele><time>2026-05-03T14:51:08Z</time></trkpt><trkpt lat="44.694285031246075" lon="10.767860569703078"><ele>41.0</ele><time>2026-05-03T14:51:09Z</time></trkpt><trkpt lat="44.694385198790954" lon="10.76756111209957"><ele>40.5</ele><time>2026-05-03T14:51:10Z</time></trkpt><trkpt lat="44.69448580941862" lon="10.767262822896186"><ele>40.0</ele><time>2026-05-03T14:51:11Z</time></trkpt><trkpt lat="44.69458671655344" lon="10.766963858227715"><ele>40.5</ele><time>2026-05-03T14:51:12Z</time></trkpt><trkpt lat="44.694686373105576" lon="10.76666406515754"><ele>41.0</ele><time>2026-05-03T14:51:13Z</time></trkpt><trkpt lat="44.6947860597614" lon="10.766360067546204"><ele>41.0</ele><time>2026-05-03T14:51:14Z</time></trkpt><trkpt lat="44.69488824788882" lon="10.766053672472548"><ele>41.0</ele><time>2026-05-03T14:51:15Z</time></trkpt><trkpt lat="44.69499085290633" lon="10.76574795509374"><ele>40.5</ele><time>2026-05-03T14:51:16Z</time></trkpt><trkpt lat="44.6950945851351" lon="10.765442297086071"><ele>40.0</ele><time>2026-05-03T14:51:17Z</time></trkpt><trkpt lat="44.69519997157232" lon="10.765135553794108"><ele>40.0</ele><time>2026-05-03T14:51:18Z</time></trkpt><trkpt lat="44.695307837035934" lon="10.76482843549129"><ele>40.0</ele><time>2026-05-03T14:51:19Z</time></trkpt><trkpt lat="44.69541783389758" lon="10.764518556260132"><ele>40.0</ele><time>2026-05-03T14:51:20Z</time></trkpt><trkpt lat="44.695531885022874" lon="10.764208304239448"><ele>40.0</ele><time>2026-05-03T14:51:21Z</time></trkpt><trkpt lat="44.69564747184412" lon="10.7638986816555"><ele>40.0</ele><time>2026-05-03T14:51:22Z</time></trkpt><trkpt lat="44.6957648763019" lon="10.763584143712169"><ele>40.0</ele><time>2026-05-03T14:51:23Z</time></trkpt><trkpt lat="44.69588025358226" lon="10.763266514187327"><ele>40.5</ele><time>2026-05-03T14:51:23.999Z</time></trkpt><trkpt lat="44.69599502236463" lon="10.762945936269606"><ele>41.0</ele><time>2026-05-03T14:51:24.999Z</time></trkpt><trkpt lat="44.696108640059094" lon="10.762623577727958"><ele>41.0</ele><time>2026-05-03T14:51:25.999Z</time></trkpt><trkpt lat="44.69622228610565" lon="10.762300280884007"><ele>41.0</ele><time>2026-05-03T14:51:26.999Z</time></trkpt><trkpt lat="44.696336042347454" lon="10.761977053864024"><ele>40.0</ele><time>2026-05-03T14:51:27.999Z</time></trkpt><trkpt lat="44.69644920648144" lon="10.761653279851634"><ele>39.0</ele><time>2026-05-03T14:51:28.999Z</time></trkpt><trkpt lat="44.69656077520266" lon="10.761332131235173"><ele>39.5</ele><time>2026-05-03T14:51:29.999Z</time></trkpt><trkpt lat="44.69667210896894" lon="10.761009299733962"><ele>40.0</ele><time>2026-05-03T14:51:30.999Z</time></trkpt><trkpt lat="44.69678126598185" lon="10.760689443255925"><ele>40.0</ele><time>2026-05-03T14:51:31.999Z</time></trkpt><trkpt lat="44.69689149598525" lon="10.760369271254643"><ele>40.0</ele><time>2026-05-03T14:51:32.999Z</time></trkpt><trkpt lat="44.697003073744526" lon="10.760050051173886"><ele>40.5</ele><time>2026-05-03T14:51:33.999Z</time></trkpt><trkpt lat="44.69711520079533" lon="10.759730892181608"><ele>41.0</ele><time>2026-05-03T14:51:34.999Z</time></trkpt><trkpt lat="44.69722737042209" lon="10.759412013558553"><ele>40.0</ele><time>2026-05-03T14:51:35.999Z</time></trkpt><trkpt lat="44.697339799007516" lon="10.75909260720044"><ele>39.0</ele><time>2026-05-03T14:51:36.999Z</time></trkpt><trkpt lat="44.69744997166409" lon="10.758773531096908"><ele>38.5</ele><time>2026-05-03T14:51:37.999Z</time></trkpt><trkpt lat="44.69755851514189" lon="10.758455219906061"><ele>38.0</ele><time>2026-05-03T14:51:38.999Z</time></trkpt><trkpt lat="44.69766431837516" lon="10.758141903919874"><ele>38.0</ele><time>2026-05-03T14:51:39.999Z</time></trkpt><trkpt lat="44.697769528442855" lon="10.757832705184807"><ele>38.0</ele><time>2026-05-03T14:51:40.999Z</time></trkpt><trkpt lat="44.69787424256451" lon="10.75752669553094"><ele>37.5</ele><time>2026-05-03T14:51:41.999Z</time></trkpt><trkpt lat="44.697977124118225" lon="10.75722965334856"><ele>37.0</ele><time>2026-05-03T14:51:42.999Z</time></trkpt><trkpt lat="44.69807756064562" lon="10.756942858920793"><ele>37.333333333333336</ele><time>2026-05-03T14:51:43.999Z</time></trkpt><trkpt lat="44.698177995250916" lon="10.756655464195449"><ele>37.666666666666664</ele><time>2026-05-03T14:51:44.999Z</time></trkpt><trkpt lat="44.69827451136541" lon="10.756376273660276"><ele>38.0</ele><time>2026-05-03T14:51:45.999Z</time></trkpt><trkpt lat="44.69836550575176" lon="10.756112578160694"><ele>38.0</ele><time>2026-05-03T14:51:46.999Z</time></trkpt><trkpt lat="44.69845366182574" lon="10.755857953966874"><ele>38.0</ele><time>2026-05-03T14:51:47.999Z</time></trkpt><trkpt lat="44.69855706512752" lon="10.755525236455881"><ele>38.33333333333333</ele><time>2026-05-03T14:51:48.999Z</time></trkpt><trkpt lat="44.69865350254294" lon="10.7552427147691"><ele>38.666666666666664</ele><time>2026-05-03T14:51:50Z</time></trkpt><trkpt lat="44.69875292571472" lon="10.754957869828244"><ele>39.0</ele><time>2026-05-03T14:51:51Z</time></trkpt><trkpt lat="44.69884800171818" lon="10.754659745713813"><ele>39.0</ele><time>2026-05-03T14:51:52Z</time></trkpt><trkpt lat="44.69894109152936" lon="10.754366307671"><ele>39.0</ele><time>2026-05-03T14:51:53Z</time></trkpt><trkpt lat="44.69903859001228" lon="10.75407139019475"><ele>39.0</ele><time>2026-05-03T14:51:54Z</time></trkpt><trkpt lat="44.69914111076256" lon="10.753787922216192"><ele>39.0</ele><time>2026-05-03T14:51:55Z</time></trkpt><trkpt lat="44.6992368883499" lon="10.753511199664562"><ele>39.0</ele><time>2026-05-03T14:51:56Z</time></trkpt><trkpt lat="44.69932831341146" lon="10.753259142438235"><ele>39.0</ele><time>2026-05-03T14:51:57Z</time></trkpt><trkpt lat="44.69941776110135" lon="10.753025159251596"><ele>39.0</ele><time>2026-05-03T14:51:58Z</time></trkpt><trkpt lat="44.69950215658495" lon="10.75282009621738"><ele>39.0</ele><time>2026-05-03T14:51:59Z</time></trkpt><trkpt lat="44.699581493702425" lon="10.752611098261156"><ele>39.0</ele><time>2026-05-03T14:52:00Z</time></trkpt><trkpt lat="44.69966176231092" lon="10.75241211189172"><ele>39.0</ele><time>2026-05-03T14:52:01Z</time></trkpt><trkpt lat="44.69974295176641" lon="10.752219938325403"><ele>39.0</ele><time>2026-05-03T14:52:02Z</time></trkpt><trkpt lat="44.69982089319138" lon="10.752006835455502"><ele>39.0</ele><time>2026-05-03T14:52:03Z</time></trkpt><trkpt lat="44.699896196876495" lon="10.75177803318672"><ele>39.0</ele><time>2026-05-03T14:52:04Z</time></trkpt><trkpt lat="44.69997835187273" lon="10.751535419965462"><ele>39.0</ele><time>2026-05-03T14:52:05Z</time></trkpt><trkpt lat="44.700059413764784" lon="10.751294265485654"><ele>39.0</ele><time>2026-05-03T14:52:06Z</time></trkpt><trkpt lat="44.70014481122548" lon="10.751047635022122"><ele>39.0</ele><time>2026-05-03T14:52:07Z</time></trkpt><trkpt lat="44.70023149940787" lon="10.75079715067212"><ele>39.0</ele><time>2026-05-03T14:52:08Z</time></trkpt><trkpt lat="44.70032098482701" lon="10.750535913124533"><ele>38.666666666666664</ele><time>2026-05-03T14:52:09Z</time></trkpt><trkpt lat="44.700409514898766" lon="10.750275964961125"><ele>38.33333333333333</ele><time>2026-05-03T14:52:10Z</time></trkpt><trkpt lat="44.700500746577596" lon="10.75002682570193"><ele>38.0</ele><time>2026-05-03T14:52:11Z</time></trkpt><trkpt lat="44.7005841834907" lon="10.749764996761163"><ele>38.0</ele><time>2026-05-03T14:52:12Z</time></trkpt><trkpt lat="44.70067185445405" lon="10.749509123236633"><ele>38.0</ele><time>2026-05-03T14:52:13Z</time></trkpt><trkpt lat="44.70076385583134" lon="10.74925017703099"><ele>38.0</ele><time>2026-05-03T14:52:14Z</time></trkpt><trkpt lat="44.70085175799293" lon="10.748990621770902"><ele>38.0</ele><time>2026-05-03T14:52:15Z</time></trkpt><trkpt lat="44.70094128521352" lon="10.748739076023899"><ele>38.0</ele><time>2026-05-03T14:52:16Z</time></trkpt><trkpt lat="44.701030953206164" lon="10.748488201030325"><ele>38.0</ele><time>2026-05-03T14:52:17Z</time></trkpt><trkpt lat="44.70111988619535" lon="10.748234181496448"><ele>38.33333333333333</ele><time>2026-05-03T14:52:18Z</time></trkpt><trkpt lat="44.701202710541345" lon="10.747984838204946"><ele>38.666666666666664</ele><time>2026-05-03T14:52:19Z</time></trkpt><trkpt lat="44.7012870494981" lon="10.747732522480195"><ele>39.0</ele><time>2026-05-03T14:52:20Z</time></trkpt><trkpt lat="44.701379069710235" lon="10.747470490354027"><ele>39.0</ele><time>2026-05-03T14:52:21Z</time></trkpt><trkpt lat="44.701476015883344" lon="10.747218712543617"><ele>39.0</ele><time>2026-05-03T14:52:22Z</time></trkpt><trkpt lat="44.701562799347435" lon="10.746967606857897"><ele>39.0</ele><time>2026-05-03T14:52:23Z</time></trkpt><trkpt lat="44.7016408090119" lon="10.746726167983159"><ele>39.0</ele><time>2026-05-03T14:52:24Z</time></trkpt><trkpt lat="44.70172771739984" lon="10.74648593671288"><ele>39.0</ele><time>2026-05-03T14:52:25Z</time></trkpt><trkpt lat="44.7018108779045" lon="10.74624220021627"><ele>39.0</ele><time>2026-05-03T14:52:26Z</time></trkpt><trkpt lat="44.701895190769804" lon="10.745998702115358"><ele>38.666666666666664</ele><time>2026-05-03T14:52:27Z</time></trkpt><trkpt lat="44.7019778596441" lon="10.745756984042973"><ele>38.33333333333333</ele><time>2026-05-03T14:52:28Z</time></trkpt><trkpt lat="44.70206353075491" lon="10.745524248978048"><ele>38.0</ele><time>2026-05-03T14:52:29Z</time></trkpt><trkpt lat="44.7021436075897" lon="10.745283117479476"><ele>39.33333333333333</ele><time>2026-05-03T14:52:30Z</time></trkpt><trkpt lat="44.7022238187803" lon="10.745043489814465"><ele>40.666666666666664</ele><time>2026-05-03T14:52:31Z</time></trkpt><trkpt lat="44.70230843107001" lon="10.744812516118976"><ele>42.0</ele><time>2026-05-03T14:52:32Z</time></trkpt><trkpt lat="44.70239040582782" lon="10.74457428565014"><ele>41.666666666666664</ele><time>2026-05-03T14:52:33Z</time></trkpt><trkpt lat="44.70246922146237" lon="10.744334426510017"><ele>41.33333333333333</ele><time>2026-05-03T14:52:34Z</time></trkpt><trkpt lat="44.70254476131168" lon="10.74410107269152"><ele>41.0</ele><time>2026-05-03T14:52:35Z</time></trkpt><trkpt lat="44.702625921921516" lon="10.743867034182868"><ele>41.0</ele><time>2026-05-03T14:52:36Z</time></trkpt><trkpt lat="44.70270898788086" lon="10.743639868063124"><ele>41.0</ele><time>2026-05-03T14:52:37Z</time></trkpt><trkpt lat="44.70279134031199" lon="10.743412485629902"><ele>41.0</ele><time>2026-05-03T14:52:38Z</time></trkpt><trkpt lat="44.70287157384476" lon="10.74317550098335"><ele>40.33333333333333</ele><time>2026-05-03T14:52:39Z</time></trkpt><trkpt lat="44.70294629851473" lon="10.74294300796252"><ele>39.666666666666664</ele><time>2026-05-03T14:52:40Z</time></trkpt><trkpt lat="44.7030271736088" lon="10.742719850533271"><ele>39.0</ele><time>2026-05-03T14:52:41Z</time></trkpt><trkpt lat="44.70310628158689" lon="10.742492528727272"><ele>39.0</ele><time>2026-05-03T14:52:42Z</time></trkpt><trkpt lat="44.70318307024023" lon="10.742264448321476"><ele>39.0</ele><time>2026-05-03T14:52:43Z</time></trkpt><trkpt lat="44.70326266062514" lon="10.742035901682215"><ele>39.0</ele><time>2026-05-03T14:52:44Z</time></trkpt><trkpt lat="44.70334167605024" lon="10.741808762683826"><ele>38.666666666666664</ele><time>2026-05-03T14:52:45Z</time></trkpt><trkpt lat="44.70342412315508" lon="10.741578327454322"><ele>38.33333333333333</ele><time>2026-05-03T14:52:46Z</time></trkpt><trkpt lat="44.70350488308388" lon="10.741342828430085"><ele>38.0</ele><time>2026-05-03T14:52:47Z</time></trkpt><trkpt lat="44.70358570217373" lon="10.74110007795006"><ele>38.33333333333333</ele><time>2026-05-03T14:52:48Z</time></trkpt><trkpt lat="44.70367335729463" lon="10.74086349756677"><ele>38.666666666666664</ele><time>2026-05-03T14:52:49Z</time></trkpt><trkpt lat="44.70375855255568" lon="10.740618150382476"><ele>39.0</ele><time>2026-05-03T14:52:50Z</time></trkpt><trkpt lat="44.70384178316707" lon="10.740370300568701"><ele>39.0</ele><time>2026-05-03T14:52:51Z</time></trkpt><trkpt lat="44.70392608147643" lon="10.740130299914467"><ele>39.0</ele><time>2026-05-03T14:52:52Z</time></trkpt><trkpt lat="44.70400951680004" lon="10.739886389368838"><ele>39.0</ele><time>2026-05-03T14:52:53Z</time></trkpt><trkpt lat="44.70409228391564" lon="10.739642054079551"><ele>39.0</ele><time>2026-05-03T14:52:54Z</time></trkpt><trkpt lat="44.70417576866512" lon="10.739398549219286"><ele>39.0</ele><time>2026-05-03T14:52:55Z</time></trkpt><trkpt lat="44.7042610113457" lon="10.739162187249823"><ele>39.0</ele><time>2026-05-03T14:52:56Z</time></trkpt><trkpt lat="44.704341701149716" lon="10.738923566467864"><ele>39.0</ele><time>2026-05-03T14:52:57Z</time></trkpt><trkpt lat="44.70442077134341" lon="10.738686195715323"><ele>39.0</ele><time>2026-05-03T14:52:58Z</time></trkpt><trkpt lat="44.70450205947286" lon="10.73844422825697"><ele>39.0</ele><time>2026-05-03T14:52:59Z</time></trkpt><trkpt lat="44.70458274667844" lon="10.738215219950586"><ele>39.0</ele><time>2026-05-03T14:53:00Z</time></trkpt><trkpt lat="44.70466834605509" lon="10.737981350016257"><ele>39.0</ele><time>2026-05-03T14:53:01Z</time></trkpt><trkpt lat="44.704749566859036" lon="10.737744243560403"><ele>39.0</ele><time>2026-05-03T14:53:02Z</time></trkpt><trkpt lat="44.70483053548746" lon="10.737505932423124"><ele>39.333333333333336</ele><time>2026-05-03T14:53:03Z</time></trkpt><trkpt lat="44.70491243734017" lon="10.737267832409886"><ele>39.66666666666667</ele><time>2026-05-03T14:53:04Z</time></trkpt><trkpt lat="44.70499669792132" lon="10.737027444959239"><ele>40.0</ele><time>2026-05-03T14:53:05Z</time></trkpt><trkpt lat="44.705081489679465" lon="10.736785369111379"><ele>40.0</ele><time>2026-05-03T14:53:06Z</time></trkpt><trkpt lat="44.70516549040569" lon="10.736541384136217"><ele>40.0</ele><time>2026-05-03T14:53:07Z</time></trkpt><trkpt lat="44.70524847797088" lon="10.736296576982202"><ele>40.0</ele><time>2026-05-03T14:53:08Z</time></trkpt><trkpt lat="44.70533156747211" lon="10.736050196420214"><ele>39.66666666666667</ele><time>2026-05-03T14:53:09Z</time></trkpt><trkpt lat="44.70541753799296" lon="10.735806151084512"><ele>39.333333333333336</ele><time>2026-05-03T14:53:10Z</time></trkpt><trkpt lat="44.705501612283705" lon="10.73556282009085"><ele>39.0</ele><time>2026-05-03T14:53:11Z</time></trkpt><trkpt lat="44.70558595115568" lon="10.735320457914161"><ele>39.333333333333336</ele><time>2026-05-03T14:53:12Z</time></trkpt><trkpt lat="44.705669939701046" lon="10.735079573519709"><ele>39.66666666666667</ele><time>2026-05-03T14:53:13Z</time></trkpt><trkpt lat="44.70575400356919" lon="10.734839332188411"><ele>40.0</ele><time>2026-05-03T14:53:14Z</time></trkpt><trkpt lat="44.70583639991154" lon="10.73459999490722"><ele>40.0</ele><time>2026-05-03T14:53:15Z</time></trkpt><trkpt lat="44.70591819836222" lon="10.734361841426253"><ele>40.0</ele><time>2026-05-03T14:53:16Z</time></trkpt><trkpt lat="44.70599894653298" lon="10.734123883594428"><ele>40.0</ele><time>2026-05-03T14:53:17Z</time></trkpt><trkpt lat="44.70608076779196" lon="10.733889227459802"><ele>39.66666666666667</ele><time>2026-05-03T14:53:17.999Z</time></trkpt><trkpt lat="44.7061624579998" lon="10.733654481677819"><ele>39.333333333333336</ele><time>2026-05-03T14:53:18.999Z</time></trkpt><trkpt lat="44.70624398957862" lon="10.733418364216913"><ele>39.0</ele><time>2026-05-03T14:53:19.999Z</time></trkpt><trkpt lat="44.706325720659486" lon="10.733181969962043"><ele>39.0</ele><time>2026-05-03T14:53:20.999Z</time></trkpt><trkpt lat="44.70640863676019" lon="10.732946196334689"><ele>39.0</ele><time>2026-05-03T14:53:21.999Z</time></trkpt><trkpt lat="44.70649152053348" lon="10.732708745349164"><ele>39.0</ele><time>2026-05-03T14:53:22.999Z</time></trkpt><trkpt lat="44.70657277174204" lon="10.732469573897957"><ele>39.333333333333336</ele><time>2026-05-03T14:53:23.999Z</time></trkpt><trkpt lat="44.70665277121764" lon="10.732231289524384"><ele>39.66666666666667</ele><time>2026-05-03T14:53:24.999Z</time></trkpt><trkpt lat="44.70673458011629" lon="10.731994266564872"><ele>40.0</ele><time>2026-05-03T14:53:25.999Z</time></trkpt><trkpt lat="44.70681922385095" lon="10.731755341262089"><ele>40.0</ele><time>2026-05-03T14:53:26.999Z</time></trkpt><trkpt lat="44.70690352068141" lon="10.73151769383341"><ele>40.0</ele><time>2026-05-03T14:53:27.999Z</time></trkpt><trkpt lat="44.70698606677472" lon="10.731277835028967"><ele>40.0</ele><time>2026-05-03T14:53:28.999Z</time></trkpt><trkpt lat="44.7070689586662" lon="10.731038498239455"><ele>40.0</ele><time>2026-05-03T14:53:29.999Z</time></trkpt><trkpt lat="44.70715174992747" lon="10.730797189389271"><ele>40.0</ele><time>2026-05-03T14:53:30.999Z</time></trkpt><trkpt lat="44.70723428420334" lon="10.730558665434913"><ele>40.0</ele><time>2026-05-03T14:53:31.999Z</time></trkpt><trkpt lat="44.70731696849556" lon="10.730317052289953"><ele>39.66666666666667</ele><time>2026-05-03T14:53:32.999Z</time></trkpt><trkpt lat="44.70740427727125" lon="10.730077840032274"><ele>39.333333333333336</ele><time>2026-05-03T14:53:33.999Z</time></trkpt><trkpt lat="44.70748755617773" lon="10.729834946997922"><ele>39.0</ele><time>2026-05-03T14:53:34.999Z</time></trkpt><trkpt lat="44.707570541408195" lon="10.729590234924771"><ele>39.0</ele><time>2026-05-03T14:53:35.999Z</time></trkpt><trkpt lat="44.70765334884052" lon="10.729346368595149"><ele>39.0</ele><time>2026-05-03T14:53:36.999Z</time></trkpt><trkpt lat="44.70773778193258" lon="10.729102948246517"><ele>39.0</ele><time>2026-05-03T14:53:37.999Z</time></trkpt><trkpt lat="44.70782460156871" lon="10.72885481983887"><ele>39.0</ele><time>2026-05-03T14:53:38.999Z</time></trkpt><trkpt lat="44.70790770378436" lon="10.728609325015697"><ele>39.0</ele><time>2026-05-03T14:53:39.999Z</time></trkpt><trkpt lat="44.70799174008108" lon="10.728363268718438"><ele>39.0</ele><time>2026-05-03T14:53:40.999Z</time></trkpt><trkpt lat="44.70807632137085" lon="10.728115721769312"><ele>39.0</ele><time>2026-05-03T14:53:41.999Z</time></trkpt><trkpt lat="44.708160577258134" lon="10.727866220814315"><ele>39.0</ele><time>2026-05-03T14:53:42.999Z</time></trkpt><trkpt lat="44.70824336429165" lon="10.7276167102368"><ele>39.0</ele><time>2026-05-03T14:53:43.999Z</time></trkpt><trkpt lat="44.70832998900052" lon="10.727368458998138"><ele>39.333333333333336</ele><time>2026-05-03T14:53:44.999Z</time></trkpt><trkpt lat="44.70841626221117" lon="10.727120486431549"><ele>39.66666666666667</ele><time>2026-05-03T14:53:45.999Z</time></trkpt><trkpt lat="44.708500291820265" lon="10.726869644319992"><ele>40.0</ele><time>2026-05-03T14:53:46.999Z</time></trkpt><trkpt lat="44.7085809682774" lon="10.72661332525412"><ele>40.0</ele><time>2026-05-03T14:53:47.999Z</time></trkpt><trkpt lat="44.708661821478756" lon="10.726355217772271"><ele>40.0</ele><time>2026-05-03T14:53:48.999Z</time></trkpt><trkpt lat="44.708745768786166" lon="10.72609066767955"><ele>40.0</ele><time>2026-05-03T14:53:49.999Z</time></trkpt><trkpt lat="44.70883305806399" lon="10.725824321672512"><ele>40.0</ele><time>2026-05-03T14:53:50.999Z</time></trkpt><trkpt lat="44.70892137369114" lon="10.725557735060255"><ele>40.0</ele><time>2026-05-03T14:53:51.999Z</time></trkpt><trkpt lat="44.70900761547928" lon="10.72528731121396"><ele>40.0</ele><time>2026-05-03T14:53:52.999Z</time></trkpt><trkpt lat="44.709092198274725" lon="10.725015482347906"><ele>40.0</ele><time>2026-05-03T14:53:53.999Z</time></trkpt><trkpt lat="44.70917623536282" lon="10.724738143923254"><ele>40.0</ele><time>2026-05-03T14:53:55Z</time></trkpt><trkpt lat="44.70925904517815" lon="10.724460507584169"><ele>40.0</ele><time>2026-05-03T14:53:56Z</time></trkpt><trkpt lat="44.70934151289239" lon="10.724180750643235"><ele>40.0</ele><time>2026-05-03T14:53:57Z</time></trkpt><trkpt lat="44.709421459638705" lon="10.72389781472899"><ele>40.0</ele><time>2026-05-03T14:53:58Z</time></trkpt><trkpt lat="44.709499678425836" lon="10.723615225057681"><ele>40.0</ele><time>2026-05-03T14:53:59Z</time></trkpt><trkpt lat="44.70957775102498" lon="10.723330613392433"><ele>40.333333333333336</ele><time>2026-05-03T14:54:00Z</time></trkpt><trkpt lat="44.70965525160686" lon="10.723048980199165"><ele>40.666666666666664</ele><time>2026-05-03T14:54:01Z</time></trkpt><trkpt lat="44.70973173174251" lon="10.722763873847962"><ele>41.0</ele><time>2026-05-03T14:54:02Z</time></trkpt><trkpt lat="44.709808342795654" lon="10.722480349672022"><ele>41.0</ele><time>2026-05-03T14:54:03Z</time></trkpt><trkpt lat="44.70988445626389" lon="10.722196110797896"><ele>41.0</ele><time>2026-05-03T14:54:04Z</time></trkpt><trkpt lat="44.70995957895863" lon="10.721909862654597"><ele>41.0</ele><time>2026-05-03T14:54:05Z</time></trkpt><trkpt lat="44.71003378399004" lon="10.721623377832701"><ele>40.33333333333333</ele><time>2026-05-03T14:54:06Z</time></trkpt><trkpt lat="44.71010673387026" lon="10.721334567648277"><ele>39.666666666666664</ele><time>2026-05-03T14:54:07Z</time></trkpt><trkpt lat="44.71017553472309" lon="10.721040697225714"><ele>39.0</ele><time>2026-05-03T14:54:08Z</time></trkpt><trkpt lat="44.71024539618232" lon="10.72074728728857"><ele>38.333333333333336</ele><time>2026-05-03T14:54:09Z</time></trkpt><trkpt lat="44.71031506752987" lon="10.720453118204189"><ele>37.66666666666667</ele><time>2026-05-03T14:54:10Z</time></trkpt><trkpt lat="44.71038288791742" lon="10.720157548092947"><ele>37.0</ele><time>2026-05-03T14:54:11Z</time></trkpt><trkpt lat="44.71044950463591" lon="10.719859461400082"><ele>37.0</ele><time>2026-05-03T14:54:12Z</time></trkpt><trkpt lat="44.71051469639848" lon="10.71956298425343"><ele>37.0</ele><time>2026-05-03T14:54:13Z</time></trkpt><trkpt lat="44.71057747987895" lon="10.719268722828911"><ele>37.0</ele><time>2026-05-03T14:54:14Z</time></trkpt><trkpt lat="44.71064023374747" lon="10.718977127426234"><ele>37.333333333333336</ele><time>2026-05-03T14:54:15Z</time></trkpt><trkpt lat="44.710702692965754" lon="10.718686504138246"><ele>37.666666666666664</ele><time>2026-05-03T14:54:16Z</time></trkpt><trkpt lat="44.71076179945083" lon="10.718394960628137"><ele>38.0</ele><time>2026-05-03T14:54:17Z</time></trkpt><trkpt lat="44.71081913629848" lon="10.718104485685195"><ele>38.0</ele><time>2026-05-03T14:54:18Z</time></trkpt><trkpt lat="44.710876333303794" lon="10.717814757664392"><ele>38.0</ele><time>2026-05-03T14:54:19Z</time></trkpt><trkpt lat="44.71093407818755" lon="10.717529570174568"><ele>38.0</ele><time>2026-05-03T14:54:20Z</time></trkpt><trkpt lat="44.710994306890946" lon="10.71724765194225"><ele>38.0</ele><time>2026-05-03T14:54:21Z</time></trkpt><trkpt lat="44.71105007650369" lon="10.716972355863392"><ele>38.0</ele><time>2026-05-03T14:54:22Z</time></trkpt><trkpt lat="44.711104338342224" lon="10.716709147149105"><ele>38.0</ele><time>2026-05-03T14:54:23Z</time></trkpt><trkpt lat="44.71115613615287" lon="10.716455723030501"><ele>38.33333333333333</ele><time>2026-05-03T14:54:24Z</time></trkpt><trkpt lat="44.711203594960395" lon="10.716213913387234"><ele>38.666666666666664</ele><time>2026-05-03T14:54:25Z</time></trkpt><trkpt lat="44.71125077474021" lon="10.715979331854651"><ele>39.0</ele><time>2026-05-03T14:54:26Z</time></trkpt><trkpt lat="44.71129568886364" lon="10.715755438682704"><ele>39.0</ele><time>2026-05-03T14:54:27Z</time></trkpt><trkpt lat="44.711341730526016" lon="10.715536295685057"><ele>39.0</ele><time>2026-05-03T14:54:28Z</time></trkpt><trkpt lat="44.71138792654761" lon="10.715314002525027"><ele>39.0</ele><time>2026-05-03T14:54:29Z</time></trkpt><trkpt lat="44.711433285512186" lon="10.71509169396573"><ele>39.0</ele><time>2026-05-03T14:54:30Z</time></trkpt><trkpt lat="44.711480687730145" lon="10.714865831781813"><ele>39.0</ele><time>2026-05-03T14:54:31Z</time></trkpt><trkpt lat="44.7115294129788" lon="10.714642514742184"><ele>39.0</ele><time>2026-05-03T14:54:32Z</time></trkpt><trkpt lat="44.71157761489734" lon="10.714416503382813"><ele>39.333333333333336</ele><time>2026-05-03T14:54:33Z</time></trkpt><trkpt lat="44.7116242150883" lon="10.714199552684152"><ele>39.66666666666667</ele><time>2026-05-03T14:54:34Z</time></trkpt><trkpt lat="44.711668951333735" lon="10.713993950202028"><ele>40.0</ele><time>2026-05-03T14:54:35Z</time></trkpt><trkpt lat="44.71171186728655" lon="10.713796855858753"><ele>40.0</ele><time>2026-05-03T14:54:36Z</time></trkpt><trkpt lat="44.711756146209225" lon="10.713594561420296"><ele>40.0</ele><time>2026-05-03T14:54:37Z</time></trkpt><trkpt lat="44.711802612136644" lon="10.713379226646188"><ele>40.0</ele><time>2026-05-03T14:54:38Z</time></trkpt><trkpt lat="44.71184882315959" lon="10.713160952171705"><ele>40.0</ele><time>2026-05-03T14:54:39Z</time></trkpt><trkpt lat="44.71189468294109" lon="10.712936388498646"><ele>40.0</ele><time>2026-05-03T14:54:40Z</time></trkpt><trkpt lat="44.711941257505266" lon="10.712710747823747"><ele>40.0</ele><time>2026-05-03T14:54:41Z</time></trkpt><trkpt lat="44.71198944944785" lon="10.712483063899137"><ele>39.66666666666667</ele><time>2026-05-03T14:54:42Z</time></trkpt><trkpt lat="44.712036264212145" lon="10.71225589442342"><ele>39.333333333333336</ele><time>2026-05-03T14:54:43Z</time></trkpt><trkpt lat="44.71208350818396" lon="10.712031097815695"><ele>39.0</ele><time>2026-05-03T14:54:44Z</time></trkpt><trkpt lat="44.712130202062056" lon="10.711803645687771"><ele>39.666666666666664</ele><time>2026-05-03T14:54:45Z</time></trkpt><trkpt lat="44.71217588583074" lon="10.711579754080049"><ele>40.33333333333333</ele><time>2026-05-03T14:54:46Z</time></trkpt><trkpt lat="44.71222138014696" lon="10.711361392446332"><ele>41.0</ele><time>2026-05-03T14:54:47Z</time></trkpt><trkpt lat="44.71226693567469" lon="10.711146258887984"><ele>41.0</ele><time>2026-05-03T14:54:48Z</time></trkpt><trkpt lat="44.71230984204288" lon="10.710933937564757"><ele>41.0</ele><time>2026-05-03T14:54:49Z</time></trkpt><trkpt lat="44.71235159298096" lon="10.71072103612735"><ele>41.0</ele><time>2026-05-03T14:54:50Z</time></trkpt><trkpt lat="44.71239592859474" lon="10.710507133114296"><ele>41.0</ele><time>2026-05-03T14:54:51Z</time></trkpt><trkpt lat="44.71243993468532" lon="10.710294004013397"><ele>41.0</ele><time>2026-05-03T14:54:52Z</time></trkpt><trkpt lat="44.71248214382669" lon="10.710083195079221"><ele>41.0</ele><time>2026-05-03T14:54:53Z</time></trkpt><trkpt lat="44.71252374036816" lon="10.709873559830468"><ele>40.33333333333333</ele><time>2026-05-03T14:54:54Z</time></trkpt><trkpt lat="44.7125652231041" lon="10.70966141861086"><ele>39.666666666666664</ele><time>2026-05-03T14:54:55Z</time></trkpt><trkpt lat="44.71260678054761" lon="10.709449915558942"><ele>39.0</ele><time>2026-05-03T14:54:56Z</time></trkpt><trkpt lat="44.712650466845545" lon="10.709237414125257"><ele>39.0</ele><time>2026-05-03T14:54:57Z</time></trkpt><trkpt lat="44.712693576386776" lon="10.709025067669701"><ele>39.0</ele><time>2026-05-03T14:54:58Z</time></trkpt><trkpt lat="44.712737798879964" lon="10.708811746748596"><ele>39.0</ele><time>2026-05-03T14:54:59Z</time></trkpt><trkpt lat="44.71278311625359" lon="10.708596704225364"><ele>38.666666666666664</ele><time>2026-05-03T14:55:00Z</time></trkpt><trkpt lat="44.71282848774691" lon="10.70838278311831"><ele>38.33333333333333</ele><time>2026-05-03T14:55:01Z</time></trkpt><trkpt lat="44.71287433598274" lon="10.708168480884694"><ele>38.0</ele><time>2026-05-03T14:55:02Z</time></trkpt><trkpt lat="44.712918409195616" lon="10.707951515131308"><ele>37.666666666666664</ele><time>2026-05-03T14:55:03Z</time></trkpt><trkpt lat="44.71296202224313" lon="10.70773138805469"><ele>37.333333333333336</ele><time>2026-05-03T14:55:04Z</time></trkpt><trkpt lat="44.71300539828228" lon="10.707511969166527"><ele>37.0</ele><time>2026-05-03T14:55:04.999Z</time></trkpt><trkpt lat="44.71304944207032" lon="10.707291480764646"><ele>37.0</ele><time>2026-05-03T14:55:05.999Z</time></trkpt><trkpt lat="44.713095953476525" lon="10.707074066029787"><ele>37.0</ele><time>2026-05-03T14:55:06.999Z</time></trkpt><trkpt lat="44.71314153266194" lon="10.70685558274884"><ele>37.0</ele><time>2026-05-03T14:55:07.999Z</time></trkpt><trkpt lat="44.7131869516533" lon="10.706639927118005"><ele>37.333333333333336</ele><time>2026-05-03T14:55:08.999Z</time></trkpt><trkpt lat="44.71323199100093" lon="10.706424168066114"><ele>37.666666666666664</ele><time>2026-05-03T14:55:09.999Z</time></trkpt><trkpt lat="44.713276600521276" lon="10.706201806901484"><ele>38.0</ele><time>2026-05-03T14:55:10.999Z</time></trkpt><trkpt lat="44.71332252818116" lon="10.705974494413333"><ele>38.0</ele><time>2026-05-03T14:55:11.999Z</time></trkpt><trkpt lat="44.713371205740266" lon="10.705736366553188"><ele>38.0</ele><time>2026-05-03T14:55:12.999Z</time></trkpt><trkpt lat="44.713420808270115" lon="10.705492887594792"><ele>38.0</ele><time>2026-05-03T14:55:13.999Z</time></trkpt><trkpt lat="44.71347064652755" lon="10.70524710376719"><ele>38.0</ele><time>2026-05-03T14:55:14.999Z</time></trkpt><trkpt lat="44.7135216622901" lon="10.704991326019709"><ele>38.0</ele><time>2026-05-03T14:55:15.999Z</time></trkpt><trkpt lat="44.71357174714834" lon="10.70473248902565"><ele>38.0</ele><time>2026-05-03T14:55:16.999Z</time></trkpt><trkpt lat="44.7136232791519" lon="10.704473570058406"><ele>38.0</ele><time>2026-05-03T14:55:17.999Z</time></trkpt><trkpt lat="44.713675934729544" lon="10.704214812698932"><ele>38.0</ele><time>2026-05-03T14:55:18.999Z</time></trkpt><trkpt lat="44.713729106371844" lon="10.703954863122403"><ele>38.0</ele><time>2026-05-03T14:55:19.999Z</time></trkpt><trkpt lat="44.71378900489836" lon="10.7036984185498"><ele>38.0</ele><time>2026-05-03T14:55:20.999Z</time></trkpt><trkpt lat="44.71384499352818" lon="10.703438329056517"><ele>38.0</ele><time>2026-05-03T14:55:21.999Z</time></trkpt><trkpt lat="44.713895565192026" lon="10.703173814237264"><ele>38.0</ele><time>2026-05-03T14:55:22.999Z</time></trkpt><trkpt lat="44.71394721754684" lon="10.702909143141218"><ele>38.666666666666664</ele><time>2026-05-03T14:55:23.999Z</time></trkpt><trkpt lat="44.71400125136531" lon="10.702643552198934"><ele>39.333333333333336</ele><time>2026-05-03T14:55:24.999Z</time></trkpt><trkpt lat="44.71405616545287" lon="10.702376551602596"><ele>40.0</ele><time>2026-05-03T14:55:25.999Z</time></trkpt><trkpt lat="44.714111500291644" lon="10.702111173975327"><ele>40.333333333333336</ele><time>2026-05-03T14:55:26.999Z</time></trkpt><trkpt lat="44.714166256839604" lon="10.701845275089832"><ele>40.666666666666664</ele><time>2026-05-03T14:55:27.999Z</time></trkpt><trkpt lat="44.71422190570585" lon="10.701579175221381"><ele>41.0</ele><time>2026-05-03T14:55:28.999Z</time></trkpt><trkpt lat="44.71427677275355" lon="10.701307785275578"><ele>41.0</ele><time>2026-05-03T14:55:29.999Z</time></trkpt><trkpt lat="44.71433124222146" lon="10.701034025782397"><ele>41.0</ele><time>2026-05-03T14:55:30.999Z</time></trkpt><trkpt lat="44.71438878604141" lon="10.70075549066928"><ele>41.0</ele><time>2026-05-03T14:55:31.999Z</time></trkpt><trkpt lat="44.71444603300697" lon="10.70047064606131"><ele>40.33333333333333</ele><time>2026-05-03T14:55:32.999Z</time></trkpt><trkpt lat="44.71450611781394" lon="10.70018080689389"><ele>39.666666666666664</ele><time>2026-05-03T14:55:33.999Z</time></trkpt><trkpt lat="44.71456678854639" lon="10.699888959951027"><ele>39.0</ele><time>2026-05-03T14:55:34.999Z</time></trkpt><trkpt lat="44.7146271972117" lon="10.699597138147796"><ele>38.666666666666664</ele><time>2026-05-03T14:55:35.999Z</time></trkpt><trkpt lat="44.71468858861619" lon="10.699300193284854"><ele>38.33333333333333</ele><time>2026-05-03T14:55:36.999Z</time></trkpt><trkpt lat="44.7147501433881" lon="10.698999671668547"><ele>38.0</ele><time>2026-05-03T14:55:37.999Z</time></trkpt><trkpt lat="44.71481211646858" lon="10.698694600729088"><ele>37.666666666666664</ele><time>2026-05-03T14:55:38.999Z</time></trkpt><trkpt lat="44.714873927224545" lon="10.698392110174131"><ele>37.333333333333336</ele><time>2026-05-03T14:55:39.999Z</time></trkpt><trkpt lat="44.714932128515734" lon="10.698099737667059"><ele>37.0</ele><time>2026-05-03T14:55:40.999Z</time></trkpt><trkpt lat="44.71500302401406" lon="10.697754089744917"><ele>37.0</ele><time>2026-05-03T14:55:41.999Z</time></trkpt><trkpt lat="44.71507318723069" lon="10.697419150144892"><ele>37.0</ele><time>2026-05-03T14:55:42.999Z</time></trkpt><trkpt lat="44.71513991430137" lon="10.697076762201066"><ele>37.5</ele><time>2026-05-03T14:55:43.999Z</time></trkpt><trkpt lat="44.715209687760435" lon="10.696732463226192"><ele>38.0</ele><time>2026-05-03T14:55:44.999Z</time></trkpt><trkpt lat="44.71528061244681" lon="10.696389848948773"><ele>39.0</ele><time>2026-05-03T14:55:45.999Z</time></trkpt><trkpt lat="44.71535361043104" lon="10.696050931025443"><ele>40.0</ele><time>2026-05-03T14:55:46.999Z</time></trkpt><trkpt lat="44.71542027811397" lon="10.695711919127978"><ele>40.0</ele><time>2026-05-03T14:55:47.999Z</time></trkpt><trkpt lat="44.715489544826134" lon="10.695369366121609"><ele>40.0</ele><time>2026-05-03T14:55:48.999Z</time></trkpt><trkpt lat="44.715555662954316" lon="10.695031600548782"><ele>40.0</ele><time>2026-05-03T14:55:49.999Z</time></trkpt><trkpt lat="44.715624768526816" lon="10.694693713523234"><ele>40.0</ele><time>2026-05-03T14:55:50.999Z</time></trkpt><trkpt lat="44.71569551635613" lon="10.694353956963951"><ele>40.5</ele><time>2026-05-03T14:55:51.999Z</time></trkpt><trkpt lat="44.7157690129566" lon="10.694014713661225"><ele>41.0</ele><time>2026-05-03T14:55:52.999Z</time></trkpt><trkpt lat="44.71583832709768" lon="10.693677598786149"><ele>40.5</ele><time>2026-05-03T14:55:53.999Z</time></trkpt><trkpt lat="44.715905542724784" lon="10.693333134538276"><ele>40.0</ele><time>2026-05-03T14:55:54.999Z</time></trkpt><trkpt lat="44.7159813729863" lon="10.693004414757516"><ele>39.0</ele><time>2026-05-03T14:55:55.999Z</time></trkpt><trkpt lat="44.71604650776391" lon="10.692663440518205"><ele>38.0</ele><time>2026-05-03T14:55:56.999Z</time></trkpt><trkpt lat="44.71611303927704" lon="10.692319806988847"><ele>38.0</ele><time>2026-05-03T14:55:57.999Z</time></trkpt><trkpt lat="44.71618233636212" lon="10.691976794308575"><ele>38.0</ele><time>2026-05-03T14:55:58.999Z</time></trkpt><trkpt lat="44.71624851719304" lon="10.691636446713622"><ele>37.5</ele><time>2026-05-03T14:55:59.999Z</time></trkpt><trkpt lat="44.71632001362614" lon="10.69129934908392"><ele>37.0</ele><time>2026-05-03T14:56:01Z</time></trkpt><trkpt lat="44.716393214351164" lon="10.690959728457786"><ele>37.0</ele><time>2026-05-03T14:56:02Z</time></trkpt><trkpt lat="44.7164606073515" lon="10.690623799317976"><ele>37.0</ele><time>2026-05-03T14:56:03Z</time></trkpt><trkpt lat="44.71652936737115" lon="10.690290728406593"><ele>37.5</ele><time>2026-05-03T14:56:04Z</time></trkpt><trkpt lat="44.716601410593036" lon="10.68995335033041"><ele>38.0</ele><time>2026-05-03T14:56:05Z</time></trkpt><trkpt lat="44.7166708838201" lon="10.689619859460523"><ele>38.5</ele><time>2026-05-03T14:56:06Z</time></trkpt><trkpt lat="44.716739217731735" lon="10.689287825639747"><ele>39.0</ele><time>2026-05-03T14:56:07Z</time></trkpt><trkpt lat="44.71680878707012" lon="10.68895291438665"><ele>39.0</ele><time>2026-05-03T14:56:08Z</time></trkpt><trkpt lat="44.716874237321534" lon="10.688619650116644"><ele>39.0</ele><time>2026-05-03T14:56:09Z</time></trkpt><trkpt lat="44.71694279498504" lon="10.688288259860384"><ele>38.0</ele><time>2026-05-03T14:56:10Z</time></trkpt><trkpt lat="44.71700624648682" lon="10.687965787513834"><ele>37.0</ele><time>2026-05-03T14:56:11Z</time></trkpt><trkpt lat="44.71707227703171" lon="10.68766071670338"><ele>37.0</ele><time>2026-05-03T14:56:12Z</time></trkpt><trkpt lat="44.71713199253451" lon="10.68737048748859"><ele>37.0</ele><time>2026-05-03T14:56:13Z</time></trkpt><trkpt lat="44.71719054521873" lon="10.687089714554425"><ele>37.0</ele><time>2026-05-03T14:56:14Z</time></trkpt><trkpt lat="44.71724465848783" lon="10.686821765385886"><ele>37.0</ele><time>2026-05-03T14:56:15Z</time></trkpt><trkpt lat="44.717298119201494" lon="10.686574591254173"><ele>37.0</ele><time>2026-05-03T14:56:16Z</time></trkpt><trkpt lat="44.717345675165355" lon="10.686334518771353"><ele>37.0</ele><time>2026-05-03T14:56:17Z</time></trkpt><trkpt lat="44.71739258226187" lon="10.68610583209508"><ele>36.66666666666667</ele><time>2026-05-03T14:56:18Z</time></trkpt><trkpt lat="44.71743593090551" lon="10.685887759125539"><ele>36.333333333333336</ele><time>2026-05-03T14:56:19Z</time></trkpt><trkpt lat="44.7174751881647" lon="10.685679982529367"><ele>36.0</ele><time>2026-05-03T14:56:20Z</time></trkpt><trkpt lat="44.71751216461875" lon="10.68548163784313"><ele>36.0</ele><time>2026-05-03T14:56:21Z</time></trkpt><trkpt lat="44.717549648930344" lon="10.685293965453155"><ele>36.0</ele><time>2026-05-03T14:56:22Z</time></trkpt><trkpt lat="44.71758760904045" lon="10.685110576248894"><ele>36.0</ele><time>2026-05-03T14:56:23Z</time></trkpt><trkpt lat="44.717627596848246" lon="10.684925935930735"><ele>36.0</ele><time>2026-05-03T14:56:24Z</time></trkpt><trkpt lat="44.71766785418869" lon="10.684736031451532"><ele>36.25</ele><time>2026-05-03T14:56:25Z</time></trkpt><trkpt lat="44.71770816469268" lon="10.684544347267233"><ele>36.5</ele><time>2026-05-03T14:56:26Z</time></trkpt><trkpt lat="44.71774944886477" lon="10.684350729388083"><ele>36.75</ele><time>2026-05-03T14:56:27Z</time></trkpt><trkpt lat="44.717790911598506" lon="10.684155307857143"><ele>37.0</ele><time>2026-05-03T14:56:28Z</time></trkpt><trkpt lat="44.717830487953094" lon="10.683958133291453"><ele>37.0</ele><time>2026-05-03T14:56:29Z</time></trkpt><trkpt lat="44.71787043507809" lon="10.683758739287091"><ele>37.0</ele><time>2026-05-03T14:56:30Z</time></trkpt><trkpt lat="44.717910653510295" lon="10.683556150119383"><ele>37.0</ele><time>2026-05-03T14:56:31Z</time></trkpt><trkpt lat="44.71795203901242" lon="10.68335213577459"><ele>37.0</ele><time>2026-05-03T14:56:32Z</time></trkpt><trkpt lat="44.71799365200561" lon="10.683148519665174"><ele>37.0</ele><time>2026-05-03T14:56:33Z</time></trkpt><trkpt lat="44.71803701195918" lon="10.682942214191634"><ele>37.0</ele><time>2026-05-03T14:56:34Z</time></trkpt><trkpt lat="44.71808015074991" lon="10.68273408584591"><ele>37.0</ele><time>2026-05-03T14:56:35Z</time></trkpt><trkpt lat="44.71812147925162" lon="10.682525383699423"><ele>37.0</ele><time>2026-05-03T14:56:36Z</time></trkpt><trkpt lat="44.71816409031982" lon="10.68232984287169"><ele>37.0</ele><time>2026-05-03T14:56:37Z</time></trkpt><trkpt lat="44.71820309342944" lon="10.68214595164224"><ele>37.0</ele><time>2026-05-03T14:56:38Z</time></trkpt><trkpt lat="44.71823838717066" lon="10.681968317097477"><ele>37.0</ele><time>2026-05-03T14:56:38.999Z</time></trkpt><trkpt lat="44.71827343245471" lon="10.681807735089642"><ele>37.2</ele><time>2026-05-03T14:56:39.999Z</time></trkpt><trkpt lat="44.718306123743965" lon="10.681656429195796"><ele>37.400000000000006</ele><time>2026-05-03T14:56:40.999Z</time></trkpt><trkpt lat="44.71833566060277" lon="10.681516487187606"><ele>37.599999999999994</ele><time>2026-05-03T14:56:41.999Z</time></trkpt><trkpt lat="44.718360082741334" lon="10.681388429567363"><ele>37.8</ele><time>2026-05-03T14:56:42.999Z</time></trkpt><trkpt lat="44.71839492165822" lon="10.681275140516796"><ele>38.0</ele><time>2026-05-03T14:56:43.999Z</time></trkpt><trkpt lat="44.718425008290374" lon="10.681180221250665"><ele>38.599999999999994</ele><time>2026-05-03T14:56:44.999Z</time></trkpt><trkpt lat="44.71844507454185" lon="10.681090050833314"><ele>39.199999999999996</ele><time>2026-05-03T14:56:45.999Z</time></trkpt><trkpt lat="44.71846581635748" lon="10.680978684567737"><ele>39.8</ele><time>2026-05-03T14:56:47.999Z</time></trkpt><trkpt lat="44.71847648716611" lon="10.68080225659598"><ele>40.4</ele><time>2026-05-03T14:57:48.999Z</time></trkpt><trkpt lat="44.718500676669464" lon="10.68066548187756"><ele>41.0</ele><time>2026-05-03T14:57:49.999Z</time></trkpt><trkpt lat="44.71853673079612" lon="10.680498006462377"><ele>40.5</ele><time>2026-05-03T14:57:50.999Z</time></trkpt><trkpt lat="44.71857438605636" lon="10.680317933527673"><ele>40.0</ele><time>2026-05-03T14:57:51.999Z</time></trkpt><trkpt lat="44.71861306330959" lon="10.680134759587219"><ele>39.5</ele><time>2026-05-03T14:57:52.999Z</time></trkpt><trkpt lat="44.71864799920874" lon="10.679960149549357"><ele>39.0</ele><time>2026-05-03T14:57:53.999Z</time></trkpt><trkpt lat="44.71868407284235" lon="10.679794047490851"><ele>39.0</ele><time>2026-05-03T14:57:54.999Z</time></trkpt><trkpt lat="44.71871752956127" lon="10.679632357034988"><ele>39.0</ele><time>2026-05-03T14:57:55.999Z</time></trkpt><trkpt lat="44.71874992684972" lon="10.67947830905941"><ele>39.0</ele><time>2026-05-03T14:57:56.999Z</time></trkpt><trkpt lat="44.718778264685504" lon="10.679322845226272"><ele>39.0</ele><time>2026-05-03T14:57:57.999Z</time></trkpt><trkpt lat="44.718807259966354" lon="10.679173087888522"><ele>39.0</ele><time>2026-05-03T14:57:58.999Z</time></trkpt><trkpt lat="44.71883185640721" lon="10.679042771475498"><ele>39.0</ele><time>2026-05-03T14:57:59.999Z</time></trkpt><trkpt lat="44.71885354817695" lon="10.678931009605186"><ele>39.0</ele><time>2026-05-03T14:58:00.999Z</time></trkpt><trkpt lat="44.718873163553155" lon="10.678833043456741"><ele>39.0</ele><time>2026-05-03T14:58:01.999Z</time></trkpt><trkpt lat="44.718892109868136" lon="10.67874702156043"><ele>39.0</ele><time>2026-05-03T14:58:02.999Z</time></trkpt><trkpt lat="44.71892629470996" lon="10.678580164187792"><ele>39.0</ele><time>2026-05-03T14:58:04.999Z</time></trkpt><trkpt lat="44.718944055246595" lon="10.678491245513628"><ele>38.833333333333336</ele><time>2026-05-03T14:58:05.999Z</time></trkpt><trkpt lat="44.7189608176795" lon="10.678404116358523"><ele>38.666666666666664</ele><time>2026-05-03T14:58:07Z</time></trkpt><trkpt lat="44.718974807654334" lon="10.67831346043812"><ele>38.5</ele><time>2026-05-03T14:58:08Z</time></trkpt><trkpt lat="44.718996127790206" lon="10.678218947899223"><ele>38.33333333333333</ele><time>2026-05-03T14:58:09Z</time></trkpt><trkpt lat="44.71902494321889" lon="10.678064072215145"><ele>38.166666666666664</ele><time>2026-05-03T14:58:11Z</time></trkpt><trkpt lat="44.719044263283884" lon="10.677956831733695"><ele>38.0</ele><time>2026-05-03T14:58:13Z</time></trkpt><trkpt lat="44.719070212677124" lon="10.677810720229925"><ele>38.166666666666664</ele><time>2026-05-03T14:58:15Z</time></trkpt><trkpt lat="44.71909227608228" lon="10.677674342993289"><ele>38.33333333333333</ele><time>2026-05-03T14:58:17Z</time></trkpt><trkpt lat="44.719111977805355" lon="10.677561748836927"><ele>38.5</ele><time>2026-05-03T14:58:19Z</time></trkpt><trkpt lat="44.71912774080508" lon="10.677465213517275"><ele>38.666666666666664</ele><time>2026-05-03T14:58:20.999Z</time></trkpt><trkpt lat="44.71914133594678" lon="10.677362182659476"><ele>38.833333333333336</ele><time>2026-05-03T14:58:23.999Z</time></trkpt><trkpt lat="44.71915918491435" lon="10.677220490355989"><ele>39.0</ele><time>2026-05-03T14:58:25.999Z</time></trkpt><trkpt lat="44.71918527264944" lon="10.677099662647619"><ele>39.0</ele><time>2026-05-03T14:58:27.999Z</time></trkpt><trkpt lat="44.71920033396011" lon="10.677005896759862"><ele>39.0</ele><time>2026-05-03T14:58:30.999Z</time></trkpt><trkpt lat="44.7192179964969" lon="10.676902900871681"><ele>39.0</ele><time>2026-05-03T14:58:34.999Z</time></trkpt><trkpt lat="44.7192426605702" lon="10.676812433939673"><ele>39.0</ele><time>2026-05-03T14:58:37.999Z</time></trkpt><trkpt lat="44.71927191875721" lon="10.676699678889365"><ele>39.0</ele><time>2026-05-03T14:58:40.999Z</time></trkpt><trkpt lat="44.719289865822326" lon="10.676610320012184"><ele>39.0</ele><time>2026-05-03T14:58:43.999Z</time></trkpt><trkpt lat="44.719309851020355" lon="10.676510502411666"><ele>39.0</ele><time>2026-05-03T14:58:47.999Z</time></trkpt><trkpt lat="44.71932408354265" lon="10.676409641544994"><ele>39.166666666666664</ele><time>2026-05-03T14:58:53.999Z</time></trkpt><trkpt lat="44.719354041424715" lon="10.676267951896413"><ele>39.333333333333336</ele><time>2026-05-03T14:58:56.999Z</time></trkpt><trkpt lat="44.71938249371598" lon="10.676144080010134"><ele>39.5</ele><time>2026-05-03T14:58:58.999Z</time></trkpt><trkpt lat="44.719401058108055" lon="10.676045949704159"><ele>39.66666666666667</ele><time>2026-05-03T14:58:59.999Z</time></trkpt><trkpt lat="44.71943080924611" lon="10.675930435453036"><ele>39.833333333333336</ele><time>2026-05-03T14:59:00.999Z</time></trkpt><trkpt lat="44.71945306023896" lon="10.675816297772169"><ele>40.0</ele><time>2026-05-03T14:59:01.999Z</time></trkpt><trkpt lat="44.719477047689736" lon="10.67567567170449"><ele>39.4</ele><time>2026-05-03T14:59:03.999Z</time></trkpt><trkpt lat="44.71950084667546" lon="10.675566451345054"><ele>38.8</ele><time>2026-05-03T14:59:05.999Z</time></trkpt><trkpt lat="44.719526409857096" lon="10.675451835225106"><ele>38.2</ele><time>2026-05-03T14:59:06.999Z</time></trkpt><trkpt lat="44.71955732273456" lon="10.675301171829146"><ele>37.6</ele><time>2026-05-03T14:59:07.999Z</time></trkpt><trkpt lat="44.719591381390195" lon="10.675145556287411"><ele>37.0</ele><time>2026-05-03T14:59:08.999Z</time></trkpt><trkpt lat="44.71962584279451" lon="10.674980901752315"><ele>37.0</ele><time>2026-05-03T14:59:09.999Z</time></trkpt><trkpt lat="44.71965965231853" lon="10.674807632839416"><ele>37.0</ele><time>2026-05-03T14:59:10.999Z</time></trkpt><trkpt lat="44.71969891622535" lon="10.674628673135025"><ele>37.0</ele><time>2026-05-03T14:59:11.999Z</time></trkpt><trkpt lat="44.719744654290054" lon="10.674447780858182"><ele>37.0</ele><time>2026-05-03T14:59:12.999Z</time></trkpt><trkpt lat="44.719788637781846" lon="10.674263874053606"><ele>37.25</ele><time>2026-05-03T14:59:13.999Z</time></trkpt><trkpt lat="44.71982965299475" lon="10.67408488820274"><ele>37.5</ele><time>2026-05-03T14:59:14.999Z</time></trkpt><trkpt lat="44.719874981292435" lon="10.673917047392452"><ele>37.75</ele><time>2026-05-03T14:59:15.999Z</time></trkpt><trkpt lat="44.71991560450728" lon="10.673762103605702"><ele>38.0</ele><time>2026-05-03T14:59:16.999Z</time></trkpt><trkpt lat="44.719951240842164" lon="10.673604522299978"><ele>38.0</ele><time>2026-05-03T14:59:17.999Z</time></trkpt><trkpt lat="44.72000293947024" lon="10.673350012541368"><ele>38.0</ele><time>2026-05-03T14:59:18.999Z</time></trkpt><trkpt lat="44.72004409126842" lon="10.673134137827995"><ele>38.0</ele><time>2026-05-03T14:59:19.999Z</time></trkpt><trkpt lat="44.72008991821979" lon="10.672912190719078"><ele>37.33333333333333</ele><time>2026-05-03T14:59:20.999Z</time></trkpt><trkpt lat="44.720145140317115" lon="10.67266584872183"><ele>36.666666666666664</ele><time>2026-05-03T14:59:21.999Z</time></trkpt><trkpt lat="44.720199779430374" lon="10.672394413032476"><ele>36.0</ele><time>2026-05-03T14:59:22.999Z</time></trkpt><trkpt lat="44.72025469184086" lon="10.672119385307058"><ele>36.0</ele><time>2026-05-03T14:59:23.999Z</time></trkpt><trkpt lat="44.72030760624967" lon="10.67185001174437"><ele>36.0</ele><time>2026-05-03T14:59:24.999Z</time></trkpt><trkpt lat="44.72035810994629" lon="10.671583117470693"><ele>36.0</ele><time>2026-05-03T14:59:25.999Z</time></trkpt><trkpt lat="44.720413729407255" lon="10.671326558279704"><ele>36.0</ele><time>2026-05-03T14:59:26.999Z</time></trkpt><trkpt lat="44.720464634674336" lon="10.67107595874741"><ele>36.0</ele><time>2026-05-03T14:59:27.999Z</time></trkpt><trkpt lat="44.72051501247201" lon="10.67083790611255"><ele>36.0</ele><time>2026-05-03T14:59:28.999Z</time></trkpt><trkpt lat="44.72056484447968" lon="10.6706050090588"><ele>36.0</ele><time>2026-05-03T14:59:29.999Z</time></trkpt><trkpt lat="44.720611916926174" lon="10.67036893185954"><ele>36.0</ele><time>2026-05-03T14:59:30.999Z</time></trkpt><trkpt lat="44.72066296993362" lon="10.670130274335296"><ele>36.0</ele><time>2026-05-03T14:59:31.999Z</time></trkpt><trkpt lat="44.720714730167344" lon="10.669881612539713"><ele>36.0</ele><time>2026-05-03T14:59:32.999Z</time></trkpt><trkpt lat="44.720761077301695" lon="10.669636923946438"><ele>36.0</ele><time>2026-05-03T14:59:33.999Z</time></trkpt><trkpt lat="44.72081308406497" lon="10.669393924176973"><ele>36.0</ele><time>2026-05-03T14:59:34.999Z</time></trkpt><trkpt lat="44.72086284772284" lon="10.669147087428081"><ele>36.0</ele><time>2026-05-03T14:59:35.999Z</time></trkpt><trkpt lat="44.72090938021582" lon="10.668907585859573"><ele>36.0</ele><time>2026-05-03T14:59:36.999Z</time></trkpt><trkpt lat="44.72095836317675" lon="10.66865958490505"><ele>36.0</ele><time>2026-05-03T14:59:37.999Z</time></trkpt><trkpt lat="44.72100973952443" lon="10.66840917347627"><ele>36.0</ele><time>2026-05-03T14:59:38.999Z</time></trkpt><trkpt lat="44.721063188986015" lon="10.668157433194768"><ele>36.0</ele><time>2026-05-03T14:59:39.999Z</time></trkpt><trkpt lat="44.721117825006615" lon="10.667903102007404"><ele>36.0</ele><time>2026-05-03T14:59:40.999Z</time></trkpt><trkpt lat="44.72117076096564" lon="10.667633038046567"><ele>35.666666666666664</ele><time>2026-05-03T14:59:41.999Z</time></trkpt><trkpt lat="44.721227722063034" lon="10.667353776148765"><ele>35.33333333333333</ele><time>2026-05-03T14:59:42.999Z</time></trkpt><trkpt lat="44.721285306527506" lon="10.66706478278228"><ele>35.0</ele><time>2026-05-03T14:59:43.999Z</time></trkpt><trkpt lat="44.7213404702433" lon="10.666762898385207"><ele>35.0</ele><time>2026-05-03T14:59:44.999Z</time></trkpt><trkpt lat="44.72139579220958" lon="10.666461084569113"><ele>35.0</ele><time>2026-05-03T14:59:45.999Z</time></trkpt><trkpt lat="44.72145500639868" lon="10.666160360860982"><ele>35.0</ele><time>2026-05-03T14:59:46.999Z</time></trkpt><trkpt lat="44.721517812369086" lon="10.665858925595225"><ele>35.0</ele><time>2026-05-03T14:59:47.999Z</time></trkpt><trkpt lat="44.721583147461665" lon="10.665561119909185"><ele>35.0</ele><time>2026-05-03T14:59:48.999Z</time></trkpt><trkpt lat="44.72165202192886" lon="10.665260361948379"><ele>35.0</ele><time>2026-05-03T14:59:49.999Z</time></trkpt><trkpt lat="44.72172125146152" lon="10.66495100486817"><ele>35.0</ele><time>2026-05-03T14:59:50.999Z</time></trkpt><trkpt lat="44.72178920582877" lon="10.6646320361953"><ele>35.0</ele><time>2026-05-03T14:59:51.999Z</time></trkpt><trkpt lat="44.721855438515774" lon="10.664295698437067"><ele>35.0</ele><time>2026-05-03T14:59:52.999Z</time></trkpt><trkpt lat="44.721921316605446" lon="10.663946128881799"><ele>35.0</ele><time>2026-05-03T14:59:53.999Z</time></trkpt><trkpt lat="44.72198860481345" lon="10.663593470555481"><ele>35.0</ele><time>2026-05-03T14:59:54.999Z</time></trkpt><trkpt lat="44.722057240254074" lon="10.663241080446719"><ele>35.0</ele><time>2026-05-03T14:59:55.999Z</time></trkpt><trkpt lat="44.72212591060251" lon="10.662896089681013"><ele>35.0</ele><time>2026-05-03T14:59:56.999Z</time></trkpt><trkpt lat="44.722192583467034" lon="10.662555659763566"><ele>35.0</ele><time>2026-05-03T14:59:57.999Z</time></trkpt><trkpt lat="44.72225778356917" lon="10.662218358131165"><ele>36.0</ele><time>2026-05-03T14:59:58.999Z</time></trkpt><trkpt lat="44.72232424447151" lon="10.661880952508257"><ele>37.0</ele><time>2026-05-03T14:59:59.999Z</time></trkpt><trkpt lat="44.72238913610402" lon="10.661543256854682"><ele>37.0</ele><time>2026-05-03T15:00:00.999Z</time></trkpt><trkpt lat="44.72245351415234" lon="10.661206419584975"><ele>37.0</ele><time>2026-05-03T15:00:01.999Z</time></trkpt><trkpt lat="44.72251515120241" lon="10.660867224361999"><ele>37.5</ele><time>2026-05-03T15:00:02.999Z</time></trkpt><trkpt lat="44.72257503199019" lon="10.66053067560916"><ele>38.0</ele><time>2026-05-03T15:00:03.999Z</time></trkpt><trkpt lat="44.72263315244202" lon="10.660198071816845"><ele>38.0</ele><time>2026-05-03T15:00:04.999Z</time></trkpt><trkpt lat="44.72269355639725" lon="10.659861908765826"><ele>38.0</ele><time>2026-05-03T15:00:05.999Z</time></trkpt><trkpt lat="44.72275401155976" lon="10.65952914995385"><ele>37.0</ele><time>2026-05-03T15:00:06.999Z</time></trkpt><trkpt lat="44.72281399710547" lon="10.659193135639002"><ele>36.0</ele><time>2026-05-03T15:00:07.999Z</time></trkpt><trkpt lat="44.722876197880986" lon="10.658855411618102"><ele>36.5</ele><time>2026-05-03T15:00:08.999Z</time></trkpt><trkpt lat="44.72294370606712" lon="10.658514289455844"><ele>37.0</ele><time>2026-05-03T15:00:09.999Z</time></trkpt><trkpt lat="44.723014292325566" lon="10.658174891421286"><ele>37.0</ele><time>2026-05-03T15:00:10.999Z</time></trkpt><trkpt lat="44.72308585575639" lon="10.657830681617314"><ele>37.0</ele><time>2026-05-03T15:00:11.999Z</time></trkpt><trkpt lat="44.72315905092751" lon="10.657487260294904"><ele>37.0</ele><time>2026-05-03T15:00:12.999Z</time></trkpt><trkpt lat="44.7232297534549" lon="10.657142576930383"><ele>37.0</ele><time>2026-05-03T15:00:13.999Z</time></trkpt><trkpt lat="44.72330274583157" lon="10.656792535513212"><ele>37.0</ele><time>2026-05-03T15:00:14.999Z</time></trkpt><trkpt lat="44.72337173740161" lon="10.656438683994537"><ele>37.0</ele><time>2026-05-03T15:00:15.999Z</time></trkpt><trkpt lat="44.72344095174044" lon="10.65609177195705"><ele>37.0</ele><time>2026-05-03T15:00:16.999Z</time></trkpt><trkpt lat="44.72350956029726" lon="10.655761788850654"><ele>37.0</ele><time>2026-05-03T15:00:17.999Z</time></trkpt><trkpt lat="44.72357515733908" lon="10.655447129762113"><ele>35.5</ele><time>2026-05-03T15:00:18.999Z</time></trkpt><trkpt lat="44.723638751969546" lon="10.65514172374485"><ele>34.0</ele><time>2026-05-03T15:00:19.999Z</time></trkpt><trkpt lat="44.72370409597566" lon="10.65483043235014"><ele>34.0</ele><time>2026-05-03T15:00:20.999Z</time></trkpt><trkpt lat="44.723768105938916" lon="10.654521325142388"><ele>34.0</ele><time>2026-05-03T15:00:21.999Z</time></trkpt><trkpt lat="44.72383556491198" lon="10.654210541422707"><ele>34.0</ele><time>2026-05-03T15:00:22.999Z</time></trkpt><trkpt lat="44.723904227909145" lon="10.653902720135918"><ele>34.0</ele><time>2026-05-03T15:00:23.999Z</time></trkpt><trkpt lat="44.723975668510846" lon="10.65359543732715"><ele>34.333333333333336</ele><time>2026-05-03T15:00:24.999Z</time></trkpt><trkpt lat="44.724046247232195" lon="10.65329735415764"><ele>34.666666666666664</ele><time>2026-05-03T15:00:25.999Z</time></trkpt><trkpt lat="44.724113477996944" lon="10.653001736924692"><ele>35.0</ele><time>2026-05-03T15:00:26.999Z</time></trkpt><trkpt lat="44.72418052711521" lon="10.652717472686568"><ele>35.0</ele><time>2026-05-03T15:00:27.999Z</time></trkpt><trkpt lat="44.724250116050065" lon="10.6524321264535"><ele>35.0</ele><time>2026-05-03T15:00:28.999Z</time></trkpt><trkpt lat="44.72431787474179" lon="10.65214426082638"><ele>35.0</ele><time>2026-05-03T15:00:29.999Z</time></trkpt><trkpt lat="44.72438144429866" lon="10.651855327197401"><ele>35.0</ele><time>2026-05-03T15:00:30.999Z</time></trkpt><trkpt lat="44.724440678363216" lon="10.651565246624678"><ele>35.0</ele><time>2026-05-03T15:00:31.999Z</time></trkpt><trkpt lat="44.72449754368909" lon="10.651275397977487"><ele>35.0</ele><time>2026-05-03T15:00:32.999Z</time></trkpt><trkpt lat="44.72455330334737" lon="10.65098864033451"><ele>35.0</ele><time>2026-05-03T15:00:33.999Z</time></trkpt><trkpt lat="44.724608326309664" lon="10.650706005354738"><ele>35.0</ele><time>2026-05-03T15:00:34.999Z</time></trkpt><trkpt lat="44.7246638897569" lon="10.650430737615588"><ele>35.0</ele><time>2026-05-03T15:00:35.999Z</time></trkpt><trkpt lat="44.72472081259223" lon="10.650158345447203"><ele>35.33333333333333</ele><time>2026-05-03T15:00:36.999Z</time></trkpt><trkpt lat="44.724777341916564" lon="10.649882853178577"><ele>35.666666666666664</ele><time>2026-05-03T15:00:37.999Z</time></trkpt><trkpt lat="44.72483324191718" lon="10.649608606106606"><ele>36.0</ele><time>2026-05-03T15:00:38.999Z</time></trkpt><trkpt lat="44.72488736960061" lon="10.649335770464502"><ele>36.0</ele><time>2026-05-03T15:00:39.999Z</time></trkpt><trkpt lat="44.724941929868265" lon="10.64906121365081"><ele>36.0</ele><time>2026-05-03T15:00:40.999Z</time></trkpt><trkpt lat="44.724999525910576" lon="10.648783614532494"><ele>36.0</ele><time>2026-05-03T15:00:41.999Z</time></trkpt><trkpt lat="44.72505666150243" lon="10.648508423208005"><ele>37.0</ele><time>2026-05-03T15:00:42.999Z</time></trkpt><trkpt lat="44.72511193349658" lon="10.648233501267002"><ele>38.0</ele><time>2026-05-03T15:00:43.999Z</time></trkpt><trkpt lat="44.72516549158071" lon="10.647966646270602"><ele>39.0</ele><time>2026-05-03T15:00:44.999Z</time></trkpt><trkpt lat="44.725218968898865" lon="10.647704836765735"><ele>40.0</ele><time>2026-05-03T15:00:45.999Z</time></trkpt><trkpt lat="44.7252701762091" lon="10.647447097489625"><ele>41.0</ele><time>2026-05-03T15:00:46.999Z</time></trkpt><trkpt lat="44.72532113227024" lon="10.647196866005311"><ele>42.0</ele><time>2026-05-03T15:00:47.999Z</time></trkpt><trkpt lat="44.72536904298418" lon="10.646956374941016"><ele>42.0</ele><time>2026-05-03T15:00:48.999Z</time></trkpt><trkpt lat="44.72541512221079" lon="10.646717146707905"><ele>42.0</ele><time>2026-05-03T15:00:49.999Z</time></trkpt><trkpt lat="44.725463565111404" lon="10.646478064519718"><ele>42.0</ele><time>2026-05-03T15:00:50.999Z</time></trkpt><trkpt lat="44.725513344389" lon="10.64624126494943"><ele>41.0</ele><time>2026-05-03T15:00:51.999Z</time></trkpt><trkpt lat="44.725562010786085" lon="10.646001275190702"><ele>40.0</ele><time>2026-05-03T15:00:52.999Z</time></trkpt><trkpt lat="44.72561132378752" lon="10.645759359284085"><ele>39.0</ele><time>2026-05-03T15:00:53.999Z</time></trkpt><trkpt lat="44.72565837003226" lon="10.645517662835585"><ele>38.333333333333336</ele><time>2026-05-03T15:00:54.999Z</time></trkpt><trkpt lat="44.72570657015879" lon="10.645275113405553"><ele>37.66666666666667</ele><time>2026-05-03T15:00:55.999Z</time></trkpt><trkpt lat="44.725755948599655" lon="10.645027709756224"><ele>37.0</ele><time>2026-05-03T15:00:56.999Z</time></trkpt><trkpt lat="44.725808325272936" lon="10.644775754720824"><ele>37.0</ele><time>2026-05-03T15:00:57.999Z</time></trkpt><trkpt lat="44.72586118218483" lon="10.644517959923947"><ele>37.0</ele><time>2026-05-03T15:00:58.999Z</time></trkpt><trkpt lat="44.72591532915409" lon="10.644256826191757"><ele>37.0</ele><time>2026-05-03T15:00:59.999Z</time></trkpt><trkpt lat="44.725967781557046" lon="10.64399472569525"><ele>36.66666666666667</ele><time>2026-05-03T15:01:00.999Z</time></trkpt><trkpt lat="44.7260213519626" lon="10.643726848050095"><ele>36.333333333333336</ele><time>2026-05-03T15:01:01.999Z</time></trkpt><trkpt lat="44.72607512660657" lon="10.643457626142308"><ele>36.0</ele><time>2026-05-03T15:01:02.999Z</time></trkpt><trkpt lat="44.7261313329857" lon="10.643185414146762"><ele>36.0</ele><time>2026-05-03T15:01:03.999Z</time></trkpt><trkpt lat="44.726187656449554" lon="10.642912378903375"><ele>36.0</ele><time>2026-05-03T15:01:04.999Z</time></trkpt><trkpt lat="44.72624297184363" lon="10.642641843955408"><ele>36.0</ele><time>2026-05-03T15:01:05.999Z</time></trkpt><trkpt lat="44.726298972773556" lon="10.642372064790178"><ele>36.0</ele><time>2026-05-03T15:01:06.999Z</time></trkpt><trkpt lat="44.726352880632355" lon="10.642106919749049"><ele>36.0</ele><time>2026-05-03T15:01:07.999Z</time></trkpt><trkpt lat="44.726406946849806" lon="10.641839980862892"><ele>36.0</ele><time>2026-05-03T15:01:08.999Z</time></trkpt><trkpt lat="44.726458738408006" lon="10.641572797185963"><ele>36.0</ele><time>2026-05-03T15:01:09.999Z</time></trkpt><trkpt lat="44.7265120145972" lon="10.641302121438295"><ele>36.0</ele><time>2026-05-03T15:01:10.999Z</time></trkpt><trkpt lat="44.726567164098846" lon="10.641033329420674"><ele>36.0</ele><time>2026-05-03T15:01:11.999Z</time></trkpt><trkpt lat="44.72662491179869" lon="10.640763169330762"><ele>36.0</ele><time>2026-05-03T15:01:12.999Z</time></trkpt><trkpt lat="44.72668067050094" lon="10.640492726068738"><ele>36.0</ele><time>2026-05-03T15:01:13.999Z</time></trkpt><trkpt lat="44.726736043488486" lon="10.640220830534908"><ele>36.0</ele><time>2026-05-03T15:01:14.999Z</time></trkpt><trkpt lat="44.726789791628605" lon="10.639945644462424"><ele>36.333333333333336</ele><time>2026-05-03T15:01:15.999Z</time></trkpt><trkpt lat="44.7268457787635" lon="10.639674449038273"><ele>36.66666666666667</ele><time>2026-05-03T15:01:16.999Z</time></trkpt><trkpt lat="44.7269025620351" lon="10.63940003422674"><ele>37.0</ele><time>2026-05-03T15:01:17.999Z</time></trkpt><trkpt lat="44.72695824791745" lon="10.639128042053706"><ele>36.66666666666667</ele><time>2026-05-03T15:01:18.999Z</time></trkpt><trkpt lat="44.727015295348906" lon="10.638857638078136"><ele>36.333333333333336</ele><time>2026-05-03T15:01:19.999Z</time></trkpt><trkpt lat="44.72706850058935" lon="10.638596430318918"><ele>36.0</ele><time>2026-05-03T15:01:20.999Z</time></trkpt><trkpt lat="44.72712073918166" lon="10.638341761429848"><ele>36.0</ele><time>2026-05-03T15:01:21.999Z</time></trkpt><trkpt lat="44.72717291635946" lon="10.638089977164327"><ele>36.0</ele><time>2026-05-03T15:01:22.999Z</time></trkpt><trkpt lat="44.727223450740176" lon="10.637842333450315"><ele>36.0</ele><time>2026-05-03T15:01:23.999Z</time></trkpt><trkpt lat="44.72727298317241" lon="10.637594773263903"><ele>36.333333333333336</ele><time>2026-05-03T15:01:24.999Z</time></trkpt><trkpt lat="44.72732486138284" lon="10.637342145071313"><ele>36.66666666666667</ele><time>2026-05-03T15:01:25.999Z</time></trkpt><trkpt lat="44.72737613544761" lon="10.63709338085193"><ele>37.0</ele><time>2026-05-03T15:01:26.999Z</time></trkpt><trkpt lat="44.7274320706188" lon="10.636844635338093"><ele>37.333333333333336</ele><time>2026-05-03T15:01:27.999Z</time></trkpt><trkpt lat="44.727480882687104" lon="10.636586693487379"><ele>37.666666666666664</ele><time>2026-05-03T15:01:28.999Z</time></trkpt><trkpt lat="44.727532271852574" lon="10.63633104589382"><ele>38.0</ele><time>2026-05-03T15:01:29.999Z</time></trkpt><trkpt lat="44.7275856648326" lon="10.636077901045834"><ele>37.33333333333333</ele><time>2026-05-03T15:01:30.999Z</time></trkpt><trkpt lat="44.72763901868634" lon="10.635828104123634"><ele>36.666666666666664</ele><time>2026-05-03T15:01:31.999Z</time></trkpt><trkpt lat="44.727693345456935" lon="10.635569945232046"><ele>36.0</ele><time>2026-05-03T15:01:32.999Z</time></trkpt><trkpt lat="44.72774975331867" lon="10.635309452584728"><ele>35.666666666666664</ele><time>2026-05-03T15:01:33.999Z</time></trkpt><trkpt lat="44.727806155130544" lon="10.635049518882477"><ele>35.33333333333333</ele><time>2026-05-03T15:01:34.999Z</time></trkpt><trkpt lat="44.727862873936516" lon="10.634784853994232"><ele>35.0</ele><time>2026-05-03T15:01:35.999Z</time></trkpt><trkpt lat="44.72792133849796" lon="10.634519345504726"><ele>35.0</ele><time>2026-05-03T15:01:36.999Z</time></trkpt><trkpt lat="44.727982348730464" lon="10.634251556047909"><ele>35.0</ele><time>2026-05-03T15:01:37.999Z</time></trkpt><trkpt lat="44.72804330757779" lon="10.63398213104991"><ele>35.0</ele><time>2026-05-03T15:01:38.999Z</time></trkpt><trkpt lat="44.72810709159914" lon="10.633708473978809"><ele>35.33333333333333</ele><time>2026-05-03T15:01:39.999Z</time></trkpt><trkpt lat="44.728169957025536" lon="10.633430580951815"><ele>35.666666666666664</ele><time>2026-05-03T15:01:40.999Z</time></trkpt><trkpt lat="44.72823670474126" lon="10.63314835650196"><ele>36.0</ele><time>2026-05-03T15:01:41.999Z</time></trkpt><trkpt lat="44.728303686462816" lon="10.632861313967013"><ele>36.333333333333336</ele><time>2026-05-03T15:01:42.999Z</time></trkpt><trkpt lat="44.7283710913695" lon="10.632575024656397"><ele>36.66666666666667</ele><time>2026-05-03T15:01:43.999Z</time></trkpt><trkpt lat="44.72843977759106" lon="10.632287671158737"><ele>37.0</ele><time>2026-05-03T15:01:44.999Z</time></trkpt><trkpt lat="44.72850546013997" lon="10.63199577163716"><ele>36.66666666666667</ele><time>2026-05-03T15:01:45.999Z</time></trkpt><trkpt lat="44.728576101482524" lon="10.631701507161932"><ele>36.333333333333336</ele><time>2026-05-03T15:01:46.999Z</time></trkpt><trkpt lat="44.72864623241235" lon="10.631402148101781"><ele>36.0</ele><time>2026-05-03T15:01:47.999Z</time></trkpt><trkpt lat="44.7287158547804" lon="10.63110261541581"><ele>36.0</ele><time>2026-05-03T15:01:48.999Z</time></trkpt><trkpt lat="44.72878712334847" lon="10.630800070070828"><ele>36.0</ele><time>2026-05-03T15:01:49.999Z</time></trkpt><trkpt lat="44.72886048005319" lon="10.630489548202624"><ele>36.5</ele><time>2026-05-03T15:01:50.999Z</time></trkpt><trkpt lat="44.728936574874126" lon="10.630176495470275"><ele>37.0</ele><time>2026-05-03T15:01:51.999Z</time></trkpt><trkpt lat="44.7290122235133" lon="10.629858833182066"><ele>37.0</ele><time>2026-05-03T15:01:52.999Z</time></trkpt><trkpt lat="44.72908877512939" lon="10.629537500891074"><ele>37.0</ele><time>2026-05-03T15:01:53.999Z</time></trkpt><trkpt lat="44.729166169708385" lon="10.629214387187139"><ele>38.0</ele><time>2026-05-03T15:01:54.999Z</time></trkpt><trkpt lat="44.72923993106667" lon="10.628893739932012"><ele>39.0</ele><time>2026-05-03T15:01:55.999Z</time></trkpt><trkpt lat="44.72931438465718" lon="10.628570526728922"><ele>39.0</ele><time>2026-05-03T15:01:56.999Z</time></trkpt><trkpt lat="44.729389446582374" lon="10.62824431435077"><ele>39.0</ele><time>2026-05-03T15:01:57.999Z</time></trkpt><trkpt lat="44.729464594104854" lon="10.627917830439523"><ele>39.0</ele><time>2026-05-03T15:01:58.999Z</time></trkpt><trkpt lat="44.72953712639108" lon="10.62758696048404"><ele>39.0</ele><time>2026-05-03T15:01:59.999Z</time></trkpt><trkpt lat="44.729610545424485" lon="10.62725639314317"><ele>39.5</ele><time>2026-05-03T15:02:00.999Z</time></trkpt><trkpt lat="44.72968434388284" lon="10.62692446228176"><ele>40.0</ele><time>2026-05-03T15:02:01.999Z</time></trkpt><trkpt lat="44.72975741617503" lon="10.626595525615533"><ele>40.0</ele><time>2026-05-03T15:02:02.999Z</time></trkpt><trkpt lat="44.72983438803764" lon="10.626266196321273"><ele>40.0</ele><time>2026-05-03T15:02:03.999Z</time></trkpt><trkpt lat="44.72991205665596" lon="10.625937506994777"><ele>41.0</ele><time>2026-05-03T15:02:04.999Z</time></trkpt><trkpt lat="44.72999046170885" lon="10.625607231268345"><ele>42.0</ele><time>2026-05-03T15:02:05.999Z</time></trkpt><trkpt lat="44.7300681778853" lon="10.625270990328168"><ele>42.0</ele><time>2026-05-03T15:02:06.999Z</time></trkpt><trkpt lat="44.73014736094432" lon="10.624930918773199"><ele>42.0</ele><time>2026-05-03T15:02:07.999Z</time></trkpt><trkpt lat="44.73022776486424" lon="10.624587576193589"><ele>41.5</ele><time>2026-05-03T15:02:08.999Z</time></trkpt><trkpt lat="44.73030815651507" lon="10.624240221063905"><ele>41.0</ele><time>2026-05-03T15:02:09.999Z</time></trkpt><trkpt lat="44.73038971040495" lon="10.623890290177107"><ele>43.5</ele><time>2026-05-03T15:02:10.999Z</time></trkpt><trkpt lat="44.730473074524895" lon="10.623537688479527"><ele>46.0</ele><time>2026-05-03T15:02:11.999Z</time></trkpt><trkpt lat="44.730557795617116" lon="10.62318588173127"><ele>46.0</ele><time>2026-05-03T15:02:12.999Z</time></trkpt><trkpt lat="44.730643931035246" lon="10.622832664936452"><ele>46.0</ele><time>2026-05-03T15:02:13.999Z</time></trkpt><trkpt lat="44.73072765248114" lon="10.622480336957404"><ele>45.0</ele><time>2026-05-03T15:02:14.999Z</time></trkpt><trkpt lat="44.7308110244501" lon="10.622128038768716"><ele>44.0</ele><time>2026-05-03T15:02:15.999Z</time></trkpt><trkpt lat="44.730894081098285" lon="10.621776454989124"><ele>44.0</ele><time>2026-05-03T15:02:16.999Z</time></trkpt><trkpt lat="44.73097759687238" lon="10.621424474805108"><ele>44.0</ele><time>2026-05-03T15:02:17.999Z</time></trkpt><trkpt lat="44.73106344048081" lon="10.621073575915181"><ele>44.0</ele><time>2026-05-03T15:02:18.999Z</time></trkpt><trkpt lat="44.731146984556155" lon="10.62072261134139"><ele>44.0</ele><time>2026-05-03T15:02:19.999Z</time></trkpt><trkpt lat="44.73122901488586" lon="10.620370520773923"><ele>42.5</ele><time>2026-05-03T15:02:20.999Z</time></trkpt><trkpt lat="44.73131231544672" lon="10.620017806009702"><ele>41.0</ele><time>2026-05-03T15:02:21.999Z</time></trkpt><trkpt lat="44.73139577234335" lon="10.619663417667732"><ele>40.0</ele><time>2026-05-03T15:02:22.999Z</time></trkpt><trkpt lat="44.7314787968906" lon="10.61930509070305"><ele>39.0</ele><time>2026-05-03T15:02:23.999Z</time></trkpt><trkpt lat="44.73156390307075" lon="10.61894379722298"><ele>39.5</ele><time>2026-05-03T15:02:24.999Z</time></trkpt><trkpt lat="44.73165369947693" lon="10.618580668252878"><ele>40.0</ele><time>2026-05-03T15:02:25.999Z</time></trkpt><trkpt lat="44.73174885582984" lon="10.618209641118932"><ele>40.0</ele><time>2026-05-03T15:02:26.999Z</time></trkpt><trkpt lat="44.731845275886116" lon="10.6178356531674"><ele>40.0</ele><time>2026-05-03T15:02:27.999Z</time></trkpt><trkpt lat="44.73194079580999" lon="10.617452182316086"><ele>41.0</ele><time>2026-05-03T15:02:28.999Z</time></trkpt><trkpt lat="44.732037855135644" lon="10.617057708251037"><ele>42.0</ele><time>2026-05-03T15:02:29.999Z</time></trkpt><trkpt lat="44.732136647185676" lon="10.616643439981006"><ele>43.0</ele><time>2026-05-03T15:02:30.999Z</time></trkpt><trkpt lat="44.732234236589235" lon="10.616228272843811"><ele>44.0</ele><time>2026-05-03T15:02:31.999Z</time></trkpt><trkpt lat="44.73233152355401" lon="10.615814081983691"><ele>44.5</ele><time>2026-05-03T15:02:32.999Z</time></trkpt><trkpt lat="44.732428154340745" lon="10.61540131994142"><ele>45.0</ele><time>2026-05-03T15:02:33.999Z</time></trkpt><trkpt lat="44.73252348049323" lon="10.61498949275732"><ele>45.0</ele><time>2026-05-03T15:02:34.999Z</time></trkpt><trkpt lat="44.732617175089395" lon="10.614582976049796"><ele>45.0</ele><time>2026-05-03T15:02:35.999Z</time></trkpt><trkpt lat="44.732713475498876" lon="10.614178889285665"><ele>45.0</ele><time>2026-05-03T15:02:36.999Z</time></trkpt><trkpt lat="44.73281204811898" lon="10.613778697368836"><ele>45.0</ele><time>2026-05-03T15:02:37.999Z</time></trkpt><trkpt lat="44.73290736972791" lon="10.613381967392174"><ele>45.0</ele><time>2026-05-03T15:02:38.999Z</time></trkpt><trkpt lat="44.73300084477334" lon="10.612988893143315"><ele>45.0</ele><time>2026-05-03T15:02:39.999Z</time></trkpt><trkpt lat="44.73309198075949" lon="10.612600880980844"><ele>45.0</ele><time>2026-05-03T15:02:40.999Z</time></trkpt><trkpt lat="44.73318247736" lon="10.612215641598139"><ele>45.0</ele><time>2026-05-03T15:02:41.999Z</time></trkpt><trkpt lat="44.733271308534675" lon="10.61183295334802"><ele>45.0</ele><time>2026-05-03T15:02:42.999Z</time></trkpt><trkpt lat="44.73335944083963" lon="10.611454463728846"><ele>45.0</ele><time>2026-05-03T15:02:43.999Z</time></trkpt><trkpt lat="44.73344784733765" lon="10.61107601311828"><ele>45.0</ele><time>2026-05-03T15:02:44.999Z</time></trkpt><trkpt lat="44.73353282132975" lon="10.610692205248428"><ele>45.0</ele><time>2026-05-03T15:02:45.999Z</time></trkpt><trkpt lat="44.73361584454437" lon="10.610303877751802"><ele>44.5</ele><time>2026-05-03T15:02:46.999Z</time></trkpt><trkpt lat="44.7337011122269" lon="10.609915423795224"><ele>44.0</ele><time>2026-05-03T15:02:47.999Z</time></trkpt><trkpt lat="44.733787803335545" lon="10.609522485897958"><ele>45.0</ele><time>2026-05-03T15:02:48.999Z</time></trkpt><trkpt lat="44.733877042042096" lon="10.609123426357437"><ele>46.0</ele><time>2026-05-03T15:02:49.999Z</time></trkpt><trkpt lat="44.733971805019316" lon="10.608722996551379"><ele>44.5</ele><time>2026-05-03T15:02:50.999Z</time></trkpt><trkpt lat="44.7340708196379" lon="10.608321533911543"><ele>43.0</ele><time>2026-05-03T15:02:51.999Z</time></trkpt><trkpt lat="44.73416758825424" lon="10.607919631100232"><ele>41.0</ele><time>2026-05-03T15:02:52.999Z</time></trkpt><trkpt lat="44.73426224814588" lon="10.607517875714302"><ele>39.0</ele><time>2026-05-03T15:02:53.999Z</time></trkpt><trkpt lat="44.73435696530012" lon="10.607116379956294"><ele>39.0</ele><time>2026-05-03T15:02:54.999Z</time></trkpt><trkpt lat="44.7344525236964" lon="10.606713290675884"><ele>39.0</ele><time>2026-05-03T15:02:55.999Z</time></trkpt><trkpt lat="44.73454882245421" lon="10.606309005942617"><ele>39.0</ele><time>2026-05-03T15:02:56.999Z</time></trkpt><trkpt lat="44.73464631739793" lon="10.605901720955222"><ele>39.0</ele><time>2026-05-03T15:02:57.999Z</time></trkpt><trkpt lat="44.73474402996661" lon="10.605492527644868"><ele>38.0</ele><time>2026-05-03T15:02:58.999Z</time></trkpt><trkpt lat="44.73484234303488" lon="10.60508126045441"><ele>37.0</ele><time>2026-05-03T15:02:59.999Z</time></trkpt><trkpt lat="44.73494290943046" lon="10.604670149274895"><ele>37.0</ele><time>2026-05-03T15:03:00.999Z</time></trkpt><trkpt lat="44.7350390876485" lon="10.60425913107371"><ele>37.0</ele><time>2026-05-03T15:03:01.999Z</time></trkpt><trkpt lat="44.73513352526404" lon="10.603847312163305"><ele>39.0</ele><time>2026-05-03T15:03:02.999Z</time></trkpt><trkpt lat="44.73523038625352" lon="10.603436302549014"><ele>41.0</ele><time>2026-05-03T15:03:03.999Z</time></trkpt><trkpt lat="44.735325730465135" lon="10.603022605438792"><ele>40.5</ele><time>2026-05-03T15:03:04.999Z</time></trkpt><trkpt lat="44.73542110328842" lon="10.602611676266118"><ele>40.0</ele><time>2026-05-03T15:03:05.999Z</time></trkpt><trkpt lat="44.735516078643826" lon="10.602199775451952"><ele>40.0</ele><time>2026-05-03T15:03:06.999Z</time></trkpt><trkpt lat="44.735611299024484" lon="10.60179133274306"><ele>40.0</ele><time>2026-05-03T15:03:07.999Z</time></trkpt><trkpt lat="44.7357074851549" lon="10.601380655006995"><ele>40.0</ele><time>2026-05-03T15:03:08.999Z</time></trkpt><trkpt lat="44.7358048183974" lon="10.600971339262534"><ele>40.0</ele><time>2026-05-03T15:03:09.999Z</time></trkpt><trkpt lat="44.73590356432425" lon="10.600562472592463"><ele>39.0</ele><time>2026-05-03T15:03:10.999Z</time></trkpt><trkpt lat="44.736001638016155" lon="10.60015076755913"><ele>38.0</ele><time>2026-05-03T15:03:11.999Z</time></trkpt><trkpt lat="44.73610200769151" lon="10.599738098345863"><ele>38.5</ele><time>2026-05-03T15:03:12.999Z</time></trkpt><trkpt lat="44.73620527133748" lon="10.599328038628856"><ele>39.0</ele><time>2026-05-03T15:03:13.999Z</time></trkpt><trkpt lat="44.736308463476995" lon="10.598919929006517"><ele>39.0</ele><time>2026-05-03T15:03:14.999Z</time></trkpt><trkpt lat="44.736410224433484" lon="10.598512045906702"><ele>39.0</ele><time>2026-05-03T15:03:15.999Z</time></trkpt><trkpt lat="44.73650997734467" lon="10.59810622792209"><ele>38.5</ele><time>2026-05-03T15:03:16.999Z</time></trkpt><trkpt lat="44.736608097430036" lon="10.59770123889572"><ele>38.0</ele><time>2026-05-03T15:03:17.999Z</time></trkpt><trkpt lat="44.73670337489783" lon="10.597299237132589"><ele>38.0</ele><time>2026-05-03T15:03:18.999Z</time></trkpt><trkpt lat="44.73679608557094" lon="10.596898000366753"><ele>38.0</ele><time>2026-05-03T15:03:19.999Z</time></trkpt><trkpt lat="44.73688875386363" lon="10.596499219195314"><ele>37.5</ele><time>2026-05-03T15:03:20.999Z</time></trkpt><trkpt lat="44.73698240666164" lon="10.596101394062696"><ele>37.0</ele><time>2026-05-03T15:03:21.999Z</time></trkpt><trkpt lat="44.73707638485347" lon="10.595704569151966"><ele>36.5</ele><time>2026-05-03T15:03:22.999Z</time></trkpt><trkpt lat="44.7371687165704" lon="10.5953072079276"><ele>36.0</ele><time>2026-05-03T15:03:23.999Z</time></trkpt><trkpt lat="44.73726102936884" lon="10.594911300997197"><ele>36.0</ele><time>2026-05-03T15:03:24.999Z</time></trkpt><trkpt lat="44.737354816848736" lon="10.594515188766326"><ele>36.0</ele><time>2026-05-03T15:03:25.999Z</time></trkpt><trkpt lat="44.73744947940762" lon="10.59412230166096"><ele>35.5</ele><time>2026-05-03T15:03:26.999Z</time></trkpt><trkpt lat="44.73754459069671" lon="10.59373107450933"><ele>35.0</ele><time>2026-05-03T15:03:27.999Z</time></trkpt><trkpt lat="44.737637713646194" lon="10.593340415937657"><ele>35.0</ele><time>2026-05-03T15:03:28.999Z</time></trkpt><trkpt lat="44.73773016548249" lon="10.59295206107481"><ele>35.0</ele><time>2026-05-03T15:03:29.999Z</time></trkpt><trkpt lat="44.7378204662197" lon="10.592568549561996"><ele>35.0</ele><time>2026-05-03T15:03:30.999Z</time></trkpt><trkpt lat="44.73790977502432" lon="10.592190164035454"><ele>35.0</ele><time>2026-05-03T15:03:31.999Z</time></trkpt><trkpt lat="44.73799653976097" lon="10.59181813512275"><ele>35.5</ele><time>2026-05-03T15:03:32.999Z</time></trkpt><trkpt lat="44.73808043793675" lon="10.591452565592093"><ele>36.0</ele><time>2026-05-03T15:03:33.999Z</time></trkpt><trkpt lat="44.73816659329193" lon="10.59108815264583"><ele>36.0</ele><time>2026-05-03T15:03:34.999Z</time></trkpt><trkpt lat="44.73825527109817" lon="10.590724284054756"><ele>36.0</ele><time>2026-05-03T15:03:35.999Z</time></trkpt><trkpt lat="44.73834245535802" lon="10.590362327639046"><ele>36.0</ele><time>2026-05-03T15:03:36.999Z</time></trkpt><trkpt lat="44.73842888457079" lon="10.589999587781932"><ele>36.0</ele><time>2026-05-03T15:03:37.999Z</time></trkpt><trkpt lat="44.73851493024934" lon="10.589638356936836"><ele>36.5</ele><time>2026-05-03T15:03:38.999Z</time></trkpt><trkpt lat="44.73860051587312" lon="10.58927778028615"><ele>37.0</ele><time>2026-05-03T15:03:39.999Z</time></trkpt><trkpt lat="44.73868415062321" lon="10.588920064077568"><ele>38.5</ele><time>2026-05-03T15:03:40.999Z</time></trkpt><trkpt lat="44.738765926249314" lon="10.588564048222871"><ele>40.0</ele><time>2026-05-03T15:03:41.999Z</time></trkpt><trkpt lat="44.73884816211051" lon="10.588207601327774"><ele>40.0</ele><time>2026-05-03T15:03:42.999Z</time></trkpt><trkpt lat="44.73893128289337" lon="10.58785254579623"><ele>40.0</ele><time>2026-05-03T15:03:43.999Z</time></trkpt><trkpt lat="44.73901333537529" lon="10.58750016616043"><ele>39.0</ele><time>2026-05-03T15:03:44.999Z</time></trkpt><trkpt lat="44.73909218481195" lon="10.587148755219747"><ele>38.0</ele><time>2026-05-03T15:03:45.999Z</time></trkpt><trkpt lat="44.739170591770694" lon="10.58679526438059"><ele>38.0</ele><time>2026-05-03T15:03:46.999Z</time></trkpt><trkpt lat="44.73925045210898" lon="10.586443242697383"><ele>38.0</ele><time>2026-05-03T15:03:47.999Z</time></trkpt><trkpt lat="44.73933337957957" lon="10.586092760757253"><ele>37.0</ele><time>2026-05-03T15:03:48.999Z</time></trkpt><trkpt lat="44.7394202310789" lon="10.585740763422411"><ele>36.0</ele><time>2026-05-03T15:03:49.999Z</time></trkpt><trkpt lat="44.739506288608766" lon="10.585387419883924"><ele>36.5</ele><time>2026-05-03T15:03:50.999Z</time></trkpt><trkpt lat="44.73959111188442" lon="10.585029685776254"><ele>37.0</ele><time>2026-05-03T15:03:51.999Z</time></trkpt><trkpt lat="44.739675545047966" lon="10.584667890119144"><ele>37.5</ele><time>2026-05-03T15:03:52.999Z</time></trkpt><trkpt lat="44.739760780669314" lon="10.584305740425492"><ele>38.0</ele><time>2026-05-03T15:03:53.999Z</time></trkpt><trkpt lat="44.73984805992068" lon="10.583941021152993"><ele>37.5</ele><time>2026-05-03T15:03:54.999Z</time></trkpt><trkpt lat="44.739935039790154" lon="10.583574032063988"><ele>37.0</ele><time>2026-05-03T15:03:55.999Z</time></trkpt><trkpt lat="44.74002283024328" lon="10.58320465049412"><ele>37.0</ele><time>2026-05-03T15:03:56.999Z</time></trkpt><trkpt lat="44.740111563815006" lon="10.582832268380246"><ele>37.0</ele><time>2026-05-03T15:03:57.999Z</time></trkpt><trkpt lat="44.74019942175008" lon="10.582455994824585"><ele>37.0</ele><time>2026-05-03T15:03:58.999Z</time></trkpt><trkpt lat="44.74028574644578" lon="10.582081046015949"><ele>37.0</ele><time>2026-05-03T15:03:59.999Z</time></trkpt><trkpt lat="44.7403712058815" lon="10.581702322270475"><ele>37.0</ele><time>2026-05-03T15:04:00.999Z</time></trkpt><trkpt lat="44.740458771563254" lon="10.581322895287892"><ele>37.0</ele><time>2026-05-03T15:04:01.999Z</time></trkpt><trkpt lat="44.7405495098796" lon="10.580943588032696"><ele>37.5</ele><time>2026-05-03T15:04:02.999Z</time></trkpt><trkpt lat="44.74064281761068" lon="10.5805620091747"><ele>38.0</ele><time>2026-05-03T15:04:03.999Z</time></trkpt><trkpt lat="44.74073698404539" lon="10.580182219255677"><ele>38.0</ele><time>2026-05-03T15:04:04.999Z</time></trkpt><trkpt lat="44.74082823621459" lon="10.579803533503128"><ele>38.0</ele><time>2026-05-03T15:04:05.999Z</time></trkpt><trkpt lat="44.740920727284916" lon="10.57941960183255"><ele>38.0</ele><time>2026-05-03T15:04:06.999Z</time></trkpt><trkpt lat="44.741013983228214" lon="10.579037088551042"><ele>38.0</ele><time>2026-05-03T15:04:07.999Z</time></trkpt><trkpt lat="44.74110652922615" lon="10.578655220825393"><ele>37.0</ele><time>2026-05-03T15:04:08.999Z</time></trkpt><trkpt lat="44.741199705227515" lon="10.578273535686751"><ele>36.0</ele><time>2026-05-03T15:04:09.999Z</time></trkpt><trkpt lat="44.7412955151086" lon="10.577891283700689"><ele>35.5</ele><time>2026-05-03T15:04:10.999Z</time></trkpt><trkpt lat="44.741394686169386" lon="10.5775112701439"><ele>35.0</ele><time>2026-05-03T15:04:11.999Z</time></trkpt><trkpt lat="44.74149854123638" lon="10.577137404502848"><ele>35.0</ele><time>2026-05-03T15:04:12.999Z</time></trkpt><trkpt lat="44.74160633997942" lon="10.576765066756879"><ele>35.0</ele><time>2026-05-03T15:04:13.999Z</time></trkpt><trkpt lat="44.74171657370496" lon="10.57639429508238"><ele>35.0</ele><time>2026-05-03T15:04:14.999Z</time></trkpt><trkpt lat="44.74183025339063" lon="10.576026181908842"><ele>35.0</ele><time>2026-05-03T15:04:15.999Z</time></trkpt><trkpt lat="44.74194723662218" lon="10.57565911294408"><ele>34.5</ele><time>2026-05-03T15:04:16.999Z</time></trkpt><trkpt lat="44.74206450168557" lon="10.575293364899192"><ele>34.0</ele><time>2026-05-03T15:04:17.999Z</time></trkpt><trkpt lat="44.74218671505231" lon="10.574931529181509"><ele>34.0</ele><time>2026-05-03T15:04:18.999Z</time></trkpt><trkpt lat="44.74231130266428" lon="10.574574120931498"><ele>34.0</ele><time>2026-05-03T15:04:19.998Z</time></trkpt><trkpt lat="44.74243598334727" lon="10.574223827545016"><ele>34.0</ele><time>2026-05-03T15:04:20.998Z</time></trkpt><trkpt lat="44.742561600245935" lon="10.573877429038259"><ele>34.0</ele><time>2026-05-03T15:04:21.998Z</time></trkpt><trkpt lat="44.7426905497097" lon="10.573536864939955"><ele>33.5</ele><time>2026-05-03T15:04:22.998Z</time></trkpt><trkpt lat="44.74281990599474" lon="10.573203691275808"><ele>33.0</ele><time>2026-05-03T15:04:23.998Z</time></trkpt><trkpt lat="44.74294909456859" lon="10.572874947726497"><ele>33.0</ele><time>2026-05-03T15:04:24.999Z</time></trkpt><trkpt lat="44.74308039168119" lon="10.572548034505479"><ele>33.0</ele><time>2026-05-03T15:04:25.999Z</time></trkpt><trkpt lat="44.74321795629995" lon="10.572224019803729"><ele>33.5</ele><time>2026-05-03T15:04:26.999Z</time></trkpt><trkpt lat="44.74336424660746" lon="10.571911070563589"><ele>34.0</ele><time>2026-05-03T15:04:27.999Z</time></trkpt><trkpt lat="44.74351312630605" lon="10.571602177503475"><ele>34.0</ele><time>2026-05-03T15:04:28.999Z</time></trkpt><trkpt lat="44.74366425298714" lon="10.571289453453197"><ele>34.0</ele><time>2026-05-03T15:04:29.999Z</time></trkpt><trkpt lat="44.743815705615276" lon="10.570976709087809"><ele>33.5</ele><time>2026-05-03T15:04:30.999Z</time></trkpt><trkpt lat="44.74396681240859" lon="10.570663520295252"><ele>33.0</ele><time>2026-05-03T15:04:31.999Z</time></trkpt><trkpt lat="44.74411785197334" lon="10.570348664348778"><ele>33.0</ele><time>2026-05-03T15:04:32.999Z</time></trkpt><trkpt lat="44.74426802439344" lon="10.570034533466272"><ele>33.0</ele><time>2026-05-03T15:04:33.999Z</time></trkpt><trkpt lat="44.74441893373608" lon="10.56971975964467"><ele>33.5</ele><time>2026-05-03T15:04:34.999Z</time></trkpt><trkpt lat="44.74456838652521" lon="10.569406777090203"><ele>34.0</ele><time>2026-05-03T15:04:35.999Z</time></trkpt><trkpt lat="44.74471787346584" lon="10.569094136088635"><ele>34.0</ele><time>2026-05-03T15:04:36.999Z</time></trkpt><trkpt lat="44.74486691601801" lon="10.568781765636064"><ele>34.0</ele><time>2026-05-03T15:04:37.999Z</time></trkpt><trkpt lat="44.745015024455306" lon="10.56847157063114"><ele>34.5</ele><time>2026-05-03T15:04:38.999Z</time></trkpt><trkpt lat="44.745162404551365" lon="10.568162294754938"><ele>35.0</ele><time>2026-05-03T15:04:39.999Z</time></trkpt><trkpt lat="44.745308696631476" lon="10.567854045467078"><ele>35.5</ele><time>2026-05-03T15:04:40.999Z</time></trkpt><trkpt lat="44.7454528966758" lon="10.567548970991341"><ele>36.0</ele><time>2026-05-03T15:04:41.999Z</time></trkpt><trkpt lat="44.745598293623715" lon="10.567243777148475"><ele>36.5</ele><time>2026-05-03T15:04:42.999Z</time></trkpt><trkpt lat="44.745743106695926" lon="10.566938854527608"><ele>37.0</ele><time>2026-05-03T15:04:43.999Z</time></trkpt><trkpt lat="44.74588907280638" lon="10.566645223757961"><ele>37.0</ele><time>2026-05-03T15:04:44.999Z</time></trkpt><trkpt lat="44.746033296335995" lon="10.56635305853178"><ele>37.0</ele><time>2026-05-03T15:04:45.999Z</time></trkpt><trkpt lat="44.746176366445425" lon="10.566061075037435"><ele>35.5</ele><time>2026-05-03T15:04:46.999Z</time></trkpt><trkpt lat="44.74631755033519" lon="10.565770300587326"><ele>34.0</ele><time>2026-05-03T15:04:47.999Z</time></trkpt><trkpt lat="44.74645714131455" lon="10.565481650010572"><ele>35.0</ele><time>2026-05-03T15:04:48.999Z</time></trkpt><trkpt lat="44.74659594701544" lon="10.565189369197544"><ele>36.0</ele><time>2026-05-03T15:04:49.999Z</time></trkpt><trkpt lat="44.746735488477924" lon="10.564893737788324"><ele>36.0</ele><time>2026-05-03T15:04:50.999Z</time></trkpt><trkpt lat="44.746874269471846" lon="10.564601969252308"><ele>36.0</ele><time>2026-05-03T15:04:51.999Z</time></trkpt><trkpt lat="44.74701110248596" lon="10.564311336440767"><ele>35.0</ele><time>2026-05-03T15:04:52.999Z</time></trkpt><trkpt lat="44.74714770765283" lon="10.56402161139123"><ele>34.0</ele><time>2026-05-03T15:04:53.999Z</time></trkpt><trkpt lat="44.74728333695162" lon="10.563733523376342"><ele>34.5</ele><time>2026-05-03T15:04:54.999Z</time></trkpt><trkpt lat="44.7474192406905" lon="10.563445363936804"><ele>35.0</ele><time>2026-05-03T15:04:55.999Z</time></trkpt><trkpt lat="44.74755642462863" lon="10.563158426455418"><ele>35.0</ele><time>2026-05-03T15:04:56.999Z</time></trkpt><trkpt lat="44.747693989627166" lon="10.562870830392711"><ele>35.0</ele><time>2026-05-03T15:04:57.999Z</time></trkpt><trkpt lat="44.747831232939646" lon="10.562584934763375"><ele>35.0</ele><time>2026-05-03T15:04:58.999Z</time></trkpt><trkpt lat="44.747968133674874" lon="10.562297104696038"><ele>35.0</ele><time>2026-05-03T15:04:59.999Z</time></trkpt><trkpt lat="44.74810438808805" lon="10.562007891456007"><ele>35.5</ele><time>2026-05-03T15:05:00.999Z</time></trkpt><trkpt lat="44.748242877251336" lon="10.561714427889092"><ele>36.0</ele><time>2026-05-03T15:05:01.999Z</time></trkpt><trkpt lat="44.748381251383314" lon="10.561423742289834"><ele>35.5</ele><time>2026-05-03T15:05:02.999Z</time></trkpt><trkpt lat="44.748520690922625" lon="10.561130761395027"><ele>35.0</ele><time>2026-05-03T15:05:03.999Z</time></trkpt><trkpt lat="44.748659360804716" lon="10.560836400197672"><ele>35.0</ele><time>2026-05-03T15:05:04.999Z</time></trkpt><trkpt lat="44.74879955123304" lon="10.560539790533177"><ele>35.0</ele><time>2026-05-03T15:05:05.999Z</time></trkpt><trkpt lat="44.74894064603946" lon="10.560241744030428"><ele>35.0</ele><time>2026-05-03T15:05:06.999Z</time></trkpt><trkpt lat="44.74908281527233" lon="10.559938796204127"><ele>35.0</ele><time>2026-05-03T15:05:07.999Z</time></trkpt><trkpt lat="44.749225308630606" lon="10.559632539490368"><ele>35.0</ele><time>2026-05-03T15:05:08.999Z</time></trkpt><trkpt lat="44.749366917705345" lon="10.559325582675534"><ele>35.0</ele><time>2026-05-03T15:05:09.999Z</time></trkpt><trkpt lat="44.74950994069357" lon="10.559016423218512"><ele>34.5</ele><time>2026-05-03T15:05:10.999Z</time></trkpt><trkpt lat="44.74965220242661" lon="10.5587067110262"><ele>34.0</ele><time>2026-05-03T15:05:11.999Z</time></trkpt><trkpt lat="44.749795696826965" lon="10.558400601737974"><ele>34.0</ele><time>2026-05-03T15:05:12.999Z</time></trkpt><trkpt lat="44.749939857012905" lon="10.558094869636056"><ele>34.0</ele><time>2026-05-03T15:05:13.999Z</time></trkpt><trkpt lat="44.7500857621257" lon="10.557787838914265"><ele>33.0</ele><time>2026-05-03T15:05:14.999Z</time></trkpt><trkpt lat="44.75023275119213" lon="10.557483091308711"><ele>32.0</ele><time>2026-05-03T15:05:15.999Z</time></trkpt><trkpt lat="44.750380005448854" lon="10.557176561184692"><ele>33.0</ele><time>2026-05-03T15:05:16.999Z</time></trkpt><trkpt lat="44.75052477353791" lon="10.55686600949454"><ele>34.0</ele><time>2026-05-03T15:05:17.999Z</time></trkpt><trkpt lat="44.75066335477101" lon="10.55655288035894"><ele>34.0</ele><time>2026-05-03T15:05:18.999Z</time></trkpt><trkpt lat="44.75079885647906" lon="10.556234020450683"><ele>34.0</ele><time>2026-05-03T15:05:19.999Z</time></trkpt><trkpt lat="44.75093768422311" lon="10.555912926331281"><ele>33.0</ele><time>2026-05-03T15:05:20.999Z</time></trkpt><trkpt lat="44.75108318385451" lon="10.555598110649836"><ele>32.0</ele><time>2026-05-03T15:05:21.999Z</time></trkpt><trkpt lat="44.751231965963086" lon="10.555283290276899"><ele>32.0</ele><time>2026-05-03T15:05:22.999Z</time></trkpt><trkpt lat="44.75138155102796" lon="10.554963860002708"><ele>32.0</ele><time>2026-05-03T15:05:23.999Z</time></trkpt><trkpt lat="44.751533918373546" lon="10.554641933925412"><ele>32.5</ele><time>2026-05-03T15:05:24.999Z</time></trkpt><trkpt lat="44.7516875776142" lon="10.554316374338814"><ele>33.0</ele><time>2026-05-03T15:05:25.999Z</time></trkpt><trkpt lat="44.751843790043516" lon="10.55399035682212"><ele>32.0</ele><time>2026-05-03T15:05:26.999Z</time></trkpt><trkpt lat="44.75200056402648" lon="10.55366206343386"><ele>31.0</ele><time>2026-05-03T15:05:27.999Z</time></trkpt><trkpt lat="44.752156839108366" lon="10.553329367593964"><ele>31.0</ele><time>2026-05-03T15:05:28.999Z</time></trkpt><trkpt lat="44.752314183904794" lon="10.55299313319727"><ele>31.0</ele><time>2026-05-03T15:05:29.999Z</time></trkpt><trkpt lat="44.75247352799161" lon="10.552654162999097"><ele>31.5</ele><time>2026-05-03T15:05:30.999Z</time></trkpt><trkpt lat="44.75263329107693" lon="10.552318620079195"><ele>32.0</ele><time>2026-05-03T15:05:31.999Z</time></trkpt><trkpt lat="44.75279295556199" lon="10.551983317669949"><ele>32.0</ele><time>2026-05-03T15:05:32.999Z</time></trkpt><trkpt lat="44.75295192826565" lon="10.551646964550478"><ele>32.0</ele><time>2026-05-03T15:05:33.999Z</time></trkpt><trkpt lat="44.75311064283242" lon="10.551313313567434"><ele>33.0</ele><time>2026-05-03T15:05:34.999Z</time></trkpt><trkpt lat="44.75326816875193" lon="10.550979961490576"><ele>34.0</ele><time>2026-05-03T15:05:35.999Z</time></trkpt><trkpt lat="44.75342455828615" lon="10.550650110661515"><ele>33.5</ele><time>2026-05-03T15:05:36.999Z</time></trkpt><trkpt lat="44.75357956014357" lon="10.550325554902688"><ele>33.0</ele><time>2026-05-03T15:05:37.999Z</time></trkpt><trkpt lat="44.75373483516628" lon="10.55000534385688"><ele>33.0</ele><time>2026-05-03T15:05:38.999Z</time></trkpt><trkpt lat="44.75388791294642" lon="10.549688264977043"><ele>33.0</ele><time>2026-05-03T15:05:39.999Z</time></trkpt><trkpt lat="44.754037438660724" lon="10.549377001221279"><ele>32.5</ele><time>2026-05-03T15:05:40.999Z</time></trkpt><trkpt lat="44.75418456276247" lon="10.549068715684605"><ele>32.0</ele><time>2026-05-03T15:05:41.999Z</time></trkpt><trkpt lat="44.75432947230499" lon="10.548763919807275"><ele>32.0</ele><time>2026-05-03T15:05:42.999Z</time></trkpt><trkpt lat="44.754472131900094" lon="10.548462746784654"><ele>32.0</ele><time>2026-05-03T15:05:43.999Z</time></trkpt><trkpt lat="44.754613850515746" lon="10.548163729480404"><ele>32.5</ele><time>2026-05-03T15:05:44.999Z</time></trkpt><trkpt lat="44.75475625973325" lon="10.547861138466336"><ele>33.0</ele><time>2026-05-03T15:05:45.999Z</time></trkpt><trkpt lat="44.754898599461626" lon="10.547558335045775"><ele>33.0</ele><time>2026-05-03T15:05:46.999Z</time></trkpt><trkpt lat="44.75504191235801" lon="10.547254482373223"><ele>33.0</ele><time>2026-05-03T15:05:47.999Z</time></trkpt><trkpt lat="44.755185776881305" lon="10.546948769607493"><ele>33.0</ele><time>2026-05-03T15:05:48.999Z</time></trkpt><trkpt lat="44.75532979404709" lon="10.546642697722868"><ele>33.0</ele><time>2026-05-03T15:05:49.999Z</time></trkpt><trkpt lat="44.75547533649993" lon="10.546336738118333"><ele>33.0</ele><time>2026-05-03T15:05:50.999Z</time></trkpt><trkpt lat="44.75562336975212" lon="10.546029827737268"><ele>33.0</ele><time>2026-05-03T15:05:51.999Z</time></trkpt><trkpt lat="44.75577250534232" lon="10.545720269597119"><ele>33.0</ele><time>2026-05-03T15:05:52.999Z</time></trkpt><trkpt lat="44.75592434957978" lon="10.545406694561564"><ele>33.0</ele><time>2026-05-03T15:05:53.999Z</time></trkpt><trkpt lat="44.75607971838563" lon="10.54508866901023"><ele>33.0</ele><time>2026-05-03T15:05:54.999Z</time></trkpt><trkpt lat="44.75623640632214" lon="10.544769800691805"><ele>33.0</ele><time>2026-05-03T15:05:55.999Z</time></trkpt><trkpt lat="44.756388856990775" lon="10.5444534177442"><ele>33.5</ele><time>2026-05-03T15:05:56.999Z</time></trkpt><trkpt lat="44.75652961422889" lon="10.544155054826533"><ele>34.0</ele><time>2026-05-03T15:05:57.999Z</time></trkpt><trkpt lat="44.75666401818564" lon="10.543872025328998"><ele>34.5</ele><time>2026-05-03T15:05:58.999Z</time></trkpt><trkpt lat="44.75679418261712" lon="10.54359076805593"><ele>35.0</ele><time>2026-05-03T15:05:59.999Z</time></trkpt><trkpt lat="44.75692339181696" lon="10.543312027421443"><ele>34.5</ele><time>2026-05-03T15:06:00.999Z</time></trkpt><trkpt lat="44.75705599885826" lon="10.543027346816034"><ele>34.0</ele><time>2026-05-03T15:06:01.999Z</time></trkpt><trkpt lat="44.75719275486003" lon="10.542737705533208"><ele>34.0</ele><time>2026-05-03T15:06:02.999Z</time></trkpt><trkpt lat="44.757330882862156" lon="10.54244922192879"><ele>34.0</ele><time>2026-05-03T15:06:03.999Z</time></trkpt><trkpt lat="44.75747179871796" lon="10.54215548444883"><ele>34.5</ele><time>2026-05-03T15:06:04.999Z</time></trkpt><trkpt lat="44.75761436169726" lon="10.541861760457929"><ele>35.0</ele><time>2026-05-03T15:06:05.999Z</time></trkpt><trkpt lat="44.75776036641638" lon="10.541571364307678"><ele>32.5</ele><time>2026-05-03T15:06:06.999Z</time></trkpt><trkpt lat="44.75791001263235" lon="10.541278326208786"><ele>30.0</ele><time>2026-05-03T15:06:07.999Z</time></trkpt><trkpt lat="44.75805428646784" lon="10.540981152979754"><ele>30.0</ele><time>2026-05-03T15:06:08.999Z</time></trkpt><trkpt lat="44.75819609421381" lon="10.540684766744825"><ele>30.0</ele><time>2026-05-03T15:06:09.999Z</time></trkpt><trkpt lat="44.758335677875934" lon="10.540394526691085"><ele>30.5</ele><time>2026-05-03T15:06:10.999Z</time></trkpt><trkpt lat="44.75846930476869" lon="10.540116787503765"><ele>31.0</ele><time>2026-05-03T15:06:11.999Z</time></trkpt><trkpt lat="44.75859319863614" lon="10.539857911596767"><ele>30.666666666666668</ele><time>2026-05-03T15:06:12.999Z</time></trkpt><trkpt lat="44.7587135492369" lon="10.539605455500164"><ele>30.333333333333336</ele><time>2026-05-03T15:06:13.999Z</time></trkpt><trkpt lat="44.758832909700146" lon="10.53936623008694"><ele>30.0</ele><time>2026-05-03T15:06:14.999Z</time></trkpt><trkpt lat="44.75895510195835" lon="10.539131911663231"><ele>30.0</ele><time>2026-05-03T15:06:15.999Z</time></trkpt><trkpt lat="44.75907813948027" lon="10.538889658212108"><ele>30.0</ele><time>2026-05-03T15:06:16.999Z</time></trkpt><trkpt lat="44.75919872375563" lon="10.538637987693203"><ele>30.0</ele><time>2026-05-03T15:06:17.999Z</time></trkpt><trkpt lat="44.7593208427698" lon="10.538378962435594"><ele>31.0</ele><time>2026-05-03T15:06:18.999Z</time></trkpt><trkpt lat="44.75944331779412" lon="10.538116960643428"><ele>32.0</ele><time>2026-05-03T15:06:19.999Z</time></trkpt><trkpt lat="44.75956651971696" lon="10.537852729119326"><ele>33.0</ele><time>2026-05-03T15:06:20.999Z</time></trkpt><trkpt lat="44.75969033516763" lon="10.537589521109087"><ele>33.5</ele><time>2026-05-03T15:06:21.999Z</time></trkpt><trkpt lat="44.75982159659081" lon="10.537317710060481"><ele>34.0</ele><time>2026-05-03T15:06:22.999Z</time></trkpt><trkpt lat="44.75995364766105" lon="10.537050200125869"><ele>34.0</ele><time>2026-05-03T15:06:23.999Z</time></trkpt><trkpt lat="44.76007956354604" lon="10.536781505256434"><ele>34.0</ele><time>2026-05-03T15:06:24.999Z</time></trkpt><trkpt lat="44.760200641993215" lon="10.536521773401674"><ele>34.0</ele><time>2026-05-03T15:06:25.999Z</time></trkpt><trkpt lat="44.76031244666742" lon="10.536284254814106"><ele>33.0</ele><time>2026-05-03T15:06:26.999Z</time></trkpt><trkpt lat="44.76042317441078" lon="10.536047092141375"><ele>32.0</ele><time>2026-05-03T15:06:27.999Z</time></trkpt><trkpt lat="44.76053185575036" lon="10.535815919176262"><ele>31.0</ele><time>2026-05-03T15:06:28.999Z</time></trkpt><trkpt lat="44.76063733940524" lon="10.5355976589372"><ele>32.333333333333336</ele><time>2026-05-03T15:06:29.999Z</time></trkpt><trkpt lat="44.76073968774232" lon="10.535386585679559"><ele>33.666666666666664</ele><time>2026-05-03T15:06:30.999Z</time></trkpt><trkpt lat="44.76084294422958" lon="10.535174067449292"><ele>35.0</ele><time>2026-05-03T15:06:31.999Z</time></trkpt><trkpt lat="44.76094705512157" lon="10.534958430727372"><ele>35.0</ele><time>2026-05-03T15:06:32.999Z</time></trkpt><trkpt lat="44.76105232866734" lon="10.534737915862822"><ele>35.0</ele><time>2026-05-03T15:06:33.999Z</time></trkpt><trkpt lat="44.761156028221" lon="10.53451877428284"><ele>35.0</ele><time>2026-05-03T15:06:34.999Z</time></trkpt><trkpt lat="44.76125879180058" lon="10.534302236299913"><ele>35.666666666666664</ele><time>2026-05-03T15:06:35.999Z</time></trkpt><trkpt lat="44.76135798015549" lon="10.53408621346207"><ele>36.333333333333336</ele><time>2026-05-03T15:06:36.999Z</time></trkpt><trkpt lat="44.7614607784784" lon="10.533868902922533"><ele>37.0</ele><time>2026-05-03T15:06:37.999Z</time></trkpt><trkpt lat="44.761562211592086" lon="10.533644144107216"><ele>37.0</ele><time>2026-05-03T15:06:38.999Z</time></trkpt><trkpt lat="44.76166509202426" lon="10.53343191612354"><ele>37.0</ele><time>2026-05-03T15:06:39.999Z</time></trkpt><trkpt lat="44.76176998975596" lon="10.533216082815535"><ele>37.0</ele><time>2026-05-03T15:06:40.999Z</time></trkpt><trkpt lat="44.76187442380112" lon="10.532994301419501"><ele>35.66666666666667</ele><time>2026-05-03T15:06:41.999Z</time></trkpt><trkpt lat="44.761974613395196" lon="10.532776141170542"><ele>34.333333333333336</ele><time>2026-05-03T15:06:42.999Z</time></trkpt><trkpt lat="44.76207753582595" lon="10.532561237385403"><ele>33.0</ele><time>2026-05-03T15:06:43.999Z</time></trkpt><trkpt lat="44.762179018302724" lon="10.532349944210603"><ele>33.0</ele><time>2026-05-03T15:06:44.999Z</time></trkpt><trkpt lat="44.76228160609044" lon="10.532136859870372"><ele>33.0</ele><time>2026-05-03T15:06:45.999Z</time></trkpt><trkpt lat="44.76238274490081" lon="10.531931272127295"><ele>33.0</ele><time>2026-05-03T15:06:46.999Z</time></trkpt><trkpt lat="44.76248387603655" lon="10.531721285625915"><ele>33.0</ele><time>2026-05-03T15:06:47.999Z</time></trkpt><trkpt lat="44.762581004987005" lon="10.53151512782341"><ele>33.0</ele><time>2026-05-03T15:06:48.999Z</time></trkpt><trkpt lat="44.762676855494334" lon="10.531310888792618"><ele>33.0</ele><time>2026-05-03T15:06:49.999Z</time></trkpt><trkpt lat="44.76277591786142" lon="10.531107157277999"><ele>31.666666666666664</ele><time>2026-05-03T15:06:50.999Z</time></trkpt><trkpt lat="44.7628727233746" lon="10.530904923578436"><ele>30.333333333333332</ele><time>2026-05-03T15:06:51.999Z</time></trkpt><trkpt lat="44.76296832159028" lon="10.5307084577253"><ele>29.0</ele><time>2026-05-03T15:06:52.999Z</time></trkpt><trkpt lat="44.76306193967513" lon="10.530511830500076"><ele>29.333333333333332</ele><time>2026-05-03T15:06:53.999Z</time></trkpt><trkpt lat="44.76315301664696" lon="10.530315400956184"><ele>29.666666666666664</ele><time>2026-05-03T15:06:54.999Z</time></trkpt><trkpt lat="44.76324489939863" lon="10.530121612210682"><ele>30.0</ele><time>2026-05-03T15:06:55.999Z</time></trkpt><trkpt lat="44.76333744515658" lon="10.529930863401765"><ele>30.0</ele><time>2026-05-03T15:06:56.999Z</time></trkpt><trkpt lat="44.76342558156511" lon="10.529744457711967"><ele>30.0</ele><time>2026-05-03T15:06:57.999Z</time></trkpt><trkpt lat="44.76351456667093" lon="10.529560458752126"><ele>30.0</ele><time>2026-05-03T15:06:58.999Z</time></trkpt><trkpt lat="44.763605160909265" lon="10.529360448547244"><ele>30.333333333333336</ele><time>2026-05-03T15:06:59.999Z</time></trkpt><trkpt lat="44.76369772202305" lon="10.529164316213688"><ele>30.666666666666668</ele><time>2026-05-03T15:07:00.999Z</time></trkpt><trkpt lat="44.76379013199035" lon="10.528966177655438"><ele>31.0</ele><time>2026-05-03T15:07:01.999Z</time></trkpt><trkpt lat="44.76388429647813" lon="10.52876962432218"><ele>31.333333333333336</ele><time>2026-05-03T15:07:02.999Z</time></trkpt><trkpt lat="44.76398019674049" lon="10.528570494964628"><ele>31.666666666666664</ele><time>2026-05-03T15:07:03.999Z</time></trkpt><trkpt lat="44.76407465372188" lon="10.528374662298571"><ele>32.0</ele><time>2026-05-03T15:07:04.999Z</time></trkpt><trkpt lat="44.76416799049319" lon="10.52817765789442"><ele>32.0</ele><time>2026-05-03T15:07:05.999Z</time></trkpt><trkpt lat="44.76425857991886" lon="10.527983891215696"><ele>32.0</ele><time>2026-05-03T15:07:06.999Z</time></trkpt><trkpt lat="44.76435200511858" lon="10.527788169337482"><ele>32.0</ele><time>2026-05-03T15:07:07.999Z</time></trkpt><trkpt lat="44.764445277859636" lon="10.527590207122238"><ele>32.0</ele><time>2026-05-03T15:07:08.999Z</time></trkpt><trkpt lat="44.764539395012186" lon="10.527386890914686"><ele>32.0</ele><time>2026-05-03T15:07:10Z</time></trkpt><trkpt lat="44.7646370539322" lon="10.527184489232285"><ele>32.0</ele><time>2026-05-03T15:07:11Z</time></trkpt><trkpt lat="44.764732426137556" lon="10.526984453525765"><ele>32.0</ele><time>2026-05-03T15:07:12Z</time></trkpt><trkpt lat="44.764829957400096" lon="10.526780983407875"><ele>32.0</ele><time>2026-05-03T15:07:13Z</time></trkpt><trkpt lat="44.7649253198118" lon="10.526578196867318"><ele>32.0</ele><time>2026-05-03T15:07:14Z</time></trkpt><trkpt lat="44.76502240017238" lon="10.52637453428717"><ele>32.0</ele><time>2026-05-03T15:07:15Z</time></trkpt><trkpt lat="44.76511885183353" lon="10.526172778017518"><ele>32.0</ele><time>2026-05-03T15:07:16Z</time></trkpt><trkpt lat="44.76521711606581" lon="10.525963305082845"><ele>32.0</ele><time>2026-05-03T15:07:17Z</time></trkpt><trkpt lat="44.765314896672656" lon="10.525754635915538"><ele>31.666666666666664</ele><time>2026-05-03T15:07:18Z</time></trkpt><trkpt lat="44.76541626178856" lon="10.525543739068235"><ele>31.333333333333336</ele><time>2026-05-03T15:07:19Z</time></trkpt><trkpt lat="44.765513852730145" lon="10.525337192919197"><ele>31.0</ele><time>2026-05-03T15:07:20Z</time></trkpt><trkpt lat="44.765612266950974" lon="10.525131589431108"><ele>31.0</ele><time>2026-05-03T15:07:21Z</time></trkpt><trkpt lat="44.76570456654886" lon="10.524937792873297"><ele>31.0</ele><time>2026-05-03T15:07:22Z</time></trkpt><trkpt lat="44.76579097606852" lon="10.52475826463944"><ele>31.0</ele><time>2026-05-03T15:07:23Z</time></trkpt><trkpt lat="44.76586663815966" lon="10.524592347003013"><ele>30.75</ele><time>2026-05-03T15:07:24Z</time></trkpt><trkpt lat="44.765940810903935" lon="10.524433192916197"><ele>30.5</ele><time>2026-05-03T15:07:25Z</time></trkpt><trkpt lat="44.766013019884966" lon="10.524277713577296"><ele>30.25</ele><time>2026-05-03T15:07:26Z</time></trkpt><trkpt lat="44.7660890312711" lon="10.524120165445485"><ele>30.0</ele><time>2026-05-03T15:07:27Z</time></trkpt><trkpt lat="44.766168251721574" lon="10.523956531821428"><ele>30.0</ele><time>2026-05-03T15:07:28Z</time></trkpt><trkpt lat="44.766248387374084" lon="10.523786987736582"><ele>30.0</ele><time>2026-05-03T15:07:29Z</time></trkpt><trkpt lat="44.76632966503721" lon="10.523611797650366"><ele>30.0</ele><time>2026-05-03T15:07:30Z</time></trkpt><trkpt lat="44.766415324997354" lon="10.5234326597346"><ele>30.0</ele><time>2026-05-03T15:07:31Z</time></trkpt><trkpt lat="44.766500088399674" lon="10.523253427758315"><ele>30.0</ele><time>2026-05-03T15:07:32Z</time></trkpt><trkpt lat="44.766585324965995" lon="10.523072641624434"><ele>30.0</ele><time>2026-05-03T15:07:33Z</time></trkpt><trkpt lat="44.76667102080801" lon="10.522889869837941"><ele>30.0</ele><time>2026-05-03T15:07:34Z</time></trkpt><trkpt lat="44.76676048933057" lon="10.522711036976185"><ele>30.666666666666664</ele><time>2026-05-03T15:07:35Z</time></trkpt><trkpt lat="44.76684660602491" lon="10.52252775386634"><ele>31.333333333333332</ele><time>2026-05-03T15:07:36Z</time></trkpt><trkpt lat="44.766933539087674" lon="10.522342322337066"><ele>32.0</ele><time>2026-05-03T15:07:37Z</time></trkpt><trkpt lat="44.7670223896634" lon="10.522154642149273"><ele>32.33333333333333</ele><time>2026-05-03T15:07:38Z</time></trkpt><trkpt lat="44.767111919747684" lon="10.521965844812334"><ele>32.666666666666664</ele><time>2026-05-03T15:07:39Z</time></trkpt><trkpt lat="44.767205415384076" lon="10.521773150065508"><ele>33.0</ele><time>2026-05-03T15:07:40Z</time></trkpt><trkpt lat="44.76729295837467" lon="10.521593534075961"><ele>33.0</ele><time>2026-05-03T15:07:41Z</time></trkpt><trkpt lat="44.76737314976861" lon="10.521419267736226"><ele>33.0</ele><time>2026-05-03T15:07:42Z</time></trkpt><trkpt lat="44.76744983046438" lon="10.52126027437479"><ele>33.0</ele><time>2026-05-03T15:07:43Z</time></trkpt><trkpt lat="44.76751788198738" lon="10.521112832907438"><ele>33.0</ele><time>2026-05-03T15:07:44Z</time></trkpt><trkpt lat="44.767581031279136" lon="10.520980830862323"><ele>33.0</ele><time>2026-05-03T15:07:45Z</time></trkpt><trkpt lat="44.76764072939675" lon="10.520857972215934"><ele>33.0</ele><time>2026-05-03T15:07:46Z</time></trkpt><trkpt lat="44.76770014236405" lon="10.520733305500167"><ele>33.0</ele><time>2026-05-03T15:07:47Z</time></trkpt><trkpt lat="44.76776398529765" lon="10.52059791216768"><ele>33.0</ele><time>2026-05-03T15:07:48Z</time></trkpt><trkpt lat="44.76783216760626" lon="10.520452691805461"><ele>34.5</ele><time>2026-05-03T15:07:49Z</time></trkpt><trkpt lat="44.76790440897116" lon="10.520296755201018"><ele>36.0</ele><time>2026-05-03T15:07:50Z</time></trkpt><trkpt lat="44.767979660359195" lon="10.52013894737321"><ele>37.5</ele><time>2026-05-03T15:07:51Z</time></trkpt><trkpt lat="44.76805823281606" lon="10.519971862684882"><ele>39.0</ele><time>2026-05-03T15:07:52Z</time></trkpt><trkpt lat="44.768142370346055" lon="10.519792864053162"><ele>39.0</ele><time>2026-05-03T15:07:53Z</time></trkpt><trkpt lat="44.76822886220076" lon="10.519612026821799"><ele>39.0</ele><time>2026-05-03T15:07:54Z</time></trkpt><trkpt lat="44.76833989955873" lon="10.519417308207029"><ele>39.0</ele><time>2026-05-03T15:07:55Z</time></trkpt><trkpt lat="44.76840925999285" lon="10.51923505584521"><ele>38.666666666666664</ele><time>2026-05-03T15:07:56Z</time></trkpt><trkpt lat="44.768499283293785" lon="10.519042573075822"><ele>38.33333333333333</ele><time>2026-05-03T15:07:57Z</time></trkpt><trkpt lat="44.76859040152723" lon="10.518854652581206"><ele>38.0</ele><time>2026-05-03T15:07:58Z</time></trkpt><trkpt lat="44.76868104820769" lon="10.518666179971683"><ele>37.33333333333333</ele><time>2026-05-03T15:07:59Z</time></trkpt><trkpt lat="44.76877229686751" lon="10.518475617331964"><ele>36.666666666666664</ele><time>2026-05-03T15:08:00Z</time></trkpt><trkpt lat="44.76886255214906" lon="10.518285545607016"><ele>36.0</ele><time>2026-05-03T15:08:01Z</time></trkpt><trkpt lat="44.76895247743632" lon="10.518097058008477"><ele>36.0</ele><time>2026-05-03T15:08:02Z</time></trkpt><trkpt lat="44.7690437930602" lon="10.517904948758101"><ele>36.0</ele><time>2026-05-03T15:08:03Z</time></trkpt><trkpt lat="44.76913293660226" lon="10.517718172840777"><ele>36.0</ele><time>2026-05-03T15:08:04Z</time></trkpt><trkpt lat="44.76921830749805" lon="10.517529522024619"><ele>36.0</ele><time>2026-05-03T15:08:05Z</time></trkpt><trkpt lat="44.769305937560084" lon="10.517343923350644"><ele>36.0</ele><time>2026-05-03T15:08:06Z</time></trkpt><trkpt lat="44.76939148227871" lon="10.517160506102554"><ele>36.0</ele><time>2026-05-03T15:08:07Z</time></trkpt><trkpt lat="44.76948023768235" lon="10.516977855597824"><ele>35.0</ele><time>2026-05-03T15:08:08Z</time></trkpt><trkpt lat="44.769568896805666" lon="10.516793839692399"><ele>34.0</ele><time>2026-05-03T15:08:09Z</time></trkpt><trkpt lat="44.76965712342238" lon="10.516608420765179"><ele>33.0</ele><time>2026-05-03T15:08:10Z</time></trkpt><trkpt lat="44.769744326782984" lon="10.516424508503539"><ele>33.0</ele><time>2026-05-03T15:08:11Z</time></trkpt><trkpt lat="44.7698317908739" lon="10.51623829013924"><ele>33.0</ele><time>2026-05-03T15:08:12Z</time></trkpt><trkpt lat="44.76991853542288" lon="10.516053552251693"><ele>33.0</ele><time>2026-05-03T15:08:13Z</time></trkpt><trkpt lat="44.77000484462988" lon="10.515868213382973"><ele>34.333333333333336</ele><time>2026-05-03T15:08:14Z</time></trkpt><trkpt lat="44.77009205454168" lon="10.515681503448079"><ele>35.66666666666667</ele><time>2026-05-03T15:08:15Z</time></trkpt><trkpt lat="44.770180535436644" lon="10.51549855884373"><ele>37.0</ele><time>2026-05-03T15:08:16Z</time></trkpt><trkpt lat="44.7702682183799" lon="10.515316609576354"><ele>37.0</ele><time>2026-05-03T15:08:17Z</time></trkpt><trkpt lat="44.770353866493814" lon="10.51513304040338"><ele>37.0</ele><time>2026-05-03T15:08:18Z</time></trkpt><trkpt lat="44.77044035105033" lon="10.514952239012462"><ele>37.0</ele><time>2026-05-03T15:08:19Z</time></trkpt><trkpt lat="44.77052663974412" lon="10.514771627754294"><ele>37.0</ele><time>2026-05-03T15:08:20Z</time></trkpt><trkpt lat="44.770612771122835" lon="10.514590276862656"><ele>37.0</ele><time>2026-05-03T15:08:21Z</time></trkpt><trkpt lat="44.77069779632382" lon="10.51441212515986"><ele>37.0</ele><time>2026-05-03T15:08:22Z</time></trkpt><trkpt lat="44.770781016199955" lon="10.514236818549234"><ele>37.5</ele><time>2026-05-03T15:08:23Z</time></trkpt><trkpt lat="44.77086395396538" lon="10.514062311059112"><ele>38.0</ele><time>2026-05-03T15:08:24Z</time></trkpt><trkpt lat="44.770946438192176" lon="10.51388954879674"><ele>38.5</ele><time>2026-05-03T15:08:25Z</time></trkpt><trkpt lat="44.771028609318584" lon="10.513715767613743"><ele>39.0</ele><time>2026-05-03T15:08:26Z</time></trkpt><trkpt lat="44.771109600304605" lon="10.513540890463897"><ele>39.0</ele><time>2026-05-03T15:08:27Z</time></trkpt><trkpt lat="44.77119232708992" lon="10.51336260222053"><ele>39.0</ele><time>2026-05-03T15:08:28Z</time></trkpt><trkpt lat="44.7712770346304" lon="10.513184199059886"><ele>39.0</ele><time>2026-05-03T15:08:29Z</time></trkpt><trkpt lat="44.77136342740387" lon="10.513003444893416"><ele>38.666666666666664</ele><time>2026-05-03T15:08:30Z</time></trkpt><trkpt lat="44.771451168990275" lon="10.512818881105954"><ele>38.33333333333333</ele><time>2026-05-03T15:08:31Z</time></trkpt><trkpt lat="44.77153919358057" lon="10.512629247096921"><ele>38.0</ele><time>2026-05-03T15:08:32Z</time></trkpt><trkpt lat="44.771627858232556" lon="10.51243657287689"><ele>38.0</ele><time>2026-05-03T15:08:33Z</time></trkpt><trkpt lat="44.77172024992074" lon="10.512242536119551"><ele>38.0</ele><time>2026-05-03T15:08:34Z</time></trkpt><trkpt lat="44.771814497721934" lon="10.512046002493076"><ele>38.0</ele><time>2026-05-03T15:08:35Z</time></trkpt><trkpt lat="44.77190724470952" lon="10.511847266992854"><ele>38.0</ele><time>2026-05-03T15:08:36Z</time></trkpt><trkpt lat="44.772001873141" lon="10.511641911547729"><ele>38.0</ele><time>2026-05-03T15:08:37Z</time></trkpt><trkpt lat="44.77209927838814" lon="10.51144063548671"><ele>38.0</ele><time>2026-05-03T15:08:38Z</time></trkpt><trkpt lat="44.77219671580391" lon="10.511236340924382"><ele>38.0</ele><time>2026-05-03T15:08:39Z</time></trkpt><trkpt lat="44.77229412609734" lon="10.511029219230554"><ele>38.0</ele><time>2026-05-03T15:08:40Z</time></trkpt><trkpt lat="44.77239262688024" lon="10.510819636110465"><ele>38.0</ele><time>2026-05-03T15:08:41Z</time></trkpt><trkpt lat="44.77249175742202" lon="10.510609876427223"><ele>38.0</ele><time>2026-05-03T15:08:42Z</time></trkpt><trkpt lat="44.772592516306275" lon="10.510399813762072"><ele>38.0</ele><time>2026-05-03T15:08:43Z</time></trkpt><trkpt lat="44.77269183632071" lon="10.510189134122221"><ele>38.0</ele><time>2026-05-03T15:08:44Z</time></trkpt><trkpt lat="44.772786584106974" lon="10.509984595759725"><ele>38.0</ele><time>2026-05-03T15:08:45Z</time></trkpt><trkpt lat="44.772877513591084" lon="10.50978709546534"><ele>38.0</ele><time>2026-05-03T15:08:46Z</time></trkpt><trkpt lat="44.772972817477566" lon="10.50958795803822"><ele>38.0</ele><time>2026-05-03T15:08:47Z</time></trkpt><trkpt lat="44.77306875505939" lon="10.50938613553473"><ele>38.0</ele><time>2026-05-03T15:08:48Z</time></trkpt><trkpt lat="44.77316435273114" lon="10.509179443571245"><ele>38.0</ele><time>2026-05-03T15:08:49Z</time></trkpt><trkpt lat="44.77325545515181" lon="10.508981119763645"><ele>38.0</ele><time>2026-05-03T15:08:50Z</time></trkpt><trkpt lat="44.77334315085683" lon="10.508799647783631"><ele>38.0</ele><time>2026-05-03T15:08:51Z</time></trkpt><trkpt lat="44.77342633663156" lon="10.50862383467714"><ele>38.0</ele><time>2026-05-03T15:08:52Z</time></trkpt><trkpt lat="44.773508793306995" lon="10.508449395884472"><ele>38.0</ele><time>2026-05-03T15:08:53Z</time></trkpt><trkpt lat="44.77359124329021" lon="10.508277549276164"><ele>38.0</ele><time>2026-05-03T15:08:54Z</time></trkpt><trkpt lat="44.77367303341292" lon="10.508105563708884"><ele>38.0</ele><time>2026-05-03T15:08:55Z</time></trkpt><trkpt lat="44.7737589130033" lon="10.507923913366147"><ele>38.0</ele><time>2026-05-03T15:08:56Z</time></trkpt><trkpt lat="44.77385476720604" lon="10.507723236582892"><ele>38.0</ele><time>2026-05-03T15:08:57Z</time></trkpt><trkpt lat="44.773955631180854" lon="10.507509403181336"><ele>37.666666666666664</ele><time>2026-05-03T15:08:58Z</time></trkpt><trkpt lat="44.77406041969542" lon="10.507287014858866"><ele>37.333333333333336</ele><time>2026-05-03T15:08:59Z</time></trkpt><trkpt lat="44.77416900778055" lon="10.5070512415949"><ele>37.0</ele><time>2026-05-03T15:09:00Z</time></trkpt><trkpt lat="44.7742845224425" lon="10.506807583516627"><ele>37.0</ele><time>2026-05-03T15:09:01Z</time></trkpt><trkpt lat="44.77440606963067" lon="10.506570399332762"><ele>37.0</ele><time>2026-05-03T15:09:02Z</time></trkpt><trkpt lat="44.77453356448767" lon="10.50634323524829"><ele>37.0</ele><time>2026-05-03T15:09:03Z</time></trkpt><trkpt lat="44.774652660591244" lon="10.506033544731235"><ele>37.5</ele><time>2026-05-03T15:09:04Z</time></trkpt><trkpt lat="44.77477373308637" lon="10.505765214629763"><ele>38.0</ele><time>2026-05-03T15:09:05Z</time></trkpt><trkpt lat="44.774897953326246" lon="10.505497736174053"><ele>39.0</ele><time>2026-05-03T15:09:06Z</time></trkpt><trkpt lat="44.775024456301686" lon="10.505228923030435"><ele>40.0</ele><time>2026-05-03T15:09:07Z</time></trkpt><trkpt lat="44.77515557474093" lon="10.504960927377716"><ele>39.0</ele><time>2026-05-03T15:09:08Z</time></trkpt><trkpt lat="44.77528640477871" lon="10.504692919037991"><ele>38.0</ele><time>2026-05-03T15:09:09Z</time></trkpt><trkpt lat="44.775414404498015" lon="10.504414756285286"><ele>37.5</ele><time>2026-05-03T15:09:10Z</time></trkpt><trkpt lat="44.775549058748254" lon="10.50411938631214"><ele>37.0</ele><time>2026-05-03T15:09:11Z</time></trkpt><trkpt lat="44.77567686737371" lon="10.503810641678658"><ele>37.5</ele><time>2026-05-03T15:09:12Z</time></trkpt><trkpt lat="44.775808573621944" lon="10.503508990373847"><ele>38.0</ele><time>2026-05-03T15:09:13Z</time></trkpt><trkpt lat="44.775940587366804" lon="10.5032203438579"><ele>38.0</ele><time>2026-05-03T15:09:14Z</time></trkpt><trkpt lat="44.7760685251851" lon="10.502943449921405"><ele>38.0</ele><time>2026-05-03T15:09:15Z</time></trkpt><trkpt lat="44.77619554815244" lon="10.50265869406447"><ele>37.0</ele><time>2026-05-03T15:09:16Z</time></trkpt><trkpt lat="44.77632435269753" lon="10.502377234367446"><ele>36.0</ele><time>2026-05-03T15:09:17Z</time></trkpt><trkpt lat="44.77645097989779" lon="10.50209752811114"><ele>35.5</ele><time>2026-05-03T15:09:18Z</time></trkpt><trkpt lat="44.77658499389267" lon="10.501821199306487"><ele>35.0</ele><time>2026-05-03T15:09:19Z</time></trkpt><trkpt lat="44.776716585781855" lon="10.501550651498723"><ele>35.0</ele><time>2026-05-03T15:09:20Z</time></trkpt><trkpt lat="44.77683686278392" lon="10.501287259601154"><ele>35.0</ele><time>2026-05-03T15:09:21Z</time></trkpt><trkpt lat="44.776960837406484" lon="10.501021884987237"><ele>35.0</ele><time>2026-05-03T15:09:22Z</time></trkpt><trkpt lat="44.77708102331447" lon="10.5007641141447"><ele>35.0</ele><time>2026-05-03T15:09:23Z</time></trkpt><trkpt lat="44.77720158775389" lon="10.500504182396048"><ele>35.0</ele><time>2026-05-03T15:09:24Z</time></trkpt><trkpt lat="44.777324882708434" lon="10.500250421834957"><ele>35.0</ele><time>2026-05-03T15:09:25Z</time></trkpt><trkpt lat="44.77744379172242" lon="10.499994646782955"><ele>35.666666666666664</ele><time>2026-05-03T15:09:26Z</time></trkpt><trkpt lat="44.77756402083474" lon="10.499740602195091"><ele>36.333333333333336</ele><time>2026-05-03T15:09:27Z</time></trkpt><trkpt lat="44.77768787826997" lon="10.49948716645071"><ele>37.0</ele><time>2026-05-03T15:09:28Z</time></trkpt><trkpt lat="44.777811854063685" lon="10.49922582851255"><ele>37.66666666666667</ele><time>2026-05-03T15:09:29Z</time></trkpt><trkpt lat="44.77794123204678" lon="10.498968903352509"><ele>38.333333333333336</ele><time>2026-05-03T15:09:30Z</time></trkpt><trkpt lat="44.778063240753745" lon="10.49870474197788"><ele>39.0</ele><time>2026-05-03T15:09:31Z</time></trkpt><trkpt lat="44.77818262715626" lon="10.498412677546076"><ele>39.0</ele><time>2026-05-03T15:09:32Z</time></trkpt><trkpt lat="44.77830981364017" lon="10.498118891486772"><ele>39.0</ele><time>2026-05-03T15:09:33Z</time></trkpt><trkpt lat="44.778440475235634" lon="10.497822988543012"><ele>40.0</ele><time>2026-05-03T15:09:34Z</time></trkpt><trkpt lat="44.778580672498336" lon="10.497517267613288"><ele>41.0</ele><time>2026-05-03T15:09:35Z</time></trkpt><trkpt lat="44.778725703338054" lon="10.49720319011211"><ele>40.0</ele><time>2026-05-03T15:09:36Z</time></trkpt><trkpt lat="44.778876420943256" lon="10.496881354255258"><ele>39.0</ele><time>2026-05-03T15:09:37Z</time></trkpt><trkpt lat="44.77903040034692" lon="10.496558698066725"><ele>38.5</ele><time>2026-05-03T15:09:38Z</time></trkpt><trkpt lat="44.779181237784215" lon="10.496233542827445"><ele>38.0</ele><time>2026-05-03T15:09:39Z</time></trkpt><trkpt lat="44.779332222863175" lon="10.495904469858147"><ele>38.0</ele><time>2026-05-03T15:09:40Z</time></trkpt><trkpt lat="44.77948529146467" lon="10.495575362861974"><ele>38.0</ele><time>2026-05-03T15:09:41Z</time></trkpt><trkpt lat="44.77964208853457" lon="10.495242886379446"><ele>38.0</ele><time>2026-05-03T15:09:42Z</time></trkpt><trkpt lat="44.77979792727263" lon="10.494903106187264"><ele>38.0</ele><time>2026-05-03T15:09:43Z</time></trkpt><trkpt lat="44.779957957371785" lon="10.49458948374813"><ele>38.0</ele><time>2026-05-03T15:09:44Z</time></trkpt><trkpt lat="44.78012109690027" lon="10.494266828109966"><ele>38.0</ele><time>2026-05-03T15:09:45Z</time></trkpt><trkpt lat="44.780279880554325" lon="10.493943529498804"><ele>38.5</ele><time>2026-05-03T15:09:46Z</time></trkpt><trkpt lat="44.78043753015242" lon="10.49361731254777"><ele>39.0</ele><time>2026-05-03T15:09:47Z</time></trkpt><trkpt lat="44.780594730690126" lon="10.493293302184155"><ele>39.0</ele><time>2026-05-03T15:09:48Z</time></trkpt><trkpt lat="44.78075025650168" lon="10.49296590676777"><ele>39.0</ele><time>2026-05-03T15:09:49Z</time></trkpt><trkpt lat="44.780902093687324" lon="10.492636507144777"><ele>38.5</ele><time>2026-05-03T15:09:50Z</time></trkpt><trkpt lat="44.7810550399129" lon="10.492306785400263"><ele>38.0</ele><time>2026-05-03T15:09:51Z</time></trkpt><trkpt lat="44.78120872786548" lon="10.491977082330973"><ele>38.0</ele><time>2026-05-03T15:09:52Z</time></trkpt><trkpt lat="44.78136342176253" lon="10.491648885772038"><ele>38.0</ele><time>2026-05-03T15:09:53Z</time></trkpt><trkpt lat="44.78151519149468" lon="10.491321162477318"><ele>39.0</ele><time>2026-05-03T15:09:54Z</time></trkpt><trkpt lat="44.781673383565" lon="10.490994472322306"><ele>40.0</ele><time>2026-05-03T15:09:55Z</time></trkpt><trkpt lat="44.7818293747882" lon="10.490670466499173"><ele>38.5</ele><time>2026-05-03T15:09:56Z</time></trkpt><trkpt lat="44.78198430429708" lon="10.49034519616904"><ele>37.0</ele><time>2026-05-03T15:09:57Z</time></trkpt><trkpt lat="44.782137371403316" lon="10.490018934974694"><ele>37.0</ele><time>2026-05-03T15:09:58Z</time></trkpt><trkpt lat="44.7822913222787" lon="10.489691635141021"><ele>37.0</ele><time>2026-05-03T15:09:59Z</time></trkpt><trkpt lat="44.78244645802076" lon="10.48936299205763"><ele>37.5</ele><time>2026-05-03T15:10:00Z</time></trkpt><trkpt lat="44.78260114231462" lon="10.48903658453012"><ele>38.0</ele><time>2026-05-03T15:10:01Z</time></trkpt><trkpt lat="44.782754748983436" lon="10.488707341333836"><ele>37.0</ele><time>2026-05-03T15:10:02Z</time></trkpt><trkpt lat="44.78291019647652" lon="10.48838061729012"><ele>36.0</ele><time>2026-05-03T15:10:03Z</time></trkpt><trkpt lat="44.78306719924216" lon="10.488056104941844"><ele>36.5</ele><time>2026-05-03T15:10:04Z</time></trkpt><trkpt lat="44.78322153663406" lon="10.487725738075504"><ele>37.0</ele><time>2026-05-03T15:10:05Z</time></trkpt><trkpt lat="44.78337517974448" lon="10.487400079178274"><ele>38.0</ele><time>2026-05-03T15:10:06Z</time></trkpt><trkpt lat="44.78353059667339" lon="10.487070476563554"><ele>39.0</ele><time>2026-05-03T15:10:07Z</time></trkpt><trkpt lat="44.78368649366013" lon="10.486740734334397"><ele>39.0</ele><time>2026-05-03T15:10:08Z</time></trkpt><trkpt lat="44.783842990921244" lon="10.486412225701413"><ele>39.0</ele><time>2026-05-03T15:10:09Z</time></trkpt><trkpt lat="44.784000781829214" lon="10.486079580194875"><ele>39.5</ele><time>2026-05-03T15:10:10Z</time></trkpt><trkpt lat="44.784157605323564" lon="10.48574864491286"><ele>40.0</ele><time>2026-05-03T15:10:11Z</time></trkpt><trkpt lat="44.784312204080834" lon="10.485419134108952"><ele>39.0</ele><time>2026-05-03T15:10:12Z</time></trkpt><trkpt lat="44.78446789380576" lon="10.48508663412914"><ele>38.0</ele><time>2026-05-03T15:10:13Z</time></trkpt><trkpt lat="44.78462340735136" lon="10.484757707806716"><ele>39.0</ele><time>2026-05-03T15:10:14Z</time></trkpt><trkpt lat="44.7847796342699" lon="10.484430376595668"><ele>40.0</ele><time>2026-05-03T15:10:15Z</time></trkpt><trkpt lat="44.784933291437575" lon="10.484101122690188"><ele>40.0</ele><time>2026-05-03T15:10:16Z</time></trkpt><trkpt lat="44.78508753802953" lon="10.483771863595472"><ele>40.0</ele><time>2026-05-03T15:10:17Z</time></trkpt><trkpt lat="44.78524482564428" lon="10.483441113418795"><ele>40.0</ele><time>2026-05-03T15:10:18Z</time></trkpt><trkpt lat="44.785402315431355" lon="10.48311035196089"><ele>40.0</ele><time>2026-05-03T15:10:19Z</time></trkpt><trkpt lat="44.78555775295795" lon="10.482779804534983"><ele>39.5</ele><time>2026-05-03T15:10:20Z</time></trkpt><trkpt lat="44.78571223587419" lon="10.48244631392647"><ele>39.0</ele><time>2026-05-03T15:10:21Z</time></trkpt><trkpt lat="44.78586555692179" lon="10.48211215672923"><ele>39.0</ele><time>2026-05-03T15:10:22Z</time></trkpt><trkpt lat="44.78602063446215" lon="10.48178058144488"><ele>39.0</ele><time>2026-05-03T15:10:23Z</time></trkpt><trkpt lat="44.78617707806434" lon="10.481450602505822"><ele>40.0</ele><time>2026-05-03T15:10:24Z</time></trkpt><trkpt lat="44.786334167389015" lon="10.481122244860806"><ele>41.0</ele><time>2026-05-03T15:10:25Z</time></trkpt><trkpt lat="44.78648859887497" lon="10.480800027414043"><ele>41.0</ele><time>2026-05-03T15:10:26Z</time></trkpt><trkpt lat="44.78663673123019" lon="10.48048006298302"><ele>41.0</ele><time>2026-05-03T15:10:27Z</time></trkpt><trkpt lat="44.786783378832524" lon="10.480157848263978"><ele>40.0</ele><time>2026-05-03T15:10:28Z</time></trkpt><trkpt lat="44.78693023396815" lon="10.479831864655866"><ele>39.0</ele><time>2026-05-03T15:10:29Z</time></trkpt><trkpt lat="44.78707613075073" lon="10.479508833047602"><ele>39.0</ele><time>2026-05-03T15:10:30Z</time></trkpt><trkpt lat="44.78722173022297" lon="10.479183368201571"><ele>39.0</ele><time>2026-05-03T15:10:31Z</time></trkpt><trkpt lat="44.78736727508713" lon="10.478856676858152"><ele>39.0</ele><time>2026-05-03T15:10:32Z</time></trkpt><trkpt lat="44.78751402678768" lon="10.478536702781422"><ele>39.0</ele><time>2026-05-03T15:10:33Z</time></trkpt><trkpt lat="44.78766414186797" lon="10.478213409765864"><ele>39.0</ele><time>2026-05-03T15:10:34Z</time></trkpt><trkpt lat="44.78781393365864" lon="10.477892275119434"><ele>39.0</ele><time>2026-05-03T15:10:35Z</time></trkpt><trkpt lat="44.78796574707357" lon="10.477573194495733"><ele>39.0</ele><time>2026-05-03T15:10:36Z</time></trkpt><trkpt lat="44.78811821416885" lon="10.477255408143042"><ele>39.0</ele><time>2026-05-03T15:10:37Z</time></trkpt><trkpt lat="44.78827080156181" lon="10.476937156325958"><ele>39.0</ele><time>2026-05-03T15:10:38Z</time></trkpt><trkpt lat="44.78842417395172" lon="10.476616679443202"><ele>39.0</ele><time>2026-05-03T15:10:39Z</time></trkpt><trkpt lat="44.78857680797045" lon="10.476296818462515"><ele>39.5</ele><time>2026-05-03T15:10:40Z</time></trkpt><trkpt lat="44.78872866510137" lon="10.475975757771755"><ele>40.0</ele><time>2026-05-03T15:10:41Z</time></trkpt><trkpt lat="44.78888044348258" lon="10.475653208515778"><ele>41.0</ele><time>2026-05-03T15:10:42Z</time></trkpt><trkpt lat="44.789030416566185" lon="10.475331715338903"><ele>42.0</ele><time>2026-05-03T15:10:43Z</time></trkpt><trkpt lat="44.78917953805582" lon="10.475012454925201"><ele>42.0</ele><time>2026-05-03T15:10:44Z</time></trkpt><trkpt lat="44.789329490478906" lon="10.474694188376326"><ele>42.0</ele><time>2026-05-03T15:10:45Z</time></trkpt><trkpt lat="44.789481508902846" lon="10.474377063496414"><ele>41.5</ele><time>2026-05-03T15:10:46Z</time></trkpt><trkpt lat="44.78963687900643" lon="10.47407003150341"><ele>41.0</ele><time>2026-05-03T15:10:47Z</time></trkpt><trkpt lat="44.78979123137166" lon="10.473761559113138"><ele>41.0</ele><time>2026-05-03T15:10:48Z</time></trkpt><trkpt lat="44.78994430956013" lon="10.473456260209971"><ele>41.0</ele><time>2026-05-03T15:10:49Z</time></trkpt><trkpt lat="44.79009710178299" lon="10.473152354566507"><ele>41.5</ele><time>2026-05-03T15:10:50Z</time></trkpt><trkpt lat="44.79024802148339" lon="10.472848512721072"><ele>42.0</ele><time>2026-05-03T15:10:51Z</time></trkpt><trkpt lat="44.790399896831445" lon="10.472545096802707"><ele>42.0</ele><time>2026-05-03T15:10:52Z</time></trkpt><trkpt lat="44.790550519463224" lon="10.472243676112628"><ele>42.0</ele><time>2026-05-03T15:10:53Z</time></trkpt><trkpt lat="44.79070172887226" lon="10.471940253774605"><ele>43.0</ele><time>2026-05-03T15:10:54Z</time></trkpt><trkpt lat="44.790849022046565" lon="10.471638529480947"><ele>44.0</ele><time>2026-05-03T15:10:55Z</time></trkpt><trkpt lat="44.79099387873296" lon="10.471335346146166"><ele>42.0</ele><time>2026-05-03T15:10:56Z</time></trkpt><trkpt lat="44.79113843681298" lon="10.471033378705041"><ele>40.0</ele><time>2026-05-03T15:10:57Z</time></trkpt><trkpt lat="44.79128062384594" lon="10.47073893873344"><ele>40.0</ele><time>2026-05-03T15:10:58Z</time></trkpt><trkpt lat="44.79141868538972" lon="10.47044705552053"><ele>40.0</ele><time>2026-05-03T15:10:59Z</time></trkpt><trkpt lat="44.791555831797595" lon="10.470159770863278"><ele>40.5</ele><time>2026-05-03T15:11:00Z</time></trkpt><trkpt lat="44.79169085339969" lon="10.469868971060468"><ele>41.0</ele><time>2026-05-03T15:11:01Z</time></trkpt><trkpt lat="44.79182586629083" lon="10.469581963663988"><ele>40.0</ele><time>2026-05-03T15:11:02Z</time></trkpt><trkpt lat="44.791960460902274" lon="10.469296169570177"><ele>39.0</ele><time>2026-05-03T15:11:03Z</time></trkpt><trkpt lat="44.79209410145979" lon="10.46900867802649"><ele>39.0</ele><time>2026-05-03T15:11:04Z</time></trkpt><trkpt lat="44.792229637486514" lon="10.468724025598888"><ele>39.0</ele><time>2026-05-03T15:11:05Z</time></trkpt><trkpt lat="44.792363032353855" lon="10.468438785435026"><ele>39.0</ele><time>2026-05-03T15:11:06Z</time></trkpt><trkpt lat="44.792495218848124" lon="10.4681551056976"><ele>39.0</ele><time>2026-05-03T15:11:07Z</time></trkpt><trkpt lat="44.79262898249444" lon="10.467873846769102"><ele>39.0</ele><time>2026-05-03T15:11:08Z</time></trkpt><trkpt lat="44.792760967914695" lon="10.467589937717415"><ele>39.0</ele><time>2026-05-03T15:11:09Z</time></trkpt><trkpt lat="44.79289408320461" lon="10.467308517292464"><ele>39.0</ele><time>2026-05-03T15:11:10Z</time></trkpt><trkpt lat="44.79302664691714" lon="10.467029795521963"><ele>39.0</ele><time>2026-05-03T15:11:11Z</time></trkpt><trkpt lat="44.79315947069739" lon="10.466754107950237"><ele>39.0</ele><time>2026-05-03T15:11:12Z</time></trkpt><trkpt lat="44.793290322650485" lon="10.46648385848368"><ele>39.0</ele><time>2026-05-03T15:11:13Z</time></trkpt><trkpt lat="44.793417618393384" lon="10.466213798297883"><ele>38.5</ele><time>2026-05-03T15:11:14Z</time></trkpt><trkpt lat="44.79354388103627" lon="10.465949264646728"><ele>38.0</ele><time>2026-05-03T15:11:15Z</time></trkpt><trkpt lat="44.793670700349494" lon="10.46568690654508"><ele>37.666666666666664</ele><time>2026-05-03T15:11:16Z</time></trkpt><trkpt lat="44.793795122918674" lon="10.465434234397815"><ele>37.333333333333336</ele><time>2026-05-03T15:11:17Z</time></trkpt><trkpt lat="44.793920927383404" lon="10.465180934993645"><ele>37.0</ele><time>2026-05-03T15:11:18Z</time></trkpt><trkpt lat="44.79404289767598" lon="10.464925792451899"><ele>37.0</ele><time>2026-05-03T15:11:19Z</time></trkpt><trkpt lat="44.794164227100296" lon="10.4646703770633"><ele>37.0</ele><time>2026-05-03T15:11:20Z</time></trkpt><trkpt lat="44.79428427341206" lon="10.46441521474704"><ele>37.0</ele><time>2026-05-03T15:11:21Z</time></trkpt><trkpt lat="44.79440305554108" lon="10.464161850110035"><ele>37.0</ele><time>2026-05-03T15:11:22Z</time></trkpt><trkpt lat="44.79452050781943" lon="10.463911477443542"><ele>37.0</ele><time>2026-05-03T15:11:23Z</time></trkpt><trkpt lat="44.794637631356515" lon="10.46366594378338"><ele>37.0</ele><time>2026-05-03T15:11:24Z</time></trkpt><trkpt lat="44.79475233038891" lon="10.463425100945345"><ele>37.0</ele><time>2026-05-03T15:11:25Z</time></trkpt><trkpt lat="44.79486412252155" lon="10.463188050827153"><ele>37.0</ele><time>2026-05-03T15:11:26Z</time></trkpt><trkpt lat="44.794970772030645" lon="10.462964131361499"><ele>37.0</ele><time>2026-05-03T15:11:27Z</time></trkpt><trkpt lat="44.79507086819499" lon="10.462751537083525"><ele>37.66666666666667</ele><time>2026-05-03T15:11:28Z</time></trkpt><trkpt lat="44.79517069820636" lon="10.462537787073396"><ele>38.333333333333336</ele><time>2026-05-03T15:11:29Z</time></trkpt><trkpt lat="44.79527134743189" lon="10.462319908432884"><ele>39.0</ele><time>2026-05-03T15:11:30Z</time></trkpt><trkpt lat="44.7953718298551" lon="10.462105111021835"><ele>39.0</ele><time>2026-05-03T15:11:31Z</time></trkpt><trkpt lat="44.79547254396003" lon="10.461892082109767"><ele>39.0</ele><time>2026-05-03T15:11:32Z</time></trkpt><trkpt lat="44.795566974197875" lon="10.461691172327459"><ele>39.0</ele><time>2026-05-03T15:11:33Z</time></trkpt><trkpt lat="44.79565684096899" lon="10.461501426922045"><ele>39.0</ele><time>2026-05-03T15:11:34Z</time></trkpt><trkpt lat="44.795745555852214" lon="10.461308577659356"><ele>39.0</ele><time>2026-05-03T15:11:35Z</time></trkpt><trkpt lat="44.79583407548147" lon="10.461114190544423"><ele>39.0</ele><time>2026-05-03T15:11:36Z</time></trkpt><trkpt lat="44.79592105494461" lon="10.460924175050524"><ele>39.333333333333336</ele><time>2026-05-03T15:11:37Z</time></trkpt><trkpt lat="44.79600462417102" lon="10.460743008516157"><ele>39.66666666666667</ele><time>2026-05-03T15:11:38Z</time></trkpt><trkpt lat="44.79608696641465" lon="10.460564192720474"><ele>40.0</ele><time>2026-05-03T15:11:39Z</time></trkpt><trkpt lat="44.796171332301874" lon="10.460378074238564"><ele>40.66666666666667</ele><time>2026-05-03T15:11:40Z</time></trkpt><trkpt lat="44.796256317023385" lon="10.46019097977364"><ele>41.333333333333336</ele><time>2026-05-03T15:11:41Z</time></trkpt><trkpt lat="44.79634530727907" lon="10.459994382305267"><ele>42.0</ele><time>2026-05-03T15:11:42Z</time></trkpt><trkpt lat="44.796436251492395" lon="10.459796047489005"><ele>41.333333333333336</ele><time>2026-05-03T15:11:43Z</time></trkpt><trkpt lat="44.796527981819686" lon="10.459594989681987"><ele>40.66666666666667</ele><time>2026-05-03T15:11:44Z</time></trkpt><trkpt lat="44.79662033916187" lon="10.459387346498877"><ele>40.0</ele><time>2026-05-03T15:11:45Z</time></trkpt><trkpt lat="44.796713121224414" lon="10.459178629498464"><ele>40.0</ele><time>2026-05-03T15:11:46Z</time></trkpt><trkpt lat="44.79680614317202" lon="10.458972130154963"><ele>40.0</ele><time>2026-05-03T15:11:47Z</time></trkpt><trkpt lat="44.79689789183027" lon="10.458763570373668"><ele>40.0</ele><time>2026-05-03T15:11:48Z</time></trkpt><trkpt lat="44.79699184683754" lon="10.458553274217559"><ele>40.0</ele><time>2026-05-03T15:11:49Z</time></trkpt><trkpt lat="44.797086573604915" lon="10.458340950571523"><ele>40.0</ele><time>2026-05-03T15:11:50Z</time></trkpt><trkpt lat="44.79718016005256" lon="10.45812715332288"><ele>40.0</ele><time>2026-05-03T15:11:51Z</time></trkpt><trkpt lat="44.79727472365504" lon="10.457911834972183"><ele>40.66666666666667</ele><time>2026-05-03T15:11:52Z</time></trkpt><trkpt lat="44.79736872631459" lon="10.457694986836842"><ele>41.333333333333336</ele><time>2026-05-03T15:11:53Z</time></trkpt><trkpt lat="44.79746368128661" lon="10.457472123817675"><ele>42.0</ele><time>2026-05-03T15:11:54Z</time></trkpt><trkpt lat="44.79756009965944" lon="10.457249398195856"><ele>41.333333333333336</ele><time>2026-05-03T15:11:55Z</time></trkpt><trkpt lat="44.797656682194564" lon="10.457024004260004"><ele>40.66666666666667</ele><time>2026-05-03T15:11:56Z</time></trkpt><trkpt lat="44.79775278034402" lon="10.456798395842226"><ele>40.0</ele><time>2026-05-03T15:11:57Z</time></trkpt><trkpt lat="44.797850446905066" lon="10.45657215929809"><ele>40.0</ele><time>2026-05-03T15:11:58Z</time></trkpt><trkpt lat="44.79794699084442" lon="10.45634781468372"><ele>40.0</ele><time>2026-05-03T15:11:59Z</time></trkpt><trkpt lat="44.798042352944535" lon="10.456126181876702"><ele>40.0</ele><time>2026-05-03T15:12:00Z</time></trkpt><trkpt lat="44.79813339839556" lon="10.455903521019737"><ele>40.0</ele><time>2026-05-03T15:12:01Z</time></trkpt><trkpt lat="44.79822392125846" lon="10.45567977615977"><ele>40.0</ele><time>2026-05-03T15:12:02Z</time></trkpt><trkpt lat="44.798315111212126" lon="10.45545874564294"><ele>40.0</ele><time>2026-05-03T15:12:03Z</time></trkpt><trkpt lat="44.79840597312839" lon="10.455238475221224"><ele>40.0</ele><time>2026-05-03T15:12:04Z</time></trkpt><trkpt lat="44.79849334654966" lon="10.455015146129732"><ele>40.0</ele><time>2026-05-03T15:12:05Z</time></trkpt><trkpt lat="44.79857900379922" lon="10.454793993819004"><ele>40.0</ele><time>2026-05-03T15:12:06Z</time></trkpt><trkpt lat="44.79866230566954" lon="10.45456610847094"><ele>40.66666666666667</ele><time>2026-05-03T15:12:07Z</time></trkpt><trkpt lat="44.79875322105495" lon="10.454340579765455"><ele>41.333333333333336</ele><time>2026-05-03T15:12:08Z</time></trkpt><trkpt lat="44.79884695889904" lon="10.454107636558636"><ele>42.0</ele><time>2026-05-03T15:12:09Z</time></trkpt><trkpt lat="44.79894481169609" lon="10.453868441395123"><ele>41.333333333333336</ele><time>2026-05-03T15:12:10Z</time></trkpt><trkpt lat="44.79904898831428" lon="10.453627352759918"><ele>40.66666666666667</ele><time>2026-05-03T15:12:11Z</time></trkpt><trkpt lat="44.79914900785191" lon="10.453380980088195"><ele>40.0</ele><time>2026-05-03T15:12:12Z</time></trkpt><trkpt lat="44.79924799675714" lon="10.453132508890336"><ele>40.333333333333336</ele><time>2026-05-03T15:12:13Z</time></trkpt><trkpt lat="44.79935741404187" lon="10.452884587558"><ele>40.666666666666664</ele><time>2026-05-03T15:12:14Z</time></trkpt><trkpt lat="44.79946026443153" lon="10.452630338836535"><ele>41.0</ele><time>2026-05-03T15:12:15Z</time></trkpt><trkpt lat="44.79956808229674" lon="10.452369996002979"><ele>40.666666666666664</ele><time>2026-05-03T15:12:16Z</time></trkpt><trkpt lat="44.799670221771684" lon="10.45210839862622"><ele>40.333333333333336</ele><time>2026-05-03T15:12:17Z</time></trkpt><trkpt lat="44.799774964357596" lon="10.451846889081638"><ele>40.0</ele><time>2026-05-03T15:12:18Z</time></trkpt><trkpt lat="44.7998775075554" lon="10.45157981948789"><ele>40.0</ele><time>2026-05-03T15:12:19Z</time></trkpt><trkpt lat="44.79998025524435" lon="10.451312406635934"><ele>40.0</ele><time>2026-05-03T15:12:20Z</time></trkpt><trkpt lat="44.80008265336556" lon="10.451038987427022"><ele>40.0</ele><time>2026-05-03T15:12:21Z</time></trkpt><trkpt lat="44.80018633489449" lon="10.4507636418376"><ele>40.5</ele><time>2026-05-03T15:12:22Z</time></trkpt><trkpt lat="44.800289474903785" lon="10.45048270837292"><ele>41.0</ele><time>2026-05-03T15:12:23Z</time></trkpt><trkpt lat="44.800396192021836" lon="10.450202560605145"><ele>40.0</ele><time>2026-05-03T15:12:24Z</time></trkpt><trkpt lat="44.80050486431518" lon="10.44991390818359"><ele>39.0</ele><time>2026-05-03T15:12:25Z</time></trkpt><trkpt lat="44.80060813135197" lon="10.44963422254389"><ele>39.5</ele><time>2026-05-03T15:12:26Z</time></trkpt><trkpt lat="44.800717762655445" lon="10.44935169133709"><ele>40.0</ele><time>2026-05-03T15:12:27Z</time></trkpt><trkpt lat="44.80082169529989" lon="10.449063142167562"><ele>40.0</ele><time>2026-05-03T15:12:28Z</time></trkpt><trkpt lat="44.800928568541046" lon="10.448775458871994"><ele>40.0</ele><time>2026-05-03T15:12:29Z</time></trkpt><trkpt lat="44.80103333669255" lon="10.448487001463747"><ele>40.0</ele><time>2026-05-03T15:12:30Z</time></trkpt><trkpt lat="44.80114112294766" lon="10.448199844466236"><ele>40.0</ele><time>2026-05-03T15:12:31Z</time></trkpt><trkpt lat="44.80125211187438" lon="10.447910504252134"><ele>39.5</ele><time>2026-05-03T15:12:32Z</time></trkpt><trkpt lat="44.801360563418875" lon="10.447621299496044"><ele>39.0</ele><time>2026-05-03T15:12:33Z</time></trkpt><trkpt lat="44.80146870586827" lon="10.447331375810933"><ele>38.5</ele><time>2026-05-03T15:12:34Z</time></trkpt><trkpt lat="44.801575002362185" lon="10.447040269134003"><ele>38.0</ele><time>2026-05-03T15:12:35Z</time></trkpt><trkpt lat="44.80168327307009" lon="10.446747975082198"><ele>38.0</ele><time>2026-05-03T15:12:36Z</time></trkpt><trkpt lat="44.80179134986931" lon="10.446452450414798"><ele>38.0</ele><time>2026-05-03T15:12:37Z</time></trkpt><trkpt lat="44.80190442236768" lon="10.446150341888092"><ele>37.0</ele><time>2026-05-03T15:12:38Z</time></trkpt><trkpt lat="44.80201261589688" lon="10.445856110755132"><ele>36.0</ele><time>2026-05-03T15:12:39Z</time></trkpt><trkpt lat="44.802123889203976" lon="10.44555700486845"><ele>36.0</ele><time>2026-05-03T15:12:40Z</time></trkpt><trkpt lat="44.802234703869416" lon="10.445255701345088"><ele>36.0</ele><time>2026-05-03T15:12:41Z</time></trkpt><trkpt lat="44.80234732459568" lon="10.444955060899257"><ele>36.0</ele><time>2026-05-03T15:12:42Z</time></trkpt><trkpt lat="44.80246056246449" lon="10.44465474302687"><ele>36.0</ele><time>2026-05-03T15:12:43Z</time></trkpt><trkpt lat="44.80257539414728" lon="10.444350051284504"><ele>36.0</ele><time>2026-05-03T15:12:44Z</time></trkpt><trkpt lat="44.802687080006315" lon="10.44404810171999"><ele>36.0</ele><time>2026-05-03T15:12:45Z</time></trkpt><trkpt lat="44.80279850413815" lon="10.443746893128573"><ele>36.0</ele><time>2026-05-03T15:12:46Z</time></trkpt><trkpt lat="44.80291045974535" lon="10.443443449357472"><ele>36.0</ele><time>2026-05-03T15:12:47Z</time></trkpt><trkpt lat="44.80302179597738" lon="10.443139297494332"><ele>36.5</ele><time>2026-05-03T15:12:48Z</time></trkpt><trkpt lat="44.803134627166266" lon="10.442833068600333"><ele>37.0</ele><time>2026-05-03T15:12:49Z</time></trkpt><trkpt lat="44.80324906196522" lon="10.44252463098291"><ele>37.0</ele><time>2026-05-03T15:12:50Z</time></trkpt><trkpt lat="44.80336393858523" lon="10.442216982125128"><ele>37.0</ele><time>2026-05-03T15:12:51Z</time></trkpt><trkpt lat="44.803479172271004" lon="10.44190332952744"><ele>37.5</ele><time>2026-05-03T15:12:52Z</time></trkpt><trkpt lat="44.803594947773114" lon="10.441591855811113"><ele>38.0</ele><time>2026-05-03T15:12:53Z</time></trkpt><trkpt lat="44.80371002116766" lon="10.441279767289787"><ele>38.5</ele><time>2026-05-03T15:12:54Z</time></trkpt><trkpt lat="44.803826960304164" lon="10.440965972054109"><ele>39.0</ele><time>2026-05-03T15:12:55Z</time></trkpt><trkpt lat="44.80394465175769" lon="10.440655185687413"><ele>39.5</ele><time>2026-05-03T15:12:56Z</time></trkpt><trkpt lat="44.80406123142681" lon="10.440343511209774"><ele>40.0</ele><time>2026-05-03T15:12:57Z</time></trkpt><trkpt lat="44.80417733231865" lon="10.44003004301311"><ele>40.0</ele><time>2026-05-03T15:12:58Z</time></trkpt><trkpt lat="44.80429314254712" lon="10.439716041438981"><ele>40.0</ele><time>2026-05-03T15:12:59Z</time></trkpt><trkpt lat="44.80441026743676" lon="10.439404412080625"><ele>39.0</ele><time>2026-05-03T15:13:00Z</time></trkpt><trkpt lat="44.80452597847334" lon="10.439089371081103"><ele>38.0</ele><time>2026-05-03T15:13:01Z</time></trkpt><trkpt lat="44.804639907002944" lon="10.438778409711045"><ele>38.0</ele><time>2026-05-03T15:13:02Z</time></trkpt><trkpt lat="44.80475640268832" lon="10.438461076525668"><ele>38.0</ele><time>2026-05-03T15:13:03Z</time></trkpt><trkpt lat="44.80487376256935" lon="10.438148771341318"><ele>38.0</ele><time>2026-05-03T15:13:04Z</time></trkpt><trkpt lat="44.80499189817708" lon="10.437834642367532"><ele>38.0</ele><time>2026-05-03T15:13:05Z</time></trkpt><trkpt lat="44.80510956413994" lon="10.437520840862206"><ele>38.0</ele><time>2026-05-03T15:13:06Z</time></trkpt><trkpt lat="44.805227435997885" lon="10.437205194656752"><ele>38.0</ele><time>2026-05-03T15:13:07Z</time></trkpt><trkpt lat="44.80534333174508" lon="10.436892367178814"><ele>38.0</ele><time>2026-05-03T15:13:08Z</time></trkpt><trkpt lat="44.80545985296634" lon="10.436578333720764"><ele>38.0</ele><time>2026-05-03T15:13:09Z</time></trkpt><trkpt lat="44.80557575254304" lon="10.436262420646989"><ele>38.5</ele><time>2026-05-03T15:13:10Z</time></trkpt><trkpt lat="44.80569261635103" lon="10.435950772729559"><ele>39.0</ele><time>2026-05-03T15:13:11Z</time></trkpt><trkpt lat="44.80580766916627" lon="10.435640688714482"><ele>39.0</ele><time>2026-05-03T15:13:12Z</time></trkpt><trkpt lat="44.80592282599061" lon="10.435334745521823"><ele>39.0</ele><time>2026-05-03T15:13:13Z</time></trkpt><trkpt lat="44.806035610607985" lon="10.435032311804045"><ele>38.5</ele><time>2026-05-03T15:13:14Z</time></trkpt><trkpt lat="44.80614797221415" lon="10.434732525080822"><ele>38.0</ele><time>2026-05-03T15:13:15Z</time></trkpt><trkpt lat="44.80625532006305" lon="10.434438632494441"><ele>37.5</ele><time>2026-05-03T15:13:16Z</time></trkpt><trkpt lat="44.80636132516286" lon="10.434152001659198"><ele>37.0</ele><time>2026-05-03T15:13:17Z</time></trkpt><trkpt lat="44.806467293475194" lon="10.433869433915334"><ele>37.0</ele><time>2026-05-03T15:13:18Z</time></trkpt><trkpt lat="44.806572917262336" lon="10.433588881523688"><ele>37.0</ele><time>2026-05-03T15:13:19Z</time></trkpt><trkpt lat="44.806674879614654" lon="10.433317079293616"><ele>37.0</ele><time>2026-05-03T15:13:20Z</time></trkpt><trkpt lat="44.80677467372191" lon="10.433047696147565"><ele>36.66666666666667</ele><time>2026-05-03T15:13:21Z</time></trkpt><trkpt lat="44.80687469754626" lon="10.432781761274589"><ele>36.333333333333336</ele><time>2026-05-03T15:13:22Z</time></trkpt><trkpt lat="44.806973186506" lon="10.432520362549793"><ele>36.0</ele><time>2026-05-03T15:13:23Z</time></trkpt><trkpt lat="44.80706967625688" lon="10.43226091242709"><ele>37.0</ele><time>2026-05-03T15:13:24Z</time></trkpt><trkpt lat="44.80716274391825" lon="10.432004939407863"><ele>38.0</ele><time>2026-05-03T15:13:25Z</time></trkpt><trkpt lat="44.80725681112586" lon="10.431748017906182"><ele>39.0</ele><time>2026-05-03T15:13:26Z</time></trkpt><trkpt lat="44.80735072554438" lon="10.431494209994058"><ele>38.666666666666664</ele><time>2026-05-03T15:13:27Z</time></trkpt><trkpt lat="44.80744440438525" lon="10.431237540851289"><ele>38.33333333333333</ele><time>2026-05-03T15:13:28Z</time></trkpt><trkpt lat="44.807538047371274" lon="10.430988002101472"><ele>38.0</ele><time>2026-05-03T15:13:29Z</time></trkpt><trkpt lat="44.807629643985166" lon="10.430739615454513"><ele>37.33333333333333</ele><time>2026-05-03T15:13:30Z</time></trkpt><trkpt lat="44.80772204014397" lon="10.430493492153262"><ele>36.666666666666664</ele><time>2026-05-03T15:13:31Z</time></trkpt><trkpt lat="44.80781381414958" lon="10.430247498682197"><ele>36.0</ele><time>2026-05-03T15:13:32Z</time></trkpt><trkpt lat="44.80790465043278" lon="10.430001669999559"><ele>36.0</ele><time>2026-05-03T15:13:33Z</time></trkpt><trkpt lat="44.80799514357569" lon="10.429756561677616"><ele>36.0</ele><time>2026-05-03T15:13:34Z</time></trkpt><trkpt lat="44.80808434087894" lon="10.429514923036436"><ele>36.0</ele><time>2026-05-03T15:13:35Z</time></trkpt><trkpt lat="44.80817399318192" lon="10.429272743185338"><ele>36.0</ele><time>2026-05-03T15:13:36Z</time></trkpt><trkpt lat="44.80826348656814" lon="10.429032210288053"><ele>36.0</ele><time>2026-05-03T15:13:37Z</time></trkpt><trkpt lat="44.80835376661077" lon="10.42879104841789"><ele>36.0</ele><time>2026-05-03T15:13:38Z</time></trkpt><trkpt lat="44.808442633713085" lon="10.428548456111663"><ele>36.0</ele><time>2026-05-03T15:13:39Z</time></trkpt><trkpt lat="44.808536887208035" lon="10.428298995012451"><ele>36.0</ele><time>2026-05-03T15:13:40Z</time></trkpt><trkpt lat="44.80862876519479" lon="10.428049420921"><ele>36.0</ele><time>2026-05-03T15:13:41Z</time></trkpt><trkpt lat="44.808724181708186" lon="10.427794944213343"><ele>36.333333333333336</ele><time>2026-05-03T15:13:42Z</time></trkpt><trkpt lat="44.808819869787186" lon="10.427535939625441"><ele>36.66666666666667</ele><time>2026-05-03T15:13:43Z</time></trkpt><trkpt lat="44.80891685341772" lon="10.427274787378051"><ele>37.0</ele><time>2026-05-03T15:13:44Z</time></trkpt><trkpt lat="44.80901426020077" lon="10.427008645070964"><ele>37.66666666666667</ele><time>2026-05-03T15:13:45Z</time></trkpt><trkpt lat="44.809112374525554" lon="10.426738086378949"><ele>38.333333333333336</ele><time>2026-05-03T15:13:46Z</time></trkpt><trkpt lat="44.809214986487284" lon="10.426465053964"><ele>39.0</ele><time>2026-05-03T15:13:47Z</time></trkpt><trkpt lat="44.809315400586726" lon="10.42619060730914"><ele>38.666666666666664</ele><time>2026-05-03T15:13:48Z</time></trkpt><trkpt lat="44.809419241385335" lon="10.425914810958949"><ele>38.33333333333333</ele><time>2026-05-03T15:13:49Z</time></trkpt><trkpt lat="44.80952351378168" lon="10.425637618046569"><ele>38.0</ele><time>2026-05-03T15:13:50Z</time></trkpt><trkpt lat="44.809626948908054" lon="10.425361036749273"><ele>37.0</ele><time>2026-05-03T15:13:51Z</time></trkpt><trkpt lat="44.80973110460614" lon="10.425082129450889"><ele>36.0</ele><time>2026-05-03T15:13:52Z</time></trkpt><trkpt lat="44.80983269488322" lon="10.4248081099251"><ele>35.0</ele><time>2026-05-03T15:13:53Z</time></trkpt><trkpt lat="44.80993614694502" lon="10.424534273917493"><ele>35.0</ele><time>2026-05-03T15:13:54Z</time></trkpt><trkpt lat="44.81003755634748" lon="10.42425885393173"><ele>35.0</ele><time>2026-05-03T15:13:55Z</time></trkpt><trkpt lat="44.81013846670162" lon="10.42398839029679"><ele>35.0</ele><time>2026-05-03T15:13:56Z</time></trkpt><trkpt lat="44.810238829977585" lon="10.423715838091482"><ele>35.0</ele><time>2026-05-03T15:13:57Z</time></trkpt><trkpt lat="44.81033822230487" lon="10.423442217421162"><ele>35.0</ele><time>2026-05-03T15:13:58Z</time></trkpt><trkpt lat="44.810438792813464" lon="10.423171831073256"><ele>35.0</ele><time>2026-05-03T15:13:59Z</time></trkpt><trkpt lat="44.810540011150565" lon="10.422897573186894"><ele>35.0</ele><time>2026-05-03T15:14:00Z</time></trkpt><trkpt lat="44.810641059851655" lon="10.422624347367387"><ele>35.0</ele><time>2026-05-03T15:14:01Z</time></trkpt><trkpt lat="44.81074237814023" lon="10.422351313982324"><ele>35.0</ele><time>2026-05-03T15:14:02Z</time></trkpt><trkpt lat="44.81084421996036" lon="10.422076218100848"><ele>35.33333333333333</ele><time>2026-05-03T15:14:03Z</time></trkpt><trkpt lat="44.8109443002761" lon="10.42180218237424"><ele>35.666666666666664</ele><time>2026-05-03T15:14:04Z</time></trkpt><trkpt lat="44.81104788625569" lon="10.421526491294816"><ele>36.0</ele><time>2026-05-03T15:14:05Z</time></trkpt><trkpt lat="44.81115098646126" lon="10.421249858731542"><ele>37.0</ele><time>2026-05-03T15:14:06Z</time></trkpt><trkpt lat="44.81125451839409" lon="10.42096985551112"><ele>38.0</ele><time>2026-05-03T15:14:07Z</time></trkpt><trkpt lat="44.811360715309355" lon="10.420685589477225"><ele>37.5</ele><time>2026-05-03T15:14:08Z</time></trkpt><trkpt lat="44.81146935601856" lon="10.420396487725162"><ele>37.0</ele><time>2026-05-03T15:14:09Z</time></trkpt><trkpt lat="44.81157636621816" lon="10.4201055750732"><ele>37.0</ele><time>2026-05-03T15:14:10Z</time></trkpt><trkpt lat="44.81168657490983" lon="10.419810798051797"><ele>37.0</ele><time>2026-05-03T15:14:11Z</time></trkpt><trkpt lat="44.81179754402597" lon="10.419512157214841"><ele>37.0</ele><time>2026-05-03T15:14:12Z</time></trkpt><trkpt lat="44.81190862796253" lon="10.419212272081543"><ele>37.0</ele><time>2026-05-03T15:14:13Z</time></trkpt><trkpt lat="44.812020384303935" lon="10.418913959492441"><ele>36.5</ele><time>2026-05-03T15:14:14Z</time></trkpt><trkpt lat="44.81213304559988" lon="10.418611737056787"><ele>36.0</ele><time>2026-05-03T15:14:15Z</time></trkpt><trkpt lat="44.81224484294347" lon="10.418308689739852"><ele>36.0</ele><time>2026-05-03T15:14:16Z</time></trkpt><trkpt lat="44.812357102403865" lon="10.418002532379894"><ele>36.0</ele><time>2026-05-03T15:14:17Z</time></trkpt><trkpt lat="44.81247017195018" lon="10.417695288077145"><ele>36.0</ele><time>2026-05-03T15:14:18Z</time></trkpt><trkpt lat="44.81258330149109" lon="10.417388062665268"><ele>36.0</ele><time>2026-05-03T15:14:19Z</time></trkpt><trkpt lat="44.812698225398265" lon="10.417080851999922"><ele>36.0</ele><time>2026-05-03T15:14:20Z</time></trkpt><trkpt lat="44.81281192605665" lon="10.416775305545077"><ele>36.0</ele><time>2026-05-03T15:14:21Z</time></trkpt><trkpt lat="44.812926030874834" lon="10.416469889235852"><ele>37.0</ele><time>2026-05-03T15:14:22Z</time></trkpt><trkpt lat="44.813039632685886" lon="10.416160947663673"><ele>38.0</ele><time>2026-05-03T15:14:23Z</time></trkpt><trkpt lat="44.813154870442524" lon="10.415851155372506"><ele>38.0</ele><time>2026-05-03T15:14:24Z</time></trkpt><trkpt lat="44.813270122773226" lon="10.415541445908046"><ele>38.0</ele><time>2026-05-03T15:14:25Z</time></trkpt><trkpt lat="44.813384075923466" lon="10.415231996175796"><ele>38.0</ele><time>2026-05-03T15:14:26Z</time></trkpt><trkpt lat="44.81349789290955" lon="10.414922868645153"><ele>38.0</ele><time>2026-05-03T15:14:27Z</time></trkpt><trkpt lat="44.81361201045657" lon="10.41461372604507"><ele>37.0</ele><time>2026-05-03T15:14:28Z</time></trkpt><trkpt lat="44.81372840380724" lon="10.414303059551623"><ele>36.0</ele><time>2026-05-03T15:14:29Z</time></trkpt><trkpt lat="44.813844719288376" lon="10.413991573684843"><ele>37.0</ele><time>2026-05-03T15:14:30Z</time></trkpt><trkpt lat="44.81395866434351" lon="10.413679027020487"><ele>38.0</ele><time>2026-05-03T15:14:31Z</time></trkpt><trkpt lat="44.81407004509402" lon="10.413370785179382"><ele>38.0</ele><time>2026-05-03T15:14:32Z</time></trkpt><trkpt lat="44.814182706495465" lon="10.413067034371693"><ele>38.0</ele><time>2026-05-03T15:14:33Z</time></trkpt><trkpt lat="44.81429551943805" lon="10.412763757933934"><ele>37.0</ele><time>2026-05-03T15:14:34Z</time></trkpt><trkpt lat="44.8144077629352" lon="10.412460373245901"><ele>36.0</ele><time>2026-05-03T15:14:35Z</time></trkpt><trkpt lat="44.814521514537766" lon="10.412157337332902"><ele>36.0</ele><time>2026-05-03T15:14:36Z</time></trkpt><trkpt lat="44.81463546900439" lon="10.411858721795866"><ele>36.0</ele><time>2026-05-03T15:14:37Z</time></trkpt><trkpt lat="44.814746982119324" lon="10.411557614003627"><ele>36.5</ele><time>2026-05-03T15:14:38Z</time></trkpt><trkpt lat="44.81485880750891" lon="10.411255311817575"><ele>37.0</ele><time>2026-05-03T15:14:39Z</time></trkpt><trkpt lat="44.81496945121652" lon="10.410952335824328"><ele>37.0</ele><time>2026-05-03T15:14:40Z</time></trkpt><trkpt lat="44.81507972760682" lon="10.410652474092766"><ele>37.0</ele><time>2026-05-03T15:14:41Z</time></trkpt><trkpt lat="44.81519334296959" lon="10.410354966357717"><ele>35.5</ele><time>2026-05-03T15:14:42Z</time></trkpt><trkpt lat="44.815304473189705" lon="10.410058825145812"><ele>34.0</ele><time>2026-05-03T15:14:43Z</time></trkpt><trkpt lat="44.815414932446004" lon="10.409760507463115"><ele>34.5</ele><time>2026-05-03T15:14:44Z</time></trkpt><trkpt lat="44.8155235003314" lon="10.409459745904991"><ele>35.0</ele><time>2026-05-03T15:14:45Z</time></trkpt><trkpt lat="44.81562964414919" lon="10.409160235713864"><ele>35.0</ele><time>2026-05-03T15:14:46Z</time></trkpt><trkpt lat="44.81573383389581" lon="10.408859559568224"><ele>35.0</ele><time>2026-05-03T15:14:47Z</time></trkpt><trkpt lat="44.815839926105134" lon="10.408559500034304"><ele>34.5</ele><time>2026-05-03T15:14:48Z</time></trkpt><trkpt lat="44.815951103590194" lon="10.408256246068598"><ele>34.0</ele><time>2026-05-03T15:14:49Z</time></trkpt><trkpt lat="44.816059015099654" lon="10.407952084572138"><ele>34.0</ele><time>2026-05-03T15:14:50Z</time></trkpt><trkpt lat="44.81617002741997" lon="10.407657321578004"><ele>34.0</ele><time>2026-05-03T15:14:51Z</time></trkpt><trkpt lat="44.816281276971665" lon="10.407364337278661"><ele>34.5</ele><time>2026-05-03T15:14:52Z</time></trkpt><trkpt lat="44.81639024122267" lon="10.407068028725039"><ele>35.0</ele><time>2026-05-03T15:14:53Z</time></trkpt><trkpt lat="44.81649851422523" lon="10.406769983721555"><ele>35.0</ele><time>2026-05-03T15:14:54Z</time></trkpt><trkpt lat="44.8166061514154" lon="10.406473563934075"><ele>35.0</ele><time>2026-05-03T15:14:55Z</time></trkpt><trkpt lat="44.81671145067908" lon="10.406177550203035"><ele>35.0</ele><time>2026-05-03T15:14:56Z</time></trkpt><trkpt lat="44.81681657960606" lon="10.405879479947778"><ele>35.0</ele><time>2026-05-03T15:14:57Z</time></trkpt><trkpt lat="44.816922294049554" lon="10.405582324801001"><ele>34.0</ele><time>2026-05-03T15:14:58Z</time></trkpt><trkpt lat="44.8170285407872" lon="10.405279799425728"><ele>33.0</ele><time>2026-05-03T15:14:59Z</time></trkpt><trkpt lat="44.81713699132783" lon="10.404972334808976"><ele>33.0</ele><time>2026-05-03T15:15:00Z</time></trkpt><trkpt lat="44.81724706070465" lon="10.404662817924436"><ele>33.0</ele><time>2026-05-03T15:15:01Z</time></trkpt><trkpt lat="44.81736092019368" lon="10.404350533444738"><ele>33.5</ele><time>2026-05-03T15:15:02Z</time></trkpt><trkpt lat="44.81747797974283" lon="10.404033513286073"><ele>34.0</ele><time>2026-05-03T15:15:03Z</time></trkpt><trkpt lat="44.81759691997877" lon="10.403712378652067"><ele>34.5</ele><time>2026-05-03T15:15:04Z</time></trkpt><trkpt lat="44.8177173122772" lon="10.403387774035414"><ele>35.0</ele><time>2026-05-03T15:15:05Z</time></trkpt><trkpt lat="44.81783731524442" lon="10.403062816997043"><ele>35.5</ele><time>2026-05-03T15:15:06Z</time></trkpt><trkpt lat="44.817956296103034" lon="10.402738211474862"><ele>36.0</ele><time>2026-05-03T15:15:07Z</time></trkpt><trkpt lat="44.818074922832025" lon="10.402413125750249"><ele>34.5</ele><time>2026-05-03T15:15:08Z</time></trkpt><trkpt lat="44.818193670917324" lon="10.40208748619267"><ele>33.0</ele><time>2026-05-03T15:15:09Z</time></trkpt><trkpt lat="44.818312868790315" lon="10.401759342473463"><ele>33.0</ele><time>2026-05-03T15:15:10Z</time></trkpt><trkpt lat="44.818433767051054" lon="10.401428138044023"><ele>33.0</ele><time>2026-05-03T15:15:11Z</time></trkpt><trkpt lat="44.818555365295445" lon="10.401099327690815"><ele>34.0</ele><time>2026-05-03T15:15:12Z</time></trkpt><trkpt lat="44.818678991606205" lon="10.40076613554523"><ele>35.0</ele><time>2026-05-03T15:15:13Z</time></trkpt><trkpt lat="44.81880673785734" lon="10.400423248998818"><ele>35.0</ele><time>2026-05-03T15:15:14Z</time></trkpt><trkpt lat="44.8189379215393" lon="10.400076433364836"><ele>35.0</ele><time>2026-05-03T15:15:15Z</time></trkpt><trkpt lat="44.819071256382706" lon="10.399726588170076"><ele>35.5</ele><time>2026-05-03T15:15:16Z</time></trkpt><trkpt lat="44.819206582252455" lon="10.399376144096284"><ele>36.0</ele><time>2026-05-03T15:15:17Z</time></trkpt><trkpt lat="44.81934031133722" lon="10.399023851833721"><ele>35.5</ele><time>2026-05-03T15:15:18Z</time></trkpt><trkpt lat="44.819472454558415" lon="10.398670914268017"><ele>35.0</ele><time>2026-05-03T15:15:19Z</time></trkpt><trkpt lat="44.81960334134635" lon="10.398316938516905"><ele>35.5</ele><time>2026-05-03T15:15:20Z</time></trkpt><trkpt lat="44.819734391406286" lon="10.397966723584764"><ele>36.0</ele><time>2026-05-03T15:15:21Z</time></trkpt><trkpt lat="44.81986451414663" lon="10.39762110333085"><ele>36.0</ele><time>2026-05-03T15:15:22Z</time></trkpt><trkpt lat="44.81999310052715" lon="10.397279334107418"><ele>36.0</ele><time>2026-05-03T15:15:23Z</time></trkpt><trkpt lat="44.820121322285644" lon="10.396940474986094"><ele>35.5</ele><time>2026-05-03T15:15:24Z</time></trkpt><trkpt lat="44.82025014734552" lon="10.396602642551278"><ele>35.0</ele><time>2026-05-03T15:15:25Z</time></trkpt><trkpt lat="44.820379184298154" lon="10.396262810928006"><ele>34.5</ele><time>2026-05-03T15:15:26Z</time></trkpt><trkpt lat="44.820508255064055" lon="10.39592039032108"><ele>34.0</ele><time>2026-05-03T15:15:27Z</time></trkpt><trkpt lat="44.8206372049631" lon="10.395575742116515"><ele>34.5</ele><time>2026-05-03T15:15:28Z</time></trkpt><trkpt lat="44.820763989588016" lon="10.39523399566847"><ele>35.0</ele><time>2026-05-03T15:15:29Z</time></trkpt><trkpt lat="44.82089190024922" lon="10.394889942133398"><ele>34.5</ele><time>2026-05-03T15:15:30Z</time></trkpt><trkpt lat="44.82101837669919" lon="10.394556795760886"><ele>34.0</ele><time>2026-05-03T15:15:31Z</time></trkpt><trkpt lat="44.821145613610916" lon="10.394218535373085"><ele>34.0</ele><time>2026-05-03T15:15:32Z</time></trkpt><trkpt lat="44.821272432115336" lon="10.393878781174731"><ele>34.0</ele><time>2026-05-03T15:15:33Z</time></trkpt><trkpt lat="44.821396426772566" lon="10.393545617044948"><ele>34.5</ele><time>2026-05-03T15:15:34Z</time></trkpt><trkpt lat="44.82152040495952" lon="10.393216465849191"><ele>35.0</ele><time>2026-05-03T15:15:35Z</time></trkpt><trkpt lat="44.821644507823066" lon="10.392886676996795"><ele>36.5</ele><time>2026-05-03T15:15:36Z</time></trkpt><trkpt lat="44.821767693945844" lon="10.392557579034344"><ele>38.0</ele><time>2026-05-03T15:15:37Z</time></trkpt><trkpt lat="44.82188997746324" lon="10.392229804815122"><ele>38.5</ele><time>2026-05-03T15:15:38Z</time></trkpt><trkpt lat="44.82201044171173" lon="10.391901225849768"><ele>39.0</ele><time>2026-05-03T15:15:39Z</time></trkpt><trkpt lat="44.82213159629738" lon="10.391569895859618"><ele>38.5</ele><time>2026-05-03T15:15:40Z</time></trkpt><trkpt lat="44.82225142285371" lon="10.391242742245652"><ele>38.0</ele><time>2026-05-03T15:15:41Z</time></trkpt><trkpt lat="44.822369690029696" lon="10.390920601007918"><ele>38.0</ele><time>2026-05-03T15:15:42Z</time></trkpt><trkpt lat="44.822489254571664" lon="10.390600232004001"><ele>38.0</ele><time>2026-05-03T15:15:43Z</time></trkpt><trkpt lat="44.82260880311274" lon="10.390284869062857"><ele>37.0</ele><time>2026-05-03T15:15:44Z</time></trkpt><trkpt lat="44.82272288355864" lon="10.389976066652256"><ele>36.0</ele><time>2026-05-03T15:15:45Z</time></trkpt><trkpt lat="44.82283616955495" lon="10.389667764370193"><ele>36.0</ele><time>2026-05-03T15:15:46Z</time></trkpt><trkpt lat="44.82294614102205" lon="10.389370298690086"><ele>36.0</ele><time>2026-05-03T15:15:47Z</time></trkpt><trkpt lat="44.82304968496244" lon="10.389093521817763"><ele>36.0</ele><time>2026-05-03T15:15:48Z</time></trkpt><trkpt lat="44.82314650829053" lon="10.388839354314056"><ele>36.0</ele><time>2026-05-03T15:15:49Z</time></trkpt><trkpt lat="44.82323745287872" lon="10.388594540905029"><ele>36.0</ele><time>2026-05-03T15:15:50Z</time></trkpt><trkpt lat="44.8233246404295" lon="10.388360404689436"><ele>36.0</ele><time>2026-05-03T15:15:51Z</time></trkpt><trkpt lat="44.8234091883787" lon="10.388129734687196"><ele>36.0</ele><time>2026-05-03T15:15:52Z</time></trkpt><trkpt lat="44.82349059997536" lon="10.38789140938644"><ele>36.0</ele><time>2026-05-03T15:15:53Z</time></trkpt><trkpt lat="44.8235746813391" lon="10.387641211305013"><ele>36.666666666666664</ele><time>2026-05-03T15:15:54Z</time></trkpt><trkpt lat="44.8236641857218" lon="10.38738623863667"><ele>37.33333333333333</ele><time>2026-05-03T15:15:55Z</time></trkpt><trkpt lat="44.8237599742945" lon="10.38712886359485"><ele>38.0</ele><time>2026-05-03T15:15:56Z</time></trkpt><trkpt lat="44.82385649543566" lon="10.386868831812633"><ele>38.666666666666664</ele><time>2026-05-03T15:15:57Z</time></trkpt><trkpt lat="44.82395446967603" lon="10.386610721476169"><ele>39.333333333333336</ele><time>2026-05-03T15:15:58Z</time></trkpt><trkpt lat="44.82405038648439" lon="10.386364411689321"><ele>40.0</ele><time>2026-05-03T15:15:59Z</time></trkpt><trkpt lat="44.824141199320664" lon="10.386131892477556"><ele>40.0</ele><time>2026-05-03T15:16:00Z</time></trkpt><trkpt lat="44.82422779948475" lon="10.38590538139916"><ele>40.0</ele><time>2026-05-03T15:16:01Z</time></trkpt><trkpt lat="44.82430998933959" lon="10.385687247755056"><ele>40.0</ele><time>2026-05-03T15:16:02Z</time></trkpt><trkpt lat="44.82438939076932" lon="10.385474396082882"><ele>41.0</ele><time>2026-05-03T15:16:03Z</time></trkpt><trkpt lat="44.824465560628056" lon="10.385273273156088"><ele>42.0</ele><time>2026-05-03T15:16:04Z</time></trkpt><trkpt lat="44.824538747470896" lon="10.385079327533894"><ele>43.0</ele><time>2026-05-03T15:16:05Z</time></trkpt><trkpt lat="44.82461376731091" lon="10.384880485044004"><ele>42.333333333333336</ele><time>2026-05-03T15:16:06Z</time></trkpt><trkpt lat="44.82469109617778" lon="10.384675404810807"><ele>41.666666666666664</ele><time>2026-05-03T15:16:07Z</time></trkpt><trkpt lat="44.824771932458276" lon="10.384467351730144"><ele>41.0</ele><time>2026-05-03T15:16:08Z</time></trkpt><trkpt lat="44.824855247881516" lon="10.384254879159108"><ele>41.0</ele><time>2026-05-03T15:16:09Z</time></trkpt><trkpt lat="44.824935276497676" lon="10.384045675417973"><ele>41.0</ele><time>2026-05-03T15:16:10Z</time></trkpt><trkpt lat="44.82502260475685" lon="10.383843557017055"><ele>41.0</ele><time>2026-05-03T15:16:11Z</time></trkpt><trkpt lat="44.825110128210156" lon="10.383639359877495"><ele>40.33333333333333</ele><time>2026-05-03T15:16:12Z</time></trkpt><trkpt lat="44.82518053254775" lon="10.383405110105688"><ele>39.666666666666664</ele><time>2026-05-03T15:16:13Z</time></trkpt><trkpt lat="44.82526450816558" lon="10.383183531571769"><ele>39.0</ele><time>2026-05-03T15:16:14Z</time></trkpt><trkpt lat="44.82535016728018" lon="10.38295734745702"><ele>39.0</ele><time>2026-05-03T15:16:15Z</time></trkpt><trkpt lat="44.82543571342319" lon="10.382727108538205"><ele>39.0</ele><time>2026-05-03T15:16:16Z</time></trkpt><trkpt lat="44.82552000946804" lon="10.382496799410161"><ele>39.0</ele><time>2026-05-03T15:16:17Z</time></trkpt><trkpt lat="44.82559987821889" lon="10.382272186337506"><ele>38.666666666666664</ele><time>2026-05-03T15:16:18Z</time></trkpt><trkpt lat="44.825676218720446" lon="10.382051892967171"><ele>38.33333333333333</ele><time>2026-05-03T15:16:19Z</time></trkpt><trkpt lat="44.825752232272336" lon="10.381840760275818"><ele>38.0</ele><time>2026-05-03T15:16:20Z</time></trkpt><trkpt lat="44.82582948390193" lon="10.381636964565393"><ele>38.0</ele><time>2026-05-03T15:16:21Z</time></trkpt><trkpt lat="44.82590964606557" lon="10.381427447047894"><ele>38.0</ele><time>2026-05-03T15:16:22Z</time></trkpt><trkpt lat="44.825988479629785" lon="10.381214515011312"><ele>38.0</ele><time>2026-05-03T15:16:23Z</time></trkpt><trkpt lat="44.82606522523132" lon="10.381000540848975"><ele>38.0</ele><time>2026-05-03T15:16:24Z</time></trkpt><trkpt lat="44.82613994371511" lon="10.380785256258632"><ele>38.0</ele><time>2026-05-03T15:16:25Z</time></trkpt><trkpt lat="44.82621403562682" lon="10.380567398210752"><ele>38.0</ele><time>2026-05-03T15:16:26Z</time></trkpt><trkpt lat="44.826287160874884" lon="10.380348412670713"><ele>39.0</ele><time>2026-05-03T15:16:27Z</time></trkpt><trkpt lat="44.826359474158195" lon="10.380129645647187"><ele>40.0</ele><time>2026-05-03T15:16:28Z</time></trkpt><trkpt lat="44.82651453155063" lon="10.379793143338484"><ele>39.66666666666667</ele><time>2026-05-03T15:16:29Z</time></trkpt><trkpt lat="44.82660523995807" lon="10.379551209480503"><ele>39.333333333333336</ele><time>2026-05-03T15:16:30Z</time></trkpt><trkpt lat="44.82669489273713" lon="10.379310373325842"><ele>39.0</ele><time>2026-05-03T15:16:31Z</time></trkpt><trkpt lat="44.826783267763126" lon="10.37906927589677"><ele>38.666666666666664</ele><time>2026-05-03T15:16:32Z</time></trkpt><trkpt lat="44.82687125533766" lon="10.37884039871715"><ele>38.33333333333333</ele><time>2026-05-03T15:16:33Z</time></trkpt><trkpt lat="44.82695737721018" lon="10.378617879000442"><ele>38.0</ele><time>2026-05-03T15:16:34Z</time></trkpt><trkpt lat="44.82703776144018" lon="10.378396490411703"><ele>38.0</ele><time>2026-05-03T15:16:35Z</time></trkpt><trkpt lat="44.82711669170875" lon="10.378180562667854"><ele>38.0</ele><time>2026-05-03T15:16:36Z</time></trkpt><trkpt lat="44.82719112149639" lon="10.377976636926595"><ele>38.0</ele><time>2026-05-03T15:16:37Z</time></trkpt><trkpt lat="44.82727190769659" lon="10.37776180752874"><ele>38.0</ele><time>2026-05-03T15:16:38Z</time></trkpt><trkpt lat="44.82735106811325" lon="10.3775500920941"><ele>38.0</ele><time>2026-05-03T15:16:39Z</time></trkpt><trkpt lat="44.82742788587706" lon="10.377333206749327"><ele>38.0</ele><time>2026-05-03T15:16:40Z</time></trkpt><trkpt lat="44.827503565998356" lon="10.377135809788484"><ele>38.25</ele><time>2026-05-03T15:16:41Z</time></trkpt><trkpt lat="44.8275767838471" lon="10.376939547791181"><ele>38.5</ele><time>2026-05-03T15:16:42Z</time></trkpt><trkpt lat="44.82764079340105" lon="10.376764068974353"><ele>38.75</ele><time>2026-05-03T15:16:43Z</time></trkpt><trkpt lat="44.82769035456221" lon="10.376635788972077"><ele>39.0</ele><time>2026-05-03T15:16:44Z</time></trkpt><trkpt lat="44.82773306987431" lon="10.376519288164587"><ele>38.666666666666664</ele><time>2026-05-03T15:16:45Z</time></trkpt><trkpt lat="44.82777464801635" lon="10.376401215109048"><ele>38.333333333333336</ele><time>2026-05-03T15:16:46Z</time></trkpt><trkpt lat="44.82780327860355" lon="10.376309101377723"><ele>38.0</ele><time>2026-05-03T15:16:47Z</time></trkpt><trkpt lat="44.82784912645473" lon="10.376182375767785"><ele>37.66666666666667</ele><time>2026-05-03T15:16:49Z</time></trkpt><trkpt lat="44.827889202807754" lon="10.37607905461495"><ele>37.333333333333336</ele><time>2026-05-03T15:16:50Z</time></trkpt><trkpt lat="44.827938600688505" lon="10.375965051937332"><ele>37.0</ele><time>2026-05-03T15:16:51Z</time></trkpt><trkpt lat="44.827995116139206" lon="10.375820582763934"><ele>37.0</ele><time>2026-05-03T15:16:52Z</time></trkpt><trkpt lat="44.828051459784916" lon="10.37565028759757"><ele>37.0</ele><time>2026-05-03T15:16:53Z</time></trkpt><trkpt lat="44.82811566401782" lon="10.375476087439834"><ele>37.0</ele><time>2026-05-03T15:16:54Z</time></trkpt><trkpt lat="44.828182974517375" lon="10.375293985885886"><ele>37.0</ele><time>2026-05-03T15:16:55Z</time></trkpt><trkpt lat="44.82825455735803" lon="10.375100862141975"><ele>37.0</ele><time>2026-05-03T15:16:56Z</time></trkpt><trkpt lat="44.82832570212381" lon="10.374908125676072"><ele>37.0</ele><time>2026-05-03T15:16:57Z</time></trkpt><trkpt lat="44.828395919564784" lon="10.374714858928488"><ele>37.0</ele><time>2026-05-03T15:16:58Z</time></trkpt><trkpt lat="44.828469295965704" lon="10.374519217315457"><ele>36.66666666666667</ele><time>2026-05-03T15:16:59Z</time></trkpt><trkpt lat="44.82854455629985" lon="10.374324876522477"><ele>36.333333333333336</ele><time>2026-05-03T15:17:00Z</time></trkpt><trkpt lat="44.828614676772155" lon="10.374132842568237"><ele>36.0</ele><time>2026-05-03T15:17:01Z</time></trkpt><trkpt lat="44.828685925578924" lon="10.373938734392398"><ele>36.0</ele><time>2026-05-03T15:17:02Z</time></trkpt><trkpt lat="44.8287546653515" lon="10.373755674043753"><ele>36.0</ele><time>2026-05-03T15:17:03Z</time></trkpt><trkpt lat="44.82882135029482" lon="10.373572636834473"><ele>36.0</ele><time>2026-05-03T15:17:04Z</time></trkpt><trkpt lat="44.82889096090794" lon="10.373390433648531"><ele>36.0</ele><time>2026-05-03T15:17:05Z</time></trkpt><trkpt lat="44.82896114950824" lon="10.373201944543931"><ele>36.0</ele><time>2026-05-03T15:17:06Z</time></trkpt><trkpt lat="44.82903187624826" lon="10.373010931766249"><ele>36.0</ele><time>2026-05-03T15:17:07Z</time></trkpt><trkpt lat="44.82910152341041" lon="10.37282013323228"><ele>36.0</ele><time>2026-05-03T15:17:08Z</time></trkpt><trkpt lat="44.829173139417534" lon="10.372623497641808"><ele>36.0</ele><time>2026-05-03T15:17:09Z</time></trkpt><trkpt lat="44.829244157390946" lon="10.372431042930122"><ele>36.0</ele><time>2026-05-03T15:17:10Z</time></trkpt><trkpt lat="44.82931715119344" lon="10.372235804476205"><ele>36.0</ele><time>2026-05-03T15:17:11Z</time></trkpt><trkpt lat="44.82938939721123" lon="10.372032584532967"><ele>34.666666666666664</ele><time>2026-05-03T15:17:12Z</time></trkpt><trkpt lat="44.82947298362999" lon="10.371815871457219"><ele>33.33333333333333</ele><time>2026-05-03T15:17:13Z</time></trkpt><trkpt lat="44.82955380605466" lon="10.371594785113528"><ele>32.0</ele><time>2026-05-03T15:17:14Z</time></trkpt><trkpt lat="44.82963290448027" lon="10.371380200450709"><ele>34.0</ele><time>2026-05-03T15:17:15Z</time></trkpt><trkpt lat="44.82971592701221" lon="10.371155047563569"><ele>36.0</ele><time>2026-05-03T15:17:16Z</time></trkpt><trkpt lat="44.82979635465619" lon="10.370930110123636"><ele>38.0</ele><time>2026-05-03T15:17:17Z</time></trkpt><trkpt lat="44.82987618249031" lon="10.370707667347455"><ele>37.33333333333333</ele><time>2026-05-03T15:17:18Z</time></trkpt><trkpt lat="44.829956248781244" lon="10.370486048117035"><ele>36.666666666666664</ele><time>2026-05-03T15:17:19Z</time></trkpt><trkpt lat="44.83003645496761" lon="10.370269888134315"><ele>36.0</ele><time>2026-05-03T15:17:20Z</time></trkpt><trkpt lat="44.830115105064024" lon="10.370062459814225"><ele>35.666666666666664</ele><time>2026-05-03T15:17:21Z</time></trkpt><trkpt lat="44.83018974481721" lon="10.369863762338374"><ele>35.33333333333333</ele><time>2026-05-03T15:17:22Z</time></trkpt><trkpt lat="44.8302624550841" lon="10.369665482927504"><ele>35.0</ele><time>2026-05-03T15:17:23Z</time></trkpt><trkpt lat="44.83033243756822" lon="10.369477644228647"><ele>36.0</ele><time>2026-05-03T15:17:24Z</time></trkpt><trkpt lat="44.83040464180639" lon="10.369279771039896"><ele>37.0</ele><time>2026-05-03T15:17:25Z</time></trkpt><trkpt lat="44.83048231654545" lon="10.369060821365375"><ele>38.0</ele><time>2026-05-03T15:17:26Z</time></trkpt><trkpt lat="44.83056859409351" lon="10.368826971660488"><ele>38.0</ele><time>2026-05-03T15:17:27Z</time></trkpt><trkpt lat="44.830655552483705" lon="10.368592076913377"><ele>38.0</ele><time>2026-05-03T15:17:28Z</time></trkpt><trkpt lat="44.83074797643113" lon="10.368355689241092"><ele>38.0</ele><time>2026-05-03T15:17:29Z</time></trkpt><trkpt lat="44.83083911656801" lon="10.368115755435598"><ele>37.33333333333333</ele><time>2026-05-03T15:17:30Z</time></trkpt><trkpt lat="44.83092190424946" lon="10.367880953077567"><ele>36.666666666666664</ele><time>2026-05-03T15:17:31Z</time></trkpt><trkpt lat="44.831016532583334" lon="10.367619800516245"><ele>36.0</ele><time>2026-05-03T15:17:32Z</time></trkpt><trkpt lat="44.831112493795445" lon="10.367378504312498"><ele>35.333333333333336</ele><time>2026-05-03T15:17:33Z</time></trkpt><trkpt lat="44.83120211318821" lon="10.367126644971194"><ele>34.66666666666667</ele><time>2026-05-03T15:17:34Z</time></trkpt><trkpt lat="44.83129378814641" lon="10.366875555303091"><ele>34.0</ele><time>2026-05-03T15:17:35Z</time></trkpt><trkpt lat="44.831389668023" lon="10.36661477201597"><ele>34.0</ele><time>2026-05-03T15:17:36Z</time></trkpt><trkpt lat="44.83148366349512" lon="10.36636762595188"><ele>34.0</ele><time>2026-05-03T15:17:37Z</time></trkpt><trkpt lat="44.831580590300085" lon="10.36611183537318"><ele>34.0</ele><time>2026-05-03T15:17:38Z</time></trkpt><trkpt lat="44.83167479153288" lon="10.365855090569928"><ele>33.333333333333336</ele><time>2026-05-03T15:17:39Z</time></trkpt><trkpt lat="44.831769498525865" lon="10.365595777216479"><ele>32.666666666666664</ele><time>2026-05-03T15:17:40Z</time></trkpt><trkpt lat="44.8318667936098" lon="10.365333824832875"><ele>32.0</ele><time>2026-05-03T15:17:41Z</time></trkpt><trkpt lat="44.831964950522085" lon="10.365073268267794"><ele>32.666666666666664</ele><time>2026-05-03T15:17:42Z</time></trkpt><trkpt lat="44.83206463862579" lon="10.364809838894208"><ele>33.333333333333336</ele><time>2026-05-03T15:17:43Z</time></trkpt><trkpt lat="44.83216480432768" lon="10.364544140179365"><ele>34.0</ele><time>2026-05-03T15:17:44Z</time></trkpt><trkpt lat="44.83226425080095" lon="10.364278825997994"><ele>34.0</ele><time>2026-05-03T15:17:45Z</time></trkpt><trkpt lat="44.83236193984638" lon="10.364012664093936"><ele>34.0</ele><time>2026-05-03T15:17:46Z</time></trkpt><trkpt lat="44.832459158985024" lon="10.363747928109472"><ele>34.0</ele><time>2026-05-03T15:17:47Z</time></trkpt><trkpt lat="44.83255695871677" lon="10.36348274662381"><ele>33.66666666666667</ele><time>2026-05-03T15:17:48Z</time></trkpt><trkpt lat="44.832654801244935" lon="10.363219793788733"><ele>33.333333333333336</ele><time>2026-05-03T15:17:49Z</time></trkpt><trkpt lat="44.83275198336982" lon="10.362957888992952"><ele>33.0</ele><time>2026-05-03T15:17:50Z</time></trkpt><trkpt lat="44.83284878071403" lon="10.36269706388209"><ele>33.333333333333336</ele><time>2026-05-03T15:17:51Z</time></trkpt><trkpt lat="44.83294682347365" lon="10.362438783584611"><ele>33.66666666666667</ele><time>2026-05-03T15:17:52Z</time></trkpt><trkpt lat="44.83304599202723" lon="10.362182783527144"><ele>34.0</ele><time>2026-05-03T15:17:53Z</time></trkpt><trkpt lat="44.83314181213809" lon="10.361924393971524"><ele>34.0</ele><time>2026-05-03T15:17:54Z</time></trkpt><trkpt lat="44.83323523208377" lon="10.361667276598242"><ele>34.0</ele><time>2026-05-03T15:17:55Z</time></trkpt><trkpt lat="44.833327816265246" lon="10.361411451776304"><ele>34.0</ele><time>2026-05-03T15:17:56Z</time></trkpt><trkpt lat="44.83342158273852" lon="10.361154213121223"><ele>35.0</ele><time>2026-05-03T15:17:57Z</time></trkpt><trkpt lat="44.83351517822309" lon="10.360902046013269"><ele>36.0</ele><time>2026-05-03T15:17:58Z</time></trkpt><trkpt lat="44.8336082205422" lon="10.360649631950706"><ele>37.0</ele><time>2026-05-03T15:17:59Z</time></trkpt><trkpt lat="44.833700756463095" lon="10.360397839537058"><ele>37.333333333333336</ele><time>2026-05-03T15:18:00Z</time></trkpt><trkpt lat="44.83379435272051" lon="10.360145965916308"><ele>37.666666666666664</ele><time>2026-05-03T15:18:01Z</time></trkpt><trkpt lat="44.833888312787884" lon="10.359892358720414"><ele>38.0</ele><time>2026-05-03T15:18:02Z</time></trkpt><trkpt lat="44.83398323586188" lon="10.359639368729658"><ele>38.0</ele><time>2026-05-03T15:18:03Z</time></trkpt><trkpt lat="44.83407341626369" lon="10.35938877884666"><ele>38.0</ele><time>2026-05-03T15:18:04Z</time></trkpt><trkpt lat="44.83416725755066" lon="10.359137179503515"><ele>38.0</ele><time>2026-05-03T15:18:05Z</time></trkpt><trkpt lat="44.834260489396826" lon="10.358886500434078"><ele>36.666666666666664</ele><time>2026-05-03T15:18:06Z</time></trkpt><trkpt lat="44.83435101076082" lon="10.358644353118546"><ele>35.333333333333336</ele><time>2026-05-03T15:18:07Z</time></trkpt><trkpt lat="44.834443962508246" lon="10.358398498053868"><ele>34.0</ele><time>2026-05-03T15:18:08Z</time></trkpt><trkpt lat="44.83453736728566" lon="10.358149040784605"><ele>34.333333333333336</ele><time>2026-05-03T15:18:09Z</time></trkpt><trkpt lat="44.83462880310712" lon="10.357902301810613"><ele>34.666666666666664</ele><time>2026-05-03T15:18:10Z</time></trkpt><trkpt lat="44.834718849297936" lon="10.357657255340952"><ele>35.0</ele><time>2026-05-03T15:18:11Z</time></trkpt><trkpt lat="44.834809434635666" lon="10.357411031563357"><ele>35.666666666666664</ele><time>2026-05-03T15:18:12Z</time></trkpt><trkpt lat="44.83490021627598" lon="10.357164479196337"><ele>36.333333333333336</ele><time>2026-05-03T15:18:13Z</time></trkpt><trkpt lat="44.834992776108166" lon="10.356917754400659"><ele>37.0</ele><time>2026-05-03T15:18:14Z</time></trkpt><trkpt lat="44.83508482602021" lon="10.356670503541766"><ele>36.333333333333336</ele><time>2026-05-03T15:18:15Z</time></trkpt><trkpt lat="44.83517574377377" lon="10.356421668070755"><ele>35.666666666666664</ele><time>2026-05-03T15:18:16Z</time></trkpt><trkpt lat="44.83526961256112" lon="10.35617271242267"><ele>35.0</ele><time>2026-05-03T15:18:17Z</time></trkpt><trkpt lat="44.83536652156792" lon="10.355909721943817"><ele>35.0</ele><time>2026-05-03T15:18:18Z</time></trkpt><trkpt lat="44.83546475957805" lon="10.355648133092874"><ele>35.0</ele><time>2026-05-03T15:18:19Z</time></trkpt><trkpt lat="44.83556418267807" lon="10.355384069974969"><ele>35.0</ele><time>2026-05-03T15:18:20Z</time></trkpt><trkpt lat="44.83565984027212" lon="10.355116351918046"><ele>35.33333333333333</ele><time>2026-05-03T15:18:21Z</time></trkpt><trkpt lat="44.83575610384228" lon="10.354849214980176"><ele>35.666666666666664</ele><time>2026-05-03T15:18:22Z</time></trkpt><trkpt lat="44.83585174417032" lon="10.354585134111492"><ele>36.0</ele><time>2026-05-03T15:18:23Z</time></trkpt><trkpt lat="44.83594921838255" lon="10.354320225407681"><ele>36.0</ele><time>2026-05-03T15:18:24Z</time></trkpt><trkpt lat="44.836045566072215" lon="10.35405182829002"><ele>36.0</ele><time>2026-05-03T15:18:25Z</time></trkpt><trkpt lat="44.83614053907969" lon="10.353781860583714"><ele>36.0</ele><time>2026-05-03T15:18:26Z</time></trkpt><trkpt lat="44.836234344712665" lon="10.353510717984246"><ele>36.0</ele><time>2026-05-03T15:18:27Z</time></trkpt><trkpt lat="44.83632663011889" lon="10.353233296206088"><ele>36.0</ele><time>2026-05-03T15:18:28Z</time></trkpt><trkpt lat="44.83641658648487" lon="10.352955925212148"><ele>36.0</ele><time>2026-05-03T15:18:29Z</time></trkpt><trkpt lat="44.83650329410211" lon="10.352674607273709"><ele>36.0</ele><time>2026-05-03T15:18:30Z</time></trkpt><trkpt lat="44.836591411663264" lon="10.352394677669226"><ele>36.0</ele><time>2026-05-03T15:18:31Z</time></trkpt><trkpt lat="44.83668201805325" lon="10.352119599416353"><ele>36.0</ele><time>2026-05-03T15:18:32Z</time></trkpt><trkpt lat="44.83676820478824" lon="10.351837015858138"><ele>36.333333333333336</ele><time>2026-05-03T15:18:33Z</time></trkpt><trkpt lat="44.836854104132286" lon="10.351552879778295"><ele>36.66666666666667</ele><time>2026-05-03T15:18:34Z</time></trkpt><trkpt lat="44.83693904643453" lon="10.3512660513015"><ele>37.0</ele><time>2026-05-03T15:18:35Z</time></trkpt><trkpt lat="44.83702574798246" lon="10.350977041808443"><ele>37.5</ele><time>2026-05-03T15:18:36Z</time></trkpt><trkpt lat="44.83710943335967" lon="10.350682896680338"><ele>38.0</ele><time>2026-05-03T15:18:37Z</time></trkpt><trkpt lat="44.83719245615508" lon="10.350386160644053"><ele>39.5</ele><time>2026-05-03T15:18:38Z</time></trkpt><trkpt lat="44.83727651850738" lon="10.350089204980803"><ele>41.0</ele><time>2026-05-03T15:18:39Z</time></trkpt><trkpt lat="44.837360224452155" lon="10.349790594452553"><ele>41.0</ele><time>2026-05-03T15:18:40Z</time></trkpt><trkpt lat="44.83744344383188" lon="10.349486320981818"><ele>41.0</ele><time>2026-05-03T15:18:41Z</time></trkpt><trkpt lat="44.837526432451625" lon="10.349175242463382"><ele>41.5</ele><time>2026-05-03T15:18:42Z</time></trkpt><trkpt lat="44.83760689904076" lon="10.34886068379724"><ele>42.0</ele><time>2026-05-03T15:18:43Z</time></trkpt><trkpt lat="44.83768706794931" lon="10.348547473234293"><ele>40.5</ele><time>2026-05-03T15:18:44Z</time></trkpt><trkpt lat="44.83776516541432" lon="10.348229435505129"><ele>39.0</ele><time>2026-05-03T15:18:45Z</time></trkpt><trkpt lat="44.837843235394345" lon="10.34791227250864"><ele>39.0</ele><time>2026-05-03T15:18:46Z</time></trkpt><trkpt lat="44.837920534431696" lon="10.347594456602751"><ele>39.0</ele><time>2026-05-03T15:18:47Z</time></trkpt><trkpt lat="44.837995322733356" lon="10.347274605988886"><ele>39.0</ele><time>2026-05-03T15:18:48Z</time></trkpt><trkpt lat="44.83807214929382" lon="10.346951954450953"><ele>39.0</ele><time>2026-05-03T15:18:49Z</time></trkpt><trkpt lat="44.83814950236592" lon="10.34663464128594"><ele>39.0</ele><time>2026-05-03T15:18:50Z</time></trkpt><trkpt lat="44.83822382043796" lon="10.34631945071166"><ele>39.0</ele><time>2026-05-03T15:18:51Z</time></trkpt><trkpt lat="44.83829907775179" lon="10.346006241594425"><ele>39.0</ele><time>2026-05-03T15:18:52Z</time></trkpt><trkpt lat="44.83837463970179" lon="10.345706408887695"><ele>39.0</ele><time>2026-05-03T15:18:53Z</time></trkpt><trkpt lat="44.838451746065836" lon="10.345404965341867"><ele>37.5</ele><time>2026-05-03T15:18:54Z</time></trkpt><trkpt lat="44.83852167999147" lon="10.345100694632958"><ele>36.0</ele><time>2026-05-03T15:18:55Z</time></trkpt><trkpt lat="44.83859051927801" lon="10.34479096930085"><ele>37.0</ele><time>2026-05-03T15:18:56Z</time></trkpt><trkpt lat="44.838660311928244" lon="10.344485154855258"><ele>38.0</ele><time>2026-05-03T15:18:57Z</time></trkpt><trkpt lat="44.83873236137018" lon="10.344178206969351"><ele>37.5</ele><time>2026-05-03T15:18:58Z</time></trkpt><trkpt lat="44.83880760154242" lon="10.343865962389328"><ele>37.0</ele><time>2026-05-03T15:18:59Z</time></trkpt><trkpt lat="44.838886118556175" lon="10.343555199005314"><ele>37.0</ele><time>2026-05-03T15:19:00Z</time></trkpt><trkpt lat="44.838964299105186" lon="10.343243638671517"><ele>37.0</ele><time>2026-05-03T15:19:00.999Z</time></trkpt><trkpt lat="44.83904127090034" lon="10.342927634318421"><ele>36.5</ele><time>2026-05-03T15:19:01.999Z</time></trkpt><trkpt lat="44.83911614416404" lon="10.34261430704646"><ele>36.0</ele><time>2026-05-03T15:19:02.999Z</time></trkpt><trkpt lat="44.839193742157875" lon="10.342314375812084"><ele>36.333333333333336</ele><time>2026-05-03T15:19:03.999Z</time></trkpt><trkpt lat="44.839263766707475" lon="10.342024719551693"><ele>36.66666666666667</ele><time>2026-05-03T15:19:04.999Z</time></trkpt><trkpt lat="44.839327713920596" lon="10.341735198154673"><ele>37.0</ele><time>2026-05-03T15:19:05.999Z</time></trkpt><trkpt lat="44.839384381149365" lon="10.341444771985943"><ele>38.0</ele><time>2026-05-03T15:19:06.999Z</time></trkpt><trkpt lat="44.8394444261394" lon="10.341156004562919"><ele>39.0</ele><time>2026-05-03T15:19:07.999Z</time></trkpt><trkpt lat="44.83951171513541" lon="10.340874119547223"><ele>40.0</ele><time>2026-05-03T15:19:08.999Z</time></trkpt><trkpt lat="44.8395747964459" lon="10.340604968863165"><ele>40.0</ele><time>2026-05-03T15:19:09.999Z</time></trkpt><trkpt lat="44.83963552759022" lon="10.340350428021031"><ele>40.0</ele><time>2026-05-03T15:19:10.999Z</time></trkpt><trkpt lat="44.839693169998206" lon="10.34010962439176"><ele>40.0</ele><time>2026-05-03T15:19:11.999Z</time></trkpt><trkpt lat="44.83975939248155" lon="10.339882639184106"><ele>40.333333333333336</ele><time>2026-05-03T15:19:12.999Z</time></trkpt><trkpt lat="44.839817998880285" lon="10.339661352135273"><ele>40.666666666666664</ele><time>2026-05-03T15:19:13.999Z</time></trkpt><trkpt lat="44.839871771959835" lon="10.33945065604084"><ele>41.0</ele><time>2026-05-03T15:19:14.999Z</time></trkpt><trkpt lat="44.83992489253752" lon="10.339248242553518"><ele>41.0</ele><time>2026-05-03T15:19:16Z</time></trkpt><trkpt lat="44.839972414651314" lon="10.33905447192656"><ele>41.0</ele><time>2026-05-03T15:19:17Z</time></trkpt><trkpt lat="44.840015292111815" lon="10.338872969868863"><ele>41.0</ele><time>2026-05-03T15:19:18Z</time></trkpt><trkpt lat="44.840056225777666" lon="10.338704135734243"><ele>41.0</ele><time>2026-05-03T15:19:19Z</time></trkpt><trkpt lat="44.840096848084926" lon="10.338547377688895"><ele>40.4</ele><time>2026-05-03T15:19:20Z</time></trkpt><trkpt lat="44.84013443905556" lon="10.338396341097098"><ele>39.8</ele><time>2026-05-03T15:19:21Z</time></trkpt><trkpt lat="44.84017047962302" lon="10.338249190111787"><ele>39.199999999999996</ele><time>2026-05-03T15:19:22Z</time></trkpt><trkpt lat="44.840202955323605" lon="10.338114501640762"><ele>38.599999999999994</ele><time>2026-05-03T15:19:23Z</time></trkpt><trkpt lat="44.84023612090325" lon="10.337974184650824"><ele>38.0</ele><time>2026-05-03T15:19:24Z</time></trkpt><trkpt lat="44.84026636253484" lon="10.337842247841412"><ele>38.0</ele><time>2026-05-03T15:19:25Z</time></trkpt><trkpt lat="44.840293722897584" lon="10.337718975257918"><ele>38.0</ele><time>2026-05-03T15:19:26Z</time></trkpt><trkpt lat="44.84032105492623" lon="10.337604941069543"><ele>38.0</ele><time>2026-05-03T15:19:27Z</time></trkpt><trkpt lat="44.84034926603845" lon="10.337503228708297"><ele>38.0</ele><time>2026-05-03T15:19:28Z</time></trkpt><trkpt lat="44.8403728900713" lon="10.337406364748949"><ele>38.0</ele><time>2026-05-03T15:19:29Z</time></trkpt><trkpt lat="44.840397531839365" lon="10.337300570209814"><ele>38.0</ele><time>2026-05-03T15:19:30Z</time></trkpt><trkpt lat="44.84042159152354" lon="10.337197990739424"><ele>38.0</ele><time>2026-05-03T15:19:31Z</time></trkpt><trkpt lat="44.840443726337334" lon="10.337098660295426"><ele>38.0</ele><time>2026-05-03T15:19:32Z</time></trkpt><trkpt lat="44.840466043802834" lon="10.336989415014441"><ele>38.0</ele><time>2026-05-03T15:19:33Z</time></trkpt><trkpt lat="44.84049470484768" lon="10.336872602238714"><ele>38.0</ele><time>2026-05-03T15:19:34Z</time></trkpt><trkpt lat="44.84052014373369" lon="10.336745492369792"><ele>38.0</ele><time>2026-05-03T15:19:35Z</time></trkpt><trkpt lat="44.84054255462205" lon="10.336608033924307"><ele>38.0</ele><time>2026-05-03T15:19:36Z</time></trkpt><trkpt lat="44.84057400290096" lon="10.336464322178783"><ele>37.75</ele><time>2026-05-03T15:19:37Z</time></trkpt><trkpt lat="44.840610114446626" lon="10.33631422503209"><ele>37.5</ele><time>2026-05-03T15:19:38Z</time></trkpt><trkpt lat="44.840651196998614" lon="10.336157484113727"><ele>37.25</ele><time>2026-05-03T15:19:39Z</time></trkpt><trkpt lat="44.84069460156448" lon="10.336002862394638"><ele>37.0</ele><time>2026-05-03T15:19:40Z</time></trkpt><trkpt lat="44.84073817328885" lon="10.335840742786624"><ele>37.0</ele><time>2026-05-03T15:19:41Z</time></trkpt><trkpt lat="44.84078197485261" lon="10.335679900100526"><ele>37.0</ele><time>2026-05-03T15:19:42Z</time></trkpt><trkpt lat="44.84082674669989" lon="10.3355041428806"><ele>37.0</ele><time>2026-05-03T15:19:43Z</time></trkpt><trkpt lat="44.84087480168718" lon="10.335319571458541"><ele>37.0</ele><time>2026-05-03T15:19:44Z</time></trkpt><trkpt lat="44.84092072750252" lon="10.335132291940752"><ele>37.5</ele><time>2026-05-03T15:19:45Z</time></trkpt><trkpt lat="44.840965944822784" lon="10.33494152542466"><ele>38.0</ele><time>2026-05-03T15:19:46Z</time></trkpt><trkpt lat="44.8410105166813" lon="10.334748108855543"><ele>38.5</ele><time>2026-05-03T15:19:47Z</time></trkpt><trkpt lat="44.84105555263712" lon="10.33455445772916"><ele>39.0</ele><time>2026-05-03T15:19:48Z</time></trkpt><trkpt lat="44.84110178132648" lon="10.33435873631528"><ele>39.0</ele><time>2026-05-03T15:19:49Z</time></trkpt><trkpt lat="44.84114933797749" lon="10.334161352078024"><ele>39.0</ele><time>2026-05-03T15:19:50Z</time></trkpt><trkpt lat="44.84119765510628" lon="10.33396264724207"><ele>39.0</ele><time>2026-05-03T15:19:51Z</time></trkpt><trkpt lat="44.84124757356657" lon="10.333764784244005"><ele>39.0</ele><time>2026-05-03T15:19:52Z</time></trkpt><trkpt lat="44.841295697443606" lon="10.333566606262771"><ele>39.25</ele><time>2026-05-03T15:19:53Z</time></trkpt><trkpt lat="44.841341991737686" lon="10.333368168443565"><ele>39.5</ele><time>2026-05-03T15:19:54Z</time></trkpt><trkpt lat="44.84138902653401" lon="10.333175724491026"><ele>39.75</ele><time>2026-05-03T15:19:55Z</time></trkpt><trkpt lat="44.841435140099954" lon="10.332986130970937"><ele>40.0</ele><time>2026-05-03T15:19:56Z</time></trkpt><trkpt lat="44.84148133375623" lon="10.33279832071182"><ele>39.5</ele><time>2026-05-03T15:19:57Z</time></trkpt><trkpt lat="44.84152655095645" lon="10.332612115728395"><ele>39.0</ele><time>2026-05-03T15:19:58Z</time></trkpt><trkpt lat="44.84157269485811" lon="10.332424223731419"><ele>38.5</ele><time>2026-05-03T15:19:59Z</time></trkpt><trkpt lat="44.84161993231232" lon="10.33223443164128"><ele>38.0</ele><time>2026-05-03T15:20:00Z</time></trkpt><trkpt lat="44.84166684000071" lon="10.33204170579067"><ele>38.0</ele><time>2026-05-03T15:20:01Z</time></trkpt><trkpt lat="44.841713102789704" lon="10.331846363656528"><ele>38.0</ele><time>2026-05-03T15:20:02Z</time></trkpt><trkpt lat="44.84176023355011" lon="10.331648832153443"><ele>38.0</ele><time>2026-05-03T15:20:03Z</time></trkpt><trkpt lat="44.84180862153072" lon="10.331451199424368"><ele>38.0</ele><time>2026-05-03T15:20:04Z</time></trkpt><trkpt lat="44.841855876662784" lon="10.331252760305048"><ele>38.0</ele><time>2026-05-03T15:20:05Z</time></trkpt><trkpt lat="44.8419027613501" lon="10.331055868010653"><ele>38.0</ele><time>2026-05-03T15:20:06Z</time></trkpt><trkpt lat="44.84195010346253" lon="10.330860459552724"><ele>38.0</ele><time>2026-05-03T15:20:07Z</time></trkpt><trkpt lat="44.84199755528965" lon="10.33066664934946"><ele>38.0</ele><time>2026-05-03T15:20:08Z</time></trkpt><trkpt lat="44.84204553968098" lon="10.330472179222534"><ele>38.0</ele><time>2026-05-03T15:20:09Z</time></trkpt><trkpt lat="44.8420946000335" lon="10.330277485089878"><ele>38.0</ele><time>2026-05-03T15:20:10Z</time></trkpt><trkpt lat="44.84214258215718" lon="10.330077876144095"><ele>38.0</ele><time>2026-05-03T15:20:11Z</time></trkpt><trkpt lat="44.84219172342308" lon="10.32987456901015"><ele>38.0</ele><time>2026-05-03T15:20:12Z</time></trkpt><trkpt lat="44.84224158188981" lon="10.329665014100922"><ele>38.0</ele><time>2026-05-03T15:20:13Z</time></trkpt><trkpt lat="44.842293348981975" lon="10.329451806471571"><ele>38.0</ele><time>2026-05-03T15:20:14Z</time></trkpt><trkpt lat="44.84234489726505" lon="10.329235169267521"><ele>38.0</ele><time>2026-05-03T15:20:15Z</time></trkpt><trkpt lat="44.84239658878442" lon="10.329019787912335"><ele>38.666666666666664</ele><time>2026-05-03T15:20:16Z</time></trkpt><trkpt lat="44.842447961084986" lon="10.32880250794658"><ele>39.333333333333336</ele><time>2026-05-03T15:20:17Z</time></trkpt><trkpt lat="44.84249960991026" lon="10.328584845769878"><ele>40.0</ele><time>2026-05-03T15:20:18Z</time></trkpt><trkpt lat="44.842551627760606" lon="10.32836434467708"><ele>40.0</ele><time>2026-05-03T15:20:19Z</time></trkpt><trkpt lat="44.84260443860454" lon="10.328144049335332"><ele>40.0</ele><time>2026-05-03T15:20:20Z</time></trkpt><trkpt lat="44.84265832864664" lon="10.327928236170356"><ele>40.0</ele><time>2026-05-03T15:20:21Z</time></trkpt><trkpt lat="44.84271090829632" lon="10.327708359296194"><ele>39.66666666666667</ele><time>2026-05-03T15:20:22Z</time></trkpt><trkpt lat="44.842762847812615" lon="10.327490039519281"><ele>39.333333333333336</ele><time>2026-05-03T15:20:23Z</time></trkpt><trkpt lat="44.84281569591802" lon="10.327268994167577"><ele>39.0</ele><time>2026-05-03T15:20:24Z</time></trkpt><trkpt lat="44.84286741612616" lon="10.327050207552269"><ele>39.0</ele><time>2026-05-03T15:20:25Z</time></trkpt><trkpt lat="44.84292002465878" lon="10.326830344860362"><ele>39.0</ele><time>2026-05-03T15:20:26Z</time></trkpt><trkpt lat="44.84297278652393" lon="10.326608552635964"><ele>39.0</ele><time>2026-05-03T15:20:27Z</time></trkpt><trkpt lat="44.843026260975854" lon="10.326387260442612"><ele>39.0</ele><time>2026-05-03T15:20:28Z</time></trkpt><trkpt lat="44.84307976772897" lon="10.32616587797651"><ele>39.0</ele><time>2026-05-03T15:20:29Z</time></trkpt><trkpt lat="44.84313311615284" lon="10.325945437089228"><ele>39.0</ele><time>2026-05-03T15:20:30Z</time></trkpt><trkpt lat="44.84318700374352" lon="10.325723914483468"><ele>39.0</ele><time>2026-05-03T15:20:31Z</time></trkpt><trkpt lat="44.84324111620003" lon="10.325502430551518"><ele>39.0</ele><time>2026-05-03T15:20:32Z</time></trkpt><trkpt lat="44.84329501956059" lon="10.325280642407078"><ele>39.0</ele><time>2026-05-03T15:20:33Z</time></trkpt><trkpt lat="44.84334737879888" lon="10.32505967636998"><ele>39.0</ele><time>2026-05-03T15:20:34Z</time></trkpt><trkpt lat="44.84340133582274" lon="10.32483144851045"><ele>39.0</ele><time>2026-05-03T15:20:35Z</time></trkpt><trkpt lat="44.84345136239976" lon="10.32461691080284"><ele>39.0</ele><time>2026-05-03T15:20:36Z</time></trkpt><trkpt lat="44.84349913623279" lon="10.324410400509246"><ele>39.666666666666664</ele><time>2026-05-03T15:20:37Z</time></trkpt><trkpt lat="44.84356460573586" lon="10.324160747307094"><ele>40.33333333333333</ele><time>2026-05-03T15:20:38Z</time></trkpt><trkpt lat="44.8436334184871" lon="10.323899052721895"><ele>41.0</ele><time>2026-05-03T15:20:39Z</time></trkpt><trkpt lat="44.84366506988076" lon="10.323723565383458"><ele>41.0</ele><time>2026-05-03T15:20:40Z</time></trkpt><trkpt lat="44.843718026247934" lon="10.323501366140896"><ele>41.0</ele><time>2026-05-03T15:20:41Z</time></trkpt><trkpt lat="44.84377238279534" lon="10.323277535536521"><ele>41.0</ele><time>2026-05-03T15:20:42Z</time></trkpt><trkpt lat="44.84382158502619" lon="10.32306076579196"><ele>41.666666666666664</ele><time>2026-05-03T15:20:43Z</time></trkpt><trkpt lat="44.84386997280968" lon="10.322845347608036"><ele>42.333333333333336</ele><time>2026-05-03T15:20:44Z</time></trkpt><trkpt lat="44.843924723443095" lon="10.322629683523772"><ele>43.0</ele><time>2026-05-03T15:20:45Z</time></trkpt><trkpt lat="44.843976394485516" lon="10.32241557881058"><ele>42.333333333333336</ele><time>2026-05-03T15:20:46Z</time></trkpt><trkpt lat="44.84402594565034" lon="10.322196647521983"><ele>41.666666666666664</ele><time>2026-05-03T15:20:47Z</time></trkpt><trkpt lat="44.84407709732878" lon="10.321980259329612"><ele>41.0</ele><time>2026-05-03T15:20:48Z</time></trkpt><trkpt lat="44.844130098700035" lon="10.32176557210003"><ele>41.0</ele><time>2026-05-03T15:20:49Z</time></trkpt><trkpt lat="44.844186464274344" lon="10.321551098742273"><ele>41.0</ele><time>2026-05-03T15:20:49.999Z</time></trkpt><trkpt lat="44.844237766241044" lon="10.321340083032728"><ele>41.0</ele><time>2026-05-03T15:20:50.999Z</time></trkpt><trkpt lat="44.84429318670736" lon="10.321127512592168"><ele>40.666666666666664</ele><time>2026-05-03T15:20:51.999Z</time></trkpt><trkpt lat="44.84434370700909" lon="10.3209078972048"><ele>40.333333333333336</ele><time>2026-05-03T15:20:52.999Z</time></trkpt><trkpt lat="44.844394796246334" lon="10.320689639947163"><ele>40.0</ele><time>2026-05-03T15:20:53.999Z</time></trkpt><trkpt lat="44.84444412700721" lon="10.320473531011835"><ele>40.0</ele><time>2026-05-03T15:20:54.999Z</time></trkpt><trkpt lat="44.844496686570785" lon="10.320256666569541"><ele>40.0</ele><time>2026-05-03T15:20:55.999Z</time></trkpt><trkpt lat="44.84455212516853" lon="10.320042190315641"><ele>40.0</ele><time>2026-05-03T15:20:56.999Z</time></trkpt><trkpt lat="44.84460556157767" lon="10.319825093932225"><ele>40.0</ele><time>2026-05-03T15:20:57.999Z</time></trkpt><trkpt lat="44.844656167829996" lon="10.31961182562194"><ele>40.0</ele><time>2026-05-03T15:20:58.999Z</time></trkpt><trkpt lat="44.84470289450637" lon="10.319396675218465"><ele>40.0</ele><time>2026-05-03T15:20:59.999Z</time></trkpt><trkpt lat="44.844758185498435" lon="10.319179191527097"><ele>40.0</ele><time>2026-05-03T15:21:00.999Z</time></trkpt><trkpt lat="44.84480541558977" lon="10.318963955349371"><ele>40.0</ele><time>2026-05-03T15:21:01.999Z</time></trkpt><trkpt lat="44.84485710703052" lon="10.318750051296718"><ele>40.0</ele><time>2026-05-03T15:21:02.999Z</time></trkpt><trkpt lat="44.84490772525857" lon="10.318533568615985"><ele>39.66666666666667</ele><time>2026-05-03T15:21:03.999Z</time></trkpt><trkpt lat="44.844963527942234" lon="10.31831872905458"><ele>39.333333333333336</ele><time>2026-05-03T15:21:04.999Z</time></trkpt><trkpt lat="44.84501794321564" lon="10.318105384162516"><ele>39.0</ele><time>2026-05-03T15:21:05.999Z</time></trkpt><trkpt lat="44.84506501030039" lon="10.31789151295136"><ele>39.666666666666664</ele><time>2026-05-03T15:21:06.999Z</time></trkpt><trkpt lat="44.84511543398206" lon="10.317672156348312"><ele>40.33333333333333</ele><time>2026-05-03T15:21:07.999Z</time></trkpt><trkpt lat="44.8451686073468" lon="10.317456932233979"><ele>41.0</ele><time>2026-05-03T15:21:08.999Z</time></trkpt><trkpt lat="44.845222204837434" lon="10.317239176603046"><ele>40.666666666666664</ele><time>2026-05-03T15:21:09.999Z</time></trkpt><trkpt lat="44.845276029111254" lon="10.317018994541481"><ele>40.333333333333336</ele><time>2026-05-03T15:21:10.999Z</time></trkpt><trkpt lat="44.845323513354415" lon="10.316801268601893"><ele>40.0</ele><time>2026-05-03T15:21:12Z</time></trkpt><trkpt lat="44.84537175744905" lon="10.316585722882209"><ele>40.333333333333336</ele><time>2026-05-03T15:21:13Z</time></trkpt><trkpt lat="44.84542427450169" lon="10.316360711221357"><ele>40.666666666666664</ele><time>2026-05-03T15:21:14Z</time></trkpt><trkpt lat="44.84548158006291" lon="10.316139051890588"><ele>41.0</ele><time>2026-05-03T15:21:15Z</time></trkpt><trkpt lat="44.845535514866185" lon="10.315917111864593"><ele>41.0</ele><time>2026-05-03T15:21:16Z</time></trkpt><trkpt lat="44.84558834218726" lon="10.315697893329888"><ele>41.0</ele><time>2026-05-03T15:21:17Z</time></trkpt><trkpt lat="44.84564471150054" lon="10.315481522001248"><ele>41.0</ele><time>2026-05-03T15:21:18Z</time></trkpt><trkpt lat="44.84570252722827" lon="10.315260184193624"><ele>41.666666666666664</ele><time>2026-05-03T15:21:19Z</time></trkpt><trkpt lat="44.845759212957105" lon="10.315039406514094"><ele>42.333333333333336</ele><time>2026-05-03T15:21:20Z</time></trkpt><trkpt lat="44.8458042989457" lon="10.314814544944587"><ele>43.0</ele><time>2026-05-03T15:21:21Z</time></trkpt><trkpt lat="44.845859227183595" lon="10.314593023994977"><ele>43.0</ele><time>2026-05-03T15:21:22Z</time></trkpt><trkpt lat="44.84591064959673" lon="10.314363551572013"><ele>43.0</ele><time>2026-05-03T15:21:23Z</time></trkpt><trkpt lat="44.845964495765635" lon="10.31413667020301"><ele>43.0</ele><time>2026-05-03T15:21:24Z</time></trkpt><trkpt lat="44.84602009814286" lon="10.313907621919185"><ele>42.66666666666667</ele><time>2026-05-03T15:21:25Z</time></trkpt><trkpt lat="44.84607498980703" lon="10.313678839036205"><ele>42.333333333333336</ele><time>2026-05-03T15:21:26Z</time></trkpt><trkpt lat="44.846129343792164" lon="10.313454490933532"><ele>42.0</ele><time>2026-05-03T15:21:27Z</time></trkpt><trkpt lat="44.846184568283014" lon="10.313232792789362"><ele>41.666666666666664</ele><time>2026-05-03T15:21:28Z</time></trkpt><trkpt lat="44.846231833829236" lon="10.313017420360937"><ele>41.33333333333333</ele><time>2026-05-03T15:21:29Z</time></trkpt><trkpt lat="44.84628882091988" lon="10.312787553525238"><ele>41.0</ele><time>2026-05-03T15:21:30Z</time></trkpt><trkpt lat="44.84634536719229" lon="10.312562188636617"><ele>41.0</ele><time>2026-05-03T15:21:31Z</time></trkpt><trkpt lat="44.84639606142736" lon="10.31234226670252"><ele>41.0</ele><time>2026-05-03T15:21:32Z</time></trkpt><trkpt lat="44.84644865078863" lon="10.312115619098899"><ele>41.0</ele><time>2026-05-03T15:21:33Z</time></trkpt><trkpt lat="44.846504235486016" lon="10.311883917809409"><ele>41.0</ele><time>2026-05-03T15:21:34Z</time></trkpt><trkpt lat="44.84655974335435" lon="10.311651843167294"><ele>41.0</ele><time>2026-05-03T15:21:35Z</time></trkpt><trkpt lat="44.84661540690156" lon="10.31141545687017"><ele>41.0</ele><time>2026-05-03T15:21:36Z</time></trkpt><trkpt lat="44.84667301011887" lon="10.311177553855696"><ele>41.0</ele><time>2026-05-03T15:21:37Z</time></trkpt><trkpt lat="44.84673130196874" lon="10.310935936507965"><ele>41.0</ele><time>2026-05-03T15:21:38Z</time></trkpt><trkpt lat="44.84678976800664" lon="10.310695076673621"><ele>41.0</ele><time>2026-05-03T15:21:39Z</time></trkpt><trkpt lat="44.846848772856674" lon="10.310448281474578"><ele>41.0</ele><time>2026-05-03T15:21:40Z</time></trkpt><trkpt lat="44.846908265980936" lon="10.310205042804139"><ele>41.0</ele><time>2026-05-03T15:21:41Z</time></trkpt><trkpt lat="44.84696692762896" lon="10.309963067721203"><ele>41.0</ele><time>2026-05-03T15:21:42Z</time></trkpt><trkpt lat="44.84702326580903" lon="10.309718394407899"><ele>41.33333333333333</ele><time>2026-05-03T15:21:43Z</time></trkpt><trkpt lat="44.847083136393934" lon="10.309470104212743"><ele>41.666666666666664</ele><time>2026-05-03T15:21:44Z</time></trkpt><trkpt lat="44.847141274838236" lon="10.309226282230384"><ele>42.0</ele><time>2026-05-03T15:21:45Z</time></trkpt><trkpt lat="44.847202037998194" lon="10.308972479323781"><ele>41.666666666666664</ele><time>2026-05-03T15:21:46Z</time></trkpt><trkpt lat="44.8472637239749" lon="10.3087197097839"><ele>41.33333333333333</ele><time>2026-05-03T15:21:47Z</time></trkpt><trkpt lat="44.84732918444329" lon="10.308461213662243"><ele>41.0</ele><time>2026-05-03T15:21:48Z</time></trkpt><trkpt lat="44.84739440303875" lon="10.308201048003857"><ele>41.0</ele><time>2026-05-03T15:21:49Z</time></trkpt><trkpt lat="44.84745790695829" lon="10.307938329510572"><ele>41.0</ele><time>2026-05-03T15:21:50Z</time></trkpt><trkpt lat="44.847522110780865" lon="10.307673878037178"><ele>41.0</ele><time>2026-05-03T15:21:51Z</time></trkpt><trkpt lat="44.847589394835495" lon="10.307405846305185"><ele>41.0</ele><time>2026-05-03T15:21:52Z</time></trkpt><trkpt lat="44.8476545544234" lon="10.307133845555514"><ele>41.0</ele><time>2026-05-03T15:21:53Z</time></trkpt><trkpt lat="44.847716974422916" lon="10.30685935498002"><ele>41.0</ele><time>2026-05-03T15:21:54Z</time></trkpt><trkpt lat="44.847780186643355" lon="10.306585328605335"><ele>41.0</ele><time>2026-05-03T15:21:55Z</time></trkpt><trkpt lat="44.847847871674546" lon="10.30631535303187"><ele>41.0</ele><time>2026-05-03T15:21:56Z</time></trkpt><trkpt lat="44.84791472399773" lon="10.306043660013813"><ele>41.0</ele><time>2026-05-03T15:21:57Z</time></trkpt><trkpt lat="44.8479806678545" lon="10.305772815560196"><ele>40.666666666666664</ele><time>2026-05-03T15:21:58Z</time></trkpt><trkpt lat="44.848045040125875" lon="10.305502915142544"><ele>40.333333333333336</ele><time>2026-05-03T15:21:59Z</time></trkpt><trkpt lat="44.848109520448574" lon="10.305232247779273"><ele>40.0</ele><time>2026-05-03T15:22:00Z</time></trkpt><trkpt lat="44.84817354660576" lon="10.304955895241605"><ele>39.66666666666667</ele><time>2026-05-03T15:22:01Z</time></trkpt><trkpt lat="44.84823923926163" lon="10.304676702258181"><ele>39.333333333333336</ele><time>2026-05-03T15:22:02Z</time></trkpt><trkpt lat="44.84830735064572" lon="10.304394340763512"><ele>39.0</ele><time>2026-05-03T15:22:03Z</time></trkpt><trkpt lat="44.84837789706983" lon="10.304110843649822"><ele>39.0</ele><time>2026-05-03T15:22:04Z</time></trkpt><trkpt lat="44.848445150502755" lon="10.303827638485794"><ele>39.0</ele><time>2026-05-03T15:22:05Z</time></trkpt><trkpt lat="44.84851078225708" lon="10.303546917778867"><ele>39.0</ele><time>2026-05-03T15:22:06Z</time></trkpt><trkpt lat="44.84857663101312" lon="10.303265338813095"><ele>38.666666666666664</ele><time>2026-05-03T15:22:07Z</time></trkpt><trkpt lat="44.84864489147618" lon="10.302981790173904"><ele>38.33333333333333</ele><time>2026-05-03T15:22:08Z</time></trkpt><trkpt lat="44.848716139545175" lon="10.302699036012669"><ele>38.0</ele><time>2026-05-03T15:22:09Z</time></trkpt><trkpt lat="44.848787668597225" lon="10.302415781076116"><ele>37.666666666666664</ele><time>2026-05-03T15:22:10Z</time></trkpt><trkpt lat="44.84885611604723" lon="10.30213061619699"><ele>37.333333333333336</ele><time>2026-05-03T15:22:11Z</time></trkpt><trkpt lat="44.848924051480395" lon="10.301842125563441"><ele>37.0</ele><time>2026-05-03T15:22:12Z</time></trkpt><trkpt lat="44.84899248577896" lon="10.30155504966689"><ele>37.66666666666667</ele><time>2026-05-03T15:22:13Z</time></trkpt><trkpt lat="44.849060123040786" lon="10.301265626469974"><ele>38.333333333333336</ele><time>2026-05-03T15:22:14Z</time></trkpt><trkpt lat="44.84912837374481" lon="10.300976580617093"><ele>39.0</ele><time>2026-05-03T15:22:15Z</time></trkpt><trkpt lat="44.84919808504766" lon="10.300691169561057"><ele>38.666666666666664</ele><time>2026-05-03T15:22:16Z</time></trkpt><trkpt lat="44.849266310157745" lon="10.300407845406676"><ele>38.33333333333333</ele><time>2026-05-03T15:22:17Z</time></trkpt><trkpt lat="44.84933498262232" lon="10.300125475407357"><ele>38.0</ele><time>2026-05-03T15:22:18Z</time></trkpt><trkpt lat="44.849403989429426" lon="10.299843376159687"><ele>38.0</ele><time>2026-05-03T15:22:19Z</time></trkpt><trkpt lat="44.849472679936746" lon="10.299563434081755"><ele>38.0</ele><time>2026-05-03T15:22:20Z</time></trkpt><trkpt lat="44.84953830266076" lon="10.299285679595005"><ele>38.0</ele><time>2026-05-03T15:22:21Z</time></trkpt><trkpt lat="44.84960367072368" lon="10.299010104928772"><ele>38.33333333333333</ele><time>2026-05-03T15:22:22Z</time></trkpt><trkpt lat="44.84966869919153" lon="10.298738665156467"><ele>38.666666666666664</ele><time>2026-05-03T15:22:23Z</time></trkpt><trkpt lat="44.849732018054375" lon="10.298468902771916"><ele>39.0</ele><time>2026-05-03T15:22:24Z</time></trkpt><trkpt lat="44.84979812755343" lon="10.298200363025552"><ele>38.666666666666664</ele><time>2026-05-03T15:22:25Z</time></trkpt><trkpt lat="44.84986428901464" lon="10.29793476695023"><ele>38.33333333333333</ele><time>2026-05-03T15:22:26Z</time></trkpt><trkpt lat="44.849929710568546" lon="10.297668420033673"><ele>38.0</ele><time>2026-05-03T15:22:27Z</time></trkpt><trkpt lat="44.849992857571905" lon="10.2974043035206"><ele>37.666666666666664</ele><time>2026-05-03T15:22:28Z</time></trkpt><trkpt lat="44.85005564103226" lon="10.297144311344352"><ele>37.333333333333336</ele><time>2026-05-03T15:22:29Z</time></trkpt><trkpt lat="44.85011415588909" lon="10.296894098254361"><ele>37.0</ele><time>2026-05-03T15:22:30Z</time></trkpt><trkpt lat="44.85017496765764" lon="10.296644657252234"><ele>37.66666666666667</ele><time>2026-05-03T15:22:31Z</time></trkpt><trkpt lat="44.850233963997994" lon="10.296396070076316"><ele>38.333333333333336</ele><time>2026-05-03T15:22:32Z</time></trkpt><trkpt lat="44.85029126706205" lon="10.29614578714024"><ele>39.0</ele><time>2026-05-03T15:22:33Z</time></trkpt><trkpt lat="44.850352543064226" lon="10.295896574656854"><ele>39.0</ele><time>2026-05-03T15:22:34Z</time></trkpt><trkpt lat="44.85041149321628" lon="10.295648279906297"><ele>39.0</ele><time>2026-05-03T15:22:35Z</time></trkpt><trkpt lat="44.850469467982975" lon="10.295403197461656"><ele>39.0</ele><time>2026-05-03T15:22:36Z</time></trkpt><trkpt lat="44.850526246111116" lon="10.295168354296429"><ele>38.666666666666664</ele><time>2026-05-03T15:22:37Z</time></trkpt><trkpt lat="44.85057956817212" lon="10.294940461487675"><ele>38.33333333333333</ele><time>2026-05-03T15:22:38Z</time></trkpt><trkpt lat="44.85062912333261" lon="10.294727323518696"><ele>38.0</ele><time>2026-05-03T15:22:39Z</time></trkpt><trkpt lat="44.85067824735599" lon="10.294519547487278"><ele>38.0</ele><time>2026-05-03T15:22:40Z</time></trkpt><trkpt lat="44.85072399518396" lon="10.294322161585967"><ele>38.0</ele><time>2026-05-03T15:22:41Z</time></trkpt><trkpt lat="44.85076890518633" lon="10.294139252951782"><ele>38.0</ele><time>2026-05-03T15:22:42Z</time></trkpt><trkpt lat="44.85081039227111" lon="10.293963730306743"><ele>38.0</ele><time>2026-05-03T15:22:43Z</time></trkpt><trkpt lat="44.8508513358222" lon="10.293800633277064"><ele>37.75</ele><time>2026-05-03T15:22:44Z</time></trkpt><trkpt lat="44.850884585813425" lon="10.293640926222508"><ele>37.5</ele><time>2026-05-03T15:22:45Z</time></trkpt><trkpt lat="44.85092691628666" lon="10.293480840025415"><ele>37.25</ele><time>2026-05-03T15:22:46Z</time></trkpt><trkpt lat="44.85096547339854" lon="10.293319454446122"><ele>37.0</ele><time>2026-05-03T15:22:47Z</time></trkpt><trkpt lat="44.851003347855766" lon="10.293156381396331"><ele>37.0</ele><time>2026-05-03T15:22:48Z</time></trkpt><trkpt lat="44.85104220290162" lon="10.2929947647976"><ele>37.0</ele><time>2026-05-03T15:22:49Z</time></trkpt><trkpt lat="44.85108061172396" lon="10.292833989037945"><ele>37.0</ele><time>2026-05-03T15:22:50Z</time></trkpt><trkpt lat="44.85112032275912" lon="10.292672091746827"><ele>37.0</ele><time>2026-05-03T15:22:51Z</time></trkpt><trkpt lat="44.851159844266505" lon="10.292506080274478"><ele>37.0</ele><time>2026-05-03T15:22:52Z</time></trkpt><trkpt lat="44.85119994941887" lon="10.292343347132073"><ele>37.0</ele><time>2026-05-03T15:22:53Z</time></trkpt><trkpt lat="44.8512400736521" lon="10.292174134455694"><ele>37.0</ele><time>2026-05-03T15:22:54Z</time></trkpt><trkpt lat="44.8512801122569" lon="10.292007631731641"><ele>37.0</ele><time>2026-05-03T15:22:55Z</time></trkpt><trkpt lat="44.85132171305753" lon="10.29183814469465"><ele>36.75</ele><time>2026-05-03T15:22:56Z</time></trkpt><trkpt lat="44.85136193341805" lon="10.291663463598434"><ele>36.5</ele><time>2026-05-03T15:22:57Z</time></trkpt><trkpt lat="44.85140547031018" lon="10.291491561541225"><ele>36.25</ele><time>2026-05-03T15:22:58Z</time></trkpt><trkpt lat="44.85144769215298" lon="10.29131764201116"><ele>36.0</ele><time>2026-05-03T15:22:59Z</time></trkpt><trkpt lat="44.85148975898955" lon="10.291140890677893"><ele>35.75</ele><time>2026-05-03T15:23:00Z</time></trkpt><trkpt lat="44.851531998336334" lon="10.290966089115214"><ele>35.5</ele><time>2026-05-03T15:23:01Z</time></trkpt><trkpt lat="44.851574854320944" lon="10.29079894262499"><ele>35.25</ele><time>2026-05-03T15:23:02Z</time></trkpt><trkpt lat="44.851614835170366" lon="10.290633691959927"><ele>35.0</ele><time>2026-05-03T15:23:03Z</time></trkpt><trkpt lat="44.851652540733674" lon="10.290468573550926"><ele>35.5</ele><time>2026-05-03T15:23:04Z</time></trkpt><trkpt lat="44.85168843408667" lon="10.29030729577688"><ele>36.0</ele><time>2026-05-03T15:23:05Z</time></trkpt><trkpt lat="44.851728383721394" lon="10.290141229611098"><ele>36.5</ele><time>2026-05-03T15:23:06Z</time></trkpt><trkpt lat="44.851770646041736" lon="10.289974418215612"><ele>37.0</ele><time>2026-05-03T15:23:07Z</time></trkpt><trkpt lat="44.851811353857045" lon="10.289801865916768"><ele>37.0</ele><time>2026-05-03T15:23:08Z</time></trkpt><trkpt lat="44.85185532277763" lon="10.289627599454143"><ele>37.0</ele><time>2026-05-03T15:23:09Z</time></trkpt><trkpt lat="44.8518986951083" lon="10.289451325970086"><ele>37.0</ele><time>2026-05-03T15:23:10Z</time></trkpt><trkpt lat="44.85194187604175" lon="10.289273705471016"><ele>37.0</ele><time>2026-05-03T15:23:11Z</time></trkpt><trkpt lat="44.851982709029" lon="10.289091648113521"><ele>36.5</ele><time>2026-05-03T15:23:12Z</time></trkpt><trkpt lat="44.85202654504684" lon="10.28890560602876"><ele>36.0</ele><time>2026-05-03T15:23:13Z</time></trkpt><trkpt lat="44.852069621065105" lon="10.288723376992513"><ele>35.5</ele><time>2026-05-03T15:23:14Z</time></trkpt><trkpt lat="44.852111086864085" lon="10.288541218464635"><ele>35.0</ele><time>2026-05-03T15:23:15Z</time></trkpt><trkpt lat="44.85215341714917" lon="10.288362343029856"><ele>35.0</ele><time>2026-05-03T15:23:16Z</time></trkpt><trkpt lat="44.852197937780275" lon="10.288179507995677"><ele>35.0</ele><time>2026-05-03T15:23:17Z</time></trkpt><trkpt lat="44.852243852818056" lon="10.28799187714487"><ele>35.0</ele><time>2026-05-03T15:23:18Z</time></trkpt><trkpt lat="44.852289982540356" lon="10.28780150765581"><ele>35.0</ele><time>2026-05-03T15:23:19Z</time></trkpt><trkpt lat="44.85233686161558" lon="10.287606608761434"><ele>34.666666666666664</ele><time>2026-05-03T15:23:20Z</time></trkpt><trkpt lat="44.85238515809166" lon="10.28740515188468"><ele>34.333333333333336</ele><time>2026-05-03T15:23:21Z</time></trkpt><trkpt lat="44.85243575870698" lon="10.287199604162165"><ele>34.0</ele><time>2026-05-03T15:23:22Z</time></trkpt><trkpt lat="44.852486467921864" lon="10.28699189298017"><ele>33.66666666666667</ele><time>2026-05-03T15:23:23Z</time></trkpt><trkpt lat="44.85253651072546" lon="10.28678105713504"><ele>33.333333333333336</ele><time>2026-05-03T15:23:24Z</time></trkpt><trkpt lat="44.85258642643961" lon="10.286568152931714"><ele>33.0</ele><time>2026-05-03T15:23:25Z</time></trkpt><trkpt lat="44.85263748131149" lon="10.286351008799118"><ele>33.0</ele><time>2026-05-03T15:23:26Z</time></trkpt><trkpt lat="44.8526898604535" lon="10.286135225193169"><ele>33.0</ele><time>2026-05-03T15:23:27Z</time></trkpt><trkpt lat="44.852738895537186" lon="10.28592641125176"><ele>33.0</ele><time>2026-05-03T15:23:28Z</time></trkpt><trkpt lat="44.85278888197808" lon="10.285719117624097"><ele>34.0</ele><time>2026-05-03T15:23:29Z</time></trkpt><trkpt lat="44.852838694741706" lon="10.285515151959169"><ele>35.0</ele><time>2026-05-03T15:23:30Z</time></trkpt><trkpt lat="44.852886739246216" lon="10.28531766587831"><ele>36.0</ele><time>2026-05-03T15:23:31Z</time></trkpt><trkpt lat="44.85293421103863" lon="10.285120651824075"><ele>37.0</ele><time>2026-05-03T15:23:32Z</time></trkpt><trkpt lat="44.85298266140446" lon="10.28492342498923"><ele>37.75</ele><time>2026-05-03T15:23:33Z</time></trkpt><trkpt lat="44.85303172499673" lon="10.284725084015164"><ele>38.5</ele><time>2026-05-03T15:23:34Z</time></trkpt><trkpt lat="44.85307896649452" lon="10.284525612731036"><ele>39.25</ele><time>2026-05-03T15:23:35Z</time></trkpt><trkpt lat="44.853124728359816" lon="10.284326367200583"><ele>40.0</ele><time>2026-05-03T15:23:36Z</time></trkpt><trkpt lat="44.85317210957956" lon="10.284122769897996"><ele>39.0</ele><time>2026-05-03T15:23:37Z</time></trkpt><trkpt lat="44.85322183021465" lon="10.283915762707153"><ele>38.0</ele><time>2026-05-03T15:23:38Z</time></trkpt><trkpt lat="44.853269360606305" lon="10.283709722005833"><ele>37.0</ele><time>2026-05-03T15:23:39Z</time></trkpt><trkpt lat="44.85331871452915" lon="10.283501259234725"><ele>37.0</ele><time>2026-05-03T15:23:40Z</time></trkpt><trkpt lat="44.853369364872165" lon="10.283290650329702"><ele>37.0</ele><time>2026-05-03T15:23:41Z</time></trkpt><trkpt lat="44.85342105260367" lon="10.283078737311502"><ele>37.0</ele><time>2026-05-03T15:23:42Z</time></trkpt><trkpt lat="44.853473008982505" lon="10.282866653038466"><ele>37.0</ele><time>2026-05-03T15:23:43Z</time></trkpt><trkpt lat="44.853523770368" lon="10.282657352407934"><ele>37.0</ele><time>2026-05-03T15:23:44Z</time></trkpt><trkpt lat="44.85357336496069" lon="10.282451859814875"><ele>37.0</ele><time>2026-05-03T15:23:45Z</time></trkpt><trkpt lat="44.853622054227564" lon="10.282247203571174"><ele>37.0</ele><time>2026-05-03T15:23:46Z</time></trkpt><trkpt lat="44.85367055102631" lon="10.282040163455603"><ele>37.0</ele><time>2026-05-03T15:23:47Z</time></trkpt><trkpt lat="44.853719468788775" lon="10.281834188456097"><ele>37.0</ele><time>2026-05-03T15:23:48Z</time></trkpt><trkpt lat="44.85376982517125" lon="10.281624438560813"><ele>36.66666666666667</ele><time>2026-05-03T15:23:49Z</time></trkpt><trkpt lat="44.85382098509172" lon="10.281416887986836"><ele>36.333333333333336</ele><time>2026-05-03T15:23:50Z</time></trkpt><trkpt lat="44.853873542237444" lon="10.281205656871474"><ele>36.0</ele><time>2026-05-03T15:23:51Z</time></trkpt><trkpt lat="44.8539253757202" lon="10.280993972818584"><ele>36.0</ele><time>2026-05-03T15:23:52Z</time></trkpt><trkpt lat="44.85397598466406" lon="10.280781348730736"><ele>36.0</ele><time>2026-05-03T15:23:53Z</time></trkpt><trkpt lat="44.854027815019606" lon="10.280563201652091"><ele>36.0</ele><time>2026-05-03T15:23:54Z</time></trkpt><trkpt lat="44.85408058190998" lon="10.280339529350067"><ele>36.0</ele><time>2026-05-03T15:23:55Z</time></trkpt><trkpt lat="44.85413384975632" lon="10.280115001978281"><ele>36.0</ele><time>2026-05-03T15:23:56Z</time></trkpt><trkpt lat="44.85418730894782" lon="10.279889783546345"><ele>36.0</ele><time>2026-05-03T15:23:57Z</time></trkpt><trkpt lat="44.854241049706154" lon="10.27966302458213"><ele>36.333333333333336</ele><time>2026-05-03T15:23:58Z</time></trkpt><trkpt lat="44.85429568734412" lon="10.279435873170979"><ele>36.66666666666667</ele><time>2026-05-03T15:23:59Z</time></trkpt><trkpt lat="44.85435092011397" lon="10.279207677766149"><ele>37.0</ele><time>2026-05-03T15:24:00Z</time></trkpt><trkpt lat="44.85440602792886" lon="10.278977489594958"><ele>37.333333333333336</ele><time>2026-05-03T15:24:01Z</time></trkpt><trkpt lat="44.854461378564146" lon="10.278743352279166"><ele>37.666666666666664</ele><time>2026-05-03T15:24:02Z</time></trkpt><trkpt lat="44.85451858701819" lon="10.278506085608624"><ele>38.0</ele><time>2026-05-03T15:24:03Z</time></trkpt><trkpt lat="44.854577347175955" lon="10.278264126386071"><ele>38.0</ele><time>2026-05-03T15:24:04Z</time></trkpt><trkpt lat="44.85463644761729" lon="10.278019734050288"><ele>38.0</ele><time>2026-05-03T15:24:05Z</time></trkpt><trkpt lat="44.854695453585805" lon="10.277771193140005"><ele>38.0</ele><time>2026-05-03T15:24:06Z</time></trkpt><trkpt lat="44.85475515886212" lon="10.277519729053036"><ele>38.666666666666664</ele><time>2026-05-03T15:24:07Z</time></trkpt><trkpt lat="44.85481661533096" lon="10.277265016926176"><ele>39.333333333333336</ele><time>2026-05-03T15:24:08Z</time></trkpt><trkpt lat="44.854879526568226" lon="10.277005743192834"><ele>40.0</ele><time>2026-05-03T15:24:09Z</time></trkpt><trkpt lat="44.854943647969726" lon="10.27674134300222"><ele>40.0</ele><time>2026-05-03T15:24:10Z</time></trkpt><trkpt lat="44.85500565714036" lon="10.276475541725773"><ele>40.0</ele><time>2026-05-03T15:24:11Z</time></trkpt><trkpt lat="44.85505923479661" lon="10.276214801161863"><ele>40.0</ele><time>2026-05-03T15:24:12Z</time></trkpt><trkpt lat="44.855107135389915" lon="10.275957820966438"><ele>40.5</ele><time>2026-05-03T15:24:13Z</time></trkpt><trkpt lat="44.85515310309352" lon="10.275701246724875"><ele>41.0</ele><time>2026-05-03T15:24:14Z</time></trkpt><trkpt lat="44.855275630723995" lon="10.275344272289189"><ele>41.0</ele><time>2026-05-03T15:24:15Z</time></trkpt><trkpt lat="44.8553458569891" lon="10.275055495828369"><ele>41.0</ele><time>2026-05-03T15:24:16Z</time></trkpt><trkpt lat="44.85541667888523" lon="10.274760894358943"><ele>41.0</ele><time>2026-05-03T15:24:17Z</time></trkpt><trkpt lat="44.85548919146265" lon="10.274460028293504"><ele>40.5</ele><time>2026-05-03T15:24:18Z</time></trkpt><trkpt lat="44.855569834157684" lon="10.27415461774193"><ele>40.0</ele><time>2026-05-03T15:24:19Z</time></trkpt><trkpt lat="44.855636897729475" lon="10.273856980005514"><ele>40.0</ele><time>2026-05-03T15:24:20Z</time></trkpt><trkpt lat="44.85571052527824" lon="10.27354998366703"><ele>40.0</ele><time>2026-05-03T15:24:21Z</time></trkpt><trkpt lat="44.85578451913083" lon="10.273247014916658"><ele>39.0</ele><time>2026-05-03T15:24:22Z</time></trkpt><trkpt lat="44.85585651716551" lon="10.272932248804443"><ele>38.0</ele><time>2026-05-03T15:24:23Z</time></trkpt><trkpt lat="44.8559285796914" lon="10.272623228335174"><ele>38.5</ele><time>2026-05-03T15:24:24Z</time></trkpt><trkpt lat="44.85599805319869" lon="10.272308581735809"><ele>39.0</ele><time>2026-05-03T15:24:25Z</time></trkpt><trkpt lat="44.85607234475282" lon="10.271991039535655"><ele>39.5</ele><time>2026-05-03T15:24:26Z</time></trkpt><trkpt lat="44.85615019506376" lon="10.271676944994008"><ele>40.0</ele><time>2026-05-03T15:24:27Z</time></trkpt><trkpt lat="44.85622468911535" lon="10.271354124153861"><ele>40.5</ele><time>2026-05-03T15:24:28Z</time></trkpt><trkpt lat="44.85630195768486" lon="10.271029559083546"><ele>41.0</ele><time>2026-05-03T15:24:29Z</time></trkpt><trkpt lat="44.85638128797439" lon="10.270704124837309"><ele>40.0</ele><time>2026-05-03T15:24:30Z</time></trkpt><trkpt lat="44.85646190739321" lon="10.270373661108863"><ele>39.0</ele><time>2026-05-03T15:24:31Z</time></trkpt><trkpt lat="44.85654275699051" lon="10.270039363435684"><ele>38.5</ele><time>2026-05-03T15:24:32Z</time></trkpt><trkpt lat="44.85662477211881" lon="10.269698441560514"><ele>38.0</ele><time>2026-05-03T15:24:33Z</time></trkpt><trkpt lat="44.85670489348798" lon="10.26935913002518"><ele>38.0</ele><time>2026-05-03T15:24:34Z</time></trkpt><trkpt lat="44.85678560210535" lon="10.26901834451274"><ele>38.0</ele><time>2026-05-03T15:24:35Z</time></trkpt><trkpt lat="44.85686747246108" lon="10.268676871908294"><ele>38.0</ele><time>2026-05-03T15:24:36Z</time></trkpt><trkpt lat="44.856953286441644" lon="10.268333604141915"><ele>38.0</ele><time>2026-05-03T15:24:37Z</time></trkpt><trkpt lat="44.85703597312304" lon="10.267990632561235"><ele>38.5</ele><time>2026-05-03T15:24:38Z</time></trkpt><trkpt lat="44.85711479943988" lon="10.267646780027707"><ele>39.0</ele><time>2026-05-03T15:24:39Z</time></trkpt><trkpt lat="44.85719729155818" lon="10.267300592468436"><ele>39.0</ele><time>2026-05-03T15:24:40Z</time></trkpt><trkpt lat="44.85728080950505" lon="10.266956391351398"><ele>39.0</ele><time>2026-05-03T15:24:41Z</time></trkpt><trkpt lat="44.85736293791386" lon="10.266612510377197"><ele>39.5</ele><time>2026-05-03T15:24:42Z</time></trkpt><trkpt lat="44.857443644695515" lon="10.26626809463223"><ele>40.0</ele><time>2026-05-03T15:24:43Z</time></trkpt><trkpt lat="44.85752612344417" lon="10.265923538149138"><ele>39.5</ele><time>2026-05-03T15:24:44Z</time></trkpt><trkpt lat="44.85760693425797" lon="10.265578647241824"><ele>39.0</ele><time>2026-05-03T15:24:45Z</time></trkpt><trkpt lat="44.8576902478389" lon="10.26523610651338"><ele>39.0</ele><time>2026-05-03T15:24:46Z</time></trkpt><trkpt lat="44.8577742043891" lon="10.26489298806397"><ele>39.0</ele><time>2026-05-03T15:24:47Z</time></trkpt><trkpt lat="44.85785740541516" lon="10.264551379284619"><ele>38.5</ele><time>2026-05-03T15:24:48Z</time></trkpt><trkpt lat="44.857939969519" lon="10.26421178397497"><ele>38.0</ele><time>2026-05-03T15:24:49Z</time></trkpt><trkpt lat="44.85802136038557" lon="10.263870179061449"><ele>38.0</ele><time>2026-05-03T15:24:50Z</time></trkpt><trkpt lat="44.85810249245236" lon="10.263528637749701"><ele>38.0</ele><time>2026-05-03T15:24:51Z</time></trkpt><trkpt lat="44.85818087539248" lon="10.263192350576194"><ele>38.5</ele><time>2026-05-03T15:24:52Z</time></trkpt><trkpt lat="44.85825653482322" lon="10.262864791387226"><ele>39.0</ele><time>2026-05-03T15:24:53Z</time></trkpt><trkpt lat="44.858332219553" lon="10.262557626179706"><ele>39.666666666666664</ele><time>2026-05-03T15:24:54Z</time></trkpt><trkpt lat="44.85840802279948" lon="10.262258935141055"><ele>40.33333333333333</ele><time>2026-05-03T15:24:55Z</time></trkpt><trkpt lat="44.85847795067479" lon="10.261959136034596"><ele>41.0</ele><time>2026-05-03T15:24:56Z</time></trkpt><trkpt lat="44.858546205315314" lon="10.261670633312647"><ele>40.666666666666664</ele><time>2026-05-03T15:24:57Z</time></trkpt><trkpt lat="44.858616079570794" lon="10.261377118050595"><ele>40.333333333333336</ele><time>2026-05-03T15:24:58Z</time></trkpt><trkpt lat="44.85868317055818" lon="10.261091425419302"><ele>40.0</ele><time>2026-05-03T15:24:59Z</time></trkpt><trkpt lat="44.85875161433663" lon="10.26081053694598"><ele>39.66666666666667</ele><time>2026-05-03T15:25:00Z</time></trkpt><trkpt lat="44.85881494190282" lon="10.26054394997717"><ele>39.333333333333336</ele><time>2026-05-03T15:25:01Z</time></trkpt><trkpt lat="44.85887494266913" lon="10.260289381788189"><ele>39.0</ele><time>2026-05-03T15:25:02Z</time></trkpt><trkpt lat="44.85893098543992" lon="10.260047661784558"><ele>39.0</ele><time>2026-05-03T15:25:03Z</time></trkpt><trkpt lat="44.85898644306197" lon="10.259817309975313"><ele>39.0</ele><time>2026-05-03T15:25:04Z</time></trkpt><trkpt lat="44.85904083804969" lon="10.259596449438925"><ele>39.0</ele><time>2026-05-03T15:25:05Z</time></trkpt><trkpt lat="44.85908963205148" lon="10.259385996473409"><ele>39.333333333333336</ele><time>2026-05-03T15:25:06Z</time></trkpt><trkpt lat="44.859140593126384" lon="10.259172045081653"><ele>39.66666666666667</ele><time>2026-05-03T15:25:07Z</time></trkpt><trkpt lat="44.859192850618314" lon="10.258959730725937"><ele>40.0</ele><time>2026-05-03T15:25:08Z</time></trkpt><trkpt lat="44.859243998251166" lon="10.258746796633966"><ele>40.66666666666667</ele><time>2026-05-03T15:25:09Z</time></trkpt><trkpt lat="44.8592955866995" lon="10.258528857967397"><ele>41.333333333333336</ele><time>2026-05-03T15:25:10Z</time></trkpt><trkpt lat="44.85934848578554" lon="10.258309855893053"><ele>42.0</ele><time>2026-05-03T15:25:11Z</time></trkpt><trkpt lat="44.85940106255429" lon="10.258090217617525"><ele>42.0</ele><time>2026-05-03T15:25:12Z</time></trkpt><trkpt lat="44.85945466488054" lon="10.257867427742584"><ele>42.0</ele><time>2026-05-03T15:25:13Z</time></trkpt><trkpt lat="44.8595065722091" lon="10.257644324033562"><ele>42.0</ele><time>2026-05-03T15:25:14Z</time></trkpt><trkpt lat="44.85955682431134" lon="10.257420876637362"><ele>42.0</ele><time>2026-05-03T15:25:15Z</time></trkpt><trkpt lat="44.85961021535404" lon="10.257200074139705"><ele>42.0</ele><time>2026-05-03T15:25:16Z</time></trkpt><trkpt lat="44.8596603093481" lon="10.25698749043418"><ele>42.0</ele><time>2026-05-03T15:25:17Z</time></trkpt><trkpt lat="44.85970995534038" lon="10.256786247380719"><ele>42.0</ele><time>2026-05-03T15:25:18Z</time></trkpt><trkpt lat="44.85975601636549" lon="10.256594954205871"><ele>42.0</ele><time>2026-05-03T15:25:19Z</time></trkpt><trkpt lat="44.85980338134406" lon="10.25640007918297"><ele>42.0</ele><time>2026-05-03T15:25:20Z</time></trkpt><trkpt lat="44.859849676370175" lon="10.25620184330236"><ele>42.0</ele><time>2026-05-03T15:25:21Z</time></trkpt><trkpt lat="44.85989679873093" lon="10.255999659791886"><ele>42.0</ele><time>2026-05-03T15:25:22Z</time></trkpt><trkpt lat="44.859947657251844" lon="10.255797700773044"><ele>42.0</ele><time>2026-05-03T15:25:23Z</time></trkpt><trkpt lat="44.859996620943825" lon="10.255594118349459"><ele>42.0</ele><time>2026-05-03T15:25:24Z</time></trkpt><trkpt lat="44.860039658947095" lon="10.255391917673666"><ele>42.0</ele><time>2026-05-03T15:25:25Z</time></trkpt><trkpt lat="44.86009195106997" lon="10.255173938730508"><ele>42.0</ele><time>2026-05-03T15:25:26Z</time></trkpt><trkpt lat="44.86014028333269" lon="10.254974507237419"><ele>42.0</ele><time>2026-05-03T15:25:27Z</time></trkpt><trkpt lat="44.86019028221599" lon="10.254765524503577"><ele>41.666666666666664</ele><time>2026-05-03T15:25:28Z</time></trkpt><trkpt lat="44.86024109685118" lon="10.254554586090746"><ele>41.33333333333333</ele><time>2026-05-03T15:25:29Z</time></trkpt><trkpt lat="44.860293558158055" lon="10.254342244637021"><ele>41.0</ele><time>2026-05-03T15:25:30Z</time></trkpt><trkpt lat="44.86034407407051" lon="10.254122961510914"><ele>41.0</ele><time>2026-05-03T15:25:31Z</time></trkpt><trkpt lat="44.86039635611919" lon="10.253900576366417"><ele>41.0</ele><time>2026-05-03T15:25:32Z</time></trkpt><trkpt lat="44.8604505381609" lon="10.253676555911486"><ele>41.0</ele><time>2026-05-03T15:25:33Z</time></trkpt><trkpt lat="44.8605055993658" lon="10.253445401977201"><ele>41.0</ele><time>2026-05-03T15:25:34Z</time></trkpt><trkpt lat="44.86056143119258" lon="10.253208092757813"><ele>41.0</ele><time>2026-05-03T15:25:35Z</time></trkpt><trkpt lat="44.86061794767158" lon="10.252969836249788"><ele>41.0</ele><time>2026-05-03T15:25:36Z</time></trkpt><trkpt lat="44.86067584344896" lon="10.25272961710279"><ele>41.0</ele><time>2026-05-03T15:25:37Z</time></trkpt><trkpt lat="44.86073460843311" lon="10.252481748027126"><ele>41.0</ele><time>2026-05-03T15:25:38Z</time></trkpt><trkpt lat="44.86079511829353" lon="10.252235330282973"><ele>41.0</ele><time>2026-05-03T15:25:39Z</time></trkpt><trkpt lat="44.86085593694602" lon="10.251976401383885"><ele>41.0</ele><time>2026-05-03T15:25:40Z</time></trkpt><trkpt lat="44.86091866084018" lon="10.251720368170476"><ele>41.0</ele><time>2026-05-03T15:25:41Z</time></trkpt><trkpt lat="44.86098144927003" lon="10.251459751643928"><ele>41.0</ele><time>2026-05-03T15:25:42Z</time></trkpt><trkpt lat="44.86104365284563" lon="10.2512009223051"><ele>40.666666666666664</ele><time>2026-05-03T15:25:43Z</time></trkpt><trkpt lat="44.861106678839526" lon="10.250938040777221"><ele>40.333333333333336</ele><time>2026-05-03T15:25:44Z</time></trkpt><trkpt lat="44.86117022538731" lon="10.250673911311006"><ele>40.0</ele><time>2026-05-03T15:25:45Z</time></trkpt><trkpt lat="44.86123287505687" lon="10.250407559465515"><ele>40.66666666666667</ele><time>2026-05-03T15:25:46Z</time></trkpt><trkpt lat="44.86129661663941" lon="10.250146231709115"><ele>41.333333333333336</ele><time>2026-05-03T15:25:47Z</time></trkpt><trkpt lat="44.86135949855513" lon="10.249878943873023"><ele>42.0</ele><time>2026-05-03T15:25:48Z</time></trkpt><trkpt lat="44.861422660001786" lon="10.249613637834646"><ele>43.0</ele><time>2026-05-03T15:25:49Z</time></trkpt><trkpt lat="44.86148575302479" lon="10.249350094216576"><ele>44.0</ele><time>2026-05-03T15:25:50Z</time></trkpt><trkpt lat="44.86154785888889" lon="10.249086256440515"><ele>45.0</ele><time>2026-05-03T15:25:51Z</time></trkpt><trkpt lat="44.861609523082095" lon="10.24882476599407"><ele>45.0</ele><time>2026-05-03T15:25:52Z</time></trkpt><trkpt lat="44.86167061966287" lon="10.248562923697408"><ele>45.0</ele><time>2026-05-03T15:25:53Z</time></trkpt><trkpt lat="44.861730928023086" lon="10.248305790831928"><ele>45.0</ele><time>2026-05-03T15:25:54Z</time></trkpt><trkpt lat="44.86178362966024" lon="10.248067084898027"><ele>44.666666666666664</ele><time>2026-05-03T15:25:55Z</time></trkpt><trkpt lat="44.86182991298989" lon="10.24785368843161"><ele>44.33333333333333</ele><time>2026-05-03T15:25:56Z</time></trkpt><trkpt lat="44.86187322938154" lon="10.24765343619616"><ele>44.0</ele><time>2026-05-03T15:25:57Z</time></trkpt><trkpt lat="44.86191279088262" lon="10.247455710047891"><ele>44.0</ele><time>2026-05-03T15:25:58Z</time></trkpt><trkpt lat="44.861949605742126" lon="10.247276928734156"><ele>44.0</ele><time>2026-05-03T15:25:59Z</time></trkpt><trkpt lat="44.86198441407366" lon="10.247119072051198"><ele>44.0</ele><time>2026-05-03T15:26:00Z</time></trkpt><trkpt lat="44.86201933736221" lon="10.246971941099686"><ele>44.0</ele><time>2026-05-03T15:26:01Z</time></trkpt><trkpt lat="44.86205333583905" lon="10.246833883078395"><ele>44.0</ele><time>2026-05-03T15:26:02Z</time></trkpt><trkpt lat="44.86208171774053" lon="10.2467136119172"><ele>44.0</ele><time>2026-05-03T15:26:03Z</time></trkpt><trkpt lat="44.862106813976574" lon="10.246601893966737"><ele>44.0</ele><time>2026-05-03T15:26:04Z</time></trkpt><trkpt lat="44.862131124804414" lon="10.246495682710453"><ele>44.0</ele><time>2026-05-03T15:26:05Z</time></trkpt><trkpt lat="44.86215322013166" lon="10.24640240540708"><ele>44.0</ele><time>2026-05-03T15:26:06Z</time></trkpt><trkpt lat="44.86217640243746" lon="10.24631631730518"><ele>44.0</ele><time>2026-05-03T15:26:07Z</time></trkpt><trkpt lat="44.862215355459384" lon="10.246164578149978"><ele>44.0</ele><time>2026-05-03T15:26:09Z</time></trkpt><trkpt lat="44.862253083632304" lon="10.24600179598708"><ele>44.0</ele><time>2026-05-03T15:26:11Z</time></trkpt><trkpt lat="44.86227630389632" lon="10.245894321180646"><ele>44.0</ele><time>2026-05-03T15:26:12Z</time></trkpt><trkpt lat="44.86230155883777" lon="10.245780407972545"><ele>44.0</ele><time>2026-05-03T15:26:13Z</time></trkpt><trkpt lat="44.86232856290655" lon="10.24566405245587"><ele>44.0</ele><time>2026-05-03T15:26:14Z</time></trkpt><trkpt lat="44.86235871140523" lon="10.24554359886891"><ele>44.166666666666664</ele><time>2026-05-03T15:26:15Z</time></trkpt><trkpt lat="44.862388714505656" lon="10.245419976257407"><ele>44.33333333333333</ele><time>2026-05-03T15:26:16Z</time></trkpt><trkpt lat="44.86241489149171" lon="10.245302605857193"><ele>44.5</ele><time>2026-05-03T15:26:17Z</time></trkpt><trkpt lat="44.86244077516087" lon="10.245193436583435"><ele>44.666666666666664</ele><time>2026-05-03T15:26:18Z</time></trkpt><trkpt lat="44.86246417281858" lon="10.245096351307316"><ele>44.833333333333336</ele><time>2026-05-03T15:26:19Z</time></trkpt><trkpt lat="44.8624865151268" lon="10.245011446903467"><ele>45.0</ele><time>2026-05-03T15:26:20Z</time></trkpt><trkpt lat="44.86251156482237" lon="10.244928197504647"><ele>45.0</ele><time>2026-05-03T15:26:21Z</time></trkpt><trkpt lat="44.862536118279515" lon="10.244829103526008"><ele>45.0</ele><time>2026-05-03T15:26:22Z</time></trkpt><trkpt lat="44.862560038693665" lon="10.244717367307276"><ele>45.0</ele><time>2026-05-03T15:26:23Z</time></trkpt><trkpt lat="44.86258879477621" lon="10.24459703868136"><ele>45.0</ele><time>2026-05-03T15:26:24Z</time></trkpt><trkpt lat="44.862615415502795" lon="10.244475802670083"><ele>45.0</ele><time>2026-05-03T15:26:25Z</time></trkpt><trkpt lat="44.862650299612106" lon="10.244343547585057"><ele>45.0</ele><time>2026-05-03T15:26:26Z</time></trkpt><trkpt lat="44.86267964473538" lon="10.244200881328664"><ele>44.6</ele><time>2026-05-03T15:26:27Z</time></trkpt><trkpt lat="44.862715658919235" lon="10.24405997649373"><ele>44.2</ele><time>2026-05-03T15:26:28Z</time></trkpt><trkpt lat="44.862747050696555" lon="10.24391615309542"><ele>43.8</ele><time>2026-05-03T15:26:29Z</time></trkpt><trkpt lat="44.862781802632334" lon="10.243778517836617"><ele>43.4</ele><time>2026-05-03T15:26:30Z</time></trkpt><trkpt lat="44.86281146563789" lon="10.243641907319379"><ele>43.0</ele><time>2026-05-03T15:26:31Z</time></trkpt><trkpt lat="44.86284183009227" lon="10.243501486871565"><ele>42.599999999999994</ele><time>2026-05-03T15:26:32Z</time></trkpt><trkpt lat="44.86288640604855" lon="10.24335771005007"><ele>42.199999999999996</ele><time>2026-05-03T15:26:33Z</time></trkpt><trkpt lat="44.86291978187571" lon="10.243205281860302"><ele>41.8</ele><time>2026-05-03T15:26:34Z</time></trkpt><trkpt lat="44.8629466499674" lon="10.243054401802132"><ele>41.4</ele><time>2026-05-03T15:26:35Z</time></trkpt><trkpt lat="44.862981529233465" lon="10.242908948538288"><ele>41.0</ele><time>2026-05-03T15:26:36Z</time></trkpt><trkpt lat="44.86301462497801" lon="10.242769692734633"><ele>41.0</ele><time>2026-05-03T15:26:37Z</time></trkpt><trkpt lat="44.8630460789047" lon="10.24262773611385"><ele>41.0</ele><time>2026-05-03T15:26:38Z</time></trkpt><trkpt lat="44.86307994162011" lon="10.242485462404035"><ele>41.0</ele><time>2026-05-03T15:26:39Z</time></trkpt><trkpt lat="44.863116379626824" lon="10.242340040493682"><ele>41.0</ele><time>2026-05-03T15:26:40Z</time></trkpt><trkpt lat="44.863154882552905" lon="10.24219418619257"><ele>41.0</ele><time>2026-05-03T15:26:41Z</time></trkpt><trkpt lat="44.86319367238818" lon="10.242044467802158"><ele>41.0</ele><time>2026-05-03T15:26:42Z</time></trkpt><trkpt lat="44.863230286643436" lon="10.241896409318535"><ele>41.0</ele><time>2026-05-03T15:26:43Z</time></trkpt><trkpt lat="44.863263408236726" lon="10.241758112558646"><ele>41.0</ele><time>2026-05-03T15:26:44Z</time></trkpt><trkpt lat="44.8632917661548" lon="10.241632802617463"><ele>41.0</ele><time>2026-05-03T15:26:45Z</time></trkpt><trkpt lat="44.86331751634012" lon="10.2415175977096"><ele>41.0</ele><time>2026-05-03T15:26:46Z</time></trkpt><trkpt lat="44.86334185729616" lon="10.241411069645192"><ele>41.199999999999996</ele><time>2026-05-03T15:26:47Z</time></trkpt><trkpt lat="44.86337108286475" lon="10.24129005101906"><ele>41.4</ele><time>2026-05-03T15:26:48Z</time></trkpt><trkpt lat="44.863401219095515" lon="10.241158633794717"><ele>41.6</ele><time>2026-05-03T15:26:49Z</time></trkpt><trkpt lat="44.863431352691585" lon="10.241026173601766"><ele>41.8</ele><time>2026-05-03T15:26:50Z</time></trkpt><trkpt lat="44.86346706459098" lon="10.240890538923693"><ele>42.0</ele><time>2026-05-03T15:26:51Z</time></trkpt><trkpt lat="44.86350115226926" lon="10.240750820959468"><ele>42.6</ele><time>2026-05-03T15:26:52Z</time></trkpt><trkpt lat="44.863534237324494" lon="10.240608133970431"><ele>43.2</ele><time>2026-05-03T15:26:53Z</time></trkpt><trkpt lat="44.86356765555767" lon="10.240462976188793"><ele>43.8</ele><time>2026-05-03T15:26:54Z</time></trkpt><trkpt lat="44.8636025208171" lon="10.240315047038605"><ele>44.4</ele><time>2026-05-03T15:26:55Z</time></trkpt><trkpt lat="44.86363932239257" lon="10.240165439657874"><ele>45.0</ele><time>2026-05-03T15:26:56Z</time></trkpt><trkpt lat="44.8636788369568" lon="10.240011541263717"><ele>45.0</ele><time>2026-05-03T15:26:57Z</time></trkpt><trkpt lat="44.86371812726171" lon="10.239856614343639"><ele>45.0</ele><time>2026-05-03T15:26:58Z</time></trkpt><trkpt lat="44.863758745615186" lon="10.239700471152718"><ele>45.0</ele><time>2026-05-03T15:26:59Z</time></trkpt><trkpt lat="44.86380024091982" lon="10.239542953624618"><ele>45.0</ele><time>2026-05-03T15:27:00Z</time></trkpt><trkpt lat="44.86384165731089" lon="10.239384803930603"><ele>45.0</ele><time>2026-05-03T15:27:01Z</time></trkpt><trkpt lat="44.86388172656271" lon="10.239224519034375"><ele>45.0</ele><time>2026-05-03T15:27:02Z</time></trkpt><trkpt lat="44.863922356349505" lon="10.239055296166358"><ele>45.0</ele><time>2026-05-03T15:27:03Z</time></trkpt><trkpt lat="44.86396579023829" lon="10.238880694135291"><ele>45.0</ele><time>2026-05-03T15:27:04Z</time></trkpt><trkpt lat="44.86401030474607" lon="10.238700382137191"><ele>45.0</ele><time>2026-05-03T15:27:05Z</time></trkpt><trkpt lat="44.864057634257385" lon="10.238519230722966"><ele>45.0</ele><time>2026-05-03T15:27:06Z</time></trkpt><trkpt lat="44.86410534043637" lon="10.238336290243865"><ele>45.0</ele><time>2026-05-03T15:27:07Z</time></trkpt><trkpt lat="44.86415248840606" lon="10.238149875291933"><ele>45.0</ele><time>2026-05-03T15:27:08Z</time></trkpt><trkpt lat="44.864198247605124" lon="10.237960061654467"><ele>45.0</ele><time>2026-05-03T15:27:09Z</time></trkpt><trkpt lat="44.86424669831604" lon="10.23776506347146"><ele>45.0</ele><time>2026-05-03T15:27:10Z</time></trkpt><trkpt lat="44.86429905079153" lon="10.237573058458882"><ele>45.0</ele><time>2026-05-03T15:27:11Z</time></trkpt><trkpt lat="44.864348127306" lon="10.237377587882298"><ele>45.0</ele><time>2026-05-03T15:27:12Z</time></trkpt><trkpt lat="44.86439562899884" lon="10.237175365868092"><ele>45.0</ele><time>2026-05-03T15:27:13Z</time></trkpt><trkpt lat="44.8644428880922" lon="10.236977415592545"><ele>45.0</ele><time>2026-05-03T15:27:14Z</time></trkpt><trkpt lat="44.86448906870925" lon="10.236781899509573"><ele>45.0</ele><time>2026-05-03T15:27:15Z</time></trkpt><trkpt lat="44.86453478666564" lon="10.236587842701192"><ele>45.0</ele><time>2026-05-03T15:27:16Z</time></trkpt><trkpt lat="44.86457978859372" lon="10.23639448904665"><ele>45.0</ele><time>2026-05-03T15:27:17Z</time></trkpt><trkpt lat="44.86462442308181" lon="10.236201940497386"><ele>45.0</ele><time>2026-05-03T15:27:18Z</time></trkpt><trkpt lat="44.86466937241467" lon="10.236009756623705"><ele>45.0</ele><time>2026-05-03T15:27:19Z</time></trkpt><trkpt lat="44.8647130510821" lon="10.235817243454285"><ele>45.0</ele><time>2026-05-03T15:27:20Z</time></trkpt><trkpt lat="44.86475645895871" lon="10.235625574840519"><ele>45.0</ele><time>2026-05-03T15:27:21Z</time></trkpt><trkpt lat="44.86480183144589" lon="10.235437879893503"><ele>45.0</ele><time>2026-05-03T15:27:22Z</time></trkpt><trkpt lat="44.86484961501569" lon="10.235251665172164"><ele>45.0</ele><time>2026-05-03T15:27:23Z</time></trkpt><trkpt lat="44.86489240068116" lon="10.235061086408459"><ele>45.0</ele><time>2026-05-03T15:27:24Z</time></trkpt><trkpt lat="44.86493582617163" lon="10.234876025773083"><ele>44.75</ele><time>2026-05-03T15:27:25Z</time></trkpt><trkpt lat="44.86497868199567" lon="10.234692454679443"><ele>44.5</ele><time>2026-05-03T15:27:26Z</time></trkpt><trkpt lat="44.86502148386583" lon="10.234509678971476"><ele>44.25</ele><time>2026-05-03T15:27:27Z</time></trkpt><trkpt lat="44.8650657246606" lon="10.234328404163529"><ele>44.0</ele><time>2026-05-03T15:27:28Z</time></trkpt><trkpt lat="44.865110736636844" lon="10.234147709246933"><ele>44.0</ele><time>2026-05-03T15:27:29Z</time></trkpt><trkpt lat="44.865155141613286" lon="10.233967599867642"><ele>44.0</ele><time>2026-05-03T15:27:30Z</time></trkpt><trkpt lat="44.865197803866295" lon="10.233786040677625"><ele>44.0</ele><time>2026-05-03T15:27:31Z</time></trkpt><trkpt lat="44.86524011205501" lon="10.233604903764494"><ele>44.0</ele><time>2026-05-03T15:27:32Z</time></trkpt><trkpt lat="44.86528431517196" lon="10.233419272072238"><ele>44.0</ele><time>2026-05-03T15:27:33Z</time></trkpt><trkpt lat="44.86532936816439" lon="10.233233830685341"><ele>44.0</ele><time>2026-05-03T15:27:34Z</time></trkpt><trkpt lat="44.86537397059794" lon="10.233046638039713"><ele>44.0</ele><time>2026-05-03T15:27:35Z</time></trkpt><trkpt lat="44.86542032624957" lon="10.232858082355992"><ele>44.0</ele><time>2026-05-03T15:27:36Z</time></trkpt><trkpt lat="44.86546638744781" lon="10.232668969854144"><ele>44.0</ele><time>2026-05-03T15:27:37Z</time></trkpt><trkpt lat="44.86551201258587" lon="10.232477453015077"><ele>44.0</ele><time>2026-05-03T15:27:38Z</time></trkpt><trkpt lat="44.865557222097564" lon="10.232284913219917"><ele>44.0</ele><time>2026-05-03T15:27:39Z</time></trkpt><trkpt lat="44.865601423719916" lon="10.232093106889037"><ele>44.0</ele><time>2026-05-03T15:27:40Z</time></trkpt><trkpt lat="44.86564552854323" lon="10.231901705123748"><ele>43.75</ele><time>2026-05-03T15:27:41Z</time></trkpt><trkpt lat="44.86569070478911" lon="10.23170780164947"><ele>43.5</ele><time>2026-05-03T15:27:42Z</time></trkpt><trkpt lat="44.86573507020218" lon="10.231509932041808"><ele>43.25</ele><time>2026-05-03T15:27:43Z</time></trkpt><trkpt lat="44.86578194050407" lon="10.231300533078127"><ele>43.0</ele><time>2026-05-03T15:27:44Z</time></trkpt><trkpt lat="44.86583669854603" lon="10.231079895139233"><ele>43.0</ele><time>2026-05-03T15:27:45Z</time></trkpt><trkpt lat="44.865894265570454" lon="10.230845641360942"><ele>43.0</ele><time>2026-05-03T15:27:46Z</time></trkpt><trkpt lat="44.86595562986274" lon="10.230598108549488"><ele>43.0</ele><time>2026-05-03T15:27:47Z</time></trkpt><trkpt lat="44.866017329686784" lon="10.230343139785555"><ele>43.0</ele><time>2026-05-03T15:27:48Z</time></trkpt><trkpt lat="44.86608037509492" lon="10.230082624643252"><ele>43.0</ele><time>2026-05-03T15:27:49Z</time></trkpt><trkpt lat="44.866144071756274" lon="10.229815683829104"><ele>43.0</ele><time>2026-05-03T15:27:50Z</time></trkpt><trkpt lat="44.86620749779958" lon="10.229543814787773"><ele>43.0</ele><time>2026-05-03T15:27:51Z</time></trkpt><trkpt lat="44.86627512649794" lon="10.229269359887322"><ele>43.0</ele><time>2026-05-03T15:27:52Z</time></trkpt><trkpt lat="44.866342624117316" lon="10.228990859555015"><ele>43.0</ele><time>2026-05-03T15:27:53Z</time></trkpt><trkpt lat="44.86640711700423" lon="10.22870247809043"><ele>43.66666666666667</ele><time>2026-05-03T15:27:54Z</time></trkpt><trkpt lat="44.86647119750877" lon="10.228411949063004"><ele>44.333333333333336</ele><time>2026-05-03T15:27:55Z</time></trkpt><trkpt lat="44.86653987982301" lon="10.228122952475308"><ele>45.0</ele><time>2026-05-03T15:27:56Z</time></trkpt><trkpt lat="44.86660832469892" lon="10.2278341229904"><ele>45.0</ele><time>2026-05-03T15:27:57Z</time></trkpt><trkpt lat="44.866677639529314" lon="10.227547589184683"><ele>45.0</ele><time>2026-05-03T15:27:58Z</time></trkpt><trkpt lat="44.8667458751964" lon="10.227264107665286"><ele>45.0</ele><time>2026-05-03T15:27:59Z</time></trkpt><trkpt lat="44.86681178978321" lon="10.226980618352858"><ele>45.0</ele><time>2026-05-03T15:28:00Z</time></trkpt><trkpt lat="44.86688006168882" lon="10.226697946043235"><ele>45.0</ele><time>2026-05-03T15:28:01Z</time></trkpt><trkpt lat="44.86694743039859" lon="10.226418735729354"><ele>45.0</ele><time>2026-05-03T15:28:02Z</time></trkpt><trkpt lat="44.86701513664969" lon="10.2261402466644"><ele>45.0</ele><time>2026-05-03T15:28:03Z</time></trkpt><trkpt lat="44.86708079361395" lon="10.225861714146063"><ele>45.0</ele><time>2026-05-03T15:28:04Z</time></trkpt><trkpt lat="44.86714541138106" lon="10.225586136493812"><ele>45.0</ele><time>2026-05-03T15:28:05Z</time></trkpt><trkpt lat="44.86721034370149" lon="10.225308982153424"><ele>44.333333333333336</ele><time>2026-05-03T15:28:06Z</time></trkpt><trkpt lat="44.867274889975796" lon="10.225031855691935"><ele>43.66666666666667</ele><time>2026-05-03T15:28:07Z</time></trkpt><trkpt lat="44.86733631776398" lon="10.224757613705881"><ele>43.0</ele><time>2026-05-03T15:28:08Z</time></trkpt><trkpt lat="44.86739522186482" lon="10.22449317061558"><ele>43.0</ele><time>2026-05-03T15:28:09Z</time></trkpt><trkpt lat="44.8674508937477" lon="10.224237444525222"><ele>43.0</ele><time>2026-05-03T15:28:10Z</time></trkpt><trkpt lat="44.86750594611202" lon="10.223985059433065"><ele>43.0</ele><time>2026-05-03T15:28:11Z</time></trkpt><trkpt lat="44.86755377936638" lon="10.223748463150619"><ele>43.0</ele><time>2026-05-03T15:28:12Z</time></trkpt><trkpt lat="44.86759226866714" lon="10.223515123227653"><ele>43.0</ele><time>2026-05-03T15:28:13Z</time></trkpt><trkpt lat="44.86762949042523" lon="10.223306873794497"><ele>43.0</ele><time>2026-05-03T15:28:14Z</time></trkpt><trkpt lat="44.86767122195864" lon="10.223107569922503"><ele>43.0</ele><time>2026-05-03T15:28:15Z</time></trkpt><trkpt lat="44.86770838852126" lon="10.22292288882035"><ele>43.0</ele><time>2026-05-03T15:28:16Z</time></trkpt><trkpt lat="44.86774341716618" lon="10.2227576910794"><ele>43.0</ele><time>2026-05-03T15:28:17Z</time></trkpt><trkpt lat="44.867776270669026" lon="10.222618819183124"><ele>43.0</ele><time>2026-05-03T15:28:18Z</time></trkpt><trkpt lat="44.867805208275286" lon="10.222505664041705"><ele>43.0</ele><time>2026-05-03T15:28:19Z</time></trkpt><trkpt lat="44.867828226067076" lon="10.222416321179447"><ele>43.0</ele><time>2026-05-03T15:28:20Z</time></trkpt><trkpt lat="44.86784638164069" lon="10.222282287199203"><ele>43.0</ele><time>2026-05-03T15:28:22Z</time></trkpt><trkpt lat="44.867884008567344" lon="10.22209218323517"><ele>43.0</ele><time>2026-05-03T15:28:24Z</time></trkpt><trkpt lat="44.867912806521225" lon="10.221956463326427"><ele>43.0</ele><time>2026-05-03T15:28:25Z</time></trkpt><trkpt lat="44.86794627173769" lon="10.221812290719713"><ele>43.0</ele><time>2026-05-03T15:28:26Z</time></trkpt><trkpt lat="44.86798200914048" lon="10.221656008360503"><ele>43.0</ele><time>2026-05-03T15:28:27Z</time></trkpt><trkpt lat="44.868014177078805" lon="10.221485042458902"><ele>43.0</ele><time>2026-05-03T15:28:28Z</time></trkpt><trkpt lat="44.868046464086284" lon="10.221302288147934"><ele>43.0</ele><time>2026-05-03T15:28:29Z</time></trkpt><trkpt lat="44.86807914939324" lon="10.221112890154084"><ele>43.0</ele><time>2026-05-03T15:28:30Z</time></trkpt><trkpt lat="44.86811389508964" lon="10.220911552371563"><ele>43.333333333333336</ele><time>2026-05-03T15:28:31Z</time></trkpt><trkpt lat="44.86815148751191" lon="10.220693403850754"><ele>43.666666666666664</ele><time>2026-05-03T15:28:32Z</time></trkpt><trkpt lat="44.868190871368384" lon="10.220464552659475"><ele>44.0</ele><time>2026-05-03T15:28:33Z</time></trkpt><trkpt lat="44.86823234433527" lon="10.220223564065257"><ele>44.0</ele><time>2026-05-03T15:28:34Z</time></trkpt><trkpt lat="44.868274962712775" lon="10.219973793698223"><ele>44.0</ele><time>2026-05-03T15:28:35Z</time></trkpt><trkpt lat="44.868318322536396" lon="10.219718750730792"><ele>44.0</ele><time>2026-05-03T15:28:36Z</time></trkpt><trkpt lat="44.86836291620267" lon="10.219456450179976"><ele>43.666666666666664</ele><time>2026-05-03T15:28:37Z</time></trkpt><trkpt lat="44.868408091413016" lon="10.219190728940955"><ele>43.333333333333336</ele><time>2026-05-03T15:28:38Z</time></trkpt><trkpt lat="44.86845441463982" lon="10.218918255155797"><ele>43.0</ele><time>2026-05-03T15:28:39Z</time></trkpt><trkpt lat="44.86850356494238" lon="10.218629040910937"><ele>43.0</ele><time>2026-05-03T15:28:40Z</time></trkpt><trkpt lat="44.8685548663118" lon="10.218326928174452"><ele>43.0</ele><time>2026-05-03T15:28:41Z</time></trkpt><trkpt lat="44.8685991326951" lon="10.218066244284186"><ele>43.0</ele><time>2026-05-03T15:28:42Z</time></trkpt><trkpt lat="44.8686511865731" lon="10.217759699905502"><ele>43.0</ele><time>2026-05-03T15:28:43Z</time></trkpt><trkpt lat="44.868703704448805" lon="10.217450423220075"><ele>43.0</ele><time>2026-05-03T15:28:44Z</time></trkpt><trkpt lat="44.868756132082666" lon="10.217140448089872"><ele>43.0</ele><time>2026-05-03T15:28:45Z</time></trkpt><trkpt lat="44.868807681384084" lon="10.216834615488695"><ele>43.0</ele><time>2026-05-03T15:28:46Z</time></trkpt><trkpt lat="44.868858661554505" lon="10.216532159405515"><ele>43.0</ele><time>2026-05-03T15:28:47Z</time></trkpt><trkpt lat="44.86890655663471" lon="10.216248036680987"><ele>43.0</ele><time>2026-05-03T15:28:48Z</time></trkpt><trkpt lat="44.868952927672176" lon="10.215973061689134"><ele>43.0</ele><time>2026-05-03T15:28:49Z</time></trkpt><trkpt lat="44.868995786692246" lon="10.215718912524459"><ele>43.0</ele><time>2026-05-03T15:28:50Z</time></trkpt><trkpt lat="44.86903694753718" lon="10.215474833352054"><ele>43.333333333333336</ele><time>2026-05-03T15:28:51Z</time></trkpt><trkpt lat="44.869081148960035" lon="10.215250542671063"><ele>43.666666666666664</ele><time>2026-05-03T15:28:52Z</time></trkpt><trkpt lat="44.86910652117571" lon="10.2150255655573"><ele>44.0</ele><time>2026-05-03T15:28:53Z</time></trkpt><trkpt lat="44.86913044548246" lon="10.214800239560038"><ele>44.666666666666664</ele><time>2026-05-03T15:28:54Z</time></trkpt><trkpt lat="44.8691587393953" lon="10.214570714476636"><ele>45.333333333333336</ele><time>2026-05-03T15:28:55Z</time></trkpt><trkpt lat="44.86920296043102" lon="10.21433745257745"><ele>46.0</ele><time>2026-05-03T15:28:56Z</time></trkpt><trkpt lat="44.86924712787264" lon="10.21410081211764"><ele>46.0</ele><time>2026-05-03T15:28:57Z</time></trkpt><trkpt lat="44.86928933843788" lon="10.213866719388816"><ele>46.0</ele><time>2026-05-03T15:28:58Z</time></trkpt><trkpt lat="44.86933245127387" lon="10.213622678306443"><ele>46.0</ele><time>2026-05-03T15:28:59Z</time></trkpt><trkpt lat="44.869371717173095" lon="10.213381657405023"><ele>45.66666666666667</ele><time>2026-05-03T15:29:00Z</time></trkpt><trkpt lat="44.86940938678216" lon="10.213135776173264"><ele>45.333333333333336</ele><time>2026-05-03T15:29:01Z</time></trkpt><trkpt lat="44.8694519665506" lon="10.212894984567278"><ele>45.0</ele><time>2026-05-03T15:29:02Z</time></trkpt><trkpt lat="44.86949451086591" lon="10.2126569335262"><ele>45.0</ele><time>2026-05-03T15:29:03Z</time></trkpt><trkpt lat="44.86952982181806" lon="10.212438491181429"><ele>45.0</ele><time>2026-05-03T15:29:04Z</time></trkpt><trkpt lat="44.86956267044661" lon="10.212239199361486"><ele>45.0</ele><time>2026-05-03T15:29:05Z</time></trkpt><trkpt lat="44.869593167955905" lon="10.212051527571653"><ele>45.0</ele><time>2026-05-03T15:29:06Z</time></trkpt><trkpt lat="44.86962349740655" lon="10.211873882712856"><ele>45.0</ele><time>2026-05-03T15:29:07Z</time></trkpt><trkpt lat="44.86965498775775" lon="10.211698741295306"><ele>45.0</ele><time>2026-05-03T15:29:08Z</time></trkpt><trkpt lat="44.869684268574744" lon="10.211516052613568"><ele>45.0</ele><time>2026-05-03T15:29:09Z</time></trkpt><trkpt lat="44.869716005304696" lon="10.211326450057575"><ele>45.0</ele><time>2026-05-03T15:29:10Z</time></trkpt><trkpt lat="44.86974819171845" lon="10.211135341425392"><ele>45.0</ele><time>2026-05-03T15:29:11Z</time></trkpt><trkpt lat="44.86978127419094" lon="10.210936934897617"><ele>45.0</ele><time>2026-05-03T15:29:12Z</time></trkpt><trkpt lat="44.86981328653273" lon="10.210738495287764"><ele>45.0</ele><time>2026-05-03T15:29:13Z</time></trkpt><trkpt lat="44.869847055696624" lon="10.21053565399767"><ele>45.0</ele><time>2026-05-03T15:29:14Z</time></trkpt><trkpt lat="44.86988214051156" lon="10.210331724984728"><ele>45.0</ele><time>2026-05-03T15:29:15Z</time></trkpt><trkpt lat="44.8699165235603" lon="10.210128882029233"><ele>45.0</ele><time>2026-05-03T15:29:16Z</time></trkpt><trkpt lat="44.869954475063984" lon="10.209924248251431"><ele>45.0</ele><time>2026-05-03T15:29:17Z</time></trkpt><trkpt lat="44.86998676294268" lon="10.20972488939473"><ele>45.0</ele><time>2026-05-03T15:29:18Z</time></trkpt><trkpt lat="44.87002016672076" lon="10.209528586476532"><ele>45.0</ele><time>2026-05-03T15:29:19Z</time></trkpt><trkpt lat="44.87005127681159" lon="10.20933453363167"><ele>45.0</ele><time>2026-05-03T15:29:20Z</time></trkpt><trkpt lat="44.87008495990261" lon="10.209142477749104"><ele>45.0</ele><time>2026-05-03T15:29:21Z</time></trkpt><trkpt lat="44.870116127089275" lon="10.208952157359928"><ele>45.0</ele><time>2026-05-03T15:29:22Z</time></trkpt><trkpt lat="44.87014982477649" lon="10.208758306845516"><ele>45.0</ele><time>2026-05-03T15:29:23Z</time></trkpt><trkpt lat="44.87018130743144" lon="10.208566995864324"><ele>45.0</ele><time>2026-05-03T15:29:24Z</time></trkpt><trkpt lat="44.870214138085096" lon="10.208376741880528"><ele>45.0</ele><time>2026-05-03T15:29:25Z</time></trkpt><trkpt lat="44.87024577894096" lon="10.2081901518175"><ele>45.0</ele><time>2026-05-03T15:29:26Z</time></trkpt><trkpt lat="44.87027765964642" lon="10.208003607604704"><ele>45.0</ele><time>2026-05-03T15:29:27Z</time></trkpt><trkpt lat="44.87030955418813" lon="10.207819923949703"><ele>45.0</ele><time>2026-05-03T15:29:28Z</time></trkpt><trkpt lat="44.870342689380166" lon="10.207636889754344"><ele>45.0</ele><time>2026-05-03T15:29:29Z</time></trkpt><trkpt lat="44.87037405352626" lon="10.207455085387648"><ele>45.0</ele><time>2026-05-03T15:29:30Z</time></trkpt><trkpt lat="44.870402228998465" lon="10.207278229738145"><ele>45.25</ele><time>2026-05-03T15:29:31Z</time></trkpt><trkpt lat="44.87043070809924" lon="10.207110694097018"><ele>45.5</ele><time>2026-05-03T15:29:32Z</time></trkpt><trkpt lat="44.870455874092855" lon="10.206953395583497"><ele>45.75</ele><time>2026-05-03T15:29:33Z</time></trkpt><trkpt lat="44.87048345627186" lon="10.206787439699568"><ele>46.0</ele><time>2026-05-03T15:29:34Z</time></trkpt><trkpt lat="44.870514305366214" lon="10.206613904830284"><ele>45.25</ele><time>2026-05-03T15:29:35Z</time></trkpt><trkpt lat="44.87054475717596" lon="10.206437355963626"><ele>44.5</ele><time>2026-05-03T15:29:36Z</time></trkpt><trkpt lat="44.870575370070355" lon="10.206255308089709"><ele>43.75</ele><time>2026-05-03T15:29:37Z</time></trkpt><trkpt lat="44.87060683028776" lon="10.206071664034113"><ele>43.0</ele><time>2026-05-03T15:29:38Z</time></trkpt><trkpt lat="44.870641281945886" lon="10.205881872993976"><ele>43.0</ele><time>2026-05-03T15:29:39Z</time></trkpt><trkpt lat="44.87067355228618" lon="10.205692027593935"><ele>43.0</ele><time>2026-05-03T15:29:40Z</time></trkpt><trkpt lat="44.870705868547596" lon="10.205497690342916"><ele>43.0</ele><time>2026-05-03T15:29:41Z</time></trkpt><trkpt lat="44.87073743116391" lon="10.205302089417891"><ele>43.0</ele><time>2026-05-03T15:29:42Z</time></trkpt><trkpt lat="44.870772259673515" lon="10.205103617075887"><ele>43.0</ele><time>2026-05-03T15:29:43Z</time></trkpt><trkpt lat="44.87080897805794" lon="10.204903843987104"><ele>43.0</ele><time>2026-05-03T15:29:44Z</time></trkpt><trkpt lat="44.87084100760088" lon="10.204702679306195"><ele>43.0</ele><time>2026-05-03T15:29:45Z</time></trkpt><trkpt lat="44.87087473569738" lon="10.204501213918899"><ele>43.0</ele><time>2026-05-03T15:29:46Z</time></trkpt><trkpt lat="44.870911596844245" lon="10.204295834887013"><ele>43.0</ele><time>2026-05-03T15:29:47Z</time></trkpt><trkpt lat="44.87094695354554" lon="10.204081417690482"><ele>43.0</ele><time>2026-05-03T15:29:48Z</time></trkpt><trkpt lat="44.87098209126903" lon="10.20386103269719"><ele>43.0</ele><time>2026-05-03T15:29:49Z</time></trkpt><trkpt lat="44.87101878516498" lon="10.203642563526547"><ele>43.25</ele><time>2026-05-03T15:29:50Z</time></trkpt><trkpt lat="44.87105438145664" lon="10.203433055980074"><ele>43.5</ele><time>2026-05-03T15:29:51Z</time></trkpt><trkpt lat="44.871088189536266" lon="10.203229615633056"><ele>43.75</ele><time>2026-05-03T15:29:52Z</time></trkpt><trkpt lat="44.87112176549221" lon="10.203030469696401"><ele>44.0</ele><time>2026-05-03T15:29:53Z</time></trkpt><trkpt lat="44.87115598557875" lon="10.202825885706494"><ele>44.0</ele><time>2026-05-03T15:29:54Z</time></trkpt><trkpt lat="44.871190934729626" lon="10.202621355364656"><ele>44.0</ele><time>2026-05-03T15:29:55Z</time></trkpt><trkpt lat="44.8712259418647" lon="10.202412265113628"><ele>44.0</ele><time>2026-05-03T15:29:56Z</time></trkpt><trkpt lat="44.87126224530805" lon="10.202201046745756"><ele>44.0</ele><time>2026-05-03T15:29:57Z</time></trkpt><trkpt lat="44.871299064429195" lon="10.201992064318349"><ele>44.0</ele><time>2026-05-03T15:29:58Z</time></trkpt><trkpt lat="44.871336341633246" lon="10.201779596688056"><ele>44.0</ele><time>2026-05-03T15:29:59Z</time></trkpt><trkpt lat="44.87137125307521" lon="10.201570565196088"><ele>44.33333333333333</ele><time>2026-05-03T15:30:00Z</time></trkpt><trkpt lat="44.87140690624465" lon="10.20135852815101"><ele>44.666666666666664</ele><time>2026-05-03T15:30:01Z</time></trkpt><trkpt lat="44.87144096357215" lon="10.201148835016232"><ele>45.0</ele><time>2026-05-03T15:30:02Z</time></trkpt><trkpt lat="44.871475964282205" lon="10.200940384342928"><ele>45.0</ele><time>2026-05-03T15:30:03Z</time></trkpt><trkpt lat="44.87151049027337" lon="10.200738342476283"><ele>45.0</ele><time>2026-05-03T15:30:04Z</time></trkpt><trkpt lat="44.87154404121623" lon="10.200540160653286"><ele>45.0</ele><time>2026-05-03T15:30:05Z</time></trkpt><trkpt lat="44.87157685688677" lon="10.200344406893283"><ele>45.0</ele><time>2026-05-03T15:30:06Z</time></trkpt><trkpt lat="44.8716101835868" lon="10.200150145740738"><ele>45.0</ele><time>2026-05-03T15:30:07Z</time></trkpt><trkpt lat="44.87164273331092" lon="10.199958770521247"><ele>45.0</ele><time>2026-05-03T15:30:08Z</time></trkpt><trkpt lat="44.87167276921577" lon="10.199779421531122"><ele>45.0</ele><time>2026-05-03T15:30:09Z</time></trkpt><trkpt lat="44.871700309167394" lon="10.199613697272932"><ele>45.0</ele><time>2026-05-03T15:30:10Z</time></trkpt><trkpt lat="44.87172710488303" lon="10.199459454895965"><ele>45.0</ele><time>2026-05-03T15:30:11Z</time></trkpt><trkpt lat="44.87175239605019" lon="10.199313527510991"><ele>45.0</ele><time>2026-05-03T15:30:12Z</time></trkpt><trkpt lat="44.871777468716886" lon="10.199166888679876"><ele>45.0</ele><time>2026-05-03T15:30:13Z</time></trkpt><trkpt lat="44.87180381311557" lon="10.199008473261504"><ele>45.0</ele><time>2026-05-03T15:30:14Z</time></trkpt><trkpt lat="44.87183207991213" lon="10.198842413459094"><ele>44.75</ele><time>2026-05-03T15:30:15Z</time></trkpt><trkpt lat="44.871861052164064" lon="10.198670426246387"><ele>44.5</ele><time>2026-05-03T15:30:16Z</time></trkpt><trkpt lat="44.87189104355589" lon="10.198492565591296"><ele>44.25</ele><time>2026-05-03T15:30:17Z</time></trkpt><trkpt lat="44.8719237033248" lon="10.198309723555512"><ele>44.0</ele><time>2026-05-03T15:30:18Z</time></trkpt><trkpt lat="44.87195600668633" lon="10.198120526660993"><ele>44.0</ele><time>2026-05-03T15:30:19Z</time></trkpt><trkpt lat="44.87198914463953" lon="10.197924991580862"><ele>44.0</ele><time>2026-05-03T15:30:20Z</time></trkpt><trkpt lat="44.87202245875246" lon="10.19772211164226"><ele>44.0</ele><time>2026-05-03T15:30:21Z</time></trkpt><trkpt lat="44.87205711819197" lon="10.197516841574974"><ele>44.0</ele><time>2026-05-03T15:30:22Z</time></trkpt><trkpt lat="44.87209116015412" lon="10.19731182275742"><ele>44.0</ele><time>2026-05-03T15:30:23Z</time></trkpt><trkpt lat="44.87212621965899" lon="10.197104518903544"><ele>44.0</ele><time>2026-05-03T15:30:24Z</time></trkpt><trkpt lat="44.872161808878495" lon="10.196894183901348"><ele>44.0</ele><time>2026-05-03T15:30:25Z</time></trkpt><trkpt lat="44.87219869533747" lon="10.196691844591683"><ele>43.666666666666664</ele><time>2026-05-03T15:30:26Z</time></trkpt><trkpt lat="44.87223514695918" lon="10.196484818178595"><ele>43.333333333333336</ele><time>2026-05-03T15:30:27Z</time></trkpt><trkpt lat="44.872270407795135" lon="10.196278508266602"><ele>43.0</ele><time>2026-05-03T15:30:28Z</time></trkpt><trkpt lat="44.87230451298664" lon="10.19606545676409"><ele>43.0</ele><time>2026-05-03T15:30:29Z</time></trkpt><trkpt lat="44.872344463929686" lon="10.195870765552023"><ele>43.0</ele><time>2026-05-03T15:30:30Z</time></trkpt><trkpt lat="44.87237425609829" lon="10.195661186223072"><ele>43.0</ele><time>2026-05-03T15:30:31Z</time></trkpt><trkpt lat="44.8724113160924" lon="10.195453429048916"><ele>43.0</ele><time>2026-05-03T15:30:32Z</time></trkpt><trkpt lat="44.872443607685554" lon="10.195253352396417"><ele>43.25</ele><time>2026-05-03T15:30:33Z</time></trkpt><trkpt lat="44.87247803210564" lon="10.195053690459662"><ele>43.5</ele><time>2026-05-03T15:30:34Z</time></trkpt><trkpt lat="44.87251200120621" lon="10.194853099568794"><ele>43.75</ele><time>2026-05-03T15:30:35Z</time></trkpt><trkpt lat="44.87254729923406" lon="10.194646854372461"><ele>44.0</ele><time>2026-05-03T15:30:36Z</time></trkpt><trkpt lat="44.87258165063274" lon="10.194438329681551"><ele>44.0</ele><time>2026-05-03T15:30:37Z</time></trkpt><trkpt lat="44.872617579929354" lon="10.19422712770209"><ele>44.0</ele><time>2026-05-03T15:30:38Z</time></trkpt><trkpt lat="44.87265390784637" lon="10.194013870855505"><ele>44.0</ele><time>2026-05-03T15:30:39Z</time></trkpt><trkpt lat="44.87268861077782" lon="10.1938060105317"><ele>43.33333333333333</ele><time>2026-05-03T15:30:40Z</time></trkpt><trkpt lat="44.87272387539492" lon="10.19359330422284"><ele>42.666666666666664</ele><time>2026-05-03T15:30:41Z</time></trkpt><trkpt lat="44.87275972061581" lon="10.19338280467336"><ele>42.0</ele><time>2026-05-03T15:30:42Z</time></trkpt><trkpt lat="44.87279548017552" lon="10.19316849489028"><ele>42.0</ele><time>2026-05-03T15:30:43Z</time></trkpt><trkpt lat="44.87283195929933" lon="10.192956199414887"><ele>42.0</ele><time>2026-05-03T15:30:44Z</time></trkpt><trkpt lat="44.87286782602831" lon="10.19274300425449"><ele>42.0</ele><time>2026-05-03T15:30:45Z</time></trkpt><trkpt lat="44.87290390197049" lon="10.192540987843008"><ele>42.25</ele><time>2026-05-03T15:30:46Z</time></trkpt><trkpt lat="44.87294008913194" lon="10.19233418419408"><ele>42.5</ele><time>2026-05-03T15:30:47Z</time></trkpt><trkpt lat="44.87297339342565" lon="10.192133298329312"><ele>42.75</ele><time>2026-05-03T15:30:48Z</time></trkpt><trkpt lat="44.87300893108803" lon="10.19192586840254"><ele>43.0</ele><time>2026-05-03T15:30:49Z</time></trkpt><trkpt lat="44.87304365356421" lon="10.191716570340704"><ele>43.0</ele><time>2026-05-03T15:30:50Z</time></trkpt><trkpt lat="44.873077096400124" lon="10.191514590340855"><ele>43.0</ele><time>2026-05-03T15:30:51Z</time></trkpt><trkpt lat="44.87310766285675" lon="10.191325205050878"><ele>43.0</ele><time>2026-05-03T15:30:52Z</time></trkpt><trkpt lat="44.87313534642839" lon="10.19114605092098"><ele>43.0</ele><time>2026-05-03T15:30:53Z</time></trkpt><trkpt lat="44.873161446427986" lon="10.190977748280002"><ele>43.2</ele><time>2026-05-03T15:30:54Z</time></trkpt><trkpt lat="44.87318699444965" lon="10.1908207316934"><ele>43.4</ele><time>2026-05-03T15:30:55Z</time></trkpt><trkpt lat="44.873207783651836" lon="10.190681158176517"><ele>43.6</ele><time>2026-05-03T15:30:56Z</time></trkpt><trkpt lat="44.873218924942655" lon="10.190551994360582"><ele>43.800000000000004</ele><time>2026-05-03T15:30:57Z</time></trkpt><trkpt lat="44.87322187578626" lon="10.1904353161847"><ele>44.0</ele><time>2026-05-03T15:30:58Z</time></trkpt><trkpt lat="44.873229228818346" lon="10.190329706156717"><ele>44.166666666666664</ele><time>2026-05-03T15:30:59Z</time></trkpt><trkpt lat="44.87324232210375" lon="10.19022517826932"><ele>44.33333333333333</ele><time>2026-05-03T15:31:00Z</time></trkpt><trkpt lat="44.87326270957458" lon="10.190119456609198"><ele>44.5</ele><time>2026-05-03T15:31:01Z</time></trkpt><trkpt lat="44.87328318605771" lon="10.190012684332856"><ele>44.666666666666664</ele><time>2026-05-03T15:31:02Z</time></trkpt><trkpt lat="44.87330020287344" lon="10.189913009140978"><ele>44.833333333333336</ele><time>2026-05-03T15:31:03Z</time></trkpt><trkpt lat="44.87331850051634" lon="10.189806615570154"><ele>45.0</ele><time>2026-05-03T15:31:04Z</time></trkpt><trkpt lat="44.87333634885272" lon="10.189700126715012"><ele>45.166666666666664</ele><time>2026-05-03T15:31:05Z</time></trkpt><trkpt lat="44.87335376119951" lon="10.189593794906608"><ele>45.333333333333336</ele><time>2026-05-03T15:31:06Z</time></trkpt><trkpt lat="44.87337407263765" lon="10.18948988026674"><ele>45.5</ele><time>2026-05-03T15:31:07Z</time></trkpt><trkpt lat="44.873388384956876" lon="10.189380430238696"><ele>45.66666666666667</ele><time>2026-05-03T15:31:08Z</time></trkpt><trkpt lat="44.873403171768395" lon="10.189270469255344"><ele>45.833333333333336</ele><time>2026-05-03T15:31:09Z</time></trkpt><trkpt lat="44.87342261680921" lon="10.189164420958159"><ele>46.0</ele><time>2026-05-03T15:31:10Z</time></trkpt><trkpt lat="44.87344668823897" lon="10.18905518125969"><ele>45.66666666666667</ele><time>2026-05-03T15:31:11Z</time></trkpt><trkpt lat="44.873468620937594" lon="10.188948188487622"><ele>45.333333333333336</ele><time>2026-05-03T15:31:12Z</time></trkpt><trkpt lat="44.87348674744175" lon="10.188838063229417"><ele>45.0</ele><time>2026-05-03T15:31:13Z</time></trkpt><trkpt lat="44.8735050735784" lon="10.188729267854871"><ele>44.666666666666664</ele><time>2026-05-03T15:31:14Z</time></trkpt><trkpt lat="44.87352276868537" lon="10.188619805181148"><ele>44.33333333333333</ele><time>2026-05-03T15:31:15Z</time></trkpt><trkpt lat="44.87354102901153" lon="10.188512881915905"><ele>44.0</ele><time>2026-05-03T15:31:16Z</time></trkpt><trkpt lat="44.87355901208412" lon="10.188406927667351"><ele>44.0</ele><time>2026-05-03T15:31:17Z</time></trkpt><trkpt lat="44.87357623041029" lon="10.188303656095338"><ele>44.0</ele><time>2026-05-03T15:31:18Z</time></trkpt><trkpt lat="44.87359327527069" lon="10.188202557232334"><ele>44.0</ele><time>2026-05-03T15:31:19Z</time></trkpt><trkpt lat="44.87361032028312" lon="10.18810061024314"><ele>44.0</ele><time>2026-05-03T15:31:20Z</time></trkpt><trkpt lat="44.87362604999525" lon="10.18800212772223"><ele>44.0</ele><time>2026-05-03T15:31:21Z</time></trkpt><trkpt lat="44.87364207359013" lon="10.187902327697287"><ele>44.0</ele><time>2026-05-03T15:31:22Z</time></trkpt><trkpt lat="44.873658821551544" lon="10.187802364104996"><ele>44.0</ele><time>2026-05-03T15:31:23Z</time></trkpt><trkpt lat="44.87367335735608" lon="10.18770688225664"><ele>44.0</ele><time>2026-05-03T15:31:24Z</time></trkpt><trkpt lat="44.87368832325834" lon="10.187613176469444"><ele>44.0</ele><time>2026-05-03T15:31:25Z</time></trkpt><trkpt lat="44.87370335626844" lon="10.187521250365343"><ele>44.0</ele><time>2026-05-03T15:31:26Z</time></trkpt><trkpt lat="44.87371968834734" lon="10.187431997195317"><ele>44.0</ele><time>2026-05-03T15:31:27Z</time></trkpt><trkpt lat="44.87375301923572" lon="10.187277170432996"><ele>44.0</ele><time>2026-05-03T15:31:29Z</time></trkpt><trkpt lat="44.87378597315514" lon="10.187160849886858"><ele>44.0</ele><time>2026-05-03T15:31:30.999Z</time></trkpt><trkpt lat="44.873818761246724" lon="10.187037778393528"><ele>44.0</ele><time>2026-05-03T15:31:33.999Z</time></trkpt><trkpt lat="44.873854141984104" lon="10.18689221720953"><ele>44.0</ele><time>2026-05-03T15:31:35.999Z</time></trkpt><trkpt lat="44.8738756896816" lon="10.186785984136776"><ele>44.0</ele><time>2026-05-03T15:31:36.999Z</time></trkpt><trkpt lat="44.87389881412461" lon="10.186669251923721"><ele>44.0</ele><time>2026-05-03T15:31:37.999Z</time></trkpt><trkpt lat="44.873923658012025" lon="10.18653112723957"><ele>44.0</ele><time>2026-05-03T15:31:38.999Z</time></trkpt><trkpt lat="44.873947377763926" lon="10.186374676032493"><ele>43.75</ele><time>2026-05-03T15:31:39.999Z</time></trkpt><trkpt lat="44.873975169090045" lon="10.18620644339199"><ele>43.5</ele><time>2026-05-03T15:31:40.999Z</time></trkpt><trkpt lat="44.87400638034731" lon="10.186027774846997"><ele>43.25</ele><time>2026-05-03T15:31:42Z</time></trkpt><trkpt lat="44.8740384024612" lon="10.18583582075907"><ele>43.0</ele><time>2026-05-03T15:31:43Z</time></trkpt><trkpt lat="44.87407254767192" lon="10.18563474879348"><ele>42.66666666666667</ele><time>2026-05-03T15:31:44Z</time></trkpt><trkpt lat="44.87410994002332" lon="10.185415478918646"><ele>42.333333333333336</ele><time>2026-05-03T15:31:45Z</time></trkpt><trkpt lat="44.87414905132787" lon="10.185184188308533"><ele>42.0</ele><time>2026-05-03T15:31:46Z</time></trkpt><trkpt lat="44.87418771006203" lon="10.18495205973172"><ele>42.666666666666664</ele><time>2026-05-03T15:31:47Z</time></trkpt><trkpt lat="44.874227709380165" lon="10.184710291624238"><ele>43.33333333333333</ele><time>2026-05-03T15:31:48Z</time></trkpt><trkpt lat="44.874267406790715" lon="10.184472240464862"><ele>44.0</ele><time>2026-05-03T15:31:49Z</time></trkpt><trkpt lat="44.87430801558404" lon="10.184233268404586"><ele>43.666666666666664</ele><time>2026-05-03T15:31:50Z</time></trkpt><trkpt lat="44.874354270758516" lon="10.1839609043977"><ele>43.333333333333336</ele><time>2026-05-03T15:31:51Z</time></trkpt><trkpt lat="44.874396998881366" lon="10.183707001688571"><ele>43.0</ele><time>2026-05-03T15:31:52Z</time></trkpt><trkpt lat="44.874440456382025" lon="10.183458616336363"><ele>43.0</ele><time>2026-05-03T15:31:53Z</time></trkpt><trkpt lat="44.874483338999255" lon="10.18321130728751"><ele>43.0</ele><time>2026-05-03T15:31:54Z</time></trkpt><trkpt lat="44.87452544161207" lon="10.182967531051993"><ele>43.0</ele><time>2026-05-03T15:31:55Z</time></trkpt><trkpt lat="44.87456723346052" lon="10.18272525149393"><ele>43.0</ele><time>2026-05-03T15:31:56Z</time></trkpt><trkpt lat="44.87460874111972" lon="10.182485004312003"><ele>43.0</ele><time>2026-05-03T15:31:57Z</time></trkpt><trkpt lat="44.87464951838223" lon="10.182246677780457"><ele>43.0</ele><time>2026-05-03T15:31:58Z</time></trkpt><trkpt lat="44.87468949810241" lon="10.182008276827226"><ele>43.0</ele><time>2026-05-03T15:31:59Z</time></trkpt><trkpt lat="44.87472940786173" lon="10.181769840344238"><ele>43.0</ele><time>2026-05-03T15:32:00Z</time></trkpt><trkpt lat="44.87476897489202" lon="10.181530290023057"><ele>43.0</ele><time>2026-05-03T15:32:01Z</time></trkpt><trkpt lat="44.87480890177908" lon="10.181292649671146"><ele>43.0</ele><time>2026-05-03T15:32:02Z</time></trkpt><trkpt lat="44.874849571690454" lon="10.181055000390748"><ele>43.0</ele><time>2026-05-03T15:32:03Z</time></trkpt><trkpt lat="44.87489084254367" lon="10.180815936258927"><ele>43.0</ele><time>2026-05-03T15:32:04Z</time></trkpt><trkpt lat="44.87493107868002" lon="10.180578943429754"><ele>43.333333333333336</ele><time>2026-05-03T15:32:05Z</time></trkpt><trkpt lat="44.87497235605158" lon="10.180338987803236"><ele>43.666666666666664</ele><time>2026-05-03T15:32:06Z</time></trkpt><trkpt lat="44.875013225727116" lon="10.180098660986221"><ele>44.0</ele><time>2026-05-03T15:32:07Z</time></trkpt><trkpt lat="44.875052740941484" lon="10.179856842376148"><ele>43.666666666666664</ele><time>2026-05-03T15:32:08Z</time></trkpt><trkpt lat="44.87509298415896" lon="10.179615658639339"><ele>43.333333333333336</ele><time>2026-05-03T15:32:09Z</time></trkpt><trkpt lat="44.87513303289817" lon="10.179374975197181"><ele>43.0</ele><time>2026-05-03T15:32:10Z</time></trkpt><trkpt lat="44.87517283583932" lon="10.179133856783722"><ele>43.333333333333336</ele><time>2026-05-03T15:32:11Z</time></trkpt><trkpt lat="44.87521328652185" lon="10.178893581683557"><ele>43.666666666666664</ele><time>2026-05-03T15:32:12Z</time></trkpt><trkpt lat="44.875254351879406" lon="10.178653590659057"><ele>44.0</ele><time>2026-05-03T15:32:13Z</time></trkpt><trkpt lat="44.87529725001013" lon="10.178410891186568"><ele>44.0</ele><time>2026-05-03T15:32:14Z</time></trkpt><trkpt lat="44.87533909090938" lon="10.178169356867478"><ele>44.0</ele><time>2026-05-03T15:32:15Z</time></trkpt><trkpt lat="44.87538013711929" lon="10.177922230510154"><ele>44.0</ele><time>2026-05-03T15:32:16Z</time></trkpt><trkpt lat="44.87542178460646" lon="10.177673961690736"><ele>44.0</ele><time>2026-05-03T15:32:17Z</time></trkpt><trkpt lat="44.875463541808664" lon="10.177422593102701"><ele>44.0</ele><time>2026-05-03T15:32:18Z</time></trkpt><trkpt lat="44.87550603908721" lon="10.17717119419653"><ele>44.0</ele><time>2026-05-03T15:32:19Z</time></trkpt><trkpt lat="44.87554853325509" lon="10.17691893033155"><ele>44.0</ele><time>2026-05-03T15:32:20Z</time></trkpt><trkpt lat="44.87559101225046" lon="10.176666318403116"><ele>44.0</ele><time>2026-05-03T15:32:21Z</time></trkpt><trkpt lat="44.8756330816724" lon="10.176416034257473"><ele>44.0</ele><time>2026-05-03T15:32:22Z</time></trkpt><trkpt lat="44.87567652297311" lon="10.17616586430321"><ele>44.33333333333333</ele><time>2026-05-03T15:32:23Z</time></trkpt><trkpt lat="44.87571963253271" lon="10.17591462691392"><ele>44.666666666666664</ele><time>2026-05-03T15:32:24Z</time></trkpt><trkpt lat="44.875758948621545" lon="10.175669920571135"><ele>45.0</ele><time>2026-05-03T15:32:25Z</time></trkpt><trkpt lat="44.87579904797667" lon="10.175427414245014"><ele>45.0</ele><time>2026-05-03T15:32:26Z</time></trkpt><trkpt lat="44.87583987772978" lon="10.175185135249222"><ele>45.0</ele><time>2026-05-03T15:32:27Z</time></trkpt><trkpt lat="44.87588132253994" lon="10.174943350519005"><ele>45.0</ele><time>2026-05-03T15:32:28Z</time></trkpt><trkpt lat="44.875922330934195" lon="10.174705606231564"><ele>45.0</ele><time>2026-05-03T15:32:29Z</time></trkpt><trkpt lat="44.8759651329258" lon="10.174469515787157"><ele>45.0</ele><time>2026-05-03T15:32:30Z</time></trkpt><trkpt lat="44.876006045369955" lon="10.174231690347309"><ele>45.0</ele><time>2026-05-03T15:32:31Z</time></trkpt><trkpt lat="44.87604510111679" lon="10.173991765874835"><ele>46.0</ele><time>2026-05-03T15:32:32Z</time></trkpt><trkpt lat="44.87608465053167" lon="10.173753794502794"><ele>47.0</ele><time>2026-05-03T15:32:33Z</time></trkpt><trkpt lat="44.876124885667295" lon="10.173514881441932"><ele>48.0</ele><time>2026-05-03T15:32:34Z</time></trkpt><trkpt lat="44.87616496996058" lon="10.173277865165714"><ele>48.0</ele><time>2026-05-03T15:32:35Z</time></trkpt><trkpt lat="44.8762049205289" lon="10.173040571652246"><ele>48.0</ele><time>2026-05-03T15:32:36Z</time></trkpt><trkpt lat="44.876243989807875" lon="10.172804399671667"><ele>48.0</ele><time>2026-05-03T15:32:37Z</time></trkpt><trkpt lat="44.87628295861399" lon="10.172570291999916"><ele>47.666666666666664</ele><time>2026-05-03T15:32:38Z</time></trkpt><trkpt lat="44.876321292347136" lon="10.172338919407853"><ele>47.33333333333333</ele><time>2026-05-03T15:32:39Z</time></trkpt><trkpt lat="44.87636101052986" lon="10.172109762551456"><ele>47.0</ele><time>2026-05-03T15:32:40Z</time></trkpt><trkpt lat="44.87639958170004" lon="10.171880661705337"><ele>47.0</ele><time>2026-05-03T15:32:41Z</time></trkpt><trkpt lat="44.87643894963007" lon="10.171647581998936"><ele>47.0</ele><time>2026-05-03T15:32:42Z</time></trkpt><trkpt lat="44.87647614426776" lon="10.171416169366243"><ele>47.0</ele><time>2026-05-03T15:32:43Z</time></trkpt><trkpt lat="44.87651589626148" lon="10.171183911594255"><ele>46.666666666666664</ele><time>2026-05-03T15:32:44Z</time></trkpt><trkpt lat="44.876555863256016" lon="10.170947246626818"><ele>46.333333333333336</ele><time>2026-05-03T15:32:45Z</time></trkpt><trkpt lat="44.87659718497352" lon="10.170706591656248"><ele>46.0</ele><time>2026-05-03T15:32:46Z</time></trkpt><trkpt lat="44.87663947254031" lon="10.170461568984337"><ele>47.0</ele><time>2026-05-03T15:32:47Z</time></trkpt><trkpt lat="44.87668148689271" lon="10.1702094452312"><ele>48.0</ele><time>2026-05-03T15:32:48Z</time></trkpt><trkpt lat="44.87672442685718" lon="10.169952945733993"><ele>49.0</ele><time>2026-05-03T15:32:49Z</time></trkpt><trkpt lat="44.87676757619723" lon="10.169693630137592"><ele>49.666666666666664</ele><time>2026-05-03T15:32:50Z</time></trkpt><trkpt lat="44.876814353274554" lon="10.169428934546792"><ele>50.33333333333333</ele><time>2026-05-03T15:32:51Z</time></trkpt><trkpt lat="44.876860080749076" lon="10.169160883095763"><ele>51.0</ele><time>2026-05-03T15:32:52Z</time></trkpt><trkpt lat="44.87690550274762" lon="10.168889825305632"><ele>51.0</ele><time>2026-05-03T15:32:53Z</time></trkpt><trkpt lat="44.876951144854246" lon="10.168618475969627"><ele>51.0</ele><time>2026-05-03T15:32:54Z</time></trkpt><trkpt lat="44.87699665985564" lon="10.168348471543608"><ele>51.0</ele><time>2026-05-03T15:32:55Z</time></trkpt><trkpt lat="44.877044391303784" lon="10.168069943683333"><ele>49.666666666666664</ele><time>2026-05-03T15:32:56Z</time></trkpt><trkpt lat="44.877087011138016" lon="10.167804616536673"><ele>48.33333333333333</ele><time>2026-05-03T15:32:57Z</time></trkpt><trkpt lat="44.877122785625495" lon="10.167554592483064"><ele>47.0</ele><time>2026-05-03T15:32:58Z</time></trkpt><trkpt lat="44.87718216822975" lon="10.167251580221736"><ele>46.666666666666664</ele><time>2026-05-03T15:32:59Z</time></trkpt><trkpt lat="44.87722259459379" lon="10.166983406439059"><ele>46.333333333333336</ele><time>2026-05-03T15:33:00Z</time></trkpt><trkpt lat="44.87727107618262" lon="10.1667203882492"><ele>46.0</ele><time>2026-05-03T15:33:01Z</time></trkpt><trkpt lat="44.87731802566609" lon="10.166454611299729"><ele>46.0</ele><time>2026-05-03T15:33:02Z</time></trkpt><trkpt lat="44.87736064872973" lon="10.166194007275887"><ele>46.0</ele><time>2026-05-03T15:33:03Z</time></trkpt><trkpt lat="44.87740416968995" lon="10.165939251616177"><ele>46.0</ele><time>2026-05-03T15:33:04Z</time></trkpt><trkpt lat="44.877448649428416" lon="10.16567957594114"><ele>46.0</ele><time>2026-05-03T15:33:05Z</time></trkpt><trkpt lat="44.87749139056843" lon="10.165434285439463"><ele>46.0</ele><time>2026-05-03T15:33:06Z</time></trkpt><trkpt lat="44.87753333365173" lon="10.165188522202243"><ele>46.0</ele><time>2026-05-03T15:33:07Z</time></trkpt><trkpt lat="44.877572432843316" lon="10.164955152250021"><ele>45.66666666666667</ele><time>2026-05-03T15:33:08Z</time></trkpt><trkpt lat="44.87761257357607" lon="10.164727378304393"><ele>45.333333333333336</ele><time>2026-05-03T15:33:09Z</time></trkpt><trkpt lat="44.87765045244275" lon="10.164509244456468"><ele>45.0</ele><time>2026-05-03T15:33:10Z</time></trkpt><trkpt lat="44.87768180221862" lon="10.164312197111371"><ele>45.0</ele><time>2026-05-03T15:33:10.999Z</time></trkpt><trkpt lat="44.8777138285723" lon="10.16413669763449"><ele>45.0</ele><time>2026-05-03T15:33:11.999Z</time></trkpt><trkpt lat="44.87774113063944" lon="10.16396718851618"><ele>45.0</ele><time>2026-05-03T15:33:12.999Z</time></trkpt><trkpt lat="44.87777202546476" lon="10.163785464960753"><ele>45.0</ele><time>2026-05-03T15:33:13.999Z</time></trkpt><trkpt lat="44.877804316140946" lon="10.163595690154713"><ele>45.666666666666664</ele><time>2026-05-03T15:33:14.999Z</time></trkpt><trkpt lat="44.877836740676415" lon="10.163398107763365"><ele>46.33333333333333</ele><time>2026-05-03T15:33:15.999Z</time></trkpt><trkpt lat="44.87787013134838" lon="10.163188360740667"><ele>47.0</ele><time>2026-05-03T15:33:16.999Z</time></trkpt><trkpt lat="44.877903006991666" lon="10.162958736841354"><ele>47.33333333333333</ele><time>2026-05-03T15:33:17.999Z</time></trkpt><trkpt lat="44.87793023437517" lon="10.162710787501648"><ele>47.666666666666664</ele><time>2026-05-03T15:33:18.999Z</time></trkpt><trkpt lat="44.87797517497759" lon="10.162446986092746"><ele>48.0</ele><time>2026-05-03T15:33:19.999Z</time></trkpt><trkpt lat="44.87802233096336" lon="10.162181086273472"><ele>47.666666666666664</ele><time>2026-05-03T15:33:20.999Z</time></trkpt><trkpt lat="44.87806699364416" lon="10.161902623802408"><ele>47.33333333333333</ele><time>2026-05-03T15:33:21.999Z</time></trkpt><trkpt lat="44.878110319945336" lon="10.161624647631312"><ele>47.0</ele><time>2026-05-03T15:33:22.999Z</time></trkpt><trkpt lat="44.87815894674477" lon="10.161336439397896"><ele>47.0</ele><time>2026-05-03T15:33:23.999Z</time></trkpt><trkpt lat="44.87820762637145" lon="10.161043373870598"><ele>47.0</ele><time>2026-05-03T15:33:24.999Z</time></trkpt><trkpt lat="44.878257793018435" lon="10.16074371876886"><ele>47.0</ele><time>2026-05-03T15:33:25.999Z</time></trkpt><trkpt lat="44.87831052794581" lon="10.160443281840541"><ele>47.0</ele><time>2026-05-03T15:33:26.999Z</time></trkpt><trkpt lat="44.87836466918833" lon="10.16013654389635"><ele>47.0</ele><time>2026-05-03T15:33:27.999Z</time></trkpt><trkpt lat="44.87841630796878" lon="10.159828733959584"><ele>47.0</ele><time>2026-05-03T15:33:28.999Z</time></trkpt><trkpt lat="44.87846654633661" lon="10.15952353439081"><ele>47.0</ele><time>2026-05-03T15:33:29.999Z</time></trkpt><trkpt lat="44.8785189190898" lon="10.159219166067043"><ele>47.0</ele><time>2026-05-03T15:33:30.999Z</time></trkpt><trkpt lat="44.87857086869232" lon="10.158912166704596"><ele>47.0</ele><time>2026-05-03T15:33:31.999Z</time></trkpt><trkpt lat="44.87862228915939" lon="10.158605850541251"><ele>47.0</ele><time>2026-05-03T15:33:32.999Z</time></trkpt><trkpt lat="44.87867663704314" lon="10.158291089464717"><ele>47.0</ele><time>2026-05-03T15:33:33.999Z</time></trkpt><trkpt lat="44.8787299143685" lon="10.157979196320333"><ele>46.5</ele><time>2026-05-03T15:33:34.999Z</time></trkpt><trkpt lat="44.878782940011234" lon="10.157666942212016"><ele>46.0</ele><time>2026-05-03T15:33:35.999Z</time></trkpt><trkpt lat="44.87883673091858" lon="10.157347098142052"><ele>46.0</ele><time>2026-05-03T15:33:36.999Z</time></trkpt><trkpt lat="44.87888981211355" lon="10.157025492798274"><ele>46.0</ele><time>2026-05-03T15:33:37.999Z</time></trkpt><trkpt lat="44.87894315356693" lon="10.156703395570528"><ele>46.5</ele><time>2026-05-03T15:33:38.999Z</time></trkpt><trkpt lat="44.878997869701756" lon="10.156377969052024"><ele>47.0</ele><time>2026-05-03T15:33:39.999Z</time></trkpt><trkpt lat="44.879051691227495" lon="10.156056368482062"><ele>47.0</ele><time>2026-05-03T15:33:40.999Z</time></trkpt><trkpt lat="44.87910449092291" lon="10.15573595266828"><ele>47.0</ele><time>2026-05-03T15:33:41.999Z</time></trkpt><trkpt lat="44.87915862608229" lon="10.155418305416688"><ele>47.0</ele><time>2026-05-03T15:33:42.999Z</time></trkpt><trkpt lat="44.87921430048949" lon="10.155105256486683"><ele>47.0</ele><time>2026-05-03T15:33:43.999Z</time></trkpt><trkpt lat="44.879271623639895" lon="10.15479659322036"><ele>47.0</ele><time>2026-05-03T15:33:44.999Z</time></trkpt><trkpt lat="44.879325701412355" lon="10.154487819088798"><ele>47.0</ele><time>2026-05-03T15:33:45.999Z</time></trkpt><trkpt lat="44.87938139438148" lon="10.154195726671816"><ele>47.0</ele><time>2026-05-03T15:33:47Z</time></trkpt><trkpt lat="44.879434344494335" lon="10.153920767984205"><ele>46.666666666666664</ele><time>2026-05-03T15:33:48Z</time></trkpt><trkpt lat="44.87948251953584" lon="10.153658065594279"><ele>46.333333333333336</ele><time>2026-05-03T15:33:49Z</time></trkpt><trkpt lat="44.87952609208526" lon="10.153406992755949"><ele>46.0</ele><time>2026-05-03T15:33:50Z</time></trkpt><trkpt lat="44.87956607084593" lon="10.153162900049946"><ele>46.0</ele><time>2026-05-03T15:33:51Z</time></trkpt><trkpt lat="44.879607200826484" lon="10.152915331007144"><ele>46.0</ele><time>2026-05-03T15:33:52Z</time></trkpt><trkpt lat="44.87965052040758" lon="10.152661445441542"><ele>46.0</ele><time>2026-05-03T15:33:53Z</time></trkpt><trkpt lat="44.879694826022764" lon="10.152409165919353"><ele>46.333333333333336</ele><time>2026-05-03T15:33:54Z</time></trkpt><trkpt lat="44.87973830603381" lon="10.152157123609006"><ele>46.666666666666664</ele><time>2026-05-03T15:33:55Z</time></trkpt><trkpt lat="44.87977876349854" lon="10.151912057557734"><ele>47.0</ele><time>2026-05-03T15:33:56Z</time></trkpt><trkpt lat="44.87981725349039" lon="10.151679414523684"><ele>47.0</ele><time>2026-05-03T15:33:57Z</time></trkpt><trkpt lat="44.87985338459125" lon="10.151456678713945"><ele>47.0</ele><time>2026-05-03T15:33:58Z</time></trkpt><trkpt lat="44.879889770559004" lon="10.151233567642596"><ele>47.0</ele><time>2026-05-03T15:33:59Z</time></trkpt><trkpt lat="44.879927624562356" lon="10.151009613385996"><ele>47.0</ele><time>2026-05-03T15:34:00Z</time></trkpt><trkpt lat="44.87996518381595" lon="10.150790630121847"><ele>47.0</ele><time>2026-05-03T15:34:01Z</time></trkpt><trkpt lat="44.88000198891533" lon="10.150566039021745"><ele>47.0</ele><time>2026-05-03T15:34:02Z</time></trkpt><trkpt lat="44.88003986556913" lon="10.150339245117257"><ele>47.0</ele><time>2026-05-03T15:34:03Z</time></trkpt><trkpt lat="44.88007850909405" lon="10.15010811116347"><ele>47.0</ele><time>2026-05-03T15:34:04Z</time></trkpt><trkpt lat="44.88011913439132" lon="10.149876662848728"><ele>47.0</ele><time>2026-05-03T15:34:05Z</time></trkpt><trkpt lat="44.88015894380544" lon="10.149641434228956"><ele>47.33333333333333</ele><time>2026-05-03T15:34:06Z</time></trkpt><trkpt lat="44.88019835047755" lon="10.149407932229677"><ele>47.666666666666664</ele><time>2026-05-03T15:34:07Z</time></trkpt><trkpt lat="44.880237086389954" lon="10.149175668385315"><ele>48.0</ele><time>2026-05-03T15:34:08Z</time></trkpt><trkpt lat="44.88027561777644" lon="10.14894279655082"><ele>48.0</ele><time>2026-05-03T15:34:09Z</time></trkpt><trkpt lat="44.88031515010554" lon="10.148709337895474"><ele>48.0</ele><time>2026-05-03T15:34:10Z</time></trkpt><trkpt lat="44.8803553082229" lon="10.148476262936782"><ele>48.0</ele><time>2026-05-03T15:34:11Z</time></trkpt><trkpt lat="44.88039426199423" lon="10.148242836807144"><ele>48.0</ele><time>2026-05-03T15:34:12Z</time></trkpt><trkpt lat="44.880432749651426" lon="10.148012060673587"><ele>48.0</ele><time>2026-05-03T15:34:13Z</time></trkpt><trkpt lat="44.88047106717057" lon="10.14778286563117"><ele>48.0</ele><time>2026-05-03T15:34:14Z</time></trkpt><trkpt lat="44.88051030526999" lon="10.147553031796154"><ele>48.0</ele><time>2026-05-03T15:34:15Z</time></trkpt><trkpt lat="44.88054932699073" lon="10.147330080299323"><ele>48.0</ele><time>2026-05-03T15:34:16Z</time></trkpt><trkpt lat="44.88058748087852" lon="10.147110927552664"><ele>48.0</ele><time>2026-05-03T15:34:17Z</time></trkpt><trkpt lat="44.88062325789288" lon="10.14689173818909"><ele>48.0</ele><time>2026-05-03T15:34:18Z</time></trkpt><trkpt lat="44.88065872519491" lon="10.146675154426399"><ele>48.0</ele><time>2026-05-03T15:34:19Z</time></trkpt><trkpt lat="44.88069155616723" lon="10.146460016699963"><ele>48.0</ele><time>2026-05-03T15:34:20Z</time></trkpt><trkpt lat="44.880725126145094" lon="10.146251059167827"><ele>48.0</ele><time>2026-05-03T15:34:21Z</time></trkpt><trkpt lat="44.8807566315959" lon="10.146057801881742"><ele>48.0</ele><time>2026-05-03T15:34:22Z</time></trkpt><trkpt lat="44.8807832488512" lon="10.145878263610387"><ele>48.0</ele><time>2026-05-03T15:34:23Z</time></trkpt><trkpt lat="44.88080824778833" lon="10.145716123183577"><ele>48.0</ele><time>2026-05-03T15:34:24Z</time></trkpt><trkpt lat="44.88083170378938" lon="10.145566095804302"><ele>48.0</ele><time>2026-05-03T15:34:25Z</time></trkpt><trkpt lat="44.88085235669418" lon="10.145428593671092"><ele>48.0</ele><time>2026-05-03T15:34:26Z</time></trkpt><trkpt lat="44.880868682579745" lon="10.145322111449708"><ele>48.0</ele><time>2026-05-03T15:34:27Z</time></trkpt><trkpt lat="44.880869838743514" lon="10.14520451080216"><ele>48.0</ele><time>2026-05-03T15:34:29Z</time></trkpt><trkpt lat="44.88086751925516" lon="10.145099076780204"><ele>48.0</ele><time>2026-05-03T15:34:32Z</time></trkpt><trkpt lat="44.880884238283976" lon="10.144997628745099"><ele>48.0</ele><time>2026-05-03T15:34:35Z</time></trkpt><trkpt lat="44.88089855526579" lon="10.1449105049133"><ele>47.8</ele><time>2026-05-03T15:34:37Z</time></trkpt><trkpt lat="44.88093090036989" lon="10.144738349587685"><ele>47.599999999999994</ele><time>2026-05-03T15:34:40Z</time></trkpt><trkpt lat="44.88094821769475" lon="10.144627145623772"><ele>47.400000000000006</ele><time>2026-05-03T15:34:41Z</time></trkpt><trkpt lat="44.88097108603819" lon="10.14451977084743"><ele>47.2</ele><time>2026-05-03T15:34:42Z</time></trkpt><trkpt lat="44.880996901924604" lon="10.144427997775013"><ele>47.0</ele><time>2026-05-03T15:34:43Z</time></trkpt><trkpt lat="44.881042450586236" lon="10.144263850409496"><ele>47.0</ele><time>2026-05-03T15:34:45Z</time></trkpt><trkpt lat="44.881062186536006" lon="10.144159199970586"><ele>47.0</ele><time>2026-05-03T15:34:46Z</time></trkpt><trkpt lat="44.88107875694964" lon="10.144039209754832"><ele>47.0</ele><time>2026-05-03T15:34:47Z</time></trkpt><trkpt lat="44.88109378749506" lon="10.143914822537917"><ele>47.0</ele><time>2026-05-03T15:34:48Z</time></trkpt><trkpt lat="44.881108902391425" lon="10.143791882550373"><ele>47.0</ele><time>2026-05-03T15:34:49Z</time></trkpt><trkpt lat="44.881126924406836" lon="10.143662775916818"><ele>47.0</ele><time>2026-05-03T15:34:50Z</time></trkpt><trkpt lat="44.881147726637145" lon="10.143534320663889"><ele>47.0</ele><time>2026-05-03T15:34:51Z</time></trkpt><trkpt lat="44.88117024023324" lon="10.143407674014698"><ele>47.0</ele><time>2026-05-03T15:34:52Z</time></trkpt><trkpt lat="44.88119216470585" lon="10.143277468905419"><ele>47.0</ele><time>2026-05-03T15:34:53Z</time></trkpt><trkpt lat="44.881214216070745" lon="10.143145266130126"><ele>47.0</ele><time>2026-05-03T15:34:54Z</time></trkpt><trkpt lat="44.881236483261006" lon="10.143011520492156"><ele>47.0</ele><time>2026-05-03T15:34:55Z</time></trkpt><trkpt lat="44.881258113672835" lon="10.14287416025319"><ele>47.5</ele><time>2026-05-03T15:34:56Z</time></trkpt><trkpt lat="44.8812818814703" lon="10.142736081830206"><ele>48.0</ele><time>2026-05-03T15:34:56.999Z</time></trkpt><trkpt lat="44.881310224320046" lon="10.142584227902246"><ele>48.5</ele><time>2026-05-03T15:34:57.999Z</time></trkpt><trkpt lat="44.88134045687687" lon="10.14241845513906"><ele>49.0</ele><time>2026-05-03T15:34:58.999Z</time></trkpt><trkpt lat="44.88136497437552" lon="10.142235957810678"><ele>49.25</ele><time>2026-05-03T15:34:59.999Z</time></trkpt><trkpt lat="44.881392445434024" lon="10.142050117468457"><ele>49.5</ele><time>2026-05-03T15:35:00.999Z</time></trkpt><trkpt lat="44.88142037229504" lon="10.141865740054897"><ele>49.75</ele><time>2026-05-03T15:35:01.999Z</time></trkpt><trkpt lat="44.88144851693204" lon="10.141687827922157"><ele>50.0</ele><time>2026-05-03T15:35:02.999Z</time></trkpt><trkpt lat="44.881475855155465" lon="10.141521288630047"><ele>50.00000000000001</ele><time>2026-05-03T15:35:03.999Z</time></trkpt><trkpt lat="44.8814983020175" lon="10.14138022898535"><ele>50.0</ele><time>2026-05-03T15:35:04.999Z</time></trkpt><trkpt lat="44.88151280465581" lon="10.14128804523535"><ele>50.0</ele><time>2026-05-03T15:35:05.999Z</time></trkpt><trkpt lat="44.881525832073365" lon="10.14119395333714"><ele>50.0</ele><time>2026-05-03T15:35:09.999Z</time></trkpt><trkpt lat="44.88154365312041" lon="10.141079923270722"><ele>50.00000000000001</ele><time>2026-05-03T15:35:13.999Z</time></trkpt><trkpt lat="44.88156433719681" lon="10.140956252171845"><ele>50.0</ele><time>2026-05-03T15:35:15.999Z</time></trkpt><trkpt lat="44.881585298644296" lon="10.140816845364244"><ele>50.333333333333336</ele><time>2026-05-03T15:35:16.999Z</time></trkpt><trkpt lat="44.88161686017275" lon="10.140604849606401"><ele>50.66666666666667</ele><time>2026-05-03T15:35:17.999Z</time></trkpt><trkpt lat="44.88165159271574" lon="10.140373815200762"><ele>51.0</ele><time>2026-05-03T15:35:18.999Z</time></trkpt><trkpt lat="44.8816877383844" lon="10.140137558904602"><ele>51.0</ele><time>2026-05-03T15:35:19.999Z</time></trkpt><trkpt lat="44.88172188934646" lon="10.13990025027533"><ele>51.0</ele><time>2026-05-03T15:35:20.999Z</time></trkpt><trkpt lat="44.881758124427066" lon="10.139656508160401"><ele>51.0</ele><time>2026-05-03T15:35:21.999Z</time></trkpt><trkpt lat="44.88179585789323" lon="10.139411789035524"><ele>50.66666666666667</ele><time>2026-05-03T15:35:22.999Z</time></trkpt><trkpt lat="44.8818341571447" lon="10.139167326732196"><ele>50.333333333333336</ele><time>2026-05-03T15:35:23.999Z</time></trkpt><trkpt lat="44.881872187164575" lon="10.13892330003092"><ele>50.0</ele><time>2026-05-03T15:35:24.999Z</time></trkpt><trkpt lat="44.88190872916423" lon="10.13867822508368"><ele>50.0</ele><time>2026-05-03T15:35:25.999Z</time></trkpt><trkpt lat="44.88194512640754" lon="10.138428186587204"><ele>50.0</ele><time>2026-05-03T15:35:26.999Z</time></trkpt><trkpt lat="44.88198283363913" lon="10.138175272792843"><ele>50.0</ele><time>2026-05-03T15:35:27.999Z</time></trkpt><trkpt lat="44.88202324153407" lon="10.137904422513708"><ele>50.0</ele><time>2026-05-03T15:35:28.999Z</time></trkpt><trkpt lat="44.88206660737721" lon="10.137627295806706"><ele>50.0</ele><time>2026-05-03T15:35:29.999Z</time></trkpt><trkpt lat="44.88211076432131" lon="10.137336591837553"><ele>50.0</ele><time>2026-05-03T15:35:30.999Z</time></trkpt><trkpt lat="44.88215397414224" lon="10.137048806462511"><ele>50.0</ele><time>2026-05-03T15:35:31.999Z</time></trkpt><trkpt lat="44.88219849316157" lon="10.136752601459358"><ele>50.0</ele><time>2026-05-03T15:35:32.999Z</time></trkpt><trkpt lat="44.882242001321536" lon="10.136458731796573"><ele>50.0</ele><time>2026-05-03T15:35:33.999Z</time></trkpt><trkpt lat="44.88229072302543" lon="10.136160130985202"><ele>50.0</ele><time>2026-05-03T15:35:34.999Z</time></trkpt><trkpt lat="44.8823384422636" lon="10.135855591422564"><ele>50.0</ele><time>2026-05-03T15:35:35.999Z</time></trkpt><trkpt lat="44.882384252139296" lon="10.135548085483437"><ele>50.0</ele><time>2026-05-03T15:35:36.999Z</time></trkpt><trkpt lat="44.88243166353265" lon="10.135235288267229"><ele>50.0</ele><time>2026-05-03T15:35:37.999Z</time></trkpt><trkpt lat="44.88248106024845" lon="10.13491344225068"><ele>50.0</ele><time>2026-05-03T15:35:38.999Z</time></trkpt><trkpt lat="44.88253103298478" lon="10.134585254512436"><ele>50.5</ele><time>2026-05-03T15:35:39.999Z</time></trkpt><trkpt lat="44.88258183772069" lon="10.134248260577406"><ele>51.0</ele><time>2026-05-03T15:35:40.999Z</time></trkpt><trkpt lat="44.88263267574848" lon="10.133905600462953"><ele>51.0</ele><time>2026-05-03T15:35:41.999Z</time></trkpt><trkpt lat="44.88268479713017" lon="10.133561956276811"><ele>51.0</ele><time>2026-05-03T15:35:42.999Z</time></trkpt><trkpt lat="44.882737142461934" lon="10.133216624151219"><ele>51.5</ele><time>2026-05-03T15:35:43.999Z</time></trkpt><trkpt lat="44.88278900660244" lon="10.132873730499167"><ele>52.0</ele><time>2026-05-03T15:35:44.999Z</time></trkpt><trkpt lat="44.88284238702451" lon="10.132530478196829"><ele>51.0</ele><time>2026-05-03T15:35:45.999Z</time></trkpt><trkpt lat="44.88289367767781" lon="10.132189160014022"><ele>50.0</ele><time>2026-05-03T15:35:46.999Z</time></trkpt><trkpt lat="44.88294453356715" lon="10.131844478200232"><ele>49.5</ele><time>2026-05-03T15:35:47.999Z</time></trkpt><trkpt lat="44.88299733497398" lon="10.131494687267168"><ele>49.0</ele><time>2026-05-03T15:35:48.999Z</time></trkpt><trkpt lat="44.8830521298103" lon="10.13114084001866"><ele>49.0</ele><time>2026-05-03T15:35:49.999Z</time></trkpt><trkpt lat="44.88310711885006" lon="10.130786836450486"><ele>49.0</ele><time>2026-05-03T15:35:50.999Z</time></trkpt><trkpt lat="44.88316334721897" lon="10.130430279422814"><ele>48.5</ele><time>2026-05-03T15:35:51.999Z</time></trkpt><trkpt lat="44.883217994047996" lon="10.130072601808655"><ele>48.0</ele><time>2026-05-03T15:35:53Z</time></trkpt><trkpt lat="44.88326833096438" lon="10.129711487836872"><ele>49.0</ele><time>2026-05-03T15:35:54Z</time></trkpt><trkpt lat="44.88331730824308" lon="10.129350086219457"><ele>50.0</ele><time>2026-05-03T15:35:55Z</time></trkpt><trkpt lat="44.88336984811933" lon="10.128986968251022"><ele>50.0</ele><time>2026-05-03T15:35:56Z</time></trkpt><trkpt lat="44.883425519783756" lon="10.128626365455556"><ele>50.0</ele><time>2026-05-03T15:35:57Z</time></trkpt><trkpt lat="44.88348067424378" lon="10.128263661861267"><ele>51.0</ele><time>2026-05-03T15:35:58Z</time></trkpt><trkpt lat="44.88353431163154" lon="10.127905431401178"><ele>52.0</ele><time>2026-05-03T15:35:59Z</time></trkpt><trkpt lat="44.88358797073936" lon="10.127548536331734"><ele>52.0</ele><time>2026-05-03T15:36:00Z</time></trkpt><trkpt lat="44.88364148497542" lon="10.127197144764898"><ele>52.0</ele><time>2026-05-03T15:36:01Z</time></trkpt><trkpt lat="44.88369756480494" lon="10.126848158611034"><ele>52.0</ele><time>2026-05-03T15:36:02Z</time></trkpt><trkpt lat="44.883755982949424" lon="10.126502169162363"><ele>52.0</ele><time>2026-05-03T15:36:03Z</time></trkpt><trkpt lat="44.883811871646294" lon="10.12616285474698"><ele>52.0</ele><time>2026-05-03T15:36:04Z</time></trkpt><trkpt lat="44.88385982634707" lon="10.125855481946399"><ele>52.0</ele><time>2026-05-03T15:36:05Z</time></trkpt><trkpt lat="44.88390364656324" lon="10.125566802870273"><ele>52.0</ele><time>2026-05-03T15:36:06Z</time></trkpt><trkpt lat="44.88394490719744" lon="10.125289955307617"><ele>52.33333333333333</ele><time>2026-05-03T15:36:07Z</time></trkpt><trkpt lat="44.88398439375543" lon="10.125025245178481"><ele>52.66666666666667</ele><time>2026-05-03T15:36:08Z</time></trkpt><trkpt lat="44.88402235548775" lon="10.124772760715825"><ele>53.0</ele><time>2026-05-03T15:36:09Z</time></trkpt><trkpt lat="44.884058134345345" lon="10.124531441182938"><ele>53.0</ele><time>2026-05-03T15:36:10Z</time></trkpt><trkpt lat="44.88409484526329" lon="10.124286009876814"><ele>53.0</ele><time>2026-05-03T15:36:11Z</time></trkpt><trkpt lat="44.88413388331333" lon="10.12403696354975"><ele>53.0</ele><time>2026-05-03T15:36:12Z</time></trkpt><trkpt lat="44.88417271711864" lon="10.123789520252398"><ele>52.66666666666667</ele><time>2026-05-03T15:36:13Z</time></trkpt><trkpt lat="44.884209315105664" lon="10.12355377742342"><ele>52.33333333333333</ele><time>2026-05-03T15:36:14Z</time></trkpt><trkpt lat="44.884243685134756" lon="10.123328931905654"><ele>52.0</ele><time>2026-05-03T15:36:15Z</time></trkpt><trkpt lat="44.88427488416484" lon="10.123120519514604"><ele>52.5</ele><time>2026-05-03T15:36:16Z</time></trkpt><trkpt lat="44.88430725984943" lon="10.122916711715394"><ele>53.0</ele><time>2026-05-03T15:36:17Z</time></trkpt><trkpt lat="44.884339342928904" lon="10.122721380398092"><ele>53.5</ele><time>2026-05-03T15:36:18Z</time></trkpt><trkpt lat="44.88437060518257" lon="10.122533136677871"><ele>54.0</ele><time>2026-05-03T15:36:19Z</time></trkpt><trkpt lat="44.88439956344275" lon="10.122353186011292"><ele>54.2</ele><time>2026-05-03T15:36:20Z</time></trkpt><trkpt lat="44.884404905681215" lon="10.122252537587952"><ele>54.400000000000006</ele><time>2026-05-03T15:36:21Z</time></trkpt><trkpt lat="44.88442695666708" lon="10.122113303429552"><ele>54.6</ele><time>2026-05-03T15:36:22Z</time></trkpt><trkpt lat="44.88444838531381" lon="10.12197814538848"><ele>54.8</ele><time>2026-05-03T15:36:23Z</time></trkpt><trkpt lat="44.884466773205105" lon="10.121856719012607"><ele>55.0</ele><time>2026-05-03T15:36:24Z</time></trkpt><trkpt lat="44.88449673679676" lon="10.121720718471819"><ele>55.0</ele><time>2026-05-03T15:36:25Z</time></trkpt><trkpt lat="44.884502262345094" lon="10.121592803411934"><ele>55.0</ele><time>2026-05-03T15:36:26Z</time></trkpt><trkpt lat="44.884526883456324" lon="10.121460576313906"><ele>55.0</ele><time>2026-05-03T15:36:27Z</time></trkpt><trkpt lat="44.88454591083143" lon="10.121319283668589"><ele>55.0</ele><time>2026-05-03T15:36:28Z</time></trkpt><trkpt lat="44.88456782612562" lon="10.12117926121728"><ele>55.0</ele><time>2026-05-03T15:36:29Z</time></trkpt><trkpt lat="44.884592092298355" lon="10.121033383423445"><ele>54.8</ele><time>2026-05-03T15:36:30Z</time></trkpt><trkpt lat="44.88461676873197" lon="10.12088909347153"><ele>54.6</ele><time>2026-05-03T15:36:31Z</time></trkpt><trkpt lat="44.884639883310186" lon="10.120742580373994"><ele>54.400000000000006</ele><time>2026-05-03T15:36:32Z</time></trkpt><trkpt lat="44.88466154264906" lon="10.120594243659868"><ele>54.2</ele><time>2026-05-03T15:36:33Z</time></trkpt><trkpt lat="44.88468439101349" lon="10.120440636707107"><ele>54.0</ele><time>2026-05-03T15:36:34Z</time></trkpt><trkpt lat="44.884708166622104" lon="10.120284042646709"><ele>54.0</ele><time>2026-05-03T15:36:35Z</time></trkpt><trkpt lat="44.88473204141978" lon="10.120125514236614"><ele>54.0</ele><time>2026-05-03T15:36:36Z</time></trkpt><trkpt lat="44.8847554766992" lon="10.119967402883637"><ele>54.0</ele><time>2026-05-03T15:36:37Z</time></trkpt><trkpt lat="44.884779774735165" lon="10.119810561494083"><ele>54.0</ele><time>2026-05-03T15:36:38Z</time></trkpt><trkpt lat="44.88480397494872" lon="10.119653886039146"><ele>54.0</ele><time>2026-05-03T15:36:39Z</time></trkpt><trkpt lat="44.88482763295433" lon="10.119497467500576"><ele>54.0</ele><time>2026-05-03T15:36:40Z</time></trkpt><trkpt lat="44.88485273601602" lon="10.11933574267855"><ele>54.0</ele><time>2026-05-03T15:36:41Z</time></trkpt><trkpt lat="44.884878506253116" lon="10.119171941794537"><ele>54.0</ele><time>2026-05-03T15:36:42Z</time></trkpt><trkpt lat="44.884902419104996" lon="10.11901262845068"><ele>54.0</ele><time>2026-05-03T15:36:43Z</time></trkpt><trkpt lat="44.884925902543756" lon="10.118864513167212"><ele>54.00000000000001</ele><time>2026-05-03T15:36:44Z</time></trkpt><trkpt lat="44.884949933923906" lon="10.118713409714152"><ele>54.00000000000001</ele><time>2026-05-03T15:36:45Z</time></trkpt><trkpt lat="44.884973056729805" lon="10.11856234478695"><ele>54.0</ele><time>2026-05-03T15:36:46Z</time></trkpt><trkpt lat="44.88499495769737" lon="10.118411537030415"><ele>54.0</ele><time>2026-05-03T15:36:47Z</time></trkpt><trkpt lat="44.88501712005146" lon="10.11826287476704"><ele>54.0</ele><time>2026-05-03T15:36:48Z</time></trkpt><trkpt lat="44.885039666351666" lon="10.118113269828827"><ele>54.00000000000001</ele><time>2026-05-03T15:36:49Z</time></trkpt><trkpt lat="44.885060445282136" lon="10.117961740531726"><ele>54.00000000000001</ele><time>2026-05-03T15:36:50Z</time></trkpt><trkpt lat="44.885082618915746" lon="10.117808967825523"><ele>54.0</ele><time>2026-05-03T15:36:51Z</time></trkpt><trkpt lat="44.88510576543179" lon="10.117650925231002"><ele>54.0</ele><time>2026-05-03T15:36:51.999Z</time></trkpt><trkpt lat="44.88512939583409" lon="10.117487469932968"><ele>53.75</ele><time>2026-05-03T15:36:52.999Z</time></trkpt><trkpt lat="44.88515549256025" lon="10.117319988455245"><ele>53.5</ele><time>2026-05-03T15:36:53.999Z</time></trkpt><trkpt lat="44.885182648166165" lon="10.117149246484473"><ele>53.25</ele><time>2026-05-03T15:36:54.999Z</time></trkpt><trkpt lat="44.88520955763509" lon="10.116974260988098"><ele>53.0</ele><time>2026-05-03T15:36:55.999Z</time></trkpt><trkpt lat="44.88523569520577" lon="10.116795042605895"><ele>53.0</ele><time>2026-05-03T15:36:56.999Z</time></trkpt><trkpt lat="44.885263330607685" lon="10.11661463154579"><ele>53.0</ele><time>2026-05-03T15:36:57.999Z</time></trkpt><trkpt lat="44.88528948921934" lon="10.116435492839312"><ele>53.0</ele><time>2026-05-03T15:36:58.999Z</time></trkpt><trkpt lat="44.88531899127945" lon="10.116245055471621"><ele>53.0</ele><time>2026-05-03T15:36:59.999Z</time></trkpt><trkpt lat="44.88535033188472" lon="10.11604739057052"><ele>53.333333333333336</ele><time>2026-05-03T15:37:00.999Z</time></trkpt><trkpt lat="44.885383919312154" lon="10.11584000795613"><ele>53.66666666666667</ele><time>2026-05-03T15:37:01.999Z</time></trkpt><trkpt lat="44.88541959875283" lon="10.115622353136672"><ele>54.0</ele><time>2026-05-03T15:37:02.999Z</time></trkpt><trkpt lat="44.885449392125025" lon="10.115410636606269"><ele>54.0</ele><time>2026-05-03T15:37:03.999Z</time></trkpt><trkpt lat="44.88548303289224" lon="10.115184274542505"><ele>54.0</ele><time>2026-05-03T15:37:04.999Z</time></trkpt><trkpt lat="44.885519231813824" lon="10.114951448430137"><ele>54.0</ele><time>2026-05-03T15:37:05.999Z</time></trkpt><trkpt lat="44.88555666952253" lon="10.11471765508946"><ele>54.0</ele><time>2026-05-03T15:37:06.999Z</time></trkpt><trkpt lat="44.885594697886525" lon="10.114476512440499"><ele>54.0</ele><time>2026-05-03T15:37:07.999Z</time></trkpt><trkpt lat="44.88563460726046" lon="10.114228481548377"><ele>54.0</ele><time>2026-05-03T15:37:08.999Z</time></trkpt><trkpt lat="44.88567583958381" lon="10.113973924180982"><ele>54.33333333333333</ele><time>2026-05-03T15:37:09.999Z</time></trkpt><trkpt lat="44.88571918576085" lon="10.113715216842971"><ele>54.666666666666664</ele><time>2026-05-03T15:37:10.999Z</time></trkpt><trkpt lat="44.88572767155622" lon="10.113545759229696"><ele>55.0</ele><time>2026-05-03T15:37:11.999Z</time></trkpt><trkpt lat="44.885777748027934" lon="10.113279773700674"><ele>54.666666666666664</ele><time>2026-05-03T15:37:12.999Z</time></trkpt><trkpt lat="44.88581458408738" lon="10.113039515259734"><ele>54.33333333333333</ele><time>2026-05-03T15:37:13.999Z</time></trkpt><trkpt lat="44.88584955212999" lon="10.112801586201886"><ele>54.0</ele><time>2026-05-03T15:37:14.999Z</time></trkpt><trkpt lat="44.885883231103385" lon="10.112570270706033"><ele>54.0</ele><time>2026-05-03T15:37:15.999Z</time></trkpt><trkpt lat="44.88591614917946" lon="10.11234929925296"><ele>54.0</ele><time>2026-05-03T15:37:16.999Z</time></trkpt><trkpt lat="44.88594706986039" lon="10.112139174048044"><ele>54.0</ele><time>2026-05-03T15:37:17.999Z</time></trkpt><trkpt lat="44.88597539336929" lon="10.111939287456078"><ele>54.0</ele><time>2026-05-03T15:37:18.999Z</time></trkpt><trkpt lat="44.88600668481582" lon="10.11174437621968"><ele>54.0</ele><time>2026-05-03T15:37:19.999Z</time></trkpt><trkpt lat="44.88603638469106" lon="10.111551986409767"><ele>54.0</ele><time>2026-05-03T15:37:20.999Z</time></trkpt><trkpt lat="44.88606475172745" lon="10.111355887130552"><ele>54.0</ele><time>2026-05-03T15:37:21.999Z</time></trkpt><trkpt lat="44.88609556137459" lon="10.111162639096625"><ele>54.0</ele><time>2026-05-03T15:37:22.999Z</time></trkpt><trkpt lat="44.886128278261836" lon="10.110968122100319"><ele>54.0</ele><time>2026-05-03T15:37:23.999Z</time></trkpt><trkpt lat="44.88615721123407" lon="10.110774714304418"><ele>54.0</ele><time>2026-05-03T15:37:24.999Z</time></trkpt><trkpt lat="44.88618559919038" lon="10.11058546080603"><ele>54.0</ele><time>2026-05-03T15:37:25.999Z</time></trkpt><trkpt lat="44.886214692372846" lon="10.110396160333265"><ele>54.0</ele><time>2026-05-03T15:37:26.999Z</time></trkpt><trkpt lat="44.886242269451984" lon="10.110213551172606"><ele>54.0</ele><time>2026-05-03T15:37:27.999Z</time></trkpt><trkpt lat="44.88627062123044" lon="10.11003466977402"><ele>54.0</ele><time>2026-05-03T15:37:28.999Z</time></trkpt><trkpt lat="44.886300111877134" lon="10.109856835004418"><ele>54.0</ele><time>2026-05-03T15:37:29.999Z</time></trkpt><trkpt lat="44.886327265302384" lon="10.109677573577809"><ele>54.0</ele><time>2026-05-03T15:37:30.999Z</time></trkpt><trkpt lat="44.8863534015193" lon="10.109500223150544"><ele>54.0</ele><time>2026-05-03T15:37:31.999Z</time></trkpt><trkpt lat="44.88637909234995" lon="10.109322099099174"><ele>54.0</ele><time>2026-05-03T15:37:32.999Z</time></trkpt><trkpt lat="44.88640473817975" lon="10.109147153672735"><ele>54.0</ele><time>2026-05-03T15:37:33.999Z</time></trkpt><trkpt lat="44.88643085275521" lon="10.108969277752148"><ele>54.25</ele><time>2026-05-03T15:37:34.999Z</time></trkpt><trkpt lat="44.88645758113372" lon="10.108793116603458"><ele>54.5</ele><time>2026-05-03T15:37:35.999Z</time></trkpt><trkpt lat="44.886485173790646" lon="10.1086222660447"><ele>54.75</ele><time>2026-05-03T15:37:36.999Z</time></trkpt><trkpt lat="44.88650856302965" lon="10.108462260245517"><ele>55.0</ele><time>2026-05-03T15:37:37.999Z</time></trkpt><trkpt lat="44.88652944979236" lon="10.108319448808182"><ele>54.8</ele><time>2026-05-03T15:37:38.999Z</time></trkpt><trkpt lat="44.88654842651431" lon="10.108189028683611"><ele>54.6</ele><time>2026-05-03T15:37:39.999Z</time></trkpt><trkpt lat="44.88656616487222" lon="10.10806922144497"><ele>54.400000000000006</ele><time>2026-05-03T15:37:40.999Z</time></trkpt><trkpt lat="44.886584114719504" lon="10.10794426916718"><ele>54.2</ele><time>2026-05-03T15:37:41.999Z</time></trkpt><trkpt lat="44.886605348113974" lon="10.107813164656566"><ele>54.0</ele><time>2026-05-03T15:37:42.999Z</time></trkpt><trkpt lat="44.886627210479055" lon="10.10767384300412"><ele>54.0</ele><time>2026-05-03T15:37:43.999Z</time></trkpt><trkpt lat="44.88664992064345" lon="10.10752856353858"><ele>54.00000000000001</ele><time>2026-05-03T15:37:44.999Z</time></trkpt><trkpt lat="44.88667252791684" lon="10.107379447286457"><ele>54.00000000000001</ele><time>2026-05-03T15:37:45.999Z</time></trkpt><trkpt lat="44.88669664345528" lon="10.10722663778017"><ele>54.0</ele><time>2026-05-03T15:37:46.999Z</time></trkpt><trkpt lat="44.88672235568438" lon="10.107068818080137"><ele>54.0</ele><time>2026-05-03T15:37:47.999Z</time></trkpt><trkpt lat="44.88674852755941" lon="10.106904820898722"><ele>54.0</ele><time>2026-05-03T15:37:48.999Z</time></trkpt><trkpt lat="44.88677320973933" lon="10.106736197197819"><ele>54.0</ele><time>2026-05-03T15:37:49.999Z</time></trkpt><trkpt lat="44.88679695135448" lon="10.10657411143924"><ele>54.0</ele><time>2026-05-03T15:37:50.999Z</time></trkpt><trkpt lat="44.88682069715456" lon="10.106419217916244"><ele>54.0</ele><time>2026-05-03T15:37:51.999Z</time></trkpt><trkpt lat="44.886842086014376" lon="10.106269219259572"><ele>54.2</ele><time>2026-05-03T15:37:52.999Z</time></trkpt><trkpt lat="44.886863125238214" lon="10.106122742338368"><ele>54.400000000000006</ele><time>2026-05-03T15:37:53.999Z</time></trkpt><trkpt lat="44.8868854815589" lon="10.105974835581923"><ele>54.6</ele><time>2026-05-03T15:37:54.999Z</time></trkpt><trkpt lat="44.88690920174593" lon="10.105823285403716"><ele>54.8</ele><time>2026-05-03T15:37:55.999Z</time></trkpt><trkpt lat="44.886933343349504" lon="10.105665788585588"><ele>55.0</ele><time>2026-05-03T15:37:56.999Z</time></trkpt><trkpt lat="44.88695789543631" lon="10.105506792809882"><ele>55.0</ele><time>2026-05-03T15:37:57.999Z</time></trkpt><trkpt lat="44.88698071329062" lon="10.105357742341445"><ele>55.0</ele><time>2026-05-03T15:37:59Z</time></trkpt><trkpt lat="44.887000523711386" lon="10.105224364062316"><ele>55.0</ele><time>2026-05-03T15:38:00Z</time></trkpt><trkpt lat="44.88701989185949" lon="10.105088452346507"><ele>55.0</ele><time>2026-05-03T15:38:01Z</time></trkpt><trkpt lat="44.88704100058377" lon="10.104941597746837"><ele>55.0</ele><time>2026-05-03T15:38:02Z</time></trkpt><trkpt lat="44.8870644675981" lon="10.10479019367071"><ele>55.25</ele><time>2026-05-03T15:38:03Z</time></trkpt><trkpt lat="44.88708829278664" lon="10.10463376991453"><ele>55.5</ele><time>2026-05-03T15:38:04Z</time></trkpt><trkpt lat="44.8871127658703" lon="10.104472307827091"><ele>55.75</ele><time>2026-05-03T15:38:05Z</time></trkpt><trkpt lat="44.887140105987044" lon="10.104307243305573"><ele>56.0</ele><time>2026-05-03T15:38:06Z</time></trkpt><trkpt lat="44.887166861156544" lon="10.104135915751852"><ele>56.25</ele><time>2026-05-03T15:38:07Z</time></trkpt><trkpt lat="44.88719069312959" lon="10.103959886212582"><ele>56.5</ele><time>2026-05-03T15:38:08Z</time></trkpt><trkpt lat="44.88721646727311" lon="10.103778934522989"><ele>56.75</ele><time>2026-05-03T15:38:09Z</time></trkpt><trkpt lat="44.88724447360302" lon="10.103595273572274"><ele>57.0</ele><time>2026-05-03T15:38:10Z</time></trkpt><trkpt lat="44.88727232098082" lon="10.103417007309613"><ele>57.0</ele><time>2026-05-03T15:38:11Z</time></trkpt><trkpt lat="44.887299782142364" lon="10.103248828040694"><ele>57.0</ele><time>2026-05-03T15:38:12Z</time></trkpt><trkpt lat="44.887324329128596" lon="10.10308572786653"><ele>57.0</ele><time>2026-05-03T15:38:13Z</time></trkpt><trkpt lat="44.88735157662941" lon="10.102913708741967"><ele>57.0</ele><time>2026-05-03T15:38:14Z</time></trkpt><trkpt lat="44.887378826426534" lon="10.10273583257653"><ele>57.25</ele><time>2026-05-03T15:38:15Z</time></trkpt><trkpt lat="44.88740720865726" lon="10.102556501770277"><ele>57.5</ele><time>2026-05-03T15:38:16Z</time></trkpt><trkpt lat="44.88743519343563" lon="10.102374980518409"><ele>57.75</ele><time>2026-05-03T15:38:17Z</time></trkpt><trkpt lat="44.887460962395664" lon="10.102190050960587"><ele>58.0</ele><time>2026-05-03T15:38:18Z</time></trkpt><trkpt lat="44.88748757024469" lon="10.102001785369296"><ele>58.0</ele><time>2026-05-03T15:38:19Z</time></trkpt><trkpt lat="44.88751721759624" lon="10.101813297049222"><ele>58.0</ele><time>2026-05-03T15:38:20Z</time></trkpt><trkpt lat="44.887546331862445" lon="10.101620822901776"><ele>58.0</ele><time>2026-05-03T15:38:21Z</time></trkpt><trkpt lat="44.88757630122839" lon="10.101425770432515"><ele>58.0</ele><time>2026-05-03T15:38:22Z</time></trkpt><trkpt lat="44.88760781534857" lon="10.101226381746498"><ele>57.75</ele><time>2026-05-03T15:38:23Z</time></trkpt><trkpt lat="44.88763712967433" lon="10.101025004710298"><ele>57.5</ele><time>2026-05-03T15:38:24Z</time></trkpt><trkpt lat="44.887665921944595" lon="10.100831650296723"><ele>57.25</ele><time>2026-05-03T15:38:25Z</time></trkpt><trkpt lat="44.88769296288724" lon="10.100644440570463"><ele>57.0</ele><time>2026-05-03T15:38:26Z</time></trkpt><trkpt lat="44.88772072907366" lon="10.100462480210412"><ele>56.75</ele><time>2026-05-03T15:38:27Z</time></trkpt><trkpt lat="44.88775025052149" lon="10.100279019884232"><ele>56.5</ele><time>2026-05-03T15:38:28Z</time></trkpt><trkpt lat="44.88777820655599" lon="10.100088373264548"><ele>56.25</ele><time>2026-05-03T15:38:29Z</time></trkpt><trkpt lat="44.88780707356132" lon="10.099892126665843"><ele>56.0</ele><time>2026-05-03T15:38:30Z</time></trkpt><trkpt lat="44.887837133356804" lon="10.099692557247312"><ele>56.0</ele><time>2026-05-03T15:38:31Z</time></trkpt><trkpt lat="44.887869341955835" lon="10.099490924784476"><ele>56.0</ele><time>2026-05-03T15:38:32Z</time></trkpt><trkpt lat="44.887901871798356" lon="10.099286418974613"><ele>56.0</ele><time>2026-05-03T15:38:33Z</time></trkpt><trkpt lat="44.887932470607346" lon="10.099079395048259"><ele>56.0</ele><time>2026-05-03T15:38:34Z</time></trkpt><trkpt lat="44.887962571260196" lon="10.098869807787096"><ele>55.66666666666667</ele><time>2026-05-03T15:38:35Z</time></trkpt><trkpt lat="44.88799423835595" lon="10.098657929750964"><ele>55.33333333333333</ele><time>2026-05-03T15:38:36Z</time></trkpt><trkpt lat="44.888026535645885" lon="10.098442296221004"><ele>55.0</ele><time>2026-05-03T15:38:37Z</time></trkpt><trkpt lat="44.88805929544419" lon="10.098225471192459"><ele>55.0</ele><time>2026-05-03T15:38:38Z</time></trkpt><trkpt lat="44.88809275419044" lon="10.09800623709017"><ele>55.0</ele><time>2026-05-03T15:38:39Z</time></trkpt><trkpt lat="44.888126821539544" lon="10.097786024595237"><ele>55.0</ele><time>2026-05-03T15:38:40Z</time></trkpt><trkpt lat="44.88816098930959" lon="10.097563686305875"><ele>55.0</ele><time>2026-05-03T15:38:41Z</time></trkpt><trkpt lat="44.888190528183735" lon="10.0973622641395"><ele>55.0</ele><time>2026-05-03T15:38:42Z</time></trkpt><trkpt lat="44.88821583739461" lon="10.09718958957741"><ele>55.0</ele><time>2026-05-03T15:38:43Z</time></trkpt><trkpt lat="44.888237556389434" lon="10.097043500437634"><ele>55.0</ele><time>2026-05-03T15:38:44Z</time></trkpt><trkpt lat="44.888257851385625" lon="10.0969071488175"><ele>55.0</ele><time>2026-05-03T15:38:45Z</time></trkpt><trkpt lat="44.88827645008556" lon="10.096780289615264"><ele>55.0</ele><time>2026-05-03T15:38:45.999Z</time></trkpt><trkpt lat="44.88829273766578" lon="10.096662501281582"><ele>55.0</ele><time>2026-05-03T15:38:46.999Z</time></trkpt><trkpt lat="44.8883110661246" lon="10.096537979687968"><ele>55.0</ele><time>2026-05-03T15:38:47.999Z</time></trkpt><trkpt lat="44.88833067885239" lon="10.096407574419052"><ele>55.0</ele><time>2026-05-03T15:38:48.999Z</time></trkpt><trkpt lat="44.88835177183348" lon="10.096270765162961"><ele>55.0</ele><time>2026-05-03T15:38:49.999Z</time></trkpt><trkpt lat="44.88837286312923" lon="10.096132057510648"><ele>55.0</ele><time>2026-05-03T15:38:50.999Z</time></trkpt><trkpt lat="44.888394206879674" lon="10.095991728795017"><ele>55.0</ele><time>2026-05-03T15:38:51.999Z</time></trkpt><trkpt lat="44.88841567483392" lon="10.095861178925965"><ele>55.0</ele><time>2026-05-03T15:38:52.999Z</time></trkpt><trkpt lat="44.888434143036854" lon="10.095747780510685"><ele>55.0</ele><time>2026-05-03T15:38:53.999Z</time></trkpt><trkpt lat="44.88844966170207" lon="10.095647463492282"><ele>54.99999999999999</ele><time>2026-05-03T15:38:54.999Z</time></trkpt><trkpt lat="44.88846325095251" lon="10.095556693310822"><ele>55.0</ele><time>2026-05-03T15:38:55.999Z</time></trkpt><trkpt lat="44.888489566813966" lon="10.095390587596519"><ele>55.0</ele><time>2026-05-03T15:38:57.999Z</time></trkpt><trkpt lat="44.888505025121226" lon="10.095290211275165"><ele>55.0</ele><time>2026-05-03T15:38:58.999Z</time></trkpt><trkpt lat="44.88852011439996" lon="10.095185341032048"><ele>54.99999999999999</ele><time>2026-05-03T15:38:59.999Z</time></trkpt><trkpt lat="44.88853555705921" lon="10.095074293597913"><ele>55.0</ele><time>2026-05-03T15:39:00.999Z</time></trkpt><trkpt lat="44.888554294562894" lon="10.09495663167863"><ele>54.8</ele><time>2026-05-03T15:39:01.999Z</time></trkpt><trkpt lat="44.88857355628499" lon="10.09483368578507"><ele>54.6</ele><time>2026-05-03T15:39:02.999Z</time></trkpt><trkpt lat="44.88859243070934" lon="10.094707991219023"><ele>54.400000000000006</ele><time>2026-05-03T15:39:03.999Z</time></trkpt><trkpt lat="44.88861220977218" lon="10.09458214928376"><ele>54.2</ele><time>2026-05-03T15:39:04.999Z</time></trkpt><trkpt lat="44.8886325133015" lon="10.094456186067562"><ele>54.0</ele><time>2026-05-03T15:39:05.999Z</time></trkpt><trkpt lat="44.88865153278123" lon="10.094328266313163"><ele>54.0</ele><time>2026-05-03T15:39:06.999Z</time></trkpt><trkpt lat="44.8886709975956" lon="10.094199641755935"><ele>54.0</ele><time>2026-05-03T15:39:07.999Z</time></trkpt><trkpt lat="44.88868915828512" lon="10.09407609926223"><ele>54.0</ele><time>2026-05-03T15:39:08.999Z</time></trkpt><trkpt lat="44.88870435282831" lon="10.093965651197795"><ele>54.0</ele><time>2026-05-03T15:39:09.999Z</time></trkpt><trkpt lat="44.88871852831425" lon="10.093867744335217"><ele>54.0</ele><time>2026-05-03T15:39:10.999Z</time></trkpt><trkpt lat="44.88873305858395" lon="10.093775450055857"><ele>54.0</ele><time>2026-05-03T15:39:11.999Z</time></trkpt><trkpt lat="44.88875115058584" lon="10.093672491123776"><ele>54.333333333333336</ele><time>2026-05-03T15:39:12.999Z</time></trkpt><trkpt lat="44.88876789931631" lon="10.093566672460565"><ele>54.66666666666667</ele><time>2026-05-03T15:39:13.999Z</time></trkpt><trkpt lat="44.88878967095659" lon="10.093414780029967"><ele>55.0</ele><time>2026-05-03T15:39:15.999Z</time></trkpt><trkpt lat="44.88880024243585" lon="10.093324007983826"><ele>55.333333333333336</ele><time>2026-05-03T15:39:17.999Z</time></trkpt><trkpt lat="44.888815617697695" lon="10.093188922995918"><ele>55.66666666666667</ele><time>2026-05-03T15:39:20.999Z</time></trkpt><trkpt lat="44.888831879642495" lon="10.093061322034297"><ele>56.0</ele><time>2026-05-03T15:39:22.999Z</time></trkpt><trkpt lat="44.88885375052409" lon="10.092916236280972"><ele>56.0</ele><time>2026-05-03T15:39:24.999Z</time></trkpt><trkpt lat="44.888879272757535" lon="10.09275265817121"><ele>55.99999999999999</ele><time>2026-05-03T15:39:26.999Z</time></trkpt><trkpt lat="44.88891125330975" lon="10.092600484235877"><ele>55.99999999999999</ele><time>2026-05-03T15:39:28.999Z</time></trkpt><trkpt lat="44.8889383651962" lon="10.092421229063593"><ele>56.0</ele><time>2026-05-03T15:39:30.999Z</time></trkpt><trkpt lat="44.88895358760434" lon="10.092321657039808"><ele>56.0</ele><time>2026-05-03T15:39:31.999Z</time></trkpt><trkpt lat="44.888969834903314" lon="10.092215308298895"><ele>56.00000000000001</ele><time>2026-05-03T15:39:32.999Z</time></trkpt><trkpt lat="44.888987480772855" lon="10.092106210784417"><ele>56.0</ele><time>2026-05-03T15:39:33.999Z</time></trkpt><trkpt lat="44.88900508987948" lon="10.091996815376238"><ele>56.0</ele><time>2026-05-03T15:39:34.999Z</time></trkpt><trkpt lat="44.88902365870385" lon="10.091893640045315"><ele>56.0</ele><time>2026-05-03T15:39:35.999Z</time></trkpt><trkpt lat="44.88904320280397" lon="10.091806267789144"><ele>56.00000000000001</ele><time>2026-05-03T15:39:36.999Z</time></trkpt><trkpt lat="44.88907256885087" lon="10.091623265847176"><ele>56.0</ele><time>2026-05-03T15:39:38.999Z</time></trkpt><trkpt lat="44.889093827791875" lon="10.09148485414356"><ele>56.25</ele><time>2026-05-03T15:39:39.999Z</time></trkpt><trkpt lat="44.88912539504673" lon="10.091349552167534"><ele>56.5</ele><time>2026-05-03T15:39:40.999Z</time></trkpt><trkpt lat="44.88914167278853" lon="10.09119484763401"><ele>56.75</ele><time>2026-05-03T15:39:41.999Z</time></trkpt><trkpt lat="44.88916217501151" lon="10.091033557681223"><ele>57.0</ele><time>2026-05-03T15:39:42.999Z</time></trkpt><trkpt lat="44.88918657956896" lon="10.090864964168222"><ele>56.75</ele><time>2026-05-03T15:39:43.999Z</time></trkpt><trkpt lat="44.889211778855035" lon="10.09068478523713"><ele>56.5</ele><time>2026-05-03T15:39:44.999Z</time></trkpt><trkpt lat="44.88923699047851" lon="10.090501963516772"><ele>56.25</ele><time>2026-05-03T15:39:45.999Z</time></trkpt><trkpt lat="44.889261274959104" lon="10.090314101908344"><ele>56.0</ele><time>2026-05-03T15:39:46.999Z</time></trkpt><trkpt lat="44.88928710903572" lon="10.09012571749142"><ele>56.0</ele><time>2026-05-03T15:39:47.999Z</time></trkpt><trkpt lat="44.88931725040008" lon="10.08993001585648"><ele>56.0</ele><time>2026-05-03T15:39:48.999Z</time></trkpt><trkpt lat="44.8893488645049" lon="10.08972779887762"><ele>56.0</ele><time>2026-05-03T15:39:49.999Z</time></trkpt><trkpt lat="44.8893796315103" lon="10.089520904770259"><ele>56.0</ele><time>2026-05-03T15:39:50.999Z</time></trkpt><trkpt lat="44.889409635814644" lon="10.089312708143927"><ele>56.0</ele><time>2026-05-03T15:39:51.999Z</time></trkpt><trkpt lat="44.88944190934079" lon="10.089100280331554"><ele>56.0</ele><time>2026-05-03T15:39:52.999Z</time></trkpt><trkpt lat="44.88947563834353" lon="10.08888497526794"><ele>56.0</ele><time>2026-05-03T15:39:53.999Z</time></trkpt><trkpt lat="44.88950835443803" lon="10.088668975427241"><ele>56.5</ele><time>2026-05-03T15:39:54.999Z</time></trkpt><trkpt lat="44.88953810664458" lon="10.088458442817956"><ele>57.0</ele><time>2026-05-03T15:39:55.999Z</time></trkpt><trkpt lat="44.889566902830026" lon="10.088254313659885"><ele>57.5</ele><time>2026-05-03T15:39:56.999Z</time></trkpt><trkpt lat="44.88959469387061" lon="10.088052502528875"><ele>58.0</ele><time>2026-05-03T15:39:57.999Z</time></trkpt><trkpt lat="44.889621264875835" lon="10.087852244013717"><ele>58.0</ele><time>2026-05-03T15:39:58.999Z</time></trkpt><trkpt lat="44.88965112702433" lon="10.087657959430683"><ele>58.0</ele><time>2026-05-03T15:39:59.999Z</time></trkpt><trkpt lat="44.88967972185544" lon="10.087471657262098"><ele>58.0</ele><time>2026-05-03T15:40:00.999Z</time></trkpt><trkpt lat="44.88970581986237" lon="10.087294246441841"><ele>58.0</ele><time>2026-05-03T15:40:01.999Z</time></trkpt><trkpt lat="44.88973117306007" lon="10.087126677210469"><ele>58.0</ele><time>2026-05-03T15:40:02.999Z</time></trkpt><trkpt lat="44.88975405318738" lon="10.086967539556326"><ele>58.0</ele><time>2026-05-03T15:40:03.999Z</time></trkpt><trkpt lat="44.88977644170698" lon="10.086810933235455"><ele>58.0</ele><time>2026-05-03T15:40:05Z</time></trkpt><trkpt lat="44.88979723236807" lon="10.086653684666413"><ele>58.0</ele><time>2026-05-03T15:40:06Z</time></trkpt><trkpt lat="44.889816894205204" lon="10.086499129405368"><ele>58.0</ele><time>2026-05-03T15:40:07Z</time></trkpt><trkpt lat="44.88983910528274" lon="10.08634348415389"><ele>58.0</ele><time>2026-05-03T15:40:08Z</time></trkpt><trkpt lat="44.88986458923171" lon="10.086188308221605"><ele>58.0</ele><time>2026-05-03T15:40:09Z</time></trkpt><trkpt lat="44.889886165703984" lon="10.086038477452895"><ele>58.0</ele><time>2026-05-03T15:40:10Z</time></trkpt><trkpt lat="44.889908165946935" lon="10.085894935084468"><ele>58.0</ele><time>2026-05-03T15:40:11Z</time></trkpt><trkpt lat="44.88993048476357" lon="10.085756861973445"><ele>58.0</ele><time>2026-05-03T15:40:12Z</time></trkpt><trkpt lat="44.88995122005956" lon="10.085617526299306"><ele>58.0</ele><time>2026-05-03T15:40:13Z</time></trkpt><trkpt lat="44.88997125269644" lon="10.085474836215955"><ele>58.0</ele><time>2026-05-03T15:40:14Z</time></trkpt><trkpt lat="44.88998945307098" lon="10.085324655067563"><ele>58.0</ele><time>2026-05-03T15:40:15Z</time></trkpt><trkpt lat="44.89000296259634" lon="10.085177527026755"><ele>58.0</ele><time>2026-05-03T15:40:16Z</time></trkpt><trkpt lat="44.89001133787615" lon="10.08503747116573"><ele>58.0</ele><time>2026-05-03T15:40:17Z</time></trkpt><trkpt lat="44.89002049392668" lon="10.084887443123918"><ele>58.0</ele><time>2026-05-03T15:40:18Z</time></trkpt><trkpt lat="44.890092877388945" lon="10.084708238433453"><ele>58.0</ele><time>2026-05-03T15:40:20Z</time></trkpt><trkpt lat="44.89011616356679" lon="10.084556977779608"><ele>58.0</ele><time>2026-05-03T15:40:21Z</time></trkpt><trkpt lat="44.89014054732057" lon="10.084396907641374"><ele>58.0</ele><time>2026-05-03T15:40:22Z</time></trkpt><trkpt lat="44.89016378247996" lon="10.084239449507791"><ele>58.0</ele><time>2026-05-03T15:40:23Z</time></trkpt><trkpt lat="44.89018849222523" lon="10.084087951355308"><ele>58.0</ele><time>2026-05-03T15:40:24Z</time></trkpt><trkpt lat="44.89021531816654" lon="10.083916830665935"><ele>58.0</ele><time>2026-05-03T15:40:25Z</time></trkpt><trkpt lat="44.89024845323414" lon="10.083740155037654"><ele>58.0</ele><time>2026-05-03T15:40:26Z</time></trkpt><trkpt lat="44.890286572726" lon="10.08353553225587"><ele>58.0</ele><time>2026-05-03T15:40:27Z</time></trkpt><trkpt lat="44.890323358681" lon="10.083307097860759"><ele>58.0</ele><time>2026-05-03T15:40:28Z</time></trkpt><trkpt lat="44.890360026243016" lon="10.083067828724612"><ele>57.33333333333333</ele><time>2026-05-03T15:40:29Z</time></trkpt><trkpt lat="44.890399695364756" lon="10.082794684756516"><ele>56.66666666666667</ele><time>2026-05-03T15:40:30Z</time></trkpt><trkpt lat="44.8904470154792" lon="10.082505646214578"><ele>56.0</ele><time>2026-05-03T15:40:31Z</time></trkpt><trkpt lat="44.89048874198807" lon="10.082218471909075"><ele>56.0</ele><time>2026-05-03T15:40:32Z</time></trkpt><trkpt lat="44.89053111549073" lon="10.0819355287631"><ele>56.0</ele><time>2026-05-03T15:40:33Z</time></trkpt><trkpt lat="44.890571383471986" lon="10.081666603892288"><ele>56.0</ele><time>2026-05-03T15:40:34Z</time></trkpt><trkpt lat="44.890606962506205" lon="10.081428515214917"><ele>56.0</ele><time>2026-05-03T15:40:35Z</time></trkpt><trkpt lat="44.89063802447084" lon="10.08121788388495"><ele>56.0</ele><time>2026-05-03T15:40:36Z</time></trkpt><trkpt lat="44.89066521099983" lon="10.08101949884602"><ele>56.0</ele><time>2026-05-03T15:40:36.999Z</time></trkpt><trkpt lat="44.89069598906136" lon="10.080828527035338"><ele>56.0</ele><time>2026-05-03T15:40:37.999Z</time></trkpt><trkpt lat="44.890725762427806" lon="10.080649533399624"><ele>56.0</ele><time>2026-05-03T15:40:38.999Z</time></trkpt><trkpt lat="44.89075618776401" lon="10.080478328376055"><ele>55.99999999999999</ele><time>2026-05-03T15:40:39.999Z</time></trkpt><trkpt lat="44.89077492546982" lon="10.080330056335471"><ele>55.99999999999999</ele><time>2026-05-03T15:40:40.999Z</time></trkpt><trkpt lat="44.8907919939481" lon="10.080209340143169"><ele>56.0</ele><time>2026-05-03T15:40:41.999Z</time></trkpt><trkpt lat="44.89081110784313" lon="10.080097936680268"><ele>56.0</ele><time>2026-05-03T15:40:42.999Z</time></trkpt><trkpt lat="44.890825818219774" lon="10.079999541970162"><ele>55.8</ele><time>2026-05-03T15:40:43.999Z</time></trkpt><trkpt lat="44.890839838953106" lon="10.079885399159968"><ele>55.599999999999994</ele><time>2026-05-03T15:40:44.999Z</time></trkpt><trkpt lat="44.89085936640805" lon="10.07976671015848"><ele>55.4</ele><time>2026-05-03T15:40:45.999Z</time></trkpt><trkpt lat="44.89088058087675" lon="10.079638430160223"><ele>55.2</ele><time>2026-05-03T15:40:46.999Z</time></trkpt><trkpt lat="44.890904665011924" lon="10.079498808495012"><ele>55.0</ele><time>2026-05-03T15:40:47.999Z</time></trkpt><trkpt lat="44.89092666958592" lon="10.079344016608784"><ele>54.75</ele><time>2026-05-03T15:40:48.999Z</time></trkpt><trkpt lat="44.89095243562895" lon="10.079178373517372"><ele>54.5</ele><time>2026-05-03T15:40:49.999Z</time></trkpt><trkpt lat="44.89097860722945" lon="10.079006666940797"><ele>54.25</ele><time>2026-05-03T15:40:50.999Z</time></trkpt><trkpt lat="44.89100677192315" lon="10.078828910127143"><ele>54.0</ele><time>2026-05-03T15:40:51.999Z</time></trkpt><trkpt lat="44.89103422101508" lon="10.078654962021469"><ele>54.5</ele><time>2026-05-03T15:40:52.999Z</time></trkpt><trkpt lat="44.891063165812724" lon="10.078476490993662"><ele>55.0</ele><time>2026-05-03T15:40:53.999Z</time></trkpt><trkpt lat="44.89108860727676" lon="10.078296230558728"><ele>55.5</ele><time>2026-05-03T15:40:54.999Z</time></trkpt><trkpt lat="44.89111253813776" lon="10.078123638854954"><ele>56.0</ele><time>2026-05-03T15:40:55.999Z</time></trkpt><trkpt lat="44.89113742263846" lon="10.077962528306507"><ele>56.5</ele><time>2026-05-03T15:40:56.999Z</time></trkpt><trkpt lat="44.891162745933585" lon="10.0778091875062"><ele>57.0</ele><time>2026-05-03T15:40:57.999Z</time></trkpt><trkpt lat="44.89118477445223" lon="10.077652458465709"><ele>57.5</ele><time>2026-05-03T15:40:58.999Z</time></trkpt><trkpt lat="44.89120760158305" lon="10.077498276202062"><ele>58.0</ele><time>2026-05-03T15:40:59.999Z</time></trkpt><trkpt lat="44.89123281758949" lon="10.077339019769385"><ele>58.25</ele><time>2026-05-03T15:41:00.999Z</time></trkpt><trkpt lat="44.89125816150217" lon="10.07717527495054"><ele>58.5</ele><time>2026-05-03T15:41:01.999Z</time></trkpt><trkpt lat="44.89128347029116" lon="10.077001105914977"><ele>58.75</ele><time>2026-05-03T15:41:02.999Z</time></trkpt><trkpt lat="44.89130952247527" lon="10.076821649188892"><ele>59.0</ele><time>2026-05-03T15:41:03.999Z</time></trkpt><trkpt lat="44.89133833954942" lon="10.076633634844223"><ele>58.5</ele><time>2026-05-03T15:41:04.999Z</time></trkpt><trkpt lat="44.89136730408541" lon="10.076445702400978"><ele>58.0</ele><time>2026-05-03T15:41:05.999Z</time></trkpt><trkpt lat="44.89139829444156" lon="10.076251825221297"><ele>57.5</ele><time>2026-05-03T15:41:06.999Z</time></trkpt><trkpt lat="44.89142776387124" lon="10.076055398061389"><ele>57.0</ele><time>2026-05-03T15:41:07.999Z</time></trkpt><trkpt lat="44.89146066625883" lon="10.075853694439688"><ele>57.0</ele><time>2026-05-03T15:41:08.999Z</time></trkpt><trkpt lat="44.891492156202794" lon="10.075650953105608"><ele>57.0</ele><time>2026-05-03T15:41:09.999Z</time></trkpt><trkpt lat="44.89152281327881" lon="10.075443467966766"><ele>57.0</ele><time>2026-05-03T15:41:10.999Z</time></trkpt><trkpt lat="44.891554909737806" lon="10.075231638943862"><ele>57.0</ele><time>2026-05-03T15:41:11.999Z</time></trkpt><trkpt lat="44.89158927640238" lon="10.075011773141135"><ele>57.0</ele><time>2026-05-03T15:41:12.999Z</time></trkpt><trkpt lat="44.89162310405803" lon="10.074790769422867"><ele>57.0</ele><time>2026-05-03T15:41:13.999Z</time></trkpt><trkpt lat="44.891656417651625" lon="10.074567912223378"><ele>57.0</ele><time>2026-05-03T15:41:14.999Z</time></trkpt><trkpt lat="44.8916901278379" lon="10.07433830916111"><ele>57.0</ele><time>2026-05-03T15:41:15.999Z</time></trkpt><trkpt lat="44.891723294844894" lon="10.074116065002634"><ele>57.0</ele><time>2026-05-03T15:41:16.999Z</time></trkpt><trkpt lat="44.89175702535173" lon="10.0738854661229"><ele>57.0</ele><time>2026-05-03T15:41:17.999Z</time></trkpt><trkpt lat="44.89179120376524" lon="10.073658358451008"><ele>57.0</ele><time>2026-05-03T15:41:18.999Z</time></trkpt><trkpt lat="44.89182547230542" lon="10.073428275270173"><ele>57.0</ele><time>2026-05-03T15:41:19.999Z</time></trkpt><trkpt lat="44.8918652023835" lon="10.073196891021297"><ele>56.33333333333333</ele><time>2026-05-03T15:41:20.999Z</time></trkpt><trkpt lat="44.89190104489044" lon="10.072962798748243"><ele>55.666666666666664</ele><time>2026-05-03T15:41:21.999Z</time></trkpt><trkpt lat="44.891935383227896" lon="10.072727256402947"><ele>55.0</ele><time>2026-05-03T15:41:22.999Z</time></trkpt><trkpt lat="44.89196882127428" lon="10.072494677444352"><ele>55.666666666666664</ele><time>2026-05-03T15:41:23.999Z</time></trkpt><trkpt lat="44.892004975288145" lon="10.072260960324542"><ele>56.33333333333333</ele><time>2026-05-03T15:41:24.999Z</time></trkpt><trkpt lat="44.892040290631385" lon="10.072033253306975"><ele>57.0</ele><time>2026-05-03T15:41:25.999Z</time></trkpt><trkpt lat="44.89207398391983" lon="10.071806727418426"><ele>57.33333333333333</ele><time>2026-05-03T15:41:26.999Z</time></trkpt><trkpt lat="44.89210751407895" lon="10.071583770943874"><ele>57.666666666666664</ele><time>2026-05-03T15:41:27.999Z</time></trkpt><trkpt lat="44.8921409837291" lon="10.071361211666636"><ele>58.0</ele><time>2026-05-03T15:41:28.999Z</time></trkpt><trkpt lat="44.892174222128844" lon="10.071139638528695"><ele>58.0</ele><time>2026-05-03T15:41:29.999Z</time></trkpt><trkpt lat="44.89220777414932" lon="10.070922301349313"><ele>58.0</ele><time>2026-05-03T15:41:30.999Z</time></trkpt><trkpt lat="44.892242148137605" lon="10.070702274436432"><ele>58.0</ele><time>2026-05-03T15:41:31.999Z</time></trkpt><trkpt lat="44.8922750712904" lon="10.070485172118262"><ele>58.25</ele><time>2026-05-03T15:41:32.999Z</time></trkpt><trkpt lat="44.89230598700107" lon="10.070278128860998"><ele>58.5</ele><time>2026-05-03T15:41:33.999Z</time></trkpt><trkpt lat="44.89233604429379" lon="10.070076712987781"><ele>58.75</ele><time>2026-05-03T15:41:34.999Z</time></trkpt><trkpt lat="44.89236470116205" lon="10.069879631621168"><ele>59.0</ele><time>2026-05-03T15:41:35.999Z</time></trkpt><trkpt lat="44.89239265580217" lon="10.06968241143821"><ele>59.0</ele><time>2026-05-03T15:41:36.999Z</time></trkpt><trkpt lat="44.89242404991055" lon="10.06948425062844"><ele>59.0</ele><time>2026-05-03T15:41:37.999Z</time></trkpt><trkpt lat="44.89245769346852" lon="10.069284206086158"><ele>59.0</ele><time>2026-05-03T15:41:38.999Z</time></trkpt><trkpt lat="44.892489653545844" lon="10.06908252273957"><ele>59.0</ele><time>2026-05-03T15:41:39.999Z</time></trkpt><trkpt lat="44.89251912162684" lon="10.068881318253844"><ele>59.0</ele><time>2026-05-03T15:41:40.999Z</time></trkpt><trkpt lat="44.8925489183565" lon="10.06869245153553"><ele>59.0</ele><time>2026-05-03T15:41:41.999Z</time></trkpt><trkpt lat="44.89257685452085" lon="10.068518318217341"><ele>59.0</ele><time>2026-05-03T15:41:42.999Z</time></trkpt><trkpt lat="44.892603959582495" lon="10.068352280208396"><ele>59.0</ele><time>2026-05-03T15:41:43.999Z</time></trkpt><trkpt lat="44.89262944535879" lon="10.068181137514149"><ele>59.25</ele><time>2026-05-03T15:41:44.999Z</time></trkpt><trkpt lat="44.892651175008915" lon="10.067996216549782"><ele>59.5</ele><time>2026-05-03T15:41:45.999Z</time></trkpt><trkpt lat="44.89267863432722" lon="10.067810465582832"><ele>59.75</ele><time>2026-05-03T15:41:46.999Z</time></trkpt><trkpt lat="44.892707883317684" lon="10.067629671499917"><ele>60.0</ele><time>2026-05-03T15:41:47.999Z</time></trkpt><trkpt lat="44.89273511427713" lon="10.067451329626063"><ele>60.25</ele><time>2026-05-03T15:41:48.999Z</time></trkpt><trkpt lat="44.892762229570266" lon="10.067272839619653"><ele>60.5</ele><time>2026-05-03T15:41:49.999Z</time></trkpt><trkpt lat="44.892790162269165" lon="10.067092066166087"><ele>60.75</ele><time>2026-05-03T15:41:50.999Z</time></trkpt><trkpt lat="44.89281894252114" lon="10.066910915344783"><ele>61.0</ele><time>2026-05-03T15:41:51.999Z</time></trkpt><trkpt lat="44.89284828982298" lon="10.066730907563777"><ele>60.75</ele><time>2026-05-03T15:41:52.999Z</time></trkpt><trkpt lat="44.89287696786607" lon="10.06654684640137"><ele>60.5</ele><time>2026-05-03T15:41:53.999Z</time></trkpt><trkpt lat="44.89290823045833" lon="10.066362480435393"><ele>60.25</ele><time>2026-05-03T15:41:54.999Z</time></trkpt><trkpt lat="44.89293421175395" lon="10.06617959559227"><ele>60.0</ele><time>2026-05-03T15:41:55.999Z</time></trkpt><trkpt lat="44.89295996677595" lon="10.065992253855628"><ele>60.0</ele><time>2026-05-03T15:41:56.999Z</time></trkpt><trkpt lat="44.89298727411233" lon="10.065802870774357"><ele>60.0</ele><time>2026-05-03T15:41:57.999Z</time></trkpt><trkpt lat="44.89301644345415" lon="10.065610447400847"><ele>60.0</ele><time>2026-05-03T15:41:58.999Z</time></trkpt><trkpt lat="44.893046672743594" lon="10.065411732429087"><ele>60.0</ele><time>2026-05-03T15:41:59.999Z</time></trkpt><trkpt lat="44.893077229197615" lon="10.065212941746953"><ele>59.66666666666667</ele><time>2026-05-03T15:42:00.999Z</time></trkpt><trkpt lat="44.89310775874501" lon="10.065005561151555"><ele>59.333333333333336</ele><time>2026-05-03T15:42:01.999Z</time></trkpt><trkpt lat="44.89314011481949" lon="10.064797006586943"><ele>59.0</ele><time>2026-05-03T15:42:02.999Z</time></trkpt><trkpt lat="44.89317081118946" lon="10.064581275945566"><ele>59.0</ele><time>2026-05-03T15:42:03.999Z</time></trkpt><trkpt lat="44.89320335278498" lon="10.064361387610042"><ele>59.0</ele><time>2026-05-03T15:42:04.999Z</time></trkpt><trkpt lat="44.893237786263384" lon="10.064138363622197"><ele>59.0</ele><time>2026-05-03T15:42:05.999Z</time></trkpt><trkpt lat="44.89327201848086" lon="10.063913753313605"><ele>59.0</ele><time>2026-05-03T15:42:06.999Z</time></trkpt><trkpt lat="44.89330635036109" lon="10.063688344514784"><ele>59.0</ele><time>2026-05-03T15:42:07.999Z</time></trkpt><trkpt lat="44.8933422302967" lon="10.063461792928047"><ele>59.0</ele><time>2026-05-03T15:42:08.999Z</time></trkpt><trkpt lat="44.89337506087962" lon="10.063233961567528"><ele>59.0</ele><time>2026-05-03T15:42:09.999Z</time></trkpt><trkpt lat="44.89341014857599" lon="10.062998778088609"><ele>59.0</ele><time>2026-05-03T15:42:11Z</time></trkpt><trkpt lat="44.89344800041937" lon="10.062752931216119"><ele>59.0</ele><time>2026-05-03T15:42:12Z</time></trkpt><trkpt lat="44.89348341663336" lon="10.062506245481531"><ele>59.0</ele><time>2026-05-03T15:42:13Z</time></trkpt><trkpt lat="44.8935192675974" lon="10.062265878111521"><ele>59.0</ele><time>2026-05-03T15:42:14Z</time></trkpt><trkpt lat="44.89355388225409" lon="10.062043106243145"><ele>59.0</ele><time>2026-05-03T15:42:15Z</time></trkpt><trkpt lat="44.89358521008842" lon="10.061838297011196"><ele>59.0</ele><time>2026-05-03T15:42:16Z</time></trkpt><trkpt lat="44.89361476383504" lon="10.06164426686794"><ele>59.0</ele><time>2026-05-03T15:42:17Z</time></trkpt><trkpt lat="44.89364403814972" lon="10.061458248962598"><ele>59.0</ele><time>2026-05-03T15:42:18Z</time></trkpt><trkpt lat="44.89367196902492" lon="10.061271222542057"><ele>59.0</ele><time>2026-05-03T15:42:19Z</time></trkpt><trkpt lat="44.89369787892428" lon="10.061082376711159"><ele>59.0</ele><time>2026-05-03T15:42:20Z</time></trkpt><trkpt lat="44.89372433254852" lon="10.060891554969185"><ele>59.0</ele><time>2026-05-03T15:42:20.999Z</time></trkpt><trkpt lat="44.89375526718437" lon="10.06070247948072"><ele>59.0</ele><time>2026-05-03T15:42:21.999Z</time></trkpt><trkpt lat="44.89378522748188" lon="10.060510673171944"><ele>59.0</ele><time>2026-05-03T15:42:23Z</time></trkpt><trkpt lat="44.893815241770604" lon="10.060326431630012"><ele>58.5</ele><time>2026-05-03T15:42:24Z</time></trkpt><trkpt lat="44.89384300313077" lon="10.060156347228647"><ele>58.0</ele><time>2026-05-03T15:42:25Z</time></trkpt><trkpt lat="44.893868216397635" lon="10.059992897720804"><ele>57.5</ele><time>2026-05-03T15:42:26Z</time></trkpt><trkpt lat="44.89389453239617" lon="10.059825244032886"><ele>57.0</ele><time>2026-05-03T15:42:27Z</time></trkpt><trkpt lat="44.893919704636716" lon="10.059655863977015"><ele>57.0</ele><time>2026-05-03T15:42:28Z</time></trkpt><trkpt lat="44.8939443152863" lon="10.059490914010645"><ele>57.0</ele><time>2026-05-03T15:42:29Z</time></trkpt><trkpt lat="44.89396661867113" lon="10.059335286194148"><ele>57.0</ele><time>2026-05-03T15:42:30Z</time></trkpt><trkpt lat="44.893988818484175" lon="10.059180484448758"><ele>57.0</ele><time>2026-05-03T15:42:31Z</time></trkpt><trkpt lat="44.894011534532616" lon="10.059025170495438"><ele>57.25</ele><time>2026-05-03T15:42:32Z</time></trkpt><trkpt lat="44.89403581398002" lon="10.058864671062953"><ele>57.5</ele><time>2026-05-03T15:42:33Z</time></trkpt><trkpt lat="44.894061147478645" lon="10.058699636741537"><ele>57.75</ele><time>2026-05-03T15:42:34Z</time></trkpt><trkpt lat="44.89408775432757" lon="10.058528882353976"><ele>58.0</ele><time>2026-05-03T15:42:35Z</time></trkpt><trkpt lat="44.894114539211" lon="10.058351899440842"><ele>58.5</ele><time>2026-05-03T15:42:35.999Z</time></trkpt><trkpt lat="44.89414037325291" lon="10.058169120456157"><ele>59.0</ele><time>2026-05-03T15:42:36.999Z</time></trkpt><trkpt lat="44.894168913720804" lon="10.057979902372862"><ele>59.5</ele><time>2026-05-03T15:42:37.999Z</time></trkpt><trkpt lat="44.89420062987116" lon="10.057782828697576"><ele>60.0</ele><time>2026-05-03T15:42:38.999Z</time></trkpt><trkpt lat="44.8942327877512" lon="10.0575788786394"><ele>60.25</ele><time>2026-05-03T15:42:39.999Z</time></trkpt><trkpt lat="44.89426551817335" lon="10.057371173588287"><ele>60.5</ele><time>2026-05-03T15:42:40.999Z</time></trkpt><trkpt lat="44.89429633735617" lon="10.057166233556101"><ele>60.75</ele><time>2026-05-03T15:42:41.999Z</time></trkpt><trkpt lat="44.89432808163429" lon="10.056959721344567"><ele>61.0</ele><time>2026-05-03T15:42:42.999Z</time></trkpt><trkpt lat="44.89435763088462" lon="10.0567591490907"><ele>60.25</ele><time>2026-05-03T15:42:43.999Z</time></trkpt><trkpt lat="44.894388119649896" lon="10.05656120575836"><ele>59.5</ele><time>2026-05-03T15:42:44.999Z</time></trkpt><trkpt lat="44.89441800043162" lon="10.05636404933823"><ele>58.75</ele><time>2026-05-03T15:42:45.999Z</time></trkpt><trkpt lat="44.89444632975243" lon="10.056175556518921"><ele>58.0</ele><time>2026-05-03T15:42:46.999Z</time></trkpt><trkpt lat="44.8944743783207" lon="10.056000812933434"><ele>58.0</ele><time>2026-05-03T15:42:47.999Z</time></trkpt><trkpt lat="44.894500444012806" lon="10.055826235199296"><ele>58.0</ele><time>2026-05-03T15:42:48.999Z</time></trkpt><trkpt lat="44.894528122966726" lon="10.055652878032035"><ele>58.0</ele><time>2026-05-03T15:42:49.999Z</time></trkpt><trkpt lat="44.894554891490515" lon="10.055474313004204"><ele>58.0</ele><time>2026-05-03T15:42:50.999Z</time></trkpt><trkpt lat="44.89458283099794" lon="10.055295077784775"><ele>58.5</ele><time>2026-05-03T15:42:51.999Z</time></trkpt><trkpt lat="44.89461229726562" lon="10.055114136599435"><ele>59.0</ele><time>2026-05-03T15:42:52.999Z</time></trkpt><trkpt lat="44.8946448198873" lon="10.054927553330076"><ele>59.5</ele><time>2026-05-03T15:42:53.999Z</time></trkpt><trkpt lat="44.894675771173354" lon="10.054740719612813"><ele>60.0</ele><time>2026-05-03T15:42:54.999Z</time></trkpt><trkpt lat="44.89470817192917" lon="10.054549442241871"><ele>60.0</ele><time>2026-05-03T15:42:55.999Z</time></trkpt><trkpt lat="44.89474211928056" lon="10.054359338013505"><ele>60.0</ele><time>2026-05-03T15:42:56.999Z</time></trkpt><trkpt lat="44.89477638489502" lon="10.05417269750042"><ele>60.0</ele><time>2026-05-03T15:42:57.999Z</time></trkpt><trkpt lat="44.8948119785229" lon="10.053987901913008"><ele>60.0</ele><time>2026-05-03T15:42:58.999Z</time></trkpt><trkpt lat="44.8948473500861" lon="10.053808314598028"><ele>59.75</ele><time>2026-05-03T15:42:59.999Z</time></trkpt><trkpt lat="44.89488399976037" lon="10.053633063490228"><ele>59.5</ele><time>2026-05-03T15:43:00.999Z</time></trkpt><trkpt lat="44.89492167850784" lon="10.053459954808636"><ele>59.25</ele><time>2026-05-03T15:43:01.999Z</time></trkpt><trkpt lat="44.89495997118147" lon="10.053283786776198"><ele>59.0</ele><time>2026-05-03T15:43:02.999Z</time></trkpt><trkpt lat="44.8949983806688" lon="10.053104247889427"><ele>59.0</ele><time>2026-05-03T15:43:03.999Z</time></trkpt><trkpt lat="44.895039722384794" lon="10.052925014992013"><ele>59.0</ele><time>2026-05-03T15:43:04.999Z</time></trkpt><trkpt lat="44.895085611285346" lon="10.052742174300331"><ele>59.0</ele><time>2026-05-03T15:43:05.999Z</time></trkpt><trkpt lat="44.89513347680249" lon="10.052556350845801"><ele>59.0</ele><time>2026-05-03T15:43:06.999Z</time></trkpt><trkpt lat="44.89518055127177" lon="10.052366442441718"><ele>58.75</ele><time>2026-05-03T15:43:07.999Z</time></trkpt><trkpt lat="44.895229675049066" lon="10.052173580596147"><ele>58.5</ele><time>2026-05-03T15:43:08.999Z</time></trkpt><trkpt lat="44.895282111881755" lon="10.051978291809462"><ele>58.25</ele><time>2026-05-03T15:43:09.999Z</time></trkpt><trkpt lat="44.89533576448847" lon="10.051779671506969"><ele>58.0</ele><time>2026-05-03T15:43:10.999Z</time></trkpt><trkpt lat="44.895392101852636" lon="10.051577556485157"><ele>59.0</ele><time>2026-05-03T15:43:11.999Z</time></trkpt><trkpt lat="44.89545212308075" lon="10.051373729623284"><ele>60.0</ele><time>2026-05-03T15:43:12.999Z</time></trkpt><trkpt lat="44.895512628171424" lon="10.051172435942734"><ele>61.0</ele><time>2026-05-03T15:43:13.999Z</time></trkpt><trkpt lat="44.895574519592515" lon="10.050970235408704"><ele>61.33333333333333</ele><time>2026-05-03T15:43:14.999Z</time></trkpt><trkpt lat="44.895636030811616" lon="10.050769019554712"><ele>61.66666666666667</ele><time>2026-05-03T15:43:15.999Z</time></trkpt><trkpt lat="44.89569717194837" lon="10.05057026527652"><ele>62.0</ele><time>2026-05-03T15:43:16.999Z</time></trkpt><trkpt lat="44.89575941125711" lon="10.05037396569962"><ele>62.0</ele><time>2026-05-03T15:43:17.999Z</time></trkpt><trkpt lat="44.89582420561096" lon="10.05018067820041"><ele>62.0</ele><time>2026-05-03T15:43:18.999Z</time></trkpt><trkpt lat="44.8958910349531" lon="10.049987340625071"><ele>62.0</ele><time>2026-05-03T15:43:19.999Z</time></trkpt><trkpt lat="44.89595653962049" lon="10.049794579790586"><ele>62.0</ele><time>2026-05-03T15:43:20.999Z</time></trkpt><trkpt lat="44.89602030200949" lon="10.049603677583624"><ele>62.0</ele><time>2026-05-03T15:43:21.999Z</time></trkpt><trkpt lat="44.89608471147417" lon="10.04941658254986"><ele>62.0</ele><time>2026-05-03T15:43:22.999Z</time></trkpt><trkpt lat="44.89615030221088" lon="10.04923369932165"><ele>62.0</ele><time>2026-05-03T15:43:23.999Z</time></trkpt><trkpt lat="44.89621756251315" lon="10.049052280131509"><ele>62.0</ele><time>2026-05-03T15:43:24.999Z</time></trkpt><trkpt lat="44.896285297427234" lon="10.048874333409769"><ele>62.0</ele><time>2026-05-03T15:43:25.999Z</time></trkpt><trkpt lat="44.896352633045005" lon="10.048701727019154"><ele>62.0</ele><time>2026-05-03T15:43:26.999Z</time></trkpt><trkpt lat="44.896418920774174" lon="10.048534847316555"><ele>62.0</ele><time>2026-05-03T15:43:27.999Z</time></trkpt><trkpt lat="44.89648748925106" lon="10.048369779883936"><ele>61.25</ele><time>2026-05-03T15:43:28.999Z</time></trkpt><trkpt lat="44.896557782710374" lon="10.048206340738016"><ele>60.5</ele><time>2026-05-03T15:43:29.999Z</time></trkpt><trkpt lat="44.896630299607516" lon="10.048044638636496"><ele>59.75</ele><time>2026-05-03T15:43:30.999Z</time></trkpt><trkpt lat="44.896703560739915" lon="10.047878379206265"><ele>59.0</ele><time>2026-05-03T15:43:31.999Z</time></trkpt><trkpt lat="44.89677618323273" lon="10.04770873497586"><ele>58.75</ele><time>2026-05-03T15:43:32.999Z</time></trkpt><trkpt lat="44.89685073510513" lon="10.047538203100586"><ele>58.5</ele><time>2026-05-03T15:43:33.999Z</time></trkpt><trkpt lat="44.896927018265046" lon="10.047365559911933"><ele>58.25</ele><time>2026-05-03T15:43:34.999Z</time></trkpt><trkpt lat="44.89700216295209" lon="10.04719550719085"><ele>58.0</ele><time>2026-05-03T15:43:35.999Z</time></trkpt><trkpt lat="44.89707462784516" lon="10.04703117712039"><ele>58.5</ele><time>2026-05-03T15:43:36.999Z</time></trkpt><trkpt lat="44.89714694887187" lon="10.046870473181725"><ele>59.0</ele><time>2026-05-03T15:43:37.999Z</time></trkpt><trkpt lat="44.89721917995693" lon="10.04671434317305"><ele>59.5</ele><time>2026-05-03T15:43:38.999Z</time></trkpt><trkpt lat="44.89728174615919" lon="10.046572146961948"><ele>60.0</ele><time>2026-05-03T15:43:39.999Z</time></trkpt><trkpt lat="44.89732362759945" lon="10.046454778215166"><ele>60.0</ele><time>2026-05-03T15:43:40.999Z</time></trkpt><trkpt lat="44.89735891204787" lon="10.046355720231247"><ele>60.0</ele><time>2026-05-03T15:43:41.999Z</time></trkpt><trkpt lat="44.89740188059842" lon="10.04627138303741"><ele>60.0</ele><time>2026-05-03T15:43:43.999Z</time></trkpt><trkpt lat="44.897438244984365" lon="10.046193117563735"><ele>60.0</ele><time>2026-05-03T15:43:45.999Z</time></trkpt><trkpt lat="44.89746693401413" lon="10.04609826654792"><ele>60.0</ele><time>2026-05-03T15:43:47.999Z</time></trkpt><trkpt lat="44.89751797891923" lon="10.045963285142825"><ele>60.0</ele><time>2026-05-03T15:43:49.999Z</time></trkpt><trkpt lat="44.897562297416286" lon="10.045883009149255"><ele>60.0</ele><time>2026-05-03T15:43:50.999Z</time></trkpt><trkpt lat="44.89760446343156" lon="10.045796030252038"><ele>60.0</ele><time>2026-05-03T15:43:51.999Z</time></trkpt><trkpt lat="44.897645264267794" lon="10.045708308799089"><ele>60.0</ele><time>2026-05-03T15:43:52.999Z</time></trkpt><trkpt lat="44.89769317513511" lon="10.045610864845088"><ele>60.0</ele><time>2026-05-03T15:43:53.999Z</time></trkpt><trkpt lat="44.89775253611423" lon="10.04551117601242"><ele>60.0</ele><time>2026-05-03T15:43:54.999Z</time></trkpt><trkpt lat="44.8978155479121" lon="10.045401944650115"><ele>60.0</ele><time>2026-05-03T15:43:55.999Z</time></trkpt><trkpt lat="44.8978840373659" lon="10.045275019946727"><ele>60.0</ele><time>2026-05-03T15:43:56.999Z</time></trkpt><trkpt lat="44.8979606737039" lon="10.04512068505646"><ele>60.0</ele><time>2026-05-03T15:43:57.999Z</time></trkpt><trkpt lat="44.89804135605695" lon="10.04494088048922"><ele>60.0</ele><time>2026-05-03T15:43:58.999Z</time></trkpt><trkpt lat="44.89813744845513" lon="10.04474107098189"><ele>60.33333333333333</ele><time>2026-05-03T15:43:59.999Z</time></trkpt><trkpt lat="44.89824841089254" lon="10.044519205482551"><ele>60.666666666666664</ele><time>2026-05-03T15:44:00.999Z</time></trkpt><trkpt lat="44.89836707768381" lon="10.044274126231318"><ele>61.0</ele><time>2026-05-03T15:44:01.999Z</time></trkpt><trkpt lat="44.898486206549414" lon="10.044009822373017"><ele>61.0</ele><time>2026-05-03T15:44:02.999Z</time></trkpt><trkpt lat="44.89861497649315" lon="10.043737683052058"><ele>61.0</ele><time>2026-05-03T15:44:03.999Z</time></trkpt><trkpt lat="44.89872211419039" lon="10.043496766581804"><ele>61.0</ele><time>2026-05-03T15:44:04.999Z</time></trkpt><trkpt lat="44.89882901481805" lon="10.043248517011852"><ele>62.0</ele><time>2026-05-03T15:44:05.999Z</time></trkpt><trkpt lat="44.89895286919798" lon="10.042956881717487"><ele>63.0</ele><time>2026-05-03T15:44:06.999Z</time></trkpt><trkpt lat="44.89909654415545" lon="10.04263768840019"><ele>61.5</ele><time>2026-05-03T15:44:07.999Z</time></trkpt><trkpt lat="44.8992575544076" lon="10.042302235982321"><ele>60.0</ele><time>2026-05-03T15:44:08.999Z</time></trkpt><trkpt lat="44.89942759973824" lon="10.04195623025846"><ele>60.0</ele><time>2026-05-03T15:44:09.999Z</time></trkpt><trkpt lat="44.89960708660049" lon="10.041589048541509"><ele>60.0</ele><time>2026-05-03T15:44:10.999Z</time></trkpt><trkpt lat="44.89979330224403" lon="10.041204221068837"><ele>60.0</ele><time>2026-05-03T15:44:11.999Z</time></trkpt><trkpt lat="44.89998494642939" lon="10.040811347292843"><ele>60.0</ele><time>2026-05-03T15:44:12.999Z</time></trkpt><trkpt lat="44.90017121443069" lon="10.040433354003484"><ele>60.0</ele><time>2026-05-03T15:44:13.999Z</time></trkpt><trkpt lat="44.90034875582938" lon="10.040068455367013"><ele>60.0</ele><time>2026-05-03T15:44:14.999Z</time></trkpt><trkpt lat="44.900522814193266" lon="10.039710369279009"><ele>60.0</ele><time>2026-05-03T15:44:15.999Z</time></trkpt><trkpt lat="44.900699352172694" lon="10.039354864669539"><ele>60.0</ele><time>2026-05-03T15:44:17Z</time></trkpt><trkpt lat="44.90087516900405" lon="10.039000653400583"><ele>59.0</ele><time>2026-05-03T15:44:18Z</time></trkpt><trkpt lat="44.90104776396233" lon="10.038644555770205"><ele>58.0</ele><time>2026-05-03T15:44:19Z</time></trkpt><trkpt lat="44.90122238798435" lon="10.038276339727133"><ele>58.0</ele><time>2026-05-03T15:44:20Z</time></trkpt><trkpt lat="44.90140302970809" lon="10.037903141092844"><ele>58.0</ele><time>2026-05-03T15:44:21Z</time></trkpt><trkpt lat="44.90158853247018" lon="10.037520851568908"><ele>57.5</ele><time>2026-05-03T15:44:22Z</time></trkpt><trkpt lat="44.901771877031415" lon="10.037142792864504"><ele>57.0</ele><time>2026-05-03T15:44:23Z</time></trkpt><trkpt lat="44.90195357765085" lon="10.03677003900376"><ele>56.5</ele><time>2026-05-03T15:44:24Z</time></trkpt><trkpt lat="44.90213408883474" lon="10.03639992473484"><ele>56.0</ele><time>2026-05-03T15:44:25Z</time></trkpt><trkpt lat="44.90231323405685" lon="10.036031327598513"><ele>56.5</ele><time>2026-05-03T15:44:26Z</time></trkpt><trkpt lat="44.90249297631896" lon="10.035661029701982"><ele>57.0</ele><time>2026-05-03T15:44:27Z</time></trkpt><trkpt lat="44.90267239609133" lon="10.035289727271033"><ele>57.0</ele><time>2026-05-03T15:44:28Z</time></trkpt><trkpt lat="44.90285607024024" lon="10.03491347764535"><ele>57.0</ele><time>2026-05-03T15:44:29Z</time></trkpt><trkpt lat="44.903045349276255" lon="10.0345254870341"><ele>57.0</ele><time>2026-05-03T15:44:30Z</time></trkpt><trkpt lat="44.90324123200416" lon="10.03412797503859"><ele>57.0</ele><time>2026-05-03T15:44:31Z</time></trkpt><trkpt lat="44.90343973179803" lon="10.033724938115837"><ele>56.5</ele><time>2026-05-03T15:44:32Z</time></trkpt><trkpt lat="44.90363851751219" lon="10.033316363195391"><ele>56.0</ele><time>2026-05-03T15:44:33Z</time></trkpt><trkpt lat="44.903838896739735" lon="10.032902969651978"><ele>56.0</ele><time>2026-05-03T15:44:34Z</time></trkpt><trkpt lat="44.90404230197722" lon="10.032486875921464"><ele>56.0</ele><time>2026-05-03T15:44:35Z</time></trkpt><trkpt lat="44.90425180393348" lon="10.032060981861877"><ele>56.0</ele><time>2026-05-03T15:44:36Z</time></trkpt><trkpt lat="44.90446729488822" lon="10.031623068614095"><ele>56.0</ele><time>2026-05-03T15:44:37Z</time></trkpt><trkpt lat="44.904684919173306" lon="10.031176319041085"><ele>55.5</ele><time>2026-05-03T15:44:38Z</time></trkpt><trkpt lat="44.904905474997015" lon="10.0307231490781"><ele>55.0</ele><time>2026-05-03T15:44:39Z</time></trkpt><trkpt lat="44.905123443510945" lon="10.030276976243393"><ele>54.5</ele><time>2026-05-03T15:44:40Z</time></trkpt><trkpt lat="44.9053366708089" lon="10.029838842126216"><ele>54.0</ele><time>2026-05-03T15:44:41Z</time></trkpt><trkpt lat="44.905545516177725" lon="10.029408655515002"><ele>54.5</ele><time>2026-05-03T15:44:42Z</time></trkpt><trkpt lat="44.90575187182103" lon="10.028987331851665"><ele>55.0</ele><time>2026-05-03T15:44:43Z</time></trkpt><trkpt lat="44.905954754235495" lon="10.028572156661507"><ele>56.0</ele><time>2026-05-03T15:44:44Z</time></trkpt><trkpt lat="44.906149642501966" lon="10.028169683431098"><ele>57.0</ele><time>2026-05-03T15:44:44.999Z</time></trkpt><trkpt lat="44.906339726268406" lon="10.027777043985795"><ele>55.5</ele><time>2026-05-03T15:44:45.999Z</time></trkpt><trkpt lat="44.90653221753156" lon="10.027385583339921"><ele>54.0</ele><time>2026-05-03T15:44:46.999Z</time></trkpt><trkpt lat="44.90672583122363" lon="10.026991297517071"><ele>55.5</ele><time>2026-05-03T15:44:47.999Z</time></trkpt><trkpt lat="44.90692022260642" lon="10.026589668471495"><ele>57.0</ele><time>2026-05-03T15:44:48.999Z</time></trkpt><trkpt lat="44.907110720905656" lon="10.026199578029207"><ele>56.0</ele><time>2026-05-03T15:44:49.999Z</time></trkpt><trkpt lat="44.90731103546458" lon="10.025792420482908"><ele>55.0</ele><time>2026-05-03T15:44:50.999Z</time></trkpt><trkpt lat="44.90751886075057" lon="10.02536623718007"><ele>55.0</ele><time>2026-05-03T15:44:51.999Z</time></trkpt><trkpt lat="44.90772751524833" lon="10.024937796466192"><ele>55.0</ele><time>2026-05-03T15:44:52.999Z</time></trkpt><trkpt lat="44.907939638188786" lon="10.024501248336197"><ele>55.5</ele><time>2026-05-03T15:44:53.999Z</time></trkpt><trkpt lat="44.908157332350285" lon="10.024060811664478"><ele>56.0</ele><time>2026-05-03T15:44:54.999Z</time></trkpt><trkpt lat="44.90836960479354" lon="10.023628547722172"><ele>57.0</ele><time>2026-05-03T15:44:55.999Z</time></trkpt><trkpt lat="44.908576793039316" lon="10.023201372097299"><ele>58.0</ele><time>2026-05-03T15:44:56.999Z</time></trkpt><trkpt lat="44.90878416394647" lon="10.022792438108082"><ele>57.5</ele><time>2026-05-03T15:44:57.999Z</time></trkpt><trkpt lat="44.90898626091823" lon="10.022394788610862"><ele>57.0</ele><time>2026-05-03T15:44:58.999Z</time></trkpt><trkpt lat="44.90918691327747" lon="10.021999901476907"><ele>56.5</ele><time>2026-05-03T15:44:59.999Z</time></trkpt><trkpt lat="44.909388836009434" lon="10.021611226313974"><ele>56.0</ele><time>2026-05-03T15:45:00.999Z</time></trkpt><trkpt lat="44.90958633004746" lon="10.021222040644973"><ele>56.0</ele><time>2026-05-03T15:45:01.999Z</time></trkpt><trkpt lat="44.90978693438373" lon="10.02083905401138"><ele>56.0</ele><time>2026-05-03T15:45:02.999Z</time></trkpt><trkpt lat="44.909986436995126" lon="10.020450801889773"><ele>55.5</ele><time>2026-05-03T15:45:03.999Z</time></trkpt><trkpt lat="44.910183613121966" lon="10.02005925715587"><ele>55.0</ele><time>2026-05-03T15:45:04.999Z</time></trkpt><trkpt lat="44.910378523274055" lon="10.019661454213304"><ele>55.0</ele><time>2026-05-03T15:45:05.999Z</time></trkpt><trkpt lat="44.91057482823353" lon="10.019264007213389"><ele>55.0</ele><time>2026-05-03T15:45:06.999Z</time></trkpt><trkpt lat="44.910769734986935" lon="10.018864028535956"><ele>55.5</ele><time>2026-05-03T15:45:07.999Z</time></trkpt><trkpt lat="44.91095864592874" lon="10.018460302064472"><ele>56.0</ele><time>2026-05-03T15:45:08.999Z</time></trkpt><trkpt lat="44.911152600874466" lon="10.018061311370696"><ele>56.0</ele><time>2026-05-03T15:45:09.999Z</time></trkpt><trkpt lat="44.911344439839795" lon="10.017666662071242"><ele>56.0</ele><time>2026-05-03T15:45:10.999Z</time></trkpt><trkpt lat="44.9115409497316" lon="10.017274364267884"><ele>56.0</ele><time>2026-05-03T15:45:11.999Z</time></trkpt><trkpt lat="44.91172950687331" lon="10.016886631540054"><ele>56.0</ele><time>2026-05-03T15:45:12.999Z</time></trkpt><trkpt lat="44.91191066264271" lon="10.016503981820868"><ele>56.0</ele><time>2026-05-03T15:45:13.999Z</time></trkpt><trkpt lat="44.912095103043654" lon="10.016120944811925"><ele>56.0</ele><time>2026-05-03T15:45:14.999Z</time></trkpt><trkpt lat="44.91227584372069" lon="10.015741248954924"><ele>56.0</ele><time>2026-05-03T15:45:15.999Z</time></trkpt><trkpt lat="44.91245308123763" lon="10.015369089177806"><ele>56.0</ele><time>2026-05-03T15:45:16.999Z</time></trkpt><trkpt lat="44.91262633478567" lon="10.014993511735051"><ele>55.0</ele><time>2026-05-03T15:45:17.999Z</time></trkpt><trkpt lat="44.91279789434979" lon="10.014618012625464"><ele>54.0</ele><time>2026-05-03T15:45:18.999Z</time></trkpt><trkpt lat="44.91297764244257" lon="10.014245867081067"><ele>55.0</ele><time>2026-05-03T15:45:19.999Z</time></trkpt><trkpt lat="44.913155352705274" lon="10.013876582328322"><ele>56.0</ele><time>2026-05-03T15:45:20.999Z</time></trkpt><trkpt lat="44.91333380861139" lon="10.013506371931173"><ele>56.0</ele><time>2026-05-03T15:45:21.999Z</time></trkpt><trkpt lat="44.9135149332551" lon="10.013136442313206"><ele>56.0</ele><time>2026-05-03T15:45:22.999Z</time></trkpt><trkpt lat="44.91369657601673" lon="10.01276533171169"><ele>56.5</ele><time>2026-05-03T15:45:23.999Z</time></trkpt><trkpt lat="44.913869666765464" lon="10.012387211121434"><ele>57.0</ele><time>2026-05-03T15:45:24.999Z</time></trkpt><trkpt lat="44.914041531735094" lon="10.011998872075791"><ele>58.0</ele><time>2026-05-03T15:45:25.999Z</time></trkpt><trkpt lat="44.914195287099034" lon="10.011612954771168"><ele>59.0</ele><time>2026-05-03T15:45:26.999Z</time></trkpt><trkpt lat="44.91441440052163" lon="10.011213624824162"><ele>56.5</ele><time>2026-05-03T15:45:27.999Z</time></trkpt><trkpt lat="44.914605914190474" lon="10.010817634776515"><ele>54.0</ele><time>2026-05-03T15:45:28.999Z</time></trkpt><trkpt lat="44.91480039201735" lon="10.010433287756154"><ele>54.0</ele><time>2026-05-03T15:45:29.999Z</time></trkpt><trkpt lat="44.91499461904186" lon="10.010034662319315"><ele>54.0</ele><time>2026-05-03T15:45:30.999Z</time></trkpt><trkpt lat="44.915182644157326" lon="10.0096287928868"><ele>54.0</ele><time>2026-05-03T15:45:31.999Z</time></trkpt><trkpt lat="44.91537821630449" lon="10.009242055342646"><ele>54.0</ele><time>2026-05-03T15:45:32.999Z</time></trkpt><trkpt lat="44.91556863041844" lon="10.008840557866511"><ele>54.5</ele><time>2026-05-03T15:45:33.999Z</time></trkpt><trkpt lat="44.91576466738028" lon="10.008451861271018"><ele>55.0</ele><time>2026-05-03T15:45:34.999Z</time></trkpt><trkpt lat="44.915956088622565" lon="10.008056997012718"><ele>55.0</ele><time>2026-05-03T15:45:35.999Z</time></trkpt><trkpt lat="44.916145876682855" lon="10.007660400115522"><ele>55.0</ele><time>2026-05-03T15:45:36.999Z</time></trkpt><trkpt lat="44.91633679916647" lon="10.00727390615972"><ele>55.5</ele><time>2026-05-03T15:45:37.999Z</time></trkpt><trkpt lat="44.91652927854022" lon="10.00689134829511"><ele>56.0</ele><time>2026-05-03T15:45:38.999Z</time></trkpt><trkpt lat="44.916717698958095" lon="10.006504671771715"><ele>56.0</ele><time>2026-05-03T15:45:39.999Z</time></trkpt><trkpt lat="44.916904020662926" lon="10.006120986524298"><ele>56.0</ele><time>2026-05-03T15:45:40.999Z</time></trkpt><trkpt lat="44.917088085192795" lon="10.005737022344015"><ele>56.0</ele><time>2026-05-03T15:45:41.999Z</time></trkpt><trkpt lat="44.91727388289212" lon="10.005357084913443"><ele>56.0</ele><time>2026-05-03T15:45:42.999Z</time></trkpt><trkpt lat="44.917460545461836" lon="10.004975736965761"><ele>55.5</ele><time>2026-05-03T15:45:43.999Z</time></trkpt><trkpt lat="44.917645911095306" lon="10.004596520761234"><ele>55.0</ele><time>2026-05-03T15:45:44.999Z</time></trkpt><trkpt lat="44.91783315008103" lon="10.004212769959807"><ele>54.0</ele><time>2026-05-03T15:45:45.999Z</time></trkpt><trkpt lat="44.91802162263" lon="10.00382879325466"><ele>53.0</ele><time>2026-05-03T15:45:46.999Z</time></trkpt><trkpt lat="44.918209689594384" lon="10.003445323898775"><ele>53.5</ele><time>2026-05-03T15:45:47.999Z</time></trkpt><trkpt lat="44.918397369023175" lon="10.003062106193813"><ele>54.0</ele><time>2026-05-03T15:45:48.999Z</time></trkpt><trkpt lat="44.918589924985014" lon="10.002676143453892"><ele>53.0</ele><time>2026-05-03T15:45:49.999Z</time></trkpt><trkpt lat="44.91877985785325" lon="10.002288955278214"><ele>52.0</ele><time>2026-05-03T15:45:50.999Z</time></trkpt><trkpt lat="44.9189691815167" lon="10.001898976266391"><ele>52.0</ele><time>2026-05-03T15:45:51.999Z</time></trkpt><trkpt lat="44.91915649283467" lon="10.001507534181048"><ele>52.0</ele><time>2026-05-03T15:45:52.999Z</time></trkpt><trkpt lat="44.91934530338168" lon="10.001116875264621"><ele>54.0</ele><time>2026-05-03T15:45:53.999Z</time></trkpt><trkpt lat="44.9195355166044" lon="10.000728636077675"><ele>56.0</ele><time>2026-05-03T15:45:54.999Z</time></trkpt><trkpt lat="44.91972359664555" lon="10.000341757019584"><ele>56.0</ele><time>2026-05-03T15:45:55.999Z</time></trkpt><trkpt lat="44.919911649900484" lon="9.999956950740884"><ele>56.0</ele><time>2026-05-03T15:45:56.999Z</time></trkpt><trkpt lat="44.92009721651528" lon="9.99957274627441"><ele>54.5</ele><time>2026-05-03T15:45:57.999Z</time></trkpt><trkpt lat="44.920282752061446" lon="9.999191655440876"><ele>53.0</ele><time>2026-05-03T15:45:58.999Z</time></trkpt><trkpt lat="44.92046389302458" lon="9.998814874591158"><ele>53.0</ele><time>2026-05-03T15:45:59.999Z</time></trkpt><trkpt lat="44.920647068166" lon="9.998435794892016"><ele>53.0</ele><time>2026-05-03T15:46:00.999Z</time></trkpt><trkpt lat="44.920833717937576" lon="9.99805339496166"><ele>52.5</ele><time>2026-05-03T15:46:01.999Z</time></trkpt><trkpt lat="44.921021962062625" lon="9.997668313211047"><ele>52.0</ele><time>2026-05-03T15:46:02.999Z</time></trkpt><trkpt lat="44.92120976453557" lon="9.997284477645778"><ele>52.0</ele><time>2026-05-03T15:46:03.999Z</time></trkpt><trkpt lat="44.92139662615261" lon="9.996902123909695"><ele>52.0</ele><time>2026-05-03T15:46:04.999Z</time></trkpt><trkpt lat="44.921586079268074" lon="9.996521997402589"><ele>53.0</ele><time>2026-05-03T15:46:05.999Z</time></trkpt><trkpt lat="44.92177460026824" lon="9.99613843757649"><ele>54.0</ele><time>2026-05-03T15:46:06.999Z</time></trkpt><trkpt lat="44.92196151516777" lon="9.995749846915643"><ele>54.0</ele><time>2026-05-03T15:46:07.999Z</time></trkpt><trkpt lat="44.92214945498082" lon="9.99536073763478"><ele>54.0</ele><time>2026-05-03T15:46:08.999Z</time></trkpt><trkpt lat="44.922339016061684" lon="9.99497268650631"><ele>54.0</ele><time>2026-05-03T15:46:09.999Z</time></trkpt><trkpt lat="44.922527853047484" lon="9.994586964473005"><ele>54.0</ele><time>2026-05-03T15:46:10.999Z</time></trkpt><trkpt lat="44.92271435889403" lon="9.994201410512096"><ele>53.0</ele><time>2026-05-03T15:46:11.999Z</time></trkpt><trkpt lat="44.92290007270381" lon="9.993817325436666"><ele>52.0</ele><time>2026-05-03T15:46:12.999Z</time></trkpt><trkpt lat="44.923086362780865" lon="9.993434499385033"><ele>51.5</ele><time>2026-05-03T15:46:13.999Z</time></trkpt><trkpt lat="44.9232700518353" lon="9.99305431271371"><ele>51.0</ele><time>2026-05-03T15:46:14.999Z</time></trkpt><trkpt lat="44.92345639341268" lon="9.992677719020671"><ele>51.0</ele><time>2026-05-03T15:46:15.999Z</time></trkpt><trkpt lat="44.92364547995516" lon="9.992305706457499"><ele>51.0</ele><time>2026-05-03T15:46:16.999Z</time></trkpt><trkpt lat="44.92383781449145" lon="9.991938146560749"><ele>51.0</ele><time>2026-05-03T15:46:17.999Z</time></trkpt><trkpt lat="44.92403084952235" lon="9.991571291225606"><ele>51.0</ele><time>2026-05-03T15:46:18.999Z</time></trkpt><trkpt lat="44.92422163235064" lon="9.991204318050224"><ele>51.0</ele><time>2026-05-03T15:46:19.999Z</time></trkpt><trkpt lat="44.924409684927284" lon="9.990835760979303"><ele>51.0</ele><time>2026-05-03T15:46:20.999Z</time></trkpt><trkpt lat="44.924596988033365" lon="9.990468411626214"><ele>51.0</ele><time>2026-05-03T15:46:21.999Z</time></trkpt><trkpt lat="44.924784352116426" lon="9.990098652556716"><ele>51.0</ele><time>2026-05-03T15:46:23Z</time></trkpt><trkpt lat="44.92496926138066" lon="9.989727306550483"><ele>51.5</ele><time>2026-05-03T15:46:24Z</time></trkpt><trkpt lat="44.92515458092159" lon="9.989352579497782"><ele>52.0</ele><time>2026-05-03T15:46:25Z</time></trkpt><trkpt lat="44.92533891279662" lon="9.988980260691301"><ele>52.5</ele><time>2026-05-03T15:46:26Z</time></trkpt><trkpt lat="44.925521160881765" lon="9.988607848437653"><ele>53.0</ele><time>2026-05-03T15:46:27Z</time></trkpt><trkpt lat="44.925702346984025" lon="9.988236653334175"><ele>52.0</ele><time>2026-05-03T15:46:28Z</time></trkpt><trkpt lat="44.9258839222756" lon="9.987863603257335"><ele>51.0</ele><time>2026-05-03T15:46:29Z</time></trkpt><trkpt lat="44.92606567862665" lon="9.987490540974374"><ele>50.0</ele><time>2026-05-03T15:46:30Z</time></trkpt><trkpt lat="44.9262470996338" lon="9.987118961384434"><ele>49.0</ele><time>2026-05-03T15:46:31Z</time></trkpt><trkpt lat="44.92642750908411" lon="9.986748306035885"><ele>49.0</ele><time>2026-05-03T15:46:32Z</time></trkpt><trkpt lat="44.9266097351675" lon="9.98637474751136"><ele>49.0</ele><time>2026-05-03T15:46:33Z</time></trkpt><trkpt lat="44.92679049165331" lon="9.986003876112123"><ele>49.0</ele><time>2026-05-03T15:46:34Z</time></trkpt><trkpt lat="44.92697172728736" lon="9.985629776258117"><ele>49.0</ele><time>2026-05-03T15:46:35Z</time></trkpt><trkpt lat="44.92715214049302" lon="9.985258427189438"><ele>49.0</ele><time>2026-05-03T15:46:36Z</time></trkpt><trkpt lat="44.92733327475857" lon="9.984885748309136"><ele>49.0</ele><time>2026-05-03T15:46:37Z</time></trkpt><trkpt lat="44.927512920676726" lon="9.984515305838796"><ele>49.0</ele><time>2026-05-03T15:46:38Z</time></trkpt><trkpt lat="44.92769205061197" lon="9.98414441889337"><ele>49.0</ele><time>2026-05-03T15:46:39Z</time></trkpt><trkpt lat="44.92787284395853" lon="9.983773916010426"><ele>49.0</ele><time>2026-05-03T15:46:40Z</time></trkpt><trkpt lat="44.928053475618746" lon="9.98340418000845"><ele>49.0</ele><time>2026-05-03T15:46:41Z</time></trkpt><trkpt lat="44.92823436435304" lon="9.983034520011373"><ele>49.0</ele><time>2026-05-03T15:46:42Z</time></trkpt><trkpt lat="44.92841450635698" lon="9.982664703609936"><ele>49.0</ele><time>2026-05-03T15:46:43Z</time></trkpt><trkpt lat="44.9285940835827" lon="9.982294096587857"><ele>49.0</ele><time>2026-05-03T15:46:44Z</time></trkpt><trkpt lat="44.928773333886475" lon="9.981923644826592"><ele>49.0</ele><time>2026-05-03T15:46:45Z</time></trkpt><trkpt lat="44.92895255555732" lon="9.981552599876006"><ele>49.0</ele><time>2026-05-03T15:46:46Z</time></trkpt><trkpt lat="44.92913343949221" lon="9.981182777156414"><ele>49.0</ele><time>2026-05-03T15:46:47Z</time></trkpt><trkpt lat="44.92931500939914" lon="9.980811340030085"><ele>49.5</ele><time>2026-05-03T15:46:47.999Z</time></trkpt><trkpt lat="44.92949652571181" lon="9.980437710496675"><ele>50.0</ele><time>2026-05-03T15:46:48.999Z</time></trkpt><trkpt lat="44.929681913966434" lon="9.980052382836424"><ele>50.5</ele><time>2026-05-03T15:46:49.999Z</time></trkpt><trkpt lat="44.929862553342126" lon="9.979680021778062"><ele>51.0</ele><time>2026-05-03T15:46:50.999Z</time></trkpt><trkpt lat="44.9300477933471" lon="9.979303913655814"><ele>50.0</ele><time>2026-05-03T15:46:51.999Z</time></trkpt><trkpt lat="44.930231694514376" lon="9.978927722947198"><ele>49.0</ele><time>2026-05-03T15:46:52.999Z</time></trkpt><trkpt lat="44.93041628719067" lon="9.978548769675461"><ele>49.5</ele><time>2026-05-03T15:46:53.999Z</time></trkpt><trkpt lat="44.93060205801532" lon="9.97817472053197"><ele>50.0</ele><time>2026-05-03T15:46:54.999Z</time></trkpt><trkpt lat="44.93078701049367" lon="9.977798428124617"><ele>49.5</ele><time>2026-05-03T15:46:55.999Z</time></trkpt><trkpt lat="44.930971254584655" lon="9.977424261481456"><ele>49.0</ele><time>2026-05-03T15:46:56.999Z</time></trkpt><trkpt lat="44.93115429538517" lon="9.977053820328463"><ele>49.0</ele><time>2026-05-03T15:46:57.999Z</time></trkpt><trkpt lat="44.9313349532818" lon="9.97668239084388"><ele>49.0</ele><time>2026-05-03T15:46:58.999Z</time></trkpt><trkpt lat="44.931513741190045" lon="9.97631050322029"><ele>49.0</ele><time>2026-05-03T15:46:59.999Z</time></trkpt><trkpt lat="44.931692229627096" lon="9.975939753166935"><ele>49.0</ele><time>2026-05-03T15:47:00.999Z</time></trkpt><trkpt lat="44.93187165040892" lon="9.975568278745493"><ele>49.0</ele><time>2026-05-03T15:47:01.999Z</time></trkpt><trkpt lat="44.93205055141375" lon="9.975195455874939"><ele>49.0</ele><time>2026-05-03T15:47:02.999Z</time></trkpt><trkpt lat="44.93222937242961" lon="9.974825621133643"><ele>49.0</ele><time>2026-05-03T15:47:03.999Z</time></trkpt><trkpt lat="44.93240889453388" lon="9.974456681909324"><ele>49.0</ele><time>2026-05-03T15:47:04.999Z</time></trkpt><trkpt lat="44.93259029632362" lon="9.974084746960353"><ele>48.5</ele><time>2026-05-03T15:47:05.999Z</time></trkpt><trkpt lat="44.93277264602109" lon="9.973712158887565"><ele>48.0</ele><time>2026-05-03T15:47:06.999Z</time></trkpt><trkpt lat="44.93295137912549" lon="9.973343840595374"><ele>48.0</ele><time>2026-05-03T15:47:07.999Z</time></trkpt><trkpt lat="44.93313088002586" lon="9.972975819823805"><ele>48.0</ele><time>2026-05-03T15:47:08.999Z</time></trkpt><trkpt lat="44.93331202590152" lon="9.972608223050525"><ele>48.0</ele><time>2026-05-03T15:47:09.999Z</time></trkpt><trkpt lat="44.933491333225604" lon="9.972238311083581"><ele>48.0</ele><time>2026-05-03T15:47:10.999Z</time></trkpt><trkpt lat="44.93366773766503" lon="9.971868561752517"><ele>47.0</ele><time>2026-05-03T15:47:11.999Z</time></trkpt><trkpt lat="44.93384464606221" lon="9.971494772563483"><ele>46.0</ele><time>2026-05-03T15:47:12.999Z</time></trkpt><trkpt lat="44.934024407697464" lon="9.971135526156946"><ele>46.5</ele><time>2026-05-03T15:47:13.999Z</time></trkpt><trkpt lat="44.9341909698799" lon="9.970756328443947"><ele>47.0</ele><time>2026-05-03T15:47:14.999Z</time></trkpt><trkpt lat="44.93436623920002" lon="9.970386720305141"><ele>46.5</ele><time>2026-05-03T15:47:15.999Z</time></trkpt><trkpt lat="44.93454328525031" lon="9.97002391094368"><ele>46.0</ele><time>2026-05-03T15:47:16.999Z</time></trkpt><trkpt lat="44.934721721329076" lon="9.96965532641911"><ele>46.0</ele><time>2026-05-03T15:47:17.999Z</time></trkpt><trkpt lat="44.934898713120056" lon="9.969292396748763"><ele>46.0</ele><time>2026-05-03T15:47:18.999Z</time></trkpt><trkpt lat="44.93507171967816" lon="9.968930919845906"><ele>46.5</ele><time>2026-05-03T15:47:19.999Z</time></trkpt><trkpt lat="44.935246541495175" lon="9.968566823756113"><ele>47.0</ele><time>2026-05-03T15:47:20.999Z</time></trkpt><trkpt lat="44.9354201760397" lon="9.968207290189328"><ele>47.0</ele><time>2026-05-03T15:47:21.999Z</time></trkpt><trkpt lat="44.935595871559165" lon="9.96784238897846"><ele>47.0</ele><time>2026-05-03T15:47:22.999Z</time></trkpt><trkpt lat="44.93577085249797" lon="9.967482385130896"><ele>47.0</ele><time>2026-05-03T15:47:23.999Z</time></trkpt><trkpt lat="44.93594633843455" lon="9.967124465977511"><ele>47.0</ele><time>2026-05-03T15:47:24.999Z</time></trkpt><trkpt lat="44.9361258818588" lon="9.96676647636912"><ele>47.0</ele><time>2026-05-03T15:47:25.999Z</time></trkpt><trkpt lat="44.93630105970324" lon="9.966409315174507"><ele>47.0</ele><time>2026-05-03T15:47:26.999Z</time></trkpt><trkpt lat="44.93647438131264" lon="9.966051199771249"><ele>47.5</ele><time>2026-05-03T15:47:27.999Z</time></trkpt><trkpt lat="44.93664811301984" lon="9.965692385632885"><ele>48.0</ele><time>2026-05-03T15:47:28.999Z</time></trkpt><trkpt lat="44.93682097743702" lon="9.965334746634028"><ele>49.5</ele><time>2026-05-03T15:47:29.999Z</time></trkpt><trkpt lat="44.936995327951145" lon="9.964976540526616"><ele>51.0</ele><time>2026-05-03T15:47:30.999Z</time></trkpt><trkpt lat="44.9371696043569" lon="9.964619950135921"><ele>51.0</ele><time>2026-05-03T15:47:31.999Z</time></trkpt><trkpt lat="44.93734529085057" lon="9.964261883743005"><ele>51.0</ele><time>2026-05-03T15:47:32.999Z</time></trkpt><trkpt lat="44.93752182251071" lon="9.963906621632834"><ele>50.5</ele><time>2026-05-03T15:47:33.999Z</time></trkpt><trkpt lat="44.93769711027406" lon="9.963549515205107"><ele>50.0</ele><time>2026-05-03T15:47:34.999Z</time></trkpt><trkpt lat="44.937871563799355" lon="9.963191095617667"><ele>49.5</ele><time>2026-05-03T15:47:35.999Z</time></trkpt><trkpt lat="44.93804609883451" lon="9.962833505209264"><ele>49.0</ele><time>2026-05-03T15:47:36.999Z</time></trkpt><trkpt lat="44.93822078852913" lon="9.962475763377517"><ele>49.0</ele><time>2026-05-03T15:47:37.999Z</time></trkpt><trkpt lat="44.938394796456286" lon="9.962115416136042"><ele>49.0</ele><time>2026-05-03T15:47:38.999Z</time></trkpt><trkpt lat="44.938567614896435" lon="9.961759725980993"><ele>48.5</ele><time>2026-05-03T15:47:39.999Z</time></trkpt><trkpt lat="44.938739037606105" lon="9.96140265932686"><ele>48.0</ele><time>2026-05-03T15:47:40.999Z</time></trkpt><trkpt lat="44.93890840285218" lon="9.961044143227614"><ele>48.5</ele><time>2026-05-03T15:47:41.999Z</time></trkpt><trkpt lat="44.93907734036213" lon="9.960686446251435"><ele>49.0</ele><time>2026-05-03T15:47:42.999Z</time></trkpt><trkpt lat="44.9392453810418" lon="9.960327544067678"><ele>50.0</ele><time>2026-05-03T15:47:43.999Z</time></trkpt><trkpt lat="44.93940966907457" lon="9.959969080526335"><ele>51.0</ele><time>2026-05-03T15:47:44.999Z</time></trkpt><trkpt lat="44.939571820860884" lon="9.95960989428123"><ele>51.0</ele><time>2026-05-03T15:47:45.999Z</time></trkpt><trkpt lat="44.93973297833126" lon="9.95924937924772"><ele>51.0</ele><time>2026-05-03T15:47:46.999Z</time></trkpt><trkpt lat="44.93989310337782" lon="9.958886197734497"><ele>51.0</ele><time>2026-05-03T15:47:47.999Z</time></trkpt><trkpt lat="44.940050378133" lon="9.958523018401793"><ele>51.0</ele><time>2026-05-03T15:47:48.999Z</time></trkpt><trkpt lat="44.94020626132401" lon="9.958157634465012"><ele>51.0</ele><time>2026-05-03T15:47:49.999Z</time></trkpt><trkpt lat="44.9403612794782" lon="9.95778974126122"><ele>51.0</ele><time>2026-05-03T15:47:50.999Z</time></trkpt><trkpt lat="44.9405188038904" lon="9.95742506206364"><ele>51.0</ele><time>2026-05-03T15:47:51.999Z</time></trkpt><trkpt lat="44.94067826703735" lon="9.957067817842946"><ele>51.0</ele><time>2026-05-03T15:47:52.999Z</time></trkpt><trkpt lat="44.940836218935715" lon="9.956708846441666"><ele>51.0</ele><time>2026-05-03T15:47:53.999Z</time></trkpt><trkpt lat="44.94099408568679" lon="9.956352116069752"><ele>51.0</ele><time>2026-05-03T15:47:54.999Z</time></trkpt><trkpt lat="44.941150265034736" lon="9.955991442364557"><ele>51.5</ele><time>2026-05-03T15:47:55.999Z</time></trkpt><trkpt lat="44.941305918834566" lon="9.955629077050299"><ele>52.0</ele><time>2026-05-03T15:47:56.999Z</time></trkpt><trkpt lat="44.9414587246879" lon="9.955267104774672"><ele>51.5</ele><time>2026-05-03T15:47:57.999Z</time></trkpt><trkpt lat="44.941611170846805" lon="9.954906361497466"><ele>51.0</ele><time>2026-05-03T15:47:58.999Z</time></trkpt><trkpt lat="44.94176361794575" lon="9.954547266043123"><ele>51.5</ele><time>2026-05-03T15:47:59.999Z</time></trkpt><trkpt lat="44.941915843062425" lon="9.954188062074234"><ele>52.0</ele><time>2026-05-03T15:48:00.999Z</time></trkpt><trkpt lat="44.94206726212514" lon="9.95383087232529"><ele>52.0</ele><time>2026-05-03T15:48:01.999Z</time></trkpt><trkpt lat="44.94221758998455" lon="9.95347192726599"><ele>52.0</ele><time>2026-05-03T15:48:02.999Z</time></trkpt><trkpt lat="44.942368215923544" lon="9.953115444736863"><ele>52.0</ele><time>2026-05-03T15:48:03.999Z</time></trkpt><trkpt lat="44.94252075676154" lon="9.952762481604687"><ele>52.0</ele><time>2026-05-03T15:48:04.999Z</time></trkpt><trkpt lat="44.94266887090202" lon="9.952417110362447"><ele>52.0</ele><time>2026-05-03T15:48:05.999Z</time></trkpt><trkpt lat="44.94281367684927" lon="9.952071848787948"><ele>52.0</ele><time>2026-05-03T15:48:06.999Z</time></trkpt><trkpt lat="44.942958611398694" lon="9.951729161037212"><ele>52.0</ele><time>2026-05-03T15:48:07.999Z</time></trkpt><trkpt lat="44.94310571622696" lon="9.951389547399048"><ele>52.0</ele><time>2026-05-03T15:48:08.999Z</time></trkpt><trkpt lat="44.943250775776676" lon="9.951049448954178"><ele>51.5</ele><time>2026-05-03T15:48:09.999Z</time></trkpt><trkpt lat="44.94339585662824" lon="9.95070915297099"><ele>51.0</ele><time>2026-05-03T15:48:10.999Z</time></trkpt><trkpt lat="44.943541945307544" lon="9.950368376714499"><ele>51.5</ele><time>2026-05-03T15:48:11.999Z</time></trkpt><trkpt lat="44.94368789082434" lon="9.95002778166877"><ele>52.0</ele><time>2026-05-03T15:48:12.999Z</time></trkpt><trkpt lat="44.94383375360703" lon="9.949687145110166"><ele>52.0</ele><time>2026-05-03T15:48:13.999Z</time></trkpt><trkpt lat="44.943980553549004" lon="9.949347473447975"><ele>52.0</ele><time>2026-05-03T15:48:15Z</time></trkpt><trkpt lat="44.94412843866323" lon="9.949006361284168"><ele>53.0</ele><time>2026-05-03T15:48:16Z</time></trkpt><trkpt lat="44.944276351224914" lon="9.94866428306151"><ele>54.0</ele><time>2026-05-03T15:48:17Z</time></trkpt><trkpt lat="44.94442088452429" lon="9.94832346196994"><ele>54.5</ele><time>2026-05-03T15:48:18Z</time></trkpt><trkpt lat="44.94456408125524" lon="9.947983321088081"><ele>55.0</ele><time>2026-05-03T15:48:19Z</time></trkpt><trkpt lat="44.944708573007325" lon="9.947648687001216"><ele>55.0</ele><time>2026-05-03T15:48:20Z</time></trkpt><trkpt lat="44.94485545586624" lon="9.947305928159729"><ele>55.0</ele><time>2026-05-03T15:48:21Z</time></trkpt><trkpt lat="44.94500310086579" lon="9.946969743256616"><ele>54.5</ele><time>2026-05-03T15:48:22Z</time></trkpt><trkpt lat="44.945153519018945" lon="9.946636223864207"><ele>54.0</ele><time>2026-05-03T15:48:23Z</time></trkpt><trkpt lat="44.94530456865262" lon="9.946303052182868"><ele>54.0</ele><time>2026-05-03T15:48:24Z</time></trkpt><trkpt lat="44.94545448825124" lon="9.94597041135659"><ele>54.0</ele><time>2026-05-03T15:48:25Z</time></trkpt><trkpt lat="44.94560312056885" lon="9.94563402321071"><ele>54.0</ele><time>2026-05-03T15:48:26Z</time></trkpt><trkpt lat="44.945750089463864" lon="9.945295582453106"><ele>54.0</ele><time>2026-05-03T15:48:27Z</time></trkpt><trkpt lat="44.945896074489944" lon="9.9449558020869"><ele>54.0</ele><time>2026-05-03T15:48:28Z</time></trkpt><trkpt lat="44.94604143462434" lon="9.94461446989445"><ele>54.0</ele><time>2026-05-03T15:48:29.001Z</time></trkpt><trkpt lat="44.94618643609649" lon="9.94427448507929"><ele>53.5</ele><time>2026-05-03T15:48:30.001Z</time></trkpt><trkpt lat="44.9463313490785" lon="9.943932763639523"><ele>53.0</ele><time>2026-05-03T15:48:31.001Z</time></trkpt><trkpt lat="44.94647534747384" lon="9.943590777605968"><ele>53.5</ele><time>2026-05-03T15:48:32.001Z</time></trkpt><trkpt lat="44.94661927538776" lon="9.943246325090612"><ele>54.0</ele><time>2026-05-03T15:48:33.001Z</time></trkpt><trkpt lat="44.94676493162249" lon="9.942902546392613"><ele>54.0</ele><time>2026-05-03T15:48:34.001Z</time></trkpt><trkpt lat="44.946910844393365" lon="9.942556945906896"><ele>54.0</ele><time>2026-05-03T15:48:35.001Z</time></trkpt><trkpt lat="44.94705778472307" lon="9.942216626715245"><ele>53.5</ele><time>2026-05-03T15:48:36.001Z</time></trkpt><trkpt lat="44.94720619102264" lon="9.941872503493668"><ele>53.0</ele><time>2026-05-03T15:48:37.001Z</time></trkpt><trkpt lat="44.9473572473188" lon="9.941524735339252"><ele>54.5</ele><time>2026-05-03T15:48:38.001Z</time></trkpt><trkpt lat="44.947508288949535" lon="9.941175863112967"><ele>56.0</ele><time>2026-05-03T15:48:39.001Z</time></trkpt><trkpt lat="44.94765899893892" lon="9.940821209473315"><ele>56.0</ele><time>2026-05-03T15:48:40.001Z</time></trkpt><trkpt lat="44.94780868626746" lon="9.940462806896203"><ele>56.0</ele><time>2026-05-03T15:48:41.001Z</time></trkpt><trkpt lat="44.94795922215678" lon="9.940101089048113"><ele>57.0</ele><time>2026-05-03T15:48:42.001Z</time></trkpt><trkpt lat="44.948111697335555" lon="9.93973909197777"><ele>58.0</ele><time>2026-05-03T15:48:43.001Z</time></trkpt><trkpt lat="44.94826315368455" lon="9.93937864095108"><ele>58.5</ele><time>2026-05-03T15:48:44.001Z</time></trkpt><trkpt lat="44.94841708872212" lon="9.939018255942676"><ele>59.0</ele><time>2026-05-03T15:48:45.001Z</time></trkpt><trkpt lat="44.94857075944942" lon="9.938660150126777"><ele>58.5</ele><time>2026-05-03T15:48:46.001Z</time></trkpt><trkpt lat="44.94872472760753" lon="9.938300736279784"><ele>58.0</ele><time>2026-05-03T15:48:47.001Z</time></trkpt><trkpt lat="44.948877710738905" lon="9.937941627710694"><ele>58.0</ele><time>2026-05-03T15:48:48.001Z</time></trkpt><trkpt lat="44.949032176958916" lon="9.93758425414182"><ele>58.0</ele><time>2026-05-03T15:48:49Z</time></trkpt><trkpt lat="44.94918637330626" lon="9.937226987771309"><ele>57.5</ele><time>2026-05-03T15:48:50Z</time></trkpt><trkpt lat="44.949340007502016" lon="9.936869305564962"><ele>57.0</ele><time>2026-05-03T15:48:51Z</time></trkpt><trkpt lat="44.94949414429396" lon="9.936510796580889"><ele>56.5</ele><time>2026-05-03T15:48:52Z</time></trkpt><trkpt lat="44.94964774762951" lon="9.936152158233803"><ele>56.0</ele><time>2026-05-03T15:48:53Z</time></trkpt><trkpt lat="44.94980134601502" lon="9.935793708277878"><ele>56.0</ele><time>2026-05-03T15:48:54Z</time></trkpt><trkpt lat="44.94995577054075" lon="9.935434086865666"><ele>56.0</ele><time>2026-05-03T15:48:55Z</time></trkpt><trkpt lat="44.95011048066067" lon="9.935071863577"><ele>57.0</ele><time>2026-05-03T15:48:56Z</time></trkpt><trkpt lat="44.95026581633402" lon="9.93470908056145"><ele>58.0</ele><time>2026-05-03T15:48:57Z</time></trkpt><trkpt lat="44.95042180220368" lon="9.934348536109963"><ele>58.0</ele><time>2026-05-03T15:48:58Z</time></trkpt><trkpt lat="44.95057873075742" lon="9.93398486876317"><ele>58.0</ele><time>2026-05-03T15:48:59Z</time></trkpt><trkpt lat="44.95073385189395" lon="9.933622670207482"><ele>57.0</ele><time>2026-05-03T15:49:00Z</time></trkpt><trkpt lat="44.95088819525176" lon="9.933256678814377"><ele>56.0</ele><time>2026-05-03T15:49:01Z</time></trkpt><trkpt lat="44.951043346361956" lon="9.932893165959385"><ele>55.5</ele><time>2026-05-03T15:49:02Z</time></trkpt><trkpt lat="44.951197381555815" lon="9.93253208788772"><ele>55.0</ele><time>2026-05-03T15:49:03Z</time></trkpt><trkpt lat="44.951349074955324" lon="9.93217008857008"><ele>55.0</ele><time>2026-05-03T15:49:04Z</time></trkpt><trkpt lat="44.95150030485921" lon="9.93180615530234"><ele>55.0</ele><time>2026-05-03T15:49:05Z</time></trkpt><trkpt lat="44.95165141604816" lon="9.93144462375462"><ele>54.0</ele><time>2026-05-03T15:49:06Z</time></trkpt><trkpt lat="44.95180225180835" lon="9.931085690474202"><ele>53.0</ele><time>2026-05-03T15:49:07Z</time></trkpt><trkpt lat="44.95195219889996" lon="9.930729925067668"><ele>56.0</ele><time>2026-05-03T15:49:08Z</time></trkpt><trkpt lat="44.952102686211404" lon="9.93037650683072"><ele>59.0</ele><time>2026-05-03T15:49:09Z</time></trkpt><trkpt lat="44.95225301583693" lon="9.930025420779069"><ele>59.5</ele><time>2026-05-03T15:49:10Z</time></trkpt><trkpt lat="44.95240389075563" lon="9.929674617573385"><ele>60.0</ele><time>2026-05-03T15:49:11Z</time></trkpt><trkpt lat="44.952553659780484" lon="9.929323959377244"><ele>60.0</ele><time>2026-05-03T15:49:12Z</time></trkpt><trkpt lat="44.95270253395797" lon="9.928975300286897"><ele>60.0</ele><time>2026-05-03T15:49:13Z</time></trkpt><trkpt lat="44.95285122984551" lon="9.92863059338216"><ele>59.5</ele><time>2026-05-03T15:49:14Z</time></trkpt><trkpt lat="44.95300095864091" lon="9.928286741988982"><ele>59.0</ele><time>2026-05-03T15:49:15Z</time></trkpt><trkpt lat="44.95314713235658" lon="9.927947231151236"><ele>59.0</ele><time>2026-05-03T15:49:16Z</time></trkpt><trkpt lat="44.95329460050311" lon="9.927606902986911"><ele>59.0</ele><time>2026-05-03T15:49:17Z</time></trkpt><trkpt lat="44.95344201046965" lon="9.927269447979404"><ele>58.5</ele><time>2026-05-03T15:49:18Z</time></trkpt><trkpt lat="44.953586999975414" lon="9.926933340557008"><ele>58.0</ele><time>2026-05-03T15:49:19Z</time></trkpt><trkpt lat="44.953728545925266" lon="9.926599607916545"><ele>59.0</ele><time>2026-05-03T15:49:20Z</time></trkpt><trkpt lat="44.95386839684271" lon="9.92626744463939"><ele>60.0</ele><time>2026-05-03T15:49:21Z</time></trkpt><trkpt lat="44.95400703594012" lon="9.925939602337792"><ele>60.5</ele><time>2026-05-03T15:49:22Z</time></trkpt><trkpt lat="44.95414551765969" lon="9.925615088862546"><ele>61.0</ele><time>2026-05-03T15:49:23Z</time></trkpt><trkpt lat="44.954281943914886" lon="9.925290584456222"><ele>61.0</ele><time>2026-05-03T15:49:24Z</time></trkpt><trkpt lat="44.954417322521365" lon="9.924969499353127"><ele>61.0</ele><time>2026-05-03T15:49:25Z</time></trkpt><trkpt lat="44.95455265640528" lon="9.924646012323226"><ele>61.0</ele><time>2026-05-03T15:49:26Z</time></trkpt><trkpt lat="44.954687055887476" lon="9.924324201400179"><ele>61.0</ele><time>2026-05-03T15:49:27Z</time></trkpt><trkpt lat="44.95482135924261" lon="9.9240035744702"><ele>62.0</ele><time>2026-05-03T15:49:28Z</time></trkpt><trkpt lat="44.954955082692926" lon="9.92368591394009"><ele>63.0</ele><time>2026-05-03T15:49:29Z</time></trkpt><trkpt lat="44.95508984258013" lon="9.923370796077306"><ele>63.5</ele><time>2026-05-03T15:49:30Z</time></trkpt><trkpt lat="44.95522363376925" lon="9.923056463069052"><ele>64.0</ele><time>2026-05-03T15:49:31Z</time></trkpt><trkpt lat="44.95535624320819" lon="9.922740861819642"><ele>64.5</ele><time>2026-05-03T15:49:32Z</time></trkpt><trkpt lat="44.95548871328615" lon="9.922426089237444"><ele>65.0</ele><time>2026-05-03T15:49:33Z</time></trkpt><trkpt lat="44.955621878463624" lon="9.922113578028473"><ele>65.0</ele><time>2026-05-03T15:49:34Z</time></trkpt><trkpt lat="44.955756745262114" lon="9.921801336861881"><ele>65.0</ele><time>2026-05-03T15:49:35Z</time></trkpt><trkpt lat="44.955890750762286" lon="9.921484956640905"><ele>64.5</ele><time>2026-05-03T15:49:36Z</time></trkpt><trkpt lat="44.956023298960126" lon="9.92116802104996"><ele>64.0</ele><time>2026-05-03T15:49:37Z</time></trkpt><trkpt lat="44.95615765194012" lon="9.920848127991254"><ele>63.0</ele><time>2026-05-03T15:49:38Z</time></trkpt><trkpt lat="44.95629489865569" lon="9.920526717294845"><ele>62.0</ele><time>2026-05-03T15:49:39Z</time></trkpt><trkpt lat="44.956431994071195" lon="9.920202539823796"><ele>62.5</ele><time>2026-05-03T15:49:40Z</time></trkpt><trkpt lat="44.95656978857135" lon="9.9198826217534"><ele>63.0</ele><time>2026-05-03T15:49:41Z</time></trkpt><trkpt lat="44.95671107375563" lon="9.91956391602565"><ele>62.0</ele><time>2026-05-03T15:49:42Z</time></trkpt><trkpt lat="44.95685063825991" lon="9.919243062933976"><ele>61.0</ele><time>2026-05-03T15:49:43Z</time></trkpt><trkpt lat="44.9569868559314" lon="9.918920378537571"><ele>61.0</ele><time>2026-05-03T15:49:44Z</time></trkpt><trkpt lat="44.95712184347801" lon="9.918601228832902"><ele>61.0</ele><time>2026-05-03T15:49:45Z</time></trkpt><trkpt lat="44.95725914869632" lon="9.918283965817832"><ele>62.5</ele><time>2026-05-03T15:49:46Z</time></trkpt><trkpt lat="44.957394512678746" lon="9.91796804442603"><ele>64.0</ele><time>2026-05-03T15:49:47Z</time></trkpt><trkpt lat="44.95752823078017" lon="9.91765256568831"><ele>61.5</ele><time>2026-05-03T15:49:48Z</time></trkpt><trkpt lat="44.957660231910694" lon="9.91734047308002"><ele>59.0</ele><time>2026-05-03T15:49:49Z</time></trkpt><trkpt lat="44.957791603046886" lon="9.917030193136299"><ele>58.5</ele><time>2026-05-03T15:49:50Z</time></trkpt><trkpt lat="44.95792233111223" lon="9.916719571928672"><ele>58.0</ele><time>2026-05-03T15:49:51Z</time></trkpt><trkpt lat="44.958053736439254" lon="9.916409325140283"><ele>58.0</ele><time>2026-05-03T15:49:52Z</time></trkpt><trkpt lat="44.958185380061195" lon="9.916099692333061"><ele>58.0</ele><time>2026-05-03T15:49:53Z</time></trkpt><trkpt lat="44.95831803039044" lon="9.91578835428118"><ele>59.0</ele><time>2026-05-03T15:49:54Z</time></trkpt><trkpt lat="44.95844979155256" lon="9.915477557753148"><ele>60.0</ele><time>2026-05-03T15:49:55Z</time></trkpt><trkpt lat="44.95858196510847" lon="9.91516698942471"><ele>60.5</ele><time>2026-05-03T15:49:56Z</time></trkpt><trkpt lat="44.95871409262027" lon="9.914857475803505"><ele>61.0</ele><time>2026-05-03T15:49:57Z</time></trkpt><trkpt lat="44.95884687069831" lon="9.914546382730249"><ele>61.5</ele><time>2026-05-03T15:49:58Z</time></trkpt><trkpt lat="44.958979001367844" lon="9.914236542164746"><ele>62.0</ele><time>2026-05-03T15:49:59Z</time></trkpt><trkpt lat="44.95911234130555" lon="9.91392540167005"><ele>61.0</ele><time>2026-05-03T15:50:00Z</time></trkpt><trkpt lat="44.95924366004249" lon="9.913615680721978"><ele>60.0</ele><time>2026-05-03T15:50:01Z</time></trkpt><trkpt lat="44.95937492355183" lon="9.913308127470202"><ele>58.0</ele><time>2026-05-03T15:50:02Z</time></trkpt><trkpt lat="44.95950786609485" lon="9.912998228366698"><ele>56.0</ele><time>2026-05-03T15:50:03Z</time></trkpt><trkpt lat="44.95963877815038" lon="9.912684775121246"><ele>56.0</ele><time>2026-05-03T15:50:04Z</time></trkpt><trkpt lat="44.95976749112886" lon="9.91237701056857"><ele>56.0</ele><time>2026-05-03T15:50:05Z</time></trkpt><trkpt lat="44.95989520390384" lon="9.912065864599088"><ele>56.0</ele><time>2026-05-03T15:50:06Z</time></trkpt><trkpt lat="44.96002248691305" lon="9.911755307896504"><ele>56.0</ele><time>2026-05-03T15:50:07Z</time></trkpt><trkpt lat="44.960152174664465" lon="9.911445123331141"><ele>57.0</ele><time>2026-05-03T15:50:08Z</time></trkpt><trkpt lat="44.96028297717148" lon="9.91113251893736"><ele>58.0</ele><time>2026-05-03T15:50:09Z</time></trkpt><trkpt lat="44.96041453401819" lon="9.910822380692263"><ele>59.5</ele><time>2026-05-03T15:50:10Z</time></trkpt><trkpt lat="44.96054753487224" lon="9.910508360277507"><ele>61.0</ele><time>2026-05-03T15:50:11Z</time></trkpt><trkpt lat="44.960680861869285" lon="9.910194760807908"><ele>61.0</ele><time>2026-05-03T15:50:12Z</time></trkpt><trkpt lat="44.960813952258476" lon="9.909882815000099"><ele>61.0</ele><time>2026-05-03T15:50:13Z</time></trkpt><trkpt lat="44.96094782665967" lon="9.909567394199307"><ele>61.5</ele><time>2026-05-03T15:50:14Z</time></trkpt><trkpt lat="44.96108166296911" lon="9.909250263591185"><ele>62.0</ele><time>2026-05-03T15:50:15Z</time></trkpt><trkpt lat="44.96121517344637" lon="9.908927827616775"><ele>62.5</ele><time>2026-05-03T15:50:16Z</time></trkpt><trkpt lat="44.961350155626924" lon="9.908601488428996"><ele>63.0</ele><time>2026-05-03T15:50:17Z</time></trkpt><trkpt lat="44.961488483241574" lon="9.908275061025927"><ele>63.0</ele><time>2026-05-03T15:50:18Z</time></trkpt><trkpt lat="44.96162663364866" lon="9.907952661905696"><ele>63.0</ele><time>2026-05-03T15:50:19Z</time></trkpt><trkpt lat="44.96176482076917" lon="9.90762847387141"><ele>62.0</ele><time>2026-05-03T15:50:20Z</time></trkpt><trkpt lat="44.96190549179127" lon="9.907301063510069"><ele>61.0</ele><time>2026-05-03T15:50:21Z</time></trkpt><trkpt lat="44.96204579550819" lon="9.906973550360437"><ele>61.0</ele><time>2026-05-03T15:50:22Z</time></trkpt><trkpt lat="44.962185700461745" lon="9.906643388813913"><ele>61.0</ele><time>2026-05-03T15:50:23Z</time></trkpt><trkpt lat="44.962324621667214" lon="9.906313788991296"><ele>61.0</ele><time>2026-05-03T15:50:24Z</time></trkpt><trkpt lat="44.96246307669747" lon="9.90598428466538"><ele>61.0</ele><time>2026-05-03T15:50:25Z</time></trkpt><trkpt lat="44.96260044588767" lon="9.905654498943612"><ele>61.0</ele><time>2026-05-03T15:50:26Z</time></trkpt><trkpt lat="44.96273819059212" lon="9.905326909327394"><ele>61.0</ele><time>2026-05-03T15:50:27Z</time></trkpt><trkpt lat="44.9628790044412" lon="9.904999925224972"><ele>61.5</ele><time>2026-05-03T15:50:28Z</time></trkpt><trkpt lat="44.96302293172492" lon="9.904676226866226"><ele>62.0</ele><time>2026-05-03T15:50:29Z</time></trkpt><trkpt lat="44.96316096119284" lon="9.904350345311412"><ele>61.5</ele><time>2026-05-03T15:50:30Z</time></trkpt><trkpt lat="44.96329980226785" lon="9.904020262349343"><ele>61.0</ele><time>2026-05-03T15:50:31Z</time></trkpt><trkpt lat="44.963441723644195" lon="9.903695121438282"><ele>60.5</ele><time>2026-05-03T15:50:32Z</time></trkpt><trkpt lat="44.963582156792555" lon="9.903369130769374"><ele>60.0</ele><time>2026-05-03T15:50:33Z</time></trkpt><trkpt lat="44.96372278166636" lon="9.903039665043991"><ele>60.0</ele><time>2026-05-03T15:50:34Z</time></trkpt><trkpt lat="44.96386270600626" lon="9.902710282216647"><ele>60.0</ele><time>2026-05-03T15:50:35.001Z</time></trkpt><trkpt lat="44.96400277088255" lon="9.902381249032768"><ele>60.0</ele><time>2026-05-03T15:50:36.001Z</time></trkpt><trkpt lat="44.96414342987456" lon="9.90205227378074"><ele>60.0</ele><time>2026-05-03T15:50:37.001Z</time></trkpt><trkpt lat="44.96428589330511" lon="9.90172046303917"><ele>60.5</ele><time>2026-05-03T15:50:38.001Z</time></trkpt><trkpt lat="44.964430970803214" lon="9.901387081429482"><ele>61.0</ele><time>2026-05-03T15:50:39.001Z</time></trkpt><trkpt lat="44.9645810291121" lon="9.901056236033165"><ele>61.0</ele><time>2026-05-03T15:50:40Z</time></trkpt><trkpt lat="44.964732241234685" lon="9.90072257649592"><ele>61.0</ele><time>2026-05-03T15:50:41Z</time></trkpt><trkpt lat="44.964880204790326" lon="9.900386481452884"><ele>60.5</ele><time>2026-05-03T15:50:42Z</time></trkpt><trkpt lat="44.96502753346203" lon="9.900046671762512"><ele>60.0</ele><time>2026-05-03T15:50:43Z</time></trkpt><trkpt lat="44.96517474055088" lon="9.899706833221884"><ele>60.0</ele><time>2026-05-03T15:50:44Z</time></trkpt><trkpt lat="44.96532278178807" lon="9.899360967602883"><ele>60.0</ele><time>2026-05-03T15:50:45Z</time></trkpt><trkpt lat="44.965470047876416" lon="9.899016127662982"><ele>59.5</ele><time>2026-05-03T15:50:46Z</time></trkpt><trkpt lat="44.965618836705765" lon="9.898669727495728"><ele>59.0</ele><time>2026-05-03T15:50:47Z</time></trkpt><trkpt lat="44.9657667890519" lon="9.898323118999276"><ele>58.5</ele><time>2026-05-03T15:50:48Z</time></trkpt><trkpt lat="44.96591382574613" lon="9.897977199818255"><ele>58.0</ele><time>2026-05-03T15:50:49Z</time></trkpt><trkpt lat="44.96606059806092" lon="9.89763234305051"><ele>57.5</ele><time>2026-05-03T15:50:50Z</time></trkpt><trkpt lat="44.96620791420619" lon="9.897290325777872"><ele>57.0</ele><time>2026-05-03T15:50:51Z</time></trkpt><trkpt lat="44.966355303110355" lon="9.896950120606322"><ele>56.5</ele><time>2026-05-03T15:50:52Z</time></trkpt><trkpt lat="44.96650268162183" lon="9.896608859150664"><ele>56.0</ele><time>2026-05-03T15:50:53Z</time></trkpt><trkpt lat="44.96664833265067" lon="9.896267703882748"><ele>57.5</ele><time>2026-05-03T15:50:54Z</time></trkpt><trkpt lat="44.96679367508656" lon="9.895923999589654"><ele>59.0</ele><time>2026-05-03T15:50:55Z</time></trkpt><trkpt lat="44.96693854712303" lon="9.89558042962939"><ele>59.0</ele><time>2026-05-03T15:50:56Z</time></trkpt><trkpt lat="44.96708446984267" lon="9.895238257118203"><ele>59.0</ele><time>2026-05-03T15:50:57Z</time></trkpt><trkpt lat="44.96723067713643" lon="9.89489785608106"><ele>59.0</ele><time>2026-05-03T15:50:58Z</time></trkpt><trkpt lat="44.967374860924906" lon="9.894556765540704"><ele>59.0</ele><time>2026-05-03T15:50:59Z</time></trkpt><trkpt lat="44.96751857072485" lon="9.89421574057298"><ele>57.5</ele><time>2026-05-03T15:51:00Z</time></trkpt><trkpt lat="44.96766129687727" lon="9.893877462158922"><ele>56.0</ele><time>2026-05-03T15:51:01Z</time></trkpt><trkpt lat="44.96780496969032" lon="9.893537926658928"><ele>56.0</ele><time>2026-05-03T15:51:02Z</time></trkpt><trkpt lat="44.967950489008004" lon="9.893197662288795"><ele>56.0</ele><time>2026-05-03T15:51:03Z</time></trkpt><trkpt lat="44.96809610981569" lon="9.89286068969932"><ele>56.0</ele><time>2026-05-03T15:51:04Z</time></trkpt><trkpt lat="44.96824129221431" lon="9.892524307757045"><ele>56.0</ele><time>2026-05-03T15:51:05Z</time></trkpt><trkpt lat="44.96838578231789" lon="9.892189016318257"><ele>56.0</ele><time>2026-05-03T15:51:06Z</time></trkpt><trkpt lat="44.968528357733064" lon="9.891854404469557"><ele>56.0</ele><time>2026-05-03T15:51:07Z</time></trkpt><trkpt lat="44.968669907010906" lon="9.89151751441601"><ele>57.5</ele><time>2026-05-03T15:51:08Z</time></trkpt><trkpt lat="44.96881080412345" lon="9.891182634354179"><ele>59.0</ele><time>2026-05-03T15:51:09Z</time></trkpt><trkpt lat="44.968953033103716" lon="9.890848897218143"><ele>60.0</ele><time>2026-05-03T15:51:10Z</time></trkpt><trkpt lat="44.969095891277725" lon="9.890517498613905"><ele>61.0</ele><time>2026-05-03T15:51:11Z</time></trkpt><trkpt lat="44.96923710078621" lon="9.890186747377886"><ele>58.5</ele><time>2026-05-03T15:51:12Z</time></trkpt><trkpt lat="44.96937753520876" lon="9.889854029559505"><ele>56.0</ele><time>2026-05-03T15:51:13Z</time></trkpt><trkpt lat="44.969516631066305" lon="9.889522443844653"><ele>56.0</ele><time>2026-05-03T15:51:14Z</time></trkpt><trkpt lat="44.96965663902832" lon="9.88919258065538"><ele>56.0</ele><time>2026-05-03T15:51:15Z</time></trkpt><trkpt lat="44.96979744676929" lon="9.888862403596235"><ele>56.0</ele><time>2026-05-03T15:51:16Z</time></trkpt><trkpt lat="44.96993747508276" lon="9.888530724556631"><ele>56.0</ele><time>2026-05-03T15:51:17Z</time></trkpt><trkpt lat="44.970077268748355" lon="9.888199179381616"><ele>56.0</ele><time>2026-05-03T15:51:18Z</time></trkpt><trkpt lat="44.97021806755993" lon="9.887865456081952"><ele>56.0</ele><time>2026-05-03T15:51:19Z</time></trkpt><trkpt lat="44.97035933326178" lon="9.887532284210797"><ele>57.0</ele><time>2026-05-03T15:51:20Z</time></trkpt><trkpt lat="44.970500081513244" lon="9.88719966164066"><ele>58.0</ele><time>2026-05-03T15:51:21Z</time></trkpt><trkpt lat="44.97064139803404" lon="9.88686556380041"><ele>58.0</ele><time>2026-05-03T15:51:22Z</time></trkpt><trkpt lat="44.9707808073939" lon="9.886526055251425"><ele>58.0</ele><time>2026-05-03T15:51:23Z</time></trkpt><trkpt lat="44.97091825638671" lon="9.886185099025651"><ele>58.0</ele><time>2026-05-03T15:51:24Z</time></trkpt><trkpt lat="44.97105654556429" lon="9.88583980996402"><ele>58.0</ele><time>2026-05-03T15:51:25Z</time></trkpt><trkpt lat="44.971196820651265" lon="9.885497217663469"><ele>58.0</ele><time>2026-05-03T15:51:26Z</time></trkpt><trkpt lat="44.97134027715061" lon="9.885153099386322"><ele>58.0</ele><time>2026-05-03T15:51:27Z</time></trkpt><trkpt lat="44.97148642165735" lon="9.884808459529014"><ele>57.0</ele><time>2026-05-03T15:51:28Z</time></trkpt><trkpt lat="44.971634923949644" lon="9.884460397429102"><ele>56.0</ele><time>2026-05-03T15:51:29Z</time></trkpt><trkpt lat="44.97178480978129" lon="9.884115902740321"><ele>56.0</ele><time>2026-05-03T15:51:30Z</time></trkpt><trkpt lat="44.971937462366625" lon="9.883775664022487"><ele>56.0</ele><time>2026-05-03T15:51:31Z</time></trkpt><trkpt lat="44.97209089382089" lon="9.883438426261993"><ele>56.5</ele><time>2026-05-03T15:51:32Z</time></trkpt><trkpt lat="44.97223914118998" lon="9.883101644787368"><ele>57.0</ele><time>2026-05-03T15:51:33Z</time></trkpt><trkpt lat="44.97238650075643" lon="9.882762454276007"><ele>57.5</ele><time>2026-05-03T15:51:34Z</time></trkpt><trkpt lat="44.97253378449642" lon="9.882423377452154"><ele>58.0</ele><time>2026-05-03T15:51:35Z</time></trkpt><trkpt lat="44.972680173693995" lon="9.882084881943968"><ele>57.0</ele><time>2026-05-03T15:51:36Z</time></trkpt><trkpt lat="44.972825718444625" lon="9.881744832720003"><ele>56.0</ele><time>2026-05-03T15:51:37Z</time></trkpt><trkpt lat="44.97296915938328" lon="9.881406508522943"><ele>56.0</ele><time>2026-05-03T15:51:38Z</time></trkpt><trkpt lat="44.973114809545386" lon="9.88106991014721"><ele>56.0</ele><time>2026-05-03T15:51:39Z</time></trkpt><trkpt lat="44.97326037841322" lon="9.880729297107742"><ele>56.0</ele><time>2026-05-03T15:51:40Z</time></trkpt><trkpt lat="44.97340595984637" lon="9.880390121270123"><ele>56.0</ele><time>2026-05-03T15:51:41Z</time></trkpt><trkpt lat="44.973551026894164" lon="9.88004946836569"><ele>56.0</ele><time>2026-05-03T15:51:42Z</time></trkpt><trkpt lat="44.97369463688763" lon="9.87970671042461"><ele>56.0</ele><time>2026-05-03T15:51:43Z</time></trkpt><trkpt lat="44.97383886576386" lon="9.87936581586978"><ele>56.5</ele><time>2026-05-03T15:51:44Z</time></trkpt><trkpt lat="44.97398431480845" lon="9.879028234471804"><ele>57.0</ele><time>2026-05-03T15:51:45Z</time></trkpt><trkpt lat="44.97413057316398" lon="9.878688794243295"><ele>57.0</ele><time>2026-05-03T15:51:46Z</time></trkpt><trkpt lat="44.974274769582166" lon="9.87834932762426"><ele>57.0</ele><time>2026-05-03T15:51:47Z</time></trkpt><trkpt lat="44.97441797622856" lon="9.87801002092661"><ele>57.0</ele><time>2026-05-03T15:51:48Z</time></trkpt><trkpt lat="44.97455990936075" lon="9.877670761663689"><ele>57.0</ele><time>2026-05-03T15:51:49Z</time></trkpt><trkpt lat="44.97470122310448" lon="9.877332107570444"><ele>57.0</ele><time>2026-05-03T15:51:50Z</time></trkpt><trkpt lat="44.97484312907211" lon="9.876995738099318"><ele>57.0</ele><time>2026-05-03T15:51:51Z</time></trkpt><trkpt lat="44.974986514683145" lon="9.876657206425705"><ele>57.5</ele><time>2026-05-03T15:51:52Z</time></trkpt><trkpt lat="44.97513173669297" lon="9.876318731345139"><ele>58.0</ele><time>2026-05-03T15:51:53Z</time></trkpt><trkpt lat="44.975276837314496" lon="9.8759808773127"><ele>58.0</ele><time>2026-05-03T15:51:54Z</time></trkpt><trkpt lat="44.975423355928264" lon="9.875640251008852"><ele>58.0</ele><time>2026-05-03T15:51:55Z</time></trkpt><trkpt lat="44.975570950225176" lon="9.875297266027513"><ele>58.5</ele><time>2026-05-03T15:51:56Z</time></trkpt><trkpt lat="44.975718557606115" lon="9.874953481042118"><ele>59.0</ele><time>2026-05-03T15:51:57Z</time></trkpt><trkpt lat="44.97586678508356" lon="9.874605807188463"><ele>57.5</ele><time>2026-05-03T15:51:58Z</time></trkpt><trkpt lat="44.97601489625813" lon="9.874255797680375"><ele>56.0</ele><time>2026-05-03T15:51:59Z</time></trkpt><trkpt lat="44.97616542479317" lon="9.873902986563449"><ele>56.0</ele><time>2026-05-03T15:52:00Z</time></trkpt><trkpt lat="44.976316914962744" lon="9.873548033979192"><ele>56.0</ele><time>2026-05-03T15:52:01Z</time></trkpt><trkpt lat="44.97646767359093" lon="9.873192549488586"><ele>56.5</ele><time>2026-05-03T15:52:02Z</time></trkpt><trkpt lat="44.976618181153455" lon="9.872834923025092"><ele>57.0</ele><time>2026-05-03T15:52:03Z</time></trkpt><trkpt lat="44.97676799159944" lon="9.87247964325679"><ele>57.0</ele><time>2026-05-03T15:52:04Z</time></trkpt><trkpt lat="44.97691909283024" lon="9.87212529361797"><ele>57.0</ele><time>2026-05-03T15:52:05Z</time></trkpt><trkpt lat="44.9770692767078" lon="9.871775075042008"><ele>57.5</ele><time>2026-05-03T15:52:06Z</time></trkpt><trkpt lat="44.97721897090394" lon="9.871425964334458"><ele>58.0</ele><time>2026-05-03T15:52:07Z</time></trkpt><trkpt lat="44.97736904606809" lon="9.871078888299607"><ele>57.0</ele><time>2026-05-03T15:52:08Z</time></trkpt><trkpt lat="44.977517503502746" lon="9.870732436281918"><ele>56.0</ele><time>2026-05-03T15:52:09Z</time></trkpt><trkpt lat="44.977664894982674" lon="9.87038675617164"><ele>55.0</ele><time>2026-05-03T15:52:10Z</time></trkpt><trkpt lat="44.97781122185579" lon="9.8700395347757"><ele>54.0</ele><time>2026-05-03T15:52:11Z</time></trkpt><trkpt lat="44.977958684178866" lon="9.86968975317832"><ele>54.0</ele><time>2026-05-03T15:52:12Z</time></trkpt><trkpt lat="44.97810537385755" lon="9.869344960407485"><ele>54.0</ele><time>2026-05-03T15:52:13Z</time></trkpt><trkpt lat="44.978252877534686" lon="9.869002876713335"><ele>53.5</ele><time>2026-05-03T15:52:14Z</time></trkpt><trkpt lat="44.978401979203724" lon="9.86865934045159"><ele>53.0</ele><time>2026-05-03T15:52:15Z</time></trkpt><trkpt lat="44.97854745058544" lon="9.868316280043313"><ele>53.0</ele><time>2026-05-03T15:52:16Z</time></trkpt><trkpt lat="44.978692149287575" lon="9.867972060253631"><ele>53.0</ele><time>2026-05-03T15:52:17Z</time></trkpt><trkpt lat="44.978835434034124" lon="9.86762692694729"><ele>54.5</ele><time>2026-05-03T15:52:18Z</time></trkpt><trkpt lat="44.97898127438302" lon="9.867281809103583"><ele>56.0</ele><time>2026-05-03T15:52:19Z</time></trkpt><trkpt lat="44.97912780951552" lon="9.866935283546216"><ele>56.0</ele><time>2026-05-03T15:52:20Z</time></trkpt><trkpt lat="44.979271510556984" lon="9.86658956728441"><ele>56.0</ele><time>2026-05-03T15:52:21Z</time></trkpt><trkpt lat="44.97941649515716" lon="9.866243174855434"><ele>56.5</ele><time>2026-05-03T15:52:22Z</time></trkpt><trkpt lat="44.979562113014616" lon="9.865897806501232"><ele>57.0</ele><time>2026-05-03T15:52:23Z</time></trkpt><trkpt lat="44.97970907635318" lon="9.865550656513504"><ele>57.0</ele><time>2026-05-03T15:52:24Z</time></trkpt><trkpt lat="44.979857882225744" lon="9.865204099408237"><ele>57.0</ele><time>2026-05-03T15:52:25Z</time></trkpt><trkpt lat="44.98000545660624" lon="9.864863496456229"><ele>56.5</ele><time>2026-05-03T15:52:26Z</time></trkpt><trkpt lat="44.98015369646122" lon="9.864521701103133"><ele>56.0</ele><time>2026-05-03T15:52:27Z</time></trkpt><trkpt lat="44.9803018707204" lon="9.864175708229945"><ele>57.0</ele><time>2026-05-03T15:52:28Z</time></trkpt><trkpt lat="44.98044823181117" lon="9.863830493387283"><ele>58.0</ele><time>2026-05-03T15:52:29Z</time></trkpt><trkpt lat="44.9805931761137" lon="9.86348417211188"><ele>56.0</ele><time>2026-05-03T15:52:30Z</time></trkpt><trkpt lat="44.98074049737325" lon="9.863136731411853"><ele>54.0</ele><time>2026-05-03T15:52:31Z</time></trkpt><trkpt lat="44.98088891988476" lon="9.862787956587226"><ele>55.0</ele><time>2026-05-03T15:52:32Z</time></trkpt><trkpt lat="44.98104000923688" lon="9.862434786798238"><ele>56.0</ele><time>2026-05-03T15:52:33Z</time></trkpt><trkpt lat="44.98118773797316" lon="9.86208198907378"><ele>56.0</ele><time>2026-05-03T15:52:34Z</time></trkpt><trkpt lat="44.98133431573735" lon="9.861728792040953"><ele>56.0</ele><time>2026-05-03T15:52:35Z</time></trkpt><trkpt lat="44.981481539595734" lon="9.861375747534908"><ele>56.0</ele><time>2026-05-03T15:52:36Z</time></trkpt><trkpt lat="44.98162559444604" lon="9.861019034869628"><ele>56.0</ele><time>2026-05-03T15:52:37Z</time></trkpt><trkpt lat="44.981765655940215" lon="9.860663913031377"><ele>56.0</ele><time>2026-05-03T15:52:38Z</time></trkpt><trkpt lat="44.98191152450258" lon="9.860312135684548"><ele>56.0</ele><time>2026-05-03T15:52:39Z</time></trkpt><trkpt lat="44.982061051382345" lon="9.859963580335526"><ele>56.0</ele><time>2026-05-03T15:52:40Z</time></trkpt><trkpt lat="44.98221101537774" lon="9.859614827244492"><ele>56.0</ele><time>2026-05-03T15:52:41Z</time></trkpt><trkpt lat="44.98235856343898" lon="9.859266411424736"><ele>56.5</ele><time>2026-05-03T15:52:42Z</time></trkpt><trkpt lat="44.98250576598753" lon="9.858917814217072"><ele>57.0</ele><time>2026-05-03T15:52:43Z</time></trkpt><trkpt lat="44.982653456494255" lon="9.85857197820634"><ele>57.0</ele><time>2026-05-03T15:52:44Z</time></trkpt><trkpt lat="44.982800680450495" lon="9.858230229431296"><ele>57.0</ele><time>2026-05-03T15:52:45Z</time></trkpt><trkpt lat="44.98295023629318" lon="9.857889378111267"><ele>57.0</ele><time>2026-05-03T15:52:46Z</time></trkpt><trkpt lat="44.98309669743035" lon="9.857547492851605"><ele>57.0</ele><time>2026-05-03T15:52:47Z</time></trkpt><trkpt lat="44.983243604614415" lon="9.857202708540118"><ele>56.5</ele><time>2026-05-03T15:52:48Z</time></trkpt><trkpt lat="44.98339234297851" lon="9.856850462516253"><ele>56.0</ele><time>2026-05-03T15:52:49Z</time></trkpt><trkpt lat="44.983542712610955" lon="9.856493610411126"><ele>55.0</ele><time>2026-05-03T15:52:50Z</time></trkpt><trkpt lat="44.98369413320049" lon="9.856135176034707"><ele>54.0</ele><time>2026-05-03T15:52:51Z</time></trkpt><trkpt lat="44.98384522993896" lon="9.855774677558632"><ele>56.0</ele><time>2026-05-03T15:52:52Z</time></trkpt><trkpt lat="44.98399805958103" lon="9.855411068594076"><ele>58.0</ele><time>2026-05-03T15:52:53Z</time></trkpt><trkpt lat="44.98415403848552" lon="9.855046361179172"><ele>57.0</ele><time>2026-05-03T15:52:54Z</time></trkpt><trkpt lat="44.98430876866626" lon="9.854682811658666"><ele>56.0</ele><time>2026-05-03T15:52:55Z</time></trkpt><trkpt lat="44.98446459440453" lon="9.854317171736554"><ele>56.0</ele><time>2026-05-03T15:52:56Z</time></trkpt><trkpt lat="44.984620866156405" lon="9.85395190347635"><ele>56.0</ele><time>2026-05-03T15:52:57Z</time></trkpt><trkpt lat="44.98477651493314" lon="9.853587442379668"><ele>56.5</ele><time>2026-05-03T15:52:58Z</time></trkpt><trkpt lat="44.984932281338295" lon="9.85322382150815"><ele>57.0</ele><time>2026-05-03T15:52:59Z</time></trkpt><trkpt lat="44.98508649789237" lon="9.852860785230678"><ele>56.5</ele><time>2026-05-03T15:53:00Z</time></trkpt><trkpt lat="44.985240815567856" lon="9.852498865724444"><ele>56.0</ele><time>2026-05-03T15:53:01Z</time></trkpt><trkpt lat="44.985395060169736" lon="9.852135170071984"><ele>56.0</ele><time>2026-05-03T15:53:02Z</time></trkpt><trkpt lat="44.98554978219834" lon="9.85177282435394"><ele>56.0</ele><time>2026-05-03T15:53:03Z</time></trkpt><trkpt lat="44.98570403678449" lon="9.851412424044941"><ele>55.5</ele><time>2026-05-03T15:53:04Z</time></trkpt><trkpt lat="44.98585775900944" lon="9.851052292128626"><ele>55.0</ele><time>2026-05-03T15:53:05Z</time></trkpt><trkpt lat="44.98600996316911" lon="9.850694476349593"><ele>55.0</ele><time>2026-05-03T15:53:06Z</time></trkpt><trkpt lat="44.98616467878944" lon="9.850337554803362"><ele>55.0</ele><time>2026-05-03T15:53:07Z</time></trkpt><trkpt lat="44.98631856083733" lon="9.849983367154264"><ele>58.0</ele><time>2026-05-03T15:53:08Z</time></trkpt><trkpt lat="44.98647263813752" lon="9.849627476760555"><ele>61.0</ele><time>2026-05-03T15:53:09Z</time></trkpt><trkpt lat="44.986629455620246" lon="9.849274377922093"><ele>58.5</ele><time>2026-05-03T15:53:10Z</time></trkpt><trkpt lat="44.98678644976695" lon="9.848921133663087"><ele>56.0</ele><time>2026-05-03T15:53:11Z</time></trkpt><trkpt lat="44.98694091233356" lon="9.848566984886217"><ele>56.0</ele><time>2026-05-03T15:53:12Z</time></trkpt><trkpt lat="44.98709429415653" lon="9.848210814168208"><ele>56.0</ele><time>2026-05-03T15:53:13Z</time></trkpt><trkpt lat="44.98724718189055" lon="9.847854833658142"><ele>56.0</ele><time>2026-05-03T15:53:14Z</time></trkpt><trkpt lat="44.98739973342919" lon="9.847496590804212"><ele>56.0</ele><time>2026-05-03T15:53:15Z</time></trkpt><trkpt lat="44.98754983886548" lon="9.847136592678202"><ele>56.5</ele><time>2026-05-03T15:53:16Z</time></trkpt><trkpt lat="44.9876975957124" lon="9.846775472020447"><ele>57.0</ele><time>2026-05-03T15:53:17Z</time></trkpt><trkpt lat="44.987844130237704" lon="9.846417355090969"><ele>57.0</ele><time>2026-05-03T15:53:18Z</time></trkpt><trkpt lat="44.98799036924298" lon="9.846056382065514"><ele>57.0</ele><time>2026-05-03T15:53:19Z</time></trkpt><trkpt lat="44.988136961413396" lon="9.845693884916939"><ele>57.5</ele><time>2026-05-03T15:53:20Z</time></trkpt><trkpt lat="44.988282505751855" lon="9.845332221281422"><ele>58.0</ele><time>2026-05-03T15:53:21Z</time></trkpt><trkpt lat="44.98842647686175" lon="9.844969617769953"><ele>57.5</ele><time>2026-05-03T15:53:22Z</time></trkpt><trkpt lat="44.98856742164581" lon="9.84460615989653"><ele>57.0</ele><time>2026-05-03T15:53:23Z</time></trkpt><trkpt lat="44.9887076937091" lon="9.844245179898929"><ele>57.0</ele><time>2026-05-03T15:53:24Z</time></trkpt><trkpt lat="44.988847628862395" lon="9.843882677877398"><ele>57.0</ele><time>2026-05-03T15:53:25Z</time></trkpt><trkpt lat="44.98898758296607" lon="9.843523350099272"><ele>57.5</ele><time>2026-05-03T15:53:26Z</time></trkpt><trkpt lat="44.98912658436065" lon="9.843160891422627"><ele>58.0</ele><time>2026-05-03T15:53:27Z</time></trkpt><trkpt lat="44.98926406826346" lon="9.84280214787478"><ele>57.0</ele><time>2026-05-03T15:53:28Z</time></trkpt><trkpt lat="44.98940306087593" lon="9.84243771915081"><ele>56.0</ele><time>2026-05-03T15:53:29Z</time></trkpt><trkpt lat="44.98954314732487" lon="9.842073647107373"><ele>56.5</ele><time>2026-05-03T15:53:30Z</time></trkpt><trkpt lat="44.989684343966836" lon="9.841709825362914"><ele>57.0</ele><time>2026-05-03T15:53:31Z</time></trkpt><trkpt lat="44.98982755096595" lon="9.841341800446251"><ele>57.0</ele><time>2026-05-03T15:53:32Z</time></trkpt><trkpt lat="44.989969269398514" lon="9.84097719635461"><ele>57.0</ele><time>2026-05-03T15:53:33Z</time></trkpt><trkpt lat="44.99011041606135" lon="9.84060938448088"><ele>57.0</ele><time>2026-05-03T15:53:34Z</time></trkpt><trkpt lat="44.990252393241406" lon="9.840243628074827"><ele>57.0</ele><time>2026-05-03T15:53:35Z</time></trkpt><trkpt lat="44.99039527511747" lon="9.839878003460077"><ele>57.0</ele><time>2026-05-03T15:53:36Z</time></trkpt><trkpt lat="44.990537812947736" lon="9.839515231855495"><ele>57.0</ele><time>2026-05-03T15:53:37Z</time></trkpt><trkpt lat="44.990679755460015" lon="9.839149768639402"><ele>56.5</ele><time>2026-05-03T15:53:38Z</time></trkpt><trkpt lat="44.990820751571896" lon="9.838789260095904"><ele>56.0</ele><time>2026-05-03T15:53:39Z</time></trkpt><trkpt lat="44.990961536075744" lon="9.838432481676746"><ele>56.0</ele><time>2026-05-03T15:53:40Z</time></trkpt><trkpt lat="44.99110162108736" lon="9.838073877179118"><ele>56.0</ele><time>2026-05-03T15:53:41Z</time></trkpt><trkpt lat="44.99124006974547" lon="9.837716040299808"><ele>56.5</ele><time>2026-05-03T15:53:42Z</time></trkpt><trkpt lat="44.991377648076536" lon="9.837357735370029"><ele>57.0</ele><time>2026-05-03T15:53:43Z</time></trkpt><trkpt lat="44.991514970850176" lon="9.837000269300766"><ele>57.5</ele><time>2026-05-03T15:53:44Z</time></trkpt><trkpt lat="44.991651752918365" lon="9.836644777644626"><ele>58.0</ele><time>2026-05-03T15:53:45Z</time></trkpt><trkpt lat="44.991789600213394" lon="9.836290314982259"><ele>57.0</ele><time>2026-05-03T15:53:46Z</time></trkpt><trkpt lat="44.99192978302695" lon="9.83593856725523"><ele>56.0</ele><time>2026-05-03T15:53:47Z</time></trkpt><trkpt lat="44.9920696700208" lon="9.835587180779559"><ele>56.0</ele><time>2026-05-03T15:53:48Z</time></trkpt><trkpt lat="44.99220676533542" lon="9.83523658023572"><ele>56.0</ele><time>2026-05-03T15:53:49Z</time></trkpt><trkpt lat="44.992340667628376" lon="9.83488859554347"><ele>56.0</ele><time>2026-05-03T15:53:50Z</time></trkpt><trkpt lat="44.99247484121272" lon="9.834540048037411"><ele>56.0</ele><time>2026-05-03T15:53:51Z</time></trkpt><trkpt lat="44.99260882603386" lon="9.834190103057438"><ele>56.5</ele><time>2026-05-03T15:53:52Z</time></trkpt><trkpt lat="44.99274208976228" lon="9.833838995728016"><ele>57.0</ele><time>2026-05-03T15:53:53Z</time></trkpt><trkpt lat="44.992875256532024" lon="9.8334893539357"><ele>57.0</ele><time>2026-05-03T15:53:54Z</time></trkpt><trkpt lat="44.993009280279" lon="9.833141407216933"><ele>57.0</ele><time>2026-05-03T15:53:55Z</time></trkpt><trkpt lat="44.99314484829227" lon="9.832795470660832"><ele>57.0</ele><time>2026-05-03T15:53:56Z</time></trkpt><trkpt lat="44.99328100944946" lon="9.832449445658677"><ele>57.0</ele><time>2026-05-03T15:53:57Z</time></trkpt><trkpt lat="44.993417254402814" lon="9.83210527754385"><ele>57.0</ele><time>2026-05-03T15:53:58Z</time></trkpt><trkpt lat="44.993554478750184" lon="9.831760131442621"><ele>57.0</ele><time>2026-05-03T15:53:59Z</time></trkpt><trkpt lat="44.993689787315994" lon="9.831414594728477"><ele>57.0</ele><time>2026-05-03T15:54:00Z</time></trkpt><trkpt lat="44.99382424849464" lon="9.831063924525253"><ele>57.0</ele><time>2026-05-03T15:54:01Z</time></trkpt><trkpt lat="44.99395942905346" lon="9.830715433266748"><ele>56.5</ele><time>2026-05-03T15:54:02Z</time></trkpt><trkpt lat="44.99409584645619" lon="9.830364464120228"><ele>56.0</ele><time>2026-05-03T15:54:03Z</time></trkpt><trkpt lat="44.994232917442524" lon="9.83001214062784"><ele>56.0</ele><time>2026-05-03T15:54:04Z</time></trkpt><trkpt lat="44.994369758420426" lon="9.829659466381704"><ele>56.0</ele><time>2026-05-03T15:54:05Z</time></trkpt><trkpt lat="44.994508522178506" lon="9.829304604973402"><ele>57.5</ele><time>2026-05-03T15:54:06Z</time></trkpt><trkpt lat="44.99464553766226" lon="9.828950251266265"><ele>59.0</ele><time>2026-05-03T15:54:07Z</time></trkpt><trkpt lat="44.994784112594516" lon="9.828593381687092"><ele>58.5</ele><time>2026-05-03T15:54:08Z</time></trkpt><trkpt lat="44.99492297857847" lon="9.828235324564014"><ele>58.0</ele><time>2026-05-03T15:54:09Z</time></trkpt><trkpt lat="44.99506170331412" lon="9.827877544274491"><ele>57.5</ele><time>2026-05-03T15:54:10Z</time></trkpt><trkpt lat="44.99520134083823" lon="9.82751929320648"><ele>57.0</ele><time>2026-05-03T15:54:11Z</time></trkpt><trkpt lat="44.9953392618221" lon="9.827160230422258"><ele>56.0</ele><time>2026-05-03T15:54:12Z</time></trkpt><trkpt lat="44.995476344400174" lon="9.826800165701563"><ele>55.0</ele><time>2026-05-03T15:54:13Z</time></trkpt><trkpt lat="44.99561560580181" lon="9.826436845357756"><ele>55.0</ele><time>2026-05-03T15:54:14Z</time></trkpt><trkpt lat="44.99575482487145" lon="9.826073865378364"><ele>55.0</ele><time>2026-05-03T15:54:15Z</time></trkpt><trkpt lat="44.99589515653474" lon="9.825710285591194"><ele>54.5</ele><time>2026-05-03T15:54:16Z</time></trkpt><trkpt lat="44.99603588972965" lon="9.82534567607234"><ele>54.0</ele><time>2026-05-03T15:54:17Z</time></trkpt><trkpt lat="44.99617729488917" lon="9.82498088306558"><ele>55.5</ele><time>2026-05-03T15:54:18Z</time></trkpt><trkpt lat="44.99631755593461" lon="9.82461783614246"><ele>57.0</ele><time>2026-05-03T15:54:19Z</time></trkpt><trkpt lat="44.99645703857334" lon="9.824253630820564"><ele>58.0</ele><time>2026-05-03T15:54:20Z</time></trkpt><trkpt lat="44.99659479064627" lon="9.82389176515568"><ele>59.0</ele><time>2026-05-03T15:54:21Z</time></trkpt><trkpt lat="44.996733913514035" lon="9.82353429771689"><ele>58.0</ele><time>2026-05-03T15:54:22Z</time></trkpt><trkpt lat="44.99687279161088" lon="9.82318100131207"><ele>57.0</ele><time>2026-05-03T15:54:23Z</time></trkpt><trkpt lat="44.99701109100091" lon="9.82282877026087"><ele>57.5</ele><time>2026-05-03T15:54:24Z</time></trkpt><trkpt lat="44.99714729826031" lon="9.822473262275617"><ele>58.0</ele><time>2026-05-03T15:54:25Z</time></trkpt><trkpt lat="44.99728273546577" lon="9.822118242445818"><ele>58.0</ele><time>2026-05-03T15:54:26Z</time></trkpt><trkpt lat="44.99742054551597" lon="9.821765565249482"><ele>58.0</ele><time>2026-05-03T15:54:27Z</time></trkpt><trkpt lat="44.99755829167222" lon="9.821412558249705"><ele>58.0</ele><time>2026-05-03T15:54:28Z</time></trkpt><trkpt lat="44.997695068344704" lon="9.821060892538142"><ele>58.0</ele><time>2026-05-03T15:54:29Z</time></trkpt><trkpt lat="44.99783184540138" lon="9.820710324332913"><ele>58.0</ele><time>2026-05-03T15:54:30Z</time></trkpt><trkpt lat="44.99796784716209" lon="9.820363197538436"><ele>58.0</ele><time>2026-05-03T15:54:31Z</time></trkpt><trkpt lat="44.9981019201244" lon="9.8200185556959"><ele>58.0</ele><time>2026-05-03T15:54:32Z</time></trkpt><trkpt lat="44.998233034433746" lon="9.819679381334733"><ele>58.0</ele><time>2026-05-03T15:54:33Z</time></trkpt><trkpt lat="44.998360948244" lon="9.819345910838534"><ele>58.0</ele><time>2026-05-03T15:54:34Z</time></trkpt><trkpt lat="44.99848824154709" lon="9.819015683396625"><ele>58.0</ele><time>2026-05-03T15:54:35Z</time></trkpt><trkpt lat="44.99861713830486" lon="9.818686612802162"><ele>58.0</ele><time>2026-05-03T15:54:36Z</time></trkpt><trkpt lat="44.99874560543492" lon="9.818362452041264"><ele>58.0</ele><time>2026-05-03T15:54:37Z</time></trkpt><trkpt lat="44.9988733802277" lon="9.818037062053847"><ele>58.0</ele><time>2026-05-03T15:54:38Z</time></trkpt><trkpt lat="44.99900068399537" lon="9.817710368867576"><ele>58.0</ele><time>2026-05-03T15:54:39Z</time></trkpt><trkpt lat="44.99912750794637" lon="9.817383436099517"><ele>58.0</ele><time>2026-05-03T15:54:40Z</time></trkpt><trkpt lat="44.9992547682366" lon="9.817057167830631"><ele>58.0</ele><time>2026-05-03T15:54:41Z</time></trkpt><trkpt lat="44.99938198204275" lon="9.816729915630331"><ele>57.0</ele><time>2026-05-03T15:54:42Z</time></trkpt><trkpt lat="44.99950918875932" lon="9.816404145350754"><ele>56.0</ele><time>2026-05-03T15:54:43Z</time></trkpt><trkpt lat="44.99963458515609" lon="9.81608046000364"><ele>56.5</ele><time>2026-05-03T15:54:44Z</time></trkpt><trkpt lat="44.999758431062325" lon="9.815760294923328"><ele>57.0</ele><time>2026-05-03T15:54:45Z</time></trkpt><trkpt lat="44.99988233539944" lon="9.815440300684749"><ele>57.5</ele><time>2026-05-03T15:54:46Z</time></trkpt><trkpt lat="45.000004022634826" lon="9.81512665592314"><ele>58.0</ele><time>2026-05-03T15:54:47Z</time></trkpt><trkpt lat="45.000123994628524" lon="9.814820200687993"><ele>58.0</ele><time>2026-05-03T15:54:48Z</time></trkpt><trkpt lat="45.000242704772475" lon="9.814514219235232"><ele>58.0</ele><time>2026-05-03T15:54:49Z</time></trkpt><trkpt lat="45.00035927772614" lon="9.814208098202956"><ele>58.0</ele><time>2026-05-03T15:54:50Z</time></trkpt><trkpt lat="45.00047364971484" lon="9.813897987685888"><ele>58.0</ele><time>2026-05-03T15:54:51Z</time></trkpt><trkpt lat="45.00058542810158" lon="9.813581688437456"><ele>57.5</ele><time>2026-05-03T15:54:52Z</time></trkpt><trkpt lat="45.00070004144341" lon="9.81325899512601"><ele>57.0</ele><time>2026-05-03T15:54:53Z</time></trkpt><trkpt lat="45.00082003750157" lon="9.812940870911742"><ele>56.0</ele><time>2026-05-03T15:54:54Z</time></trkpt><trkpt lat="45.000943548073366" lon="9.812620769103027"><ele>55.0</ele><time>2026-05-03T15:54:55Z</time></trkpt><trkpt lat="45.001070317724746" lon="9.812297823424073"><ele>55.0</ele><time>2026-05-03T15:54:56Z</time></trkpt><trkpt lat="45.001199133851195" lon="9.811974052940586"><ele>55.0</ele><time>2026-05-03T15:54:57Z</time></trkpt><trkpt lat="45.0013280570864" lon="9.811647462224032"><ele>55.5</ele><time>2026-05-03T15:54:58Z</time></trkpt><trkpt lat="45.00145537034969" lon="9.811317998184961"><ele>56.0</ele><time>2026-05-03T15:54:59Z</time></trkpt><trkpt lat="45.00158328239029" lon="9.810986887839453"><ele>55.5</ele><time>2026-05-03T15:55:00Z</time></trkpt><trkpt lat="45.001712548187086" lon="9.810656386196932"><ele>55.0</ele><time>2026-05-03T15:55:01Z</time></trkpt><trkpt lat="45.0018456838163" lon="9.81032714440423"><ele>55.0</ele><time>2026-05-03T15:55:02Z</time></trkpt><trkpt lat="45.001979973289856" lon="9.809998438799006"><ele>55.0</ele><time>2026-05-03T15:55:03Z</time></trkpt><trkpt lat="45.00211462837946" lon="9.809667953539869"><ele>55.0</ele><time>2026-05-03T15:55:04Z</time></trkpt><trkpt lat="45.00224770343728" lon="9.80933700300739"><ele>55.0</ele><time>2026-05-03T15:55:05Z</time></trkpt><trkpt lat="45.002378772562835" lon="9.809005469804163"><ele>55.0</ele><time>2026-05-03T15:55:06Z</time></trkpt><trkpt lat="45.00250998918033" lon="9.8086724261058"><ele>55.0</ele><time>2026-05-03T15:55:07Z</time></trkpt><trkpt lat="45.00263898544592" lon="9.808342297085627"><ele>56.5</ele><time>2026-05-03T15:55:08Z</time></trkpt><trkpt lat="45.00276589616167" lon="9.80801474835735"><ele>58.0</ele><time>2026-05-03T15:55:09Z</time></trkpt><trkpt lat="45.00289081136711" lon="9.807690229480738"><ele>57.0</ele><time>2026-05-03T15:55:10Z</time></trkpt><trkpt lat="45.00301459841556" lon="9.807368419569276"><ele>56.0</ele><time>2026-05-03T15:55:11Z</time></trkpt><trkpt lat="45.00314037824052" lon="9.807049603789896"><ele>55.5</ele><time>2026-05-03T15:55:12Z</time></trkpt><trkpt lat="45.003265876261565" lon="9.80673282230144"><ele>55.0</ele><time>2026-05-03T15:55:13Z</time></trkpt><trkpt lat="45.00338904032709" lon="9.806415372567773"><ele>55.0</ele><time>2026-05-03T15:55:14Z</time></trkpt><trkpt lat="45.00351186560264" lon="9.806095586728198"><ele>55.0</ele><time>2026-05-03T15:55:15Z</time></trkpt><trkpt lat="45.00363533608466" lon="9.80577613255577"><ele>55.0</ele><time>2026-05-03T15:55:16Z</time></trkpt><trkpt lat="45.00375787942797" lon="9.805454960689572"><ele>55.0</ele><time>2026-05-03T15:55:17Z</time></trkpt><trkpt lat="45.0038811252285" lon="9.805135110285233"><ele>55.5</ele><time>2026-05-03T15:55:18Z</time></trkpt><trkpt lat="45.0040043157886" lon="9.804817787267583"><ele>56.0</ele><time>2026-05-03T15:55:19Z</time></trkpt><trkpt lat="45.00412744814125" lon="9.804502203221466"><ele>56.0</ele><time>2026-05-03T15:55:20Z</time></trkpt><trkpt lat="45.00425269368542" lon="9.804181070944619"><ele>56.0</ele><time>2026-05-03T15:55:21Z</time></trkpt><trkpt lat="45.00437571994713" lon="9.803862443799172"><ele>56.0</ele><time>2026-05-03T15:55:22Z</time></trkpt><trkpt lat="45.004498895776386" lon="9.80354409472264"><ele>56.0</ele><time>2026-05-03T15:55:23Z</time></trkpt><trkpt lat="45.004622544446896" lon="9.803224976428584"><ele>56.5</ele><time>2026-05-03T15:55:24Z</time></trkpt><trkpt lat="45.004741733492814" lon="9.802902730667277"><ele>57.0</ele><time>2026-05-03T15:55:25Z</time></trkpt><trkpt lat="45.00486474338519" lon="9.802582094205139"><ele>58.0</ele><time>2026-05-03T15:55:26Z</time></trkpt><trkpt lat="45.00498864486602" lon="9.802259854487293"><ele>59.0</ele><time>2026-05-03T15:55:27Z</time></trkpt><trkpt lat="45.00511014531722" lon="9.80193623619517"><ele>58.5</ele><time>2026-05-03T15:55:28Z</time></trkpt><trkpt lat="45.00523163889729" lon="9.801611493757749"><ele>58.0</ele><time>2026-05-03T15:55:29Z</time></trkpt><trkpt lat="45.0053580648315" lon="9.801286418254698"><ele>60.0</ele><time>2026-05-03T15:55:30Z</time></trkpt><trkpt lat="45.00549078715926" lon="9.800957415955109"><ele>62.0</ele><time>2026-05-03T15:55:31Z</time></trkpt><trkpt lat="45.005626211811126" lon="9.800625605070397"><ele>62.0</ele><time>2026-05-03T15:55:32Z</time></trkpt><trkpt lat="45.00576360508026" lon="9.800295230467293"><ele>62.0</ele><time>2026-05-03T15:55:33Z</time></trkpt><trkpt lat="45.00590435105848" lon="9.799966000554482"><ele>61.0</ele><time>2026-05-03T15:55:34Z</time></trkpt><trkpt lat="45.00604835576013" lon="9.799635320786928"><ele>60.0</ele><time>2026-05-03T15:55:35Z</time></trkpt><trkpt lat="45.00619359131912" lon="9.799302133106195"><ele>60.0</ele><time>2026-05-03T15:55:36Z</time></trkpt><trkpt lat="45.006339480406346" lon="9.79896879536652"><ele>60.0</ele><time>2026-05-03T15:55:37Z</time></trkpt><trkpt lat="45.006487475218144" lon="9.798638647458809"><ele>60.5</ele><time>2026-05-03T15:55:38Z</time></trkpt><trkpt lat="45.006639196820586" lon="9.798307125763301"><ele>61.0</ele><time>2026-05-03T15:55:39Z</time></trkpt><trkpt lat="45.00679300154857" lon="9.79797596187555"><ele>61.0</ele><time>2026-05-03T15:55:40Z</time></trkpt><trkpt lat="45.00694801567602" lon="9.797646077416498"><ele>61.0</ele><time>2026-05-03T15:55:41Z</time></trkpt><trkpt lat="45.00710607701948" lon="9.797317059986014"><ele>61.0</ele><time>2026-05-03T15:55:42Z</time></trkpt><trkpt lat="45.0072667078259" lon="9.796986886889924"><ele>61.0</ele><time>2026-05-03T15:55:43Z</time></trkpt><trkpt lat="45.0074289516624" lon="9.796656032094742"><ele>60.0</ele><time>2026-05-03T15:55:44Z</time></trkpt><trkpt lat="45.00759161201224" lon="9.796326454195613"><ele>59.0</ele><time>2026-05-03T15:55:45Z</time></trkpt><trkpt lat="45.007754878977146" lon="9.796002834965863"><ele>58.0</ele><time>2026-05-03T15:55:46Z</time></trkpt><trkpt lat="45.00791998738972" lon="9.795676759169675"><ele>57.0</ele><time>2026-05-03T15:55:47Z</time></trkpt><trkpt lat="45.008084808604565" lon="9.795354098524202"><ele>57.0</ele><time>2026-05-03T15:55:48Z</time></trkpt><trkpt lat="45.00825220178683" lon="9.795035351384746"><ele>57.0</ele><time>2026-05-03T15:55:49Z</time></trkpt><trkpt lat="45.00842329194912" lon="9.79472280416863"><ele>57.0</ele><time>2026-05-03T15:55:50Z</time></trkpt><trkpt lat="45.00859829827418" lon="9.79441336566217"><ele>57.0</ele><time>2026-05-03T15:55:51Z</time></trkpt><trkpt lat="45.00877492082699" lon="9.794103753274838"><ele>58.5</ele><time>2026-05-03T15:55:52Z</time></trkpt><trkpt lat="45.00895031005292" lon="9.793795558085124"><ele>60.0</ele><time>2026-05-03T15:55:53Z</time></trkpt><trkpt lat="45.009124744728126" lon="9.793484443352567"><ele>59.5</ele><time>2026-05-03T15:55:54Z</time></trkpt><trkpt lat="45.00929935537483" lon="9.79317577872142"><ele>59.0</ele><time>2026-05-03T15:55:55Z</time></trkpt><trkpt lat="45.00947586671517" lon="9.79286965819247"><ele>60.5</ele><time>2026-05-03T15:55:56Z</time></trkpt><trkpt lat="45.009652613848765" lon="9.792563373262903"><ele>62.0</ele><time>2026-05-03T15:55:57Z</time></trkpt><trkpt lat="45.00982961901221" lon="9.792258617460524"><ele>61.0</ele><time>2026-05-03T15:55:58Z</time></trkpt><trkpt lat="45.01000931325502" lon="9.791954782090057"><ele>60.0</ele><time>2026-05-03T15:55:59Z</time></trkpt><trkpt lat="45.01019138039634" lon="9.791651720818445"><ele>60.0</ele><time>2026-05-03T15:56:00Z</time></trkpt><trkpt lat="45.01037540365068" lon="9.791348761159492"><ele>60.0</ele><time>2026-05-03T15:56:01Z</time></trkpt><trkpt lat="45.01056034706601" lon="9.791049947722659"><ele>60.0</ele><time>2026-05-03T15:56:02Z</time></trkpt><trkpt lat="45.010747267287606" lon="9.790749288739018"><ele>60.0</ele><time>2026-05-03T15:56:03Z</time></trkpt><trkpt lat="45.01093689528094" lon="9.79044970719554"><ele>59.0</ele><time>2026-05-03T15:56:04Z</time></trkpt><trkpt lat="45.0111290108712" lon="9.790152913247622"><ele>58.0</ele><time>2026-05-03T15:56:05Z</time></trkpt><trkpt lat="45.01132360706304" lon="9.78985588543998"><ele>58.0</ele><time>2026-05-03T15:56:06Z</time></trkpt><trkpt lat="45.011516212658" lon="9.789560751226084"><ele>58.0</ele><time>2026-05-03T15:56:07Z</time></trkpt><trkpt lat="45.011709326839515" lon="9.789269969867131"><ele>58.0</ele><time>2026-05-03T15:56:08Z</time></trkpt><trkpt lat="45.01190550222466" lon="9.788979755668144"><ele>58.0</ele><time>2026-05-03T15:56:09Z</time></trkpt><trkpt lat="45.012102301409236" lon="9.788692183221247"><ele>58.0</ele><time>2026-05-03T15:56:10Z</time></trkpt><trkpt lat="45.012301315717316" lon="9.788408201235274"><ele>58.0</ele><time>2026-05-03T15:56:11Z</time></trkpt><trkpt lat="45.01250349258938" lon="9.788125263303773"><ele>58.0</ele><time>2026-05-03T15:56:12Z</time></trkpt><trkpt lat="45.01270513037314" lon="9.787844178214423"><ele>58.0</ele><time>2026-05-03T15:56:13Z</time></trkpt><trkpt lat="45.01290659148756" lon="9.787560273734016"><ele>58.0</ele><time>2026-05-03T15:56:14Z</time></trkpt><trkpt lat="45.013108652747704" lon="9.787279085943453"><ele>58.0</ele><time>2026-05-03T15:56:15Z</time></trkpt><trkpt lat="45.01331239244142" lon="9.786998079865999"><ele>57.5</ele><time>2026-05-03T15:56:16Z</time></trkpt><trkpt lat="45.0135173596325" lon="9.786717567016156"><ele>57.0</ele><time>2026-05-03T15:56:17Z</time></trkpt><trkpt lat="45.01372559257126" lon="9.786445599741304"><ele>57.0</ele><time>2026-05-03T15:56:18Z</time></trkpt><trkpt lat="45.0139362375451" lon="9.78617974314891"><ele>57.0</ele><time>2026-05-03T15:56:19Z</time></trkpt><trkpt lat="45.014143960132" lon="9.785908470265822"><ele>57.5</ele><time>2026-05-03T15:56:20Z</time></trkpt><trkpt lat="45.01435148263337" lon="9.785642901446229"><ele>58.0</ele><time>2026-05-03T15:56:21Z</time></trkpt><trkpt lat="45.01456291462872" lon="9.785379139861705"><ele>58.0</ele><time>2026-05-03T15:56:22Z</time></trkpt><trkpt lat="45.01477431737403" lon="9.785117029949767"><ele>58.0</ele><time>2026-05-03T15:56:23Z</time></trkpt><trkpt lat="45.01498614660105" lon="9.784852181304242"><ele>58.5</ele><time>2026-05-03T15:56:24Z</time></trkpt><trkpt lat="45.0151970278633" lon="9.784588525813296"><ele>59.0</ele><time>2026-05-03T15:56:25Z</time></trkpt><trkpt lat="45.015410328026434" lon="9.78432919408729"><ele>59.0</ele><time>2026-05-03T15:56:26Z</time></trkpt><trkpt lat="45.015626859555255" lon="9.784071802549255"><ele>59.0</ele><time>2026-05-03T15:56:27Z</time></trkpt><trkpt lat="45.015844017724774" lon="9.78381977617433"><ele>58.0</ele><time>2026-05-03T15:56:28Z</time></trkpt><trkpt lat="45.01606118724545" lon="9.783570148407536"><ele>57.0</ele><time>2026-05-03T15:56:29Z</time></trkpt><trkpt lat="45.01628115004314" lon="9.783324117337928"><ele>57.0</ele><time>2026-05-03T15:56:30Z</time></trkpt><trkpt lat="45.01650209420787" lon="9.783077241487593"><ele>57.0</ele><time>2026-05-03T15:56:31Z</time></trkpt><trkpt lat="45.016723651887034" lon="9.782835007778086"><ele>57.0</ele><time>2026-05-03T15:56:32Z</time></trkpt><trkpt lat="45.01694904046151" lon="9.782590853438792"><ele>57.0</ele><time>2026-05-03T15:56:33Z</time></trkpt><trkpt lat="45.01717455142059" lon="9.78234822436514"><ele>57.0</ele><time>2026-05-03T15:56:34Z</time></trkpt><trkpt lat="45.01740409951897" lon="9.782106537249067"><ele>57.0</ele><time>2026-05-03T15:56:35Z</time></trkpt><trkpt lat="45.017634179120755" lon="9.781865971134037"><ele>57.0</ele><time>2026-05-03T15:56:36Z</time></trkpt><trkpt lat="45.017865081250065" lon="9.781626595440832"><ele>57.0</ele><time>2026-05-03T15:56:37Z</time></trkpt><trkpt lat="45.0180958451605" lon="9.781386713850008"><ele>57.0</ele><time>2026-05-03T15:56:38Z</time></trkpt><trkpt lat="45.01833008099527" lon="9.781146514060046"><ele>57.0</ele><time>2026-05-03T15:56:39Z</time></trkpt><trkpt lat="45.01856590915371" lon="9.78091074381911"><ele>57.0</ele><time>2026-05-03T15:56:40Z</time></trkpt><trkpt lat="45.01879798423818" lon="9.780674918638061"><ele>57.0</ele><time>2026-05-03T15:56:41Z</time></trkpt><trkpt lat="45.01903213389042" lon="9.780443243214357"><ele>57.0</ele><time>2026-05-03T15:56:42Z</time></trkpt><trkpt lat="45.019267392279374" lon="9.780210331438976"><ele>57.0</ele><time>2026-05-03T15:56:43Z</time></trkpt><trkpt lat="45.0195027667407" lon="9.779979821541746"><ele>57.0</ele><time>2026-05-03T15:56:44Z</time></trkpt><trkpt lat="45.019740648360965" lon="9.779752061254564"><ele>57.0</ele><time>2026-05-03T15:56:45Z</time></trkpt><trkpt lat="45.01997836200738" lon="9.779520760355522"><ele>58.0</ele><time>2026-05-03T15:56:46Z</time></trkpt><trkpt lat="45.02021699142035" lon="9.77928827276275"><ele>59.0</ele><time>2026-05-03T15:56:47Z</time></trkpt><trkpt lat="45.02045397081317" lon="9.779057797472262"><ele>59.0</ele><time>2026-05-03T15:56:48Z</time></trkpt><trkpt lat="45.02069055488347" lon="9.778826002756762"><ele>59.0</ele><time>2026-05-03T15:56:49Z</time></trkpt><trkpt lat="45.020927071770394" lon="9.778596784800406"><ele>58.5</ele><time>2026-05-03T15:56:50Z</time></trkpt><trkpt lat="45.02116341721311" lon="9.778362631018641"><ele>58.0</ele><time>2026-05-03T15:56:51Z</time></trkpt><trkpt lat="45.021402173895986" lon="9.778128730144385"><ele>58.0</ele><time>2026-05-03T15:56:52Z</time></trkpt><trkpt lat="45.02164063155894" lon="9.777896871628151"><ele>58.0</ele><time>2026-05-03T15:56:53Z</time></trkpt><trkpt lat="45.02187941510161" lon="9.777663446066612"><ele>57.5</ele><time>2026-05-03T15:56:54Z</time></trkpt><trkpt lat="45.022116516455476" lon="9.777427076344141"><ele>57.0</ele><time>2026-05-03T15:56:55Z</time></trkpt><trkpt lat="45.02235581874779" lon="9.777192639002992"><ele>57.0</ele><time>2026-05-03T15:56:56Z</time></trkpt><trkpt lat="45.02259536838377" lon="9.776955828336114"><ele>57.0</ele><time>2026-05-03T15:56:57Z</time></trkpt><trkpt lat="45.022834413402634" lon="9.776719811443504"><ele>57.0</ele><time>2026-05-03T15:56:58Z</time></trkpt><trkpt lat="45.02307366494791" lon="9.776481642324052"><ele>57.0</ele><time>2026-05-03T15:56:59Z</time></trkpt><trkpt lat="45.0233135997672" lon="9.776245490241934"><ele>55.5</ele><time>2026-05-03T15:57:00Z</time></trkpt><trkpt lat="45.023556069642005" lon="9.776008253427566"><ele>54.0</ele><time>2026-05-03T15:57:01Z</time></trkpt><trkpt lat="45.02379655649243" lon="9.775772024574383"><ele>54.0</ele><time>2026-05-03T15:57:02Z</time></trkpt><trkpt lat="45.02403881456307" lon="9.775534741480582"><ele>54.0</ele><time>2026-05-03T15:57:03Z</time></trkpt><trkpt lat="45.02428049679853" lon="9.775297742038669"><ele>54.5</ele><time>2026-05-03T15:57:04Z</time></trkpt><trkpt lat="45.02452074932365" lon="9.775057387171604"><ele>55.0</ele><time>2026-05-03T15:57:05Z</time></trkpt><trkpt lat="45.02476094251214" lon="9.7748179266771"><ele>55.0</ele><time>2026-05-03T15:57:06Z</time></trkpt><trkpt lat="45.02500366167389" lon="9.774579399664756"><ele>55.0</ele><time>2026-05-03T15:57:07Z</time></trkpt><trkpt lat="45.025246553807825" lon="9.774341620325892"><ele>55.0</ele><time>2026-05-03T15:57:08Z</time></trkpt><trkpt lat="45.02549119097495" lon="9.774101318868208"><ele>55.0</ele><time>2026-05-03T15:57:09Z</time></trkpt><trkpt lat="45.02573424544247" lon="9.773860137999222"><ele>55.5</ele><time>2026-05-03T15:57:10Z</time></trkpt><trkpt lat="45.02597749184183" lon="9.77361905759515"><ele>56.0</ele><time>2026-05-03T15:57:11Z</time></trkpt><trkpt lat="45.0262199434777" lon="9.773379397192818"><ele>55.5</ele><time>2026-05-03T15:57:12Z</time></trkpt><trkpt lat="45.0264644146703" lon="9.773138393076575"><ele>55.0</ele><time>2026-05-03T15:57:13Z</time></trkpt><trkpt lat="45.02670865628021" lon="9.772895172536586"><ele>54.5</ele><time>2026-05-03T15:57:14Z</time></trkpt><trkpt lat="45.026953454705264" lon="9.772653831283142"><ele>54.0</ele><time>2026-05-03T15:57:15Z</time></trkpt><trkpt lat="45.027198596199305" lon="9.772412232933094"><ele>54.0</ele><time>2026-05-03T15:57:16Z</time></trkpt><trkpt lat="45.02744356319943" lon="9.772169301852491"><ele>54.0</ele><time>2026-05-03T15:57:17Z</time></trkpt><trkpt lat="45.02768725652863" lon="9.771927797401167"><ele>53.5</ele><time>2026-05-03T15:57:18Z</time></trkpt><trkpt lat="45.027929470213124" lon="9.771684454715352"><ele>53.0</ele><time>2026-05-03T15:57:19Z</time></trkpt><trkpt lat="45.02816947029635" lon="9.77144550376463"><ele>54.0</ele><time>2026-05-03T15:57:20Z</time></trkpt><trkpt lat="45.02841041255499" lon="9.771207795253558"><ele>55.0</ele><time>2026-05-03T15:57:21Z</time></trkpt><trkpt lat="45.02865076591204" lon="9.770975005982528"><ele>55.0</ele><time>2026-05-03T15:57:22Z</time></trkpt><trkpt lat="45.028890255061704" lon="9.77074259728037"><ele>55.0</ele><time>2026-05-03T15:57:23Z</time></trkpt><trkpt lat="45.029129636862905" lon="9.77050749866238"><ele>54.5</ele><time>2026-05-03T15:57:24Z</time></trkpt><trkpt lat="45.029369882017555" lon="9.770274985293893"><ele>54.0</ele><time>2026-05-03T15:57:25Z</time></trkpt><trkpt lat="45.0296085038234" lon="9.770042226571267"><ele>54.0</ele><time>2026-05-03T15:57:26Z</time></trkpt><trkpt lat="45.02984771906722" lon="9.769806517054233"><ele>54.0</ele><time>2026-05-03T15:57:27Z</time></trkpt><trkpt lat="45.030086878170785" lon="9.769567813018208"><ele>54.0</ele><time>2026-05-03T15:57:28Z</time></trkpt><trkpt lat="45.030325438477924" lon="9.769329404201347"><ele>54.0</ele><time>2026-05-03T15:57:29Z</time></trkpt><trkpt lat="45.03056399513025" lon="9.769091635037965"><ele>54.0</ele><time>2026-05-03T15:57:30Z</time></trkpt><trkpt lat="45.030801299331266" lon="9.768857617914504"><ele>54.0</ele><time>2026-05-03T15:57:31Z</time></trkpt><trkpt lat="45.031040201735976" lon="9.768623027271731"><ele>54.0</ele><time>2026-05-03T15:57:32Z</time></trkpt><trkpt lat="45.03127811053318" lon="9.768387231997574"><ele>54.0</ele><time>2026-05-03T15:57:33Z</time></trkpt><trkpt lat="45.031515787873516" lon="9.768151709005963"><ele>53.5</ele><time>2026-05-03T15:57:34Z</time></trkpt><trkpt lat="45.03175236010831" lon="9.767916329479089"><ele>53.0</ele><time>2026-05-03T15:57:35Z</time></trkpt><trkpt lat="45.03199038564533" lon="9.76768133943118"><ele>53.0</ele><time>2026-05-03T15:57:36Z</time></trkpt><trkpt lat="45.032228331562074" lon="9.767450553308066"><ele>53.0</ele><time>2026-05-03T15:57:37Z</time></trkpt><trkpt lat="45.032467180293" lon="9.767214065197066"><ele>53.0</ele><time>2026-05-03T15:57:38Z</time></trkpt><trkpt lat="45.03270401399513" lon="9.76697972887735"><ele>53.0</ele><time>2026-05-03T15:57:39Z</time></trkpt><trkpt lat="45.03294211635853" lon="9.766744319411831"><ele>53.0</ele><time>2026-05-03T15:57:40Z</time></trkpt><trkpt lat="45.03317933171311" lon="9.766507209198924"><ele>53.0</ele><time>2026-05-03T15:57:41Z</time></trkpt><trkpt lat="45.03341871579549" lon="9.76627147512319"><ele>54.0</ele><time>2026-05-03T15:57:42Z</time></trkpt><trkpt lat="45.03365956904717" lon="9.766036885901759"><ele>55.0</ele><time>2026-05-03T15:57:43Z</time></trkpt><trkpt lat="45.03390083342967" lon="9.76580558125313"><ele>55.0</ele><time>2026-05-03T15:57:44Z</time></trkpt><trkpt lat="45.034140250052836" lon="9.765571522691639"><ele>55.0</ele><time>2026-05-03T15:57:45Z</time></trkpt><trkpt lat="45.03438193982958" lon="9.765334420598432"><ele>54.5</ele><time>2026-05-03T15:57:46Z</time></trkpt><trkpt lat="45.034622423031365" lon="9.765095107562832"><ele>54.0</ele><time>2026-05-03T15:57:47Z</time></trkpt><trkpt lat="45.03486464426555" lon="9.764852350227653"><ele>54.0</ele><time>2026-05-03T15:57:48Z</time></trkpt><trkpt lat="45.03510520318569" lon="9.76461017840713"><ele>54.0</ele><time>2026-05-03T15:57:49Z</time></trkpt><trkpt lat="45.035346790022054" lon="9.76436970893027"><ele>53.5</ele><time>2026-05-03T15:57:50Z</time></trkpt><trkpt lat="45.035585344048876" lon="9.76412787164557"><ele>53.0</ele><time>2026-05-03T15:57:51Z</time></trkpt><trkpt lat="45.035827617218416" lon="9.763881936002173"><ele>53.0</ele><time>2026-05-03T15:57:52Z</time></trkpt><trkpt lat="45.03607001901986" lon="9.763637955289164"><ele>53.0</ele><time>2026-05-03T15:57:53Z</time></trkpt><trkpt lat="45.036314543380314" lon="9.763397553770332"><ele>52.0</ele><time>2026-05-03T15:57:54Z</time></trkpt><trkpt lat="45.03655981426527" lon="9.763161704584705"><ele>51.0</ele><time>2026-05-03T15:57:55Z</time></trkpt><trkpt lat="45.03680577703079" lon="9.762921573177186"><ele>50.5</ele><time>2026-05-03T15:57:56Z</time></trkpt><trkpt lat="45.037048922361336" lon="9.762677744872372"><ele>50.0</ele><time>2026-05-03T15:57:57Z</time></trkpt><trkpt lat="45.03729309584562" lon="9.76243421211182"><ele>49.0</ele><time>2026-05-03T15:57:58Z</time></trkpt><trkpt lat="45.03753682938471" lon="9.76219673938691"><ele>48.0</ele><time>2026-05-03T15:57:59Z</time></trkpt><trkpt lat="45.03778158857234" lon="9.761953717258463"><ele>49.0</ele><time>2026-05-03T15:58:00Z</time></trkpt><trkpt lat="45.038026185320476" lon="9.761712793646993"><ele>50.0</ele><time>2026-05-03T15:58:01Z</time></trkpt><trkpt lat="45.038268804972596" lon="9.76147280215038"><ele>50.5</ele><time>2026-05-03T15:58:02Z</time></trkpt><trkpt lat="45.03851335343156" lon="9.761232840446503"><ele>51.0</ele><time>2026-05-03T15:58:03Z</time></trkpt><trkpt lat="45.03875594436521" lon="9.760992119402447"><ele>50.0</ele><time>2026-05-03T15:58:04Z</time></trkpt><trkpt lat="45.038999718548304" lon="9.760753158301405"><ele>49.0</ele><time>2026-05-03T15:58:05Z</time></trkpt><trkpt lat="45.039240778506695" lon="9.760514502544963"><ele>49.0</ele><time>2026-05-03T15:58:06Z</time></trkpt><trkpt lat="45.03948382301152" lon="9.760279356019769"><ele>49.0</ele><time>2026-05-03T15:58:07Z</time></trkpt><trkpt lat="45.03972490446958" lon="9.760042815977956"><ele>49.0</ele><time>2026-05-03T15:58:08Z</time></trkpt><trkpt lat="45.03996544042632" lon="9.759807746006244"><ele>49.0</ele><time>2026-05-03T15:58:09Z</time></trkpt><trkpt lat="45.040206591120516" lon="9.759570335876369"><ele>47.5</ele><time>2026-05-03T15:58:10Z</time></trkpt><trkpt lat="45.04044785834979" lon="9.759329871974895"><ele>46.0</ele><time>2026-05-03T15:58:11Z</time></trkpt><trkpt lat="45.04068805892337" lon="9.759089604303094"><ele>45.0</ele><time>2026-05-03T15:58:12Z</time></trkpt><trkpt lat="45.04092905645006" lon="9.758848965730646"><ele>44.0</ele><time>2026-05-03T15:58:13Z</time></trkpt><trkpt lat="45.04117108217225" lon="9.758610119920833"><ele>44.5</ele><time>2026-05-03T15:58:14Z</time></trkpt><trkpt lat="45.04141280316506" lon="9.758369563413389"><ele>45.0</ele><time>2026-05-03T15:58:15Z</time></trkpt><trkpt lat="45.04165577618546" lon="9.75812833598213"><ele>45.5</ele><time>2026-05-03T15:58:16Z</time></trkpt><trkpt lat="45.041899958937584" lon="9.757889784733083"><ele>46.0</ele><time>2026-05-03T15:58:17Z</time></trkpt><trkpt lat="45.04214435823298" lon="9.757651091802556"><ele>46.0</ele><time>2026-05-03T15:58:18Z</time></trkpt><trkpt lat="45.042387931176684" lon="9.757415224747339"><ele>46.0</ele><time>2026-05-03T15:58:19Z</time></trkpt><trkpt lat="45.04263225251297" lon="9.757174057074513"><ele>46.0</ele><time>2026-05-03T15:58:20Z</time></trkpt><trkpt lat="45.04287415217167" lon="9.75693745129077"><ele>46.0</ele><time>2026-05-03T15:58:21Z</time></trkpt><trkpt lat="45.04311932298289" lon="9.756699474764844"><ele>45.5</ele><time>2026-05-03T15:58:22Z</time></trkpt><trkpt lat="45.0433618176111" lon="9.756460057903634"><ele>45.0</ele><time>2026-05-03T15:58:23Z</time></trkpt><trkpt lat="45.043605514215834" lon="9.756220171998613"><ele>45.0</ele><time>2026-05-03T15:58:24Z</time></trkpt><trkpt lat="45.043849392211726" lon="9.75598025155272"><ele>45.0</ele><time>2026-05-03T15:58:25Z</time></trkpt><trkpt lat="45.044093296781455" lon="9.755737507299028"><ele>45.0</ele><time>2026-05-03T15:58:26Z</time></trkpt><trkpt lat="45.0443378501531" lon="9.75549736745653"><ele>45.0</ele><time>2026-05-03T15:58:27Z</time></trkpt><trkpt lat="45.04458347084292" lon="9.755260841431772"><ele>45.5</ele><time>2026-05-03T15:58:28Z</time></trkpt><trkpt lat="45.04482593778767" lon="9.755021190929225"><ele>46.0</ele><time>2026-05-03T15:58:29Z</time></trkpt><trkpt lat="45.045068051000676" lon="9.754780986573046"><ele>46.0</ele><time>2026-05-03T15:58:30Z</time></trkpt><trkpt lat="45.04530941724149" lon="9.754541824217284"><ele>46.0</ele><time>2026-05-03T15:58:31Z</time></trkpt><trkpt lat="45.04554999683866" lon="9.754301660238351"><ele>45.5</ele><time>2026-05-03T15:58:32Z</time></trkpt><trkpt lat="45.04579009419287" lon="9.75406603637841"><ele>45.0</ele><time>2026-05-03T15:58:33Z</time></trkpt><trkpt lat="45.04602996209394" lon="9.753832597846369"><ele>45.0</ele><time>2026-05-03T15:58:34Z</time></trkpt><trkpt lat="45.046267995326716" lon="9.753600212563956"><ele>45.0</ele><time>2026-05-03T15:58:35Z</time></trkpt><trkpt lat="45.04650661946909" lon="9.753367494077802"><ele>45.0</ele><time>2026-05-03T15:58:36Z</time></trkpt><trkpt lat="45.04674285101231" lon="9.753135459742504"><ele>45.0</ele><time>2026-05-03T15:58:37Z</time></trkpt><trkpt lat="45.04698031657737" lon="9.752904043620507"><ele>45.0</ele><time>2026-05-03T15:58:38Z</time></trkpt><trkpt lat="45.047215798398554" lon="9.75267145938559"><ele>45.0</ele><time>2026-05-03T15:58:39Z</time></trkpt><trkpt lat="45.04744881060882" lon="9.752437199232416"><ele>45.5</ele><time>2026-05-03T15:58:40Z</time></trkpt><trkpt lat="45.04768029869512" lon="9.752201780742578"><ele>46.0</ele><time>2026-05-03T15:58:41Z</time></trkpt><trkpt lat="45.04791251462991" lon="9.751970104793603"><ele>46.0</ele><time>2026-05-03T15:58:42Z</time></trkpt><trkpt lat="45.04814485870373" lon="9.75174424383003"><ele>46.0</ele><time>2026-05-03T15:58:43Z</time></trkpt><trkpt lat="45.04837903596498" lon="9.751514520936064"><ele>47.0</ele><time>2026-05-03T15:58:44Z</time></trkpt><trkpt lat="45.048613111324386" lon="9.75128693874428"><ele>48.0</ele><time>2026-05-03T15:58:45Z</time></trkpt><trkpt lat="45.04884477563743" lon="9.751058116936477"><ele>46.5</ele><time>2026-05-03T15:58:46Z</time></trkpt><trkpt lat="45.04907428342961" lon="9.750829159221574"><ele>45.0</ele><time>2026-05-03T15:58:47Z</time></trkpt><trkpt lat="45.04930593775705" lon="9.750599658513504"><ele>45.0</ele><time>2026-05-03T15:58:48Z</time></trkpt><trkpt lat="45.0495373254173" lon="9.750370082116827"><ele>45.0</ele><time>2026-05-03T15:58:49Z</time></trkpt><trkpt lat="45.04977076331839" lon="9.750139089635574"><ele>45.5</ele><time>2026-05-03T15:58:50Z</time></trkpt><trkpt lat="45.05000273272461" lon="9.749908253396772"><ele>46.0</ele><time>2026-05-03T15:58:51Z</time></trkpt><trkpt lat="45.05023852162387" lon="9.749675945882798"><ele>46.0</ele><time>2026-05-03T15:58:52Z</time></trkpt><trkpt lat="45.05047290211557" lon="9.749443571401624"><ele>46.0</ele><time>2026-05-03T15:58:53Z</time></trkpt><trkpt lat="45.050705946438555" lon="9.749212157343349"><ele>46.5</ele><time>2026-05-03T15:58:54Z</time></trkpt><trkpt lat="45.05093892975008" lon="9.748979667193078"><ele>47.0</ele><time>2026-05-03T15:58:55Z</time></trkpt><trkpt lat="45.05117330652697" lon="9.748746225664135"><ele>47.0</ele><time>2026-05-03T15:58:56Z</time></trkpt><trkpt lat="45.05140886283622" lon="9.748515281148778"><ele>47.0</ele><time>2026-05-03T15:58:57Z</time></trkpt><trkpt lat="45.051641243499034" lon="9.748283731778333"><ele>47.0</ele><time>2026-05-03T15:58:58Z</time></trkpt><trkpt lat="45.05187198384834" lon="9.748054059227066"><ele>47.0</ele><time>2026-05-03T15:58:59Z</time></trkpt><trkpt lat="45.052103102763766" lon="9.747823679221018"><ele>46.5</ele><time>2026-05-03T15:59:00Z</time></trkpt><trkpt lat="45.05233529932711" lon="9.74759016435327"><ele>46.0</ele><time>2026-05-03T15:59:01Z</time></trkpt><trkpt lat="45.05257267698763" lon="9.747358196591623"><ele>47.0</ele><time>2026-05-03T15:59:02Z</time></trkpt><trkpt lat="45.05280381248177" lon="9.747130998569727"><ele>48.0</ele><time>2026-05-03T15:59:03Z</time></trkpt><trkpt lat="45.05303543182416" lon="9.746901946877054"><ele>48.5</ele><time>2026-05-03T15:59:04Z</time></trkpt><trkpt lat="45.053269006644854" lon="9.746672167456369"><ele>49.0</ele><time>2026-05-03T15:59:05Z</time></trkpt><trkpt lat="45.05350109753032" lon="9.746443678605793"><ele>48.0</ele><time>2026-05-03T15:59:06Z</time></trkpt><trkpt lat="45.05373170857275" lon="9.746213413628226"><ele>47.0</ele><time>2026-05-03T15:59:07Z</time></trkpt><trkpt lat="45.05396331033361" lon="9.745983963231472"><ele>46.5</ele><time>2026-05-03T15:59:08Z</time></trkpt><trkpt lat="45.054195791526794" lon="9.745757402182699"><ele>46.0</ele><time>2026-05-03T15:59:09Z</time></trkpt><trkpt lat="45.05442834476427" lon="9.7455271501951"><ele>46.0</ele><time>2026-05-03T15:59:10Z</time></trkpt><trkpt lat="45.054659002168854" lon="9.745295129075096"><ele>46.0</ele><time>2026-05-03T15:59:11Z</time></trkpt><trkpt lat="45.05489108310402" lon="9.74506485984971"><ele>46.0</ele><time>2026-05-03T15:59:12Z</time></trkpt><trkpt lat="45.055124231600864" lon="9.744839268999346"><ele>46.0</ele><time>2026-05-03T15:59:13Z</time></trkpt><trkpt lat="45.055358925966566" lon="9.744618983972593"><ele>46.0</ele><time>2026-05-03T15:59:14Z</time></trkpt><trkpt lat="45.055592134219424" lon="9.744383145445784"><ele>46.0</ele><time>2026-05-03T15:59:15Z</time></trkpt><trkpt lat="45.05582133048074" lon="9.744148950556049"><ele>46.0</ele><time>2026-05-03T15:59:16Z</time></trkpt><trkpt lat="45.05605722604737" lon="9.74391599134783"><ele>46.0</ele><time>2026-05-03T15:59:17Z</time></trkpt><trkpt lat="45.0562922520759" lon="9.743683041100779"><ele>45.5</ele><time>2026-05-03T15:59:18Z</time></trkpt><trkpt lat="45.056528596070656" lon="9.743448573023743"><ele>45.0</ele><time>2026-05-03T15:59:19Z</time></trkpt><trkpt lat="45.056766184532044" lon="9.743212367973014"><ele>45.0</ele><time>2026-05-03T15:59:20Z</time></trkpt><trkpt lat="45.05700510512961" lon="9.742978309830495"><ele>45.0</ele><time>2026-05-03T15:59:21Z</time></trkpt><trkpt lat="45.05724589533359" lon="9.74274438127269"><ele>46.5</ele><time>2026-05-03T15:59:22Z</time></trkpt><trkpt lat="45.05748855962413" lon="9.742511076935982"><ele>48.0</ele><time>2026-05-03T15:59:23Z</time></trkpt><trkpt lat="45.05772846721192" lon="9.742277058041882"><ele>48.0</ele><time>2026-05-03T15:59:24Z</time></trkpt><trkpt lat="45.05797039186481" lon="9.742044972811259"><ele>48.0</ele><time>2026-05-03T15:59:25Z</time></trkpt><trkpt lat="45.058210205823954" lon="9.741811144531301"><ele>47.0</ele><time>2026-05-03T15:59:26Z</time></trkpt><trkpt lat="45.05845086638169" lon="9.741578066408401"><ele>46.0</ele><time>2026-05-03T15:59:27Z</time></trkpt><trkpt lat="45.05868987597015" lon="9.741344538152156"><ele>46.0</ele><time>2026-05-03T15:59:28Z</time></trkpt><trkpt lat="45.058927233565996" lon="9.74111240925907"><ele>46.0</ele><time>2026-05-03T15:59:29Z</time></trkpt><trkpt lat="45.059165085048406" lon="9.740880783276085"><ele>46.0</ele><time>2026-05-03T15:59:30Z</time></trkpt><trkpt lat="45.05940451908856" lon="9.740653592970574"><ele>46.0</ele><time>2026-05-03T15:59:31Z</time></trkpt><trkpt lat="45.059643512309165" lon="9.740427865761202"><ele>46.5</ele><time>2026-05-03T15:59:32Z</time></trkpt><trkpt lat="45.05988119299091" lon="9.740204110458004"><ele>47.0</ele><time>2026-05-03T15:59:33Z</time></trkpt><trkpt lat="45.06012167532188" lon="9.739979988516986"><ele>47.0</ele><time>2026-05-03T15:59:34Z</time></trkpt><trkpt lat="45.060362008509095" lon="9.739756754354753"><ele>47.0</ele><time>2026-05-03T15:59:35Z</time></trkpt><trkpt lat="45.06060082554033" lon="9.739529150622968"><ele>49.5</ele><time>2026-05-03T15:59:36Z</time></trkpt><trkpt lat="45.0608376719444" lon="9.73929879800537"><ele>52.0</ele><time>2026-05-03T15:59:37Z</time></trkpt><trkpt lat="45.061076124099586" lon="9.739072639283666"><ele>52.0</ele><time>2026-05-03T15:59:38Z</time></trkpt><trkpt lat="45.06131101289992" lon="9.738837731738045"><ele>52.0</ele><time>2026-05-03T15:59:39Z</time></trkpt><trkpt lat="45.061542635175044" lon="9.738595522949954"><ele>53.5</ele><time>2026-05-03T15:59:40Z</time></trkpt><trkpt lat="45.06178013850146" lon="9.738356499041359"><ele>55.0</ele><time>2026-05-03T15:59:41Z</time></trkpt><trkpt lat="45.06201893163829" lon="9.73811972928576"><ele>55.0</ele><time>2026-05-03T15:59:42Z</time></trkpt><trkpt lat="45.06225912798264" lon="9.737880021306873"><ele>55.0</ele><time>2026-05-03T15:59:43Z</time></trkpt><trkpt lat="45.06250158627229" lon="9.737641541624965"><ele>53.5</ele><time>2026-05-03T15:59:44Z</time></trkpt><trkpt lat="45.06274523299045" lon="9.737405675890761"><ele>52.0</ele><time>2026-05-03T15:59:45Z</time></trkpt><trkpt lat="45.062986749005844" lon="9.737171670359633"><ele>52.0</ele><time>2026-05-03T15:59:46Z</time></trkpt><trkpt lat="45.06322847129495" lon="9.736936783524891"><ele>52.0</ele><time>2026-05-03T15:59:47Z</time></trkpt><trkpt lat="45.063468812254065" lon="9.736701175627378"><ele>50.5</ele><time>2026-05-03T15:59:48Z</time></trkpt><trkpt lat="45.06370712795261" lon="9.736463263995219"><ele>49.0</ele><time>2026-05-03T15:59:49Z</time></trkpt><trkpt lat="45.06394481798268" lon="9.736223826337921"><ele>48.5</ele><time>2026-05-03T15:59:50Z</time></trkpt><trkpt lat="45.06418273831885" lon="9.735986208844682"><ele>48.0</ele><time>2026-05-03T15:59:51Z</time></trkpt><trkpt lat="45.06442253396703" lon="9.735752258491855"><ele>48.0</ele><time>2026-05-03T15:59:52Z</time></trkpt><trkpt lat="45.06466190892828" lon="9.73551843061037"><ele>48.0</ele><time>2026-05-03T15:59:53Z</time></trkpt><trkpt lat="45.06489991298095" lon="9.735283298765415"><ele>44.5</ele><time>2026-05-03T15:59:54Z</time></trkpt><trkpt lat="45.065138790372814" lon="9.735044114761847"><ele>41.0</ele><time>2026-05-03T15:59:55Z</time></trkpt><trkpt lat="45.06537761966493" lon="9.734809941055833"><ele>41.0</ele><time>2026-05-03T15:59:56Z</time></trkpt><trkpt lat="45.06561814200052" lon="9.734576352979364"><ele>41.0</ele><time>2026-05-03T15:59:57Z</time></trkpt><trkpt lat="45.06585675237128" lon="9.734343250889285"><ele>41.0</ele><time>2026-05-03T15:59:58Z</time></trkpt><trkpt lat="45.06609428429968" lon="9.734107033477239"><ele>41.0</ele><time>2026-05-03T15:59:59Z</time></trkpt><trkpt lat="45.06633343587585" lon="9.733868908311546"><ele>41.0</ele><time>2026-05-03T16:00:00Z</time></trkpt><trkpt lat="45.06657457645052" lon="9.733631168244612"><ele>41.0</ele><time>2026-05-03T16:00:01Z</time></trkpt><trkpt lat="45.066817693636835" lon="9.733393436356788"><ele>42.0</ele><time>2026-05-03T16:00:02Z</time></trkpt><trkpt lat="45.06706231790934" lon="9.733156867308741"><ele>43.0</ele><time>2026-05-03T16:00:03Z</time></trkpt><trkpt lat="45.067305652379076" lon="9.732922373673237"><ele>47.0</ele><time>2026-05-03T16:00:04Z</time></trkpt><trkpt lat="45.06754653842057" lon="9.732684715863337"><ele>51.0</ele><time>2026-05-03T16:00:05Z</time></trkpt><trkpt lat="45.06778829803173" lon="9.732443443311396"><ele>51.0</ele><time>2026-05-03T16:00:06Z</time></trkpt><trkpt lat="45.06803106919118" lon="9.7322021438617"><ele>51.0</ele><time>2026-05-03T16:00:07Z</time></trkpt><trkpt lat="45.06827438322328" lon="9.731960995365403"><ele>49.5</ele><time>2026-05-03T16:00:08Z</time></trkpt><trkpt lat="45.06851748060523" lon="9.73172175442194"><ele>48.0</ele><time>2026-05-03T16:00:09Z</time></trkpt><trkpt lat="45.068759787770446" lon="9.73148215365085"><ele>48.0</ele><time>2026-05-03T16:00:10Z</time></trkpt><trkpt lat="45.06899990748966" lon="9.731238500895774"><ele>48.0</ele><time>2026-05-03T16:00:11Z</time></trkpt><trkpt lat="45.069241314455546" lon="9.730995711761103"><ele>48.0</ele><time>2026-05-03T16:00:12Z</time></trkpt><trkpt lat="45.069483822397956" lon="9.730753830388663"><ele>48.0</ele><time>2026-05-03T16:00:13Z</time></trkpt><trkpt lat="45.06972568164917" lon="9.730512007045395"><ele>48.5</ele><time>2026-05-03T16:00:14Z</time></trkpt><trkpt lat="45.06996665856931" lon="9.730270982794275"><ele>49.0</ele><time>2026-05-03T16:00:15Z</time></trkpt><trkpt lat="45.07020367837274" lon="9.730036147683403"><ele>48.0</ele><time>2026-05-03T16:00:16Z</time></trkpt><trkpt lat="45.07042806190101" lon="9.729815920693174"><ele>47.0</ele><time>2026-05-03T16:00:17Z</time></trkpt><trkpt lat="45.07064155248475" lon="9.729602993164796"><ele>46.5</ele><time>2026-05-03T16:00:18Z</time></trkpt><trkpt lat="45.07084998692682" lon="9.729396083697791"><ele>46.0</ele><time>2026-05-03T16:00:19Z</time></trkpt><trkpt lat="45.0710587749997" lon="9.729192529540363"><ele>47.5</ele><time>2026-05-03T16:00:20Z</time></trkpt><trkpt lat="45.07126600786531" lon="9.728989657619083"><ele>49.0</ele><time>2026-05-03T16:00:21Z</time></trkpt><trkpt lat="45.07147252855173" lon="9.728786350966805"><ele>49.0</ele><time>2026-05-03T16:00:22Z</time></trkpt><trkpt lat="45.07167700485111" lon="9.72858274558814"><ele>49.0</ele><time>2026-05-03T16:00:23Z</time></trkpt><trkpt lat="45.0718788617103" lon="9.72838085377654"><ele>49.5</ele><time>2026-05-03T16:00:24Z</time></trkpt><trkpt lat="45.07207593696743" lon="9.728178311596011"><ele>50.0</ele><time>2026-05-03T16:00:25Z</time></trkpt><trkpt lat="45.072270385298204" lon="9.727974197191905"><ele>49.5</ele><time>2026-05-03T16:00:26Z</time></trkpt><trkpt lat="45.07246432408887" lon="9.72776735198106"><ele>49.0</ele><time>2026-05-03T16:00:27Z</time></trkpt><trkpt lat="45.07265807009315" lon="9.727560537140715"><ele>49.0</ele><time>2026-05-03T16:00:28Z</time></trkpt><trkpt lat="45.07285129309244" lon="9.727356149915662"><ele>49.0</ele><time>2026-05-03T16:00:29Z</time></trkpt><trkpt lat="45.073043889581314" lon="9.727153743900265"><ele>49.0</ele><time>2026-05-03T16:00:30Z</time></trkpt><trkpt lat="45.07323772532041" lon="9.726954061693514"><ele>49.0</ele><time>2026-05-03T16:00:31Z</time></trkpt><trkpt lat="45.073429057332" lon="9.726761068324672"><ele>48.0</ele><time>2026-05-03T16:00:32Z</time></trkpt><trkpt lat="45.07361575098878" lon="9.726577716235031"><ele>47.0</ele><time>2026-05-03T16:00:33Z</time></trkpt><trkpt lat="45.073800269544556" lon="9.726397583068398"><ele>47.0</ele><time>2026-05-03T16:00:34Z</time></trkpt><trkpt lat="45.073981041947526" lon="9.726215815038895"><ele>47.0</ele><time>2026-05-03T16:00:35Z</time></trkpt><trkpt lat="45.07416174159492" lon="9.726038269037314"><ele>47.0</ele><time>2026-05-03T16:00:36Z</time></trkpt><trkpt lat="45.0743428859009" lon="9.725859649744521"><ele>47.666666666666664</ele><time>2026-05-03T16:00:37Z</time></trkpt><trkpt lat="45.074523737398984" lon="9.725680332489832"><ele>48.33333333333333</ele><time>2026-05-03T16:00:38Z</time></trkpt><trkpt lat="45.074704779082126" lon="9.725503188507359"><ele>49.0</ele><time>2026-05-03T16:00:39Z</time></trkpt><trkpt lat="45.07488919726187" lon="9.725324190917846"><ele>48.5</ele><time>2026-05-03T16:00:40Z</time></trkpt><trkpt lat="45.075082249872594" lon="9.725137194251618"><ele>48.0</ele><time>2026-05-03T16:00:41Z</time></trkpt><trkpt lat="45.07527480872351" lon="9.724946875578432"><ele>48.0</ele><time>2026-05-03T16:00:42Z</time></trkpt><trkpt lat="45.07547174137749" lon="9.72475183761591"><ele>48.0</ele><time>2026-05-03T16:00:43Z</time></trkpt><trkpt lat="45.07567000283251" lon="9.724556079078772"><ele>47.5</ele><time>2026-05-03T16:00:44Z</time></trkpt><trkpt lat="45.07587559768249" lon="9.72436563365058"><ele>47.0</ele><time>2026-05-03T16:00:45Z</time></trkpt><trkpt lat="45.076088832294545" lon="9.724169824782749"><ele>47.0</ele><time>2026-05-03T16:00:46Z</time></trkpt><trkpt lat="45.07630114675974" lon="9.723956397356774"><ele>47.0</ele><time>2026-05-03T16:00:47Z</time></trkpt><trkpt lat="45.076516950921516" lon="9.723740098335842"><ele>46.5</ele><time>2026-05-03T16:00:48Z</time></trkpt><trkpt lat="45.07673353207459" lon="9.723526447902781"><ele>46.0</ele><time>2026-05-03T16:00:49Z</time></trkpt><trkpt lat="45.07695011835092" lon="9.723313574329078"><ele>46.0</ele><time>2026-05-03T16:00:50Z</time></trkpt><trkpt lat="45.07716833624092" lon="9.723097882915255"><ele>46.0</ele><time>2026-05-03T16:00:51Z</time></trkpt><trkpt lat="45.07738682256044" lon="9.722878907786985"><ele>46.5</ele><time>2026-05-03T16:00:52Z</time></trkpt><trkpt lat="45.07760642717498" lon="9.722660386599998"><ele>47.0</ele><time>2026-05-03T16:00:53Z</time></trkpt><trkpt lat="45.077827643800816" lon="9.72244077829599"><ele>47.0</ele><time>2026-05-03T16:00:54Z</time></trkpt><trkpt lat="45.07804671889336" lon="9.722219221621495"><ele>47.0</ele><time>2026-05-03T16:00:55Z</time></trkpt><trkpt lat="45.07826431252371" lon="9.721997058877104"><ele>47.0</ele><time>2026-05-03T16:00:56Z</time></trkpt><trkpt lat="45.07848040726522" lon="9.72177478072091"><ele>47.0</ele><time>2026-05-03T16:00:57Z</time></trkpt><trkpt lat="45.07869294770976" lon="9.72155437166722"><ele>47.0</ele><time>2026-05-03T16:00:58Z</time></trkpt><trkpt lat="45.078903322416316" lon="9.721333218816223"><ele>47.0</ele><time>2026-05-03T16:00:58.999Z</time></trkpt><trkpt lat="45.07911347334417" lon="9.721113443847477"><ele>47.5</ele><time>2026-05-03T16:00:59.999Z</time></trkpt><trkpt lat="45.079321947931184" lon="9.720895262201706"><ele>48.0</ele><time>2026-05-03T16:01:00.999Z</time></trkpt><trkpt lat="45.07952883478584" lon="9.720679318200768"><ele>48.0</ele><time>2026-05-03T16:01:01.999Z</time></trkpt><trkpt lat="45.07973491861593" lon="9.720467222049718"><ele>48.0</ele><time>2026-05-03T16:01:02.999Z</time></trkpt><trkpt lat="45.079936517931294" lon="9.72025314606073"><ele>47.5</ele><time>2026-05-03T16:01:04Z</time></trkpt><trkpt lat="45.080135067958025" lon="9.720041227233171"><ele>47.0</ele><time>2026-05-03T16:01:05Z</time></trkpt><trkpt lat="45.08033271887057" lon="9.719830491503865"><ele>47.0</ele><time>2026-05-03T16:01:06Z</time></trkpt><trkpt lat="45.080526311238955" lon="9.719622669710438"><ele>47.0</ele><time>2026-05-03T16:01:07Z</time></trkpt><trkpt lat="45.08071564796091" lon="9.719419361919151"><ele>47.0</ele><time>2026-05-03T16:01:08Z</time></trkpt><trkpt lat="45.08090184264376" lon="9.719217509340398"><ele>47.0</ele><time>2026-05-03T16:01:09Z</time></trkpt><trkpt lat="45.08108791772935" lon="9.719017915710378"><ele>47.0</ele><time>2026-05-03T16:01:10Z</time></trkpt><trkpt lat="45.08127464666155" lon="9.718821071430638"><ele>47.0</ele><time>2026-05-03T16:01:11Z</time></trkpt><trkpt lat="45.08146036193748" lon="9.718624773642388"><ele>48.0</ele><time>2026-05-03T16:01:12Z</time></trkpt><trkpt lat="45.08164514636206" lon="9.718426670000683"><ele>49.0</ele><time>2026-05-03T16:01:13Z</time></trkpt><trkpt lat="45.08182928105219" lon="9.71822695691299"><ele>49.0</ele><time>2026-05-03T16:01:14Z</time></trkpt><trkpt lat="45.082013843805086" lon="9.718025616759807"><ele>49.0</ele><time>2026-05-03T16:01:15Z</time></trkpt><trkpt lat="45.08219862974648" lon="9.717827607780823"><ele>49.0</ele><time>2026-05-03T16:01:16Z</time></trkpt><trkpt lat="45.082384030620574" lon="9.717627665380077"><ele>49.0</ele><time>2026-05-03T16:01:17Z</time></trkpt><trkpt lat="45.08256553425361" lon="9.717419694815888"><ele>49.0</ele><time>2026-05-03T16:01:18Z</time></trkpt><trkpt lat="45.082747847986006" lon="9.717209645999445"><ele>49.0</ele><time>2026-05-03T16:01:19Z</time></trkpt><trkpt lat="45.08293277427817" lon="9.71700142617352"><ele>49.0</ele><time>2026-05-03T16:01:20Z</time></trkpt><trkpt lat="45.083118876187136" lon="9.716794366258672"><ele>49.0</ele><time>2026-05-03T16:01:21Z</time></trkpt><trkpt lat="45.08330608948716" lon="9.716586953171692"><ele>50.5</ele><time>2026-05-03T16:01:22Z</time></trkpt><trkpt lat="45.08349612799754" lon="9.716380182976472"><ele>52.0</ele><time>2026-05-03T16:01:23Z</time></trkpt><trkpt lat="45.0836881162799" lon="9.716173087634703"><ele>50.0</ele><time>2026-05-03T16:01:24Z</time></trkpt><trkpt lat="45.083882209556535" lon="9.715962358411518"><ele>48.0</ele><time>2026-05-03T16:01:25Z</time></trkpt><trkpt lat="45.084075732441946" lon="9.715753055791168"><ele>48.0</ele><time>2026-05-03T16:01:26Z</time></trkpt><trkpt lat="45.084270906849646" lon="9.715544472056063"><ele>48.0</ele><time>2026-05-03T16:01:27Z</time></trkpt><trkpt lat="45.084466395466585" lon="9.715336229803011"><ele>47.5</ele><time>2026-05-03T16:01:28Z</time></trkpt><trkpt lat="45.0846631563169" lon="9.715127600282806"><ele>47.0</ele><time>2026-05-03T16:01:29Z</time></trkpt><trkpt lat="45.084856954519104" lon="9.714919122461382"><ele>48.0</ele><time>2026-05-03T16:01:30Z</time></trkpt><trkpt lat="45.08505038487462" lon="9.714708417483443"><ele>49.0</ele><time>2026-05-03T16:01:31Z</time></trkpt><trkpt lat="45.08524491737533" lon="9.714497396394771"><ele>48.0</ele><time>2026-05-03T16:01:32Z</time></trkpt><trkpt lat="45.08543894818854" lon="9.714278312468423"><ele>47.0</ele><time>2026-05-03T16:01:33Z</time></trkpt><trkpt lat="45.08563433784779" lon="9.714049776413637"><ele>47.5</ele><time>2026-05-03T16:01:34Z</time></trkpt><trkpt lat="45.085835961850044" lon="9.713824160118948"><ele>48.0</ele><time>2026-05-03T16:01:35Z</time></trkpt><trkpt lat="45.08604443815739" lon="9.713599599097236"><ele>47.5</ele><time>2026-05-03T16:01:36Z</time></trkpt><trkpt lat="45.08625226212834" lon="9.713373603890128"><ele>47.0</ele><time>2026-05-03T16:01:37Z</time></trkpt><trkpt lat="45.086458741602996" lon="9.713151122113004"><ele>47.0</ele><time>2026-05-03T16:01:38Z</time></trkpt><trkpt lat="45.08666386632809" lon="9.712930555282"><ele>47.0</ele><time>2026-05-03T16:01:39Z</time></trkpt><trkpt lat="45.08686816057949" lon="9.712711491389845"><ele>46.5</ele><time>2026-05-03T16:01:40Z</time></trkpt><trkpt lat="45.08707206118991" lon="9.7124946267096"><ele>46.0</ele><time>2026-05-03T16:01:41Z</time></trkpt><trkpt lat="45.087275148820204" lon="9.712278458004167"><ele>46.0</ele><time>2026-05-03T16:01:42Z</time></trkpt><trkpt lat="45.08747626417819" lon="9.712065653046624"><ele>46.0</ele><time>2026-05-03T16:01:43Z</time></trkpt><trkpt lat="45.087677382792236" lon="9.711850507082124"><ele>46.0</ele><time>2026-05-03T16:01:44Z</time></trkpt><trkpt lat="45.08787732654975" lon="9.71163429985147"><ele>46.0</ele><time>2026-05-03T16:01:45Z</time></trkpt><trkpt lat="45.08807662970244" lon="9.711419549913304"><ele>46.0</ele><time>2026-05-03T16:01:46Z</time></trkpt><trkpt lat="45.08827705994996" lon="9.711203746431492"><ele>46.0</ele><time>2026-05-03T16:01:47Z</time></trkpt><trkpt lat="45.088475486467715" lon="9.710990429321848"><ele>46.0</ele><time>2026-05-03T16:01:48Z</time></trkpt><trkpt lat="45.08867419560727" lon="9.710776625763717"><ele>46.0</ele><time>2026-05-03T16:01:49Z</time></trkpt><trkpt lat="45.08887364013053" lon="9.710562588030056"><ele>46.0</ele><time>2026-05-03T16:01:50Z</time></trkpt><trkpt lat="45.089075482341165" lon="9.710346602619568"><ele>46.0</ele><time>2026-05-03T16:01:51Z</time></trkpt><trkpt lat="45.08927561770187" lon="9.710134441032762"><ele>45.5</ele><time>2026-05-03T16:01:52Z</time></trkpt><trkpt lat="45.089474986750716" lon="9.709922265402838"><ele>45.0</ele><time>2026-05-03T16:01:53Z</time></trkpt><trkpt lat="45.08967248873054" lon="9.709711651230533"><ele>45.0</ele><time>2026-05-03T16:01:54Z</time></trkpt><trkpt lat="45.08986688671958" lon="9.709502664071744"><ele>45.0</ele><time>2026-05-03T16:01:55Z</time></trkpt><trkpt lat="45.0900601022774" lon="9.709291993052668"><ele>43.5</ele><time>2026-05-03T16:01:56Z</time></trkpt><trkpt lat="45.090253289140975" lon="9.709081558164085"><ele>42.0</ele><time>2026-05-03T16:01:57Z</time></trkpt><trkpt lat="45.09044623503744" lon="9.708869762563443"><ele>42.0</ele><time>2026-05-03T16:01:58Z</time></trkpt><trkpt lat="45.090638626036345" lon="9.708655224880555"><ele>42.0</ele><time>2026-05-03T16:01:59Z</time></trkpt><trkpt lat="45.09083246196791" lon="9.708436329527611"><ele>42.5</ele><time>2026-05-03T16:02:00Z</time></trkpt><trkpt lat="45.091030836898355" lon="9.708221056255422"><ele>43.0</ele><time>2026-05-03T16:02:01Z</time></trkpt><trkpt lat="45.091232682367746" lon="9.708009825284929"><ele>43.0</ele><time>2026-05-03T16:02:02Z</time></trkpt><trkpt lat="45.09143603596504" lon="9.707796060583751"><ele>43.0</ele><time>2026-05-03T16:02:03Z</time></trkpt><trkpt lat="45.091641196416454" lon="9.70758129441684"><ele>45.0</ele><time>2026-05-03T16:02:04Z</time></trkpt><trkpt lat="45.0918479790242" lon="9.70736016474172"><ele>47.0</ele><time>2026-05-03T16:02:05Z</time></trkpt><trkpt lat="45.09205233091213" lon="9.707139891098945"><ele>47.0</ele><time>2026-05-03T16:02:06Z</time></trkpt><trkpt lat="45.09226015933645" lon="9.706918193324958"><ele>47.0</ele><time>2026-05-03T16:02:07Z</time></trkpt><trkpt lat="45.09247076076627" lon="9.706695345455218"><ele>45.5</ele><time>2026-05-03T16:02:08Z</time></trkpt><trkpt lat="45.09268089355721" lon="9.70647410054503"><ele>44.0</ele><time>2026-05-03T16:02:09Z</time></trkpt><trkpt lat="45.09289083362479" lon="9.70625318197667"><ele>44.0</ele><time>2026-05-03T16:02:10Z</time></trkpt><trkpt lat="45.09309955615342" lon="9.706031477096554"><ele>44.0</ele><time>2026-05-03T16:02:11Z</time></trkpt><trkpt lat="45.09330816913159" lon="9.705808608832355"><ele>44.0</ele><time>2026-05-03T16:02:12Z</time></trkpt><trkpt lat="45.09351897077914" lon="9.705587620585433"><ele>44.0</ele><time>2026-05-03T16:02:13Z</time></trkpt><trkpt lat="45.09372966300967" lon="9.705369323845185"><ele>44.0</ele><time>2026-05-03T16:02:14Z</time></trkpt><trkpt lat="45.09393831793277" lon="9.705145174723281"><ele>44.0</ele><time>2026-05-03T16:02:15Z</time></trkpt><trkpt lat="45.09414670929305" lon="9.704919654903032"><ele>44.0</ele><time>2026-05-03T16:02:16Z</time></trkpt><trkpt lat="45.0943585905034" lon="9.704698446340064"><ele>44.0</ele><time>2026-05-03T16:02:17Z</time></trkpt><trkpt lat="45.09457229868061" lon="9.704481919862943"><ele>44.5</ele><time>2026-05-03T16:02:18Z</time></trkpt><trkpt lat="45.09478617758311" lon="9.704264871860962"><ele>45.0</ele><time>2026-05-03T16:02:19Z</time></trkpt><trkpt lat="45.09499786774263" lon="9.704044919252276"><ele>45.0</ele><time>2026-05-03T16:02:20Z</time></trkpt><trkpt lat="45.09520979997856" lon="9.703822523548478"><ele>45.0</ele><time>2026-05-03T16:02:21Z</time></trkpt><trkpt lat="45.09542133603228" lon="9.703599790800125"><ele>44.5</ele><time>2026-05-03T16:02:22Z</time></trkpt><trkpt lat="45.095632838954764" lon="9.703374216362137"><ele>44.0</ele><time>2026-05-03T16:02:23Z</time></trkpt><trkpt lat="45.0958434346678" lon="9.703145458896413"><ele>44.0</ele><time>2026-05-03T16:02:24Z</time></trkpt><trkpt lat="45.096055743783275" lon="9.702918257054387"><ele>44.0</ele><time>2026-05-03T16:02:25Z</time></trkpt><trkpt lat="45.09626944463301" lon="9.702689658694394"><ele>44.0</ele><time>2026-05-03T16:02:26Z</time></trkpt><trkpt lat="45.09648229540376" lon="9.702459888126254"><ele>44.0</ele><time>2026-05-03T16:02:27Z</time></trkpt><trkpt lat="45.09669617999708" lon="9.702229431295079"><ele>44.5</ele><time>2026-05-03T16:02:28Z</time></trkpt><trkpt lat="45.09691092583097" lon="9.701999166352874"><ele>45.0</ele><time>2026-05-03T16:02:29Z</time></trkpt><trkpt lat="45.09712629797818" lon="9.701767311814413"><ele>45.0</ele><time>2026-05-03T16:02:30Z</time></trkpt><trkpt lat="45.09734257549309" lon="9.701531665704984"><ele>45.0</ele><time>2026-05-03T16:02:31Z</time></trkpt><trkpt lat="45.09755882932881" lon="9.70129571497246"><ele>44.0</ele><time>2026-05-03T16:02:32Z</time></trkpt><trkpt lat="45.097775260805186" lon="9.701060651794279"><ele>43.0</ele><time>2026-05-03T16:02:33Z</time></trkpt><trkpt lat="45.09799332178963" lon="9.700825409586457"><ele>43.0</ele><time>2026-05-03T16:02:34Z</time></trkpt><trkpt lat="45.09821154534557" lon="9.700590065811511"><ele>43.0</ele><time>2026-05-03T16:02:35Z</time></trkpt><trkpt lat="45.09843060149728" lon="9.700354084874888"><ele>43.0</ele><time>2026-05-03T16:02:36Z</time></trkpt><trkpt lat="45.098650319451075" lon="9.700116810104408"><ele>43.0</ele><time>2026-05-03T16:02:37Z</time></trkpt><trkpt lat="45.098870723774205" lon="9.699880687241546"><ele>43.0</ele><time>2026-05-03T16:02:38Z</time></trkpt><trkpt lat="45.09909188558488" lon="9.69964314871389"><ele>43.0</ele><time>2026-05-03T16:02:39Z</time></trkpt><trkpt lat="45.09931440360495" lon="9.699404822894563"><ele>44.0</ele><time>2026-05-03T16:02:40Z</time></trkpt><trkpt lat="45.09953748077889" lon="9.69916626273767"><ele>45.0</ele><time>2026-05-03T16:02:41Z</time></trkpt><trkpt lat="45.099757605873556" lon="9.698929962035491"><ele>44.5</ele><time>2026-05-03T16:02:42Z</time></trkpt><trkpt lat="45.099977364053984" lon="9.698694779902164"><ele>44.0</ele><time>2026-05-03T16:02:43Z</time></trkpt><trkpt lat="45.10020006196989" lon="9.69846085198736"><ele>46.0</ele><time>2026-05-03T16:02:44Z</time></trkpt><trkpt lat="45.10042342613124" lon="9.698222496707436"><ele>48.0</ele><time>2026-05-03T16:02:45Z</time></trkpt><trkpt lat="45.100642102327846" lon="9.697982997845129"><ele>47.0</ele><time>2026-05-03T16:02:46Z</time></trkpt><trkpt lat="45.10086443857461" lon="9.697744359954672"><ele>46.0</ele><time>2026-05-03T16:02:47Z</time></trkpt><trkpt lat="45.101086271759705" lon="9.697504193411927"><ele>46.0</ele><time>2026-05-03T16:02:48Z</time></trkpt><trkpt lat="45.1013090922223" lon="9.697265163735537"><ele>46.0</ele><time>2026-05-03T16:02:49Z</time></trkpt><trkpt lat="45.10153114113019" lon="9.697027499869401"><ele>45.0</ele><time>2026-05-03T16:02:50Z</time></trkpt><trkpt lat="45.10175440580955" lon="9.696789158635964"><ele>44.0</ele><time>2026-05-03T16:02:51Z</time></trkpt><trkpt lat="45.101977052067376" lon="9.696551760316721"><ele>44.0</ele><time>2026-05-03T16:02:52Z</time></trkpt><trkpt lat="45.10219788992627" lon="9.696312133303246"><ele>44.0</ele><time>2026-05-03T16:02:53Z</time></trkpt><trkpt lat="45.1024191185142" lon="9.69607364433883"><ele>44.5</ele><time>2026-05-03T16:02:54Z</time></trkpt><trkpt lat="45.1026427306233" lon="9.69583421510114"><ele>45.0</ele><time>2026-05-03T16:02:55Z</time></trkpt><trkpt lat="45.102862534322945" lon="9.695594223019615"><ele>45.0</ele><time>2026-05-03T16:02:56Z</time></trkpt><trkpt lat="45.10308319178773" lon="9.695353392398951"><ele>45.0</ele><time>2026-05-03T16:02:57Z</time></trkpt><trkpt lat="45.103303998878694" lon="9.695113675937412"><ele>45.0</ele><time>2026-05-03T16:02:57.999Z</time></trkpt><trkpt lat="45.103524643806296" lon="9.69487556902317"><ele>45.0</ele><time>2026-05-03T16:02:58.999Z</time></trkpt><trkpt lat="45.10374482779265" lon="9.694641058727157"><ele>45.5</ele><time>2026-05-03T16:02:59.999Z</time></trkpt><trkpt lat="45.10396388573527" lon="9.694409213105162"><ele>46.0</ele><time>2026-05-03T16:03:00.999Z</time></trkpt><trkpt lat="45.10418227554929" lon="9.694174132105168"><ele>46.0</ele><time>2026-05-03T16:03:01.999Z</time></trkpt><trkpt lat="45.10439914398259" lon="9.69393900796567"><ele>46.0</ele><time>2026-05-03T16:03:02.999Z</time></trkpt><trkpt lat="45.10461387982771" lon="9.693703404234645"><ele>45.5</ele><time>2026-05-03T16:03:03.999Z</time></trkpt><trkpt lat="45.10482954136818" lon="9.693468630016765"><ele>45.0</ele><time>2026-05-03T16:03:04.999Z</time></trkpt><trkpt lat="45.10504614992181" lon="9.693238728777581"><ele>45.0</ele><time>2026-05-03T16:03:05.999Z</time></trkpt><trkpt lat="45.10526036647425" lon="9.693009046841723"><ele>45.0</ele><time>2026-05-03T16:03:06.999Z</time></trkpt><trkpt lat="45.105474125093785" lon="9.69277556288715"><ele>45.0</ele><time>2026-05-03T16:03:07.999Z</time></trkpt><trkpt lat="45.1056894360093" lon="9.692545166633431"><ele>45.0</ele><time>2026-05-03T16:03:08.999Z</time></trkpt><trkpt lat="45.10590394773064" lon="9.692316816760222"><ele>46.5</ele><time>2026-05-03T16:03:10Z</time></trkpt><trkpt lat="45.10611792058229" lon="9.692087263403762"><ele>48.0</ele><time>2026-05-03T16:03:11Z</time></trkpt><trkpt lat="45.10633074495926" lon="9.691857790669337"><ele>48.0</ele><time>2026-05-03T16:03:12Z</time></trkpt><trkpt lat="45.106540180257454" lon="9.691628821842004"><ele>48.0</ele><time>2026-05-03T16:03:13Z</time></trkpt><trkpt lat="45.106751576416784" lon="9.691395566624434"><ele>48.0</ele><time>2026-05-03T16:03:14Z</time></trkpt><trkpt lat="45.106964218231695" lon="9.691168725651291"><ele>48.0</ele><time>2026-05-03T16:03:15Z</time></trkpt><trkpt lat="45.10717856901523" lon="9.690942389756046"><ele>47.0</ele><time>2026-05-03T16:03:16Z</time></trkpt><trkpt lat="45.10739190692939" lon="9.690714922013658"><ele>46.0</ele><time>2026-05-03T16:03:17Z</time></trkpt><trkpt lat="45.107605376024594" lon="9.690484644736573"><ele>46.5</ele><time>2026-05-03T16:03:18Z</time></trkpt><trkpt lat="45.10781872608347" lon="9.690256112821494"><ele>47.0</ele><time>2026-05-03T16:03:19Z</time></trkpt><trkpt lat="45.1080310578393" lon="9.690024883785066"><ele>47.0</ele><time>2026-05-03T16:03:20Z</time></trkpt><trkpt lat="45.10824166105658" lon="9.689790846549496"><ele>47.0</ele><time>2026-05-03T16:03:21Z</time></trkpt><trkpt lat="45.10845291694635" lon="9.689554636204214"><ele>47.5</ele><time>2026-05-03T16:03:22Z</time></trkpt><trkpt lat="45.108663923959504" lon="9.689316678615569"><ele>48.0</ele><time>2026-05-03T16:03:23Z</time></trkpt><trkpt lat="45.1088741975303" lon="9.689077228472874"><ele>48.0</ele><time>2026-05-03T16:03:24Z</time></trkpt><trkpt lat="45.109085493021624" lon="9.688837038713123"><ele>48.0</ele><time>2026-05-03T16:03:25Z</time></trkpt><trkpt lat="45.109297189851475" lon="9.688594194121828"><ele>47.0</ele><time>2026-05-03T16:03:26Z</time></trkpt><trkpt lat="45.109506611768545" lon="9.688347252010315"><ele>46.0</ele><time>2026-05-03T16:03:27Z</time></trkpt><trkpt lat="45.10971552074018" lon="9.688099791951805"><ele>46.0</ele><time>2026-05-03T16:03:28Z</time></trkpt><trkpt lat="45.109923129325004" lon="9.68784871965804"><ele>46.0</ele><time>2026-05-03T16:03:29Z</time></trkpt><trkpt lat="45.11013017406322" lon="9.687597372338914"><ele>46.5</ele><time>2026-05-03T16:03:30Z</time></trkpt><trkpt lat="45.11033854002226" lon="9.68734594864607"><ele>47.0</ele><time>2026-05-03T16:03:31Z</time></trkpt><trkpt lat="45.110546105118125" lon="9.68709166105359"><ele>47.0</ele><time>2026-05-03T16:03:32Z</time></trkpt><trkpt lat="45.11075124736771" lon="9.68683149968835"><ele>47.0</ele><time>2026-05-03T16:03:33Z</time></trkpt><trkpt lat="45.11095355032431" lon="9.686567023178746"><ele>47.0</ele><time>2026-05-03T16:03:34Z</time></trkpt><trkpt lat="45.11115493523558" lon="9.686299206382934"><ele>47.0</ele><time>2026-05-03T16:03:35Z</time></trkpt><trkpt lat="45.11135537681448" lon="9.686035543314583"><ele>47.5</ele><time>2026-05-03T16:03:36Z</time></trkpt><trkpt lat="45.1115541906793" lon="9.685769929039589"><ele>48.0</ele><time>2026-05-03T16:03:37Z</time></trkpt><trkpt lat="45.11175068588467" lon="9.685501403238291"><ele>47.0</ele><time>2026-05-03T16:03:38Z</time></trkpt><trkpt lat="45.11194535684979" lon="9.685233427734556"><ele>46.0</ele><time>2026-05-03T16:03:39Z</time></trkpt><trkpt lat="45.11214243809461" lon="9.68496512607552"><ele>46.0</ele><time>2026-05-03T16:03:40Z</time></trkpt><trkpt lat="45.11233800119854" lon="9.684697263263244"><ele>46.0</ele><time>2026-05-03T16:03:41Z</time></trkpt><trkpt lat="45.112533100447564" lon="9.684427086704366"><ele>45.5</ele><time>2026-05-03T16:03:42Z</time></trkpt><trkpt lat="45.11272614152464" lon="9.68415458592057"><ele>45.0</ele><time>2026-05-03T16:03:43Z</time></trkpt><trkpt lat="45.11291856102406" lon="9.683879994171368"><ele>45.0</ele><time>2026-05-03T16:03:44Z</time></trkpt><trkpt lat="45.113111429147956" lon="9.683604906612576"><ele>45.0</ele><time>2026-05-03T16:03:45Z</time></trkpt><trkpt lat="45.11330566915042" lon="9.683329325086007"><ele>44.0</ele><time>2026-05-03T16:03:46Z</time></trkpt><trkpt lat="45.11349842226457" lon="9.683051872257673"><ele>43.0</ele><time>2026-05-03T16:03:47Z</time></trkpt><trkpt lat="45.11368902138394" lon="9.682773768331321"><ele>43.0</ele><time>2026-05-03T16:03:48Z</time></trkpt><trkpt lat="45.11387994712239" lon="9.682495545518183"><ele>43.0</ele><time>2026-05-03T16:03:49Z</time></trkpt><trkpt lat="45.11407340595617" lon="9.682217849848966"><ele>43.0</ele><time>2026-05-03T16:03:50Z</time></trkpt><trkpt lat="45.11426766297167" lon="9.681942052655373"><ele>43.0</ele><time>2026-05-03T16:03:51Z</time></trkpt><trkpt lat="45.114461507261666" lon="9.681664839705794"><ele>43.0</ele><time>2026-05-03T16:03:52Z</time></trkpt><trkpt lat="45.11465472188653" lon="9.681386373191046"><ele>43.0</ele><time>2026-05-03T16:03:53Z</time></trkpt><trkpt lat="45.11484854245747" lon="9.681105625278724"><ele>44.0</ele><time>2026-05-03T16:03:54Z</time></trkpt><trkpt lat="45.11504155267844" lon="9.680825505750743"><ele>45.0</ele><time>2026-05-03T16:03:55Z</time></trkpt><trkpt lat="45.11523331987156" lon="9.680546107986563"><ele>45.0</ele><time>2026-05-03T16:03:56Z</time></trkpt><trkpt lat="45.11542544659902" lon="9.680268602200641"><ele>45.0</ele><time>2026-05-03T16:03:57Z</time></trkpt><trkpt lat="45.115619596056824" lon="9.679992945341525"><ele>44.5</ele><time>2026-05-03T16:03:58Z</time></trkpt><trkpt lat="45.1158115776446" lon="9.67971746862812"><ele>44.0</ele><time>2026-05-03T16:03:59Z</time></trkpt><trkpt lat="45.11600389508087" lon="9.679442116861196"><ele>44.5</ele><time>2026-05-03T16:04:00Z</time></trkpt><trkpt lat="45.11619628696279" lon="9.679165666157303"><ele>45.0</ele><time>2026-05-03T16:04:01Z</time></trkpt><trkpt lat="45.116386915304574" lon="9.678889503515217"><ele>44.5</ele><time>2026-05-03T16:04:02Z</time></trkpt><trkpt lat="45.116577386509626" lon="9.67860932452686"><ele>44.0</ele><time>2026-05-03T16:04:03Z</time></trkpt><trkpt lat="45.116764857376495" lon="9.678328631732683"><ele>44.0</ele><time>2026-05-03T16:04:04Z</time></trkpt><trkpt lat="45.11694981373396" lon="9.678046455047674"><ele>44.0</ele><time>2026-05-03T16:04:05Z</time></trkpt><trkpt lat="45.117137439647884" lon="9.677765297925792"><ele>44.0</ele><time>2026-05-03T16:04:06Z</time></trkpt><trkpt lat="45.11732739401537" lon="9.677485526382595"><ele>44.0</ele><time>2026-05-03T16:04:07Z</time></trkpt><trkpt lat="45.11751821321616" lon="9.677206365681082"><ele>45.5</ele><time>2026-05-03T16:04:08Z</time></trkpt><trkpt lat="45.11770842292953" lon="9.676929105005827"><ele>47.0</ele><time>2026-05-03T16:04:09Z</time></trkpt><trkpt lat="45.11789886530789" lon="9.676654124246877"><ele>47.0</ele><time>2026-05-03T16:04:10Z</time></trkpt><trkpt lat="45.11808879308485" lon="9.676377673259344"><ele>47.0</ele><time>2026-05-03T16:04:11Z</time></trkpt><trkpt lat="45.11827963506662" lon="9.676100272334164"><ele>46.0</ele><time>2026-05-03T16:04:12Z</time></trkpt><trkpt lat="45.11846918021719" lon="9.675823314236908"><ele>45.0</ele><time>2026-05-03T16:04:13Z</time></trkpt><trkpt lat="45.11866012639488" lon="9.675550445140406"><ele>45.0</ele><time>2026-05-03T16:04:14Z</time></trkpt><trkpt lat="45.11885337950329" lon="9.675277856040237"><ele>45.0</ele><time>2026-05-03T16:04:15Z</time></trkpt><trkpt lat="45.119044948159214" lon="9.675005179707432"><ele>44.0</ele><time>2026-05-03T16:04:16Z</time></trkpt><trkpt lat="45.119238090319485" lon="9.67473137652376"><ele>43.0</ele><time>2026-05-03T16:04:17Z</time></trkpt><trkpt lat="45.11943197744365" lon="9.674459176744998"><ele>43.5</ele><time>2026-05-03T16:04:18Z</time></trkpt><trkpt lat="45.11962422493744" lon="9.674187111799347"><ele>44.0</ele><time>2026-05-03T16:04:19Z</time></trkpt><trkpt lat="45.119817215107176" lon="9.67391293870922"><ele>44.5</ele><time>2026-05-03T16:04:20Z</time></trkpt><trkpt lat="45.12000832685453" lon="9.67363916070345"><ele>45.0</ele><time>2026-05-03T16:04:21Z</time></trkpt><trkpt lat="45.120198808340845" lon="9.673364175773518"><ele>46.0</ele><time>2026-05-03T16:04:22Z</time></trkpt><trkpt lat="45.12038883531977" lon="9.67308756003125"><ele>47.0</ele><time>2026-05-03T16:04:23Z</time></trkpt><trkpt lat="45.12057957882818" lon="9.672809528527514"><ele>46.5</ele><time>2026-05-03T16:04:24Z</time></trkpt><trkpt lat="45.12077002853639" lon="9.672531794997575"><ele>46.0</ele><time>2026-05-03T16:04:25Z</time></trkpt><trkpt lat="45.120961762639475" lon="9.672253981931272"><ele>46.0</ele><time>2026-05-03T16:04:26Z</time></trkpt><trkpt lat="45.12115343854552" lon="9.671977985410718"><ele>46.0</ele><time>2026-05-03T16:04:27Z</time></trkpt><trkpt lat="45.12134488881631" lon="9.671702860858117"><ele>46.0</ele><time>2026-05-03T16:04:28Z</time></trkpt><trkpt lat="45.12153688607796" lon="9.671426782686547"><ele>46.0</ele><time>2026-05-03T16:04:29Z</time></trkpt><trkpt lat="45.12172912217187" lon="9.671151506169302"><ele>45.5</ele><time>2026-05-03T16:04:30Z</time></trkpt><trkpt lat="45.121921654622646" lon="9.670875739440854"><ele>45.0</ele><time>2026-05-03T16:04:31Z</time></trkpt><trkpt lat="45.122112406419696" lon="9.67060016817357"><ele>45.0</ele><time>2026-05-03T16:04:32Z</time></trkpt><trkpt lat="45.1223051831917" lon="9.67032521745407"><ele>45.0</ele><time>2026-05-03T16:04:33Z</time></trkpt><trkpt lat="45.12249793830864" lon="9.670052095753347"><ele>44.5</ele><time>2026-05-03T16:04:34Z</time></trkpt><trkpt lat="45.122688762118806" lon="9.669778120957055"><ele>44.0</ele><time>2026-05-03T16:04:35Z</time></trkpt><trkpt lat="45.12288080877055" lon="9.66950149635271"><ele>44.0</ele><time>2026-05-03T16:04:36Z</time></trkpt><trkpt lat="45.12307147830021" lon="9.669224600809512"><ele>44.0</ele><time>2026-05-03T16:04:37Z</time></trkpt><trkpt lat="45.12326150406736" lon="9.668946224145891"><ele>44.5</ele><time>2026-05-03T16:04:38Z</time></trkpt><trkpt lat="45.123452067533236" lon="9.668670175155281"><ele>45.0</ele><time>2026-05-03T16:04:39Z</time></trkpt><trkpt lat="45.123645493013434" lon="9.668389525479183"><ele>45.0</ele><time>2026-05-03T16:04:40Z</time></trkpt><trkpt lat="45.12384273171046" lon="9.668106122234134"><ele>45.0</ele><time>2026-05-03T16:04:41Z</time></trkpt><trkpt lat="45.124041159013814" lon="9.667821503501392"><ele>44.5</ele><time>2026-05-03T16:04:42Z</time></trkpt><trkpt lat="45.1242411654599" lon="9.667534346223704"><ele>44.0</ele><time>2026-05-03T16:04:43Z</time></trkpt><trkpt lat="45.124443033169534" lon="9.667245948484979"><ele>44.0</ele><time>2026-05-03T16:04:44Z</time></trkpt><trkpt lat="45.12464562739356" lon="9.6669568984165"><ele>44.0</ele><time>2026-05-03T16:04:45Z</time></trkpt><trkpt lat="45.12484629661873" lon="9.666666929577751"><ele>45.0</ele><time>2026-05-03T16:04:46Z</time></trkpt><trkpt lat="45.12504480329597" lon="9.666376416483102"><ele>46.0</ele><time>2026-05-03T16:04:46.999Z</time></trkpt><trkpt lat="45.12524159740012" lon="9.666086221341478"><ele>46.5</ele><time>2026-05-03T16:04:47.999Z</time></trkpt><trkpt lat="45.125439385517254" lon="9.665791322971732"><ele>47.0</ele><time>2026-05-03T16:04:48.999Z</time></trkpt><trkpt lat="45.125635442604" lon="9.665500323980968"><ele>47.0</ele><time>2026-05-03T16:04:49.999Z</time></trkpt><trkpt lat="45.12583161667448" lon="9.66520547790929"><ele>47.0</ele><time>2026-05-03T16:04:50.999Z</time></trkpt><trkpt lat="45.126027090107435" lon="9.664909649043242"><ele>47.0</ele><time>2026-05-03T16:04:51.999Z</time></trkpt><trkpt lat="45.126220353823875" lon="9.66461236668109"><ele>47.0</ele><time>2026-05-03T16:04:52.999Z</time></trkpt><trkpt lat="45.1264130692714" lon="9.66431188453011"><ele>46.5</ele><time>2026-05-03T16:04:53.999Z</time></trkpt><trkpt lat="45.12660437717408" lon="9.6640107272281"><ele>46.0</ele><time>2026-05-03T16:04:54.999Z</time></trkpt><trkpt lat="45.12679359857007" lon="9.6637062960138"><ele>46.5</ele><time>2026-05-03T16:04:55.999Z</time></trkpt><trkpt lat="45.126981874923985" lon="9.66340218610449"><ele>47.0</ele><time>2026-05-03T16:04:56.999Z</time></trkpt><trkpt lat="45.12716499759266" lon="9.663098787235821"><ele>47.0</ele><time>2026-05-03T16:04:57.999Z</time></trkpt><trkpt lat="45.127349895147184" lon="9.66279531912941"><ele>47.0</ele><time>2026-05-03T16:04:58.999Z</time></trkpt><trkpt lat="45.12753576547488" lon="9.662494409117611"><ele>47.0</ele><time>2026-05-03T16:04:59.999Z</time></trkpt><trkpt lat="45.127721042853985" lon="9.662194489435207"><ele>47.0</ele><time>2026-05-03T16:05:00.999Z</time></trkpt><trkpt lat="45.12790551863916" lon="9.66189354993995"><ele>47.0</ele><time>2026-05-03T16:05:01.999Z</time></trkpt><trkpt lat="45.128088968217405" lon="9.661584753716244"><ele>47.0</ele><time>2026-05-03T16:05:02.999Z</time></trkpt><trkpt lat="45.12826887241952" lon="9.661275959202136"><ele>47.5</ele><time>2026-05-03T16:05:03.999Z</time></trkpt><trkpt lat="45.12844507659502" lon="9.660962387594243"><ele>48.0</ele><time>2026-05-03T16:05:04.999Z</time></trkpt><trkpt lat="45.128618047219454" lon="9.660647478107315"><ele>48.0</ele><time>2026-05-03T16:05:05.999Z</time></trkpt><trkpt lat="45.128789696065766" lon="9.660331244852241"><ele>48.0</ele><time>2026-05-03T16:05:06.999Z</time></trkpt><trkpt lat="45.12896038000919" lon="9.660011541298848"><ele>47.5</ele><time>2026-05-03T16:05:07.999Z</time></trkpt><trkpt lat="45.12912851582052" lon="9.65969551388802"><ele>47.0</ele><time>2026-05-03T16:05:08.999Z</time></trkpt><trkpt lat="45.129296091738155" lon="9.659377907915866"><ele>47.0</ele><time>2026-05-03T16:05:09.999Z</time></trkpt><trkpt lat="45.12946199751329" lon="9.659060100712418"><ele>47.0</ele><time>2026-05-03T16:05:10.999Z</time></trkpt><trkpt lat="45.12962574685964" lon="9.658743430000056"><ele>47.0</ele><time>2026-05-03T16:05:11.999Z</time></trkpt><trkpt lat="45.12979065740402" lon="9.658423471351592"><ele>47.0</ele><time>2026-05-03T16:05:12.999Z</time></trkpt><trkpt lat="45.129956012678306" lon="9.658104320692136"><ele>48.5</ele><time>2026-05-03T16:05:13.999Z</time></trkpt><trkpt lat="45.13012000022531" lon="9.657785341669154"><ele>50.0</ele><time>2026-05-03T16:05:14.999Z</time></trkpt><trkpt lat="45.130284027755216" lon="9.657464634531737"><ele>50.0</ele><time>2026-05-03T16:05:16Z</time></trkpt><trkpt lat="45.13044689667333" lon="9.657143772700994"><ele>50.0</ele><time>2026-05-03T16:05:17Z</time></trkpt><trkpt lat="45.13061129862068" lon="9.65681927607045"><ele>48.0</ele><time>2026-05-03T16:05:18Z</time></trkpt><trkpt lat="45.13077526091533" lon="9.656497207265005"><ele>46.0</ele><time>2026-05-03T16:05:19Z</time></trkpt><trkpt lat="45.13093916606528" lon="9.656175970088922"><ele>46.5</ele><time>2026-05-03T16:05:20Z</time></trkpt><trkpt lat="45.13110352354223" lon="9.65585462914541"><ele>47.0</ele><time>2026-05-03T16:05:21Z</time></trkpt><trkpt lat="45.13126755407595" lon="9.655531249182536"><ele>47.0</ele><time>2026-05-03T16:05:22Z</time></trkpt><trkpt lat="45.131432464870805" lon="9.655207586420604"><ele>47.0</ele><time>2026-05-03T16:05:23Z</time></trkpt><trkpt lat="45.131597298143014" lon="9.65488152038385"><ele>47.0</ele><time>2026-05-03T16:05:24Z</time></trkpt><trkpt lat="45.131762314679484" lon="9.654557565394677"><ele>47.0</ele><time>2026-05-03T16:05:25Z</time></trkpt><trkpt lat="45.131927787091506" lon="9.654235669858608"><ele>47.5</ele><time>2026-05-03T16:05:26Z</time></trkpt><trkpt lat="45.13209277453252" lon="9.653915300389018"><ele>48.0</ele><time>2026-05-03T16:05:27Z</time></trkpt><trkpt lat="45.13225925489579" lon="9.653597035238205"><ele>49.0</ele><time>2026-05-03T16:05:28Z</time></trkpt><trkpt lat="45.132423732845815" lon="9.65327854367926"><ele>50.0</ele><time>2026-05-03T16:05:29Z</time></trkpt><trkpt lat="45.132588301577094" lon="9.652957829837934"><ele>49.0</ele><time>2026-05-03T16:05:30Z</time></trkpt><trkpt lat="45.132748898695034" lon="9.652636449718475"><ele>48.0</ele><time>2026-05-03T16:05:31Z</time></trkpt><trkpt lat="45.13290883948674" lon="9.652310491617426"><ele>48.0</ele><time>2026-05-03T16:05:32Z</time></trkpt><trkpt lat="45.13306821611913" lon="9.651985224560672"><ele>48.0</ele><time>2026-05-03T16:05:33Z</time></trkpt><trkpt lat="45.13322860553616" lon="9.651660927964395"><ele>47.5</ele><time>2026-05-03T16:05:34Z</time></trkpt><trkpt lat="45.13339057170704" lon="9.65133866169269"><ele>47.0</ele><time>2026-05-03T16:05:35Z</time></trkpt><trkpt lat="45.133555238633704" lon="9.651014163152244"><ele>46.5</ele><time>2026-05-03T16:05:36Z</time></trkpt><trkpt lat="45.13372009432273" lon="9.650691119448107"><ele>46.0</ele><time>2026-05-03T16:05:37Z</time></trkpt><trkpt lat="45.13388659330549" lon="9.650368370075503"><ele>46.5</ele><time>2026-05-03T16:05:38Z</time></trkpt><trkpt lat="45.13405264830435" lon="9.650045221997075"><ele>47.0</ele><time>2026-05-03T16:05:39Z</time></trkpt><trkpt lat="45.13421711801144" lon="9.649722422269416"><ele>46.5</ele><time>2026-05-03T16:05:40Z</time></trkpt><trkpt lat="45.13437945758521" lon="9.649397582515002"><ele>46.0</ele><time>2026-05-03T16:05:41Z</time></trkpt><trkpt lat="45.13454089771839" lon="9.649073455348503"><ele>46.0</ele><time>2026-05-03T16:05:42Z</time></trkpt><trkpt lat="45.134703092886284" lon="9.648754872683662"><ele>46.0</ele><time>2026-05-03T16:05:43Z</time></trkpt><trkpt lat="45.13486508760202" lon="9.648435971805997"><ele>46.5</ele><time>2026-05-03T16:05:44Z</time></trkpt><trkpt lat="45.135027598779715" lon="9.648118806558152"><ele>47.0</ele><time>2026-05-03T16:05:45Z</time></trkpt><trkpt lat="45.13519032907851" lon="9.647804821714775"><ele>47.5</ele><time>2026-05-03T16:05:46Z</time></trkpt><trkpt lat="45.13535469256221" lon="9.647491026314"><ele>48.0</ele><time>2026-05-03T16:05:47Z</time></trkpt><trkpt lat="45.13552113392042" lon="9.647180152019276"><ele>48.0</ele><time>2026-05-03T16:05:48Z</time></trkpt><trkpt lat="45.13569021963367" lon="9.646868680356752"><ele>48.0</ele><time>2026-05-03T16:05:49Z</time></trkpt><trkpt lat="45.13586050043939" lon="9.646554949063113"><ele>47.0</ele><time>2026-05-03T16:05:50Z</time></trkpt><trkpt lat="45.13603005409251" lon="9.646237847313962"><ele>46.0</ele><time>2026-05-03T16:05:51Z</time></trkpt><trkpt lat="45.136199229960326" lon="9.645915909247558"><ele>46.0</ele><time>2026-05-03T16:05:52Z</time></trkpt><trkpt lat="45.13636709904137" lon="9.645592473545488"><ele>46.0</ele><time>2026-05-03T16:05:53Z</time></trkpt><trkpt lat="45.136535145417845" lon="9.645263982743092"><ele>47.0</ele><time>2026-05-03T16:05:54Z</time></trkpt><trkpt lat="45.13670260841993" lon="9.644933073179669"><ele>48.0</ele><time>2026-05-03T16:05:55Z</time></trkpt><trkpt lat="45.13687314305808" lon="9.644600592030217"><ele>48.0</ele><time>2026-05-03T16:05:56Z</time></trkpt><trkpt lat="45.137043842908746" lon="9.64426381371746"><ele>48.0</ele><time>2026-05-03T16:05:57Z</time></trkpt><trkpt lat="45.137216224271285" lon="9.643923092131272"><ele>48.0</ele><time>2026-05-03T16:05:58Z</time></trkpt><trkpt lat="45.13739175780047" lon="9.64357946345279"><ele>48.0</ele><time>2026-05-03T16:05:59Z</time></trkpt><trkpt lat="45.13756815543775" lon="9.643237675634554"><ele>48.0</ele><time>2026-05-03T16:06:00Z</time></trkpt><trkpt lat="45.13774527727172" lon="9.642899038461108"><ele>48.0</ele><time>2026-05-03T16:06:01Z</time></trkpt><trkpt lat="45.13792322241639" lon="9.642554759965002"><ele>49.0</ele><time>2026-05-03T16:06:02Z</time></trkpt><trkpt lat="45.13810106214562" lon="9.642210220969348"><ele>50.0</ele><time>2026-05-03T16:06:03Z</time></trkpt><trkpt lat="45.13827778331352" lon="9.641868202095285"><ele>50.0</ele><time>2026-05-03T16:06:04Z</time></trkpt><trkpt lat="45.13845354767658" lon="9.641527501702313"><ele>50.0</ele><time>2026-05-03T16:06:05Z</time></trkpt><trkpt lat="45.13862841986464" lon="9.641188980375082"><ele>49.5</ele><time>2026-05-03T16:06:06Z</time></trkpt><trkpt lat="45.138800943079204" lon="9.640854745495195"><ele>49.0</ele><time>2026-05-03T16:06:07Z</time></trkpt><trkpt lat="45.13897087270574" lon="9.640522887399039"><ele>49.0</ele><time>2026-05-03T16:06:08Z</time></trkpt><trkpt lat="45.13913968699886" lon="9.640191315042655"><ele>49.0</ele><time>2026-05-03T16:06:09Z</time></trkpt><trkpt lat="45.13930793363786" lon="9.63986049938248"><ele>49.0</ele><time>2026-05-03T16:06:10Z</time></trkpt><trkpt lat="45.139473783406444" lon="9.639532545123748"><ele>49.0</ele><time>2026-05-03T16:06:11Z</time></trkpt><trkpt lat="45.13963836199053" lon="9.63920741180652"><ele>49.0</ele><time>2026-05-03T16:06:12Z</time></trkpt><trkpt lat="45.13980266631759" lon="9.638884089057624"><ele>49.0</ele><time>2026-05-03T16:06:13Z</time></trkpt><trkpt lat="45.13996796583473" lon="9.638558779491921"><ele>49.0</ele><time>2026-05-03T16:06:14Z</time></trkpt><trkpt lat="45.14013430693578" lon="9.63823410521007"><ele>49.0</ele><time>2026-05-03T16:06:15Z</time></trkpt><trkpt lat="45.14030075992285" lon="9.637914491810374"><ele>48.5</ele><time>2026-05-03T16:06:16Z</time></trkpt><trkpt lat="45.14046765692334" lon="9.637596784641193"><ele>48.0</ele><time>2026-05-03T16:06:17Z</time></trkpt><trkpt lat="45.14063460542204" lon="9.637282586937136"><ele>48.0</ele><time>2026-05-03T16:06:18Z</time></trkpt><trkpt lat="45.14080086881337" lon="9.636969510721254"><ele>48.0</ele><time>2026-05-03T16:06:19Z</time></trkpt><trkpt lat="45.14096800995188" lon="9.636659233666483"><ele>48.0</ele><time>2026-05-03T16:06:20Z</time></trkpt><trkpt lat="45.14113821332031" lon="9.63635469438798"><ele>48.0</ele><time>2026-05-03T16:06:21Z</time></trkpt><trkpt lat="45.14131182358106" lon="9.636059320081513"><ele>48.0</ele><time>2026-05-03T16:06:22Z</time></trkpt><trkpt lat="45.141491493471754" lon="9.63577170829349"><ele>48.0</ele><time>2026-05-03T16:06:23Z</time></trkpt><trkpt lat="45.14167472134523" lon="9.635491832466618"><ele>49.5</ele><time>2026-05-03T16:06:24Z</time></trkpt><trkpt lat="45.14186192607863" lon="9.635215488686061"><ele>51.0</ele><time>2026-05-03T16:06:25Z</time></trkpt><trkpt lat="45.142052977123065" lon="9.634942868018305"><ele>51.0</ele><time>2026-05-03T16:06:26Z</time></trkpt><trkpt lat="45.142244832777784" lon="9.634674164025908"><ele>51.0</ele><time>2026-05-03T16:06:27Z</time></trkpt><trkpt lat="45.14243700685409" lon="9.63440543142078"><ele>53.0</ele><time>2026-05-03T16:06:28Z</time></trkpt><trkpt lat="45.14263046508289" lon="9.634135567212208"><ele>55.0</ele><time>2026-05-03T16:06:29Z</time></trkpt><trkpt lat="45.14282663448949" lon="9.633863011630588"><ele>55.0</ele><time>2026-05-03T16:06:30Z</time></trkpt><trkpt lat="45.14302295890721" lon="9.6335880828792"><ele>55.0</ele><time>2026-05-03T16:06:31Z</time></trkpt><trkpt lat="45.143219552206915" lon="9.633314809145743"><ele>55.0</ele><time>2026-05-03T16:06:32Z</time></trkpt><trkpt lat="45.14341700708377" lon="9.633040896507051"><ele>55.0</ele><time>2026-05-03T16:06:33Z</time></trkpt><trkpt lat="45.143614698236064" lon="9.632766965330578"><ele>56.0</ele><time>2026-05-03T16:06:34Z</time></trkpt><trkpt lat="45.14381281294583" lon="9.632488490751792"><ele>57.0</ele><time>2026-05-03T16:06:35Z</time></trkpt><trkpt lat="45.14400865401561" lon="9.632209135479815"><ele>56.5</ele><time>2026-05-03T16:06:36Z</time></trkpt><trkpt lat="45.1442063285275" lon="9.63193209625872"><ele>56.0</ele><time>2026-05-03T16:06:37Z</time></trkpt><trkpt lat="45.14440442688851" lon="9.631657242030943"><ele>56.0</ele><time>2026-05-03T16:06:38Z</time></trkpt><trkpt lat="45.14460230535917" lon="9.631383352226994"><ele>56.0</ele><time>2026-05-03T16:06:39Z</time></trkpt><trkpt lat="45.14479975646095" lon="9.631108632889967"><ele>56.5</ele><time>2026-05-03T16:06:40Z</time></trkpt><trkpt lat="45.14499625176083" lon="9.630831638094648"><ele>57.0</ele><time>2026-05-03T16:06:41Z</time></trkpt><trkpt lat="45.14519291785225" lon="9.630554497902128"><ele>56.5</ele><time>2026-05-03T16:06:42Z</time></trkpt><trkpt lat="45.145387988724714" lon="9.630278453704124"><ele>56.0</ele><time>2026-05-03T16:06:43Z</time></trkpt><trkpt lat="45.145583928856425" lon="9.630002802202203"><ele>56.5</ele><time>2026-05-03T16:06:44Z</time></trkpt><trkpt lat="45.14578013672999" lon="9.629725987152057"><ele>57.0</ele><time>2026-05-03T16:06:45Z</time></trkpt><trkpt lat="45.14597453592849" lon="9.629450108422443"><ele>57.0</ele><time>2026-05-03T16:06:46Z</time></trkpt><trkpt lat="45.146171237621076" lon="9.629174627651464"><ele>57.0</ele><time>2026-05-03T16:06:47Z</time></trkpt><trkpt lat="45.146368499147535" lon="9.628901469055771"><ele>56.5</ele><time>2026-05-03T16:06:48Z</time></trkpt><trkpt lat="45.14656469590223" lon="9.628631349033975"><ele>56.0</ele><time>2026-05-03T16:06:49Z</time></trkpt><trkpt lat="45.14675995208073" lon="9.628359352784031"><ele>56.0</ele><time>2026-05-03T16:06:50Z</time></trkpt><trkpt lat="45.14695669999307" lon="9.6280882029476"><ele>56.0</ele><time>2026-05-03T16:06:50.999Z</time></trkpt><trkpt lat="45.14715156297734" lon="9.627817104502345"><ele>56.0</ele><time>2026-05-03T16:06:51.999Z</time></trkpt><trkpt lat="45.147348112744176" lon="9.627550247082121"><ele>56.0</ele><time>2026-05-03T16:06:52.999Z</time></trkpt><trkpt lat="45.14754702465338" lon="9.627285181685929"><ele>56.5</ele><time>2026-05-03T16:06:53.999Z</time></trkpt><trkpt lat="45.14774638043302" lon="9.62702300550167"><ele>57.0</ele><time>2026-05-03T16:06:54.999Z</time></trkpt><trkpt lat="45.147945009628614" lon="9.62675916140028"><ele>57.5</ele><time>2026-05-03T16:06:55.999Z</time></trkpt><trkpt lat="45.14814651499663" lon="9.626493949401455"><ele>58.0</ele><time>2026-05-03T16:06:56.999Z</time></trkpt><trkpt lat="45.14834391214485" lon="9.626221990699058"><ele>59.5</ele><time>2026-05-03T16:06:57.999Z</time></trkpt><trkpt lat="45.1485375653497" lon="9.625946555128959"><ele>61.0</ele><time>2026-05-03T16:06:58.999Z</time></trkpt><trkpt lat="45.14873262447313" lon="9.625673807092031"><ele>61.0</ele><time>2026-05-03T16:06:59.999Z</time></trkpt><trkpt lat="45.14892715934891" lon="9.625396831379389"><ele>61.0</ele><time>2026-05-03T16:07:00.999Z</time></trkpt><trkpt lat="45.14912441095674" lon="9.625127345636521"><ele>60.0</ele><time>2026-05-03T16:07:01.999Z</time></trkpt><trkpt lat="45.14931992668257" lon="9.624855489233829"><ele>59.0</ele><time>2026-05-03T16:07:02.999Z</time></trkpt><trkpt lat="45.14951532018379" lon="9.62458165510948"><ele>59.0</ele><time>2026-05-03T16:07:03.999Z</time></trkpt><trkpt lat="45.14971142391462" lon="9.624306941501382"><ele>59.0</ele><time>2026-05-03T16:07:04.999Z</time></trkpt><trkpt lat="45.14990732383655" lon="9.624030336023077"><ele>59.0</ele><time>2026-05-03T16:07:05.999Z</time></trkpt><trkpt lat="45.15010235359898" lon="9.62375259259194"><ele>59.0</ele><time>2026-05-03T16:07:06.999Z</time></trkpt><trkpt lat="45.150297913298324" lon="9.623477389484137"><ele>59.0</ele><time>2026-05-03T16:07:07.999Z</time></trkpt><trkpt lat="45.150494242864255" lon="9.623202929347926"><ele>59.0</ele><time>2026-05-03T16:07:08.999Z</time></trkpt><trkpt lat="45.150692803261144" lon="9.622927198778264"><ele>59.0</ele><time>2026-05-03T16:07:09.999Z</time></trkpt><trkpt lat="45.15089191040395" lon="9.622653491020333"><ele>59.0</ele><time>2026-05-03T16:07:10.999Z</time></trkpt><trkpt lat="45.15108889430957" lon="9.622379091244653"><ele>59.0</ele><time>2026-05-03T16:07:11.999Z</time></trkpt><trkpt lat="45.15128907090275" lon="9.622101226137104"><ele>59.0</ele><time>2026-05-03T16:07:12.999Z</time></trkpt><trkpt lat="45.151488658780444" lon="9.621822599622083"><ele>59.0</ele><time>2026-05-03T16:07:13.999Z</time></trkpt><trkpt lat="45.15168916444697" lon="9.621541405661013"><ele>59.0</ele><time>2026-05-03T16:07:14.999Z</time></trkpt><trkpt lat="45.15188933419677" lon="9.621260470853292"><ele>59.5</ele><time>2026-05-03T16:07:15.999Z</time></trkpt><trkpt lat="45.152089458881086" lon="9.62098181491155"><ele>60.0</ele><time>2026-05-03T16:07:16.999Z</time></trkpt><trkpt lat="45.152290410754595" lon="9.620701252727473"><ele>60.0</ele><time>2026-05-03T16:07:17.999Z</time></trkpt><trkpt lat="45.152489742902866" lon="9.620421877973383"><ele>60.0</ele><time>2026-05-03T16:07:18.999Z</time></trkpt><trkpt lat="45.15269052259734" lon="9.620140611065558"><ele>60.0</ele><time>2026-05-03T16:07:19.999Z</time></trkpt><trkpt lat="45.15289097126965" lon="9.619858329777182"><ele>60.0</ele><time>2026-05-03T16:07:20.999Z</time></trkpt><trkpt lat="45.15309295489638" lon="9.619576181328684"><ele>60.0</ele><time>2026-05-03T16:07:22Z</time></trkpt><trkpt lat="45.153294639298586" lon="9.619294323828276"><ele>60.0</ele><time>2026-05-03T16:07:23Z</time></trkpt><trkpt lat="45.15349711461853" lon="9.619009262262306"><ele>60.0</ele><time>2026-05-03T16:07:24Z</time></trkpt><trkpt lat="45.15370029194112" lon="9.618728413931377"><ele>60.0</ele><time>2026-05-03T16:07:25Z</time></trkpt><trkpt lat="45.153902726615264" lon="9.618444052448996"><ele>60.0</ele><time>2026-05-03T16:07:26Z</time></trkpt><trkpt lat="45.154105161279325" lon="9.618160929518606"><ele>60.0</ele><time>2026-05-03T16:07:27Z</time></trkpt><trkpt lat="45.15430311604119" lon="9.617883245200689"><ele>59.5</ele><time>2026-05-03T16:07:28Z</time></trkpt><trkpt lat="45.15449974977647" lon="9.617604386941373"><ele>59.0</ele><time>2026-05-03T16:07:29Z</time></trkpt><trkpt lat="45.15472017825324" lon="9.617311487956597"><ele>59.0</ele><time>2026-05-03T16:07:30Z</time></trkpt><trkpt lat="45.15492441164955" lon="9.617025903399163"><ele>59.0</ele><time>2026-05-03T16:07:31Z</time></trkpt><trkpt lat="45.15512750478613" lon="9.616742660458844"><ele>59.0</ele><time>2026-05-03T16:07:32Z</time></trkpt><trkpt lat="45.155332289466145" lon="9.61645698310014"><ele>59.0</ele><time>2026-05-03T16:07:33Z</time></trkpt><trkpt lat="45.155538061159504" lon="9.61617083119522"><ele>59.5</ele><time>2026-05-03T16:07:34Z</time></trkpt><trkpt lat="45.15574273981553" lon="9.61588569782861"><ele>60.0</ele><time>2026-05-03T16:07:35Z</time></trkpt><trkpt lat="45.15594726882015" lon="9.615601558834014"><ele>60.5</ele><time>2026-05-03T16:07:36Z</time></trkpt><trkpt lat="45.15615032623584" lon="9.615317552929486"><ele>61.0</ele><time>2026-05-03T16:07:37Z</time></trkpt><trkpt lat="45.15635184351327" lon="9.61503335549455"><ele>60.0</ele><time>2026-05-03T16:07:38Z</time></trkpt><trkpt lat="45.15655424036364" lon="9.614748387024349"><ele>59.0</ele><time>2026-05-03T16:07:39Z</time></trkpt><trkpt lat="45.15675510232335" lon="9.614464739066403"><ele>59.0</ele><time>2026-05-03T16:07:40Z</time></trkpt><trkpt lat="45.15695700666723" lon="9.61417612015686"><ele>59.0</ele><time>2026-05-03T16:07:41Z</time></trkpt><trkpt lat="45.15716118257681" lon="9.613894594898776"><ele>59.5</ele><time>2026-05-03T16:07:42Z</time></trkpt><trkpt lat="45.157366011213085" lon="9.613616244215848"><ele>60.0</ele><time>2026-05-03T16:07:43Z</time></trkpt><trkpt lat="45.15757109148799" lon="9.613334311990341"><ele>60.0</ele><time>2026-05-03T16:07:44Z</time></trkpt><trkpt lat="45.15777316335798" lon="9.613050778148708"><ele>60.0</ele><time>2026-05-03T16:07:45Z</time></trkpt><trkpt lat="45.15797370268885" lon="9.612768744983779"><ele>60.0</ele><time>2026-05-03T16:07:46Z</time></trkpt><trkpt lat="45.158177105168676" lon="9.612483589174763"><ele>60.0</ele><time>2026-05-03T16:07:47Z</time></trkpt><trkpt lat="45.158379941424364" lon="9.612194198002102"><ele>60.0</ele><time>2026-05-03T16:07:48Z</time></trkpt><trkpt lat="45.15858256773813" lon="9.611903037119491"><ele>60.0</ele><time>2026-05-03T16:07:49Z</time></trkpt><trkpt lat="45.158788636228365" lon="9.611622447465747"><ele>60.0</ele><time>2026-05-03T16:07:50Z</time></trkpt><trkpt lat="45.15899553542671" lon="9.611341994765212"><ele>60.0</ele><time>2026-05-03T16:07:51Z</time></trkpt><trkpt lat="45.15920187203372" lon="9.611061750072256"><ele>60.5</ele><time>2026-05-03T16:07:52Z</time></trkpt><trkpt lat="45.15940785880945" lon="9.610775460689316"><ele>61.0</ele><time>2026-05-03T16:07:53Z</time></trkpt><trkpt lat="45.15961456300669" lon="9.610489622315521"><ele>61.0</ele><time>2026-05-03T16:07:54Z</time></trkpt><trkpt lat="45.15981893837472" lon="9.610206455337616"><ele>61.0</ele><time>2026-05-03T16:07:55Z</time></trkpt><trkpt lat="45.16002216136168" lon="9.609921446354631"><ele>60.5</ele><time>2026-05-03T16:07:56Z</time></trkpt><trkpt lat="45.160225950920996" lon="9.609636934861424"><ele>60.0</ele><time>2026-05-03T16:07:57Z</time></trkpt><trkpt lat="45.160423813980415" lon="9.609354589076629"><ele>61.0</ele><time>2026-05-03T16:07:58Z</time></trkpt><trkpt lat="45.160619020908335" lon="9.609073474931584"><ele>62.0</ele><time>2026-05-03T16:07:59Z</time></trkpt><trkpt lat="45.16080951833715" lon="9.608791965969072"><ele>62.0</ele><time>2026-05-03T16:08:00Z</time></trkpt><trkpt lat="45.16099674577507" lon="9.608512693879462"><ele>62.0</ele><time>2026-05-03T16:08:01Z</time></trkpt><trkpt lat="45.161182181302664" lon="9.608236704968315"><ele>62.0</ele><time>2026-05-03T16:08:02Z</time></trkpt><trkpt lat="45.16137023972701" lon="9.607964073150699"><ele>62.0</ele><time>2026-05-03T16:08:03Z</time></trkpt><trkpt lat="45.16156176170047" lon="9.607693917407058"><ele>62.0</ele><time>2026-05-03T16:08:04Z</time></trkpt><trkpt lat="45.16175438463679" lon="9.607427211991066"><ele>62.0</ele><time>2026-05-03T16:08:05Z</time></trkpt><trkpt lat="45.161946077438806" lon="9.607157208275323"><ele>62.5</ele><time>2026-05-03T16:08:06Z</time></trkpt><trkpt lat="45.1621376699922" lon="9.606884784485683"><ele>63.0</ele><time>2026-05-03T16:08:07Z</time></trkpt><trkpt lat="45.16232997083947" lon="9.606613499991576"><ele>62.5</ele><time>2026-05-03T16:08:08Z</time></trkpt><trkpt lat="45.16252453981782" lon="9.606340783633135"><ele>62.0</ele><time>2026-05-03T16:08:09Z</time></trkpt><trkpt lat="45.162719677700466" lon="9.606069128999817"><ele>61.5</ele><time>2026-05-03T16:08:10Z</time></trkpt><trkpt lat="45.16291723750241" lon="9.605796528805842"><ele>61.0</ele><time>2026-05-03T16:08:11Z</time></trkpt><trkpt lat="45.16311547289487" lon="9.6055212031928"><ele>63.0</ele><time>2026-05-03T16:08:12Z</time></trkpt><trkpt lat="45.163313566948474" lon="9.60524656686769"><ele>65.0</ele><time>2026-05-03T16:08:13Z</time></trkpt><trkpt lat="45.16351134526274" lon="9.604970706487652"><ele>65.0</ele><time>2026-05-03T16:08:14Z</time></trkpt><trkpt lat="45.16370914460788" lon="9.604693624283259"><ele>65.0</ele><time>2026-05-03T16:08:15Z</time></trkpt><trkpt lat="45.16390756153841" lon="9.604414848929048"><ele>63.0</ele><time>2026-05-03T16:08:16Z</time></trkpt><trkpt lat="45.164106966473646" lon="9.604136213310698"><ele>61.0</ele><time>2026-05-03T16:08:17Z</time></trkpt><trkpt lat="45.16430757772905" lon="9.603860309143354"><ele>61.0</ele><time>2026-05-03T16:08:18Z</time></trkpt><trkpt lat="45.164507224344156" lon="9.603581697848748"><ele>61.0</ele><time>2026-05-03T16:08:19Z</time></trkpt><trkpt lat="45.16470555670941" lon="9.603302479441648"><ele>60.5</ele><time>2026-05-03T16:08:20Z</time></trkpt><trkpt lat="45.16490157445404" lon="9.603023393701251"><ele>60.0</ele><time>2026-05-03T16:08:21Z</time></trkpt><trkpt lat="45.16509834762531" lon="9.602744922333963"><ele>60.0</ele><time>2026-05-03T16:08:22Z</time></trkpt><trkpt lat="45.16529372570871" lon="9.602464621457942"><ele>60.0</ele><time>2026-05-03T16:08:23Z</time></trkpt><trkpt lat="45.165487991652235" lon="9.602184541916847"><ele>60.0</ele><time>2026-05-03T16:08:24Z</time></trkpt><trkpt lat="45.16568273158094" lon="9.601904587193491"><ele>60.0</ele><time>2026-05-03T16:08:25Z</time></trkpt><trkpt lat="45.16587680455384" lon="9.601624940220809"><ele>60.0</ele><time>2026-05-03T16:08:26Z</time></trkpt><trkpt lat="45.1660708986873" lon="9.601345023304365"><ele>60.0</ele><time>2026-05-03T16:08:27Z</time></trkpt><trkpt lat="45.166262826267456" lon="9.601063241953522"><ele>60.5</ele><time>2026-05-03T16:08:28Z</time></trkpt><trkpt lat="45.166455446803575" lon="9.600779730276598"><ele>61.0</ele><time>2026-05-03T16:08:29Z</time></trkpt><trkpt lat="45.166647334599794" lon="9.600495543407401"><ele>61.5</ele><time>2026-05-03T16:08:30Z</time></trkpt><trkpt lat="45.1668384587445" lon="9.600209271973469"><ele>62.0</ele><time>2026-05-03T16:08:31Z</time></trkpt><trkpt lat="45.16702627178717" lon="9.59992133874386"><ele>62.0</ele><time>2026-05-03T16:08:32Z</time></trkpt><trkpt lat="45.16721623280044" lon="9.59963502329517"><ele>62.0</ele><time>2026-05-03T16:08:33Z</time></trkpt><trkpt lat="45.167404365856974" lon="9.599346143241064"><ele>61.0</ele><time>2026-05-03T16:08:34Z</time></trkpt><trkpt lat="45.167592995235516" lon="9.599057317630066"><ele>60.0</ele><time>2026-05-03T16:08:35Z</time></trkpt><trkpt lat="45.16778079936454" lon="9.598767505529548"><ele>60.0</ele><time>2026-05-03T16:08:36Z</time></trkpt><trkpt lat="45.1679685209822" lon="9.598482327821985"><ele>60.0</ele><time>2026-05-03T16:08:37Z</time></trkpt><trkpt lat="45.168158202859324" lon="9.598199952984833"><ele>60.5</ele><time>2026-05-03T16:08:38Z</time></trkpt><trkpt lat="45.16834503626065" lon="9.597917385679303"><ele>61.0</ele><time>2026-05-03T16:08:39Z</time></trkpt><trkpt lat="45.168527794472034" lon="9.597631736747015"><ele>61.0</ele><time>2026-05-03T16:08:40Z</time></trkpt><trkpt lat="45.16870984436757" lon="9.597345109038525"><ele>61.0</ele><time>2026-05-03T16:08:41Z</time></trkpt><trkpt lat="45.16888910072709" lon="9.597061248630627"><ele>62.0</ele><time>2026-05-03T16:08:42Z</time></trkpt><trkpt lat="45.16906825044861" lon="9.596779558982044"><ele>63.0</ele><time>2026-05-03T16:08:43Z</time></trkpt><trkpt lat="45.16924610905625" lon="9.596497259207904"><ele>63.0</ele><time>2026-05-03T16:08:44Z</time></trkpt><trkpt lat="45.16942475390977" lon="9.596216743485757"><ele>63.0</ele><time>2026-05-03T16:08:45Z</time></trkpt><trkpt lat="45.16960430411083" lon="9.595937794519394"><ele>63.0</ele><time>2026-05-03T16:08:46Z</time></trkpt><trkpt lat="45.16978449029847" lon="9.5956617902539"><ele>63.0</ele><time>2026-05-03T16:08:47Z</time></trkpt><trkpt lat="45.1699636299012" lon="9.595384220817975"><ele>65.0</ele><time>2026-05-03T16:08:48Z</time></trkpt><trkpt lat="45.17014004329695" lon="9.595104633897474"><ele>67.0</ele><time>2026-05-03T16:08:49Z</time></trkpt><trkpt lat="45.170317366187966" lon="9.594824387989366"><ele>67.0</ele><time>2026-05-03T16:08:50Z</time></trkpt><trkpt lat="45.17049082544213" lon="9.59454054233078"><ele>67.0</ele><time>2026-05-03T16:08:51Z</time></trkpt><trkpt lat="45.1706658756109" lon="9.59425883599369"><ele>66.5</ele><time>2026-05-03T16:08:52Z</time></trkpt><trkpt lat="45.170840621560636" lon="9.593972649241515"><ele>66.0</ele><time>2026-05-03T16:08:53Z</time></trkpt><trkpt lat="45.17101565998755" lon="9.593686101695589"><ele>66.0</ele><time>2026-05-03T16:08:54Z</time></trkpt><trkpt lat="45.17119347081964" lon="9.593402898558795"><ele>66.0</ele><time>2026-05-03T16:08:55Z</time></trkpt><trkpt lat="45.17137289317302" lon="9.593123054630798"><ele>66.0</ele><time>2026-05-03T16:08:55.999Z</time></trkpt><trkpt lat="45.171550648972975" lon="9.592840688732679"><ele>66.0</ele><time>2026-05-03T16:08:56.999Z</time></trkpt><trkpt lat="45.17172913064648" lon="9.592559792123913"><ele>66.0</ele><time>2026-05-03T16:08:57.999Z</time></trkpt><trkpt lat="45.171909353678636" lon="9.592281476705699"><ele>66.0</ele><time>2026-05-03T16:08:58.999Z</time></trkpt><trkpt lat="45.17209097436616" lon="9.59200175436413"><ele>65.0</ele><time>2026-05-03T16:08:59.999Z</time></trkpt><trkpt lat="45.17227155920857" lon="9.59172301958823"><ele>64.0</ele><time>2026-05-03T16:09:00.999Z</time></trkpt><trkpt lat="45.1724571572319" lon="9.591447323494533"><ele>64.5</ele><time>2026-05-03T16:09:01.999Z</time></trkpt><trkpt lat="45.17264785697648" lon="9.591168627668862"><ele>65.0</ele><time>2026-05-03T16:09:02.999Z</time></trkpt><trkpt lat="45.17282474450951" lon="9.590895278427222"><ele>65.0</ele><time>2026-05-03T16:09:03.999Z</time></trkpt><trkpt lat="45.17300829781277" lon="9.59061533182125"><ele>65.0</ele><time>2026-05-03T16:09:04.999Z</time></trkpt><trkpt lat="45.17319031379043" lon="9.590333806165681"><ele>65.0</ele><time>2026-05-03T16:09:05.999Z</time></trkpt><trkpt lat="45.173370179813105" lon="9.59005026372962"><ele>65.0</ele><time>2026-05-03T16:09:06.999Z</time></trkpt><trkpt lat="45.17355050519453" lon="9.589765566777896"><ele>64.5</ele><time>2026-05-03T16:09:07.999Z</time></trkpt><trkpt lat="45.17373260294325" lon="9.589483355646752"><ele>64.0</ele><time>2026-05-03T16:09:08.999Z</time></trkpt><trkpt lat="45.173915182065144" lon="9.589201637413266"><ele>63.0</ele><time>2026-05-03T16:09:09.999Z</time></trkpt><trkpt lat="45.174098028702865" lon="9.588917942767745"><ele>62.0</ele><time>2026-05-03T16:09:10.999Z</time></trkpt><trkpt lat="45.17427914748842" lon="9.588633969253992"><ele>62.0</ele><time>2026-05-03T16:09:11.999Z</time></trkpt><trkpt lat="45.174456650541956" lon="9.588349845301433"><ele>62.0</ele><time>2026-05-03T16:09:12.999Z</time></trkpt><trkpt lat="45.174636007042565" lon="9.588065588867732"><ele>62.5</ele><time>2026-05-03T16:09:13.999Z</time></trkpt><trkpt lat="45.17481437109165" lon="9.587783039545839"><ele>63.0</ele><time>2026-05-03T16:09:14.999Z</time></trkpt><trkpt lat="45.174993233962006" lon="9.58750050517378"><ele>63.0</ele><time>2026-05-03T16:09:15.999Z</time></trkpt><trkpt lat="45.17517181042692" lon="9.587219431868148"><ele>63.0</ele><time>2026-05-03T16:09:16.999Z</time></trkpt><trkpt lat="45.175349801288746" lon="9.586938422890722"><ele>63.5</ele><time>2026-05-03T16:09:17.999Z</time></trkpt><trkpt lat="45.17552837805457" lon="9.586656431385276"><ele>64.0</ele><time>2026-05-03T16:09:18.999Z</time></trkpt><trkpt lat="45.17570800504931" lon="9.58637616548735"><ele>64.0</ele><time>2026-05-03T16:09:19.999Z</time></trkpt><trkpt lat="45.17588799393282" lon="9.586096185655187"><ele>64.0</ele><time>2026-05-03T16:09:20.999Z</time></trkpt><trkpt lat="45.17606859449622" lon="9.585814176217207"><ele>64.0</ele><time>2026-05-03T16:09:21.999Z</time></trkpt><trkpt lat="45.17625069336901" lon="9.585531972688212"><ele>64.0</ele><time>2026-05-03T16:09:22.999Z</time></trkpt><trkpt lat="45.17643113391812" lon="9.585249386382804"><ele>63.0</ele><time>2026-05-03T16:09:23.999Z</time></trkpt><trkpt lat="45.17661284382415" lon="9.584968107695389"><ele>62.0</ele><time>2026-05-03T16:09:24.999Z</time></trkpt><trkpt lat="45.17679539441271" lon="9.584686341838044"><ele>62.5</ele><time>2026-05-03T16:09:25.999Z</time></trkpt><trkpt lat="45.176976865650936" lon="9.584401562603913"><ele>63.0</ele><time>2026-05-03T16:09:26.999Z</time></trkpt><trkpt lat="45.17715733534079" lon="9.584116005770246"><ele>63.0</ele><time>2026-05-03T16:09:28Z</time></trkpt><trkpt lat="45.17733802153325" lon="9.583833554018534"><ele>63.0</ele><time>2026-05-03T16:09:29Z</time></trkpt><trkpt lat="45.17751834629097" lon="9.583551857920009"><ele>64.5</ele><time>2026-05-03T16:09:30Z</time></trkpt><trkpt lat="45.17769911467775" lon="9.583270000123484"><ele>66.0</ele><time>2026-05-03T16:09:31Z</time></trkpt><trkpt lat="45.17788116515998" lon="9.582986345567369"><ele>66.0</ele><time>2026-05-03T16:09:32Z</time></trkpt><trkpt lat="45.17806157446826" lon="9.582704780153698"><ele>66.0</ele><time>2026-05-03T16:09:33Z</time></trkpt><trkpt lat="45.17823952443487" lon="9.582421533662794"><ele>64.5</ele><time>2026-05-03T16:09:34Z</time></trkpt><trkpt lat="45.17841943741656" lon="9.582140098938645"><ele>63.0</ele><time>2026-05-03T16:09:35Z</time></trkpt><trkpt lat="45.17859478957973" lon="9.581857149918902"><ele>63.0</ele><time>2026-05-03T16:09:36Z</time></trkpt><trkpt lat="45.17877316576687" lon="9.581574003334895"><ele>63.0</ele><time>2026-05-03T16:09:37Z</time></trkpt><trkpt lat="45.178950471433815" lon="9.581292416405699"><ele>62.5</ele><time>2026-05-03T16:09:38Z</time></trkpt><trkpt lat="45.1791294815856" lon="9.581006692682367"><ele>62.0</ele><time>2026-05-03T16:09:39Z</time></trkpt><trkpt lat="45.17931048799966" lon="9.580721734815645"><ele>62.0</ele><time>2026-05-03T16:09:40Z</time></trkpt><trkpt lat="45.17949239714473" lon="9.580439865961404"><ele>62.0</ele><time>2026-05-03T16:09:41Z</time></trkpt><trkpt lat="45.17967531711911" lon="9.580156769308891"><ele>62.5</ele><time>2026-05-03T16:09:42Z</time></trkpt><trkpt lat="45.17985975076968" lon="9.579876440310139"><ele>63.0</ele><time>2026-05-03T16:09:43Z</time></trkpt><trkpt lat="45.18004562722224" lon="9.579590601176132"><ele>64.0</ele><time>2026-05-03T16:09:44Z</time></trkpt><trkpt lat="45.18023370912201" lon="9.579300720177471"><ele>65.0</ele><time>2026-05-03T16:09:45Z</time></trkpt><trkpt lat="45.18042359269366" lon="9.579009161663947"><ele>65.0</ele><time>2026-05-03T16:09:46Z</time></trkpt><trkpt lat="45.18060897619078" lon="9.578711237947335"><ele>65.0</ele><time>2026-05-03T16:09:47Z</time></trkpt><trkpt lat="45.18079661205602" lon="9.578413940054267"><ele>64.0</ele><time>2026-05-03T16:09:48Z</time></trkpt><trkpt lat="45.18098458587934" lon="9.578122570085933"><ele>63.0</ele><time>2026-05-03T16:09:49Z</time></trkpt><trkpt lat="45.18117128265932" lon="9.577831921464197"><ele>63.0</ele><time>2026-05-03T16:09:50Z</time></trkpt><trkpt lat="45.181358765977556" lon="9.577539550604223"><ele>63.0</ele><time>2026-05-03T16:09:51Z</time></trkpt><trkpt lat="45.181547302788005" lon="9.57724502107804"><ele>63.0</ele><time>2026-05-03T16:09:52Z</time></trkpt><trkpt lat="45.18173723338732" lon="9.576950374222486"><ele>63.0</ele><time>2026-05-03T16:09:53Z</time></trkpt><trkpt lat="45.18192719257226" lon="9.576654789558564"><ele>63.0</ele><time>2026-05-03T16:09:54Z</time></trkpt><trkpt lat="45.18211652284875" lon="9.576356871414237"><ele>63.0</ele><time>2026-05-03T16:09:55Z</time></trkpt><trkpt lat="45.18230703351296" lon="9.576062553626828"><ele>62.0</ele><time>2026-05-03T16:09:56Z</time></trkpt><trkpt lat="45.18249514443775" lon="9.575764970831717"><ele>61.0</ele><time>2026-05-03T16:09:57Z</time></trkpt><trkpt lat="45.18268365804554" lon="9.575465389077923"><ele>61.5</ele><time>2026-05-03T16:09:58Z</time></trkpt><trkpt lat="45.18286931586211" lon="9.57516124045412"><ele>62.0</ele><time>2026-05-03T16:09:59Z</time></trkpt><trkpt lat="45.18305784595388" lon="9.574859222594782"><ele>62.0</ele><time>2026-05-03T16:10:00Z</time></trkpt><trkpt lat="45.18325053270082" lon="9.574561444061404"><ele>62.0</ele><time>2026-05-03T16:10:01Z</time></trkpt><trkpt lat="45.18344339919867" lon="9.574262668939824"><ele>62.0</ele><time>2026-05-03T16:10:02Z</time></trkpt><trkpt lat="45.18363547391187" lon="9.573962480605003"><ele>62.0</ele><time>2026-05-03T16:10:03Z</time></trkpt><trkpt lat="45.18382850274934" lon="9.573665744766897"><ele>62.0</ele><time>2026-05-03T16:10:04Z</time></trkpt><trkpt lat="45.184020977479854" lon="9.573368568805916"><ele>62.0</ele><time>2026-05-03T16:10:05Z</time></trkpt><trkpt lat="45.1842117155118" lon="9.573070684572349"><ele>62.0</ele><time>2026-05-03T16:10:06Z</time></trkpt><trkpt lat="45.18440306741409" lon="9.57277291433779"><ele>62.0</ele><time>2026-05-03T16:10:07Z</time></trkpt><trkpt lat="45.18459467358245" lon="9.572477317591067"><ele>62.0</ele><time>2026-05-03T16:10:08Z</time></trkpt><trkpt lat="45.18478699549867" lon="9.572180314931467"><ele>62.0</ele><time>2026-05-03T16:10:09Z</time></trkpt><trkpt lat="45.18497885248789" lon="9.57187957906932"><ele>61.0</ele><time>2026-05-03T16:10:10Z</time></trkpt><trkpt lat="45.185171337173756" lon="9.571581212419346"><ele>60.0</ele><time>2026-05-03T16:10:11Z</time></trkpt><trkpt lat="45.185363635835024" lon="9.571284983232417"><ele>60.0</ele><time>2026-05-03T16:10:12Z</time></trkpt><trkpt lat="45.18555490677585" lon="9.570985349268968"><ele>60.0</ele><time>2026-05-03T16:10:13Z</time></trkpt><trkpt lat="45.185747513307334" lon="9.570679059694552"><ele>60.0</ele><time>2026-05-03T16:10:14Z</time></trkpt><trkpt lat="45.18594165215482" lon="9.570371909896068"><ele>60.0</ele><time>2026-05-03T16:10:15Z</time></trkpt><trkpt lat="45.18613489631808" lon="9.57006516215982"><ele>61.0</ele><time>2026-05-03T16:10:16Z</time></trkpt><trkpt lat="45.1863277940727" lon="9.56975777638901"><ele>62.0</ele><time>2026-05-03T16:10:17Z</time></trkpt><trkpt lat="45.18652259129385" lon="9.5694507247977"><ele>62.0</ele><time>2026-05-03T16:10:18Z</time></trkpt><trkpt lat="45.186716387678786" lon="9.569148878120748"><ele>62.0</ele><time>2026-05-03T16:10:19Z</time></trkpt><trkpt lat="45.18690970030585" lon="9.568847795262684"><ele>62.5</ele><time>2026-05-03T16:10:20Z</time></trkpt><trkpt lat="45.1871034100693" lon="9.568546376728548"><ele>63.0</ele><time>2026-05-03T16:10:21Z</time></trkpt><trkpt lat="45.18729722438195" lon="9.568245478312143"><ele>62.5</ele><time>2026-05-03T16:10:22Z</time></trkpt><trkpt lat="45.18748960179602" lon="9.567944293370852"><ele>62.0</ele><time>2026-05-03T16:10:23Z</time></trkpt><trkpt lat="45.187681792724256" lon="9.567641729260005"><ele>62.0</ele><time>2026-05-03T16:10:24Z</time></trkpt><trkpt lat="45.18787351401347" lon="9.56733877952005"><ele>62.0</ele><time>2026-05-03T16:10:25Z</time></trkpt><trkpt lat="45.18806504364403" lon="9.567036219139851"><ele>62.5</ele><time>2026-05-03T16:10:26Z</time></trkpt><trkpt lat="45.18825583741306" lon="9.566736737245103"><ele>63.0</ele><time>2026-05-03T16:10:27Z</time></trkpt><trkpt lat="45.18844494292783" lon="9.566439538212526"><ele>63.5</ele><time>2026-05-03T16:10:28Z</time></trkpt><trkpt lat="45.188634290359786" lon="9.566142425704324"><ele>64.0</ele><time>2026-05-03T16:10:29Z</time></trkpt><trkpt lat="45.18882426815815" lon="9.565845545647562"><ele>63.0</ele><time>2026-05-03T16:10:30Z</time></trkpt><trkpt lat="45.1890133657613" lon="9.565547638752038"><ele>62.0</ele><time>2026-05-03T16:10:31Z</time></trkpt><trkpt lat="45.18920196436422" lon="9.565251966632221"><ele>62.0</ele><time>2026-05-03T16:10:32Z</time></trkpt><trkpt lat="45.18939130826179" lon="9.564955716673126"><ele>62.0</ele><time>2026-05-03T16:10:33Z</time></trkpt><trkpt lat="45.18958197759528" lon="9.564659121993076"><ele>62.0</ele><time>2026-05-03T16:10:34Z</time></trkpt><trkpt lat="45.18977267241345" lon="9.56436445928001"><ele>62.0</ele><time>2026-05-03T16:10:35Z</time></trkpt><trkpt lat="45.189962026818314" lon="9.564069977398375"><ele>62.0</ele><time>2026-05-03T16:10:36Z</time></trkpt><trkpt lat="45.19015218170489" lon="9.56377639893053"><ele>62.0</ele><time>2026-05-03T16:10:37Z</time></trkpt><trkpt lat="45.19034081527762" lon="9.56348294333951"><ele>62.0</ele><time>2026-05-03T16:10:38Z</time></trkpt><trkpt lat="45.19052748160202" lon="9.563192282849185"><ele>62.0</ele><time>2026-05-03T16:10:39Z</time></trkpt><trkpt lat="45.190715237877924" lon="9.562898841910501"><ele>62.0</ele><time>2026-05-03T16:10:40Z</time></trkpt><trkpt lat="45.19090545518808" lon="9.562608539419491"><ele>62.0</ele><time>2026-05-03T16:10:41Z</time></trkpt><trkpt lat="45.19109673767366" lon="9.562320788111307"><ele>62.0</ele><time>2026-05-03T16:10:42Z</time></trkpt><trkpt lat="45.19128943551773" lon="9.562035546785271"><ele>62.0</ele><time>2026-05-03T16:10:43Z</time></trkpt><trkpt lat="45.19148258078567" lon="9.561751230728747"><ele>62.0</ele><time>2026-05-03T16:10:44Z</time></trkpt><trkpt lat="45.191676404789106" lon="9.561466508775387"><ele>62.0</ele><time>2026-05-03T16:10:45Z</time></trkpt><trkpt lat="45.191871213884795" lon="9.561183194210036"><ele>61.5</ele><time>2026-05-03T16:10:46Z</time></trkpt><trkpt lat="45.19206520542265" lon="9.560900622797012"><ele>61.0</ele><time>2026-05-03T16:10:47Z</time></trkpt><trkpt lat="45.19225912418253" lon="9.560616236298914"><ele>60.5</ele><time>2026-05-03T16:10:48Z</time></trkpt><trkpt lat="45.19245492128456" lon="9.560331640295155"><ele>60.0</ele><time>2026-05-03T16:10:49Z</time></trkpt><trkpt lat="45.19265166808828" lon="9.560048951155538"><ele>60.0</ele><time>2026-05-03T16:10:50Z</time></trkpt><trkpt lat="45.19285114801195" lon="9.559768098492183"><ele>60.0</ele><time>2026-05-03T16:10:50.999Z</time></trkpt><trkpt lat="45.1930506503421" lon="9.559489565266215"><ele>61.0</ele><time>2026-05-03T16:10:51.999Z</time></trkpt><trkpt lat="45.193251537014284" lon="9.55921031610371"><ele>62.0</ele><time>2026-05-03T16:10:52.999Z</time></trkpt><trkpt lat="45.193453070426244" lon="9.558928157941617"><ele>62.5</ele><time>2026-05-03T16:10:53.999Z</time></trkpt><trkpt lat="45.19365477315266" lon="9.558647738774823"><ele>63.0</ele><time>2026-05-03T16:10:54.999Z</time></trkpt><trkpt lat="45.19385765108606" lon="9.558368254199028"><ele>63.0</ele><time>2026-05-03T16:10:55.999Z</time></trkpt><trkpt lat="45.19406128686601" lon="9.558086884047848"><ele>63.0</ele><time>2026-05-03T16:10:56.999Z</time></trkpt><trkpt lat="45.194265348365306" lon="9.557807620919277"><ele>63.0</ele><time>2026-05-03T16:10:57.999Z</time></trkpt><trkpt lat="45.19447127615475" lon="9.557528380078784"><ele>63.0</ele><time>2026-05-03T16:10:58.999Z</time></trkpt><trkpt lat="45.19467681835428" lon="9.557249711648147"><ele>62.5</ele><time>2026-05-03T16:10:59.999Z</time></trkpt><trkpt lat="45.19488497242725" lon="9.556969484029791"><ele>62.0</ele><time>2026-05-03T16:11:00.999Z</time></trkpt><trkpt lat="45.19509606375184" lon="9.556689191900075"><ele>62.0</ele><time>2026-05-03T16:11:01.999Z</time></trkpt><trkpt lat="45.195305730841405" lon="9.556410427713258"><ele>62.0</ele><time>2026-05-03T16:11:02.999Z</time></trkpt><trkpt lat="45.19551588577115" lon="9.556135000180877"><ele>61.5</ele><time>2026-05-03T16:11:03.999Z</time></trkpt><trkpt lat="45.19572703348524" lon="9.555861667439643"><ele>61.0</ele><time>2026-05-03T16:11:04.999Z</time></trkpt><trkpt lat="45.19593750795802" lon="9.555587687986778"><ele>62.0</ele><time>2026-05-03T16:11:05.999Z</time></trkpt><trkpt lat="45.19614743468578" lon="9.555314557604868"><ele>63.0</ele><time>2026-05-03T16:11:06.999Z</time></trkpt><trkpt lat="45.19634664996707" lon="9.55505185664732"><ele>63.0</ele><time>2026-05-03T16:11:07.999Z</time></trkpt><trkpt lat="45.19654153076594" lon="9.554795829546254"><ele>63.0</ele><time>2026-05-03T16:11:08.999Z</time></trkpt><trkpt lat="45.19673863692416" lon="9.554535935564065"><ele>63.0</ele><time>2026-05-03T16:11:09.999Z</time></trkpt><trkpt lat="45.19693523425813" lon="9.554274748632633"><ele>63.0</ele><time>2026-05-03T16:11:10.999Z</time></trkpt><trkpt lat="45.19712950529327" lon="9.554010588136167"><ele>63.0</ele><time>2026-05-03T16:11:11.999Z</time></trkpt><trkpt lat="45.197323488689854" lon="9.553743322703117"><ele>63.0</ele><time>2026-05-03T16:11:12.999Z</time></trkpt><trkpt lat="45.19752056922978" lon="9.553475062134728"><ele>62.5</ele><time>2026-05-03T16:11:13.999Z</time></trkpt><trkpt lat="45.197717548311836" lon="9.553207807340025"><ele>62.0</ele><time>2026-05-03T16:11:14.999Z</time></trkpt><trkpt lat="45.19791613806522" lon="9.552941302974325"><ele>62.0</ele><time>2026-05-03T16:11:15.999Z</time></trkpt><trkpt lat="45.19811443616151" lon="9.552674986594813"><ele>62.0</ele><time>2026-05-03T16:11:16.999Z</time></trkpt><trkpt lat="45.19831324239706" lon="9.55240951928829"><ele>63.5</ele><time>2026-05-03T16:11:17.999Z</time></trkpt><trkpt lat="45.19851367124188" lon="9.552142526812522"><ele>65.0</ele><time>2026-05-03T16:11:18.999Z</time></trkpt><trkpt lat="45.19871633671241" lon="9.55187288752991"><ele>65.0</ele><time>2026-05-03T16:11:19.999Z</time></trkpt><trkpt lat="45.198919673250515" lon="9.551603788286862"><ele>65.0</ele><time>2026-05-03T16:11:20.999Z</time></trkpt><trkpt lat="45.19912436630909" lon="9.551335761923886"><ele>63.5</ele><time>2026-05-03T16:11:21.999Z</time></trkpt><trkpt lat="45.199332099319726" lon="9.551066665504369"><ele>62.0</ele><time>2026-05-03T16:11:22.999Z</time></trkpt><trkpt lat="45.1995394052526" lon="9.550796038330974"><ele>62.0</ele><time>2026-05-03T16:11:23.999Z</time></trkpt><trkpt lat="45.19974542075153" lon="9.550526478436115"><ele>62.0</ele><time>2026-05-03T16:11:24.999Z</time></trkpt><trkpt lat="45.199950927327414" lon="9.55025793848202"><ele>62.0</ele><time>2026-05-03T16:11:25.999Z</time></trkpt><trkpt lat="45.20015334940923" lon="9.549988776954894"><ele>62.0</ele><time>2026-05-03T16:11:26.999Z</time></trkpt><trkpt lat="45.20035560276134" lon="9.549720389201493"><ele>62.0</ele><time>2026-05-03T16:11:27.999Z</time></trkpt><trkpt lat="45.20055980595813" lon="9.549453831543081"><ele>62.0</ele><time>2026-05-03T16:11:28.999Z</time></trkpt><trkpt lat="45.20076437851579" lon="9.549191583061337"><ele>62.5</ele><time>2026-05-03T16:11:29.999Z</time></trkpt><trkpt lat="45.20097091198638" lon="9.548928842091488"><ele>63.0</ele><time>2026-05-03T16:11:30.999Z</time></trkpt><trkpt lat="45.20117631716784" lon="9.548670959983266"><ele>63.0</ele><time>2026-05-03T16:11:31.999Z</time></trkpt><trkpt lat="45.201383567364395" lon="9.548412638714309"><ele>63.0</ele><time>2026-05-03T16:11:32.999Z</time></trkpt><trkpt lat="45.20158843533797" lon="9.548153355519784"><ele>62.5</ele><time>2026-05-03T16:11:34Z</time></trkpt><trkpt lat="45.20178939769412" lon="9.547894306828834"><ele>62.0</ele><time>2026-05-03T16:11:35Z</time></trkpt><trkpt lat="45.20199013816152" lon="9.547634491208951"><ele>62.0</ele><time>2026-05-03T16:11:36Z</time></trkpt><trkpt lat="45.202191904536726" lon="9.54737333431801"><ele>62.0</ele><time>2026-05-03T16:11:37Z</time></trkpt><trkpt lat="45.202392257785384" lon="9.547112327872643"><ele>63.0</ele><time>2026-05-03T16:11:38Z</time></trkpt><trkpt lat="45.20259117910272" lon="9.54685370738083"><ele>64.0</ele><time>2026-05-03T16:11:39Z</time></trkpt><trkpt lat="45.202793244797945" lon="9.546592380793289"><ele>64.0</ele><time>2026-05-03T16:11:40Z</time></trkpt><trkpt lat="45.20299276243956" lon="9.546329816393929"><ele>64.0</ele><time>2026-05-03T16:11:41Z</time></trkpt><trkpt lat="45.20319341823664" lon="9.546065677249944"><ele>64.0</ele><time>2026-05-03T16:11:42Z</time></trkpt><trkpt lat="45.20339449158969" lon="9.545800353204084"><ele>64.0</ele><time>2026-05-03T16:11:43Z</time></trkpt><trkpt lat="45.203596076878405" lon="9.545534271874008"><ele>63.5</ele><time>2026-05-03T16:11:44Z</time></trkpt><trkpt lat="45.20379842787223" lon="9.545268211013802"><ele>63.0</ele><time>2026-05-03T16:11:45Z</time></trkpt><trkpt lat="45.20400218451945" lon="9.544999683294732"><ele>62.5</ele><time>2026-05-03T16:11:46Z</time></trkpt><trkpt lat="45.2042084065217" lon="9.54473111022489"><ele>62.0</ele><time>2026-05-03T16:11:47Z</time></trkpt><trkpt lat="45.2044155071571" lon="9.544461207359634"><ele>62.0</ele><time>2026-05-03T16:11:48Z</time></trkpt><trkpt lat="45.20462062276603" lon="9.544187727420665"><ele>62.0</ele><time>2026-05-03T16:11:49Z</time></trkpt><trkpt lat="45.2048224630624" lon="9.543912061955707"><ele>62.5</ele><time>2026-05-03T16:11:50Z</time></trkpt><trkpt lat="45.205024805834135" lon="9.543638453717044"><ele>63.0</ele><time>2026-05-03T16:11:51Z</time></trkpt><trkpt lat="45.205235551875916" lon="9.543365816359264"><ele>63.0</ele><time>2026-05-03T16:11:52Z</time></trkpt><trkpt lat="45.20544546584788" lon="9.543092554057345"><ele>63.0</ele><time>2026-05-03T16:11:53Z</time></trkpt><trkpt lat="45.20565441995694" lon="9.542815702327442"><ele>64.0</ele><time>2026-05-03T16:11:54Z</time></trkpt><trkpt lat="45.20586482402646" lon="9.542538718366506"><ele>65.0</ele><time>2026-05-03T16:11:55Z</time></trkpt><trkpt lat="45.20607982372963" lon="9.542261211134166"><ele>65.0</ele><time>2026-05-03T16:11:56Z</time></trkpt><trkpt lat="45.20629537748223" lon="9.541980989478935"><ele>65.0</ele><time>2026-05-03T16:11:57Z</time></trkpt><trkpt lat="45.20651100544819" lon="9.541698805396225"><ele>64.0</ele><time>2026-05-03T16:11:58Z</time></trkpt><trkpt lat="45.206723348723685" lon="9.541417381490751"><ele>63.0</ele><time>2026-05-03T16:11:59Z</time></trkpt><trkpt lat="45.20693446150752" lon="9.54113687191935"><ele>63.0</ele><time>2026-05-03T16:12:00Z</time></trkpt><trkpt lat="45.207145798450064" lon="9.540858199526806"><ele>63.0</ele><time>2026-05-03T16:12:01Z</time></trkpt><trkpt lat="45.207358692461035" lon="9.540579420682105"><ele>64.0</ele><time>2026-05-03T16:12:02Z</time></trkpt><trkpt lat="45.20757156815004" lon="9.540301950387347"><ele>65.0</ele><time>2026-05-03T16:12:03Z</time></trkpt><trkpt lat="45.20778427108464" lon="9.540022686048419"><ele>65.0</ele><time>2026-05-03T16:12:04Z</time></trkpt><trkpt lat="45.20799561619159" lon="9.539745665750234"><ele>65.0</ele><time>2026-05-03T16:12:05Z</time></trkpt><trkpt lat="45.20820608783814" lon="9.53946940148993"><ele>64.5</ele><time>2026-05-03T16:12:06Z</time></trkpt><trkpt lat="45.20841655406883" lon="9.539195218124632"><ele>64.0</ele><time>2026-05-03T16:12:07Z</time></trkpt><trkpt lat="45.20862661006751" lon="9.538920294572938"><ele>64.0</ele><time>2026-05-03T16:12:08Z</time></trkpt><trkpt lat="45.20883440192348" lon="9.538646940890482"><ele>64.0</ele><time>2026-05-03T16:12:09Z</time></trkpt><trkpt lat="45.20904111508543" lon="9.538372281812373"><ele>64.5</ele><time>2026-05-03T16:12:10Z</time></trkpt><trkpt lat="45.20924719713906" lon="9.538096910456416"><ele>65.0</ele><time>2026-05-03T16:12:11Z</time></trkpt><trkpt lat="45.20945402903764" lon="9.537821197763817"><ele>65.0</ele><time>2026-05-03T16:12:12Z</time></trkpt><trkpt lat="45.20966272264971" lon="9.537546276953993"><ele>65.0</ele><time>2026-05-03T16:12:13Z</time></trkpt><trkpt lat="45.20987259421553" lon="9.537271590382181"><ele>64.5</ele><time>2026-05-03T16:12:14Z</time></trkpt><trkpt lat="45.210082985404945" lon="9.536995453858195"><ele>64.0</ele><time>2026-05-03T16:12:15Z</time></trkpt><trkpt lat="45.210292502865514" lon="9.536719473668644"><ele>64.0</ele><time>2026-05-03T16:12:16Z</time></trkpt><trkpt lat="45.2105000870542" lon="9.536443882874453"><ele>64.0</ele><time>2026-05-03T16:12:17Z</time></trkpt><trkpt lat="45.210706844248115" lon="9.536168726842186"><ele>64.0</ele><time>2026-05-03T16:12:18Z</time></trkpt><trkpt lat="45.21091423034501" lon="9.53589366016589"><ele>64.0</ele><time>2026-05-03T16:12:19Z</time></trkpt><trkpt lat="45.21112168344981" lon="9.535618710319362"><ele>64.5</ele><time>2026-05-03T16:12:20Z</time></trkpt><trkpt lat="45.21132807918308" lon="9.535346816392186"><ele>65.0</ele><time>2026-05-03T16:12:21Z</time></trkpt><trkpt lat="45.21152412071424" lon="9.535081562768235"><ele>65.0</ele><time>2026-05-03T16:12:22Z</time></trkpt><trkpt lat="45.21171217329006" lon="9.534818163636666"><ele>65.0</ele><time>2026-05-03T16:12:23Z</time></trkpt><trkpt lat="45.21188916227902" lon="9.534554823028927"><ele>65.0</ele><time>2026-05-03T16:12:24Z</time></trkpt><trkpt lat="45.21206451131567" lon="9.534289323387874"><ele>65.0</ele><time>2026-05-03T16:12:25Z</time></trkpt><trkpt lat="45.21231984862252" lon="9.534044695451039"><ele>65.0</ele><time>2026-05-03T16:12:26Z</time></trkpt><trkpt lat="45.212504120664676" lon="9.533779983765776"><ele>65.0</ele><time>2026-05-03T16:12:27Z</time></trkpt><trkpt lat="45.212692045884964" lon="9.533520598928543"><ele>65.0</ele><time>2026-05-03T16:12:28Z</time></trkpt><trkpt lat="45.21288449658428" lon="9.533263351816785"><ele>65.0</ele><time>2026-05-03T16:12:29Z</time></trkpt><trkpt lat="45.21307973571822" lon="9.533005819764798"><ele>64.5</ele><time>2026-05-03T16:12:30Z</time></trkpt><trkpt lat="45.2132783355167" lon="9.53274866547015"><ele>64.0</ele><time>2026-05-03T16:12:31Z</time></trkpt><trkpt lat="45.21347974964853" lon="9.532487995036725"><ele>64.0</ele><time>2026-05-03T16:12:32Z</time></trkpt><trkpt lat="45.21367920885205" lon="9.53222362819536"><ele>64.0</ele><time>2026-05-03T16:12:33Z</time></trkpt><trkpt lat="45.21387616338517" lon="9.5319624349401"><ele>63.5</ele><time>2026-05-03T16:12:34Z</time></trkpt><trkpt lat="45.21407619048839" lon="9.53170129855681"><ele>63.0</ele><time>2026-05-03T16:12:35Z</time></trkpt><trkpt lat="45.21427201618343" lon="9.531442400690402"><ele>64.0</ele><time>2026-05-03T16:12:36Z</time></trkpt><trkpt lat="45.21447439870694" lon="9.531183153831178"><ele>65.0</ele><time>2026-05-03T16:12:37Z</time></trkpt><trkpt lat="45.2146806545964" lon="9.530923119375215"><ele>64.0</ele><time>2026-05-03T16:12:38Z</time></trkpt><trkpt lat="45.21488278565213" lon="9.530671779894126"><ele>63.0</ele><time>2026-05-03T16:12:39Z</time></trkpt><trkpt lat="45.2150854362951" lon="9.530417607360535"><ele>63.5</ele><time>2026-05-03T16:12:40Z</time></trkpt><trkpt lat="45.21528168135739" lon="9.530166292896439"><ele>64.0</ele><time>2026-05-03T16:12:41Z</time></trkpt><trkpt lat="45.21547659051391" lon="9.529910616706978"><ele>64.5</ele><time>2026-05-03T16:12:42Z</time></trkpt><trkpt lat="45.215674286397864" lon="9.529655975714276"><ele>65.0</ele><time>2026-05-03T16:12:43Z</time></trkpt><trkpt lat="45.215868756503454" lon="9.529392382054157"><ele>66.5</ele><time>2026-05-03T16:12:44Z</time></trkpt><trkpt lat="45.216064565392536" lon="9.529136232645977"><ele>68.0</ele><time>2026-05-03T16:12:45Z</time></trkpt><trkpt lat="45.216265003775895" lon="9.52888546496996"><ele>68.0</ele><time>2026-05-03T16:12:46Z</time></trkpt><trkpt lat="45.216458835333846" lon="9.528625329785141"><ele>68.0</ele><time>2026-05-03T16:12:47Z</time></trkpt><trkpt lat="45.21665668673726" lon="9.528369175989045"><ele>66.5</ele><time>2026-05-03T16:12:48Z</time></trkpt><trkpt lat="45.21685175293967" lon="9.528108123700179"><ele>65.0</ele><time>2026-05-03T16:12:49Z</time></trkpt><trkpt lat="45.217048549241355" lon="9.527851646728054"><ele>65.0</ele><time>2026-05-03T16:12:50Z</time></trkpt><trkpt lat="45.217247574535776" lon="9.52759000346118"><ele>65.0</ele><time>2026-05-03T16:12:51Z</time></trkpt><trkpt lat="45.21744548713792" lon="9.527332169803516"><ele>65.0</ele><time>2026-05-03T16:12:51.999Z</time></trkpt><trkpt lat="45.21764151936305" lon="9.527073201432101"><ele>65.0</ele><time>2026-05-03T16:12:52.999Z</time></trkpt><trkpt lat="45.21783937729782" lon="9.526810090437207"><ele>65.0</ele><time>2026-05-03T16:12:53.999Z</time></trkpt><trkpt lat="45.21803970928155" lon="9.52655256145005"><ele>65.0</ele><time>2026-05-03T16:12:54.999Z</time></trkpt><trkpt lat="45.21823997936139" lon="9.526288782069305"><ele>65.5</ele><time>2026-05-03T16:12:55.999Z</time></trkpt><trkpt lat="45.218438570605635" lon="9.526023599360293"><ele>66.0</ele><time>2026-05-03T16:12:56.999Z</time></trkpt><trkpt lat="45.218637526605484" lon="9.525758632903432"><ele>66.0</ele><time>2026-05-03T16:12:57.999Z</time></trkpt><trkpt lat="45.21883631575479" lon="9.52549359178759"><ele>66.0</ele><time>2026-05-03T16:12:58.999Z</time></trkpt><trkpt lat="45.21903714626729" lon="9.525233278515755"><ele>65.5</ele><time>2026-05-03T16:12:59.999Z</time></trkpt><trkpt lat="45.21923968064781" lon="9.524969878841137"><ele>65.0</ele><time>2026-05-03T16:13:00.999Z</time></trkpt><trkpt lat="45.21943789970253" lon="9.524706192263908"><ele>65.0</ele><time>2026-05-03T16:13:01.999Z</time></trkpt><trkpt lat="45.21963905331983" lon="9.524444045607265"><ele>65.0</ele><time>2026-05-03T16:13:02.999Z</time></trkpt><trkpt lat="45.21983639797056" lon="9.524186313009594"><ele>65.0</ele><time>2026-05-03T16:13:03.999Z</time></trkpt><trkpt lat="45.22003527242115" lon="9.523922803594292"><ele>65.0</ele><time>2026-05-03T16:13:04.999Z</time></trkpt><trkpt lat="45.220234324760625" lon="9.523661347926382"><ele>65.5</ele><time>2026-05-03T16:13:05.999Z</time></trkpt><trkpt lat="45.22043014995558" lon="9.523399057708504"><ele>66.0</ele><time>2026-05-03T16:13:06.999Z</time></trkpt><trkpt lat="45.220628369011386" lon="9.523136519195688"><ele>66.0</ele><time>2026-05-03T16:13:07.999Z</time></trkpt><trkpt lat="45.22082790193662" lon="9.522871093566025"><ele>66.0</ele><time>2026-05-03T16:13:08.999Z</time></trkpt><trkpt lat="45.22103037630877" lon="9.522606776495653"><ele>66.0</ele><time>2026-05-03T16:13:09.999Z</time></trkpt><trkpt lat="45.22123228190431" lon="9.522342966092998"><ele>66.0</ele><time>2026-05-03T16:13:10.999Z</time></trkpt><trkpt lat="45.22143333962341" lon="9.52207657348507"><ele>66.5</ele><time>2026-05-03T16:13:11.999Z</time></trkpt><trkpt lat="45.22163267335573" lon="9.52181121749058"><ele>67.0</ele><time>2026-05-03T16:13:12.999Z</time></trkpt><trkpt lat="45.22183529447085" lon="9.521543854313318"><ele>67.0</ele><time>2026-05-03T16:13:13.999Z</time></trkpt><trkpt lat="45.22203626607768" lon="9.521278013793246"><ele>67.0</ele><time>2026-05-03T16:13:14.999Z</time></trkpt><trkpt lat="45.22223762006879" lon="9.521007281953247"><ele>66.5</ele><time>2026-05-03T16:13:15.999Z</time></trkpt><trkpt lat="45.22243615132092" lon="9.520738188821088"><ele>66.0</ele><time>2026-05-03T16:13:16.999Z</time></trkpt><trkpt lat="45.222637162893925" lon="9.52046797102305"><ele>65.5</ele><time>2026-05-03T16:13:17.999Z</time></trkpt><trkpt lat="45.22283695583905" lon="9.520198303102834"><ele>65.0</ele><time>2026-05-03T16:13:18.999Z</time></trkpt><trkpt lat="45.22303650953293" lon="9.519923690933421"><ele>65.0</ele><time>2026-05-03T16:13:19.999Z</time></trkpt><trkpt lat="45.22323568320949" lon="9.519656528896716"><ele>65.0</ele><time>2026-05-03T16:13:20.999Z</time></trkpt><trkpt lat="45.22343775531908" lon="9.519386400803977"><ele>66.0</ele><time>2026-05-03T16:13:21.999Z</time></trkpt><trkpt lat="45.22363924046907" lon="9.519120301591707"><ele>67.0</ele><time>2026-05-03T16:13:22.999Z</time></trkpt><trkpt lat="45.22384544423553" lon="9.518857494796421"><ele>67.5</ele><time>2026-05-03T16:13:23.999Z</time></trkpt><trkpt lat="45.22405086935016" lon="9.518590374091145"><ele>68.0</ele><time>2026-05-03T16:13:24.999Z</time></trkpt><trkpt lat="45.22425772809652" lon="9.518328487573896"><ele>68.0</ele><time>2026-05-03T16:13:25.999Z</time></trkpt><trkpt lat="45.22446744971878" lon="9.518065633131203"><ele>68.0</ele><time>2026-05-03T16:13:26.999Z</time></trkpt><trkpt lat="45.22467213728396" lon="9.517805518182676"><ele>66.5</ele><time>2026-05-03T16:13:27.999Z</time></trkpt><trkpt lat="45.22487837281871" lon="9.517543567089875"><ele>65.0</ele><time>2026-05-03T16:13:28.999Z</time></trkpt><trkpt lat="45.22508210278746" lon="9.517280551096949"><ele>65.5</ele><time>2026-05-03T16:13:29.999Z</time></trkpt><trkpt lat="45.22528166884981" lon="9.517018501201225"><ele>66.0</ele><time>2026-05-03T16:13:30.999Z</time></trkpt><trkpt lat="45.225484284759084" lon="9.516752098146503"><ele>65.5</ele><time>2026-05-03T16:13:31.999Z</time></trkpt><trkpt lat="45.22568679472122" lon="9.516483237395278"><ele>65.0</ele><time>2026-05-03T16:13:32.999Z</time></trkpt><trkpt lat="45.225883803749596" lon="9.516218047364191"><ele>66.0</ele><time>2026-05-03T16:13:33.999Z</time></trkpt><trkpt lat="45.2260853972826" lon="9.51594978570911"><ele>67.0</ele><time>2026-05-03T16:13:34.999Z</time></trkpt><trkpt lat="45.22628626689" lon="9.515684570204597"><ele>66.5</ele><time>2026-05-03T16:13:35.999Z</time></trkpt><trkpt lat="45.226490399207485" lon="9.515417994733953"><ele>66.0</ele><time>2026-05-03T16:13:36.999Z</time></trkpt><trkpt lat="45.226694617616914" lon="9.515147884648067"><ele>66.0</ele><time>2026-05-03T16:13:37.999Z</time></trkpt><trkpt lat="45.22689562479831" lon="9.514880256957625"><ele>66.0</ele><time>2026-05-03T16:13:38.999Z</time></trkpt><trkpt lat="45.22710006515463" lon="9.514606008251187"><ele>66.0</ele><time>2026-05-03T16:13:40Z</time></trkpt><trkpt lat="45.22730152981007" lon="9.514330408580184"><ele>66.0</ele><time>2026-05-03T16:13:41Z</time></trkpt><trkpt lat="45.2275046320628" lon="9.51405290879814"><ele>66.0</ele><time>2026-05-03T16:13:42Z</time></trkpt><trkpt lat="45.22770961418171" lon="9.513776124450892"><ele>66.0</ele><time>2026-05-03T16:13:43Z</time></trkpt><trkpt lat="45.22791518530027" lon="9.51350213156946"><ele>66.0</ele><time>2026-05-03T16:13:44Z</time></trkpt><trkpt lat="45.22812152026679" lon="9.513231924986014"><ele>66.0</ele><time>2026-05-03T16:13:45Z</time></trkpt><trkpt lat="45.22832874433697" lon="9.512955758262096"><ele>67.5</ele><time>2026-05-03T16:13:46Z</time></trkpt><trkpt lat="45.22853424795035" lon="9.512683495451956"><ele>69.0</ele><time>2026-05-03T16:13:47Z</time></trkpt><trkpt lat="45.22874297851584" lon="9.512410002348144"><ele>69.0</ele><time>2026-05-03T16:13:48Z</time></trkpt><trkpt lat="45.22895204831674" lon="9.512135734996836"><ele>69.0</ele><time>2026-05-03T16:13:49Z</time></trkpt><trkpt lat="45.229159719292156" lon="9.511862620386319"><ele>68.5</ele><time>2026-05-03T16:13:50Z</time></trkpt><trkpt lat="45.22936712413664" lon="9.511590454864198"><ele>68.0</ele><time>2026-05-03T16:13:51Z</time></trkpt><trkpt lat="45.22957678815295" lon="9.511320340339699"><ele>68.0</ele><time>2026-05-03T16:13:52Z</time></trkpt><trkpt lat="45.22978527514602" lon="9.511050462186706"><ele>68.0</ele><time>2026-05-03T16:13:53Z</time></trkpt><trkpt lat="45.229992002002994" lon="9.510781912678652"><ele>68.0</ele><time>2026-05-03T16:13:54Z</time></trkpt><trkpt lat="45.23019513619462" lon="9.510512453248966"><ele>68.0</ele><time>2026-05-03T16:13:55Z</time></trkpt><trkpt lat="45.23039924995237" lon="9.510240356148788"><ele>68.0</ele><time>2026-05-03T16:13:56Z</time></trkpt><trkpt lat="45.23060598859484" lon="9.509967990390768"><ele>68.0</ele><time>2026-05-03T16:13:57Z</time></trkpt><trkpt lat="45.23081281112769" lon="9.509697603347284"><ele>67.5</ele><time>2026-05-03T16:13:58Z</time></trkpt><trkpt lat="45.23101821855718" lon="9.50942695736827"><ele>67.0</ele><time>2026-05-03T16:13:59Z</time></trkpt><trkpt lat="45.23122593668495" lon="9.50915700407271"><ele>67.0</ele><time>2026-05-03T16:14:00Z</time></trkpt><trkpt lat="45.23143372702814" lon="9.508883396731038"><ele>67.0</ele><time>2026-05-03T16:14:01Z</time></trkpt><trkpt lat="45.231639133017126" lon="9.50861293864176"><ele>67.0</ele><time>2026-05-03T16:14:02Z</time></trkpt><trkpt lat="45.23184714995424" lon="9.508346837640646"><ele>67.0</ele><time>2026-05-03T16:14:03Z</time></trkpt><trkpt lat="45.23205526428839" lon="9.508076365503799"><ele>67.5</ele><time>2026-05-03T16:14:04Z</time></trkpt><trkpt lat="45.232260444369366" lon="9.507807709094408"><ele>68.0</ele><time>2026-05-03T16:14:05Z</time></trkpt><trkpt lat="45.232465515742405" lon="9.507541296020209"><ele>68.0</ele><time>2026-05-03T16:14:06Z</time></trkpt><trkpt lat="45.23267432976992" lon="9.5072779939507"><ele>68.0</ele><time>2026-05-03T16:14:07Z</time></trkpt><trkpt lat="45.23288254531427" lon="9.507018136671624"><ele>68.0</ele><time>2026-05-03T16:14:08Z</time></trkpt><trkpt lat="45.233094734242144" lon="9.50675428758453"><ele>68.0</ele><time>2026-05-03T16:14:09Z</time></trkpt><trkpt lat="45.23329617142881" lon="9.506493000653844"><ele>68.0</ele><time>2026-05-03T16:14:10Z</time></trkpt><trkpt lat="45.23350115300894" lon="9.506228490447263"><ele>68.0</ele><time>2026-05-03T16:14:11Z</time></trkpt><trkpt lat="45.23370312834088" lon="9.505966101838554"><ele>68.0</ele><time>2026-05-03T16:14:12Z</time></trkpt><trkpt lat="45.23390485923554" lon="9.505701537260613"><ele>68.0</ele><time>2026-05-03T16:14:13Z</time></trkpt><trkpt lat="45.23410399804052" lon="9.505439199689384"><ele>68.0</ele><time>2026-05-03T16:14:14Z</time></trkpt><trkpt lat="45.234301172404386" lon="9.505175312712549"><ele>68.0</ele><time>2026-05-03T16:14:15Z</time></trkpt><trkpt lat="45.234500268306235" lon="9.504911728254188"><ele>68.0</ele><time>2026-05-03T16:14:16Z</time></trkpt><trkpt lat="45.23469981275339" lon="9.504650925765251"><ele>68.0</ele><time>2026-05-03T16:14:17Z</time></trkpt><trkpt lat="45.234900745563834" lon="9.504385413440989"><ele>68.0</ele><time>2026-05-03T16:14:18Z</time></trkpt><trkpt lat="45.235097138181125" lon="9.50412475189301"><ele>68.0</ele><time>2026-05-03T16:14:19Z</time></trkpt><trkpt lat="45.23529985781102" lon="9.503864569593743"><ele>68.5</ele><time>2026-05-03T16:14:20Z</time></trkpt><trkpt lat="45.23549501899745" lon="9.503605524897178"><ele>69.0</ele><time>2026-05-03T16:14:21Z</time></trkpt><trkpt lat="45.235690127141716" lon="9.503354006625434"><ele>70.0</ele><time>2026-05-03T16:14:22Z</time></trkpt><trkpt lat="45.23588323528098" lon="9.503100651774378"><ele>71.0</ele><time>2026-05-03T16:14:23Z</time></trkpt><trkpt lat="45.23607431766102" lon="9.502850043807273"><ele>71.0</ele><time>2026-05-03T16:14:24Z</time></trkpt><trkpt lat="45.23626375121747" lon="9.502600314014956"><ele>71.0</ele><time>2026-05-03T16:14:25Z</time></trkpt><trkpt lat="45.236452442880804" lon="9.502350771324366"><ele>71.0</ele><time>2026-05-03T16:14:26Z</time></trkpt><trkpt lat="45.23664199593048" lon="9.502099040140319"><ele>71.0</ele><time>2026-05-03T16:14:27Z</time></trkpt><trkpt lat="45.236828729351444" lon="9.501846799309753"><ele>71.0</ele><time>2026-05-03T16:14:28Z</time></trkpt><trkpt lat="45.2370107021938" lon="9.501596430830547"><ele>71.0</ele><time>2026-05-03T16:14:29Z</time></trkpt><trkpt lat="45.2371924435979" lon="9.501345498260436"><ele>70.5</ele><time>2026-05-03T16:14:30Z</time></trkpt><trkpt lat="45.237372177397845" lon="9.501097874700175"><ele>70.0</ele><time>2026-05-03T16:14:31Z</time></trkpt><trkpt lat="45.23754955108818" lon="9.500861387601613"><ele>70.0</ele><time>2026-05-03T16:14:32Z</time></trkpt><trkpt lat="45.23773386228122" lon="9.500626837198574"><ele>70.0</ele><time>2026-05-03T16:14:33Z</time></trkpt><trkpt lat="45.23791974442024" lon="9.500395778852532"><ele>69.5</ele><time>2026-05-03T16:14:34Z</time></trkpt><trkpt lat="45.238107458785365" lon="9.500165548600231"><ele>69.0</ele><time>2026-05-03T16:14:35Z</time></trkpt><trkpt lat="45.2382933660363" lon="9.49992484763618"><ele>69.5</ele><time>2026-05-03T16:14:36Z</time></trkpt><trkpt lat="45.23847965105893" lon="9.499682630650039"><ele>70.0</ele><time>2026-05-03T16:14:37Z</time></trkpt><trkpt lat="45.23866660920932" lon="9.499436205444955"><ele>70.0</ele><time>2026-05-03T16:14:38Z</time></trkpt><trkpt lat="45.238852473174454" lon="9.499189787148413"><ele>70.0</ele><time>2026-05-03T16:14:39Z</time></trkpt><trkpt lat="45.23903945017198" lon="9.498944341719211"><ele>70.0</ele><time>2026-05-03T16:14:40Z</time></trkpt><trkpt lat="45.23922624292452" lon="9.498696722665379"><ele>70.0</ele><time>2026-05-03T16:14:41Z</time></trkpt><trkpt lat="45.23941331993136" lon="9.498448567450442"><ele>70.0</ele><time>2026-05-03T16:14:42Z</time></trkpt><trkpt lat="45.23960265325382" lon="9.498200990615304"><ele>70.0</ele><time>2026-05-03T16:14:43Z</time></trkpt><trkpt lat="45.23979404365266" lon="9.497950060732101"><ele>70.0</ele><time>2026-05-03T16:14:44Z</time></trkpt><trkpt lat="45.2399845574699" lon="9.497693647792838"><ele>70.0</ele><time>2026-05-03T16:14:45Z</time></trkpt><trkpt lat="45.24017760829135" lon="9.497421852430863"><ele>70.0</ele><time>2026-05-03T16:14:46Z</time></trkpt><trkpt lat="45.24037470456282" lon="9.497142693540992"><ele>70.0</ele><time>2026-05-03T16:14:47Z</time></trkpt><trkpt lat="45.2405767532293" lon="9.496861726579775"><ele>69.0</ele><time>2026-05-03T16:14:47.999Z</time></trkpt><trkpt lat="45.240782661002086" lon="9.496579940884947"><ele>68.0</ele><time>2026-05-03T16:14:48.999Z</time></trkpt><trkpt lat="45.24099025732319" lon="9.49630500343889"><ele>68.5</ele><time>2026-05-03T16:14:49.999Z</time></trkpt><trkpt lat="45.24120055534462" lon="9.496032986813299"><ele>69.0</ele><time>2026-05-03T16:14:50.999Z</time></trkpt><trkpt lat="45.24141290801879" lon="9.495764988229338"><ele>69.0</ele><time>2026-05-03T16:14:51.999Z</time></trkpt><trkpt lat="45.241624890733256" lon="9.495500771174262"><ele>69.0</ele><time>2026-05-03T16:14:52.999Z</time></trkpt><trkpt lat="45.24183702292826" lon="9.495238566983755"><ele>69.0</ele><time>2026-05-03T16:14:53.999Z</time></trkpt><trkpt lat="45.2420485632391" lon="9.49497653195524"><ele>69.0</ele><time>2026-05-03T16:14:54.999Z</time></trkpt><trkpt lat="45.24225591928544" lon="9.494714582703283"><ele>69.0</ele><time>2026-05-03T16:14:55.999Z</time></trkpt><trkpt lat="45.24245997369189" lon="9.494450740131724"><ele>69.0</ele><time>2026-05-03T16:14:56.999Z</time></trkpt><trkpt lat="45.24265728922098" lon="9.494188944728567"><ele>69.0</ele><time>2026-05-03T16:14:57.999Z</time></trkpt><trkpt lat="45.2428563081261" lon="9.493927001220088"><ele>69.0</ele><time>2026-05-03T16:14:58.999Z</time></trkpt><trkpt lat="45.24305498549903" lon="9.493666245307061"><ele>69.5</ele><time>2026-05-03T16:14:59.999Z</time></trkpt><trkpt lat="45.24325354730717" lon="9.493405678589829"><ele>70.0</ele><time>2026-05-03T16:15:00.999Z</time></trkpt><trkpt lat="45.24345006743969" lon="9.493146519435397"><ele>71.0</ele><time>2026-05-03T16:15:01.999Z</time></trkpt><trkpt lat="45.243649193906265" lon="9.492883101457988"><ele>72.0</ele><time>2026-05-03T16:15:02.999Z</time></trkpt><trkpt lat="45.243848240528315" lon="9.492619494211976"><ele>71.5</ele><time>2026-05-03T16:15:03.999Z</time></trkpt><trkpt lat="45.24404977655251" lon="9.492354440840101"><ele>71.0</ele><time>2026-05-03T16:15:04.999Z</time></trkpt><trkpt lat="45.244251928418855" lon="9.492090878632283"><ele>70.5</ele><time>2026-05-03T16:15:05.999Z</time></trkpt><trkpt lat="45.24445614256279" lon="9.491823675104799"><ele>70.0</ele><time>2026-05-03T16:15:06.999Z</time></trkpt><trkpt lat="45.244659722171406" lon="9.491556102059125"><ele>70.5</ele><time>2026-05-03T16:15:07.999Z</time></trkpt><trkpt lat="45.244864138873396" lon="9.49128716161823"><ele>71.0</ele><time>2026-05-03T16:15:08.999Z</time></trkpt><trkpt lat="45.24506759630074" lon="9.491020510331154"><ele>70.0</ele><time>2026-05-03T16:15:09.999Z</time></trkpt><trkpt lat="45.24527216652931" lon="9.490748917868451"><ele>69.0</ele><time>2026-05-03T16:15:10.999Z</time></trkpt><trkpt lat="45.24548055772991" lon="9.490478784600478"><ele>69.5</ele><time>2026-05-03T16:15:11.999Z</time></trkpt><trkpt lat="45.24568913301215" lon="9.490207365970004"><ele>70.0</ele><time>2026-05-03T16:15:12.999Z</time></trkpt><trkpt lat="45.245896998772594" lon="9.489935095873536"><ele>70.0</ele><time>2026-05-03T16:15:13.999Z</time></trkpt><trkpt lat="45.24610444643416" lon="9.489661665184263"><ele>70.0</ele><time>2026-05-03T16:15:14.999Z</time></trkpt><trkpt lat="45.24631286741108" lon="9.489385342789344"><ele>72.0</ele><time>2026-05-03T16:15:15.999Z</time></trkpt><trkpt lat="45.24652006006385" lon="9.489109128650304"><ele>74.0</ele><time>2026-05-03T16:15:16.999Z</time></trkpt><trkpt lat="45.24672851065797" lon="9.488831557096804"><ele>73.0</ele><time>2026-05-03T16:15:17.999Z</time></trkpt><trkpt lat="45.246938329547326" lon="9.488557585099876"><ele>72.0</ele><time>2026-05-03T16:15:18.999Z</time></trkpt><trkpt lat="45.24715122903523" lon="9.48828026304209"><ele>71.0</ele><time>2026-05-03T16:15:19.999Z</time></trkpt><trkpt lat="45.247365025289966" lon="9.488002300724373"><ele>70.0</ele><time>2026-05-03T16:15:20.999Z</time></trkpt><trkpt lat="45.24757737698896" lon="9.487727543050962"><ele>70.0</ele><time>2026-05-03T16:15:21.999Z</time></trkpt><trkpt lat="45.247788026329125" lon="9.487452429055175"><ele>70.0</ele><time>2026-05-03T16:15:22.999Z</time></trkpt><trkpt lat="45.24799850211042" lon="9.487176553506472"><ele>69.5</ele><time>2026-05-03T16:15:23.999Z</time></trkpt><trkpt lat="45.2482076858246" lon="9.486902718575662"><ele>69.0</ele><time>2026-05-03T16:15:24.999Z</time></trkpt><trkpt lat="45.24841659979076" lon="9.486627690973744"><ele>69.0</ele><time>2026-05-03T16:15:25.999Z</time></trkpt><trkpt lat="45.24862504203457" lon="9.486352368449829"><ele>69.0</ele><time>2026-05-03T16:15:26.999Z</time></trkpt><trkpt lat="45.24883425318338" lon="9.486080254046533"><ele>69.0</ele><time>2026-05-03T16:15:27.999Z</time></trkpt><trkpt lat="45.24904285210953" lon="9.485805937404136"><ele>69.0</ele><time>2026-05-03T16:15:28.999Z</time></trkpt><trkpt lat="45.249250296299564" lon="9.485529646611285"><ele>69.0</ele><time>2026-05-03T16:15:29.999Z</time></trkpt><trkpt lat="45.24945663748952" lon="9.485252182524974"><ele>69.0</ele><time>2026-05-03T16:15:30.999Z</time></trkpt><trkpt lat="45.24966473154522" lon="9.484977470704791"><ele>69.5</ele><time>2026-05-03T16:15:31.999Z</time></trkpt><trkpt lat="45.249874519051325" lon="9.484704357672445"><ele>70.0</ele><time>2026-05-03T16:15:32.999Z</time></trkpt><trkpt lat="45.250081535386215" lon="9.484429117333981"><ele>70.0</ele><time>2026-05-03T16:15:33.999Z</time></trkpt><trkpt lat="45.250288834204234" lon="9.484152168256571"><ele>70.0</ele><time>2026-05-03T16:15:34.999Z</time></trkpt><trkpt lat="45.25049648057404" lon="9.48388014127461"><ele>70.5</ele><time>2026-05-03T16:15:35.999Z</time></trkpt><trkpt lat="45.25070122149178" lon="9.483609057652114"><ele>71.0</ele><time>2026-05-03T16:15:36.999Z</time></trkpt><trkpt lat="45.25090466254889" lon="9.48333965031664"><ele>71.0</ele><time>2026-05-03T16:15:37.999Z</time></trkpt><trkpt lat="45.25110820009007" lon="9.48307142194477"><ele>71.0</ele><time>2026-05-03T16:15:38.999Z</time></trkpt><trkpt lat="45.25131253859498" lon="9.482804541691321"><ele>70.5</ele><time>2026-05-03T16:15:39.999Z</time></trkpt><trkpt lat="45.25151449992015" lon="9.482535968789268"><ele>70.0</ele><time>2026-05-03T16:15:40.999Z</time></trkpt><trkpt lat="45.25172079560944" lon="9.482270593193595"><ele>70.5</ele><time>2026-05-03T16:15:41.999Z</time></trkpt><trkpt lat="45.25192914608426" lon="9.48200308994491"><ele>71.0</ele><time>2026-05-03T16:15:42.999Z</time></trkpt><trkpt lat="45.25213562800336" lon="9.481736286231463"><ele>71.0</ele><time>2026-05-03T16:15:43.999Z</time></trkpt><trkpt lat="45.25234192843201" lon="9.481465266779738"><ele>71.0</ele><time>2026-05-03T16:15:45Z</time></trkpt><trkpt lat="45.252548465841606" lon="9.481194479202966"><ele>71.0</ele><time>2026-05-03T16:15:46Z</time></trkpt><trkpt lat="45.25275497530359" lon="9.480925134157523"><ele>71.0</ele><time>2026-05-03T16:15:47Z</time></trkpt><trkpt lat="45.25295836309385" lon="9.480653402440403"><ele>71.0</ele><time>2026-05-03T16:15:48Z</time></trkpt><trkpt lat="45.25315844807569" lon="9.480384062544987"><ele>71.0</ele><time>2026-05-03T16:15:49Z</time></trkpt><trkpt lat="45.25336163869264" lon="9.48011248250238"><ele>71.0</ele><time>2026-05-03T16:15:50Z</time></trkpt><trkpt lat="45.253570250651364" lon="9.479845974148477"><ele>71.0</ele><time>2026-05-03T16:15:51Z</time></trkpt><trkpt lat="45.253780259915565" lon="9.47957377896489"><ele>71.5</ele><time>2026-05-03T16:15:52Z</time></trkpt><trkpt lat="45.25398833088066" lon="9.479301446197663"><ele>72.0</ele><time>2026-05-03T16:15:53Z</time></trkpt><trkpt lat="45.25419308895248" lon="9.479029749262853"><ele>72.0</ele><time>2026-05-03T16:15:54Z</time></trkpt><trkpt lat="45.254398484942975" lon="9.478756369247362"><ele>72.0</ele><time>2026-05-03T16:15:55Z</time></trkpt><trkpt lat="45.25460482354143" lon="9.478482236111894"><ele>72.0</ele><time>2026-05-03T16:15:56Z</time></trkpt><trkpt lat="45.25481392765703" lon="9.478209367973806"><ele>72.0</ele><time>2026-05-03T16:15:57Z</time></trkpt><trkpt lat="45.255026756966366" lon="9.47793253631827"><ele>72.0</ele><time>2026-05-03T16:15:58Z</time></trkpt><trkpt lat="45.25523824216432" lon="9.477653975060228"><ele>72.0</ele><time>2026-05-03T16:15:59Z</time></trkpt><trkpt lat="45.25544767467358" lon="9.477373205177239"><ele>71.0</ele><time>2026-05-03T16:16:00Z</time></trkpt><trkpt lat="45.255660409254084" lon="9.477092982904397"><ele>70.0</ele><time>2026-05-03T16:16:01Z</time></trkpt><trkpt lat="45.255874743024876" lon="9.47681181696444"><ele>70.0</ele><time>2026-05-03T16:16:02Z</time></trkpt><trkpt lat="45.2560899679034" lon="9.476528242453622"><ele>70.0</ele><time>2026-05-03T16:16:03Z</time></trkpt><trkpt lat="45.256304906154945" lon="9.476243804147584"><ele>70.0</ele><time>2026-05-03T16:16:04Z</time></trkpt><trkpt lat="45.25651754897434" lon="9.475961044767947"><ele>70.0</ele><time>2026-05-03T16:16:05Z</time></trkpt><trkpt lat="45.256729680981216" lon="9.475677776059298"><ele>69.5</ele><time>2026-05-03T16:16:06Z</time></trkpt><trkpt lat="45.25694126033612" lon="9.475395094042108"><ele>69.0</ele><time>2026-05-03T16:16:07Z</time></trkpt><trkpt lat="45.25715135207366" lon="9.475110512971181"><ele>69.5</ele><time>2026-05-03T16:16:08Z</time></trkpt><trkpt lat="45.257369939479716" lon="9.474830967529224"><ele>70.0</ele><time>2026-05-03T16:16:09Z</time></trkpt><trkpt lat="45.257586756041384" lon="9.474549173645467"><ele>70.0</ele><time>2026-05-03T16:16:10Z</time></trkpt><trkpt lat="45.257803293829525" lon="9.47426906407664"><ele>70.0</ele><time>2026-05-03T16:16:11Z</time></trkpt><trkpt lat="45.258017667030096" lon="9.473995442227961"><ele>70.5</ele><time>2026-05-03T16:16:12Z</time></trkpt><trkpt lat="45.25823648410946" lon="9.47371708408987"><ele>71.0</ele><time>2026-05-03T16:16:13Z</time></trkpt><trkpt lat="45.258449102595584" lon="9.473438208560863"><ele>71.0</ele><time>2026-05-03T16:16:14Z</time></trkpt><trkpt lat="45.258661464737315" lon="9.473160560629118"><ele>71.0</ele><time>2026-05-03T16:16:15Z</time></trkpt><trkpt lat="45.258875581117486" lon="9.472877810388136"><ele>70.0</ele><time>2026-05-03T16:16:16Z</time></trkpt><trkpt lat="45.25908764310536" lon="9.472601350566244"><ele>69.0</ele><time>2026-05-03T16:16:17Z</time></trkpt><trkpt lat="45.25929957585272" lon="9.472317028349126"><ele>69.0</ele><time>2026-05-03T16:16:18Z</time></trkpt><trkpt lat="45.25951447802653" lon="9.472041437898078"><ele>69.0</ele><time>2026-05-03T16:16:19Z</time></trkpt><trkpt lat="45.259724133439775" lon="9.471770276016851"><ele>69.5</ele><time>2026-05-03T16:16:20Z</time></trkpt><trkpt lat="45.25993544707094" lon="9.47149567734851"><ele>70.0</ele><time>2026-05-03T16:16:21Z</time></trkpt><trkpt lat="45.26014379564682" lon="9.471217659454467"><ele>70.5</ele><time>2026-05-03T16:16:22Z</time></trkpt><trkpt lat="45.26034865018423" lon="9.47094254015515"><ele>71.0</ele><time>2026-05-03T16:16:23Z</time></trkpt><trkpt lat="45.26055586925228" lon="9.470665603420866"><ele>71.0</ele><time>2026-05-03T16:16:24Z</time></trkpt><trkpt lat="45.26076538431724" lon="9.470393751883227"><ele>71.0</ele><time>2026-05-03T16:16:25Z</time></trkpt><trkpt lat="45.26097750287342" lon="9.470118351570127"><ele>71.0</ele><time>2026-05-03T16:16:26Z</time></trkpt><trkpt lat="45.26118706548556" lon="9.469845140142835"><ele>71.0</ele><time>2026-05-03T16:16:27Z</time></trkpt><trkpt lat="45.26139786181505" lon="9.469566412306989"><ele>71.5</ele><time>2026-05-03T16:16:28Z</time></trkpt><trkpt lat="45.26160717280966" lon="9.469289353533416"><ele>72.0</ele><time>2026-05-03T16:16:29Z</time></trkpt><trkpt lat="45.26181754943032" lon="9.469007913403733"><ele>72.5</ele><time>2026-05-03T16:16:30Z</time></trkpt><trkpt lat="45.26203259302488" lon="9.468728887938246"><ele>73.0</ele><time>2026-05-03T16:16:31Z</time></trkpt><trkpt lat="45.262246796599555" lon="9.468448016914827"><ele>73.0</ele><time>2026-05-03T16:16:32Z</time></trkpt><trkpt lat="45.26246113629795" lon="9.46816579206892"><ele>73.0</ele><time>2026-05-03T16:16:33Z</time></trkpt><trkpt lat="45.26267464877915" lon="9.467882539515179"><ele>73.0</ele><time>2026-05-03T16:16:34Z</time></trkpt><trkpt lat="45.262886696446806" lon="9.467600163440268"><ele>73.0</ele><time>2026-05-03T16:16:35Z</time></trkpt><trkpt lat="45.26309972587181" lon="9.467318017165361"><ele>74.0</ele><time>2026-05-03T16:16:36Z</time></trkpt><trkpt lat="45.263313411318805" lon="9.46703455701766"><ele>75.0</ele><time>2026-05-03T16:16:37Z</time></trkpt><trkpt lat="45.26352721016029" lon="9.466752542044484"><ele>75.0</ele><time>2026-05-03T16:16:38Z</time></trkpt><trkpt lat="45.26374065309951" lon="9.466470002692205"><ele>75.0</ele><time>2026-05-03T16:16:39Z</time></trkpt><trkpt lat="45.2639554840229" lon="9.466190852785155"><ele>73.5</ele><time>2026-05-03T16:16:40Z</time></trkpt><trkpt lat="45.264173768684515" lon="9.465908302932625"><ele>72.0</ele><time>2026-05-03T16:16:41Z</time></trkpt><trkpt lat="45.26439034798041" lon="9.465626225708263"><ele>72.0</ele><time>2026-05-03T16:16:42Z</time></trkpt><trkpt lat="45.26460469708989" lon="9.465344500400166"><ele>72.0</ele><time>2026-05-03T16:16:42.999Z</time></trkpt><trkpt lat="45.26481995580743" lon="9.465061672857237"><ele>71.5</ele><time>2026-05-03T16:16:43.999Z</time></trkpt><trkpt lat="45.26503468953943" lon="9.46477744047464"><ele>71.0</ele><time>2026-05-03T16:16:44.999Z</time></trkpt><trkpt lat="45.2652492432455" lon="9.464494771970113"><ele>71.5</ele><time>2026-05-03T16:16:45.999Z</time></trkpt><trkpt lat="45.26546412843857" lon="9.464210422737315"><ele>72.0</ele><time>2026-05-03T16:16:46.999Z</time></trkpt><trkpt lat="45.26568042791662" lon="9.463921427940017"><ele>72.0</ele><time>2026-05-03T16:16:47.999Z</time></trkpt><trkpt lat="45.26589622507649" lon="9.463635095518985"><ele>72.0</ele><time>2026-05-03T16:16:48.999Z</time></trkpt><trkpt lat="45.26611041062487" lon="9.463350265154782"><ele>72.0</ele><time>2026-05-03T16:16:49.999Z</time></trkpt><trkpt lat="45.266325018477936" lon="9.46306860477998"><ele>72.0</ele><time>2026-05-03T16:16:50.999Z</time></trkpt><trkpt lat="45.26654050033737" lon="9.462781046913403"><ele>72.5</ele><time>2026-05-03T16:16:51.999Z</time></trkpt><trkpt lat="45.26675341263397" lon="9.462493948769973"><ele>73.0</ele><time>2026-05-03T16:16:52.999Z</time></trkpt><trkpt lat="45.266965250114566" lon="9.46221222931417"><ele>73.0</ele><time>2026-05-03T16:16:53.999Z</time></trkpt><trkpt lat="45.26717895629685" lon="9.461928312731228"><ele>73.0</ele><time>2026-05-03T16:16:54.999Z</time></trkpt><trkpt lat="45.267392883833175" lon="9.461646004718698"><ele>73.0</ele><time>2026-05-03T16:16:55.999Z</time></trkpt><trkpt lat="45.267605510386346" lon="9.461363158882977"><ele>73.0</ele><time>2026-05-03T16:16:56.999Z</time></trkpt><trkpt lat="45.2678165487715" lon="9.461081999956031"><ele>73.0</ele><time>2026-05-03T16:16:57.999Z</time></trkpt><trkpt lat="45.26802983944588" lon="9.460796340709189"><ele>73.0</ele><time>2026-05-03T16:16:58.999Z</time></trkpt><trkpt lat="45.26823940186498" lon="9.460518047628051"><ele>73.5</ele><time>2026-05-03T16:16:59.999Z</time></trkpt><trkpt lat="45.26845199036348" lon="9.460232096571488"><ele>74.0</ele><time>2026-05-03T16:17:00.999Z</time></trkpt><trkpt lat="45.26866217027608" lon="9.45994516738225"><ele>74.0</ele><time>2026-05-03T16:17:01.999Z</time></trkpt><trkpt lat="45.26887194947389" lon="9.459654721574914"><ele>74.0</ele><time>2026-05-03T16:17:02.999Z</time></trkpt><trkpt lat="45.26908018233378" lon="9.4593665496738"><ele>73.0</ele><time>2026-05-03T16:17:03.999Z</time></trkpt><trkpt lat="45.269286186450955" lon="9.459079330830505"><ele>72.0</ele><time>2026-05-03T16:17:04.999Z</time></trkpt><trkpt lat="45.26949139694596" lon="9.458786396321617"><ele>72.0</ele><time>2026-05-03T16:17:05.999Z</time></trkpt><trkpt lat="45.26969725741" lon="9.458496333428261"><ele>72.0</ele><time>2026-05-03T16:17:06.999Z</time></trkpt><trkpt lat="45.26990068016865" lon="9.458203509910158"><ele>73.5</ele><time>2026-05-03T16:17:07.999Z</time></trkpt><trkpt lat="45.270103132664694" lon="9.457914145156892"><ele>75.0</ele><time>2026-05-03T16:17:08.999Z</time></trkpt><trkpt lat="45.270305562132144" lon="9.457621785939313"><ele>75.0</ele><time>2026-05-03T16:17:09.999Z</time></trkpt><trkpt lat="45.27050731296233" lon="9.457328358609626"><ele>75.0</ele><time>2026-05-03T16:17:10.999Z</time></trkpt><trkpt lat="45.27071242680359" lon="9.457031973401598"><ele>74.0</ele><time>2026-05-03T16:17:11.999Z</time></trkpt><trkpt lat="45.270911687431465" lon="9.456734837008192"><ele>73.0</ele><time>2026-05-03T16:17:12.999Z</time></trkpt><trkpt lat="45.27111091410583" lon="9.456432912508419"><ele>73.0</ele><time>2026-05-03T16:17:13.999Z</time></trkpt><trkpt lat="45.271308951543276" lon="9.456138298966206"><ele>73.0</ele><time>2026-05-03T16:17:14.999Z</time></trkpt><trkpt lat="45.27150645287002" lon="9.455836787821084"><ele>73.0</ele><time>2026-05-03T16:17:15.999Z</time></trkpt><trkpt lat="45.271702296927984" lon="9.455534531643208"><ele>73.0</ele><time>2026-05-03T16:17:16.999Z</time></trkpt><trkpt lat="45.2718980729945" lon="9.455230067814183"><ele>73.5</ele><time>2026-05-03T16:17:17.999Z</time></trkpt><trkpt lat="45.27208955932424" lon="9.454926500892745"><ele>74.0</ele><time>2026-05-03T16:17:18.999Z</time></trkpt><trkpt lat="45.27228330257185" lon="9.454621568573508"><ele>73.5</ele><time>2026-05-03T16:17:19.999Z</time></trkpt><trkpt lat="45.27247646481773" lon="9.454311493978034"><ele>73.0</ele><time>2026-05-03T16:17:20.999Z</time></trkpt><trkpt lat="45.272666151801815" lon="9.454002122714714"><ele>74.0</ele><time>2026-05-03T16:17:21.999Z</time></trkpt><trkpt lat="45.27285791627825" lon="9.453685585481287"><ele>75.0</ele><time>2026-05-03T16:17:22.999Z</time></trkpt><trkpt lat="45.27304812846156" lon="9.453374727575754"><ele>75.0</ele><time>2026-05-03T16:17:23.999Z</time></trkpt><trkpt lat="45.27323674764423" lon="9.453070222109504"><ele>75.0</ele><time>2026-05-03T16:17:24.999Z</time></trkpt><trkpt lat="45.27342829269411" lon="9.452764899209383"><ele>74.5</ele><time>2026-05-03T16:17:25.999Z</time></trkpt><trkpt lat="45.27361656138023" lon="9.452466549210842"><ele>74.0</ele><time>2026-05-03T16:17:26.999Z</time></trkpt><trkpt lat="45.273809093442104" lon="9.452160923202184"><ele>74.5</ele><time>2026-05-03T16:17:27.999Z</time></trkpt><trkpt lat="45.27399437895615" lon="9.451853519661372"><ele>75.0</ele><time>2026-05-03T16:17:28.999Z</time></trkpt><trkpt lat="45.27417977895896" lon="9.451540082850544"><ele>75.0</ele><time>2026-05-03T16:17:29.999Z</time></trkpt><trkpt lat="45.27436450602788" lon="9.451226569503968"><ele>75.0</ele><time>2026-05-03T16:17:30.999Z</time></trkpt><trkpt lat="45.27455146523263" lon="9.45090705418024"><ele>75.0</ele><time>2026-05-03T16:17:31.999Z</time></trkpt><trkpt lat="45.27473910965747" lon="9.450581677840738"><ele>75.0</ele><time>2026-05-03T16:17:32.999Z</time></trkpt><trkpt lat="45.27492357193223" lon="9.450259251732842"><ele>75.0</ele><time>2026-05-03T16:17:33.999Z</time></trkpt><trkpt lat="45.27510533067504" lon="9.449938577708744"><ele>75.0</ele><time>2026-05-03T16:17:34.999Z</time></trkpt><trkpt lat="45.275298227533604" lon="9.449612046277432"><ele>75.0</ele><time>2026-05-03T16:17:35.999Z</time></trkpt><trkpt lat="45.27548596609691" lon="9.449291870104007"><ele>75.0</ele><time>2026-05-03T16:17:36.999Z</time></trkpt><trkpt lat="45.27567735382973" lon="9.448972515807554"><ele>76.5</ele><time>2026-05-03T16:17:37.999Z</time></trkpt><trkpt lat="45.27586654289616" lon="9.448659263316143"><ele>78.0</ele><time>2026-05-03T16:17:38.999Z</time></trkpt><trkpt lat="45.27605291395288" lon="9.44834620890747"><ele>78.0</ele><time>2026-05-03T16:17:39.999Z</time></trkpt><trkpt lat="45.27623927726088" lon="9.448030660567028"><ele>78.0</ele><time>2026-05-03T16:17:40.999Z</time></trkpt><trkpt lat="45.27643067323992" lon="9.447713846328199"><ele>76.0</ele><time>2026-05-03T16:17:41.999Z</time></trkpt><trkpt lat="45.27662382951903" lon="9.447395008866064"><ele>74.0</ele><time>2026-05-03T16:17:42.999Z</time></trkpt><trkpt lat="45.27681828781947" lon="9.447076019539777"><ele>74.0</ele><time>2026-05-03T16:17:43.999Z</time></trkpt><trkpt lat="45.27700733318118" lon="9.446753819353981"><ele>74.0</ele><time>2026-05-03T16:17:44.999Z</time></trkpt><trkpt lat="45.2771976978852" lon="9.44643201671247"><ele>73.5</ele><time>2026-05-03T16:17:45.999Z</time></trkpt><trkpt lat="45.27739029557174" lon="9.446110412622522"><ele>73.0</ele><time>2026-05-03T16:17:46.999Z</time></trkpt><trkpt lat="45.27758239406902" lon="9.445791311177496"><ele>73.0</ele><time>2026-05-03T16:17:47.999Z</time></trkpt><trkpt lat="45.277778949684944" lon="9.445469314901523"><ele>73.0</ele><time>2026-05-03T16:17:48.999Z</time></trkpt><trkpt lat="45.27798200681873" lon="9.44514589315376"><ele>73.0</ele><time>2026-05-03T16:17:49.999Z</time></trkpt><trkpt lat="45.27818430681325" lon="9.444825799587212"><ele>73.0</ele><time>2026-05-03T16:17:51Z</time></trkpt><trkpt lat="45.27838698570972" lon="9.444504786013498"><ele>73.5</ele><time>2026-05-03T16:17:52Z</time></trkpt><trkpt lat="45.27859464513824" lon="9.44417963332182"><ele>74.0</ele><time>2026-05-03T16:17:53Z</time></trkpt><trkpt lat="45.27879890740109" lon="9.443845917847385"><ele>73.5</ele><time>2026-05-03T16:17:54Z</time></trkpt><trkpt lat="45.2790042565345" lon="9.443525834833475"><ele>73.0</ele><time>2026-05-03T16:17:55Z</time></trkpt><trkpt lat="45.279204638534665" lon="9.443198756655544"><ele>73.0</ele><time>2026-05-03T16:17:56Z</time></trkpt><trkpt lat="45.279404267678665" lon="9.442868148476727"><ele>73.0</ele><time>2026-05-03T16:17:57Z</time></trkpt><trkpt lat="45.27960549109416" lon="9.442539102883508"><ele>73.0</ele><time>2026-05-03T16:17:58Z</time></trkpt><trkpt lat="45.279808731303945" lon="9.442211331281069"><ele>73.0</ele><time>2026-05-03T16:17:59Z</time></trkpt><trkpt lat="45.28001722615997" lon="9.441884226987797"><ele>73.0</ele><time>2026-05-03T16:18:00Z</time></trkpt><trkpt lat="45.280220131678725" lon="9.441557210886632"><ele>73.0</ele><time>2026-05-03T16:18:01Z</time></trkpt><trkpt lat="45.280423488877155" lon="9.44122740454674"><ele>73.0</ele><time>2026-05-03T16:18:02Z</time></trkpt><trkpt lat="45.28062654141593" lon="9.440891696576266"><ele>73.0</ele><time>2026-05-03T16:18:03Z</time></trkpt><trkpt lat="45.28082598336526" lon="9.440558074161583"><ele>73.0</ele><time>2026-05-03T16:18:04Z</time></trkpt><trkpt lat="45.28102642760769" lon="9.440221805246265"><ele>73.0</ele><time>2026-05-03T16:18:05Z</time></trkpt><trkpt lat="45.28122629620918" lon="9.439881787208298"><ele>73.0</ele><time>2026-05-03T16:18:06Z</time></trkpt><trkpt lat="45.28142837984933" lon="9.439542301077603"><ele>73.0</ele><time>2026-05-03T16:18:07Z</time></trkpt><trkpt lat="45.28162841363586" lon="9.439206715098027"><ele>73.0</ele><time>2026-05-03T16:18:08Z</time></trkpt><trkpt lat="45.28182966806983" lon="9.438862205538838"><ele>73.0</ele><time>2026-05-03T16:18:09Z</time></trkpt><trkpt lat="45.28202779907544" lon="9.438527516905873"><ele>73.0</ele><time>2026-05-03T16:18:10Z</time></trkpt><trkpt lat="45.2822260379588" lon="9.438190776776333"><ele>73.0</ele><time>2026-05-03T16:18:11Z</time></trkpt><trkpt lat="45.28242514174198" lon="9.43785744758133"><ele>73.5</ele><time>2026-05-03T16:18:12Z</time></trkpt><trkpt lat="45.28262560132586" lon="9.437521797213332"><ele>74.0</ele><time>2026-05-03T16:18:13Z</time></trkpt><trkpt lat="45.282823434510085" lon="9.437186763851845"><ele>74.0</ele><time>2026-05-03T16:18:14Z</time></trkpt><trkpt lat="45.28302225688283" lon="9.43685318370465"><ele>74.0</ele><time>2026-05-03T16:18:15Z</time></trkpt><trkpt lat="45.28322428584578" lon="9.436515099605176"><ele>74.5</ele><time>2026-05-03T16:18:16Z</time></trkpt><trkpt lat="45.283424250559655" lon="9.436180650577553"><ele>75.0</ele><time>2026-05-03T16:18:17Z</time></trkpt><trkpt lat="45.28362301603224" lon="9.435846272342072"><ele>75.0</ele><time>2026-05-03T16:18:18Z</time></trkpt><trkpt lat="45.28382584265157" lon="9.435511978531789"><ele>75.0</ele><time>2026-05-03T16:18:19Z</time></trkpt><trkpt lat="45.28402538048377" lon="9.435177844912856"><ele>74.5</ele><time>2026-05-03T16:18:20Z</time></trkpt><trkpt lat="45.284224751831744" lon="9.43484115554458"><ele>74.0</ele><time>2026-05-03T16:18:21Z</time></trkpt><trkpt lat="45.28442498311443" lon="9.434507815031115"><ele>74.0</ele><time>2026-05-03T16:18:22Z</time></trkpt><trkpt lat="45.284623882440414" lon="9.434171741635014"><ele>74.0</ele><time>2026-05-03T16:18:23Z</time></trkpt><trkpt lat="45.284821875710335" lon="9.433841004330956"><ele>75.0</ele><time>2026-05-03T16:18:24Z</time></trkpt><trkpt lat="45.285026230630876" lon="9.433511312078378"><ele>76.0</ele><time>2026-05-03T16:18:25Z</time></trkpt><trkpt lat="45.285226654723026" lon="9.433183655744132"><ele>76.0</ele><time>2026-05-03T16:18:26Z</time></trkpt><trkpt lat="45.285425251826204" lon="9.432851693236762"><ele>76.0</ele><time>2026-05-03T16:18:27Z</time></trkpt><trkpt lat="45.28562539073874" lon="9.432517623159928"><ele>76.0</ele><time>2026-05-03T16:18:28Z</time></trkpt><trkpt lat="45.28582692352699" lon="9.432190053287552"><ele>76.0</ele><time>2026-05-03T16:18:29Z</time></trkpt><trkpt lat="45.28602462216804" lon="9.431855994462927"><ele>75.5</ele><time>2026-05-03T16:18:30Z</time></trkpt><trkpt lat="45.28622232778071" lon="9.431525434054437"><ele>75.0</ele><time>2026-05-03T16:18:31Z</time></trkpt><trkpt lat="45.28641960272763" lon="9.431190346159863"><ele>74.5</ele><time>2026-05-03T16:18:32Z</time></trkpt><trkpt lat="45.28661206334467" lon="9.430853976615321"><ele>74.0</ele><time>2026-05-03T16:18:33Z</time></trkpt><trkpt lat="45.28680741731631" lon="9.430509122457815"><ele>75.5</ele><time>2026-05-03T16:18:34Z</time></trkpt><trkpt lat="45.287000674470264" lon="9.430162864376515"><ele>77.0</ele><time>2026-05-03T16:18:35Z</time></trkpt><trkpt lat="45.287197475352485" lon="9.429811622221026"><ele>78.5</ele><time>2026-05-03T16:18:36Z</time></trkpt><trkpt lat="45.28739105855756" lon="9.429462320039121"><ele>80.0</ele><time>2026-05-03T16:18:37Z</time></trkpt><trkpt lat="45.28758890387277" lon="9.429110848236956"><ele>79.0</ele><time>2026-05-03T16:18:38Z</time></trkpt><trkpt lat="45.28778606528509" lon="9.428765695641014"><ele>78.0</ele><time>2026-05-03T16:18:39Z</time></trkpt><trkpt lat="45.28798107081978" lon="9.428415498625238"><ele>77.5</ele><time>2026-05-03T16:18:40Z</time></trkpt><trkpt lat="45.28817636198918" lon="9.428067161795898"><ele>77.0</ele><time>2026-05-03T16:18:40.999Z</time></trkpt><trkpt lat="45.28837290943255" lon="9.427715250132746"><ele>77.0</ele><time>2026-05-03T16:18:41.999Z</time></trkpt><trkpt lat="45.288567376214154" lon="9.42736865264437"><ele>77.0</ele><time>2026-05-03T16:18:42.999Z</time></trkpt><trkpt lat="45.288761699003416" lon="9.427020070882909"><ele>76.5</ele><time>2026-05-03T16:18:43.999Z</time></trkpt><trkpt lat="45.28895365306122" lon="9.426674087698387"><ele>76.0</ele><time>2026-05-03T16:18:44.999Z</time></trkpt><trkpt lat="45.289149269731894" lon="9.426320713416775"><ele>76.5</ele><time>2026-05-03T16:18:45.999Z</time></trkpt><trkpt lat="45.28934071973425" lon="9.425975369063524"><ele>77.0</ele><time>2026-05-03T16:18:46.999Z</time></trkpt><trkpt lat="45.28953365002621" lon="9.425628881604133"><ele>76.5</ele><time>2026-05-03T16:18:47.999Z</time></trkpt><trkpt lat="45.289729649970745" lon="9.425282281415358"><ele>76.0</ele><time>2026-05-03T16:18:48.999Z</time></trkpt><trkpt lat="45.28992538679695" lon="9.424933280609812"><ele>76.0</ele><time>2026-05-03T16:18:49.999Z</time></trkpt><trkpt lat="45.290118675179365" lon="9.424588011386794"><ele>76.0</ele><time>2026-05-03T16:18:50.999Z</time></trkpt><trkpt lat="45.29031207661299" lon="9.424241577441679"><ele>76.0</ele><time>2026-05-03T16:18:51.999Z</time></trkpt><trkpt lat="45.290505042629654" lon="9.423895351551662"><ele>76.0</ele><time>2026-05-03T16:18:52.999Z</time></trkpt><trkpt lat="45.29069802514074" lon="9.423547054580707"><ele>76.0</ele><time>2026-05-03T16:18:53.999Z</time></trkpt><trkpt lat="45.29089610009495" lon="9.423195442359862"><ele>76.0</ele><time>2026-05-03T16:18:54.999Z</time></trkpt><trkpt lat="45.29109268968696" lon="9.422845719205581"><ele>76.0</ele><time>2026-05-03T16:18:55.999Z</time></trkpt><trkpt lat="45.29128957526952" lon="9.422497687149122"><ele>76.0</ele><time>2026-05-03T16:18:56.999Z</time></trkpt><trkpt lat="45.291486355248956" lon="9.422144338086683"><ele>76.0</ele><time>2026-05-03T16:18:57.999Z</time></trkpt><trkpt lat="45.29168448260662" lon="9.421789204732052"><ele>76.0</ele><time>2026-05-03T16:18:58.999Z</time></trkpt><trkpt lat="45.29188326519681" lon="9.421432966621667"><ele>76.0</ele><time>2026-05-03T16:18:59.999Z</time></trkpt><trkpt lat="45.29208091425107" lon="9.421076951891745"><ele>76.0</ele><time>2026-05-03T16:19:00.999Z</time></trkpt><trkpt lat="45.29227937087255" lon="9.420715750060241"><ele>75.5</ele><time>2026-05-03T16:19:01.999Z</time></trkpt><trkpt lat="45.29247902228969" lon="9.420354430572443"><ele>75.0</ele><time>2026-05-03T16:19:02.999Z</time></trkpt><trkpt lat="45.292679309197915" lon="9.419996538984508"><ele>75.0</ele><time>2026-05-03T16:19:03.999Z</time></trkpt><trkpt lat="45.292879509096046" lon="9.419637565834856"><ele>75.0</ele><time>2026-05-03T16:19:04.999Z</time></trkpt><trkpt lat="45.293080632356954" lon="9.419282703529248"><ele>75.0</ele><time>2026-05-03T16:19:05.999Z</time></trkpt><trkpt lat="45.29328280173647" lon="9.418929833164947"><ele>75.0</ele><time>2026-05-03T16:19:06.999Z</time></trkpt><trkpt lat="45.293485212724626" lon="9.418580288554406"><ele>75.0</ele><time>2026-05-03T16:19:07.999Z</time></trkpt><trkpt lat="45.29368955913598" lon="9.418232749041604"><ele>75.0</ele><time>2026-05-03T16:19:08.999Z</time></trkpt><trkpt lat="45.29389292466079" lon="9.417885718824692"><ele>76.0</ele><time>2026-05-03T16:19:09.999Z</time></trkpt><trkpt lat="45.29409181835506" lon="9.417541780933696"><ele>77.0</ele><time>2026-05-03T16:19:10.999Z</time></trkpt><trkpt lat="45.29429003110319" lon="9.41720484319121"><ele>76.5</ele><time>2026-05-03T16:19:11.999Z</time></trkpt><trkpt lat="45.29448763853899" lon="9.416869293523128"><ele>76.0</ele><time>2026-05-03T16:19:12.999Z</time></trkpt><trkpt lat="45.29468614140701" lon="9.416538182498764"><ele>76.5</ele><time>2026-05-03T16:19:13.999Z</time></trkpt><trkpt lat="45.294885862878395" lon="9.416207052326083"><ele>77.0</ele><time>2026-05-03T16:19:14.999Z</time></trkpt><trkpt lat="45.29508660437474" lon="9.41587435834374"><ele>77.0</ele><time>2026-05-03T16:19:15.999Z</time></trkpt><trkpt lat="45.29528482356358" lon="9.415544135931208"><ele>77.0</ele><time>2026-05-03T16:19:16.999Z</time></trkpt><trkpt lat="45.295484155229865" lon="9.415213833899527"><ele>77.5</ele><time>2026-05-03T16:19:17.999Z</time></trkpt><trkpt lat="45.295685437366274" lon="9.414884473945898"><ele>78.0</ele><time>2026-05-03T16:19:18.999Z</time></trkpt><trkpt lat="45.295887967216935" lon="9.414557418374727"><ele>77.0</ele><time>2026-05-03T16:19:19.999Z</time></trkpt><trkpt lat="45.2960904832556" lon="9.414238326240858"><ele>76.0</ele><time>2026-05-03T16:19:20.999Z</time></trkpt><trkpt lat="45.296297783289475" lon="9.41391579002978"><ele>77.0</ele><time>2026-05-03T16:19:21.999Z</time></trkpt><trkpt lat="45.29650309711038" lon="9.41359325382652"><ele>78.0</ele><time>2026-05-03T16:19:22.999Z</time></trkpt><trkpt lat="45.29671247872876" lon="9.413265800677802"><ele>78.5</ele><time>2026-05-03T16:19:23.999Z</time></trkpt><trkpt lat="45.2969031478836" lon="9.412955894672365"><ele>79.0</ele><time>2026-05-03T16:19:24.999Z</time></trkpt><trkpt lat="45.297089375018594" lon="9.412666602124832"><ele>79.0</ele><time>2026-05-03T16:19:25.999Z</time></trkpt><trkpt lat="45.29729150156495" lon="9.41235917938785"><ele>79.0</ele><time>2026-05-03T16:19:26.999Z</time></trkpt><trkpt lat="45.2974962451302" lon="9.412050804488166"><ele>78.0</ele><time>2026-05-03T16:19:27.999Z</time></trkpt><trkpt lat="45.29769931033997" lon="9.411744027847169"><ele>77.0</ele><time>2026-05-03T16:19:28.999Z</time></trkpt><trkpt lat="45.29790292474646" lon="9.41143686563541"><ele>78.0</ele><time>2026-05-03T16:19:29.999Z</time></trkpt><trkpt lat="45.29810748721995" lon="9.411129859421157"><ele>79.0</ele><time>2026-05-03T16:19:30.999Z</time></trkpt><trkpt lat="45.29831291363565" lon="9.410822596716221"><ele>79.0</ele><time>2026-05-03T16:19:31.999Z</time></trkpt><trkpt lat="45.298518665226595" lon="9.410515855984587"><ele>79.0</ele><time>2026-05-03T16:19:32.999Z</time></trkpt><trkpt lat="45.298727974293676" lon="9.410210691885904"><ele>78.5</ele><time>2026-05-03T16:19:33.999Z</time></trkpt><trkpt lat="45.29893683363363" lon="9.409906802909832"><ele>78.0</ele><time>2026-05-03T16:19:34.999Z</time></trkpt><trkpt lat="45.2991469203083" lon="9.40960252014326"><ele>78.0</ele><time>2026-05-03T16:19:35.999Z</time></trkpt><trkpt lat="45.29935884093995" lon="9.409299813772227"><ele>78.0</ele><time>2026-05-03T16:19:36.999Z</time></trkpt><trkpt lat="45.29957253752312" lon="9.408999212179468"><ele>79.0</ele><time>2026-05-03T16:19:37.999Z</time></trkpt><trkpt lat="45.29978594383643" lon="9.408700133076984"><ele>80.0</ele><time>2026-05-03T16:19:38.999Z</time></trkpt><trkpt lat="45.29999917636872" lon="9.408400906915375"><ele>80.0</ele><time>2026-05-03T16:19:39.999Z</time></trkpt><trkpt lat="45.300212420659506" lon="9.40809900249391"><ele>80.0</ele><time>2026-05-03T16:19:40.999Z</time></trkpt><trkpt lat="45.300424396542546" lon="9.407799533969358"><ele>80.0</ele><time>2026-05-03T16:19:41.999Z</time></trkpt><trkpt lat="45.300636754840355" lon="9.407503601511472"><ele>80.0</ele><time>2026-05-03T16:19:42.999Z</time></trkpt><trkpt lat="45.300849382005936" lon="9.407208548480588"><ele>80.0</ele><time>2026-05-03T16:19:43.999Z</time></trkpt><trkpt lat="45.30106216703894" lon="9.406913727963138"><ele>80.0</ele><time>2026-05-03T16:19:44.999Z</time></trkpt><trkpt lat="45.30127646103182" lon="9.406619260475633"><ele>79.5</ele><time>2026-05-03T16:19:45.999Z</time></trkpt><trkpt lat="45.30149082845206" lon="9.406324235010286"><ele>79.0</ele><time>2026-05-03T16:19:46.999Z</time></trkpt><trkpt lat="45.30170550523036" lon="9.406026023618011"><ele>79.0</ele><time>2026-05-03T16:19:47.999Z</time></trkpt><trkpt lat="45.30192078035359" lon="9.405728940671697"><ele>79.0</ele><time>2026-05-03T16:19:48.999Z</time></trkpt><trkpt lat="45.30213706617394" lon="9.405436325359425"><ele>79.5</ele><time>2026-05-03T16:19:49.999Z</time></trkpt><trkpt lat="45.30235207368469" lon="9.405141637475122"><ele>80.0</ele><time>2026-05-03T16:19:50.999Z</time></trkpt><trkpt lat="45.30256598339078" lon="9.404844063206678"><ele>79.5</ele><time>2026-05-03T16:19:51.999Z</time></trkpt><trkpt lat="45.30277951939381" lon="9.404548044849205"><ele>79.0</ele><time>2026-05-03T16:19:52.999Z</time></trkpt><trkpt lat="45.30299301322243" lon="9.404252248694274"><ele>79.0</ele><time>2026-05-03T16:19:53.999Z</time></trkpt><trkpt lat="45.303206927054205" lon="9.403953449023055"><ele>79.0</ele><time>2026-05-03T16:19:54.999Z</time></trkpt><trkpt lat="45.303419489351725" lon="9.403653679347185"><ele>79.0</ele><time>2026-05-03T16:19:56Z</time></trkpt><trkpt lat="45.30363303378316" lon="9.403353298055894"><ele>79.0</ele><time>2026-05-03T16:19:57Z</time></trkpt><trkpt lat="45.30384716760297" lon="9.403051850191872"><ele>79.0</ele><time>2026-05-03T16:19:58Z</time></trkpt><trkpt lat="45.30406180004394" lon="9.40275132798447"><ele>79.0</ele><time>2026-05-03T16:19:59Z</time></trkpt><trkpt lat="45.30427760899555" lon="9.402451297192762"><ele>80.0</ele><time>2026-05-03T16:20:00Z</time></trkpt><trkpt lat="45.3044933239825" lon="9.402154129849274"><ele>81.0</ele><time>2026-05-03T16:20:01Z</time></trkpt><trkpt lat="45.30470800919276" lon="9.401854451862079"><ele>81.0</ele><time>2026-05-03T16:20:02Z</time></trkpt><trkpt lat="45.30491942729937" lon="9.401549129521552"><ele>81.0</ele><time>2026-05-03T16:20:03Z</time></trkpt><trkpt lat="45.30512519212745" lon="9.401237475413994"><ele>81.0</ele><time>2026-05-03T16:20:04Z</time></trkpt><trkpt lat="45.30532873691176" lon="9.400924528101468"><ele>81.0</ele><time>2026-05-03T16:20:05Z</time></trkpt><trkpt lat="45.305531686526415" lon="9.400612456473663"><ele>81.0</ele><time>2026-05-03T16:20:06Z</time></trkpt><trkpt lat="45.30573548180411" lon="9.400297941475321"><ele>81.0</ele><time>2026-05-03T16:20:07Z</time></trkpt><trkpt lat="45.305939965074245" lon="9.399983804291073"><ele>81.0</ele><time>2026-05-03T16:20:08Z</time></trkpt><trkpt lat="45.30614407541328" lon="9.39966821190337"><ele>81.0</ele><time>2026-05-03T16:20:09Z</time></trkpt><trkpt lat="45.30634860399183" lon="9.399353699472094"><ele>81.5</ele><time>2026-05-03T16:20:10Z</time></trkpt><trkpt lat="45.306554528868396" lon="9.399040160118979"><ele>82.0</ele><time>2026-05-03T16:20:11Z</time></trkpt><trkpt lat="45.30676120064577" lon="9.398725903659503"><ele>82.0</ele><time>2026-05-03T16:20:12Z</time></trkpt><trkpt lat="45.306969157918594" lon="9.398409917307543"><ele>82.0</ele><time>2026-05-03T16:20:13Z</time></trkpt><trkpt lat="45.30717591225525" lon="9.398093712588093"><ele>81.0</ele><time>2026-05-03T16:20:14Z</time></trkpt><trkpt lat="45.30738146118028" lon="9.397779070115075"><ele>80.0</ele><time>2026-05-03T16:20:15Z</time></trkpt><trkpt lat="45.30758754840069" lon="9.397465308486412"><ele>80.0</ele><time>2026-05-03T16:20:16Z</time></trkpt><trkpt lat="45.30779561662877" lon="9.397150171586008"><ele>80.0</ele><time>2026-05-03T16:20:17Z</time></trkpt><trkpt lat="45.30800447995702" lon="9.39683193627572"><ele>80.5</ele><time>2026-05-03T16:20:18Z</time></trkpt><trkpt lat="45.308211032273825" lon="9.39651399627574"><ele>81.0</ele><time>2026-05-03T16:20:19Z</time></trkpt><trkpt lat="45.30841548479894" lon="9.396196815752878"><ele>81.0</ele><time>2026-05-03T16:20:20Z</time></trkpt><trkpt lat="45.30861784107005" lon="9.39588242371572"><ele>81.0</ele><time>2026-05-03T16:20:21Z</time></trkpt><trkpt lat="45.30881960550851" lon="9.395569021288026"><ele>80.5</ele><time>2026-05-03T16:20:22Z</time></trkpt><trkpt lat="45.30902060698138" lon="9.3952587689569"><ele>80.0</ele><time>2026-05-03T16:20:23Z</time></trkpt><trkpt lat="45.309223365994114" lon="9.394948339240438"><ele>80.5</ele><time>2026-05-03T16:20:24Z</time></trkpt><trkpt lat="45.30942381243224" lon="9.394637240980288"><ele>81.0</ele><time>2026-05-03T16:20:25Z</time></trkpt><trkpt lat="45.309624337745035" lon="9.394328287513634"><ele>81.0</ele><time>2026-05-03T16:20:26Z</time></trkpt><trkpt lat="45.309826854924765" lon="9.394019668077554"><ele>81.0</ele><time>2026-05-03T16:20:27Z</time></trkpt><trkpt lat="45.31002872130596" lon="9.393712313010559"><ele>81.0</ele><time>2026-05-03T16:20:28Z</time></trkpt><trkpt lat="45.31023117349589" lon="9.393402712077592"><ele>81.0</ele><time>2026-05-03T16:20:29Z</time></trkpt><trkpt lat="45.31043331178029" lon="9.393093097019719"><ele>81.0</ele><time>2026-05-03T16:20:30Z</time></trkpt><trkpt lat="45.310633883131" lon="9.392783205518421"><ele>81.0</ele><time>2026-05-03T16:20:31Z</time></trkpt><trkpt lat="45.31083464269823" lon="9.392472970604107"><ele>80.5</ele><time>2026-05-03T16:20:32Z</time></trkpt><trkpt lat="45.3110341062735" lon="9.39216357770108"><ele>80.0</ele><time>2026-05-03T16:20:33Z</time></trkpt><trkpt lat="45.31123561878541" lon="9.391854275517657"><ele>80.0</ele><time>2026-05-03T16:20:34Z</time></trkpt><trkpt lat="45.31143705068819" lon="9.391547522030883"><ele>80.0</ele><time>2026-05-03T16:20:35Z</time></trkpt><trkpt lat="45.311636405580394" lon="9.39124207527713"><ele>80.0</ele><time>2026-05-03T16:20:35.999Z</time></trkpt><trkpt lat="45.31183378699795" lon="9.390935626824186"><ele>80.0</ele><time>2026-05-03T16:20:36.999Z</time></trkpt><trkpt lat="45.312029620091735" lon="9.390633470541776"><ele>80.0</ele><time>2026-05-03T16:20:37.999Z</time></trkpt><trkpt lat="45.312227281358226" lon="9.390336667687976"><ele>80.0</ele><time>2026-05-03T16:20:38.999Z</time></trkpt><trkpt lat="45.31242295630979" lon="9.390040485346098"><ele>80.0</ele><time>2026-05-03T16:20:39.999Z</time></trkpt><trkpt lat="45.31261731863483" lon="9.38974104641771"><ele>80.0</ele><time>2026-05-03T16:20:40.999Z</time></trkpt><trkpt lat="45.31280953574212" lon="9.389443391009996"><ele>80.0</ele><time>2026-05-03T16:20:41.999Z</time></trkpt><trkpt lat="45.31300183452751" lon="9.389147383308186"><ele>80.0</ele><time>2026-05-03T16:20:42.999Z</time></trkpt><trkpt lat="45.31319466209137" lon="9.38885386794543"><ele>81.0</ele><time>2026-05-03T16:20:43.999Z</time></trkpt><trkpt lat="45.3133859859573" lon="9.388561314270582"><ele>82.0</ele><time>2026-05-03T16:20:44.999Z</time></trkpt><trkpt lat="45.313577811883356" lon="9.38826756157152"><ele>81.5</ele><time>2026-05-03T16:20:45.999Z</time></trkpt><trkpt lat="45.31376896955332" lon="9.38797377307903"><ele>81.0</ele><time>2026-05-03T16:20:46.999Z</time></trkpt><trkpt lat="45.31396008911329" lon="9.387681356917941"><ele>81.0</ele><time>2026-05-03T16:20:47.999Z</time></trkpt><trkpt lat="45.3141518656405" lon="9.387387092717653"><ele>81.0</ele><time>2026-05-03T16:20:48.999Z</time></trkpt><trkpt lat="45.31434239510402" lon="9.387093976232544"><ele>82.0</ele><time>2026-05-03T16:20:49.999Z</time></trkpt><trkpt lat="45.31453397583646" lon="9.386801248541461"><ele>83.0</ele><time>2026-05-03T16:20:50.999Z</time></trkpt><trkpt lat="45.31472623231694" lon="9.38650792524748"><ele>81.5</ele><time>2026-05-03T16:20:51.999Z</time></trkpt><trkpt lat="45.314918647239416" lon="9.38621433953656"><ele>80.0</ele><time>2026-05-03T16:20:52.999Z</time></trkpt><trkpt lat="45.315111421600136" lon="9.385918882197624"><ele>80.0</ele><time>2026-05-03T16:20:53.999Z</time></trkpt><trkpt lat="45.315304252659814" lon="9.385625837579918"><ele>80.0</ele><time>2026-05-03T16:20:54.999Z</time></trkpt><trkpt lat="45.31549709158933" lon="9.385332673149069"><ele>80.5</ele><time>2026-05-03T16:20:55.999Z</time></trkpt><trkpt lat="45.31569001556048" lon="9.385039661127188"><ele>81.0</ele><time>2026-05-03T16:20:56.999Z</time></trkpt><trkpt lat="45.315883850785326" lon="9.3847471579466"><ele>81.0</ele><time>2026-05-03T16:20:57.999Z</time></trkpt><trkpt lat="45.316076177848586" lon="9.384454992418615"><ele>81.0</ele><time>2026-05-03T16:20:58.999Z</time></trkpt><trkpt lat="45.31626550748436" lon="9.384164735096489"><ele>81.5</ele><time>2026-05-03T16:20:59.999Z</time></trkpt><trkpt lat="45.31645478863528" lon="9.383876958770939"><ele>82.0</ele><time>2026-05-03T16:21:00.999Z</time></trkpt><trkpt lat="45.31664204154318" lon="9.383581264623475"><ele>82.0</ele><time>2026-05-03T16:21:01.999Z</time></trkpt><trkpt lat="45.31683159596898" lon="9.383284958533222"><ele>82.0</ele><time>2026-05-03T16:21:02.999Z</time></trkpt><trkpt lat="45.31702340993771" lon="9.382990550051394"><ele>82.0</ele><time>2026-05-03T16:21:03.999Z</time></trkpt><trkpt lat="45.31721754236998" lon="9.382695551991397"><ele>82.0</ele><time>2026-05-03T16:21:04.999Z</time></trkpt><trkpt lat="45.31741280985543" lon="9.382398429800453"><ele>82.0</ele><time>2026-05-03T16:21:05.999Z</time></trkpt><trkpt lat="45.31760720924687" lon="9.382102691804139"><ele>82.0</ele><time>2026-05-03T16:21:06.999Z</time></trkpt><trkpt lat="45.31780371451452" lon="9.381805613976171"><ele>82.0</ele><time>2026-05-03T16:21:07.999Z</time></trkpt><trkpt lat="45.31799814561476" lon="9.38150831259898"><ele>82.0</ele><time>2026-05-03T16:21:08.999Z</time></trkpt><trkpt lat="45.31819121124304" lon="9.381212361583659"><ele>82.5</ele><time>2026-05-03T16:21:09.999Z</time></trkpt><trkpt lat="45.31838603469512" lon="9.380913964972562"><ele>83.0</ele><time>2026-05-03T16:21:10.999Z</time></trkpt><trkpt lat="45.31858086997456" lon="9.380617534810801"><ele>82.5</ele><time>2026-05-03T16:21:11.999Z</time></trkpt><trkpt lat="45.31877652436309" lon="9.380319177014842"><ele>82.0</ele><time>2026-05-03T16:21:12.999Z</time></trkpt><trkpt lat="45.318969802928144" lon="9.380019460023387"><ele>83.0</ele><time>2026-05-03T16:21:13.999Z</time></trkpt><trkpt lat="45.31916358619667" lon="9.379721702186295"><ele>84.0</ele><time>2026-05-03T16:21:14.999Z</time></trkpt><trkpt lat="45.31934825146716" lon="9.379432983977795"><ele>84.0</ele><time>2026-05-03T16:21:15.999Z</time></trkpt><trkpt lat="45.31953273067416" lon="9.379142642324677"><ele>84.0</ele><time>2026-05-03T16:21:16.999Z</time></trkpt><trkpt lat="45.31971539512379" lon="9.37885612929806"><ele>84.0</ele><time>2026-05-03T16:21:17.999Z</time></trkpt><trkpt lat="45.31989750818496" lon="9.378566910371646"><ele>84.0</ele><time>2026-05-03T16:21:18.999Z</time></trkpt><trkpt lat="45.32007924791537" lon="9.378273262616435"><ele>85.0</ele><time>2026-05-03T16:21:19.999Z</time></trkpt><trkpt lat="45.32026211804336" lon="9.377978998546688"><ele>86.0</ele><time>2026-05-03T16:21:20.999Z</time></trkpt><trkpt lat="45.32044662527666" lon="9.377686917161896"><ele>85.5</ele><time>2026-05-03T16:21:21.999Z</time></trkpt><trkpt lat="45.32063398077352" lon="9.377396444050305"><ele>85.0</ele><time>2026-05-03T16:21:22.999Z</time></trkpt><trkpt lat="45.320822683528995" lon="9.377106665652493"><ele>85.0</ele><time>2026-05-03T16:21:23.999Z</time></trkpt><trkpt lat="45.32101118568529" lon="9.376817734550718"><ele>85.0</ele><time>2026-05-03T16:21:24.999Z</time></trkpt><trkpt lat="45.3211996909345" lon="9.37653022007785"><ele>85.0</ele><time>2026-05-03T16:21:25.999Z</time></trkpt><trkpt lat="45.32138914463463" lon="9.376244273882504"><ele>85.0</ele><time>2026-05-03T16:21:26.999Z</time></trkpt><trkpt lat="45.32157905546032" lon="9.375960154300541"><ele>84.5</ele><time>2026-05-03T16:21:27.999Z</time></trkpt><trkpt lat="45.32176868223925" lon="9.3756757063385"><ele>84.0</ele><time>2026-05-03T16:21:28.999Z</time></trkpt><trkpt lat="45.32195875254685" lon="9.375391108235354"><ele>84.0</ele><time>2026-05-03T16:21:29.999Z</time></trkpt><trkpt lat="45.3221522937966" lon="9.375107963486723"><ele>84.0</ele><time>2026-05-03T16:21:30.999Z</time></trkpt><trkpt lat="45.322345574506066" lon="9.37482167310404"><ele>84.0</ele><time>2026-05-03T16:21:31.999Z</time></trkpt><trkpt lat="45.32253424751449" lon="9.3745330648958"><ele>84.0</ele><time>2026-05-03T16:21:32.999Z</time></trkpt><trkpt lat="45.32272311573975" lon="9.374241415680189"><ele>84.0</ele><time>2026-05-03T16:21:33.999Z</time></trkpt><trkpt lat="45.32291128987741" lon="9.373949749717871"><ele>84.0</ele><time>2026-05-03T16:21:34.999Z</time></trkpt><trkpt lat="45.32309674207876" lon="9.373650596353961"><ele>83.5</ele><time>2026-05-03T16:21:35.999Z</time></trkpt><trkpt lat="45.32328210359702" lon="9.373349354581272"><ele>83.0</ele><time>2026-05-03T16:21:36.999Z</time></trkpt><trkpt lat="45.323471005488955" lon="9.373053028728176"><ele>82.5</ele><time>2026-05-03T16:21:37.999Z</time></trkpt><trkpt lat="45.32366530945189" lon="9.372758993229477"><ele>82.0</ele><time>2026-05-03T16:21:38.999Z</time></trkpt><trkpt lat="45.32386097951996" lon="9.372465309365882"><ele>83.5</ele><time>2026-05-03T16:21:39.999Z</time></trkpt><trkpt lat="45.32405870157236" lon="9.372177374701195"><ele>85.0</ele><time>2026-05-03T16:21:40.999Z</time></trkpt><trkpt lat="45.32425709234541" lon="9.371892632830157"><ele>85.0</ele><time>2026-05-03T16:21:41.999Z</time></trkpt><trkpt lat="45.32445465532971" lon="9.371603348446161"><ele>85.0</ele><time>2026-05-03T16:21:42.999Z</time></trkpt><trkpt lat="45.324649026514486" lon="9.371310456665377"><ele>83.5</ele><time>2026-05-03T16:21:43.999Z</time></trkpt><trkpt lat="45.32484329806199" lon="9.371016751263376"><ele>82.0</ele><time>2026-05-03T16:21:44.999Z</time></trkpt><trkpt lat="45.325036440053395" lon="9.37072111901768"><ele>82.0</ele><time>2026-05-03T16:21:45.999Z</time></trkpt><trkpt lat="45.32522863006017" lon="9.37042572840012"><ele>82.0</ele><time>2026-05-03T16:21:46.999Z</time></trkpt><trkpt lat="45.325423308733185" lon="9.370126093779508"><ele>82.0</ele><time>2026-05-03T16:21:47.999Z</time></trkpt><trkpt lat="45.32561790875558" lon="9.36982530917875"><ele>82.0</ele><time>2026-05-03T16:21:48.999Z</time></trkpt><trkpt lat="45.3258121397133" lon="9.369524148086175"><ele>82.5</ele><time>2026-05-03T16:21:49.999Z</time></trkpt><trkpt lat="45.326005056143785" lon="9.36922631539055"><ele>83.0</ele><time>2026-05-03T16:21:50.999Z</time></trkpt><trkpt lat="45.32619938116884" lon="9.368927639416064"><ele>83.0</ele><time>2026-05-03T16:21:51.999Z</time></trkpt><trkpt lat="45.32639269439866" lon="9.36862902781868"><ele>83.0</ele><time>2026-05-03T16:21:52.999Z</time></trkpt><trkpt lat="45.32658472414263" lon="9.368330271717728"><ele>83.0</ele><time>2026-05-03T16:21:53.999Z</time></trkpt><trkpt lat="45.32677327633554" lon="9.368029987435627"><ele>83.0</ele><time>2026-05-03T16:21:54.999Z</time></trkpt><trkpt lat="45.326963425391774" lon="9.367729997417252"><ele>83.0</ele><time>2026-05-03T16:21:55.999Z</time></trkpt><trkpt lat="45.327156245442076" lon="9.36743185949765"><ele>83.0</ele><time>2026-05-03T16:21:56.999Z</time></trkpt><trkpt lat="45.32734757006768" lon="9.367135018372407"><ele>83.0</ele><time>2026-05-03T16:21:57.999Z</time></trkpt><trkpt lat="45.32753597994738" lon="9.366835000208233"><ele>83.0</ele><time>2026-05-03T16:21:58.999Z</time></trkpt><trkpt lat="45.32772518015346" lon="9.366534204956825"><ele>83.0</ele><time>2026-05-03T16:21:59.999Z</time></trkpt><trkpt lat="45.3279193262448" lon="9.366232290605454"><ele>83.0</ele><time>2026-05-03T16:22:00.999Z</time></trkpt><trkpt lat="45.328114378237906" lon="9.365930771842287"><ele>83.0</ele><time>2026-05-03T16:22:02Z</time></trkpt><trkpt lat="45.32830936814999" lon="9.36563069792683"><ele>83.0</ele><time>2026-05-03T16:22:03Z</time></trkpt><trkpt lat="45.328506825063414" lon="9.365330238974257"><ele>83.0</ele><time>2026-05-03T16:22:04Z</time></trkpt><trkpt lat="45.328701378312914" lon="9.365033437628314"><ele>83.0</ele><time>2026-05-03T16:22:05Z</time></trkpt><trkpt lat="45.32889550383388" lon="9.36473225458259"><ele>84.0</ele><time>2026-05-03T16:22:06Z</time></trkpt><trkpt lat="45.329089098020155" lon="9.364431504158581"><ele>85.0</ele><time>2026-05-03T16:22:07Z</time></trkpt><trkpt lat="45.32928337489127" lon="9.364131246006727"><ele>85.0</ele><time>2026-05-03T16:22:08Z</time></trkpt><trkpt lat="45.32948002387251" lon="9.363829154434814"><ele>85.0</ele><time>2026-05-03T16:22:09Z</time></trkpt><trkpt lat="45.32967505088472" lon="9.363528110978367"><ele>85.0</ele><time>2026-05-03T16:22:10Z</time></trkpt><trkpt lat="45.32987078561133" lon="9.363227809926661"><ele>85.0</ele><time>2026-05-03T16:22:11Z</time></trkpt><trkpt lat="45.33006899175906" lon="9.362927022534755"><ele>85.5</ele><time>2026-05-03T16:22:12Z</time></trkpt><trkpt lat="45.330266396786215" lon="9.362626289752788"><ele>86.0</ele><time>2026-05-03T16:22:13Z</time></trkpt><trkpt lat="45.33046288384998" lon="9.362322316374126"><ele>86.0</ele><time>2026-05-03T16:22:14Z</time></trkpt><trkpt lat="45.33065546082418" lon="9.36201521875317"><ele>86.0</ele><time>2026-05-03T16:22:15Z</time></trkpt><trkpt lat="45.330843718956444" lon="9.36170284033339"><ele>86.0</ele><time>2026-05-03T16:22:16Z</time></trkpt><trkpt lat="45.33102906638235" lon="9.3613848427294"><ele>86.0</ele><time>2026-05-03T16:22:17Z</time></trkpt><trkpt lat="45.33121122160129" lon="9.361063266927333"><ele>86.0</ele><time>2026-05-03T16:22:18Z</time></trkpt><trkpt lat="45.33139047268464" lon="9.3607409559779"><ele>86.0</ele><time>2026-05-03T16:22:19Z</time></trkpt><trkpt lat="45.3315677948676" lon="9.360414775473284"><ele>84.5</ele><time>2026-05-03T16:22:20Z</time></trkpt><trkpt lat="45.33174348916812" lon="9.360086139601462"><ele>83.0</ele><time>2026-05-03T16:22:21Z</time></trkpt><trkpt lat="45.33191513733182" lon="9.359754472187372"><ele>83.5</ele><time>2026-05-03T16:22:22Z</time></trkpt><trkpt lat="45.332084933840434" lon="9.359421003791494"><ele>84.0</ele><time>2026-05-03T16:22:23Z</time></trkpt><trkpt lat="45.33224918223299" lon="9.359084706275887"><ele>84.5</ele><time>2026-05-03T16:22:24Z</time></trkpt><trkpt lat="45.33241163418883" lon="9.358744470814111"><ele>85.0</ele><time>2026-05-03T16:22:25Z</time></trkpt><trkpt lat="45.33256994737024" lon="9.35839976621693"><ele>85.0</ele><time>2026-05-03T16:22:26Z</time></trkpt><trkpt lat="45.33272512248592" lon="9.358051722114679"><ele>85.0</ele><time>2026-05-03T16:22:27Z</time></trkpt><trkpt lat="45.3328763185273" lon="9.357698628700787"><ele>83.5</ele><time>2026-05-03T16:22:28Z</time></trkpt><trkpt lat="45.33302889635915" lon="9.357342346107604"><ele>82.0</ele><time>2026-05-03T16:22:29Z</time></trkpt><trkpt lat="45.333178051837486" lon="9.356983776870939"><ele>81.0</ele><time>2026-05-03T16:22:30Z</time></trkpt><trkpt lat="45.33332290891415" lon="9.356625123804573"><ele>80.0</ele><time>2026-05-03T16:22:31Z</time></trkpt><trkpt lat="45.33346586924925" lon="9.356263720447416"><ele>79.5</ele><time>2026-05-03T16:22:32Z</time></trkpt><trkpt lat="45.33360509093436" lon="9.355902457573409"><ele>79.0</ele><time>2026-05-03T16:22:33Z</time></trkpt><trkpt lat="45.33373969037741" lon="9.355541126408852"><ele>79.5</ele><time>2026-05-03T16:22:34Z</time></trkpt><trkpt lat="45.333868850199515" lon="9.3551774197568"><ele>80.0</ele><time>2026-05-03T16:22:34.999Z</time></trkpt><trkpt lat="45.33399461383755" lon="9.354812042474643"><ele>80.5</ele><time>2026-05-03T16:22:35.999Z</time></trkpt><trkpt lat="45.33411637142998" lon="9.354446211476413"><ele>81.0</ele><time>2026-05-03T16:22:36.999Z</time></trkpt><trkpt lat="45.33423537862122" lon="9.354074449545857"><ele>80.5</ele><time>2026-05-03T16:22:37.999Z</time></trkpt><trkpt lat="45.33435026376652" lon="9.353699745613905"><ele>80.0</ele><time>2026-05-03T16:22:38.999Z</time></trkpt><trkpt lat="45.334460497006724" lon="9.353324996617415"><ele>79.5</ele><time>2026-05-03T16:22:39.999Z</time></trkpt><trkpt lat="45.33456672397921" lon="9.35294320415339"><ele>79.0</ele><time>2026-05-03T16:22:40.999Z</time></trkpt><trkpt lat="45.334670153607185" lon="9.352559545306368"><ele>79.0</ele><time>2026-05-03T16:22:41.999Z</time></trkpt><trkpt lat="45.3347721240042" lon="9.352174626387603"><ele>79.0</ele><time>2026-05-03T16:22:42.999Z</time></trkpt><trkpt lat="45.33486931600718" lon="9.35179073333679"><ele>79.0</ele><time>2026-05-03T16:22:43.999Z</time></trkpt><trkpt lat="45.33496507811047" lon="9.351405481725418"><ele>79.0</ele><time>2026-05-03T16:22:44.999Z</time></trkpt><trkpt lat="45.33505865692855" lon="9.351018227505607"><ele>79.5</ele><time>2026-05-03T16:22:45.999Z</time></trkpt><trkpt lat="45.33515073722531" lon="9.35062628511112"><ele>80.0</ele><time>2026-05-03T16:22:46.999Z</time></trkpt><trkpt lat="45.3352384568881" lon="9.350231534813647"><ele>80.0</ele><time>2026-05-03T16:22:47.999Z</time></trkpt><trkpt lat="45.33532275626424" lon="9.349833723694875"><ele>80.0</ele><time>2026-05-03T16:22:48.999Z</time></trkpt><trkpt lat="45.335403590340285" lon="9.349434819554364"><ele>80.0</ele><time>2026-05-03T16:22:49.999Z</time></trkpt><trkpt lat="45.335480608847945" lon="9.349034305865422"><ele>80.0</ele><time>2026-05-03T16:22:50.999Z</time></trkpt><trkpt lat="45.33555382394933" lon="9.348633395003914"><ele>80.0</ele><time>2026-05-03T16:22:51.999Z</time></trkpt><trkpt lat="45.33562279574067" lon="9.34822875203172"><ele>80.0</ele><time>2026-05-03T16:22:52.999Z</time></trkpt><trkpt lat="45.33568831082954" lon="9.347821970979126"><ele>80.0</ele><time>2026-05-03T16:22:53.999Z</time></trkpt><trkpt lat="45.33575000183751" lon="9.347414126642867"><ele>80.0</ele><time>2026-05-03T16:22:54.999Z</time></trkpt><trkpt lat="45.33580919903112" lon="9.347009278747866"><ele>79.5</ele><time>2026-05-03T16:22:55.999Z</time></trkpt><trkpt lat="45.33586972978393" lon="9.346602905233956"><ele>79.0</ele><time>2026-05-03T16:22:56.999Z</time></trkpt><trkpt lat="45.33593062166652" lon="9.346195416932844"><ele>79.0</ele><time>2026-05-03T16:22:57.999Z</time></trkpt><trkpt lat="45.33599274692817" lon="9.345788931045625"><ele>79.0</ele><time>2026-05-03T16:22:58.999Z</time></trkpt><trkpt lat="45.3360572682916" lon="9.345381350830019"><ele>79.0</ele><time>2026-05-03T16:22:59.999Z</time></trkpt><trkpt lat="45.33612210123887" lon="9.344972394580852"><ele>79.0</ele><time>2026-05-03T16:23:00.999Z</time></trkpt><trkpt lat="45.336185840452444" lon="9.344565809208024"><ele>78.5</ele><time>2026-05-03T16:23:01.999Z</time></trkpt><trkpt lat="45.336248391544544" lon="9.344161308633105"><ele>78.0</ele><time>2026-05-03T16:23:02.999Z</time></trkpt><trkpt lat="45.33630957093764" lon="9.34375405260624"><ele>77.5</ele><time>2026-05-03T16:23:03.999Z</time></trkpt><trkpt lat="45.336368575465784" lon="9.343348946208433"><ele>77.0</ele><time>2026-05-03T16:23:04.999Z</time></trkpt><trkpt lat="45.33642623257189" lon="9.342943984307851"><ele>77.0</ele><time>2026-05-03T16:23:05.999Z</time></trkpt><trkpt lat="45.336483585376925" lon="9.342541202637692"><ele>77.0</ele><time>2026-05-03T16:23:06.999Z</time></trkpt><trkpt lat="45.33654463389905" lon="9.342140327164364"><ele>76.5</ele><time>2026-05-03T16:23:07.999Z</time></trkpt><trkpt lat="45.336605504439376" lon="9.341740294294166"><ele>76.0</ele><time>2026-05-03T16:23:08.999Z</time></trkpt><trkpt lat="45.33666776995711" lon="9.341337932744096"><ele>75.5</ele><time>2026-05-03T16:23:09.999Z</time></trkpt><trkpt lat="45.33673028713189" lon="9.340935771280352"><ele>75.0</ele><time>2026-05-03T16:23:10.999Z</time></trkpt><trkpt lat="45.336792780048675" lon="9.340534246786147"><ele>75.0</ele><time>2026-05-03T16:23:11.999Z</time></trkpt><trkpt lat="45.336856342688975" lon="9.340131348656113"><ele>75.0</ele><time>2026-05-03T16:23:12.999Z</time></trkpt><trkpt lat="45.33691938608124" lon="9.33972994037063"><ele>77.0</ele><time>2026-05-03T16:23:13.999Z</time></trkpt><trkpt lat="45.336983022409015" lon="9.339323369987094"><ele>79.0</ele><time>2026-05-03T16:23:14.999Z</time></trkpt><trkpt lat="45.33704620231029" lon="9.33891489558955"><ele>80.5</ele><time>2026-05-03T16:23:15.999Z</time></trkpt><trkpt lat="45.33710800593599" lon="9.338505709966828"><ele>82.0</ele><time>2026-05-03T16:23:16.999Z</time></trkpt><trkpt lat="45.33716886025188" lon="9.338094644807056"><ele>83.0</ele><time>2026-05-03T16:23:17.999Z</time></trkpt><trkpt lat="45.337231052426596" lon="9.337682501207354"><ele>84.0</ele><time>2026-05-03T16:23:18.999Z</time></trkpt><trkpt lat="45.337292603399675" lon="9.337271873228975"><ele>84.0</ele><time>2026-05-03T16:23:19.999Z</time></trkpt><trkpt lat="45.337355028556296" lon="9.336861623920374"><ele>84.0</ele><time>2026-05-03T16:23:20.999Z</time></trkpt><trkpt lat="45.3374179749002" lon="9.336451966510412"><ele>84.0</ele><time>2026-05-03T16:23:21.999Z</time></trkpt><trkpt lat="45.33748036761048" lon="9.336042960941088"><ele>84.0</ele><time>2026-05-03T16:23:22.999Z</time></trkpt><trkpt lat="45.33754282192595" lon="9.335634578175512"><ele>83.5</ele><time>2026-05-03T16:23:23.999Z</time></trkpt><trkpt lat="45.33760596512855" lon="9.335226917102986"><ele>83.0</ele><time>2026-05-03T16:23:24.999Z</time></trkpt><trkpt lat="45.33766917886761" lon="9.334822110229354"><ele>83.5</ele><time>2026-05-03T16:23:25.999Z</time></trkpt><trkpt lat="45.337732775706954" lon="9.334418373045477"><ele>84.0</ele><time>2026-05-03T16:23:26.999Z</time></trkpt><trkpt lat="45.33779539463363" lon="9.334016064837014"><ele>84.0</ele><time>2026-05-03T16:23:27.999Z</time></trkpt><trkpt lat="45.33785612900706" lon="9.333614342279684"><ele>84.0</ele><time>2026-05-03T16:23:28.999Z</time></trkpt><trkpt lat="45.337916075945856" lon="9.333215078805097"><ele>83.5</ele><time>2026-05-03T16:23:29.999Z</time></trkpt><trkpt lat="45.33797578919545" lon="9.332818586085528"><ele>83.0</ele><time>2026-05-03T16:23:30.999Z</time></trkpt><trkpt lat="45.33803462813524" lon="9.332425442617787"><ele>84.5</ele><time>2026-05-03T16:23:31.999Z</time></trkpt><trkpt lat="45.338094194950145" lon="9.332034079995768"><ele>86.0</ele><time>2026-05-03T16:23:32.999Z</time></trkpt><trkpt lat="45.33815479440558" lon="9.331641767575835"><ele>86.5</ele><time>2026-05-03T16:23:33.999Z</time></trkpt><trkpt lat="45.338216581681486" lon="9.331246469500028"><ele>87.0</ele><time>2026-05-03T16:23:34.999Z</time></trkpt><trkpt lat="45.33828054868642" lon="9.330855025868331"><ele>87.0</ele><time>2026-05-03T16:23:35.999Z</time></trkpt><trkpt lat="45.338347295682354" lon="9.33046475886307"><ele>87.0</ele><time>2026-05-03T16:23:36.999Z</time></trkpt><trkpt lat="45.33841776226873" lon="9.3300765452938"><ele>87.5</ele><time>2026-05-03T16:23:37.999Z</time></trkpt><trkpt lat="45.33849302262482" lon="9.329688927035576"><ele>88.0</ele><time>2026-05-03T16:23:38.999Z</time></trkpt><trkpt lat="45.338573903943114" lon="9.329301281231523"><ele>88.0</ele><time>2026-05-03T16:23:39.999Z</time></trkpt><trkpt lat="45.338657730310096" lon="9.328914344635452"><ele>88.0</ele><time>2026-05-03T16:23:40.999Z</time></trkpt><trkpt lat="45.338744337136795" lon="9.328529185747138"><ele>87.0</ele><time>2026-05-03T16:23:41.999Z</time></trkpt><trkpt lat="45.338836534818626" lon="9.32814172432369"><ele>86.0</ele><time>2026-05-03T16:23:42.999Z</time></trkpt><trkpt lat="45.33893349640409" lon="9.32775527914514"><ele>86.0</ele><time>2026-05-03T16:23:43.999Z</time></trkpt><trkpt lat="45.33903337197165" lon="9.327369368078577"><ele>86.0</ele><time>2026-05-03T16:23:44.999Z</time></trkpt><trkpt lat="45.33913716671847" lon="9.326980413450254"><ele>86.0</ele><time>2026-05-03T16:23:45.999Z</time></trkpt><trkpt lat="45.33924433272117" lon="9.32659477782223"><ele>86.0</ele><time>2026-05-03T16:23:46.999Z</time></trkpt><trkpt lat="45.33935539564437" lon="9.326215487685458"><ele>87.0</ele><time>2026-05-03T16:23:47.999Z</time></trkpt><trkpt lat="45.33946996455192" lon="9.325835689040009"><ele>88.0</ele><time>2026-05-03T16:23:48.999Z</time></trkpt><trkpt lat="45.33958918735159" lon="9.325454368478962"><ele>88.0</ele><time>2026-05-03T16:23:49.999Z</time></trkpt><trkpt lat="45.339710287378125" lon="9.325075489060982"><ele>88.0</ele><time>2026-05-03T16:23:50.999Z</time></trkpt><trkpt lat="45.33983625982039" lon="9.324700296708903"><ele>88.5</ele><time>2026-05-03T16:23:51.999Z</time></trkpt><trkpt lat="45.339965548076734" lon="9.324328282044183"><ele>89.0</ele><time>2026-05-03T16:23:52.999Z</time></trkpt><trkpt lat="45.34009727738452" lon="9.32395896237892"><ele>88.5</ele><time>2026-05-03T16:23:53.999Z</time></trkpt><trkpt lat="45.340231979856924" lon="9.323592401657942"><ele>88.0</ele><time>2026-05-03T16:23:54.999Z</time></trkpt><trkpt lat="45.34037157037118" lon="9.323227266854003"><ele>88.0</ele><time>2026-05-03T16:23:55.999Z</time></trkpt><trkpt lat="45.34051563696602" lon="9.322866658826305"><ele>88.0</ele><time>2026-05-03T16:23:56.999Z</time></trkpt><trkpt lat="45.34066397738089" lon="9.322507815248544"><ele>89.0</ele><time>2026-05-03T16:23:57.999Z</time></trkpt><trkpt lat="45.340814772032154" lon="9.322151754614499"><ele>90.0</ele><time>2026-05-03T16:23:58.999Z</time></trkpt><trkpt lat="45.34097014130477" lon="9.321796905128666"><ele>90.0</ele><time>2026-05-03T16:23:59.999Z</time></trkpt><trkpt lat="45.341128453793715" lon="9.32144602930172"><ele>90.0</ele><time>2026-05-03T16:24:00.999Z</time></trkpt><trkpt lat="45.341288944095304" lon="9.321095121167774"><ele>89.5</ele><time>2026-05-03T16:24:01.999Z</time></trkpt><trkpt lat="45.34145244361227" lon="9.320746625522023"><ele>89.0</ele><time>2026-05-03T16:24:02.999Z</time></trkpt><trkpt lat="45.341620267459746" lon="9.320403171411073"><ele>89.0</ele><time>2026-05-03T16:24:03.999Z</time></trkpt><trkpt lat="45.34179220105525" lon="9.320063115917536"><ele>89.0</ele><time>2026-05-03T16:24:04.999Z</time></trkpt><trkpt lat="45.34196720646157" lon="9.319725887895169"><ele>89.0</ele><time>2026-05-03T16:24:05.999Z</time></trkpt><trkpt lat="45.34214595055933" lon="9.319390519943372"><ele>89.0</ele><time>2026-05-03T16:24:07Z</time></trkpt><trkpt lat="45.34232696454781" lon="9.319061801086859"><ele>90.0</ele><time>2026-05-03T16:24:08Z</time></trkpt><trkpt lat="45.342510483020455" lon="9.31873839172708"><ele>91.0</ele><time>2026-05-03T16:24:09Z</time></trkpt><trkpt lat="45.34269391507749" lon="9.31842241182814"><ele>91.0</ele><time>2026-05-03T16:24:10Z</time></trkpt><trkpt lat="45.34287654242854" lon="9.318115074276571"><ele>91.0</ele><time>2026-05-03T16:24:11Z</time></trkpt><trkpt lat="45.3430583811733" lon="9.317816402616675"><ele>90.0</ele><time>2026-05-03T16:24:12Z</time></trkpt><trkpt lat="45.343241525740325" lon="9.31752562002941"><ele>89.0</ele><time>2026-05-03T16:24:13Z</time></trkpt><trkpt lat="45.343419102117046" lon="9.317252358244836"><ele>89.0</ele><time>2026-05-03T16:24:14Z</time></trkpt><trkpt lat="45.343590268512116" lon="9.316995562934915"><ele>89.0</ele><time>2026-05-03T16:24:15Z</time></trkpt><trkpt lat="45.3437543395931" lon="9.316752639463386"><ele>89.0</ele><time>2026-05-03T16:24:16Z</time></trkpt><trkpt lat="45.34391296354406" lon="9.316521484974698"><ele>89.0</ele><time>2026-05-03T16:24:17Z</time></trkpt><trkpt lat="45.34406813027101" lon="9.31630169701505"><ele>89.0</ele><time>2026-05-03T16:24:18Z</time></trkpt><trkpt lat="45.34422291346578" lon="9.31608731425066"><ele>89.0</ele><time>2026-05-03T16:24:19Z</time></trkpt><trkpt lat="45.34437533900529" lon="9.315873007487506"><ele>89.0</ele><time>2026-05-03T16:24:20Z</time></trkpt><trkpt lat="45.34452693543723" lon="9.315668271391765"><ele>89.0</ele><time>2026-05-03T16:24:21Z</time></trkpt><trkpt lat="45.34468395689137" lon="9.315454007253578"><ele>89.33333333333334</ele><time>2026-05-03T16:24:22Z</time></trkpt><trkpt lat="45.34479213751952" lon="9.31529541124533"><ele>89.66666666666667</ele><time>2026-05-03T16:24:23Z</time></trkpt><trkpt lat="45.344946634902485" lon="9.315103341682946"><ele>90.0</ele><time>2026-05-03T16:24:24Z</time></trkpt><trkpt lat="45.34510436408824" lon="9.314908354003451"><ele>90.0</ele><time>2026-05-03T16:24:25Z</time></trkpt><trkpt lat="45.34526219307848" lon="9.314712384735452"><ele>90.0</ele><time>2026-05-03T16:24:26Z</time></trkpt><trkpt lat="45.34542168250545" lon="9.314521760659234"><ele>90.0</ele><time>2026-05-03T16:24:27Z</time></trkpt><trkpt lat="45.3455850865948" lon="9.314329027332258"><ele>90.0</ele><time>2026-05-03T16:24:28Z</time></trkpt><trkpt lat="45.34575325751529" lon="9.314128430264851"><ele>90.0</ele><time>2026-05-03T16:24:29Z</time></trkpt><trkpt lat="45.34592571365475" lon="9.313934591584017"><ele>90.0</ele><time>2026-05-03T16:24:30Z</time></trkpt><trkpt lat="45.346101824549564" lon="9.313739669130346"><ele>89.5</ele><time>2026-05-03T16:24:31Z</time></trkpt><trkpt lat="45.346279171615926" lon="9.31353463279154"><ele>89.0</ele><time>2026-05-03T16:24:32Z</time></trkpt><trkpt lat="45.34645884385064" lon="9.313323794067063"><ele>89.0</ele><time>2026-05-03T16:24:33Z</time></trkpt><trkpt lat="45.34663337142398" lon="9.313119436579777"><ele>89.0</ele><time>2026-05-03T16:24:34Z</time></trkpt><trkpt lat="45.34679919229936" lon="9.312913477461962"><ele>89.0</ele><time>2026-05-03T16:24:35Z</time></trkpt><trkpt lat="45.346964405269226" lon="9.312720384164075"><ele>89.0</ele><time>2026-05-03T16:24:36Z</time></trkpt><trkpt lat="45.347124302069965" lon="9.312531397498994"><ele>89.0</ele><time>2026-05-03T16:24:37Z</time></trkpt><trkpt lat="45.347285235371494" lon="9.312337173901474"><ele>89.0</ele><time>2026-05-03T16:24:38Z</time></trkpt><trkpt lat="45.34744135079332" lon="9.312152306816502"><ele>89.0</ele><time>2026-05-03T16:24:39Z</time></trkpt><trkpt lat="45.34759085336463" lon="9.311966981174551"><ele>89.0</ele><time>2026-05-03T16:24:39.999Z</time></trkpt><trkpt lat="45.34773573027417" lon="9.311779630834367"><ele>89.0</ele><time>2026-05-03T16:24:40.999Z</time></trkpt><trkpt lat="45.34787143111344" lon="9.311589276602174"><ele>89.0</ele><time>2026-05-03T16:24:41.999Z</time></trkpt><trkpt lat="45.34799249477832" lon="9.311401851542238"><ele>89.0</ele><time>2026-05-03T16:24:42.999Z</time></trkpt><trkpt lat="45.34809858981862" lon="9.311217038423157"><ele>89.0</ele><time>2026-05-03T16:24:43.999Z</time></trkpt><trkpt lat="45.348199128676775" lon="9.311040980439776"><ele>89.0</ele><time>2026-05-03T16:24:44.999Z</time></trkpt><trkpt lat="45.34828390213607" lon="9.310858763464468"><ele>89.0</ele><time>2026-05-03T16:24:45.999Z</time></trkpt><trkpt lat="45.34837539467362" lon="9.310697691758707"><ele>89.0</ele><time>2026-05-03T16:24:46.999Z</time></trkpt><trkpt lat="45.3484667299006" lon="9.31054782426283"><ele>89.0</ele><time>2026-05-03T16:24:47.999Z</time></trkpt><trkpt lat="45.34855583329721" lon="9.31041020633842"><ele>89.4</ele><time>2026-05-03T16:24:48.999Z</time></trkpt><trkpt lat="45.34864119460172" lon="9.310283944188516"><ele>89.80000000000001</ele><time>2026-05-03T16:24:49.999Z</time></trkpt><trkpt lat="45.34872592359051" lon="9.310169009536958"><ele>90.19999999999999</ele><time>2026-05-03T16:24:50.999Z</time></trkpt><trkpt lat="45.34880631587766" lon="9.310065406578648"><ele>90.6</ele><time>2026-05-03T16:24:51.999Z</time></trkpt><trkpt lat="45.348879634175034" lon="9.309978975865931"><ele>91.0</ele><time>2026-05-03T16:24:52.999Z</time></trkpt><trkpt lat="45.348944486651796" lon="9.309906582909067"><ele>91.19999999999999</ele><time>2026-05-03T16:24:53.999Z</time></trkpt><trkpt lat="45.34899433230509" lon="9.309845635570666"><ele>91.39999999999999</ele><time>2026-05-03T16:24:54.999Z</time></trkpt><trkpt lat="45.349071096102904" lon="9.309756089660105"><ele>91.6</ele><time>2026-05-03T16:24:56.999Z</time></trkpt><trkpt lat="45.349156007922886" lon="9.309657828271433"><ele>91.8</ele><time>2026-05-03T16:24:58.999Z</time></trkpt><trkpt lat="45.34920612332519" lon="9.309596874210389"><ele>92.0</ele><time>2026-05-03T16:24:59.999Z</time></trkpt><trkpt lat="45.3493135512416" lon="9.309474945851957"><ele>92.0</ele><time>2026-05-03T16:25:01.999Z</time></trkpt><trkpt lat="45.34937389230117" lon="9.309373836887747"><ele>92.0</ele><time>2026-05-03T16:25:02.999Z</time></trkpt><trkpt lat="45.34948527823964" lon="9.309279035377669"><ele>92.0</ele><time>2026-05-03T16:25:03.999Z</time></trkpt><trkpt lat="45.34958664425831" lon="9.309186059226612"><ele>92.0</ele><time>2026-05-03T16:25:04.999Z</time></trkpt><trkpt lat="45.349698810162515" lon="9.30908376624973"><ele>91.33333333333334</ele><time>2026-05-03T16:25:05.999Z</time></trkpt><trkpt lat="45.3498220905731" lon="9.308981748679003"><ele>90.66666666666667</ele><time>2026-05-03T16:25:06.999Z</time></trkpt><trkpt lat="45.34995786263314" lon="9.308874564642338"><ele>90.0</ele><time>2026-05-03T16:25:07.999Z</time></trkpt><trkpt lat="45.35010848398066" lon="9.308767289196844"><ele>89.66666666666667</ele><time>2026-05-03T16:25:08.999Z</time></trkpt><trkpt lat="45.350264594819954" lon="9.308661243122556"><ele>89.33333333333334</ele><time>2026-05-03T16:25:09.999Z</time></trkpt><trkpt lat="45.3504349253833" lon="9.30855002710371"><ele>89.0</ele><time>2026-05-03T16:25:10.999Z</time></trkpt><trkpt lat="45.35061310470343" lon="9.308429015809342"><ele>90.0</ele><time>2026-05-03T16:25:11.999Z</time></trkpt><trkpt lat="45.35080876769504" lon="9.308283230034384"><ele>91.0</ele><time>2026-05-03T16:25:12.999Z</time></trkpt><trkpt lat="45.35100405857246" lon="9.308101094846439"><ele>90.5</ele><time>2026-05-03T16:25:13.999Z</time></trkpt><trkpt lat="45.351204368922495" lon="9.307874381256317"><ele>90.0</ele><time>2026-05-03T16:25:14.999Z</time></trkpt><trkpt lat="45.35141194021362" lon="9.307623414404043"><ele>90.0</ele><time>2026-05-03T16:25:15.999Z</time></trkpt><trkpt lat="45.35161791154761" lon="9.307371398767675"><ele>90.0</ele><time>2026-05-03T16:25:16.999Z</time></trkpt><trkpt lat="45.35181997715384" lon="9.30713249707002"><ele>90.0</ele><time>2026-05-03T16:25:17.999Z</time></trkpt><trkpt lat="45.352019057556326" lon="9.306897552736975"><ele>90.0</ele><time>2026-05-03T16:25:18.999Z</time></trkpt><trkpt lat="45.352216550451786" lon="9.306667054153033"><ele>90.0</ele><time>2026-05-03T16:25:19.999Z</time></trkpt><trkpt lat="45.352410452932915" lon="9.306443138828772"><ele>90.0</ele><time>2026-05-03T16:25:20.999Z</time></trkpt><trkpt lat="45.352601044474284" lon="9.306224362925834"><ele>90.5</ele><time>2026-05-03T16:25:21.999Z</time></trkpt><trkpt lat="45.35278996146877" lon="9.306007415587386"><ele>91.0</ele><time>2026-05-03T16:25:22.999Z</time></trkpt><trkpt lat="45.352970911056495" lon="9.305798076308935"><ele>91.0</ele><time>2026-05-03T16:25:23.999Z</time></trkpt><trkpt lat="45.353137047948344" lon="9.305605973410643"><ele>91.0</ele><time>2026-05-03T16:25:24.999Z</time></trkpt><trkpt lat="45.35328931390539" lon="9.305428032945276"><ele>91.0</ele><time>2026-05-03T16:25:25.999Z</time></trkpt><trkpt lat="45.353432689528844" lon="9.305256934467288"><ele>91.0</ele><time>2026-05-03T16:25:26.999Z</time></trkpt><trkpt lat="45.35357093379483" lon="9.305089934974292"><ele>91.0</ele><time>2026-05-03T16:25:27.999Z</time></trkpt><trkpt lat="45.35370263626327" lon="9.30492693520436"><ele>91.0</ele><time>2026-05-03T16:25:28.999Z</time></trkpt><trkpt lat="45.35382966095757" lon="9.304774458758148"><ele>90.0</ele><time>2026-05-03T16:25:29.999Z</time></trkpt><trkpt lat="45.3539547857231" lon="9.304632322194369"><ele>89.0</ele><time>2026-05-03T16:25:30.999Z</time></trkpt><trkpt lat="45.354082627590195" lon="9.304491106926239"><ele>88.0</ele><time>2026-05-03T16:25:31.999Z</time></trkpt><trkpt lat="45.35421053518183" lon="9.304343861764657"><ele>88.0</ele><time>2026-05-03T16:25:32.999Z</time></trkpt><trkpt lat="45.35433022988851" lon="9.304201003095432"><ele>88.0</ele><time>2026-05-03T16:25:33.999Z</time></trkpt><trkpt lat="45.354444457328896" lon="9.30406265761278"><ele>88.0</ele><time>2026-05-03T16:25:34.999Z</time></trkpt><trkpt lat="45.354551815635794" lon="9.303938711946662"><ele>88.0</ele><time>2026-05-03T16:25:35.999Z</time></trkpt><trkpt lat="45.354654972103816" lon="9.303823145459226"><ele>88.60000000000001</ele><time>2026-05-03T16:25:36.999Z</time></trkpt><trkpt lat="45.35474795733289" lon="9.303714188676517"><ele>89.2</ele><time>2026-05-03T16:25:37.999Z</time></trkpt><trkpt lat="45.354830684285176" lon="9.30361040782052"><ele>89.8</ele><time>2026-05-03T16:25:38.999Z</time></trkpt><trkpt lat="45.35491007878809" lon="9.303516481413755"><ele>90.4</ele><time>2026-05-03T16:25:39.999Z</time></trkpt><trkpt lat="45.35498525540213" lon="9.303427897337247"><ele>91.0</ele><time>2026-05-03T16:25:40.999Z</time></trkpt><trkpt lat="45.355055123229924" lon="9.303342621727282"><ele>91.0</ele><time>2026-05-03T16:25:41.999Z</time></trkpt><trkpt lat="45.35513471936523" lon="9.303269085363167"><ele>91.0</ele><time>2026-05-03T16:25:42.999Z</time></trkpt><trkpt lat="45.35519943668391" lon="9.303205787073972"><ele>91.0</ele><time>2026-05-03T16:25:43.999Z</time></trkpt><trkpt lat="45.355283679993946" lon="9.303069459576113"><ele>91.0</ele><time>2026-05-03T16:25:45.999Z</time></trkpt><trkpt lat="45.355385443383106" lon="9.302931870684306"><ele>91.0</ele><time>2026-05-03T16:25:47.999Z</time></trkpt><trkpt lat="45.35546059833158" lon="9.302853861657544"><ele>91.0</ele><time>2026-05-03T16:25:48.999Z</time></trkpt><trkpt lat="45.35554467190441" lon="9.30277355721908"><ele>91.0</ele><time>2026-05-03T16:25:49.999Z</time></trkpt><trkpt lat="45.35563304514338" lon="9.302676631003866"><ele>91.0</ele><time>2026-05-03T16:25:50.999Z</time></trkpt><trkpt lat="45.35572999762247" lon="9.302561334569482"><ele>91.0</ele><time>2026-05-03T16:25:51.999Z</time></trkpt><trkpt lat="45.35583758850802" lon="9.302435277885591"><ele>91.0</ele><time>2026-05-03T16:25:52.999Z</time></trkpt><trkpt lat="45.3559481695769" lon="9.302306892640395"><ele>91.0</ele><time>2026-05-03T16:25:53.999Z</time></trkpt><trkpt lat="45.3560663872386" lon="9.302171224750017"><ele>91.0</ele><time>2026-05-03T16:25:54.999Z</time></trkpt><trkpt lat="45.35618935487119" lon="9.30202552703626"><ele>91.0</ele><time>2026-05-03T16:25:55.999Z</time></trkpt><trkpt lat="45.35631968955797" lon="9.301874275274605"><ele>91.0</ele><time>2026-05-03T16:25:56.999Z</time></trkpt><trkpt lat="45.356453742701426" lon="9.301717120506769"><ele>91.0</ele><time>2026-05-03T16:25:57.999Z</time></trkpt><trkpt lat="45.35659837403897" lon="9.30155027572479"><ele>91.0</ele><time>2026-05-03T16:25:58.999Z</time></trkpt><trkpt lat="45.35674310383729" lon="9.301380242636483"><ele>91.0</ele><time>2026-05-03T16:25:59.999Z</time></trkpt><trkpt lat="45.356886836168634" lon="9.301206215804328"><ele>91.0</ele><time>2026-05-03T16:26:00.999Z</time></trkpt><trkpt lat="45.35702937606311" lon="9.301036194783203"><ele>91.0</ele><time>2026-05-03T16:26:01.999Z</time></trkpt><trkpt lat="45.357172151771536" lon="9.30087100240455"><ele>91.0</ele><time>2026-05-03T16:26:02.999Z</time></trkpt><trkpt lat="45.3573138706728" lon="9.30070751961423"><ele>91.0</ele><time>2026-05-03T16:26:03.999Z</time></trkpt><trkpt lat="45.35745261007316" lon="9.300543674450934"><ele>92.0</ele><time>2026-05-03T16:26:04.999Z</time></trkpt><trkpt lat="45.35759016221261" lon="9.300377046502664"><ele>93.0</ele><time>2026-05-03T16:26:05.999Z</time></trkpt><trkpt lat="45.35772870239041" lon="9.300214583884188"><ele>94.0</ele><time>2026-05-03T16:26:06.999Z</time></trkpt><trkpt lat="45.357870576775106" lon="9.300048190151495"><ele>94.0</ele><time>2026-05-03T16:26:07.999Z</time></trkpt><trkpt lat="45.35801326868139" lon="9.299882273589603"><ele>94.0</ele><time>2026-05-03T16:26:08.999Z</time></trkpt><trkpt lat="45.35815657663572" lon="9.299720646370298"><ele>94.0</ele><time>2026-05-03T16:26:09.999Z</time></trkpt><trkpt lat="45.35829697951373" lon="9.299553868408843"><ele>94.0</ele><time>2026-05-03T16:26:10.999Z</time></trkpt><trkpt lat="45.35843934428427" lon="9.299386794013879"><ele>94.0</ele><time>2026-05-03T16:26:11.999Z</time></trkpt><trkpt lat="45.358579238478285" lon="9.29922019556588"><ele>94.0</ele><time>2026-05-03T16:26:13Z</time></trkpt><trkpt lat="45.35872114001314" lon="9.299053289455335"><ele>93.33333333333333</ele><time>2026-05-03T16:26:14Z</time></trkpt><trkpt lat="45.35886269474163" lon="9.298886692662819"><ele>92.66666666666667</ele><time>2026-05-03T16:26:15Z</time></trkpt><trkpt lat="45.35900579387928" lon="9.298719158676722"><ele>92.0</ele><time>2026-05-03T16:26:16Z</time></trkpt><trkpt lat="45.35914752524197" lon="9.298550872764531"><ele>91.66666666666667</ele><time>2026-05-03T16:26:17Z</time></trkpt><trkpt lat="45.359295441934975" lon="9.298381445378851"><ele>91.33333333333333</ele><time>2026-05-03T16:26:18Z</time></trkpt><trkpt lat="45.359447602648366" lon="9.29820867888076"><ele>91.0</ele><time>2026-05-03T16:26:19Z</time></trkpt><trkpt lat="45.35960472108162" lon="9.298027402264912"><ele>91.0</ele><time>2026-05-03T16:26:20Z</time></trkpt><trkpt lat="45.359762442958946" lon="9.297840016166019"><ele>91.0</ele><time>2026-05-03T16:26:21Z</time></trkpt><trkpt lat="45.359916661403396" lon="9.29765149915123"><ele>91.0</ele><time>2026-05-03T16:26:22Z</time></trkpt><trkpt lat="45.3600771704014" lon="9.29746241590745"><ele>91.0</ele><time>2026-05-03T16:26:23Z</time></trkpt><trkpt lat="45.3602393888933" lon="9.297274456758956"><ele>91.0</ele><time>2026-05-03T16:26:24Z</time></trkpt><trkpt lat="45.360402081950525" lon="9.297086119525849"><ele>91.0</ele><time>2026-05-03T16:26:25Z</time></trkpt><trkpt lat="45.36056715667402" lon="9.296894921490539"><ele>91.0</ele><time>2026-05-03T16:26:26Z</time></trkpt><trkpt lat="45.36073387788493" lon="9.296699966414689"><ele>91.0</ele><time>2026-05-03T16:26:27Z</time></trkpt><trkpt lat="45.36090108090371" lon="9.296499004317804"><ele>91.0</ele><time>2026-05-03T16:26:28Z</time></trkpt><trkpt lat="45.361070496730484" lon="9.296293432703084"><ele>91.0</ele><time>2026-05-03T16:26:29Z</time></trkpt><trkpt lat="45.361243639948015" lon="9.296084978052034"><ele>91.0</ele><time>2026-05-03T16:26:30Z</time></trkpt><trkpt lat="45.36142042316627" lon="9.295880786907063"><ele>91.0</ele><time>2026-05-03T16:26:31Z</time></trkpt><trkpt lat="45.361598477041305" lon="9.295674047171467"><ele>91.0</ele><time>2026-05-03T16:26:31.999Z</time></trkpt><trkpt lat="45.36177563294452" lon="9.295466176850102"><ele>91.0</ele><time>2026-05-03T16:26:32.999Z</time></trkpt><trkpt lat="45.36195094967739" lon="9.295260433384554"><ele>91.0</ele><time>2026-05-03T16:26:33.999Z</time></trkpt><trkpt lat="45.36212585436993" lon="9.295056997201343"><ele>91.0</ele><time>2026-05-03T16:26:34.999Z</time></trkpt><trkpt lat="45.36230189216795" lon="9.294853705759387"><ele>91.0</ele><time>2026-05-03T16:26:35.999Z</time></trkpt><trkpt lat="45.3624790062959" lon="9.294648014878746"><ele>91.0</ele><time>2026-05-03T16:26:36.999Z</time></trkpt><trkpt lat="45.36265643260693" lon="9.294441279150044"><ele>91.0</ele><time>2026-05-03T16:26:37.999Z</time></trkpt><trkpt lat="45.362833144186226" lon="9.294234601258264"><ele>91.0</ele><time>2026-05-03T16:26:38.999Z</time></trkpt><trkpt lat="45.36301108091024" lon="9.294025035233249"><ele>91.0</ele><time>2026-05-03T16:26:39.999Z</time></trkpt><trkpt lat="45.363187942980794" lon="9.29381413966424"><ele>91.5</ele><time>2026-05-03T16:26:40.999Z</time></trkpt><trkpt lat="45.36336565570162" lon="9.293603338170946"><ele>92.0</ele><time>2026-05-03T16:26:41.999Z</time></trkpt><trkpt lat="45.36354596288248" lon="9.293393617811407"><ele>92.0</ele><time>2026-05-03T16:26:42.999Z</time></trkpt><trkpt lat="45.363729028267514" lon="9.293181722039671"><ele>92.0</ele><time>2026-05-03T16:26:43.999Z</time></trkpt><trkpt lat="45.363910677648924" lon="9.29296448164397"><ele>91.5</ele><time>2026-05-03T16:26:44.999Z</time></trkpt><trkpt lat="45.36409108811499" lon="9.292752948694611"><ele>91.0</ele><time>2026-05-03T16:26:45.999Z</time></trkpt><trkpt lat="45.3642741438934" lon="9.292539262659398"><ele>91.0</ele><time>2026-05-03T16:26:46.999Z</time></trkpt><trkpt lat="45.36445569863753" lon="9.29232371474806"><ele>91.0</ele><time>2026-05-03T16:26:47.999Z</time></trkpt><trkpt lat="45.36463960301122" lon="9.292102057173919"><ele>91.0</ele><time>2026-05-03T16:26:48.999Z</time></trkpt><trkpt lat="45.36482437715682" lon="9.291883482334683"><ele>91.0</ele><time>2026-05-03T16:26:49.999Z</time></trkpt><trkpt lat="45.365011355709036" lon="9.291663787976093"><ele>91.0</ele><time>2026-05-03T16:26:50.999Z</time></trkpt><trkpt lat="45.365199769261636" lon="9.291445253937484"><ele>91.0</ele><time>2026-05-03T16:26:51.999Z</time></trkpt><trkpt lat="45.36539023924735" lon="9.29122680362517"><ele>91.5</ele><time>2026-05-03T16:26:52.999Z</time></trkpt><trkpt lat="45.36558002103658" lon="9.291006630557971"><ele>92.0</ele><time>2026-05-03T16:26:53.999Z</time></trkpt><trkpt lat="45.365768876291625" lon="9.29078425705242"><ele>92.5</ele><time>2026-05-03T16:26:54.999Z</time></trkpt><trkpt lat="45.36595636822443" lon="9.290560762037046"><ele>93.0</ele><time>2026-05-03T16:26:55.999Z</time></trkpt><trkpt lat="45.36614485213368" lon="9.290338053457983"><ele>93.0</ele><time>2026-05-03T16:26:56.999Z</time></trkpt><trkpt lat="45.36633559240053" lon="9.290116422165761"><ele>93.0</ele><time>2026-05-03T16:26:57.999Z</time></trkpt><trkpt lat="45.366524493484604" lon="9.28989540212531"><ele>92.5</ele><time>2026-05-03T16:26:58.999Z</time></trkpt><trkpt lat="45.36671250140579" lon="9.28967476197663"><ele>92.0</ele><time>2026-05-03T16:26:59.999Z</time></trkpt><trkpt lat="45.366899293444426" lon="9.289451976714814"><ele>92.0</ele><time>2026-05-03T16:27:00.999Z</time></trkpt><trkpt lat="45.36708123572296" lon="9.289229210963756"><ele>92.0</ele><time>2026-05-03T16:27:01.999Z</time></trkpt><trkpt lat="45.36726141062661" lon="9.289009898780197"><ele>92.0</ele><time>2026-05-03T16:27:02.999Z</time></trkpt><trkpt lat="45.367443116806" lon="9.288792129155759"><ele>92.0</ele><time>2026-05-03T16:27:03.999Z</time></trkpt><trkpt lat="45.367622739438616" lon="9.288579647727854"><ele>92.0</ele><time>2026-05-03T16:27:04.999Z</time></trkpt><trkpt lat="45.367795538982875" lon="9.288375939995067"><ele>92.0</ele><time>2026-05-03T16:27:05.999Z</time></trkpt><trkpt lat="45.36795949799621" lon="9.288180181339078"><ele>92.0</ele><time>2026-05-03T16:27:06.999Z</time></trkpt><trkpt lat="45.36811866108732" lon="9.287990572302867"><ele>92.33333333333334</ele><time>2026-05-03T16:27:07.999Z</time></trkpt><trkpt lat="45.36827812780976" lon="9.287800743464107"><ele>92.66666666666667</ele><time>2026-05-03T16:27:08.999Z</time></trkpt><trkpt lat="45.36843624183489" lon="9.287611530259786"><ele>93.0</ele><time>2026-05-03T16:27:09.999Z</time></trkpt><trkpt lat="45.368591225320046" lon="9.287424533389991"><ele>93.0</ele><time>2026-05-03T16:27:10.999Z</time></trkpt><trkpt lat="45.36874497040515" lon="9.287237469733368"><ele>93.0</ele><time>2026-05-03T16:27:11.999Z</time></trkpt><trkpt lat="45.36890172874058" lon="9.287049960906153"><ele>93.0</ele><time>2026-05-03T16:27:12.999Z</time></trkpt><trkpt lat="45.369060198570644" lon="9.286862288309884"><ele>93.0</ele><time>2026-05-03T16:27:13.999Z</time></trkpt><trkpt lat="45.36922192851606" lon="9.28666427066194"><ele>93.0</ele><time>2026-05-03T16:27:14.999Z</time></trkpt><trkpt lat="45.36938830290094" lon="9.286457434464177"><ele>93.0</ele><time>2026-05-03T16:27:15.999Z</time></trkpt><trkpt lat="45.36955990380204" lon="9.28624786345176"><ele>93.0</ele><time>2026-05-03T16:27:16.999Z</time></trkpt><trkpt lat="45.369733899653745" lon="9.286040427069839"><ele>93.0</ele><time>2026-05-03T16:27:17.999Z</time></trkpt><trkpt lat="45.36991008945942" lon="9.285830457769201"><ele>93.0</ele><time>2026-05-03T16:27:18.999Z</time></trkpt><trkpt lat="45.37008987932477" lon="9.285616994023583"><ele>93.0</ele><time>2026-05-03T16:27:19.999Z</time></trkpt><trkpt lat="45.37027220294747" lon="9.285403257299658"><ele>93.0</ele><time>2026-05-03T16:27:20.999Z</time></trkpt><trkpt lat="45.37045356670549" lon="9.28518815283686"><ele>93.0</ele><time>2026-05-03T16:27:21.999Z</time></trkpt><trkpt lat="45.370633760749485" lon="9.284973736808015"><ele>93.0</ele><time>2026-05-03T16:27:22.999Z</time></trkpt><trkpt lat="45.37081487561104" lon="9.284759139099737"><ele>93.0</ele><time>2026-05-03T16:27:23.999Z</time></trkpt><trkpt lat="45.37099482691957" lon="9.284545874627312"><ele>93.0</ele><time>2026-05-03T16:27:24.999Z</time></trkpt><trkpt lat="45.371178659456554" lon="9.28433211479504"><ele>93.0</ele><time>2026-05-03T16:27:25.999Z</time></trkpt><trkpt lat="45.37136175327992" lon="9.28411840384794"><ele>93.5</ele><time>2026-05-03T16:27:26.999Z</time></trkpt><trkpt lat="45.3715466819683" lon="9.283903887318193"><ele>94.0</ele><time>2026-05-03T16:27:27.999Z</time></trkpt><trkpt lat="45.37173356586657" lon="9.28368644307506"><ele>94.0</ele><time>2026-05-03T16:27:28.999Z</time></trkpt><trkpt lat="45.37192285028346" lon="9.283465380514906"><ele>94.0</ele><time>2026-05-03T16:27:29.999Z</time></trkpt><trkpt lat="45.37211568726434" lon="9.283240598825584"><ele>93.5</ele><time>2026-05-03T16:27:30.999Z</time></trkpt><trkpt lat="45.37230836529185" lon="9.283015515461221"><ele>93.0</ele><time>2026-05-03T16:27:31.999Z</time></trkpt><trkpt lat="45.37249896955624" lon="9.282789974056708"><ele>93.0</ele><time>2026-05-03T16:27:32.999Z</time></trkpt><trkpt lat="45.37268674672355" lon="9.282565754215357"><ele>93.0</ele><time>2026-05-03T16:27:33.999Z</time></trkpt><trkpt lat="45.372874590496004" lon="9.28234323544759"><ele>93.0</ele><time>2026-05-03T16:27:34.999Z</time></trkpt><trkpt lat="45.37306197588716" lon="9.282124510875983"><ele>93.0</ele><time>2026-05-03T16:27:35.999Z</time></trkpt><trkpt lat="45.373249266507415" lon="9.281904870432948"><ele>93.0</ele><time>2026-05-03T16:27:36.999Z</time></trkpt><trkpt lat="45.37343530894057" lon="9.281682385144302"><ele>93.0</ele><time>2026-05-03T16:27:37.999Z</time></trkpt><trkpt lat="45.373623050582324" lon="9.281461358901442"><ele>93.0</ele><time>2026-05-03T16:27:38.999Z</time></trkpt><trkpt lat="45.37380959958309" lon="9.281241483596762"><ele>93.0</ele><time>2026-05-03T16:27:39.999Z</time></trkpt><trkpt lat="45.373996828649084" lon="9.281021489320226"><ele>93.0</ele><time>2026-05-03T16:27:40.999Z</time></trkpt><trkpt lat="45.37418411186742" lon="9.280802300799554"><ele>93.0</ele><time>2026-05-03T16:27:41.999Z</time></trkpt><trkpt lat="45.37437353373615" lon="9.280584079708508"><ele>93.5</ele><time>2026-05-03T16:27:42.999Z</time></trkpt><trkpt lat="45.3745622313494" lon="9.280364942560894"><ele>94.0</ele><time>2026-05-03T16:27:43.999Z</time></trkpt><trkpt lat="45.37475146537818" lon="9.280142856100584"><ele>94.0</ele><time>2026-05-03T16:27:44.999Z</time></trkpt><trkpt lat="45.37494280878874" lon="9.279919073063818"><ele>94.0</ele><time>2026-05-03T16:27:45.999Z</time></trkpt><trkpt lat="45.37513393004789" lon="9.279696131957587"><ele>94.5</ele><time>2026-05-03T16:27:46.999Z</time></trkpt><trkpt lat="45.37532531621718" lon="9.279472327197826"><ele>95.0</ele><time>2026-05-03T16:27:47.999Z</time></trkpt><trkpt lat="45.37551766313311" lon="9.279246511147944"><ele>95.0</ele><time>2026-05-03T16:27:48.999Z</time></trkpt><trkpt lat="45.37571135742635" lon="9.279020794231823"><ele>95.0</ele><time>2026-05-03T16:27:49.999Z</time></trkpt><trkpt lat="45.375905410207594" lon="9.278796600010034"><ele>94.5</ele><time>2026-05-03T16:27:50.999Z</time></trkpt><trkpt lat="45.37610265019229" lon="9.278573456635526"><ele>94.0</ele><time>2026-05-03T16:27:51.999Z</time></trkpt><trkpt lat="45.37630295371994" lon="9.278353536315825"><ele>94.5</ele><time>2026-05-03T16:27:52.999Z</time></trkpt><trkpt lat="45.37650511228207" lon="9.278134178054884"><ele>95.0</ele><time>2026-05-03T16:27:53.999Z</time></trkpt><trkpt lat="45.37670533561662" lon="9.277909701682677"><ele>95.5</ele><time>2026-05-03T16:27:54.999Z</time></trkpt><trkpt lat="45.37690380910973" lon="9.277680200982102"><ele>96.0</ele><time>2026-05-03T16:27:55.999Z</time></trkpt><trkpt lat="45.37710298523537" lon="9.277447108248547"><ele>96.0</ele><time>2026-05-03T16:27:56.999Z</time></trkpt><trkpt lat="45.377300954788076" lon="9.277214562293892"><ele>96.0</ele><time>2026-05-03T16:27:57.999Z</time></trkpt><trkpt lat="45.377500957361434" lon="9.276979913510955"><ele>96.0</ele><time>2026-05-03T16:27:58.999Z</time></trkpt><trkpt lat="45.37770361452884" lon="9.276743674691238"><ele>96.0</ele><time>2026-05-03T16:27:59.999Z</time></trkpt><trkpt lat="45.3779092490405" lon="9.27650339571868"><ele>96.0</ele><time>2026-05-03T16:28:00.999Z</time></trkpt><trkpt lat="45.37811567593647" lon="9.276260455678752"><ele>96.0</ele><time>2026-05-03T16:28:01.999Z</time></trkpt><trkpt lat="45.378323290459264" lon="9.27601583384884"><ele>96.0</ele><time>2026-05-03T16:28:02.999Z</time></trkpt><trkpt lat="45.37853221084521" lon="9.275770121735926"><ele>96.0</ele><time>2026-05-03T16:28:03.999Z</time></trkpt><trkpt lat="45.378743651858805" lon="9.275522557385452"><ele>95.5</ele><time>2026-05-03T16:28:04.999Z</time></trkpt><trkpt lat="45.37895772547549" lon="9.27527104039752"><ele>95.0</ele><time>2026-05-03T16:28:05.999Z</time></trkpt><trkpt lat="45.3791730623241" lon="9.275019729860125"><ele>96.0</ele><time>2026-05-03T16:28:06.999Z</time></trkpt><trkpt lat="45.37938825085427" lon="9.274766884639169"><ele>97.0</ele><time>2026-05-03T16:28:07.999Z</time></trkpt><trkpt lat="45.37960366944775" lon="9.2745130658732"><ele>95.5</ele><time>2026-05-03T16:28:08.999Z</time></trkpt><trkpt lat="45.37982170843658" lon="9.27426073514674"><ele>94.0</ele><time>2026-05-03T16:28:09.999Z</time></trkpt><trkpt lat="45.3800409166666" lon="9.274006185126076"><ele>95.5</ele><time>2026-05-03T16:28:10.999Z</time></trkpt><trkpt lat="45.380257421664766" lon="9.273749389517668"><ele>97.0</ele><time>2026-05-03T16:28:11.999Z</time></trkpt><trkpt lat="45.380475803272546" lon="9.273489335747668"><ele>96.5</ele><time>2026-05-03T16:28:12.999Z</time></trkpt><trkpt lat="45.38069284306354" lon="9.273231498112656"><ele>96.0</ele><time>2026-05-03T16:28:13.999Z</time></trkpt><trkpt lat="45.38091144800348" lon="9.272975944460534"><ele>96.0</ele><time>2026-05-03T16:28:14.999Z</time></trkpt><trkpt lat="45.38112982774172" lon="9.2727200595296"><ele>96.0</ele><time>2026-05-03T16:28:15.999Z</time></trkpt><trkpt lat="45.381349690955616" lon="9.272461419840747"><ele>96.0</ele><time>2026-05-03T16:28:16.999Z</time></trkpt><trkpt lat="45.38156974389723" lon="9.272202848112505"><ele>96.0</ele><time>2026-05-03T16:28:17.999Z</time></trkpt><trkpt lat="45.381790577118124" lon="9.271944076747157"><ele>96.0</ele><time>2026-05-03T16:28:18.999Z</time></trkpt><trkpt lat="45.38201286968619" lon="9.271685131673193"><ele>96.0</ele><time>2026-05-03T16:28:19.999Z</time></trkpt><trkpt lat="45.38223462240669" lon="9.271427173811515"><ele>95.0</ele><time>2026-05-03T16:28:20.999Z</time></trkpt><trkpt lat="45.3824569391887" lon="9.271169281117071"><ele>94.0</ele><time>2026-05-03T16:28:22Z</time></trkpt><trkpt lat="45.382676545197484" lon="9.270910854929667"><ele>94.0</ele><time>2026-05-03T16:28:23Z</time></trkpt><trkpt lat="45.38289571994252" lon="9.270651520895976"><ele>94.0</ele><time>2026-05-03T16:28:24Z</time></trkpt><trkpt lat="45.383115974335624" lon="9.270391967576545"><ele>95.5</ele><time>2026-05-03T16:28:25Z</time></trkpt><trkpt lat="45.383334849326786" lon="9.27013540885414"><ele>97.0</ele><time>2026-05-03T16:28:26Z</time></trkpt><trkpt lat="45.383551643077716" lon="9.269880282258441"><ele>97.0</ele><time>2026-05-03T16:28:27Z</time></trkpt><trkpt lat="45.38376809035801" lon="9.269627132786573"><ele>97.0</ele><time>2026-05-03T16:28:28Z</time></trkpt><trkpt lat="45.38398364677137" lon="9.269374986128897"><ele>97.5</ele><time>2026-05-03T16:28:29Z</time></trkpt><trkpt lat="45.384201312137925" lon="9.269121733731687"><ele>98.0</ele><time>2026-05-03T16:28:30Z</time></trkpt><trkpt lat="45.38441488245437" lon="9.26887112943538"><ele>98.0</ele><time>2026-05-03T16:28:31Z</time></trkpt><trkpt lat="45.38462814076727" lon="9.268619191080408"><ele>98.0</ele><time>2026-05-03T16:28:32Z</time></trkpt><trkpt lat="45.38484198236705" lon="9.268365992172956"><ele>97.5</ele><time>2026-05-03T16:28:33Z</time></trkpt><trkpt lat="45.38505742883984" lon="9.268113669496149"><ele>97.0</ele><time>2026-05-03T16:28:34Z</time></trkpt><trkpt lat="45.38527210501416" lon="9.267862807562956"><ele>97.0</ele><time>2026-05-03T16:28:35Z</time></trkpt><trkpt lat="45.38548599224158" lon="9.267613027920675"><ele>97.0</ele><time>2026-05-03T16:28:36Z</time></trkpt><trkpt lat="45.385698769777875" lon="9.26736138277766"><ele>97.0</ele><time>2026-05-03T16:28:37Z</time></trkpt><trkpt lat="45.38591121111592" lon="9.267109494416566"><ele>97.0</ele><time>2026-05-03T16:28:38Z</time></trkpt><trkpt lat="45.38612239543195" lon="9.266860694558003"><ele>97.0</ele><time>2026-05-03T16:28:39Z</time></trkpt><trkpt lat="45.38633638246147" lon="9.266610285917496"><ele>97.0</ele><time>2026-05-03T16:28:40Z</time></trkpt><trkpt lat="45.38654811964477" lon="9.266364322909231"><ele>97.0</ele><time>2026-05-03T16:28:41Z</time></trkpt><trkpt lat="45.38675815300016" lon="9.26611807826958"><ele>97.0</ele><time>2026-05-03T16:28:42Z</time></trkpt><trkpt lat="45.38696477522896" lon="9.265871646257349"><ele>97.0</ele><time>2026-05-03T16:28:43Z</time></trkpt><trkpt lat="45.38716830234278" lon="9.265629001149792"><ele>97.0</ele><time>2026-05-03T16:28:44Z</time></trkpt><trkpt lat="45.387369339668744" lon="9.26538870752613"><ele>97.5</ele><time>2026-05-03T16:28:45Z</time></trkpt><trkpt lat="45.3875688808591" lon="9.265153010326234"><ele>98.0</ele><time>2026-05-03T16:28:46Z</time></trkpt><trkpt lat="45.38776744135968" lon="9.26492179202011"><ele>98.5</ele><time>2026-05-03T16:28:47Z</time></trkpt><trkpt lat="45.38795975816548" lon="9.264698327158019"><ele>99.0</ele><time>2026-05-03T16:28:48Z</time></trkpt><trkpt lat="45.388148844226826" lon="9.264481513122186"><ele>97.0</ele><time>2026-05-03T16:28:49Z</time></trkpt><trkpt lat="45.388331216528684" lon="9.264271006424261"><ele>95.0</ele><time>2026-05-03T16:28:50Z</time></trkpt><trkpt lat="45.38851186991574" lon="9.264060455091654"><ele>95.5</ele><time>2026-05-03T16:28:51Z</time></trkpt><trkpt lat="45.38868841970516" lon="9.263852804044927"><ele>96.0</ele><time>2026-05-03T16:28:52Z</time></trkpt><trkpt lat="45.38886317804824" lon="9.26364188921077"><ele>96.0</ele><time>2026-05-03T16:28:53Z</time></trkpt><trkpt lat="45.38903829348275" lon="9.263424286160417"><ele>96.0</ele><time>2026-05-03T16:28:54Z</time></trkpt><trkpt lat="45.38922021247633" lon="9.263212028947402"><ele>96.5</ele><time>2026-05-03T16:28:55Z</time></trkpt><trkpt lat="45.38941110856431" lon="9.263013537526215"><ele>97.0</ele><time>2026-05-03T16:28:56Z</time></trkpt><trkpt lat="45.38960931646693" lon="9.262829365276792"><ele>96.66666666666667</ele><time>2026-05-03T16:28:57Z</time></trkpt><trkpt lat="45.38980224209819" lon="9.26266813606406"><ele>96.33333333333334</ele><time>2026-05-03T16:28:58Z</time></trkpt><trkpt lat="45.38999625675058" lon="9.262512996116572"><ele>96.0</ele><time>2026-05-03T16:28:59Z</time></trkpt><trkpt lat="45.390191279213155" lon="9.262358223781865"><ele>97.5</ele><time>2026-05-03T16:29:00Z</time></trkpt><trkpt lat="45.39038718489183" lon="9.2622016516136"><ele>99.0</ele><time>2026-05-03T16:29:01Z</time></trkpt><trkpt lat="45.39058690819725" lon="9.262049301617655"><ele>99.0</ele><time>2026-05-03T16:29:02Z</time></trkpt><trkpt lat="45.390783301005605" lon="9.26190178713377"><ele>99.0</ele><time>2026-05-03T16:29:03Z</time></trkpt><trkpt lat="45.3910211795777" lon="9.261737628556995"><ele>99.0</ele><time>2026-05-03T16:29:04Z</time></trkpt><trkpt lat="45.391245162322036" lon="9.261597487111814"><ele>99.0</ele><time>2026-05-03T16:29:05Z</time></trkpt><trkpt lat="45.39148226955923" lon="9.261472081314578"><ele>98.5</ele><time>2026-05-03T16:29:06Z</time></trkpt><trkpt lat="45.3917194684955" lon="9.261340008914182"><ele>98.0</ele><time>2026-05-03T16:29:07Z</time></trkpt><trkpt lat="45.3919641653006" lon="9.261221369407123"><ele>99.5</ele><time>2026-05-03T16:29:08Z</time></trkpt><trkpt lat="45.392209563253616" lon="9.26110571436907"><ele>101.0</ele><time>2026-05-03T16:29:09Z</time></trkpt><trkpt lat="45.39245904060179" lon="9.260996832210871"><ele>101.0</ele><time>2026-05-03T16:29:10Z</time></trkpt><trkpt lat="45.39270400415499" lon="9.26090088258606"><ele>101.0</ele><time>2026-05-03T16:29:11Z</time></trkpt><trkpt lat="45.392949450244146" lon="9.260814169218468"><ele>101.0</ele><time>2026-05-03T16:29:12Z</time></trkpt><trkpt lat="45.39320069952473" lon="9.260736880202883"><ele>101.0</ele><time>2026-05-03T16:29:13Z</time></trkpt><trkpt lat="45.393459948152966" lon="9.260660295156903"><ele>101.0</ele><time>2026-05-03T16:29:14Z</time></trkpt><trkpt lat="45.393713574641104" lon="9.260596041506833"><ele>101.0</ele><time>2026-05-03T16:29:15Z</time></trkpt><trkpt lat="45.39396776806725" lon="9.260541456768639"><ele>101.5</ele><time>2026-05-03T16:29:16Z</time></trkpt><trkpt lat="45.39422185139726" lon="9.260497920547662"><ele>102.0</ele><time>2026-05-03T16:29:17Z</time></trkpt><trkpt lat="45.39447532625042" lon="9.260461607001167"><ele>101.0</ele><time>2026-05-03T16:29:18Z</time></trkpt><trkpt lat="45.394728947394" lon="9.26043512267739"><ele>100.0</ele><time>2026-05-03T16:29:19Z</time></trkpt><trkpt lat="45.39498341683372" lon="9.260419634002993"><ele>100.0</ele><time>2026-05-03T16:29:20Z</time></trkpt><trkpt lat="45.395227014857646" lon="9.260416734401652"><ele>100.0</ele><time>2026-05-03T16:29:21Z</time></trkpt><trkpt lat="45.39547271806561" lon="9.260415105435172"><ele>100.0</ele><time>2026-05-03T16:29:22Z</time></trkpt><trkpt lat="45.39571406712878" lon="9.260417626231398"><ele>100.0</ele><time>2026-05-03T16:29:23Z</time></trkpt><trkpt lat="45.39595784298243" lon="9.260423106925664"><ele>100.0</ele><time>2026-05-03T16:29:24Z</time></trkpt><trkpt lat="45.396196810606284" lon="9.26044148229348"><ele>100.0</ele><time>2026-05-03T16:29:25Z</time></trkpt><trkpt lat="45.396438424391214" lon="9.260473383673911"><ele>100.0</ele><time>2026-05-03T16:29:26Z</time></trkpt><trkpt lat="45.396685877633765" lon="9.26050410706575"><ele>100.0</ele><time>2026-05-03T16:29:27Z</time></trkpt><trkpt lat="45.396933161758305" lon="9.260523634833913"><ele>100.5</ele><time>2026-05-03T16:29:28Z</time></trkpt><trkpt lat="45.397184996123514" lon="9.260552136058466"><ele>101.0</ele><time>2026-05-03T16:29:29Z</time></trkpt><trkpt lat="45.3974397564323" lon="9.260573942223013"><ele>101.0</ele><time>2026-05-03T16:29:30Z</time></trkpt><trkpt lat="45.397693514697615" lon="9.260580276088914"><ele>101.0</ele><time>2026-05-03T16:29:31Z</time></trkpt><trkpt lat="45.397952547424744" lon="9.260604420499485"><ele>101.0</ele><time>2026-05-03T16:29:32Z</time></trkpt><trkpt lat="45.398215826131" lon="9.26063403475666"><ele>101.0</ele><time>2026-05-03T16:29:33Z</time></trkpt><trkpt lat="45.39848222419958" lon="9.260664291270016"><ele>101.0</ele><time>2026-05-03T16:29:34Z</time></trkpt><trkpt lat="45.39874148250205" lon="9.260693832885412"><ele>101.0</ele><time>2026-05-03T16:29:35Z</time></trkpt><trkpt lat="45.39900472596475" lon="9.260722315002127"><ele>101.0</ele><time>2026-05-03T16:29:36Z</time></trkpt><trkpt lat="45.39926755297577" lon="9.260751487704852"><ele>101.0</ele><time>2026-05-03T16:29:37Z</time></trkpt><trkpt lat="45.39952993902373" lon="9.260778215967271"><ele>99.5</ele><time>2026-05-03T16:29:38Z</time></trkpt><trkpt lat="45.399792231878195" lon="9.260802779296728"><ele>98.0</ele><time>2026-05-03T16:29:39Z</time></trkpt><trkpt lat="45.400054137232196" lon="9.260835418699124"><ele>98.0</ele><time>2026-05-03T16:29:40Z</time></trkpt><trkpt lat="45.400316562645415" lon="9.260864934632416"><ele>98.0</ele><time>2026-05-03T16:29:41Z</time></trkpt><trkpt lat="45.40057692741652" lon="9.260889455786684"><ele>98.0</ele><time>2026-05-03T16:29:42Z</time></trkpt><trkpt lat="45.40084177416549" lon="9.260916095042312"><ele>98.0</ele><time>2026-05-03T16:29:43Z</time></trkpt><trkpt lat="45.401106372006474" lon="9.260946942507108"><ele>98.5</ele><time>2026-05-03T16:29:44Z</time></trkpt><trkpt lat="45.401372607706804" lon="9.260979251239887"><ele>99.0</ele><time>2026-05-03T16:29:45Z</time></trkpt><trkpt lat="45.401639192125046" lon="9.261009421500251"><ele>99.0</ele><time>2026-05-03T16:29:46Z</time></trkpt><trkpt lat="45.40190875152177" lon="9.261037691755247"><ele>99.0</ele><time>2026-05-03T16:29:47Z</time></trkpt><trkpt lat="45.402180282624855" lon="9.261070228114004"><ele>99.0</ele><time>2026-05-03T16:29:48Z</time></trkpt><trkpt lat="45.40245214685738" lon="9.26110372317741"><ele>99.0</ele><time>2026-05-03T16:29:49Z</time></trkpt><trkpt lat="45.402725787288865" lon="9.261138064132965"><ele>99.5</ele><time>2026-05-03T16:29:50Z</time></trkpt><trkpt lat="45.402998520781146" lon="9.261168900817502"><ele>100.0</ele><time>2026-05-03T16:29:51Z</time></trkpt><trkpt lat="45.40326908033786" lon="9.261200608703124"><ele>100.0</ele><time>2026-05-03T16:29:52Z</time></trkpt><trkpt lat="45.403537570371284" lon="9.261235426787472"><ele>100.0</ele><time>2026-05-03T16:29:53Z</time></trkpt><trkpt lat="45.40380292382831" lon="9.261263034460749"><ele>99.5</ele><time>2026-05-03T16:29:54Z</time></trkpt><trkpt lat="45.40406817768003" lon="9.261291998423825"><ele>99.0</ele><time>2026-05-03T16:29:55Z</time></trkpt><trkpt lat="45.404328993266155" lon="9.261320671612305"><ele>99.0</ele><time>2026-05-03T16:29:56Z</time></trkpt><trkpt lat="45.4045884486373" lon="9.261352205551884"><ele>99.0</ele><time>2026-05-03T16:29:57Z</time></trkpt><trkpt lat="45.404845802788465" lon="9.261387468671433"><ele>98.5</ele><time>2026-05-03T16:29:58Z</time></trkpt><trkpt lat="45.405100365335194" lon="9.261418643268719"><ele>98.0</ele><time>2026-05-03T16:29:59Z</time></trkpt><trkpt lat="45.40535400665844" lon="9.261443202794743"><ele>98.5</ele><time>2026-05-03T16:30:00Z</time></trkpt><trkpt lat="45.40560975973421" lon="9.261454567569821"><ele>99.0</ele><time>2026-05-03T16:30:01Z</time></trkpt><trkpt lat="45.40586164645361" lon="9.26145546656303"><ele>99.0</ele><time>2026-05-03T16:30:02Z</time></trkpt><trkpt lat="45.40611086486788" lon="9.261443273817292"><ele>99.0</ele><time>2026-05-03T16:30:03Z</time></trkpt><trkpt lat="45.40635681511087" lon="9.26141538729427"><ele>99.0</ele><time>2026-05-03T16:30:04Z</time></trkpt><trkpt lat="45.406597691811896" lon="9.261367534706139"><ele>99.0</ele><time>2026-05-03T16:30:05Z</time></trkpt><trkpt lat="45.406834449830306" lon="9.261302566997067"><ele>99.0</ele><time>2026-05-03T16:30:06Z</time></trkpt><trkpt lat="45.407070239925304" lon="9.261219312376685"><ele>99.0</ele><time>2026-05-03T16:30:07Z</time></trkpt><trkpt lat="45.407300911947864" lon="9.261127271534075"><ele>98.5</ele><time>2026-05-03T16:30:08Z</time></trkpt><trkpt lat="45.40752349634142" lon="9.26101392699694"><ele>98.0</ele><time>2026-05-03T16:30:09Z</time></trkpt><trkpt lat="45.40774730152714" lon="9.260864897493486"><ele>98.0</ele><time>2026-05-03T16:30:10Z</time></trkpt><trkpt lat="45.40796417538456" lon="9.260718429322097"><ele>98.0</ele><time>2026-05-03T16:30:11Z</time></trkpt><trkpt lat="45.40817387014314" lon="9.260546577540806"><ele>98.0</ele><time>2026-05-03T16:30:12Z</time></trkpt><trkpt lat="45.408378978069855" lon="9.260355825068228"><ele>98.0</ele><time>2026-05-03T16:30:13Z</time></trkpt><trkpt lat="45.40858025252628" lon="9.26014622575243"><ele>98.0</ele><time>2026-05-03T16:30:14Z</time></trkpt><trkpt lat="45.40877648559098" lon="9.259923777068058"><ele>98.0</ele><time>2026-05-03T16:30:15Z</time></trkpt><trkpt lat="45.40896924018437" lon="9.25968996307361"><ele>98.0</ele><time>2026-05-03T16:30:16Z</time></trkpt><trkpt lat="45.4091599719686" lon="9.259450679260931"><ele>98.0</ele><time>2026-05-03T16:30:17Z</time></trkpt><trkpt lat="45.40935113769989" lon="9.259211882445326"><ele>98.0</ele><time>2026-05-03T16:30:18Z</time></trkpt><trkpt lat="45.40953880096871" lon="9.258973306107341"><ele>98.0</ele><time>2026-05-03T16:30:19Z</time></trkpt><trkpt lat="45.4097263892804" lon="9.25873333808627"><ele>100.0</ele><time>2026-05-03T16:30:20Z</time></trkpt><trkpt lat="45.40991091288002" lon="9.258497814338435"><ele>102.0</ele><time>2026-05-03T16:30:21Z</time></trkpt><trkpt lat="45.41009716866861" lon="9.258265968888647"><ele>101.0</ele><time>2026-05-03T16:30:22Z</time></trkpt><trkpt lat="45.41028149399418" lon="9.258030811100628"><ele>100.0</ele><time>2026-05-03T16:30:23Z</time></trkpt><trkpt lat="45.410462340051694" lon="9.257800369103983"><ele>101.0</ele><time>2026-05-03T16:30:24Z</time></trkpt><trkpt lat="45.410648610141806" lon="9.25756941710246"><ele>102.0</ele><time>2026-05-03T16:30:25Z</time></trkpt><trkpt lat="45.41083396208857" lon="9.257332232812162"><ele>100.5</ele><time>2026-05-03T16:30:26Z</time></trkpt><trkpt lat="45.41101961284994" lon="9.25710015245876"><ele>99.0</ele><time>2026-05-03T16:30:27Z</time></trkpt><trkpt lat="45.411207752600355" lon="9.256862037207968"><ele>99.5</ele><time>2026-05-03T16:30:28Z</time></trkpt><trkpt lat="45.411396305258926" lon="9.256627242852739"><ele>100.0</ele><time>2026-05-03T16:30:29Z</time></trkpt><trkpt lat="45.41158434426572" lon="9.256390592861823"><ele>100.0</ele><time>2026-05-03T16:30:30Z</time></trkpt><trkpt lat="45.4117740497687" lon="9.256148945898765"><ele>100.0</ele><time>2026-05-03T16:30:31Z</time></trkpt><trkpt lat="45.41196281152273" lon="9.255909255644102"><ele>100.0</ele><time>2026-05-03T16:30:32Z</time></trkpt><trkpt lat="45.412151968885524" lon="9.255674177451052"><ele>100.0</ele><time>2026-05-03T16:30:33Z</time></trkpt><trkpt lat="45.412342010936655" lon="9.25543609428173"><ele>100.0</ele><time>2026-05-03T16:30:34Z</time></trkpt><trkpt lat="45.412532382848184" lon="9.25519337554165"><ele>100.0</ele><time>2026-05-03T16:30:35Z</time></trkpt><trkpt lat="45.412724436743865" lon="9.25495483779761"><ele>100.5</ele><time>2026-05-03T16:30:36Z</time></trkpt><trkpt lat="45.41291522035477" lon="9.25470789164172"><ele>101.0</ele><time>2026-05-03T16:30:37Z</time></trkpt><trkpt lat="45.41310498944975" lon="9.254458172809507"><ele>101.0</ele><time>2026-05-03T16:30:38Z</time></trkpt><trkpt lat="45.41329493637947" lon="9.254202591882072"><ele>101.0</ele><time>2026-05-03T16:30:39Z</time></trkpt><trkpt lat="45.41348277740925" lon="9.253945486103888"><ele>102.0</ele><time>2026-05-03T16:30:40Z</time></trkpt><trkpt lat="45.41367393238312" lon="9.253685318061141"><ele>103.0</ele><time>2026-05-03T16:30:41Z</time></trkpt><trkpt lat="45.41386565451809" lon="9.253421983330346"><ele>103.0</ele><time>2026-05-03T16:30:42Z</time></trkpt><trkpt lat="45.41405557880614" lon="9.253158216520925"><ele>103.0</ele><time>2026-05-03T16:30:43Z</time></trkpt><trkpt lat="45.41424930125982" lon="9.252885642380303"><ele>104.5</ele><time>2026-05-03T16:30:44Z</time></trkpt><trkpt lat="45.414442096703056" lon="9.252616968589647"><ele>106.0</ele><time>2026-05-03T16:30:45Z</time></trkpt><trkpt lat="45.41463404593142" lon="9.252339000397651"><ele>102.5</ele><time>2026-05-03T16:30:46Z</time></trkpt><trkpt lat="45.41482584048403" lon="9.252064263007368"><ele>99.0</ele><time>2026-05-03T16:30:47Z</time></trkpt><trkpt lat="45.4150147575208" lon="9.251782919720172"><ele>99.0</ele><time>2026-05-03T16:30:48Z</time></trkpt><trkpt lat="45.41520643594401" lon="9.251503727991158"><ele>99.0</ele><time>2026-05-03T16:30:49Z</time></trkpt><trkpt lat="45.4153974830133" lon="9.251222562929884"><ele>99.5</ele><time>2026-05-03T16:30:50Z</time></trkpt><trkpt lat="45.41558580829771" lon="9.250935654098217"><ele>100.0</ele><time>2026-05-03T16:30:51Z</time></trkpt><trkpt lat="45.415773827807904" lon="9.250654055039893"><ele>101.5</ele><time>2026-05-03T16:30:52Z</time></trkpt><trkpt lat="45.415962042481894" lon="9.250371076264273"><ele>103.0</ele><time>2026-05-03T16:30:53Z</time></trkpt><trkpt lat="45.41614988229738" lon="9.250085992341173"><ele>102.5</ele><time>2026-05-03T16:30:54Z</time></trkpt><trkpt lat="45.41633710572182" lon="9.249802332465984"><ele>102.0</ele><time>2026-05-03T16:30:55Z</time></trkpt><trkpt lat="45.41652545259544" lon="9.249517388421014"><ele>102.0</ele><time>2026-05-03T16:30:56Z</time></trkpt><trkpt lat="45.416715437615515" lon="9.249230956638865"><ele>102.0</ele><time>2026-05-03T16:30:57Z</time></trkpt><trkpt lat="45.41690297052752" lon="9.2489478560653"><ele>102.0</ele><time>2026-05-03T16:30:58Z</time></trkpt><trkpt lat="45.417093431283334" lon="9.24866295916553"><ele>102.0</ele><time>2026-05-03T16:30:59Z</time></trkpt><trkpt lat="45.41728734165455" lon="9.248381798637428"><ele>101.0</ele><time>2026-05-03T16:31:00Z</time></trkpt><trkpt lat="45.41748695886378" lon="9.248109687644208"><ele>100.0</ele><time>2026-05-03T16:31:01Z</time></trkpt><trkpt lat="45.41769335416668" lon="9.247852763150657"><ele>100.0</ele><time>2026-05-03T16:31:02Z</time></trkpt><trkpt lat="45.41790926709702" lon="9.247607205858774"><ele>100.0</ele><time>2026-05-03T16:31:03Z</time></trkpt><trkpt lat="45.41813156731449" lon="9.247372568813345"><ele>100.5</ele><time>2026-05-03T16:31:04Z</time></trkpt><trkpt lat="45.41835893962176" lon="9.247149630076905"><ele>101.0</ele><time>2026-05-03T16:31:05Z</time></trkpt><trkpt lat="45.418593244466926" lon="9.246945106888486"><ele>103.0</ele><time>2026-05-03T16:31:06Z</time></trkpt><trkpt lat="45.41884522653032" lon="9.246779303752119"><ele>105.0</ele><time>2026-05-03T16:31:07Z</time></trkpt><trkpt lat="45.41910448623583" lon="9.246632910348222"><ele>105.0</ele><time>2026-05-03T16:31:08Z</time></trkpt><trkpt lat="45.419367097953256" lon="9.246498412739149"><ele>105.0</ele><time>2026-05-03T16:31:09Z</time></trkpt><trkpt lat="45.419630839850676" lon="9.246375868966188"><ele>105.0</ele><time>2026-05-03T16:31:10Z</time></trkpt><trkpt lat="45.41989892193007" lon="9.246270464698355"><ele>105.0</ele><time>2026-05-03T16:31:11Z</time></trkpt><trkpt lat="45.420170703383356" lon="9.24618596915222"><ele>105.0</ele><time>2026-05-03T16:31:12Z</time></trkpt><trkpt lat="45.42044929373888" lon="9.246122333778224"><ele>105.0</ele><time>2026-05-03T16:31:13Z</time></trkpt><trkpt lat="45.42073317316279" lon="9.246074028298924"><ele>106.0</ele><time>2026-05-03T16:31:14Z</time></trkpt><trkpt lat="45.421017390697585" lon="9.246037783003406"><ele>107.0</ele><time>2026-05-03T16:31:15Z</time></trkpt><trkpt lat="45.421302194428506" lon="9.246006381981104"><ele>107.0</ele><time>2026-05-03T16:31:16Z</time></trkpt><trkpt lat="45.42158473244744" lon="9.245975200869763"><ele>107.0</ele><time>2026-05-03T16:31:17Z</time></trkpt><trkpt lat="45.421867876435535" lon="9.245940986892522"><ele>107.0</ele><time>2026-05-03T16:31:18Z</time></trkpt><trkpt lat="45.42214754214189" lon="9.24590437446099"><ele>107.0</ele><time>2026-05-03T16:31:19Z</time></trkpt><trkpt lat="45.422422805193975" lon="9.245868328058785"><ele>106.0</ele><time>2026-05-03T16:31:20Z</time></trkpt><trkpt lat="45.4226942792598" lon="9.245836167928731"><ele>105.0</ele><time>2026-05-03T16:31:21Z</time></trkpt><trkpt lat="45.422963433987064" lon="9.245805601912924"><ele>104.0</ele><time>2026-05-03T16:31:22Z</time></trkpt><trkpt lat="45.42322767648093" lon="9.245774801160842"><ele>103.0</ele><time>2026-05-03T16:31:23Z</time></trkpt><trkpt lat="45.423492046139586" lon="9.24574351209021"><ele>103.0</ele><time>2026-05-03T16:31:24Z</time></trkpt><trkpt lat="45.42375402440392" lon="9.245712069487546"><ele>103.0</ele><time>2026-05-03T16:31:25Z</time></trkpt><trkpt lat="45.42401196964365" lon="9.245680765834333"><ele>102.5</ele><time>2026-05-03T16:31:26Z</time></trkpt><trkpt lat="45.42426835308353" lon="9.245650488473784"><ele>102.0</ele><time>2026-05-03T16:31:27Z</time></trkpt><trkpt lat="45.42451844923401" lon="9.245620391727096"><ele>103.0</ele><time>2026-05-03T16:31:28Z</time></trkpt><trkpt lat="45.42475775610468" lon="9.245596231188932"><ele>104.0</ele><time>2026-05-03T16:31:29Z</time></trkpt><trkpt lat="45.42498657086029" lon="9.245581040891885"><ele>104.0</ele><time>2026-05-03T16:31:30Z</time></trkpt><trkpt lat="45.425215531970856" lon="9.245574922199777"><ele>104.0</ele><time>2026-05-03T16:31:31Z</time></trkpt><trkpt lat="45.42545030260113" lon="9.245575399693116"><ele>104.5</ele><time>2026-05-03T16:31:32Z</time></trkpt><trkpt lat="45.42568167665027" lon="9.245590155673577"><ele>105.0</ele><time>2026-05-03T16:31:33Z</time></trkpt><trkpt lat="45.425918882418166" lon="9.245620130902536"><ele>104.5</ele><time>2026-05-03T16:31:34Z</time></trkpt><trkpt lat="45.42615497913744" lon="9.245672661449762"><ele>104.0</ele><time>2026-05-03T16:31:35Z</time></trkpt><trkpt lat="45.426391948024616" lon="9.24575868657934"><ele>102.5</ele><time>2026-05-03T16:31:36Z</time></trkpt><trkpt lat="45.42662788051229" lon="9.245861224351893"><ele>101.0</ele><time>2026-05-03T16:31:37Z</time></trkpt><trkpt lat="45.426862136056634" lon="9.245980670798296"><ele>101.0</ele><time>2026-05-03T16:31:38Z</time></trkpt><trkpt lat="45.42709242789753" lon="9.246120979995611"><ele>101.0</ele><time>2026-05-03T16:31:39Z</time></trkpt><trkpt lat="45.42731980749711" lon="9.246280854695065"><ele>102.5</ele><time>2026-05-03T16:31:40Z</time></trkpt><trkpt lat="45.42754422100682" lon="9.24645943099668"><ele>104.0</ele><time>2026-05-03T16:31:41Z</time></trkpt><trkpt lat="45.42776174997284" lon="9.246653152154291"><ele>105.0</ele><time>2026-05-03T16:31:42Z</time></trkpt><trkpt lat="45.427975182837066" lon="9.246863606916795"><ele>106.0</ele><time>2026-05-03T16:31:43Z</time></trkpt><trkpt lat="45.428180918888216" lon="9.247088799849749"><ele>108.5</ele><time>2026-05-03T16:31:44Z</time></trkpt><trkpt lat="45.4283753378283" lon="9.247325105827489"><ele>111.0</ele><time>2026-05-03T16:31:45Z</time></trkpt><trkpt lat="45.42855924119954" lon="9.247576802696155"><ele>111.0</ele><time>2026-05-03T16:31:46Z</time></trkpt><trkpt lat="45.42872950539251" lon="9.24783409047963"><ele>111.0</ele><time>2026-05-03T16:31:47Z</time></trkpt><trkpt lat="45.4288923168568" lon="9.248092808822667"><ele>110.5</ele><time>2026-05-03T16:31:48Z</time></trkpt><trkpt lat="45.429048944988025" lon="9.248350640477877"><ele>110.0</ele><time>2026-05-03T16:31:49Z</time></trkpt><trkpt lat="45.429204276411696" lon="9.248611192921034"><ele>110.0</ele><time>2026-05-03T16:31:50Z</time></trkpt><trkpt lat="45.42936485931305" lon="9.248872965408227"><ele>110.0</ele><time>2026-05-03T16:31:51Z</time></trkpt><trkpt lat="45.42952557839241" lon="9.24913571791217"><ele>108.5</ele><time>2026-05-03T16:31:52Z</time></trkpt><trkpt lat="45.429686621136455" lon="9.249400157742242"><ele>107.0</ele><time>2026-05-03T16:31:53Z</time></trkpt><trkpt lat="45.429849907404346" lon="9.249665061706416"><ele>107.0</ele><time>2026-05-03T16:31:54Z</time></trkpt><trkpt lat="45.43001513170646" lon="9.249931814637735"><ele>107.0</ele><time>2026-05-03T16:31:55Z</time></trkpt><trkpt lat="45.430182747274614" lon="9.250202108208414"><ele>107.0</ele><time>2026-05-03T16:31:56Z</time></trkpt><trkpt lat="45.430351885030994" lon="9.250474619245159"><ele>107.0</ele><time>2026-05-03T16:31:57Z</time></trkpt><trkpt lat="45.43052225874197" lon="9.250748441258745"><ele>106.5</ele><time>2026-05-03T16:31:58Z</time></trkpt><trkpt lat="45.43069391325131" lon="9.25102332760867"><ele>106.0</ele><time>2026-05-03T16:31:59Z</time></trkpt><trkpt lat="45.43086843809686" lon="9.25129962014348"><ele>106.0</ele><time>2026-05-03T16:32:00Z</time></trkpt><trkpt lat="45.431046534974406" lon="9.251575671079596"><ele>106.0</ele><time>2026-05-03T16:32:01Z</time></trkpt><trkpt lat="45.431232357212174" lon="9.251847936188035"><ele>105.5</ele><time>2026-05-03T16:32:02Z</time></trkpt><trkpt lat="45.431426392985216" lon="9.252113961851826"><ele>105.0</ele><time>2026-05-03T16:32:03Z</time></trkpt><trkpt lat="45.43162483867989" lon="9.25237651740324"><ele>104.5</ele><time>2026-05-03T16:32:04Z</time></trkpt><trkpt lat="45.43182880559451" lon="9.252629688115098"><ele>104.0</ele><time>2026-05-03T16:32:05Z</time></trkpt><trkpt lat="45.43203933148588" lon="9.25287870801024"><ele>103.0</ele><time>2026-05-03T16:32:06Z</time></trkpt><trkpt lat="45.432254997068824" lon="9.253121884491401"><ele>102.0</ele><time>2026-05-03T16:32:07Z</time></trkpt><trkpt lat="45.43247371156162" lon="9.253358761802895"><ele>102.0</ele><time>2026-05-03T16:32:08Z</time></trkpt><trkpt lat="45.43269412945801" lon="9.253592134063622"><ele>102.0</ele><time>2026-05-03T16:32:09Z</time></trkpt><trkpt lat="45.43291895545835" lon="9.253821902099572"><ele>104.5</ele><time>2026-05-03T16:32:10Z</time></trkpt><trkpt lat="45.433146369433516" lon="9.254044116494343"><ele>107.0</ele><time>2026-05-03T16:32:11Z</time></trkpt><trkpt lat="45.433380599776854" lon="9.254255927143944"><ele>107.0</ele><time>2026-05-03T16:32:12Z</time></trkpt><trkpt lat="45.43361970817408" lon="9.254460423870139"><ele>107.0</ele><time>2026-05-03T16:32:13Z</time></trkpt><trkpt lat="45.433865402611595" lon="9.254655831578123"><ele>107.0</ele><time>2026-05-03T16:32:14Z</time></trkpt><trkpt lat="45.43411750496134" lon="9.254841177455157"><ele>107.0</ele><time>2026-05-03T16:32:15Z</time></trkpt><trkpt lat="45.43437260104279" lon="9.255016989663575"><ele>107.0</ele><time>2026-05-03T16:32:16Z</time></trkpt><trkpt lat="45.43463038921895" lon="9.255183721204808"><ele>107.0</ele><time>2026-05-03T16:32:17Z</time></trkpt><trkpt lat="45.43489298805695" lon="9.255344316053193"><ele>106.5</ele><time>2026-05-03T16:32:18Z</time></trkpt><trkpt lat="45.43515799718541" lon="9.255495465984408"><ele>106.0</ele><time>2026-05-03T16:32:19Z</time></trkpt><trkpt lat="45.43542515069796" lon="9.255637771526631"><ele>107.0</ele><time>2026-05-03T16:32:20Z</time></trkpt><trkpt lat="45.43569523850405" lon="9.255767349354652"><ele>108.0</ele><time>2026-05-03T16:32:21Z</time></trkpt><trkpt lat="45.43596747595166" lon="9.255885463002347"><ele>108.0</ele><time>2026-05-03T16:32:22Z</time></trkpt><trkpt lat="45.436245316217416" lon="9.256006441850383"><ele>108.0</ele><time>2026-05-03T16:32:23Z</time></trkpt><trkpt lat="45.4365225968894" lon="9.256117877772793"><ele>107.0</ele><time>2026-05-03T16:32:24Z</time></trkpt><trkpt lat="45.4368026385069" lon="9.256217948273703"><ele>106.0</ele><time>2026-05-03T16:32:25Z</time></trkpt><trkpt lat="45.437080403888835" lon="9.256309105918326"><ele>107.0</ele><time>2026-05-03T16:32:26Z</time></trkpt><trkpt lat="45.437360294496166" lon="9.256396960536613"><ele>108.0</ele><time>2026-05-03T16:32:26.999Z</time></trkpt><trkpt lat="45.437639811594806" lon="9.256479961807196"><ele>106.0</ele><time>2026-05-03T16:32:27.999Z</time></trkpt><trkpt lat="45.43791691372999" lon="9.256559370661723"><ele>104.0</ele><time>2026-05-03T16:32:28.999Z</time></trkpt><trkpt lat="45.4381939324931" lon="9.256637440633831"><ele>104.0</ele><time>2026-05-03T16:32:29.999Z</time></trkpt><trkpt lat="45.43846964293489" lon="9.25671630428075"><ele>104.0</ele><time>2026-05-03T16:32:31Z</time></trkpt><trkpt lat="45.438742730513894" lon="9.256795722255987"><ele>104.0</ele><time>2026-05-03T16:32:32Z</time></trkpt><trkpt lat="45.43901353582492" lon="9.256872343132716"><ele>104.0</ele><time>2026-05-03T16:32:33Z</time></trkpt><trkpt lat="45.43928174960928" lon="9.256946183388502"><ele>104.0</ele><time>2026-05-03T16:32:34Z</time></trkpt><trkpt lat="45.43954820779334" lon="9.257021640034159"><ele>104.0</ele><time>2026-05-03T16:32:35Z</time></trkpt><trkpt lat="45.4398123707598" lon="9.257097429035385"><ele>104.5</ele><time>2026-05-03T16:32:36Z</time></trkpt><trkpt lat="45.44007375793532" lon="9.257170975093942"><ele>105.0</ele><time>2026-05-03T16:32:37Z</time></trkpt><trkpt lat="45.440331399305286" lon="9.257243811478087"><ele>104.0</ele><time>2026-05-03T16:32:38Z</time></trkpt><trkpt lat="45.44058705533007" lon="9.257315685893984"><ele>103.0</ele><time>2026-05-03T16:32:39Z</time></trkpt><trkpt lat="45.440841238476544" lon="9.257384881410907"><ele>103.0</ele><time>2026-05-03T16:32:40Z</time></trkpt><trkpt lat="45.44109247325548" lon="9.257453647679107"><ele>103.0</ele><time>2026-05-03T16:32:41Z</time></trkpt><trkpt lat="45.44134028417108" lon="9.257522920266528"><ele>100.5</ele><time>2026-05-03T16:32:42Z</time></trkpt><trkpt lat="45.441585433958274" lon="9.25759614587796"><ele>98.0</ele><time>2026-05-03T16:32:43Z</time></trkpt><trkpt lat="45.44182671071708" lon="9.257668824390802"><ele>98.0</ele><time>2026-05-03T16:32:44Z</time></trkpt><trkpt lat="45.44206550843974" lon="9.257739638910216"><ele>98.0</ele><time>2026-05-03T16:32:45Z</time></trkpt><trkpt lat="45.442303884055484" lon="9.257808663748072"><ele>101.0</ele><time>2026-05-03T16:32:46Z</time></trkpt><trkpt lat="45.4425384384497" lon="9.257875615611084"><ele>104.0</ele><time>2026-05-03T16:32:47Z</time></trkpt><trkpt lat="45.442770692781096" lon="9.257942177606807"><ele>100.5</ele><time>2026-05-03T16:32:48Z</time></trkpt><trkpt lat="45.443004402816655" lon="9.258006510544556"><ele>97.0</ele><time>2026-05-03T16:32:49Z</time></trkpt><trkpt lat="45.4432371273902" lon="9.258071493379472"><ele>99.0</ele><time>2026-05-03T16:32:50Z</time></trkpt><trkpt lat="45.443468215990364" lon="9.258138744833964"><ele>101.0</ele><time>2026-05-03T16:32:51Z</time></trkpt><trkpt lat="45.443697203043044" lon="9.258205758287229"><ele>96.5</ele><time>2026-05-03T16:32:52Z</time></trkpt><trkpt lat="45.443924674831685" lon="9.258272000370523"><ele>92.0</ele><time>2026-05-03T16:32:53Z</time></trkpt><trkpt lat="45.44415156564656" lon="9.258337354592475"><ele>92.0</ele><time>2026-05-03T16:32:54Z</time></trkpt><trkpt lat="45.44437904395597" lon="9.258402450435277"><ele>92.0</ele><time>2026-05-03T16:32:55Z</time></trkpt><trkpt lat="45.44460942145133" lon="9.25846846549361"><ele>91.5</ele><time>2026-05-03T16:32:56Z</time></trkpt><trkpt lat="45.444841428248125" lon="9.258534022573455"><ele>91.0</ele><time>2026-05-03T16:32:57Z</time></trkpt><trkpt lat="45.44507518760005" lon="9.258601791084551"><ele>91.0</ele><time>2026-05-03T16:32:58Z</time></trkpt><trkpt lat="45.44531093464371" lon="9.25866886278944"><ele>91.0</ele><time>2026-05-03T16:32:59Z</time></trkpt><trkpt lat="45.44554937555966" lon="9.258737816251749"><ele>96.0</ele><time>2026-05-03T16:33:00Z</time></trkpt><trkpt lat="45.44578670794725" lon="9.25880838768455"><ele>101.0</ele><time>2026-05-03T16:33:01Z</time></trkpt><trkpt lat="45.44602624241326" lon="9.258876698814289"><ele>101.0</ele><time>2026-05-03T16:33:02Z</time></trkpt><trkpt lat="45.446264346482145" lon="9.258938538255974"><ele>101.0</ele><time>2026-05-03T16:33:03Z</time></trkpt><trkpt lat="45.44650655379277" lon="9.258992766292456"><ele>103.5</ele><time>2026-05-03T16:33:04Z</time></trkpt><trkpt lat="45.44674813446884" lon="9.25903998545842"><ele>106.0</ele><time>2026-05-03T16:33:05Z</time></trkpt><trkpt lat="45.44698905322701" lon="9.259072984740898"><ele>107.0</ele><time>2026-05-03T16:33:06Z</time></trkpt><trkpt lat="45.447230798072454" lon="9.259093850388453"><ele>108.0</ele><time>2026-05-03T16:33:07Z</time></trkpt><trkpt lat="45.447472829630456" lon="9.259103281667956"><ele>108.0</ele><time>2026-05-03T16:33:08Z</time></trkpt><trkpt lat="45.447713837090575" lon="9.259102525166394"><ele>108.0</ele><time>2026-05-03T16:33:09Z</time></trkpt><trkpt lat="45.44795309506831" lon="9.259087704923386"><ele>106.5</ele><time>2026-05-03T16:33:10Z</time></trkpt><trkpt lat="45.44818964932922" lon="9.259061573034172"><ele>105.0</ele><time>2026-05-03T16:33:11Z</time></trkpt><trkpt lat="45.44842218474198" lon="9.259022282845114"><ele>105.0</ele><time>2026-05-03T16:33:12Z</time></trkpt><trkpt lat="45.44865138798481" lon="9.258970562136934"><ele>105.0</ele><time>2026-05-03T16:33:13Z</time></trkpt><trkpt lat="45.448877718897926" lon="9.258906205911517"><ele>106.33333333333334</ele><time>2026-05-03T16:33:14Z</time></trkpt><trkpt lat="45.449097174850806" lon="9.258832502407458"><ele>107.66666666666667</ele><time>2026-05-03T16:33:15Z</time></trkpt><trkpt lat="45.44931246944719" lon="9.258756623372024"><ele>109.0</ele><time>2026-05-03T16:33:16Z</time></trkpt><trkpt lat="45.449516467866694" lon="9.25867109206211"><ele>110.0</ele><time>2026-05-03T16:33:17Z</time></trkpt><trkpt lat="45.44971370423697" lon="9.258577867240568"><ele>111.0</ele><time>2026-05-03T16:33:18Z</time></trkpt><trkpt lat="45.44990746904279" lon="9.258474039136232"><ele>112.0</ele><time>2026-05-03T16:33:19Z</time></trkpt><trkpt lat="45.450099185329144" lon="9.2583579859313"><ele>112.0</ele><time>2026-05-03T16:33:20Z</time></trkpt><trkpt lat="45.45028641611467" lon="9.258230077725601"><ele>112.0</ele><time>2026-05-03T16:33:21Z</time></trkpt><trkpt lat="45.45046866337793" lon="9.258100049046742"><ele>112.0</ele><time>2026-05-03T16:33:22Z</time></trkpt><trkpt lat="45.450650339186964" lon="9.25796782925962"><ele>112.0</ele><time>2026-05-03T16:33:23Z</time></trkpt><trkpt lat="45.450830991094" lon="9.25783374689461"><ele>112.0</ele><time>2026-05-03T16:33:24Z</time></trkpt><trkpt lat="45.451009172114105" lon="9.257694561671451"><ele>112.0</ele><time>2026-05-03T16:33:25Z</time></trkpt><trkpt lat="45.45118524512913" lon="9.257549117118893"><ele>111.66666666666667</ele><time>2026-05-03T16:33:26Z</time></trkpt><trkpt lat="45.45135802014653" lon="9.25739444519419"><ele>111.33333333333334</ele><time>2026-05-03T16:33:27Z</time></trkpt><trkpt lat="45.45153189801771" lon="9.257243563323371"><ele>111.0</ele><time>2026-05-03T16:33:28Z</time></trkpt><trkpt lat="45.45170188488528" lon="9.25709944012016"><ele>111.0</ele><time>2026-05-03T16:33:29Z</time></trkpt><trkpt lat="45.45186130822146" lon="9.256962173337731"><ele>111.0</ele><time>2026-05-03T16:33:30Z</time></trkpt><trkpt lat="45.452029564111285" lon="9.256807431212202"><ele>111.0</ele><time>2026-05-03T16:33:31Z</time></trkpt><trkpt lat="45.45221151356685" lon="9.256635414568056"><ele>110.5</ele><time>2026-05-03T16:33:32Z</time></trkpt><trkpt lat="45.45241017629499" lon="9.256467506728953"><ele>110.0</ele><time>2026-05-03T16:33:33Z</time></trkpt><trkpt lat="45.452618003911056" lon="9.256296633956396"><ele>110.0</ele><time>2026-05-03T16:33:34Z</time></trkpt><trkpt lat="45.45282575902648" lon="9.256124256611239"><ele>110.0</ele><time>2026-05-03T16:33:35Z</time></trkpt><trkpt lat="45.45303311266969" lon="9.255952017236115"><ele>110.0</ele><time>2026-05-03T16:33:36Z</time></trkpt><trkpt lat="45.453239478315005" lon="9.255779155811066"><ele>110.0</ele><time>2026-05-03T16:33:37Z</time></trkpt><trkpt lat="45.45348878514113" lon="9.255571810454283"><ele>110.0</ele><time>2026-05-03T16:33:38Z</time></trkpt><trkpt lat="45.453716160834695" lon="9.2553781308811"><ele>110.0</ele><time>2026-05-03T16:33:39Z</time></trkpt><trkpt lat="45.45394305969862" lon="9.255179848262388"><ele>110.5</ele><time>2026-05-03T16:33:40Z</time></trkpt><trkpt lat="45.45417581239793" lon="9.254985893181649"><ele>111.0</ele><time>2026-05-03T16:33:41Z</time></trkpt><trkpt lat="45.454405609415495" lon="9.254794475288888"><ele>113.0</ele><time>2026-05-03T16:33:42Z</time></trkpt><trkpt lat="45.454639271867045" lon="9.25460671300022"><ele>115.0</ele><time>2026-05-03T16:33:43Z</time></trkpt><trkpt lat="45.45486177940492" lon="9.254419504643643"><ele>115.0</ele><time>2026-05-03T16:33:44Z</time></trkpt><trkpt lat="45.45507068934333" lon="9.25425212936899"><ele>115.0</ele><time>2026-05-03T16:33:45Z</time></trkpt><trkpt lat="45.455276968896975" lon="9.254084333825473"><ele>113.0</ele><time>2026-05-03T16:33:46Z</time></trkpt><trkpt lat="45.45547694320217" lon="9.253905697013922"><ele>111.0</ele><time>2026-05-03T16:33:47Z</time></trkpt><trkpt lat="45.45568331693846" lon="9.25373554502845"><ele>111.0</ele><time>2026-05-03T16:33:48Z</time></trkpt><trkpt lat="45.45589117326053" lon="9.253564332753093"><ele>111.0</ele><time>2026-05-03T16:33:49Z</time></trkpt><trkpt lat="45.4561027023971" lon="9.253396054116239"><ele>111.5</ele><time>2026-05-03T16:33:50Z</time></trkpt><trkpt lat="45.45631195908431" lon="9.2532205713216"><ele>112.0</ele><time>2026-05-03T16:33:51Z</time></trkpt><trkpt lat="45.45652780585824" lon="9.253048296728116"><ele>112.0</ele><time>2026-05-03T16:33:52Z</time></trkpt><trkpt lat="45.456751240100715" lon="9.252879049379379"><ele>112.0</ele><time>2026-05-03T16:33:53Z</time></trkpt><trkpt lat="45.45697348651458" lon="9.252711493502893"><ele>112.5</ele><time>2026-05-03T16:33:54Z</time></trkpt><trkpt lat="45.45720056643708" lon="9.2525649421918"><ele>113.0</ele><time>2026-05-03T16:33:55Z</time></trkpt><trkpt lat="45.457425011857545" lon="9.252420087041525"><ele>112.0</ele><time>2026-05-03T16:33:56Z</time></trkpt><trkpt lat="45.457654787937805" lon="9.252276484676887"><ele>111.0</ele><time>2026-05-03T16:33:57Z</time></trkpt><trkpt lat="45.45789687778796" lon="9.252152441004519"><ele>112.5</ele><time>2026-05-03T16:33:58Z</time></trkpt><trkpt lat="45.45813819084218" lon="9.252029737541614"><ele>114.0</ele><time>2026-05-03T16:33:59Z</time></trkpt><trkpt lat="45.458387015073306" lon="9.251932849502122"><ele>114.0</ele><time>2026-05-03T16:34:00Z</time></trkpt><trkpt lat="45.45862797900457" lon="9.251829818087517"><ele>114.0</ele><time>2026-05-03T16:34:01Z</time></trkpt><trkpt lat="45.45886492733805" lon="9.251742377135882"><ele>113.5</ele><time>2026-05-03T16:34:02Z</time></trkpt><trkpt lat="45.45909805488144" lon="9.251665361226081"><ele>113.0</ele><time>2026-05-03T16:34:03Z</time></trkpt><trkpt lat="45.45932565216543" lon="9.251599565766604"><ele>113.0</ele><time>2026-05-03T16:34:04Z</time></trkpt><trkpt lat="45.45955297611028" lon="9.251546072571436"><ele>113.0</ele><time>2026-05-03T16:34:05Z</time></trkpt><trkpt lat="45.459778532495555" lon="9.251494291414618"><ele>113.0</ele><time>2026-05-03T16:34:06Z</time></trkpt><trkpt lat="45.46000509813917" lon="9.251451231033885"><ele>113.0</ele><time>2026-05-03T16:34:07Z</time></trkpt><trkpt lat="45.46022647675919" lon="9.251415536381444"><ele>113.0</ele><time>2026-05-03T16:34:08Z</time></trkpt><trkpt lat="45.46044221892686" lon="9.251391150723189"><ele>113.0</ele><time>2026-05-03T16:34:09Z</time></trkpt><trkpt lat="45.46065782734968" lon="9.251374406034275"><ele>113.0</ele><time>2026-05-03T16:34:10Z</time></trkpt><trkpt lat="45.46087926854011" lon="9.251361508563107"><ele>114.0</ele><time>2026-05-03T16:34:11Z</time></trkpt><trkpt lat="45.461098780776595" lon="9.25135474431768"><ele>115.0</ele><time>2026-05-03T16:34:12Z</time></trkpt><trkpt lat="45.46131671829219" lon="9.251365335754727"><ele>116.0</ele><time>2026-05-03T16:34:13Z</time></trkpt><trkpt lat="45.461537088766676" lon="9.25138527749073"><ele>116.0</ele><time>2026-05-03T16:34:14Z</time></trkpt><trkpt lat="45.461756039834185" lon="9.251418927201122"><ele>116.0</ele><time>2026-05-03T16:34:15Z</time></trkpt><trkpt lat="45.4619769001798" lon="9.251454359672055"><ele>116.0</ele><time>2026-05-03T16:34:16Z</time></trkpt><trkpt lat="45.462199907083374" lon="9.251491622037127"><ele>114.33333333333333</ele><time>2026-05-03T16:34:17Z</time></trkpt><trkpt lat="45.46242071962504" lon="9.251524616018841"><ele>112.66666666666666</ele><time>2026-05-03T16:34:18Z</time></trkpt><trkpt lat="45.46264429581553" lon="9.251578102957986"><ele>111.0</ele><time>2026-05-03T16:34:19Z</time></trkpt><trkpt lat="45.46286391303099" lon="9.251644968517034"><ele>109.5</ele><time>2026-05-03T16:34:20Z</time></trkpt><trkpt lat="45.46308676694758" lon="9.251719882051313"><ele>108.0</ele><time>2026-05-03T16:34:21Z</time></trkpt><trkpt lat="45.46331283197993" lon="9.25179940486789"><ele>108.0</ele><time>2026-05-03T16:34:22Z</time></trkpt><trkpt lat="45.46354978455062" lon="9.251869702910545"><ele>108.0</ele><time>2026-05-03T16:34:23Z</time></trkpt><trkpt lat="45.463793419110274" lon="9.251932549626932"><ele>108.5</ele><time>2026-05-03T16:34:24Z</time></trkpt><trkpt lat="45.46404397200914" lon="9.251989815476104"><ele>109.0</ele><time>2026-05-03T16:34:25Z</time></trkpt><trkpt lat="45.464296887233886" lon="9.252048788103231"><ele>109.0</ele><time>2026-05-03T16:34:26Z</time></trkpt><trkpt lat="45.46455377762698" lon="9.252109950114612"><ele>109.0</ele><time>2026-05-03T16:34:27Z</time></trkpt><trkpt lat="45.464811617161054" lon="9.252171155661925"><ele>111.0</ele><time>2026-05-03T16:34:28Z</time></trkpt><trkpt lat="45.46506729507283" lon="9.252222534598092"><ele>113.0</ele><time>2026-05-03T16:34:29Z</time></trkpt><trkpt lat="45.46531512821013" lon="9.252258902694242"><ele>113.5</ele><time>2026-05-03T16:34:30Z</time></trkpt><trkpt lat="45.465547379573934" lon="9.252282976085427"><ele>114.0</ele><time>2026-05-03T16:34:31Z</time></trkpt><trkpt lat="45.465768778691086" lon="9.252298711448704"><ele>114.0</ele><time>2026-05-03T16:34:32Z</time></trkpt><trkpt lat="45.4659835640045" lon="9.252306830240354"><ele>114.0</ele><time>2026-05-03T16:34:33Z</time></trkpt><trkpt lat="45.466198500116676" lon="9.252310573876494"><ele>114.0</ele><time>2026-05-03T16:34:34Z</time></trkpt><trkpt lat="45.46641453825996" lon="9.252305550503154"><ele>114.33333333333334</ele><time>2026-05-03T16:34:35Z</time></trkpt><trkpt lat="45.466628553771" lon="9.252292563478694"><ele>114.66666666666667</ele><time>2026-05-03T16:34:36Z</time></trkpt><trkpt lat="45.46683135350429" lon="9.252279563798808"><ele>115.0</ele><time>2026-05-03T16:34:37Z</time></trkpt><trkpt lat="45.46701956678819" lon="9.252270119118974"><ele>115.0</ele><time>2026-05-03T16:34:38Z</time></trkpt><trkpt lat="45.46719867521025" lon="9.25226089917587"><ele>115.0</ele><time>2026-05-03T16:34:39Z</time></trkpt><trkpt lat="45.46737276476955" lon="9.2522552730342"><ele>115.0</ele><time>2026-05-03T16:34:40Z</time></trkpt><trkpt lat="45.46754836999269" lon="9.252249198932873"><ele>115.0</ele><time>2026-05-03T16:34:41Z</time></trkpt><trkpt lat="45.467726407249046" lon="9.252244508244244"><ele>115.0</ele><time>2026-05-03T16:34:42Z</time></trkpt><trkpt lat="45.46790556531863" lon="9.252238098441572"><ele>115.0</ele><time>2026-05-03T16:34:43Z</time></trkpt><trkpt lat="45.468087058231916" lon="9.252231523314533"><ele>115.0</ele><time>2026-05-03T16:34:44Z</time></trkpt><trkpt lat="45.46827038946287" lon="9.252224216670315"><ele>115.0</ele><time>2026-05-03T16:34:45Z</time></trkpt><trkpt lat="45.468458293794804" lon="9.25221723903896"><ele>115.0</ele><time>2026-05-03T16:34:46Z</time></trkpt><trkpt lat="45.46865010001984" lon="9.252213879314114"><ele>114.0</ele><time>2026-05-03T16:34:47Z</time></trkpt><trkpt lat="45.46884214761178" lon="9.252209855167326"><ele>113.0</ele><time>2026-05-03T16:34:48Z</time></trkpt><trkpt lat="45.46903609993571" lon="9.252205811866538"><ele>112.0</ele><time>2026-05-03T16:34:49Z</time></trkpt><trkpt lat="45.469228511998864" lon="9.252204073770661"><ele>112.0</ele><time>2026-05-03T16:34:50Z</time></trkpt><trkpt lat="45.46942271930539" lon="9.252201389557875"><ele>112.0</ele><time>2026-05-03T16:34:51Z</time></trkpt><trkpt lat="45.46962293302126" lon="9.252191613741584"><ele>112.0</ele><time>2026-05-03T16:34:52Z</time></trkpt><trkpt lat="45.46983363572825" lon="9.252191199157533"><ele>113.0</ele><time>2026-05-03T16:34:53Z</time></trkpt><trkpt lat="45.47005737802118" lon="9.252204025397118"><ele>114.0</ele><time>2026-05-03T16:34:54Z</time></trkpt><trkpt lat="45.470288648013494" lon="9.252223543783266"><ele>113.5</ele><time>2026-05-03T16:34:55Z</time></trkpt><trkpt lat="45.4705224730916" lon="9.252249795295889"><ele>113.0</ele><time>2026-05-03T16:34:56Z</time></trkpt><trkpt lat="45.470766584268816" lon="9.252279874179267"><ele>114.5</ele><time>2026-05-03T16:34:57Z</time></trkpt><trkpt lat="45.47101284277196" lon="9.25231817693325"><ele>116.0</ele><time>2026-05-03T16:34:58Z</time></trkpt><trkpt lat="45.47125667232716" lon="9.252359202891538"><ele>116.5</ele><time>2026-05-03T16:34:59Z</time></trkpt><trkpt lat="45.471491868386245" lon="9.252403276022966"><ele>117.0</ele><time>2026-05-03T16:35:00Z</time></trkpt><trkpt lat="45.4717257916951" lon="9.25245029378753"><ele>117.0</ele><time>2026-05-03T16:35:01Z</time></trkpt><trkpt lat="45.47195985264865" lon="9.252500597899916"><ele>117.0</ele><time>2026-05-03T16:35:02Z</time></trkpt><trkpt lat="45.472192005844974" lon="9.252556392416567"><ele>119.0</ele><time>2026-05-03T16:35:03Z</time></trkpt><trkpt lat="45.47242357940408" lon="9.25261646121422"><ele>121.0</ele><time>2026-05-03T16:35:04Z</time></trkpt><trkpt lat="45.47265571654236" lon="9.25268267439214"><ele>121.0</ele><time>2026-05-03T16:35:05Z</time></trkpt><trkpt lat="45.47288944220698" lon="9.25275343415522"><ele>121.0</ele><time>2026-05-03T16:35:06Z</time></trkpt><trkpt lat="45.47312197484528" lon="9.25282937997675"><ele>120.0</ele><time>2026-05-03T16:35:07Z</time></trkpt><trkpt lat="45.473354709588214" lon="9.25290829257165"><ele>119.0</ele><time>2026-05-03T16:35:08Z</time></trkpt><trkpt lat="45.47358878666878" lon="9.252989187723298"><ele>119.5</ele><time>2026-05-03T16:35:09Z</time></trkpt><trkpt lat="45.47382366044888" lon="9.25306969499332"><ele>120.0</ele><time>2026-05-03T16:35:10Z</time></trkpt><trkpt lat="45.4740606740381" lon="9.253147918680108"><ele>120.0</ele><time>2026-05-03T16:35:11Z</time></trkpt><trkpt lat="45.47429951895897" lon="9.253226225412629"><ele>120.0</ele><time>2026-05-03T16:35:12Z</time></trkpt><trkpt lat="45.47454071742396" lon="9.25330521049859"><ele>120.0</ele><time>2026-05-03T16:35:13Z</time></trkpt><trkpt lat="45.474780720729285" lon="9.253384775634357"><ele>120.0</ele><time>2026-05-03T16:35:14Z</time></trkpt><trkpt lat="45.47502419831736" lon="9.253466002917603"><ele>120.0</ele><time>2026-05-03T16:35:15Z</time></trkpt><trkpt lat="45.475267159223776" lon="9.253541587444701"><ele>120.0</ele><time>2026-05-03T16:35:16Z</time></trkpt><trkpt lat="45.47551369091407" lon="9.25360742985087"><ele>118.5</ele><time>2026-05-03T16:35:17Z</time></trkpt><trkpt lat="45.475762086274216" lon="9.253662782443666"><ele>117.0</ele><time>2026-05-03T16:35:18Z</time></trkpt><trkpt lat="45.47601065806562" lon="9.253700983391262"><ele>117.0</ele><time>2026-05-03T16:35:19Z</time></trkpt><trkpt lat="45.47626158541298" lon="9.253718504897243"><ele>117.0</ele><time>2026-05-03T16:35:20Z</time></trkpt><trkpt lat="45.47651333246156" lon="9.253716816760601"><ele>117.0</ele><time>2026-05-03T16:35:21Z</time></trkpt><trkpt lat="45.47676534031199" lon="9.253697131140909"><ele>117.0</ele><time>2026-05-03T16:35:22Z</time></trkpt><trkpt lat="45.47701995275169" lon="9.253664161448588"><ele>115.5</ele><time>2026-05-03T16:35:23Z</time></trkpt><trkpt lat="45.477274950220966" lon="9.253605858015996"><ele>114.0</ele><time>2026-05-03T16:35:24Z</time></trkpt><trkpt lat="45.47752785222204" lon="9.253539061597868"><ele>114.0</ele><time>2026-05-03T16:35:25Z</time></trkpt><trkpt lat="45.47777713578443" lon="9.253457153132105"><ele>114.0</ele><time>2026-05-03T16:35:26Z</time></trkpt><trkpt lat="45.47801658252203" lon="9.253364202732065"><ele>115.5</ele><time>2026-05-03T16:35:27Z</time></trkpt><trkpt lat="45.47825182116095" lon="9.253259614296129"><ele>117.0</ele><time>2026-05-03T16:35:28Z</time></trkpt><trkpt lat="45.4784759409707" lon="9.253160944961808"><ele>116.5</ele><time>2026-05-03T16:35:29Z</time></trkpt><trkpt lat="45.47869376901437" lon="9.253060729807393"><ele>116.0</ele><time>2026-05-03T16:35:30Z</time></trkpt><trkpt lat="45.478911503977045" lon="9.25296118504318"><ele>117.5</ele><time>2026-05-03T16:35:31Z</time></trkpt><trkpt lat="45.479130519086446" lon="9.252857836293279"><ele>119.0</ele><time>2026-05-03T16:35:32Z</time></trkpt><trkpt lat="45.47934801319629" lon="9.252759363522413"><ele>119.0</ele><time>2026-05-03T16:35:33Z</time></trkpt><trkpt lat="45.47956705766579" lon="9.252659535278092"><ele>119.0</ele><time>2026-05-03T16:35:34Z</time></trkpt><trkpt lat="45.47978916833287" lon="9.252558852958153"><ele>118.0</ele><time>2026-05-03T16:35:35Z</time></trkpt><trkpt lat="45.480007811169074" lon="9.252459657966094"><ele>117.0</ele><time>2026-05-03T16:35:36Z</time></trkpt><trkpt lat="45.48022726182059" lon="9.25235805009542"><ele>118.33333333333334</ele><time>2026-05-03T16:35:37Z</time></trkpt><trkpt lat="45.48044331432885" lon="9.252262332805566"><ele>119.66666666666667</ele><time>2026-05-03T16:35:38Z</time></trkpt><trkpt lat="45.4806522603233" lon="9.252169368610184"><ele>121.0</ele><time>2026-05-03T16:35:39Z</time></trkpt><trkpt lat="45.480853110417435" lon="9.25207685424592"><ele>121.0</ele><time>2026-05-03T16:35:40Z</time></trkpt><trkpt lat="45.48104491031304" lon="9.251989980668034"><ele>121.0</ele><time>2026-05-03T16:35:41Z</time></trkpt><trkpt lat="45.48123939213744" lon="9.251898704246273"><ele>121.0</ele><time>2026-05-03T16:35:42Z</time></trkpt><trkpt lat="45.48143549714669" lon="9.251806392659166"><ele>121.0</ele><time>2026-05-03T16:35:43Z</time></trkpt><trkpt lat="45.48163291397153" lon="9.25171914844264"><ele>121.0</ele><time>2026-05-03T16:35:44Z</time></trkpt><trkpt lat="45.48183499658079" lon="9.251629533665982"><ele>121.0</ele><time>2026-05-03T16:35:45Z</time></trkpt><trkpt lat="45.482039838037956" lon="9.251544365639004"><ele>120.66666666666667</ele><time>2026-05-03T16:35:46Z</time></trkpt><trkpt lat="45.482247635849184" lon="9.251463187230023"><ele>120.33333333333334</ele><time>2026-05-03T16:35:47Z</time></trkpt><trkpt lat="45.48246024640994" lon="9.25139057541752"><ele>120.0</ele><time>2026-05-03T16:35:48Z</time></trkpt><trkpt lat="45.482679455258655" lon="9.251326880579157"><ele>120.0</ele><time>2026-05-03T16:35:49Z</time></trkpt><trkpt lat="45.482899279066444" lon="9.251271421038151"><ele>120.0</ele><time>2026-05-03T16:35:50Z</time></trkpt><trkpt lat="45.48312155731931" lon="9.251216572729614"><ele>120.0</ele><time>2026-05-03T16:35:51Z</time></trkpt><trkpt lat="45.48334856663299" lon="9.251177209624313"><ele>120.0</ele><time>2026-05-03T16:35:52Z</time></trkpt><trkpt lat="45.48358087676034" lon="9.251149715137421"><ele>120.0</ele><time>2026-05-03T16:35:53Z</time></trkpt><trkpt lat="45.48381343545107" lon="9.251132038536271"><ele>120.0</ele><time>2026-05-03T16:35:54Z</time></trkpt><trkpt lat="45.484044096406414" lon="9.251122486596852"><ele>120.0</ele><time>2026-05-03T16:35:55Z</time></trkpt><trkpt lat="45.484275869938365" lon="9.251123897153283"><ele>120.0</ele><time>2026-05-03T16:35:56Z</time></trkpt><trkpt lat="45.48450638348627" lon="9.251139661817344"><ele>120.0</ele><time>2026-05-03T16:35:57Z</time></trkpt><trkpt lat="45.484733952990446" lon="9.251166380463806"><ele>119.0</ele><time>2026-05-03T16:35:58Z</time></trkpt><trkpt lat="45.484961415129916" lon="9.251197566190555"><ele>118.0</ele><time>2026-05-03T16:35:59Z</time></trkpt><trkpt lat="45.48519068430914" lon="9.251228222159352"><ele>118.0</ele><time>2026-05-03T16:36:00Z</time></trkpt><trkpt lat="45.485422259644196" lon="9.251264810723612"><ele>118.0</ele><time>2026-05-03T16:36:01Z</time></trkpt><trkpt lat="45.48565794745525" lon="9.251308660314493"><ele>118.0</ele><time>2026-05-03T16:36:02Z</time></trkpt><trkpt lat="45.48589435183631" lon="9.251357562415285"><ele>118.0</ele><time>2026-05-03T16:36:03Z</time></trkpt><trkpt lat="45.48613222263325" lon="9.251400337810058"><ele>118.5</ele><time>2026-05-03T16:36:04Z</time></trkpt><trkpt lat="45.48637165434631" lon="9.25143691939944"><ele>119.0</ele><time>2026-05-03T16:36:05Z</time></trkpt><trkpt lat="45.48660593714905" lon="9.251474964537438"><ele>119.0</ele><time>2026-05-03T16:36:06Z</time></trkpt><trkpt lat="45.4868422408588" lon="9.251513759690008"><ele>119.0</ele><time>2026-05-03T16:36:07Z</time></trkpt><trkpt lat="45.48707747012452" lon="9.251552451060855"><ele>118.5</ele><time>2026-05-03T16:36:08Z</time></trkpt><trkpt lat="45.487313580318265" lon="9.251589811622852"><ele>118.0</ele><time>2026-05-03T16:36:09Z</time></trkpt><trkpt lat="45.48754721165541" lon="9.251623231057149"><ele>118.0</ele><time>2026-05-03T16:36:10Z</time></trkpt><trkpt lat="45.487782164734085" lon="9.251659488186911"><ele>118.0</ele><time>2026-05-03T16:36:11Z</time></trkpt><trkpt lat="45.48801606834196" lon="9.251695488583508"><ele>118.5</ele><time>2026-05-03T16:36:12Z</time></trkpt><trkpt lat="45.488251975084516" lon="9.251729375326093"><ele>119.0</ele><time>2026-05-03T16:36:13Z</time></trkpt><trkpt lat="45.48848650894847" lon="9.25176293586672"><ele>119.0</ele><time>2026-05-03T16:36:14Z</time></trkpt><trkpt lat="45.48872102513294" lon="9.25179815146341"><ele>119.0</ele><time>2026-05-03T16:36:15Z</time></trkpt><trkpt lat="45.48895626663737" lon="9.251834346798677"><ele>120.0</ele><time>2026-05-03T16:36:16Z</time></trkpt><trkpt lat="45.489192671915205" lon="9.251870964405423"><ele>121.0</ele><time>2026-05-03T16:36:17Z</time></trkpt><trkpt lat="45.48942749683113" lon="9.251908592392239"><ele>121.0</ele><time>2026-05-03T16:36:18Z</time></trkpt><trkpt lat="45.48966376916151" lon="9.251947795365052"><ele>121.0</ele><time>2026-05-03T16:36:19Z</time></trkpt><trkpt lat="45.48990007168214" lon="9.251988050428439"><ele>121.0</ele><time>2026-05-03T16:36:20Z</time></trkpt><trkpt lat="45.490136635792894" lon="9.252030469767504"><ele>121.0</ele><time>2026-05-03T16:36:21Z</time></trkpt><trkpt lat="45.49037236885924" lon="9.252074867417823"><ele>123.5</ele><time>2026-05-03T16:36:22Z</time></trkpt><trkpt lat="45.49060983422018" lon="9.252127165979466"><ele>126.0</ele><time>2026-05-03T16:36:23Z</time></trkpt><trkpt lat="45.49084864953229" lon="9.252190634916506"><ele>126.0</ele><time>2026-05-03T16:36:24Z</time></trkpt><trkpt lat="45.49108675116999" lon="9.252265784150111"><ele>126.0</ele><time>2026-05-03T16:36:25Z</time></trkpt><trkpt lat="45.49132625639237" lon="9.252351481860671"><ele>125.5</ele><time>2026-05-03T16:36:26Z</time></trkpt><trkpt lat="45.491565684007696" lon="9.252446855275272"><ele>125.0</ele><time>2026-05-03T16:36:27Z</time></trkpt><trkpt lat="45.49180155323417" lon="9.252550690522904"><ele>125.0</ele><time>2026-05-03T16:36:28Z</time></trkpt><trkpt lat="45.49203593971053" lon="9.25266353677652"><ele>125.0</ele><time>2026-05-03T16:36:29Z</time></trkpt><trkpt lat="45.492261719975986" lon="9.252785282592974"><ele>123.0</ele><time>2026-05-03T16:36:30Z</time></trkpt><trkpt lat="45.49247693726611" lon="9.252912043586452"><ele>121.0</ele><time>2026-05-03T16:36:31Z</time></trkpt><trkpt lat="45.492689282075794" lon="9.253046921434319"><ele>121.0</ele><time>2026-05-03T16:36:32Z</time></trkpt><trkpt lat="45.492895792988065" lon="9.253190665286716"><ele>121.0</ele><time>2026-05-03T16:36:33Z</time></trkpt><trkpt lat="45.49310360366301" lon="9.253342006682706"><ele>121.0</ele><time>2026-05-03T16:36:34Z</time></trkpt><trkpt lat="45.49331013137945" lon="9.253497145094478"><ele>121.0</ele><time>2026-05-03T16:36:35Z</time></trkpt><trkpt lat="45.493519526547026" lon="9.25365033583279"><ele>121.0</ele><time>2026-05-03T16:36:36Z</time></trkpt><trkpt lat="45.49373161556956" lon="9.253802226896484"><ele>121.0</ele><time>2026-05-03T16:36:37Z</time></trkpt><trkpt lat="45.49394716987194" lon="9.253954294300648"><ele>120.5</ele><time>2026-05-03T16:36:38Z</time></trkpt><trkpt lat="45.494165420676666" lon="9.254104972732533"><ele>120.0</ele><time>2026-05-03T16:36:39Z</time></trkpt><trkpt lat="45.494384429221064" lon="9.254255916203423"><ele>120.0</ele><time>2026-05-03T16:36:40Z</time></trkpt><trkpt lat="45.4946040288479" lon="9.254405483587256"><ele>120.0</ele><time>2026-05-03T16:36:41Z</time></trkpt><trkpt lat="45.49482634235623" lon="9.25455150118932"><ele>120.0</ele><time>2026-05-03T16:36:42Z</time></trkpt><trkpt lat="45.495051918778806" lon="9.254699226044686"><ele>120.0</ele><time>2026-05-03T16:36:43Z</time></trkpt><trkpt lat="45.495277675079365" lon="9.254840456477671"><ele>121.5</ele><time>2026-05-03T16:36:44Z</time></trkpt><trkpt lat="45.49550680434625" lon="9.254972781247005"><ele>123.0</ele><time>2026-05-03T16:36:45Z</time></trkpt><trkpt lat="45.49573781582698" lon="9.255093299757013"><ele>123.0</ele><time>2026-05-03T16:36:46Z</time></trkpt><trkpt lat="45.49597302670458" lon="9.255198098797786"><ele>123.0</ele><time>2026-05-03T16:36:47Z</time></trkpt><trkpt lat="45.49621367109605" lon="9.255287672666674"><ele>121.0</ele><time>2026-05-03T16:36:48Z</time></trkpt><trkpt lat="45.49645468673949" lon="9.255361666204438"><ele>119.0</ele><time>2026-05-03T16:36:49Z</time></trkpt><trkpt lat="45.49670112064404" lon="9.25542912059945"><ele>119.0</ele><time>2026-05-03T16:36:50Z</time></trkpt><trkpt lat="45.496946398727346" lon="9.255486384259095"><ele>119.0</ele><time>2026-05-03T16:36:51Z</time></trkpt><trkpt lat="45.4971969858243" lon="9.255530486731642"><ele>121.5</ele><time>2026-05-03T16:36:52Z</time></trkpt><trkpt lat="45.49744659523262" lon="9.255563501432418"><ele>124.0</ele><time>2026-05-03T16:36:53Z</time></trkpt><trkpt lat="45.497694036990076" lon="9.255593139772447"><ele>123.0</ele><time>2026-05-03T16:36:54Z</time></trkpt><trkpt lat="45.49794164471388" lon="9.25562516366309"><ele>122.0</ele><time>2026-05-03T16:36:55Z</time></trkpt><trkpt lat="45.49818889655547" lon="9.255657352357565"><ele>122.0</ele><time>2026-05-03T16:36:56Z</time></trkpt><trkpt lat="45.49843685646337" lon="9.255688403768444"><ele>122.0</ele><time>2026-05-03T16:36:57Z</time></trkpt><trkpt lat="45.498683252995384" lon="9.255716159349484"><ele>124.0</ele><time>2026-05-03T16:36:58Z</time></trkpt><trkpt lat="45.498929231290404" lon="9.255740819887379"><ele>126.0</ele><time>2026-05-03T16:36:59Z</time></trkpt><trkpt lat="45.499175022123254" lon="9.255764817850126"><ele>126.0</ele><time>2026-05-03T16:37:00Z</time></trkpt><trkpt lat="45.49941755759602" lon="9.255789501200896"><ele>126.0</ele><time>2026-05-03T16:37:01Z</time></trkpt><trkpt lat="45.49965811464839" lon="9.25581665395289"><ele>125.0</ele><time>2026-05-03T16:37:02Z</time></trkpt><trkpt lat="45.49989470546384" lon="9.25584754013631"><ele>124.0</ele><time>2026-05-03T16:37:03Z</time></trkpt><trkpt lat="45.50012676686603" lon="9.255887109679698"><ele>124.0</ele><time>2026-05-03T16:37:04Z</time></trkpt><trkpt lat="45.500355719400694" lon="9.25593909734577"><ele>124.0</ele><time>2026-05-03T16:37:05Z</time></trkpt><trkpt lat="45.50057796179341" lon="9.256003528061374"><ele>123.0</ele><time>2026-05-03T16:37:06Z</time></trkpt><trkpt lat="45.500793173250145" lon="9.256070373635911"><ele>122.0</ele><time>2026-05-03T16:37:07Z</time></trkpt><trkpt lat="45.500987592250965" lon="9.256147714297335"><ele>121.0</ele><time>2026-05-03T16:37:08Z</time></trkpt><trkpt lat="45.50116796376028" lon="9.25623444346977"><ele>121.33333333333334</ele><time>2026-05-03T16:37:09Z</time></trkpt><trkpt lat="45.501337435071285" lon="9.256327709963989"><ele>121.66666666666666</ele><time>2026-05-03T16:37:10Z</time></trkpt><trkpt lat="45.50149752019338" lon="9.256423606212016"><ele>122.0</ele><time>2026-05-03T16:37:11Z</time></trkpt><trkpt lat="45.501799594845494" lon="9.25658331154385"><ele>121.33333333333333</ele><time>2026-05-03T16:37:12Z</time></trkpt><trkpt lat="45.50198633257386" lon="9.256732891652693"><ele>120.66666666666666</ele><time>2026-05-03T16:37:13Z</time></trkpt><trkpt lat="45.50217667598522" lon="9.256890111295867"><ele>120.0</ele><time>2026-05-03T16:37:14Z</time></trkpt><trkpt lat="45.50237881996529" lon="9.25706758171444"><ele>120.0</ele><time>2026-05-03T16:37:15Z</time></trkpt><trkpt lat="45.502590654192424" lon="9.257244890212908"><ele>120.0</ele><time>2026-05-03T16:37:16Z</time></trkpt><trkpt lat="45.50280934294777" lon="9.257413772543577"><ele>120.0</ele><time>2026-05-03T16:37:17Z</time></trkpt><trkpt lat="45.5030309773148" lon="9.257577238174827"><ele>120.0</ele><time>2026-05-03T16:37:18Z</time></trkpt><trkpt lat="45.50324897970611" lon="9.257745621438152"><ele>120.0</ele><time>2026-05-03T16:37:19Z</time></trkpt><trkpt lat="45.50346694038695" lon="9.25791365850637"><ele>120.0</ele><time>2026-05-03T16:37:20Z</time></trkpt><trkpt lat="45.50368289179935" lon="9.25807523857509"><ele>121.5</ele><time>2026-05-03T16:37:21Z</time></trkpt><trkpt lat="45.50389683767184" lon="9.258237273737173"><ele>123.0</ele><time>2026-05-03T16:37:22Z</time></trkpt><trkpt lat="45.50411034650253" lon="9.258403950138552"><ele>123.0</ele><time>2026-05-03T16:37:23Z</time></trkpt><trkpt lat="45.50432634888903" lon="9.258563379312584"><ele>123.0</ele><time>2026-05-03T16:37:24Z</time></trkpt><trkpt lat="45.50454054019114" lon="9.258726898056938"><ele>123.0</ele><time>2026-05-03T16:37:25Z</time></trkpt><trkpt lat="45.50475420672904" lon="9.258890537050542"><ele>123.0</ele><time>2026-05-03T16:37:26Z</time></trkpt><trkpt lat="45.50496612594761" lon="9.25905610970926"><ele>124.5</ele><time>2026-05-03T16:37:27Z</time></trkpt><trkpt lat="45.50517580095751" lon="9.25921771982071"><ele>126.0</ele><time>2026-05-03T16:37:28Z</time></trkpt><trkpt lat="45.50538041520845" lon="9.259372913606045"><ele>123.5</ele><time>2026-05-03T16:37:29Z</time></trkpt><trkpt lat="45.50558710251856" lon="9.259528794964126"><ele>121.0</ele><time>2026-05-03T16:37:30Z</time></trkpt><trkpt lat="45.505794140273544" lon="9.25967211353972"><ele>122.0</ele><time>2026-05-03T16:37:31Z</time></trkpt><trkpt lat="45.506003587168024" lon="9.259821851437945"><ele>123.0</ele><time>2026-05-03T16:37:32Z</time></trkpt><trkpt lat="45.506216662145526" lon="9.259991889870776"><ele>123.0</ele><time>2026-05-03T16:37:33Z</time></trkpt><trkpt lat="45.506430172019755" lon="9.260158468118695"><ele>123.0</ele><time>2026-05-03T16:37:34Z</time></trkpt><trkpt lat="45.50664215849767" lon="9.260309824759789"><ele>123.0</ele><time>2026-05-03T16:37:35Z</time></trkpt><trkpt lat="45.50685394811617" lon="9.260474220191693"><ele>123.0</ele><time>2026-05-03T16:37:36Z</time></trkpt><trkpt lat="45.507062694652745" lon="9.26063809584944"><ele>123.5</ele><time>2026-05-03T16:37:37Z</time></trkpt><trkpt lat="45.50727113402861" lon="9.260801384242113"><ele>124.0</ele><time>2026-05-03T16:37:38Z</time></trkpt><trkpt lat="45.507481925847046" lon="9.260963819877"><ele>124.0</ele><time>2026-05-03T16:37:39Z</time></trkpt><trkpt lat="45.50769345330414" lon="9.261126834727348"><ele>124.0</ele><time>2026-05-03T16:37:40Z</time></trkpt><trkpt lat="45.507903699121066" lon="9.261289386160707"><ele>123.5</ele><time>2026-05-03T16:37:41Z</time></trkpt><trkpt lat="45.50811599765211" lon="9.261448200981555"><ele>123.0</ele><time>2026-05-03T16:37:42Z</time></trkpt><trkpt lat="45.50833204310272" lon="9.261595977025035"><ele>123.5</ele><time>2026-05-03T16:37:43Z</time></trkpt><trkpt lat="45.508554036210484" lon="9.261720645028964"><ele>124.0</ele><time>2026-05-03T16:37:44Z</time></trkpt><trkpt lat="45.50878084531109" lon="9.261822475750892"><ele>124.0</ele><time>2026-05-03T16:37:45Z</time></trkpt><trkpt lat="45.50901424585142" lon="9.261903971975208"><ele>124.0</ele><time>2026-05-03T16:37:46Z</time></trkpt><trkpt lat="45.50924920347761" lon="9.261959835007062"><ele>124.0</ele><time>2026-05-03T16:37:47Z</time></trkpt><trkpt lat="45.5094839777101" lon="9.261993710959354"><ele>124.0</ele><time>2026-05-03T16:37:48Z</time></trkpt><trkpt lat="45.509719074088345" lon="9.262005508505222"><ele>124.5</ele><time>2026-05-03T16:37:49Z</time></trkpt><trkpt lat="45.509953454984476" lon="9.261996684845396"><ele>125.0</ele><time>2026-05-03T16:37:50Z</time></trkpt><trkpt lat="45.51018933699851" lon="9.26196813568083"><ele>125.0</ele><time>2026-05-03T16:37:51Z</time></trkpt><trkpt lat="45.510423887797955" lon="9.261917882342601"><ele>125.0</ele><time>2026-05-03T16:37:52Z</time></trkpt><trkpt lat="45.5106570319118" lon="9.261842819244194"><ele>125.0</ele><time>2026-05-03T16:37:53Z</time></trkpt><trkpt lat="45.510897373507255" lon="9.261761746126126"><ele>125.0</ele><time>2026-05-03T16:37:54Z</time></trkpt><trkpt lat="45.51113874073227" lon="9.261684811947093"><ele>126.5</ele><time>2026-05-03T16:37:55Z</time></trkpt><trkpt lat="45.51138514472653" lon="9.261617036260091"><ele>128.0</ele><time>2026-05-03T16:37:56Z</time></trkpt><trkpt lat="45.511647537534415" lon="9.261576308182493"><ele>128.0</ele><time>2026-05-03T16:37:57Z</time></trkpt><trkpt lat="45.51192196821359" lon="9.261585079020199"><ele>128.0</ele><time>2026-05-03T16:37:58Z</time></trkpt><trkpt lat="45.51219521804319" lon="9.261650258471775"><ele>127.5</ele><time>2026-05-03T16:37:59Z</time></trkpt><trkpt lat="45.51246828422786" lon="9.26175204722735"><ele>127.0</ele><time>2026-05-03T16:38:00Z</time></trkpt><trkpt lat="45.51273302104944" lon="9.261864267078185"><ele>128.5</ele><time>2026-05-03T16:38:01Z</time></trkpt><trkpt lat="45.51298852178065" lon="9.26197464057028"><ele>130.0</ele><time>2026-05-03T16:38:02Z</time></trkpt><trkpt lat="45.51323845813357" lon="9.262072835485258"><ele>130.0</ele><time>2026-05-03T16:38:03Z</time></trkpt><trkpt lat="45.51349038540457" lon="9.262143071235705"><ele>130.0</ele><time>2026-05-03T16:38:04Z</time></trkpt><trkpt lat="45.5137434998569" lon="9.262169898376778"><ele>130.5</ele><time>2026-05-03T16:38:05Z</time></trkpt><trkpt lat="45.51399701075107" lon="9.262170476418111"><ele>131.0</ele><time>2026-05-03T16:38:06Z</time></trkpt><trkpt lat="45.514247094641526" lon="9.262161718313132"><ele>131.0</ele><time>2026-05-03T16:38:07Z</time></trkpt><trkpt lat="45.51449441124721" lon="9.262145811388498"><ele>131.0</ele><time>2026-05-03T16:38:08Z</time></trkpt><trkpt lat="45.51473578803361" lon="9.262128336927402"><ele>130.0</ele><time>2026-05-03T16:38:09Z</time></trkpt><trkpt lat="45.51497725605055" lon="9.262099682170176"><ele>129.0</ele><time>2026-05-03T16:38:10Z</time></trkpt><trkpt lat="45.51521985384297" lon="9.26206217547344"><ele>128.5</ele><time>2026-05-03T16:38:11Z</time></trkpt><trkpt lat="45.51546182042579" lon="9.262026477017992"><ele>128.0</ele><time>2026-05-03T16:38:12Z</time></trkpt><trkpt lat="45.51570799642292" lon="9.261999205597322"><ele>128.0</ele><time>2026-05-03T16:38:13Z</time></trkpt><trkpt lat="45.51595514609623" lon="9.261980147764628"><ele>128.0</ele><time>2026-05-03T16:38:14Z</time></trkpt><trkpt lat="45.51620342574698" lon="9.261950269233546"><ele>126.5</ele><time>2026-05-03T16:38:15Z</time></trkpt><trkpt lat="45.51645185041612" lon="9.261907751141246"><ele>125.0</ele><time>2026-05-03T16:38:16Z</time></trkpt><trkpt lat="45.51670081466141" lon="9.261863512477069"><ele>125.0</ele><time>2026-05-03T16:38:17Z</time></trkpt><trkpt lat="45.51694732650517" lon="9.261821013672465"><ele>125.0</ele><time>2026-05-03T16:38:18Z</time></trkpt><trkpt lat="45.51719358733336" lon="9.261780060238786"><ele>124.0</ele><time>2026-05-03T16:38:19Z</time></trkpt><trkpt lat="45.51743984426589" lon="9.261742048615973"><ele>123.0</ele><time>2026-05-03T16:38:20Z</time></trkpt><trkpt lat="45.517685112572316" lon="9.261705104109144"><ele>124.0</ele><time>2026-05-03T16:38:21Z</time></trkpt><trkpt lat="45.517930459173016" lon="9.261665775112865"><ele>125.0</ele><time>2026-05-03T16:38:22Z</time></trkpt><trkpt lat="45.51817479734033" lon="9.26162461049356"><ele>125.0</ele><time>2026-05-03T16:38:23Z</time></trkpt><trkpt lat="45.51841827740158" lon="9.261583004906168"><ele>125.0</ele><time>2026-05-03T16:38:24Z</time></trkpt><trkpt lat="45.5186628232199" lon="9.261543228040244"><ele>127.0</ele><time>2026-05-03T16:38:25Z</time></trkpt><trkpt lat="45.51891020627599" lon="9.261507348250337"><ele>129.0</ele><time>2026-05-03T16:38:26Z</time></trkpt><trkpt lat="45.51915564958363" lon="9.261470168455334"><ele>129.5</ele><time>2026-05-03T16:38:27Z</time></trkpt><trkpt lat="45.51940473518477" lon="9.261429127941371"><ele>130.0</ele><time>2026-05-03T16:38:28Z</time></trkpt><trkpt lat="45.51965537740596" lon="9.261388281078299"><ele>130.0</ele><time>2026-05-03T16:38:29Z</time></trkpt><trkpt lat="45.51990862161704" lon="9.261338066213552"><ele>130.0</ele><time>2026-05-03T16:38:30Z</time></trkpt><trkpt lat="45.52016168591313" lon="9.261278288684235"><ele>129.5</ele><time>2026-05-03T16:38:31Z</time></trkpt><trkpt lat="45.52041399876037" lon="9.26121052740922"><ele>129.0</ele><time>2026-05-03T16:38:32Z</time></trkpt><trkpt lat="45.52066741958647" lon="9.261140598912652"><ele>129.0</ele><time>2026-05-03T16:38:33Z</time></trkpt><trkpt lat="45.52092068795388" lon="9.261066957947055"><ele>129.0</ele><time>2026-05-03T16:38:34Z</time></trkpt><trkpt lat="45.521175011313616" lon="9.26099626210835"><ele>130.0</ele><time>2026-05-03T16:38:35Z</time></trkpt><trkpt lat="45.52143153211769" lon="9.260927826245815"><ele>131.0</ele><time>2026-05-03T16:38:36Z</time></trkpt><trkpt lat="45.52168748957059" lon="9.260860766298997"><ele>131.0</ele><time>2026-05-03T16:38:37Z</time></trkpt><trkpt lat="45.5219468365731" lon="9.260793013650744"><ele>131.0</ele><time>2026-05-03T16:38:38Z</time></trkpt><trkpt lat="45.52220566081905" lon="9.260720088243417"><ele>129.5</ele><time>2026-05-03T16:38:39Z</time></trkpt><trkpt lat="45.52246561175398" lon="9.26064607788625"><ele>128.0</ele><time>2026-05-03T16:38:40Z</time></trkpt><trkpt lat="45.52272839828278" lon="9.2605818806351"><ele>129.0</ele><time>2026-05-03T16:38:41Z</time></trkpt><trkpt lat="45.5229946637915" lon="9.260540098789386"><ele>130.0</ele><time>2026-05-03T16:38:42Z</time></trkpt><trkpt lat="45.52326385298706" lon="9.260530419217444"><ele>130.0</ele><time>2026-05-03T16:38:43Z</time></trkpt><trkpt lat="45.523536936773944" lon="9.260557324245662"><ele>130.0</ele><time>2026-05-03T16:38:44Z</time></trkpt><trkpt lat="45.52380762320614" lon="9.260619313190402"><ele>131.0</ele><time>2026-05-03T16:38:45Z</time></trkpt><trkpt lat="45.52408358118836" lon="9.260718658634065"><ele>132.0</ele><time>2026-05-03T16:38:46Z</time></trkpt><trkpt lat="45.52436012627557" lon="9.260859263206926"><ele>130.5</ele><time>2026-05-03T16:38:47Z</time></trkpt><trkpt lat="45.52463079482468" lon="9.261033591743303"><ele>129.0</ele><time>2026-05-03T16:38:48Z</time></trkpt><trkpt lat="45.524893001977155" lon="9.261258843528"><ele>130.0</ele><time>2026-05-03T16:38:49Z</time></trkpt><trkpt lat="45.525143877317824" lon="9.261513582876665"><ele>131.0</ele><time>2026-05-03T16:38:50Z</time></trkpt><trkpt lat="45.52537238311508" lon="9.26179819131671"><ele>132.0</ele><time>2026-05-03T16:38:51Z</time></trkpt><trkpt lat="45.52557179759629" lon="9.262111429081015"><ele>133.0</ele><time>2026-05-03T16:38:52Z</time></trkpt><trkpt lat="45.52574717656441" lon="9.26245400540164"><ele>133.0</ele><time>2026-05-03T16:38:53Z</time></trkpt><trkpt lat="45.52590192818021" lon="9.262823293315696"><ele>133.0</ele><time>2026-05-03T16:38:54Z</time></trkpt><trkpt lat="45.52603404628699" lon="9.263221188829181"><ele>134.0</ele><time>2026-05-03T16:38:55Z</time></trkpt><trkpt lat="45.526155544606645" lon="9.263622949370017"><ele>135.0</ele><time>2026-05-03T16:38:56Z</time></trkpt><trkpt lat="45.52628478032844" lon="9.264015885501182"><ele>136.0</ele><time>2026-05-03T16:38:57Z</time></trkpt><trkpt lat="45.526433493572966" lon="9.264383665559452"><ele>137.0</ele><time>2026-05-03T16:38:58Z</time></trkpt><trkpt lat="45.52661002051406" lon="9.264724179469116"><ele>137.0</ele><time>2026-05-03T16:38:59Z</time></trkpt><trkpt lat="45.52680471104519" lon="9.265036690749204"><ele>137.0</ele><time>2026-05-03T16:39:00Z</time></trkpt><trkpt lat="45.527007638482324" lon="9.265315940050527"><ele>137.5</ele><time>2026-05-03T16:39:01Z</time></trkpt><trkpt lat="45.52721897639109" lon="9.265565265569979"><ele>138.0</ele><time>2026-05-03T16:39:02Z</time></trkpt><trkpt lat="45.527439393200254" lon="9.265789326876769"><ele>138.0</ele><time>2026-05-03T16:39:03Z</time></trkpt><trkpt lat="45.52766510341761" lon="9.265986759284958"><ele>138.0</ele><time>2026-05-03T16:39:04Z</time></trkpt><trkpt lat="45.52789658678785" lon="9.266162474413436"><ele>138.5</ele><time>2026-05-03T16:39:05Z</time></trkpt><trkpt lat="45.528124821074364" lon="9.266327058248535"><ele>139.0</ele><time>2026-05-03T16:39:06Z</time></trkpt><trkpt lat="45.528337437814244" lon="9.26649084084036"><ele>137.5</ele><time>2026-05-03T16:39:07Z</time></trkpt><trkpt lat="45.528541131827794" lon="9.266653372348237"><ele>136.0</ele><time>2026-05-03T16:39:08Z</time></trkpt><trkpt lat="45.52874741091636" lon="9.266815253083303"><ele>135.0</ele><time>2026-05-03T16:39:09Z</time></trkpt><trkpt lat="45.528952280084155" lon="9.266981907567118"><ele>134.0</ele><time>2026-05-03T16:39:10Z</time></trkpt><trkpt lat="45.52915187750458" lon="9.267158677144161"><ele>135.5</ele><time>2026-05-03T16:39:11Z</time></trkpt><trkpt lat="45.5293423439264" lon="9.267346949170413"><ele>137.0</ele><time>2026-05-03T16:39:12Z</time></trkpt><trkpt lat="45.52953165064557" lon="9.267552342968793"><ele>135.5</ele><time>2026-05-03T16:39:13Z</time></trkpt><trkpt lat="45.529720661276244" lon="9.267772604982511"><ele>134.0</ele><time>2026-05-03T16:39:14Z</time></trkpt><trkpt lat="45.5299114653135" lon="9.268018165241644"><ele>135.0</ele><time>2026-05-03T16:39:15Z</time></trkpt><trkpt lat="45.530094103533415" lon="9.268292463847144"><ele>136.0</ele><time>2026-05-03T16:39:16Z</time></trkpt><trkpt lat="45.53026554655644" lon="9.268596459965693"><ele>136.5</ele><time>2026-05-03T16:39:17Z</time></trkpt><trkpt lat="45.53042947171061" lon="9.268923191902447"><ele>137.0</ele><time>2026-05-03T16:39:18Z</time></trkpt><trkpt lat="45.53059304346171" lon="9.269264105502959"><ele>137.0</ele><time>2026-05-03T16:39:19Z</time></trkpt><trkpt lat="45.53076209508948" lon="9.269620278784325"><ele>137.0</ele><time>2026-05-03T16:39:20Z</time></trkpt><trkpt lat="45.53093440789928" lon="9.269978786621936"><ele>136.5</ele><time>2026-05-03T16:39:21Z</time></trkpt><trkpt lat="45.53111813918512" lon="9.270348047340722"><ele>136.0</ele><time>2026-05-03T16:39:22Z</time></trkpt><trkpt lat="45.53130656815676" lon="9.270723862217897"><ele>135.5</ele><time>2026-05-03T16:39:23Z</time></trkpt><trkpt lat="45.53149487416085" lon="9.271111976921043"><ele>135.0</ele><time>2026-05-03T16:39:24Z</time></trkpt><trkpt lat="45.53167914515628" lon="9.271497960915354"><ele>134.0</ele><time>2026-05-03T16:39:25Z</time></trkpt><trkpt lat="45.53186291905418" lon="9.27188194768787"><ele>133.0</ele><time>2026-05-03T16:39:26Z</time></trkpt><trkpt lat="45.532046021230144" lon="9.27226741997492"><ele>134.0</ele><time>2026-05-03T16:39:27Z</time></trkpt><trkpt lat="45.53222958553776" lon="9.272650251030612"><ele>135.0</ele><time>2026-05-03T16:39:28Z</time></trkpt><trkpt lat="45.53241555547784" lon="9.27303046630662"><ele>135.5</ele><time>2026-05-03T16:39:29Z</time></trkpt><trkpt lat="45.53259758294494" lon="9.273412469976122"><ele>136.0</ele><time>2026-05-03T16:39:30Z</time></trkpt><trkpt lat="45.532772696294764" lon="9.273795248855004"><ele>136.5</ele><time>2026-05-03T16:39:31Z</time></trkpt><trkpt lat="45.53294571818845" lon="9.27418021103748"><ele>137.0</ele><time>2026-05-03T16:39:32Z</time></trkpt><trkpt lat="45.53312516532985" lon="9.27456092496499"><ele>136.5</ele><time>2026-05-03T16:39:33Z</time></trkpt><trkpt lat="45.533307078016364" lon="9.274939629769921"><ele>136.0</ele><time>2026-05-03T16:39:34Z</time></trkpt><trkpt lat="45.53348963318626" lon="9.275320906914288"><ele>136.0</ele><time>2026-05-03T16:39:35Z</time></trkpt><trkpt lat="45.53366924788987" lon="9.275705068459379"><ele>136.0</ele><time>2026-05-03T16:39:36Z</time></trkpt><trkpt lat="45.53385078194376" lon="9.276090588308733"><ele>135.5</ele><time>2026-05-03T16:39:37Z</time></trkpt><trkpt lat="45.53403347371105" lon="9.276473142106646"><ele>135.0</ele><time>2026-05-03T16:39:38Z</time></trkpt><trkpt lat="45.53422090937225" lon="9.276854585329136"><ele>135.0</ele><time>2026-05-03T16:39:39Z</time></trkpt><trkpt lat="45.53441018477126" lon="9.277234878604142"><ele>135.0</ele><time>2026-05-03T16:39:40Z</time></trkpt><trkpt lat="45.53459935086668" lon="9.277618609548371"><ele>136.0</ele><time>2026-05-03T16:39:41Z</time></trkpt><trkpt lat="45.53478791750659" lon="9.278004303676036"><ele>137.0</ele><time>2026-05-03T16:39:42Z</time></trkpt><trkpt lat="45.5349710720903" lon="9.278394144280023"><ele>137.0</ele><time>2026-05-03T16:39:43Z</time></trkpt><trkpt lat="45.535155496478644" lon="9.278782758654735"><ele>137.0</ele><time>2026-05-03T16:39:44Z</time></trkpt><trkpt lat="45.53534112548189" lon="9.27916837002517"><ele>137.0</ele><time>2026-05-03T16:39:45Z</time></trkpt><trkpt lat="45.53552664872319" lon="9.279554532931048"><ele>137.0</ele><time>2026-05-03T16:39:46Z</time></trkpt><trkpt lat="45.53571462453335" lon="9.279936258870062"><ele>137.0</ele><time>2026-05-03T16:39:47Z</time></trkpt><trkpt lat="45.53590392522668" lon="9.280320753668969"><ele>137.0</ele><time>2026-05-03T16:39:48Z</time></trkpt><trkpt lat="45.53609022837693" lon="9.28070193008743"><ele>137.5</ele><time>2026-05-03T16:39:49Z</time></trkpt><trkpt lat="45.53627583240046" lon="9.281081126850916"><ele>138.0</ele><time>2026-05-03T16:39:50Z</time></trkpt><trkpt lat="45.53646213915792" lon="9.281455932350111"><ele>138.0</ele><time>2026-05-03T16:39:51Z</time></trkpt><trkpt lat="45.53664772769157" lon="9.281826976059092"><ele>138.0</ele><time>2026-05-03T16:39:52Z</time></trkpt><trkpt lat="45.5368284846089" lon="9.282199385769031"><ele>138.5</ele><time>2026-05-03T16:39:53Z</time></trkpt><trkpt lat="45.53700638472056" lon="9.282571354611939"><ele>139.0</ele><time>2026-05-03T16:39:54Z</time></trkpt><trkpt lat="45.53718576774306" lon="9.28293041238211"><ele>139.0</ele><time>2026-05-03T16:39:55Z</time></trkpt><trkpt lat="45.53736779327339" lon="9.283272584632211"><ele>139.0</ele><time>2026-05-03T16:39:56Z</time></trkpt><trkpt lat="45.53753298613802" lon="9.283611579470001"><ele>141.0</ele><time>2026-05-03T16:39:57Z</time></trkpt><trkpt lat="45.53766704248408" lon="9.283959613485973"><ele>143.0</ele><time>2026-05-03T16:39:58Z</time></trkpt><trkpt lat="45.53777311683343" lon="9.284310943916141"><ele>143.0</ele><time>2026-05-03T16:39:59Z</time></trkpt><trkpt lat="45.53784628195647" lon="9.284677426454689"><ele>143.0</ele><time>2026-05-03T16:40:00Z</time></trkpt><trkpt lat="45.53789397865716" lon="9.28505428652504"><ele>140.0</ele><time>2026-05-03T16:40:01Z</time></trkpt><trkpt lat="45.537916140983" lon="9.28543900860356"><ele>137.0</ele><time>2026-05-03T16:40:02Z</time></trkpt><trkpt lat="45.53791590120921" lon="9.285825165751923"><ele>138.0</ele><time>2026-05-03T16:40:03Z</time></trkpt><trkpt lat="45.537884444659724" lon="9.286207897632064"><ele>139.0</ele><time>2026-05-03T16:40:04Z</time></trkpt><trkpt lat="45.53782758869894" lon="9.286587385328405"><ele>139.0</ele><time>2026-05-03T16:40:05Z</time></trkpt><trkpt lat="45.53774671309856" lon="9.286957530037583"><ele>139.0</ele><time>2026-05-03T16:40:06Z</time></trkpt><trkpt lat="45.537637793621606" lon="9.287320120196826"><ele>137.5</ele><time>2026-05-03T16:40:07Z</time></trkpt><trkpt lat="45.537507017509924" lon="9.287674624993489"><ele>136.0</ele><time>2026-05-03T16:40:08Z</time></trkpt><trkpt lat="45.53736354768781" lon="9.288030147529359"><ele>135.5</ele><time>2026-05-03T16:40:09Z</time></trkpt><trkpt lat="45.53721543969012" lon="9.288395160318379"><ele>135.0</ele><time>2026-05-03T16:40:10Z</time></trkpt><trkpt lat="45.537078722811934" lon="9.288773307601128"><ele>133.5</ele><time>2026-05-03T16:40:11Z</time></trkpt><trkpt lat="45.53696289230835" lon="9.289160313113223"><ele>132.0</ele><time>2026-05-03T16:40:12Z</time></trkpt><trkpt lat="45.53687033136273" lon="9.289556704085122"><ele>133.5</ele><time>2026-05-03T16:40:13Z</time></trkpt><trkpt lat="45.536807170675935" lon="9.28995860712284"><ele>135.0</ele><time>2026-05-03T16:40:14Z</time></trkpt><trkpt lat="45.536767791308435" lon="9.290366418940403"><ele>135.0</ele><time>2026-05-03T16:40:15Z</time></trkpt><trkpt lat="45.536754976712025" lon="9.290775391042303"><ele>135.0</ele><time>2026-05-03T16:40:16Z</time></trkpt><trkpt lat="45.53676598372167" lon="9.291183585249478"><ele>133.5</ele><time>2026-05-03T16:40:17Z</time></trkpt><trkpt lat="45.536797083577355" lon="9.291594415928783"><ele>132.0</ele><time>2026-05-03T16:40:18Z</time></trkpt><trkpt lat="45.53684315516251" lon="9.29200337760087"><ele>133.5</ele><time>2026-05-03T16:40:19Z</time></trkpt><trkpt lat="45.53689302804473" lon="9.292413515944046"><ele>135.0</ele><time>2026-05-03T16:40:20Z</time></trkpt><trkpt lat="45.53693858417117" lon="9.292823969547596"><ele>135.0</ele><time>2026-05-03T16:40:21Z</time></trkpt><trkpt lat="45.536980426387686" lon="9.293234810374873"><ele>135.0</ele><time>2026-05-03T16:40:22Z</time></trkpt><trkpt lat="45.537019645953386" lon="9.293647715113709"><ele>138.5</ele><time>2026-05-03T16:40:23Z</time></trkpt><trkpt lat="45.53705592574797" lon="9.294059290404682"><ele>142.0</ele><time>2026-05-03T16:40:24Z</time></trkpt><trkpt lat="45.53709279579724" lon="9.294473172991404"><ele>141.0</ele><time>2026-05-03T16:40:25Z</time></trkpt><trkpt lat="45.537133228132475" lon="9.294886990163793"><ele>140.0</ele><time>2026-05-03T16:40:26Z</time></trkpt><trkpt lat="45.53717773474387" lon="9.295302136963267"><ele>137.0</ele><time>2026-05-03T16:40:27Z</time></trkpt><trkpt lat="45.537222599318824" lon="9.29571729203907"><ele>134.0</ele><time>2026-05-03T16:40:28Z</time></trkpt><trkpt lat="45.53726672434085" lon="9.296132503846277"><ele>133.5</ele><time>2026-05-03T16:40:29Z</time></trkpt><trkpt lat="45.53731173928864" lon="9.296550541905788"><ele>133.0</ele><time>2026-05-03T16:40:30Z</time></trkpt><trkpt lat="45.537355708616566" lon="9.296963542327356"><ele>132.0</ele><time>2026-05-03T16:40:31Z</time></trkpt><trkpt lat="45.537398730032024" lon="9.297376740661026"><ele>131.0</ele><time>2026-05-03T16:40:32Z</time></trkpt><trkpt lat="45.53744040288792" lon="9.297790544354855"><ele>132.5</ele><time>2026-05-03T16:40:33Z</time></trkpt><trkpt lat="45.53748395834215" lon="9.298205132719158"><ele>134.0</ele><time>2026-05-03T16:40:34Z</time></trkpt><trkpt lat="45.537527417358234" lon="9.29861824413018"><ele>133.0</ele><time>2026-05-03T16:40:35Z</time></trkpt><trkpt lat="45.53757334448081" lon="9.299029312305894"><ele>132.0</ele><time>2026-05-03T16:40:36Z</time></trkpt><trkpt lat="45.53761805117206" lon="9.299441326340597"><ele>132.0</ele><time>2026-05-03T16:40:37Z</time></trkpt><trkpt lat="45.53766287736008" lon="9.299851590690277"><ele>132.0</ele><time>2026-05-03T16:40:38Z</time></trkpt><trkpt lat="45.53770701022401" lon="9.300263968104941"><ele>133.0</ele><time>2026-05-03T16:40:39Z</time></trkpt><trkpt lat="45.53775122278435" lon="9.300675479411542"><ele>134.0</ele><time>2026-05-03T16:40:40Z</time></trkpt><trkpt lat="45.53779477098545" lon="9.301086342067082"><ele>133.5</ele><time>2026-05-03T16:40:41Z</time></trkpt><trkpt lat="45.53783831743214" lon="9.3014968485034"><ele>133.0</ele><time>2026-05-03T16:40:42Z</time></trkpt><trkpt lat="45.53788083037451" lon="9.301906256453012"><ele>134.5</ele><time>2026-05-03T16:40:43Z</time></trkpt><trkpt lat="45.53792450157283" lon="9.302315295762495"><ele>136.0</ele><time>2026-05-03T16:40:44Z</time></trkpt><trkpt lat="45.53796964229175" lon="9.30272440502259"><ele>134.5</ele><time>2026-05-03T16:40:45Z</time></trkpt><trkpt lat="45.5380149354335" lon="9.303129777858732"><ele>133.0</ele><time>2026-05-03T16:40:46Z</time></trkpt><trkpt lat="45.53805847800543" lon="9.303534114155445"><ele>133.5</ele><time>2026-05-03T16:40:47Z</time></trkpt><trkpt lat="45.53810139505581" lon="9.303938816769223"><ele>134.0</ele><time>2026-05-03T16:40:48Z</time></trkpt><trkpt lat="45.538145615434345" lon="9.30434021077445"><ele>134.0</ele><time>2026-05-03T16:40:49Z</time></trkpt><trkpt lat="45.53818856547585" lon="9.304741228914907"><ele>134.0</ele><time>2026-05-03T16:40:50Z</time></trkpt><trkpt lat="45.538233100602305" lon="9.305144812189933"><ele>134.5</ele><time>2026-05-03T16:40:51Z</time></trkpt><trkpt lat="45.538277934990305" lon="9.305546205237862"><ele>135.0</ele><time>2026-05-03T16:40:52Z</time></trkpt><trkpt lat="45.53832356598022" lon="9.305947897040227"><ele>134.0</ele><time>2026-05-03T16:40:53Z</time></trkpt><trkpt lat="45.53836893559491" lon="9.30634455935894"><ele>133.0</ele><time>2026-05-03T16:40:54Z</time></trkpt><trkpt lat="45.538413332866675" lon="9.306740992501803"><ele>133.0</ele><time>2026-05-03T16:40:55Z</time></trkpt><trkpt lat="45.53845534208162" lon="9.307140298075446"><ele>133.0</ele><time>2026-05-03T16:40:56Z</time></trkpt><trkpt lat="45.53849703517508" lon="9.307536417663004"><ele>135.0</ele><time>2026-05-03T16:40:57Z</time></trkpt><trkpt lat="45.53853798383722" lon="9.307932977972863"><ele>137.0</ele><time>2026-05-03T16:40:58Z</time></trkpt><trkpt lat="45.5385793642956" lon="9.308327883733503"><ele>137.5</ele><time>2026-05-03T16:40:59Z</time></trkpt><trkpt lat="45.53862175099544" lon="9.308721828943904"><ele>138.0</ele><time>2026-05-03T16:41:00Z</time></trkpt><trkpt lat="45.538664532651644" lon="9.309115305059736"><ele>137.5</ele><time>2026-05-03T16:41:01Z</time></trkpt><trkpt lat="45.53870789870734" lon="9.309508161110344"><ele>137.0</ele><time>2026-05-03T16:41:02Z</time></trkpt><trkpt lat="45.53874867517343" lon="9.30990102025302"><ele>137.0</ele><time>2026-05-03T16:41:03Z</time></trkpt><trkpt lat="45.53879020482515" lon="9.310293687768759"><ele>137.0</ele><time>2026-05-03T16:41:04Z</time></trkpt><trkpt lat="45.538832658549" lon="9.310688838913865"><ele>136.0</ele><time>2026-05-03T16:41:05Z</time></trkpt><trkpt lat="45.53887877644441" lon="9.311085209949475"><ele>135.0</ele><time>2026-05-03T16:41:06Z</time></trkpt><trkpt lat="45.538931610316496" lon="9.311480509943392"><ele>135.0</ele><time>2026-05-03T16:41:07Z</time></trkpt><trkpt lat="45.53899374991808" lon="9.311876284973005"><ele>135.0</ele><time>2026-05-03T16:41:08Z</time></trkpt><trkpt lat="45.539071299494374" lon="9.31226986230689"><ele>135.0</ele><time>2026-05-03T16:41:09Z</time></trkpt><trkpt lat="45.5391666335882" lon="9.312654706357371"><ele>135.0</ele><time>2026-05-03T16:41:10Z</time></trkpt><trkpt lat="45.539279856410076" lon="9.313029837813046"><ele>135.5</ele><time>2026-05-03T16:41:11Z</time></trkpt><trkpt lat="45.53941416774721" lon="9.313389750605849"><ele>136.0</ele><time>2026-05-03T16:41:12Z</time></trkpt><trkpt lat="45.539569351492325" lon="9.313733957323944"><ele>135.5</ele><time>2026-05-03T16:41:13Z</time></trkpt><trkpt lat="45.53973008425502" lon="9.314073016317312"><ele>135.0</ele><time>2026-05-03T16:41:14Z</time></trkpt><trkpt lat="45.53990937040257" lon="9.314394476681983"><ele>135.0</ele><time>2026-05-03T16:41:15Z</time></trkpt><trkpt lat="45.54009917595167" lon="9.31470480199698"><ele>135.0</ele><time>2026-05-03T16:41:16Z</time></trkpt><trkpt lat="45.540299600841294" lon="9.314996891506869"><ele>136.5</ele><time>2026-05-03T16:41:17Z</time></trkpt><trkpt lat="45.540510900671" lon="9.31526908963938"><ele>138.0</ele><time>2026-05-03T16:41:18Z</time></trkpt><trkpt lat="45.54073419266743" lon="9.315521818571872"><ele>137.0</ele><time>2026-05-03T16:41:19Z</time></trkpt><trkpt lat="45.54096795499838" lon="9.315751506829848"><ele>136.0</ele><time>2026-05-03T16:41:20Z</time></trkpt><trkpt lat="45.541209239275375" lon="9.31596212389127"><ele>136.5</ele><time>2026-05-03T16:41:21Z</time></trkpt><trkpt lat="45.54145546778665" lon="9.316154005788068"><ele>137.0</ele><time>2026-05-03T16:41:22Z</time></trkpt><trkpt lat="45.5417065811135" lon="9.316333590208682"><ele>138.0</ele><time>2026-05-03T16:41:23Z</time></trkpt><trkpt lat="45.54196004313496" lon="9.316506302352416"><ele>139.0</ele><time>2026-05-03T16:41:24Z</time></trkpt><trkpt lat="45.54221668901925" lon="9.3166765069999"><ele>139.5</ele><time>2026-05-03T16:41:25Z</time></trkpt><trkpt lat="45.54247350927475" lon="9.316850151493236"><ele>140.0</ele><time>2026-05-03T16:41:26Z</time></trkpt><trkpt lat="45.54272887805732" lon="9.317027139534893"><ele>140.0</ele><time>2026-05-03T16:41:27Z</time></trkpt><trkpt lat="45.54298284740876" lon="9.31720471131017"><ele>140.0</ele><time>2026-05-03T16:41:28Z</time></trkpt><trkpt lat="45.54323540601206" lon="9.317393240173082"><ele>140.0</ele><time>2026-05-03T16:41:29Z</time></trkpt><trkpt lat="45.543479906140234" lon="9.317596622698186"><ele>140.0</ele><time>2026-05-03T16:41:30Z</time></trkpt><trkpt lat="45.5437163655121" lon="9.31781890342514"><ele>140.0</ele><time>2026-05-03T16:41:31Z</time></trkpt><trkpt lat="45.54394116155183" lon="9.318059825679788"><ele>140.0</ele><time>2026-05-03T16:41:32Z</time></trkpt><trkpt lat="45.54415247566761" lon="9.318318498611493"><ele>140.0</ele><time>2026-05-03T16:41:33Z</time></trkpt><trkpt lat="45.54435078575883" lon="9.318596946147515"><ele>140.0</ele><time>2026-05-03T16:41:34Z</time></trkpt><trkpt lat="45.5445369037576" lon="9.318890516619161"><ele>140.5</ele><time>2026-05-03T16:41:35Z</time></trkpt><trkpt lat="45.54470972744806" lon="9.31919973471479"><ele>141.0</ele><time>2026-05-03T16:41:36Z</time></trkpt><trkpt lat="45.544868875819" lon="9.319524743065422"><ele>141.5</ele><time>2026-05-03T16:41:37Z</time></trkpt><trkpt lat="45.54501732253605" lon="9.319862301817373"><ele>142.0</ele><time>2026-05-03T16:41:38Z</time></trkpt><trkpt lat="45.54515450782289" lon="9.320208053391111"><ele>142.0</ele><time>2026-05-03T16:41:39Z</time></trkpt><trkpt lat="45.545286634830525" lon="9.320558335058122"><ele>142.0</ele><time>2026-05-03T16:41:40Z</time></trkpt><trkpt lat="45.545420352931664" lon="9.32090991934913"><ele>141.5</ele><time>2026-05-03T16:41:41Z</time></trkpt><trkpt lat="45.54556060667243" lon="9.3212563600316"><ele>141.0</ele><time>2026-05-03T16:41:42Z</time></trkpt><trkpt lat="45.54570926411059" lon="9.321596938152895"><ele>141.0</ele><time>2026-05-03T16:41:43Z</time></trkpt><trkpt lat="45.54586351383196" lon="9.321930236240375"><ele>141.0</ele><time>2026-05-03T16:41:44Z</time></trkpt><trkpt lat="45.54602267467314" lon="9.322258508805124"><ele>141.0</ele><time>2026-05-03T16:41:45Z</time></trkpt><trkpt lat="45.54618599721729" lon="9.322585087350427"><ele>141.0</ele><time>2026-05-03T16:41:46Z</time></trkpt><trkpt lat="45.54635557510443" lon="9.322901482392988"><ele>141.5</ele><time>2026-05-03T16:41:47Z</time></trkpt><trkpt lat="45.546532705402846" lon="9.323208282953718"><ele>142.0</ele><time>2026-05-03T16:41:48Z</time></trkpt><trkpt lat="45.54671504091535" lon="9.32350652964934"><ele>142.0</ele><time>2026-05-03T16:41:49Z</time></trkpt><trkpt lat="45.54690286715995" lon="9.323797348680818"><ele>142.0</ele><time>2026-05-03T16:41:50Z</time></trkpt><trkpt lat="45.5470899894161" lon="9.32407781294973"><ele>142.5</ele><time>2026-05-03T16:41:51Z</time></trkpt><trkpt lat="45.54727217622914" lon="9.324343256145882"><ele>143.0</ele><time>2026-05-03T16:41:52Z</time></trkpt><trkpt lat="45.54745346614322" lon="9.324585361635728"><ele>143.5</ele><time>2026-05-03T16:41:53Z</time></trkpt><trkpt lat="45.54764202555225" lon="9.324822310269765"><ele>144.0</ele><time>2026-05-03T16:41:54Z</time></trkpt><trkpt lat="45.5478336093647" lon="9.325051925682953"><ele>144.5</ele><time>2026-05-03T16:41:55Z</time></trkpt><trkpt lat="45.548023937318675" lon="9.32526319218214"><ele>145.0</ele><time>2026-05-03T16:41:56Z</time></trkpt><trkpt lat="45.548205887951966" lon="9.32544991735789"><ele>144.33333333333334</ele><time>2026-05-03T16:41:57Z</time></trkpt><trkpt lat="45.54838397425446" lon="9.325629247775042"><ele>143.66666666666666</ele><time>2026-05-03T16:41:58Z</time></trkpt><trkpt lat="45.54854930177058" lon="9.325819993172765"><ele>143.0</ele><time>2026-05-03T16:41:59Z</time></trkpt><trkpt lat="45.548704201957115" lon="9.32602062654503"><ele>143.0</ele><time>2026-05-03T16:42:00Z</time></trkpt><trkpt lat="45.548801363679" lon="9.326189929586866"><ele>143.0</ele><time>2026-05-03T16:42:01Z</time></trkpt><trkpt lat="45.54887934553646" lon="9.326414437006862"><ele>143.0</ele><time>2026-05-03T16:42:02Z</time></trkpt><trkpt lat="45.54892390444005" lon="9.326641592463394"><ele>143.0</ele><time>2026-05-03T16:42:03Z</time></trkpt><trkpt lat="45.549016491348446" lon="9.326793357039698"><ele>143.0</ele><time>2026-05-03T16:42:04Z</time></trkpt><trkpt lat="45.54895708051114" lon="9.327069957713897"><ele>143.0</ele><time>2026-05-03T16:42:05Z</time></trkpt><trkpt lat="45.54896915807121" lon="9.327263476720455"><ele>143.75</ele><time>2026-05-03T16:42:06Z</time></trkpt><trkpt lat="45.54897897927124" lon="9.32743386565013"><ele>144.5</ele><time>2026-05-03T16:42:07Z</time></trkpt><trkpt lat="45.548963756175276" lon="9.327606298117066"><ele>145.25</ele><time>2026-05-03T16:42:08Z</time></trkpt><trkpt lat="45.548925223091935" lon="9.327760772969832"><ele>146.0</ele><time>2026-05-03T16:42:09Z</time></trkpt><trkpt lat="45.54886457544496" lon="9.327916178755977"><ele>146.2</ele><time>2026-05-03T16:42:10Z</time></trkpt><trkpt lat="45.54878850959186" lon="9.32806521071437"><ele>146.39999999999998</ele><time>2026-05-03T16:42:11Z</time></trkpt><trkpt lat="45.54871881839876" lon="9.328200308528086"><ele>146.6</ele><time>2026-05-03T16:42:12Z</time></trkpt><trkpt lat="45.54865719067053" lon="9.328309023374647"><ele>146.79999999999998</ele><time>2026-05-03T16:42:13Z</time></trkpt><trkpt lat="45.54860032061887" lon="9.328392533752565"><ele>147.0</ele><time>2026-05-03T16:42:14Z</time></trkpt><trkpt lat="45.54855631100887" lon="9.328457817320304"><ele>146.66666666666666</ele><time>2026-05-03T16:42:15Z</time></trkpt><trkpt lat="45.54850790167464" lon="9.32854165411004"><ele>146.33333333333334</ele><time>2026-05-03T16:42:17Z</time></trkpt><trkpt lat="45.54846688639341" lon="9.32861138552471"><ele>146.0</ele><time>2026-05-03T16:42:26Z</time></trkpt><trkpt lat="45.548407965775674" lon="9.328666260202606"><ele>145.66666666666669</ele><time>2026-05-03T16:42:36Z</time></trkpt><trkpt lat="45.54832826781879" lon="9.328683884300904"><ele>145.33333333333334</ele><time>2026-05-03T16:42:39Z</time></trkpt><trkpt lat="45.548244457704804" lon="9.328704241388406"><ele>145.0</ele><time>2026-05-03T16:42:41Z</time></trkpt><trkpt lat="45.548121191839535" lon="9.328776077253924"><ele>145.0</ele><time>2026-05-03T16:42:43Z</time></trkpt><trkpt lat="45.54806048650518" lon="9.32885161501752"><ele>145.0</ele><time>2026-05-03T16:42:44Z</time></trkpt><trkpt lat="45.54801141966358" lon="9.328951065100329"><ele>145.0</ele><time>2026-05-03T16:42:45Z</time></trkpt><trkpt lat="45.547982317185166" lon="9.329049230917544"><ele>145.0</ele><time>2026-05-03T16:42:46Z</time></trkpt><trkpt lat="45.54796708920227" lon="9.329161017569048"><ele>145.0</ele><time>2026-05-03T16:42:48Z</time></trkpt><trkpt lat="45.54796338352105" lon="9.329252117882188"><ele>145.0</ele><time>2026-05-03T16:42:49.999Z</time></trkpt><trkpt lat="45.54796801241066" lon="9.329393891649953"><ele>145.2</ele><time>2026-05-03T16:42:51.999Z</time></trkpt><trkpt lat="45.548032656154" lon="9.329560418659808"><ele>145.4</ele><time>2026-05-03T16:42:53.999Z</time></trkpt><trkpt lat="45.54808621130259" lon="9.329645889922212"><ele>145.6</ele><time>2026-05-03T16:42:54.999Z</time></trkpt><trkpt lat="45.548154788988704" lon="9.329723949175836"><ele>145.8</ele><time>2026-05-03T16:42:55.999Z</time></trkpt><trkpt lat="45.54823294940029" lon="9.329806502278007"><ele>146.0</ele><time>2026-05-03T16:42:56.999Z</time></trkpt><trkpt lat="45.54830042864835" lon="9.329895875867374"><ele>145.5</ele><time>2026-05-03T16:42:57.999Z</time></trkpt><trkpt lat="45.54835732497757" lon="9.33004634920775"><ele>145.0</ele><time>2026-05-03T16:42:58.999Z</time></trkpt><trkpt lat="45.548368985124775" lon="9.330212301626881"><ele>144.5</ele><time>2026-05-03T16:43:00Z</time></trkpt><trkpt lat="45.548372200959996" lon="9.33042732793419"><ele>144.0</ele><time>2026-05-03T16:43:01Z</time></trkpt><trkpt lat="45.54837406950815" lon="9.330659754675638"><ele>143.66666666666666</ele><time>2026-05-03T16:43:02Z</time></trkpt><trkpt lat="45.548380776236364" lon="9.330894654874319"><ele>143.33333333333331</ele><time>2026-05-03T16:43:03Z</time></trkpt><trkpt lat="45.54838723795967" lon="9.331131514619894"><ele>143.0</ele><time>2026-05-03T16:43:04Z</time></trkpt><trkpt lat="45.54839427239478" lon="9.331372916325234"><ele>144.66666666666666</ele><time>2026-05-03T16:43:05Z</time></trkpt><trkpt lat="45.54840345599211" lon="9.331617176805839"><ele>146.33333333333334</ele><time>2026-05-03T16:43:06Z</time></trkpt><trkpt lat="45.54841462242438" lon="9.331860497753812"><ele>148.0</ele><time>2026-05-03T16:43:07Z</time></trkpt><trkpt lat="45.54842375595371" lon="9.332108210020747"><ele>147.66666666666669</ele><time>2026-05-03T16:43:08Z</time></trkpt><trkpt lat="45.54843602210265" lon="9.332350929138471"><ele>147.33333333333334</ele><time>2026-05-03T16:43:09Z</time></trkpt><trkpt lat="45.548454486868934" lon="9.332583497429525"><ele>147.0</ele><time>2026-05-03T16:43:10Z</time></trkpt><trkpt lat="45.548472159324184" lon="9.332795971316479"><ele>147.0</ele><time>2026-05-03T16:43:11Z</time></trkpt><trkpt lat="45.54846780811967" lon="9.332982665711484"><ele>147.0</ele><time>2026-05-03T16:43:12Z</time></trkpt><trkpt lat="45.54847030244218" lon="9.333130072105327"><ele>147.0</ele><time>2026-05-03T16:43:13Z</time></trkpt><trkpt lat="45.5484813115366" lon="9.333234177329405"><ele>147.0</ele><time>2026-05-03T16:43:14Z</time></trkpt><trkpt lat="45.54846424381124" lon="9.333334862400637"><ele>147.0</ele><time>2026-05-03T16:43:15Z</time></trkpt><trkpt lat="45.548402174335955" lon="9.333398105013366"><ele>147.14285714285714</ele><time>2026-05-03T16:43:16Z</time></trkpt><trkpt lat="45.54836046369155" lon="9.333478162138569"><ele>147.28571428571428</ele><time>2026-05-03T16:43:17Z</time></trkpt><trkpt lat="45.548313330482586" lon="9.333554622319438"><ele>147.42857142857144</ele><time>2026-05-03T16:43:18Z</time></trkpt><trkpt lat="45.548251103390704" lon="9.333622993845136"><ele>147.57142857142856</ele><time>2026-05-03T16:43:19Z</time></trkpt><trkpt lat="45.54820357319543" lon="9.333711416258998"><ele>147.71428571428572</ele><time>2026-05-03T16:43:20Z</time></trkpt><trkpt lat="45.548185809985746" lon="9.333816473448842"><ele>147.85714285714286</ele><time>2026-05-03T16:43:21Z</time></trkpt><trkpt lat="45.548196173106774" lon="9.333922557303929"><ele>148.0</ele><time>2026-05-03T16:43:22Z</time></trkpt><trkpt lat="45.548230395188256" lon="9.334022098984416"><ele>148.0</ele><time>2026-05-03T16:43:23Z</time></trkpt><trkpt lat="45.548284854654554" lon="9.334107472786576"><ele>148.0</ele><time>2026-05-03T16:43:24Z</time></trkpt><trkpt lat="45.548357965279926" lon="9.334169834803676"><ele>148.0</ele><time>2026-05-03T16:43:25Z</time></trkpt><trkpt lat="45.54844360312825" lon="9.334211172429894"><ele>148.0</ele><time>2026-05-03T16:43:26Z</time></trkpt><trkpt lat="45.548546934848815" lon="9.33421898145164"><ele>148.0</ele><time>2026-05-03T16:43:27Z</time></trkpt><trkpt lat="45.5486565577789" lon="9.334187315554338"><ele>147.5</ele><time>2026-05-03T16:43:28Z</time></trkpt><trkpt lat="45.54876469755407" lon="9.334116895473477"><ele>147.0</ele><time>2026-05-03T16:43:29Z</time></trkpt><trkpt lat="45.54885321311657" lon="9.333983923953365"><ele>146.5</ele><time>2026-05-03T16:43:30Z</time></trkpt><trkpt lat="45.54896949373995" lon="9.333875532063459"><ele>146.0</ele><time>2026-05-03T16:43:31Z</time></trkpt><trkpt lat="45.54909577226396" lon="9.333807902937082"><ele>145.75</ele><time>2026-05-03T16:43:32Z</time></trkpt><trkpt lat="45.54922659191491" lon="9.333738255750179"><ele>145.5</ele><time>2026-05-03T16:43:33Z</time></trkpt><trkpt lat="45.54937126509176" lon="9.333704430826586"><ele>145.25</ele><time>2026-05-03T16:43:34Z</time></trkpt><trkpt lat="45.54952238467155" lon="9.333690512648465"><ele>145.0</ele><time>2026-05-03T16:43:35Z</time></trkpt><trkpt lat="45.54967581921234" lon="9.333678103768577"><ele>145.0</ele><time>2026-05-03T16:43:36Z</time></trkpt><trkpt lat="45.549831832359914" lon="9.333660609970853"><ele>145.0</ele><time>2026-05-03T16:43:37Z</time></trkpt><trkpt lat="45.54998955115732" lon="9.33364077109091"><ele>145.0</ele><time>2026-05-03T16:43:38Z</time></trkpt><trkpt lat="45.55014846025646" lon="9.33362106013055"><ele>145.0</ele><time>2026-05-03T16:43:39Z</time></trkpt><trkpt lat="45.550306008055934" lon="9.333601058728016"><ele>145.0</ele><time>2026-05-03T16:43:40Z</time></trkpt><trkpt lat="45.55046308224963" lon="9.33358230783475"><ele>145.0</ele><time>2026-05-03T16:43:41Z</time></trkpt><trkpt lat="45.55061870059928" lon="9.333565360358095"><ele>145.66666666666669</ele><time>2026-05-03T16:43:42Z</time></trkpt><trkpt lat="45.55077585139963" lon="9.333550424980457"><ele>146.33333333333334</ele><time>2026-05-03T16:43:43Z</time></trkpt><trkpt lat="45.55093144373819" lon="9.333531475779363"><ele>147.0</ele><time>2026-05-03T16:43:44Z</time></trkpt><trkpt lat="45.55108472138383" lon="9.333513232923337"><ele>147.5</ele><time>2026-05-03T16:43:45Z</time></trkpt><trkpt lat="45.551234563280865" lon="9.3334964409861"><ele>148.0</ele><time>2026-05-03T16:43:46Z</time></trkpt><trkpt lat="45.551383692810404" lon="9.33348169439471"><ele>148.5</ele><time>2026-05-03T16:43:47Z</time></trkpt><trkpt lat="45.551531078516454" lon="9.33346709357655"><ele>149.0</ele><time>2026-05-03T16:43:48Z</time></trkpt><trkpt lat="45.551675650208566" lon="9.333450823477413"><ele>149.0</ele><time>2026-05-03T16:43:49Z</time></trkpt><trkpt lat="45.55182045086688" lon="9.333426211956457"><ele>149.0</ele><time>2026-05-03T16:43:50Z</time></trkpt><trkpt lat="45.55196904443499" lon="9.333389359131392"><ele>149.0</ele><time>2026-05-03T16:43:51Z</time></trkpt><trkpt lat="45.55211971536344" lon="9.333358084579679"><ele>149.0</ele><time>2026-05-03T16:43:52Z</time></trkpt><trkpt lat="45.55226687636998" lon="9.333337022879048"><ele>149.0</ele><time>2026-05-03T16:43:53Z</time></trkpt><trkpt lat="45.55241164726972" lon="9.333318118919262"><ele>149.0</ele><time>2026-05-03T16:43:54Z</time></trkpt><trkpt lat="45.55254645411551" lon="9.333293070857229"><ele>149.0</ele><time>2026-05-03T16:43:55Z</time></trkpt><trkpt lat="45.552668892448956" lon="9.333256888865776"><ele>149.0</ele><time>2026-05-03T16:43:56Z</time></trkpt><trkpt lat="45.55277921838797" lon="9.333207500091886"><ele>149.0</ele><time>2026-05-03T16:43:57Z</time></trkpt><trkpt lat="45.552876947505055" lon="9.333141157793865"><ele>149.0</ele><time>2026-05-03T16:43:58Z</time></trkpt><trkpt lat="45.552961758307845" lon="9.333069217875515"><ele>149.0</ele><time>2026-05-03T16:43:59Z</time></trkpt><trkpt lat="45.55304158726344" lon="9.333013482047727"><ele>149.0</ele><time>2026-05-03T16:44:00Z</time></trkpt><trkpt lat="45.553123909799446" lon="9.333009479810787"><ele>149.0</ele><time>2026-05-03T16:44:01Z</time></trkpt><trkpt lat="45.55319514634491" lon="9.33297568909573"><ele>149.0</ele><time>2026-05-03T16:44:02Z</time></trkpt><trkpt lat="45.55326598908677" lon="9.33299688058062"><ele>149.0</ele><time>2026-05-03T16:44:03Z</time></trkpt><trkpt lat="45.55334455549986" lon="9.33304738042168"><ele>149.0</ele><time>2026-05-03T16:44:04Z</time></trkpt><trkpt lat="45.55340385199889" lon="9.333169422768936"><ele>149.0</ele><time>2026-05-03T16:44:05Z</time></trkpt><trkpt lat="45.55348686196869" lon="9.333244486015529"><ele>149.0</ele><time>2026-05-03T16:44:06Z</time></trkpt><trkpt lat="45.55358771046255" lon="9.333273693983083"><ele>149.0</ele><time>2026-05-03T16:44:07Z</time></trkpt><trkpt lat="45.55367908846524" lon="9.33329471912717"><ele>149.0</ele><time>2026-05-03T16:44:08Z</time></trkpt><trkpt lat="45.55376768990179" lon="9.33318014874602"><ele>149.0</ele><time>2026-05-03T16:44:09Z</time></trkpt><trkpt lat="45.553811588996346" lon="9.333077847124628"><ele>149.0</ele><time>2026-05-03T16:44:10Z</time></trkpt><trkpt lat="45.55390794555476" lon="9.332977005743341"><ele>149.0</ele><time>2026-05-03T16:44:12Z</time></trkpt><trkpt lat="45.5540210956297" lon="9.33292950534673"><ele>148.8</ele><time>2026-05-03T16:44:14Z</time></trkpt><trkpt lat="45.554098517468965" lon="9.332921483049828"><ele>148.60000000000002</ele><time>2026-05-03T16:44:15Z</time></trkpt><trkpt lat="45.55419091592977" lon="9.332915397413458"><ele>148.4</ele><time>2026-05-03T16:44:16Z</time></trkpt><trkpt lat="45.554292743407416" lon="9.332908235730649"><ele>148.20000000000002</ele><time>2026-05-03T16:44:17Z</time></trkpt><trkpt lat="45.554400658305475" lon="9.332900056774957"><ele>148.0</ele><time>2026-05-03T16:44:18Z</time></trkpt><trkpt lat="45.55451086822373" lon="9.332895140911049"><ele>147.0</ele><time>2026-05-03T16:44:19Z</time></trkpt><trkpt lat="45.55462664425984" lon="9.332887150242751"><ele>146.0</ele><time>2026-05-03T16:44:20Z</time></trkpt><trkpt lat="45.55474743744102" lon="9.332881035111084"><ele>145.0</ele><time>2026-05-03T16:44:21Z</time></trkpt><trkpt lat="45.55486948676566" lon="9.332889933694327"><ele>144.0</ele><time>2026-05-03T16:44:22Z</time></trkpt><trkpt lat="45.554994878941265" lon="9.332924154337526"><ele>144.0</ele><time>2026-05-03T16:44:23Z</time></trkpt><trkpt lat="45.55512053789983" lon="9.332982012333165"><ele>144.0</ele><time>2026-05-03T16:44:24Z</time></trkpt><trkpt lat="45.55524376331915" lon="9.333056906675077"><ele>144.0</ele><time>2026-05-03T16:44:25Z</time></trkpt><trkpt lat="45.55536471171606" lon="9.333139568499561"><ele>144.0</ele><time>2026-05-03T16:44:26Z</time></trkpt><trkpt lat="45.55548650704907" lon="9.333220912735708"><ele>145.0</ele><time>2026-05-03T16:44:27Z</time></trkpt><trkpt lat="45.555611879214794" lon="9.333299841133893"><ele>146.0</ele><time>2026-05-03T16:44:28Z</time></trkpt><trkpt lat="45.555735383601515" lon="9.333376351255326"><ele>147.0</ele><time>2026-05-03T16:44:29Z</time></trkpt><trkpt lat="45.55585788833134" lon="9.333449286829834"><ele>148.0</ele><time>2026-05-03T16:44:30Z</time></trkpt><trkpt lat="45.5559755199677" lon="9.333519677311072"><ele>148.0</ele><time>2026-05-03T16:44:31Z</time></trkpt><trkpt lat="45.55608679742217" lon="9.333590320364227"><ele>148.0</ele><time>2026-05-03T16:44:32Z</time></trkpt><trkpt lat="45.55619614286346" lon="9.333666804365885"><ele>148.0</ele><time>2026-05-03T16:44:33Z</time></trkpt><trkpt lat="45.556306914657966" lon="9.333750149220016"><ele>148.0</ele><time>2026-05-03T16:44:34Z</time></trkpt><trkpt lat="45.556421437595525" lon="9.333841130315623"><ele>148.5</ele><time>2026-05-03T16:44:35Z</time></trkpt><trkpt lat="45.55653756605542" lon="9.333943840305919"><ele>149.0</ele><time>2026-05-03T16:44:36Z</time></trkpt><trkpt lat="45.55665680044358" lon="9.33405778403464"><ele>149.5</ele><time>2026-05-03T16:44:37Z</time></trkpt><trkpt lat="45.55677295104143" lon="9.334173595454848"><ele>150.0</ele><time>2026-05-03T16:44:38Z</time></trkpt><trkpt lat="45.556883437850146" lon="9.334285475777486"><ele>150.0</ele><time>2026-05-03T16:44:39Z</time></trkpt><trkpt lat="45.556991650712106" lon="9.334393052502223"><ele>150.0</ele><time>2026-05-03T16:44:40Z</time></trkpt><trkpt lat="45.55708604233991" lon="9.33448794961109"><ele>150.0</ele><time>2026-05-03T16:44:41Z</time></trkpt><trkpt lat="45.55716773057645" lon="9.334569583282347"><ele>150.0</ele><time>2026-05-03T16:44:42Z</time></trkpt><trkpt lat="45.55724500282835" lon="9.334644737161268"><ele>150.0</ele><time>2026-05-03T16:44:43Z</time></trkpt><trkpt lat="45.55731908849988" lon="9.33471661610628"><ele>150.0</ele><time>2026-05-03T16:44:43.999Z</time></trkpt><trkpt lat="45.55739734160814" lon="9.334792875930821"><ele>150.0</ele><time>2026-05-03T16:44:44.999Z</time></trkpt><trkpt lat="45.55747783613273" lon="9.334870249472434"><ele>150.0</ele><time>2026-05-03T16:44:45.999Z</time></trkpt><trkpt lat="45.557567502906075" lon="9.334955771988234"><ele>150.0</ele><time>2026-05-03T16:44:46.999Z</time></trkpt><trkpt lat="45.557660818953316" lon="9.335050712348181"><ele>150.0</ele><time>2026-05-03T16:44:47.999Z</time></trkpt><trkpt lat="45.55775704389908" lon="9.33515037815533"><ele>150.0</ele><time>2026-05-03T16:44:48.999Z</time></trkpt><trkpt lat="45.55785781206794" lon="9.335254897564525"><ele>150.0</ele><time>2026-05-03T16:44:49.999Z</time></trkpt><trkpt lat="45.557962925358844" lon="9.335359274089665"><ele>150.0</ele><time>2026-05-03T16:44:50.999Z</time></trkpt><trkpt lat="45.55806871774827" lon="9.335463813346037"><ele>150.0</ele><time>2026-05-03T16:44:51.999Z</time></trkpt><trkpt lat="45.55817428635952" lon="9.335574950035795"><ele>150.75</ele><time>2026-05-03T16:44:52.999Z</time></trkpt><trkpt lat="45.55827811834338" lon="9.33568732514231"><ele>151.5</ele><time>2026-05-03T16:44:53.999Z</time></trkpt><trkpt lat="45.55838031946326" lon="9.335797807921804"><ele>152.25</ele><time>2026-05-03T16:44:54.999Z</time></trkpt><trkpt lat="45.558483115062" lon="9.33590476841285"><ele>153.0</ele><time>2026-05-03T16:44:55.999Z</time></trkpt><trkpt lat="45.55858816605533" lon="9.336009294622013"><ele>153.0</ele><time>2026-05-03T16:44:56.999Z</time></trkpt><trkpt lat="45.55869811144848" lon="9.336119905498862"><ele>153.0</ele><time>2026-05-03T16:44:57.999Z</time></trkpt><trkpt lat="45.55880590313372" lon="9.336230938553467"><ele>153.0</ele><time>2026-05-03T16:44:58.999Z</time></trkpt><trkpt lat="45.558911723613086" lon="9.336340264524592"><ele>153.0</ele><time>2026-05-03T16:44:59.999Z</time></trkpt><trkpt lat="45.559018138730146" lon="9.336449891778383"><ele>152.5</ele><time>2026-05-03T16:45:00.999Z</time></trkpt><trkpt lat="45.55912374926749" lon="9.336557954021774"><ele>152.0</ele><time>2026-05-03T16:45:01.999Z</time></trkpt><trkpt lat="45.559230276622024" lon="9.336664524288784"><ele>151.5</ele><time>2026-05-03T16:45:02.999Z</time></trkpt><trkpt lat="45.559338091534215" lon="9.336772488935065"><ele>151.0</ele><time>2026-05-03T16:45:03.999Z</time></trkpt><trkpt lat="45.559447109683795" lon="9.336882039099363"><ele>151.5</ele><time>2026-05-03T16:45:04.999Z</time></trkpt><trkpt lat="45.55955441362964" lon="9.336989831215567"><ele>152.0</ele><time>2026-05-03T16:45:06Z</time></trkpt><trkpt lat="45.559661709210296" lon="9.337098533643358"><ele>152.5</ele><time>2026-05-03T16:45:07Z</time></trkpt><trkpt lat="45.55976997826816" lon="9.337208979428652"><ele>153.0</ele><time>2026-05-03T16:45:08Z</time></trkpt><trkpt lat="45.559880090856716" lon="9.337320345270182"><ele>153.0</ele><time>2026-05-03T16:45:09Z</time></trkpt><trkpt lat="45.55999041690589" lon="9.337433018034341"><ele>153.0</ele><time>2026-05-03T16:45:10Z</time></trkpt><trkpt lat="45.56010227949548" lon="9.337548159611341"><ele>153.0</ele><time>2026-05-03T16:45:11Z</time></trkpt><trkpt lat="45.560213824663265" lon="9.337662593992755"><ele>153.0</ele><time>2026-05-03T16:45:12Z</time></trkpt><trkpt lat="45.56032689421777" lon="9.337777579580626"><ele>153.0</ele><time>2026-05-03T16:45:13Z</time></trkpt><trkpt lat="45.56043621779706" lon="9.337890472900652"><ele>153.0</ele><time>2026-05-03T16:45:14Z</time></trkpt><trkpt lat="45.560542310174164" lon="9.337997782215517"><ele>153.0</ele><time>2026-05-03T16:45:15Z</time></trkpt><trkpt lat="45.56064666881517" lon="9.338102465043013"><ele>153.0</ele><time>2026-05-03T16:45:16Z</time></trkpt><trkpt lat="45.56074847246075" lon="9.338207736066124"><ele>153.0</ele><time>2026-05-03T16:45:17Z</time></trkpt><trkpt lat="45.56084490654141" lon="9.338310638733109"><ele>153.0</ele><time>2026-05-03T16:45:18Z</time></trkpt><trkpt lat="45.56094559190168" lon="9.338408369898296"><ele>153.0</ele><time>2026-05-03T16:45:19Z</time></trkpt><trkpt lat="45.56104859951649" lon="9.338511609894413"><ele>153.0</ele><time>2026-05-03T16:45:20Z</time></trkpt><trkpt lat="45.56114843733112" lon="9.338625220148366"><ele>153.5</ele><time>2026-05-03T16:45:21Z</time></trkpt><trkpt lat="45.56124799440082" lon="9.338743250125031"><ele>154.0</ele><time>2026-05-03T16:45:22Z</time></trkpt><trkpt lat="45.56134275195789" lon="9.338861466883687"><ele>154.5</ele><time>2026-05-03T16:45:23Z</time></trkpt><trkpt lat="45.56143956085608" lon="9.338968130609024"><ele>155.0</ele><time>2026-05-03T16:45:24Z</time></trkpt><trkpt lat="45.56153152903059" lon="9.339086485693445"><ele>155.0</ele><time>2026-05-03T16:45:25Z</time></trkpt><trkpt lat="45.5616227835667" lon="9.339199372741238"><ele>155.0</ele><time>2026-05-03T16:45:26Z</time></trkpt><trkpt lat="45.56171268299273" lon="9.339311057750768"><ele>155.0</ele><time>2026-05-03T16:45:27Z</time></trkpt><trkpt lat="45.561783964538954" lon="9.339443623490094"><ele>155.0</ele><time>2026-05-03T16:45:28Z</time></trkpt><trkpt lat="45.561869728650414" lon="9.339587948899258"><ele>155.0</ele><time>2026-05-03T16:45:29Z</time></trkpt><trkpt lat="45.56194220207612" lon="9.339716550271124"><ele>155.0</ele><time>2026-05-03T16:45:30Z</time></trkpt><trkpt lat="45.56203928117792" lon="9.339898290479946"><ele>155.0</ele><time>2026-05-03T16:45:31Z</time></trkpt><trkpt lat="45.56210647664105" lon="9.340043543526468"><ele>155.0</ele><time>2026-05-03T16:45:32Z</time></trkpt><trkpt lat="45.56216775891678" lon="9.340180638036355"><ele>154.75</ele><time>2026-05-03T16:45:33Z</time></trkpt><trkpt lat="45.56222688444627" lon="9.340313642626795"><ele>154.5</ele><time>2026-05-03T16:45:34Z</time></trkpt><trkpt lat="45.56228249689728" lon="9.340446566683328"><ele>154.25</ele><time>2026-05-03T16:45:35Z</time></trkpt><trkpt lat="45.562340816895436" lon="9.340586553083389"><ele>154.0</ele><time>2026-05-03T16:45:36Z</time></trkpt><trkpt lat="45.562401641543005" lon="9.34073740190734"><ele>153.75</ele><time>2026-05-03T16:45:37Z</time></trkpt><trkpt lat="45.562457096613244" lon="9.340893908750163"><ele>153.5</ele><time>2026-05-03T16:45:38Z</time></trkpt><trkpt lat="45.56250974647276" lon="9.341050083544575"><ele>153.25</ele><time>2026-05-03T16:45:39Z</time></trkpt><trkpt lat="45.56256935181024" lon="9.341208358229657"><ele>153.0</ele><time>2026-05-03T16:45:40Z</time></trkpt><trkpt lat="45.56263242722607" lon="9.341365169053748"><ele>153.25</ele><time>2026-05-03T16:45:41Z</time></trkpt><trkpt lat="45.56269865217137" lon="9.341521073938054"><ele>153.5</ele><time>2026-05-03T16:45:42Z</time></trkpt><trkpt lat="45.56275992860024" lon="9.341671663119824"><ele>153.75</ele><time>2026-05-03T16:45:43Z</time></trkpt><trkpt lat="45.56281956399536" lon="9.341824947426563"><ele>154.0</ele><time>2026-05-03T16:45:44Z</time></trkpt><trkpt lat="45.562875793146034" lon="9.341967783727629"><ele>154.2</ele><time>2026-05-03T16:45:45Z</time></trkpt><trkpt lat="45.56292831187303" lon="9.342095677071153"><ele>154.4</ele><time>2026-05-03T16:45:46Z</time></trkpt><trkpt lat="45.56296720184737" lon="9.342215087343444"><ele>154.6</ele><time>2026-05-03T16:45:47Z</time></trkpt><trkpt lat="45.56300951776904" lon="9.34232469040733"><ele>154.8</ele><time>2026-05-03T16:45:48Z</time></trkpt><trkpt lat="45.56295013234436" lon="9.342476166465671"><ele>155.0</ele><time>2026-05-03T16:45:49Z</time></trkpt><trkpt lat="45.56290729204053" lon="9.342599648253637"><ele>155.4</ele><time>2026-05-03T16:45:50Z</time></trkpt><trkpt lat="45.56291737105946" lon="9.342724544971126"><ele>155.8</ele><time>2026-05-03T16:45:51Z</time></trkpt><trkpt lat="45.56295676335394" lon="9.342843293982101"><ele>156.2</ele><time>2026-05-03T16:45:52Z</time></trkpt><trkpt lat="45.56300566267842" lon="9.342950124973544"><ele>156.6</ele><time>2026-05-03T16:45:53Z</time></trkpt><trkpt lat="45.56309294362971" lon="9.342996112384084"><ele>157.0</ele><time>2026-05-03T16:45:54Z</time></trkpt><trkpt lat="45.563180730750574" lon="9.343008851537551"><ele>157.0</ele><time>2026-05-03T16:45:55Z</time></trkpt><trkpt lat="45.563260030380555" lon="9.34298508840954"><ele>157.0</ele><time>2026-05-03T16:45:56Z</time></trkpt><trkpt lat="45.56333222721647" lon="9.3430901991021"><ele>157.0</ele><time>2026-05-03T16:45:57Z</time></trkpt><trkpt lat="45.563386264887264" lon="9.343184533350197"><ele>157.0</ele><time>2026-05-03T16:45:58Z</time></trkpt><trkpt lat="45.56345458265609" lon="9.343238079625191"><ele>157.0</ele><time>2026-05-03T16:45:59Z</time></trkpt><trkpt lat="45.56347467583599" lon="9.343374490411225"><ele>157.0</ele><time>2026-05-03T16:46:00Z</time></trkpt><trkpt lat="45.5635179790836" lon="9.343464829402162"><ele>157.0</ele><time>2026-05-03T16:46:01Z</time></trkpt><trkpt lat="45.56355902085753" lon="9.343551924470129"><ele>157.0</ele><time>2026-05-03T16:46:02Z</time></trkpt><trkpt lat="45.56360158432162" lon="9.343637596900328"><ele>157.0</ele><time>2026-05-03T16:46:03Z</time></trkpt><trkpt lat="45.56364177629687" lon="9.343723696581717"><ele>157.0</ele><time>2026-05-03T16:46:04Z</time></trkpt><trkpt lat="45.563678856156905" lon="9.343819330552657"><ele>157.0</ele><time>2026-05-03T16:46:05Z</time></trkpt><trkpt lat="45.56371402948982" lon="9.343925959410852"><ele>157.0</ele><time>2026-05-03T16:46:06Z</time></trkpt><trkpt lat="45.56376232459368" lon="9.344036402241562"><ele>156.0</ele><time>2026-05-03T16:46:07Z</time></trkpt><trkpt lat="45.56381754627949" lon="9.34415544149535"><ele>155.0</ele><time>2026-05-03T16:46:08Z</time></trkpt><trkpt lat="45.563877932266344" lon="9.344277747142824"><ele>154.0</ele><time>2026-05-03T16:46:09Z</time></trkpt><trkpt lat="45.563930031579005" lon="9.344400845152903"><ele>153.0</ele><time>2026-05-03T16:46:10Z</time></trkpt><trkpt lat="45.563973069335574" lon="9.344521872266027"><ele>152.0</ele><time>2026-05-03T16:46:11Z</time></trkpt><trkpt lat="45.5640041425801" lon="9.344626349374872"><ele>152.0</ele><time>2026-05-03T16:46:12Z</time></trkpt><trkpt lat="45.564036637256066" lon="9.344708271065514"><ele>152.0</ele><time>2026-05-03T16:46:13Z</time></trkpt><trkpt lat="45.564095343626875" lon="9.344809520124272"><ele>152.0</ele><time>2026-05-03T16:46:15Z</time></trkpt><trkpt lat="45.56415779343571" lon="9.344922791856991"><ele>152.0</ele><time>2026-05-03T16:46:57.999Z</time></trkpt><trkpt lat="45.56419896895903" lon="9.345002002671679"><ele>152.0</ele><time>2026-05-03T16:46:58.999Z</time></trkpt><trkpt lat="45.56424444689825" lon="9.345092267119467"><ele>152.0</ele><time>2026-05-03T16:46:59.999Z</time></trkpt><trkpt lat="45.564289795794664" lon="9.345189060630494"><ele>152.4</ele><time>2026-05-03T16:47:00.999Z</time></trkpt><trkpt lat="45.56433437905142" lon="9.345289148144529"><ele>152.79999999999998</ele><time>2026-05-03T16:47:01.999Z</time></trkpt><trkpt lat="45.56438272447752" lon="9.345396752713718"><ele>153.2</ele><time>2026-05-03T16:47:02.999Z</time></trkpt><trkpt lat="45.56443466879946" lon="9.34551133513697"><ele>153.6</ele><time>2026-05-03T16:47:03.999Z</time></trkpt><trkpt lat="45.56448249272148" lon="9.345625697391933"><ele>154.0</ele><time>2026-05-03T16:47:04.999Z</time></trkpt><trkpt lat="45.56453111331302" lon="9.345737019726075"><ele>154.6</ele><time>2026-05-03T16:47:05.999Z</time></trkpt><trkpt lat="45.56457925555154" lon="9.34585149546494"><ele>155.2</ele><time>2026-05-03T16:47:06.999Z</time></trkpt><trkpt lat="45.56462764197557" lon="9.345965399961852"><ele>155.79999999999998</ele><time>2026-05-03T16:47:07.999Z</time></trkpt><trkpt lat="45.56467328892358" lon="9.346077708654242"><ele>156.4</ele><time>2026-05-03T16:47:08.999Z</time></trkpt><trkpt lat="45.5647197589682" lon="9.34619712472533"><ele>157.0</ele><time>2026-05-03T16:47:09.999Z</time></trkpt><trkpt lat="45.56476884939292" lon="9.346323628563287"><ele>156.6</ele><time>2026-05-03T16:47:10.999Z</time></trkpt><trkpt lat="45.56481711188386" lon="9.346454300892088"><ele>156.2</ele><time>2026-05-03T16:47:12Z</time></trkpt><trkpt lat="45.56486530597012" lon="9.346587765650542"><ele>155.8</ele><time>2026-05-03T16:47:13Z</time></trkpt><trkpt lat="45.56490998398923" lon="9.346720107009174"><ele>155.4</ele><time>2026-05-03T16:47:14Z</time></trkpt><trkpt lat="45.564967471204184" lon="9.346846210285774"><ele>155.0</ele><time>2026-05-03T16:47:15Z</time></trkpt><trkpt lat="45.56500285057622" lon="9.346993869730456"><ele>155.0</ele><time>2026-05-03T16:47:16Z</time></trkpt><trkpt lat="45.565067649142094" lon="9.347127018376408"><ele>155.0</ele><time>2026-05-03T16:47:17Z</time></trkpt><trkpt lat="45.56514759349535" lon="9.347260964444986"><ele>155.0</ele><time>2026-05-03T16:47:18Z</time></trkpt><trkpt lat="45.565226643941486" lon="9.347398065957073"><ele>155.0</ele><time>2026-05-03T16:47:19Z</time></trkpt><trkpt lat="45.565306956881386" lon="9.347548806394938"><ele>155.75</ele><time>2026-05-03T16:47:20Z</time></trkpt><trkpt lat="45.56537915745025" lon="9.347715387362383"><ele>156.5</ele><time>2026-05-03T16:47:21Z</time></trkpt><trkpt lat="45.565447835580855" lon="9.347886033017977"><ele>157.25</ele><time>2026-05-03T16:47:22Z</time></trkpt><trkpt lat="45.565517995770456" lon="9.348058794957057"><ele>158.0</ele><time>2026-05-03T16:47:23Z</time></trkpt><trkpt lat="45.5655856465563" lon="9.348223971178047"><ele>158.5</ele><time>2026-05-03T16:47:24Z</time></trkpt><trkpt lat="45.5656549394138" lon="9.34838021264606"><ele>159.0</ele><time>2026-05-03T16:47:25Z</time></trkpt><trkpt lat="45.56572050183924" lon="9.348528744427533"><ele>159.5</ele><time>2026-05-03T16:47:26Z</time></trkpt><trkpt lat="45.56578473803599" lon="9.348675384409383"><ele>160.0</ele><time>2026-05-03T16:47:27Z</time></trkpt><trkpt lat="45.565850273401935" lon="9.348825270521466"><ele>160.25</ele><time>2026-05-03T16:47:28Z</time></trkpt><trkpt lat="45.56591189975615" lon="9.348978643646333"><ele>160.5</ele><time>2026-05-03T16:47:29Z</time></trkpt><trkpt lat="45.56596885611519" lon="9.34913531626601"><ele>160.75</ele><time>2026-05-03T16:47:30Z</time></trkpt><trkpt lat="45.56603480938551" lon="9.349291039316604"><ele>161.0</ele><time>2026-05-03T16:47:31Z</time></trkpt><trkpt lat="45.56610180503418" lon="9.349442787449744"><ele>161.0</ele><time>2026-05-03T16:47:32Z</time></trkpt><trkpt lat="45.566170336759164" lon="9.349600084212193"><ele>161.0</ele><time>2026-05-03T16:47:33Z</time></trkpt><trkpt lat="45.56623469975629" lon="9.349757808633825"><ele>161.0</ele><time>2026-05-03T16:47:34Z</time></trkpt><trkpt lat="45.56629934025362" lon="9.349911067517763"><ele>161.0</ele><time>2026-05-03T16:47:35Z</time></trkpt><trkpt lat="45.56636310600974" lon="9.350062267720633"><ele>160.60000000000002</ele><time>2026-05-03T16:47:36Z</time></trkpt><trkpt lat="45.566422743206154" lon="9.35020362818356"><ele>160.20000000000002</ele><time>2026-05-03T16:47:37Z</time></trkpt><trkpt lat="45.56647802400148" lon="9.35033375448002"><ele>159.8</ele><time>2026-05-03T16:47:38Z</time></trkpt><trkpt lat="45.56653122958179" lon="9.35045077950469"><ele>159.4</ele><time>2026-05-03T16:47:39Z</time></trkpt><trkpt lat="45.56657731913809" lon="9.350560077153402"><ele>159.0</ele><time>2026-05-03T16:47:40Z</time></trkpt><trkpt lat="45.566616275280325" lon="9.350660547473614"><ele>159.0</ele><time>2026-05-03T16:47:41Z</time></trkpt><trkpt lat="45.56664878434591" lon="9.350819939227232"><ele>159.0</ele><time>2026-05-03T16:47:43Z</time></trkpt><trkpt lat="45.56663655533992" lon="9.350991185756634"><ele>159.0</ele><time>2026-05-03T16:47:45Z</time></trkpt><trkpt lat="45.566630034522" lon="9.351094066680341"><ele>159.0</ele><time>2026-05-03T16:47:46Z</time></trkpt><trkpt lat="45.56664153910628" lon="9.351202118901885"><ele>159.0</ele><time>2026-05-03T16:47:47Z</time></trkpt><trkpt lat="45.56668299230586" lon="9.351297680784185"><ele>159.0</ele><time>2026-05-03T16:47:48Z</time></trkpt><trkpt lat="45.56674813466496" lon="9.351358017291671"><ele>159.0</ele><time>2026-05-03T16:47:49Z</time></trkpt><trkpt lat="45.566823262681815" lon="9.35137888630527"><ele>159.0</ele><time>2026-05-03T16:47:50Z</time></trkpt><trkpt lat="45.56690061131582" lon="9.351359096941264"><ele>159.0</ele><time>2026-05-03T16:47:51Z</time></trkpt><trkpt lat="45.56696977775397" lon="9.351302660474746"><ele>159.0</ele><time>2026-05-03T16:47:52Z</time></trkpt><trkpt lat="45.56702097399927" lon="9.351215025315058"><ele>159.0</ele><time>2026-05-03T16:47:53Z</time></trkpt><trkpt lat="45.567042128891465" lon="9.351102760456216"><ele>159.0</ele><time>2026-05-03T16:47:54Z</time></trkpt><trkpt lat="45.56703291164894" lon="9.350989397760042"><ele>159.0</ele><time>2026-05-03T16:47:55Z</time></trkpt><trkpt lat="45.56699593623409" lon="9.350891288129032"><ele>159.0</ele><time>2026-05-03T16:47:56Z</time></trkpt><trkpt lat="45.5669358408408" lon="9.350814408076863"><ele>159.0</ele><time>2026-05-03T16:47:57Z</time></trkpt><trkpt lat="45.566859074188585" lon="9.350754279843816"><ele>159.0</ele><time>2026-05-03T16:47:58Z</time></trkpt><trkpt lat="45.566775555451564" lon="9.350693131795941"><ele>159.0</ele><time>2026-05-03T16:47:59Z</time></trkpt><trkpt lat="45.56669016839199" lon="9.350602481239665"><ele>159.0</ele><time>2026-05-03T16:48:00Z</time></trkpt><trkpt lat="45.56661069821834" lon="9.350475556795766"><ele>159.0</ele><time>2026-05-03T16:48:01Z</time></trkpt><trkpt lat="45.566547009403706" lon="9.350326586372836"><ele>159.0</ele><time>2026-05-03T16:48:02Z</time></trkpt><trkpt lat="45.566489470166466" lon="9.35016828119651"><ele>159.0</ele><time>2026-05-03T16:48:03Z</time></trkpt><trkpt lat="45.56642739432502" lon="9.350013685704079"><ele>159.0</ele><time>2026-05-03T16:48:04Z</time></trkpt><trkpt lat="45.56636692471457" lon="9.34985253151634"><ele>159.0</ele><time>2026-05-03T16:48:05Z</time></trkpt><trkpt lat="45.56631510215382" lon="9.349698990894682"><ele>159.0</ele><time>2026-05-03T16:48:06Z</time></trkpt><trkpt lat="45.56627609274378" lon="9.349540114008567"><ele>159.0</ele><time>2026-05-03T16:48:07Z</time></trkpt><trkpt lat="45.56625048864876" lon="9.349379516934704"><ele>159.0</ele><time>2026-05-03T16:48:08Z</time></trkpt><trkpt lat="45.566237234093464" lon="9.349216426980105"><ele>159.0</ele><time>2026-05-03T16:48:09Z</time></trkpt><trkpt lat="45.56623449236375" lon="9.349052583786609"><ele>159.0</ele><time>2026-05-03T16:48:10Z</time></trkpt><trkpt lat="45.56623978004304" lon="9.348887121175835"><ele>159.0</ele><time>2026-05-03T16:48:11Z</time></trkpt><trkpt lat="45.56625327230149" lon="9.348721533925426"><ele>158.75</ele><time>2026-05-03T16:48:12Z</time></trkpt><trkpt lat="45.566278481267766" lon="9.348560130840445"><ele>158.5</ele><time>2026-05-03T16:48:13Z</time></trkpt><trkpt lat="45.566315478889905" lon="9.348405059496969"><ele>158.25</ele><time>2026-05-03T16:48:14Z</time></trkpt><trkpt lat="45.56636262029581" lon="9.348252084359945"><ele>158.0</ele><time>2026-05-03T16:48:15Z</time></trkpt><trkpt lat="45.56641218053433" lon="9.348107347143571"><ele>158.0</ele><time>2026-05-03T16:48:16Z</time></trkpt><trkpt lat="45.56646827297282" lon="9.34797004084477"><ele>158.0</ele><time>2026-05-03T16:48:17Z</time></trkpt><trkpt lat="45.56653128955693" lon="9.34783970033648"><ele>158.0</ele><time>2026-05-03T16:48:18Z</time></trkpt><trkpt lat="45.566606731438874" lon="9.347714672845049"><ele>158.0</ele><time>2026-05-03T16:48:19Z</time></trkpt><trkpt lat="45.56669278967161" lon="9.347600614195189"><ele>158.0</ele><time>2026-05-03T16:48:20Z</time></trkpt><trkpt lat="45.5667872466066" lon="9.347499834435396"><ele>158.0</ele><time>2026-05-03T16:48:21Z</time></trkpt><trkpt lat="45.56688707560896" lon="9.347409311087581"><ele>158.0</ele><time>2026-05-03T16:48:22Z</time></trkpt><trkpt lat="45.56699172129592" lon="9.347327581890903"><ele>158.0</ele><time>2026-05-03T16:48:23Z</time></trkpt><trkpt lat="45.567101104771055" lon="9.347256959782447"><ele>158.5</ele><time>2026-05-03T16:48:24Z</time></trkpt><trkpt lat="45.56721316240408" lon="9.347191782155429"><ele>159.0</ele><time>2026-05-03T16:48:25Z</time></trkpt><trkpt lat="45.567328803843424" lon="9.34713375810636"><ele>159.5</ele><time>2026-05-03T16:48:26Z</time></trkpt><trkpt lat="45.56741563491364" lon="9.347023596940806"><ele>160.0</ele><time>2026-05-03T16:48:27Z</time></trkpt><trkpt lat="45.5675728896285" lon="9.347031697226718"><ele>160.0</ele><time>2026-05-03T16:48:28Z</time></trkpt><trkpt lat="45.56770672164216" lon="9.346978458263479"><ele>160.0</ele><time>2026-05-03T16:48:29Z</time></trkpt><trkpt lat="45.5678481191212" lon="9.34692073343194"><ele>160.0</ele><time>2026-05-03T16:48:30Z</time></trkpt><trkpt lat="45.56799274845562" lon="9.346855793274447"><ele>160.0</ele><time>2026-05-03T16:48:31Z</time></trkpt><trkpt lat="45.568139329675766" lon="9.34678326460207"><ele>160.66666666666669</ele><time>2026-05-03T16:48:32Z</time></trkpt><trkpt lat="45.568286264286584" lon="9.346706887022172"><ele>161.33333333333334</ele><time>2026-05-03T16:48:33Z</time></trkpt><trkpt lat="45.56843326454794" lon="9.346629350947875"><ele>162.0</ele><time>2026-05-03T16:48:33.999Z</time></trkpt><trkpt lat="45.56858289285409" lon="9.346546704377477"><ele>162.0</ele><time>2026-05-03T16:48:34.999Z</time></trkpt><trkpt lat="45.56873165971542" lon="9.346464208446301"><ele>162.0</ele><time>2026-05-03T16:48:35.999Z</time></trkpt><trkpt lat="45.568877357744036" lon="9.346386049960321"><ele>162.0</ele><time>2026-05-03T16:48:36.999Z</time></trkpt><trkpt lat="45.569026043465755" lon="9.346314381744946"><ele>161.33333333333334</ele><time>2026-05-03T16:48:37.999Z</time></trkpt><trkpt lat="45.56917282019375" lon="9.346249741042074"><ele>160.66666666666669</ele><time>2026-05-03T16:48:38.999Z</time></trkpt><trkpt lat="45.56932373112235" lon="9.346188955506397"><ele>160.0</ele><time>2026-05-03T16:48:39.999Z</time></trkpt><trkpt lat="45.56947693462561" lon="9.346128536357261"><ele>159.66666666666669</ele><time>2026-05-03T16:48:40.999Z</time></trkpt><trkpt lat="45.569633078413474" lon="9.346071733641564"><ele>159.33333333333334</ele><time>2026-05-03T16:48:41.999Z</time></trkpt><trkpt lat="45.569791292014244" lon="9.34601735746882"><ele>159.0</ele><time>2026-05-03T16:48:42.999Z</time></trkpt><trkpt lat="45.56995193791658" lon="9.345964174166225"><ele>159.0</ele><time>2026-05-03T16:48:43.999Z</time></trkpt><trkpt lat="45.57010716249511" lon="9.345913492225925"><ele>159.0</ele><time>2026-05-03T16:48:44.999Z</time></trkpt><trkpt lat="45.57026130332961" lon="9.345864558073064"><ele>159.0</ele><time>2026-05-03T16:48:45.999Z</time></trkpt><trkpt lat="45.57041236564291" lon="9.34581721105434"><ele>159.0</ele><time>2026-05-03T16:48:46.999Z</time></trkpt><trkpt lat="45.570558379325355" lon="9.345771996255959"><ele>159.0</ele><time>2026-05-03T16:48:47.999Z</time></trkpt><trkpt lat="45.57069758387087" lon="9.345724327936852"><ele>159.0</ele><time>2026-05-03T16:48:48.999Z</time></trkpt><trkpt lat="45.57083507287173" lon="9.345675181321315"><ele>159.0</ele><time>2026-05-03T16:48:49.999Z</time></trkpt><trkpt lat="45.57097068281115" lon="9.345619118535444"><ele>159.0</ele><time>2026-05-03T16:48:50.999Z</time></trkpt><trkpt lat="45.571101421247526" lon="9.345556339477824"><ele>159.0</ele><time>2026-05-03T16:48:51.999Z</time></trkpt><trkpt lat="45.57122848010737" lon="9.345491293284564"><ele>159.0</ele><time>2026-05-03T16:48:52.999Z</time></trkpt><trkpt lat="45.571351383030475" lon="9.345424398485555"><ele>159.0</ele><time>2026-05-03T16:48:53.999Z</time></trkpt><trkpt lat="45.57147152398688" lon="9.345353501846663"><ele>159.75</ele><time>2026-05-03T16:48:54.999Z</time></trkpt><trkpt lat="45.57159025461125" lon="9.34527578661992"><ele>160.5</ele><time>2026-05-03T16:48:55.999Z</time></trkpt><trkpt lat="45.571710666635425" lon="9.34518687162964"><ele>161.25</ele><time>2026-05-03T16:48:56.999Z</time></trkpt><trkpt lat="45.57183251922875" lon="9.345088137134631"><ele>162.0</ele><time>2026-05-03T16:48:57.999Z</time></trkpt><trkpt lat="45.571954532938186" lon="9.344983858640347"><ele>163.0</ele><time>2026-05-03T16:48:58.999Z</time></trkpt><trkpt lat="45.57207912247311" lon="9.344877235651674"><ele>164.0</ele><time>2026-05-03T16:48:59.999Z</time></trkpt><trkpt lat="45.572203773445864" lon="9.344768159983895"><ele>165.0</ele><time>2026-05-03T16:49:00.999Z</time></trkpt><trkpt lat="45.572331642375225" lon="9.344660112693168"><ele>166.0</ele><time>2026-05-03T16:49:01.999Z</time></trkpt><trkpt lat="45.572457442404456" lon="9.344549057034401"><ele>165.0</ele><time>2026-05-03T16:49:02.999Z</time></trkpt><trkpt lat="45.572579361593036" lon="9.344434920398287"><ele>164.0</ele><time>2026-05-03T16:49:03.999Z</time></trkpt><trkpt lat="45.572703470691096" lon="9.344317955897802"><ele>163.0</ele><time>2026-05-03T16:49:04.999Z</time></trkpt><trkpt lat="45.57283043616966" lon="9.34420160544478"><ele>162.0</ele><time>2026-05-03T16:49:05.999Z</time></trkpt><trkpt lat="45.57295846420263" lon="9.34408711454458"><ele>162.0</ele><time>2026-05-03T16:49:06.999Z</time></trkpt><trkpt lat="45.57309143754252" lon="9.343979932620886"><ele>162.0</ele><time>2026-05-03T16:49:07.999Z</time></trkpt><trkpt lat="45.57323096644765" lon="9.343880088735236"><ele>162.0</ele><time>2026-05-03T16:49:08.999Z</time></trkpt><trkpt lat="45.5733728334907" lon="9.34378701878491"><ele>161.33333333333334</ele><time>2026-05-03T16:49:09.999Z</time></trkpt><trkpt lat="45.57351297445811" lon="9.343697473083934"><ele>160.66666666666669</ele><time>2026-05-03T16:49:10.999Z</time></trkpt><trkpt lat="45.57365171854364" lon="9.343608851151487"><ele>160.0</ele><time>2026-05-03T16:49:11.999Z</time></trkpt><trkpt lat="45.57378633021679" lon="9.343518139397608"><ele>160.0</ele><time>2026-05-03T16:49:12.999Z</time></trkpt><trkpt lat="45.57391519616863" lon="9.34341979668118"><ele>160.0</ele><time>2026-05-03T16:49:13.999Z</time></trkpt><trkpt lat="45.574035324650886" lon="9.343314511489428"><ele>160.0</ele><time>2026-05-03T16:49:14.999Z</time></trkpt><trkpt lat="45.57414966105239" lon="9.34319082947199"><ele>160.0</ele><time>2026-05-03T16:49:15.999Z</time></trkpt><trkpt lat="45.57425020975788" lon="9.343047635968556"><ele>159.5</ele><time>2026-05-03T16:49:17Z</time></trkpt><trkpt lat="45.574338470468064" lon="9.342898847886367"><ele>159.0</ele><time>2026-05-03T16:49:18Z</time></trkpt><trkpt lat="45.57439829904039" lon="9.342734250963458"><ele>158.5</ele><time>2026-05-03T16:49:19Z</time></trkpt><trkpt lat="45.574504089558005" lon="9.34262425252702"><ele>158.0</ele><time>2026-05-03T16:49:20Z</time></trkpt><trkpt lat="45.57458315736134" lon="9.342495774793907"><ele>158.0</ele><time>2026-05-03T16:49:21Z</time></trkpt><trkpt lat="45.5746557074806" lon="9.342370517764554"><ele>158.0</ele><time>2026-05-03T16:49:22Z</time></trkpt><trkpt lat="45.574720716595614" lon="9.342248354567475"><ele>158.0</ele><time>2026-05-03T16:49:23Z</time></trkpt><trkpt lat="45.57477870918053" lon="9.342132842631942"><ele>158.0</ele><time>2026-05-03T16:49:24Z</time></trkpt><trkpt lat="45.57483719385035" lon="9.34203128320056"><ele>158.0</ele><time>2026-05-03T16:49:25Z</time></trkpt><trkpt lat="45.574869027886244" lon="9.341920254965354"><ele>158.20000000000002</ele><time>2026-05-03T16:49:26Z</time></trkpt><trkpt lat="45.57498604519799" lon="9.341904041223975"><ele>158.4</ele><time>2026-05-03T16:49:27Z</time></trkpt><trkpt lat="45.5750732256588" lon="9.34190092571438"><ele>158.60000000000002</ele><time>2026-05-03T16:49:28Z</time></trkpt><trkpt lat="45.57515950236822" lon="9.341933888955337"><ele>158.8</ele><time>2026-05-03T16:49:29Z</time></trkpt><trkpt lat="45.575238385797554" lon="9.341998767181819"><ele>159.0</ele><time>2026-05-03T16:49:30Z</time></trkpt><trkpt lat="45.57531583508895" lon="9.342080925251013"><ele>158.8</ele><time>2026-05-03T16:49:31Z</time></trkpt><trkpt lat="45.57539487062411" lon="9.34217437015965"><ele>158.60000000000002</ele><time>2026-05-03T16:49:32Z</time></trkpt><trkpt lat="45.57547405729181" lon="9.342270739378009"><ele>158.4</ele><time>2026-05-03T16:49:33Z</time></trkpt><trkpt lat="45.57555559367719" lon="9.342358114921613"><ele>158.20000000000002</ele><time>2026-05-03T16:49:34Z</time></trkpt><trkpt lat="45.575638229422424" lon="9.342439014229065"><ele>158.0</ele><time>2026-05-03T16:49:35Z</time></trkpt><trkpt lat="45.57571605915329" lon="9.34252221531512"><ele>158.0</ele><time>2026-05-03T16:49:36Z</time></trkpt><trkpt lat="45.57579582266248" lon="9.342599819680899"><ele>158.0</ele><time>2026-05-03T16:49:37Z</time></trkpt><trkpt lat="45.57587945396482" lon="9.342670374871137"><ele>158.0</ele><time>2026-05-03T16:49:38Z</time></trkpt><trkpt lat="45.57596845882697" lon="9.342713917027549"><ele>158.0</ele><time>2026-05-03T16:49:39Z</time></trkpt><trkpt lat="45.576053515561" lon="9.342718406745364"><ele>158.0</ele><time>2026-05-03T16:49:40Z</time></trkpt><trkpt lat="45.57613580743979" lon="9.342684976096802"><ele>158.60000000000002</ele><time>2026-05-03T16:49:41Z</time></trkpt><trkpt lat="45.57621550902364" lon="9.342625010551298"><ele>159.20000000000002</ele><time>2026-05-03T16:49:42Z</time></trkpt><trkpt lat="45.57628856065129" lon="9.342550684901232"><ele>159.8</ele><time>2026-05-03T16:49:43Z</time></trkpt><trkpt lat="45.57636473261101" lon="9.342477542906105"><ele>160.4</ele><time>2026-05-03T16:49:44Z</time></trkpt><trkpt lat="45.576449906225484" lon="9.342406073878207"><ele>161.0</ele><time>2026-05-03T16:49:45Z</time></trkpt><trkpt lat="45.576544520128245" lon="9.342340065604239"><ele>161.0</ele><time>2026-05-03T16:49:46Z</time></trkpt><trkpt lat="45.57664887546366" lon="9.342287880487142"><ele>161.0</ele><time>2026-05-03T16:49:47Z</time></trkpt><trkpt lat="45.57675835410527" lon="9.342255535205489"><ele>161.0</ele><time>2026-05-03T16:49:48Z</time></trkpt><trkpt lat="45.576876922643336" lon="9.342240545038294"><ele>161.0</ele><time>2026-05-03T16:49:49Z</time></trkpt><trkpt lat="45.57700336092281" lon="9.342245448557152"><ele>161.75</ele><time>2026-05-03T16:49:50Z</time></trkpt><trkpt lat="45.57713369217707" lon="9.342280472463479"><ele>162.5</ele><time>2026-05-03T16:49:51Z</time></trkpt><trkpt lat="45.577266532035765" lon="9.342333502331302"><ele>163.25</ele><time>2026-05-03T16:49:52Z</time></trkpt><trkpt lat="45.577408023013284" lon="9.342387748448665"><ele>164.0</ele><time>2026-05-03T16:49:53Z</time></trkpt><trkpt lat="45.5775683536842" lon="9.342441177430116"><ele>164.0</ele><time>2026-05-03T16:49:54Z</time></trkpt><trkpt lat="45.577736690077515" lon="9.342506304979691"><ele>164.0</ele><time>2026-05-03T16:49:55Z</time></trkpt><trkpt lat="45.577902987339804" lon="9.342581730901415"><ele>164.0</ele><time>2026-05-03T16:49:56Z</time></trkpt><trkpt lat="45.578077339431616" lon="9.342655149026468"><ele>163.66666666666666</ele><time>2026-05-03T16:49:57Z</time></trkpt><trkpt lat="45.578254386732894" lon="9.34273021832686"><ele>163.33333333333334</ele><time>2026-05-03T16:49:58Z</time></trkpt><trkpt lat="45.57843334170606" lon="9.342804690534235"><ele>163.0</ele><time>2026-05-03T16:49:59Z</time></trkpt><trkpt lat="45.57861446305155" lon="9.3428795265372"><ele>162.66666666666669</ele><time>2026-05-03T16:50:00Z</time></trkpt><trkpt lat="45.57879636247904" lon="9.342956003359962"><ele>162.33333333333334</ele><time>2026-05-03T16:50:01Z</time></trkpt><trkpt lat="45.57897866331325" lon="9.343033822112394"><ele>162.0</ele><time>2026-05-03T16:50:02Z</time></trkpt><trkpt lat="45.57916718993076" lon="9.34311214956469"><ele>162.0</ele><time>2026-05-03T16:50:03Z</time></trkpt><trkpt lat="45.57936602006528" lon="9.343192939525228"><ele>162.0</ele><time>2026-05-03T16:50:04Z</time></trkpt><trkpt lat="45.579572781608874" lon="9.34328565997745"><ele>162.0</ele><time>2026-05-03T16:50:05Z</time></trkpt><trkpt lat="45.579791977901266" lon="9.343399309864703"><ele>164.0</ele><time>2026-05-03T16:50:06Z</time></trkpt><trkpt lat="45.58001871693012" lon="9.343528541673376"><ele>166.0</ele><time>2026-05-03T16:50:07Z</time></trkpt><trkpt lat="45.58024984529066" lon="9.343665711301771"><ele>165.5</ele><time>2026-05-03T16:50:08Z</time></trkpt><trkpt lat="45.580486588434965" lon="9.343813375829235"><ele>165.0</ele><time>2026-05-03T16:50:09Z</time></trkpt><trkpt lat="45.580723621581576" lon="9.343969808879752"><ele>165.0</ele><time>2026-05-03T16:50:10Z</time></trkpt><trkpt lat="45.58095968923388" lon="9.344131926122145"><ele>165.0</ele><time>2026-05-03T16:50:11Z</time></trkpt><trkpt lat="45.58119476519206" lon="9.344300313468187"><ele>164.5</ele><time>2026-05-03T16:50:12Z</time></trkpt><trkpt lat="45.58142723768043" lon="9.344475836206177"><ele>164.0</ele><time>2026-05-03T16:50:13Z</time></trkpt><trkpt lat="45.581657044200064" lon="9.344658798542177"><ele>164.0</ele><time>2026-05-03T16:50:14Z</time></trkpt><trkpt lat="45.581884987897034" lon="9.344850644113835"><ele>164.0</ele><time>2026-05-03T16:50:15Z</time></trkpt><trkpt lat="45.58210879703146" lon="9.345046363334873"><ele>164.0</ele><time>2026-05-03T16:50:16Z</time></trkpt><trkpt lat="45.58233106108325" lon="9.34524769188011"><ele>164.0</ele><time>2026-05-03T16:50:17Z</time></trkpt><trkpt lat="45.58255101084526" lon="9.345455587296906"><ele>164.0</ele><time>2026-05-03T16:50:18Z</time></trkpt><trkpt lat="45.582767078595374" lon="9.345670448617641"><ele>164.0</ele><time>2026-05-03T16:50:19Z</time></trkpt><trkpt lat="45.58298209031706" lon="9.345893097122667"><ele>165.0</ele><time>2026-05-03T16:50:20Z</time></trkpt><trkpt lat="45.5831948582312" lon="9.346120573978556"><ele>166.0</ele><time>2026-05-03T16:50:21Z</time></trkpt><trkpt lat="45.58340371312469" lon="9.34635481887952"><ele>166.0</ele><time>2026-05-03T16:50:22Z</time></trkpt><trkpt lat="45.583607408991014" lon="9.346595983273739"><ele>166.0</ele><time>2026-05-03T16:50:23Z</time></trkpt><trkpt lat="45.58380608898761" lon="9.346849952922376"><ele>166.5</ele><time>2026-05-03T16:50:24Z</time></trkpt><trkpt lat="45.58399809812838" lon="9.347108333622563"><ele>167.0</ele><time>2026-05-03T16:50:25Z</time></trkpt><trkpt lat="45.58418821778422" lon="9.347370210586147"><ele>167.0</ele><time>2026-05-03T16:50:26Z</time></trkpt><trkpt lat="45.58437989495523" lon="9.34763043135307"><ele>167.0</ele><time>2026-05-03T16:50:26.999Z</time></trkpt><trkpt lat="45.58456899023354" lon="9.3478903228117"><ele>167.5</ele><time>2026-05-03T16:50:27.999Z</time></trkpt><trkpt lat="45.5847569053435" lon="9.34814794212072"><ele>168.0</ele><time>2026-05-03T16:50:28.999Z</time></trkpt><trkpt lat="45.58494575242203" lon="9.348402853259394"><ele>168.0</ele><time>2026-05-03T16:50:29.999Z</time></trkpt><trkpt lat="45.58513597484717" lon="9.34865500089845"><ele>168.0</ele><time>2026-05-03T16:50:30.999Z</time></trkpt><trkpt lat="45.58532514777937" lon="9.348906754977229"><ele>168.5</ele><time>2026-05-03T16:50:31.999Z</time></trkpt><trkpt lat="45.58551489765937" lon="9.349156415309835"><ele>169.0</ele><time>2026-05-03T16:50:32.999Z</time></trkpt><trkpt lat="45.58570603850803" lon="9.349407113737637"><ele>169.0</ele><time>2026-05-03T16:50:33.999Z</time></trkpt><trkpt lat="45.58589533413913" lon="9.349658419349593"><ele>169.0</ele><time>2026-05-03T16:50:34.999Z</time></trkpt><trkpt lat="45.58608216184168" lon="9.349911097441476"><ele>168.5</ele><time>2026-05-03T16:50:35.999Z</time></trkpt><trkpt lat="45.58626816109257" lon="9.350161820769463"><ele>168.0</ele><time>2026-05-03T16:50:36.999Z</time></trkpt><trkpt lat="45.58645724020378" lon="9.350410876729182"><ele>168.0</ele><time>2026-05-03T16:50:37.999Z</time></trkpt><trkpt lat="45.58664635960011" lon="9.350661863847755"><ele>168.0</ele><time>2026-05-03T16:50:38.999Z</time></trkpt><trkpt lat="45.58683370158806" lon="9.350910657165311"><ele>169.0</ele><time>2026-05-03T16:50:39.999Z</time></trkpt><trkpt lat="45.587021992427545" lon="9.351158958067993"><ele>170.0</ele><time>2026-05-03T16:50:40.999Z</time></trkpt><trkpt lat="45.58720861939198" lon="9.351406642557583"><ele>170.0</ele><time>2026-05-03T16:50:41.999Z</time></trkpt><trkpt lat="45.58739493044023" lon="9.351655967933747"><ele>170.0</ele><time>2026-05-03T16:50:42.999Z</time></trkpt><trkpt lat="45.58758075975149" lon="9.351904507168225"><ele>170.0</ele><time>2026-05-03T16:50:43.999Z</time></trkpt><trkpt lat="45.58776655459861" lon="9.35215388225603"><ele>170.0</ele><time>2026-05-03T16:50:44.999Z</time></trkpt><trkpt lat="45.58795139714683" lon="9.352402059627579"><ele>171.0</ele><time>2026-05-03T16:50:45.999Z</time></trkpt><trkpt lat="45.5881358320474" lon="9.352650388536631"><ele>172.0</ele><time>2026-05-03T16:50:46.999Z</time></trkpt><trkpt lat="45.58831993487849" lon="9.352897200101312"><ele>171.5</ele><time>2026-05-03T16:50:47.999Z</time></trkpt><trkpt lat="45.58850591935161" lon="9.353142958393796"><ele>171.0</ele><time>2026-05-03T16:50:48.999Z</time></trkpt><trkpt lat="45.58869259707343" lon="9.353388800204899"><ele>172.0</ele><time>2026-05-03T16:50:49.999Z</time></trkpt><trkpt lat="45.58887898933541" lon="9.353632826653056"><ele>173.0</ele><time>2026-05-03T16:50:50.999Z</time></trkpt><trkpt lat="45.58906408846417" lon="9.353879747883488"><ele>173.0</ele><time>2026-05-03T16:50:51.999Z</time></trkpt><trkpt lat="45.58924913006189" lon="9.35412578560341"><ele>173.0</ele><time>2026-05-03T16:50:52.999Z</time></trkpt><trkpt lat="45.58943541721049" lon="9.354372221675645"><ele>173.0</ele><time>2026-05-03T16:50:53.999Z</time></trkpt><trkpt lat="45.589619355646995" lon="9.35461753590129"><ele>173.0</ele><time>2026-05-03T16:50:54.999Z</time></trkpt><trkpt lat="45.58980242550018" lon="9.354867250712214"><ele>172.0</ele><time>2026-05-03T16:50:55.999Z</time></trkpt><trkpt lat="45.589985598931776" lon="9.355115228055306"><ele>171.0</ele><time>2026-05-03T16:50:56.999Z</time></trkpt><trkpt lat="45.59016838043986" lon="9.355364619789073"><ele>171.5</ele><time>2026-05-03T16:50:57.999Z</time></trkpt><trkpt lat="45.59035112233471" lon="9.355612888034717"><ele>172.0</ele><time>2026-05-03T16:50:58.999Z</time></trkpt><trkpt lat="45.59053366798964" lon="9.355859346277443"><ele>172.0</ele><time>2026-05-03T16:50:59.999Z</time></trkpt><trkpt lat="45.590717462228376" lon="9.356102354303635"><ele>172.0</ele><time>2026-05-03T16:51:00.999Z</time></trkpt><trkpt lat="45.59090144604495" lon="9.356345881530801"><ele>173.0</ele><time>2026-05-03T16:51:01.999Z</time></trkpt><trkpt lat="45.591084358852704" lon="9.356589588935174"><ele>174.0</ele><time>2026-05-03T16:51:02.999Z</time></trkpt><trkpt lat="45.59126632465174" lon="9.356833204639576"><ele>174.0</ele><time>2026-05-03T16:51:03.999Z</time></trkpt><trkpt lat="45.59144900386422" lon="9.357077221277951"><ele>174.0</ele><time>2026-05-03T16:51:04.999Z</time></trkpt><trkpt lat="45.591632238257425" lon="9.357320919293143"><ele>175.0</ele><time>2026-05-03T16:51:05.999Z</time></trkpt><trkpt lat="45.59181673902223" lon="9.357566499049828"><ele>176.0</ele><time>2026-05-03T16:51:06.999Z</time></trkpt><trkpt lat="45.592002181721114" lon="9.35781364005054"><ele>175.5</ele><time>2026-05-03T16:51:07.999Z</time></trkpt><trkpt lat="45.59218989310273" lon="9.358060320395289"><ele>175.0</ele><time>2026-05-03T16:51:08.999Z</time></trkpt><trkpt lat="45.59237766942444" lon="9.358309613060868"><ele>175.0</ele><time>2026-05-03T16:51:09.999Z</time></trkpt><trkpt lat="45.592564867029054" lon="9.358561680930533"><ele>175.0</ele><time>2026-05-03T16:51:10.999Z</time></trkpt><trkpt lat="45.59275079150222" lon="9.358812577618151"><ele>174.5</ele><time>2026-05-03T16:51:11.999Z</time></trkpt><trkpt lat="45.592936512929754" lon="9.35906183611928"><ele>174.0</ele><time>2026-05-03T16:51:12.999Z</time></trkpt><trkpt lat="45.593123924368435" lon="9.359309267746063"><ele>174.0</ele><time>2026-05-03T16:51:13.999Z</time></trkpt><trkpt lat="45.59331372329439" lon="9.359554455860973"><ele>174.0</ele><time>2026-05-03T16:51:14.999Z</time></trkpt><trkpt lat="45.59350528401616" lon="9.35979434605026"><ele>175.5</ele><time>2026-05-03T16:51:15.999Z</time></trkpt><trkpt lat="45.59370132436966" lon="9.360025813593172"><ele>177.0</ele><time>2026-05-03T16:51:16.999Z</time></trkpt><trkpt lat="45.593902848598496" lon="9.360248461732917"><ele>177.0</ele><time>2026-05-03T16:51:17.999Z</time></trkpt><trkpt lat="45.59410873764867" lon="9.360463310759014"><ele>177.0</ele><time>2026-05-03T16:51:18.999Z</time></trkpt><trkpt lat="45.5943188428061" lon="9.360669125075203"><ele>176.5</ele><time>2026-05-03T16:51:19.999Z</time></trkpt><trkpt lat="45.59453290088338" lon="9.36086595632456"><ele>176.0</ele><time>2026-05-03T16:51:20.999Z</time></trkpt><trkpt lat="45.59475109613644" lon="9.361052797881433"><ele>176.0</ele><time>2026-05-03T16:51:21.999Z</time></trkpt><trkpt lat="45.594969867858445" lon="9.361233298296353"><ele>176.0</ele><time>2026-05-03T16:51:23Z</time></trkpt><trkpt lat="45.59518951245946" lon="9.361408121878414"><ele>177.5</ele><time>2026-05-03T16:51:24Z</time></trkpt><trkpt lat="45.59541271164524" lon="9.361576243790996"><ele>179.0</ele><time>2026-05-03T16:51:25Z</time></trkpt><trkpt lat="45.595638061335265" lon="9.361732885068328"><ele>179.0</ele><time>2026-05-03T16:51:26Z</time></trkpt><trkpt lat="45.59586536149163" lon="9.36187862754656"><ele>179.0</ele><time>2026-05-03T16:51:27Z</time></trkpt><trkpt lat="45.59609728543298" lon="9.362015044001561"><ele>179.5</ele><time>2026-05-03T16:51:28Z</time></trkpt><trkpt lat="45.5963303721943" lon="9.362140007198962"><ele>180.0</ele><time>2026-05-03T16:51:29Z</time></trkpt><trkpt lat="45.596564396475046" lon="9.362253943010833"><ele>180.0</ele><time>2026-05-03T16:51:30Z</time></trkpt><trkpt lat="45.59679673929781" lon="9.362357677185495"><ele>180.0</ele><time>2026-05-03T16:51:31Z</time></trkpt><trkpt lat="45.59702931235788" lon="9.362456350042308"><ele>181.0</ele><time>2026-05-03T16:51:32Z</time></trkpt><trkpt lat="45.59725875606066" lon="9.362554398284784"><ele>182.0</ele><time>2026-05-03T16:51:33Z</time></trkpt><trkpt lat="45.5974878334042" lon="9.36265490856304"><ele>182.0</ele><time>2026-05-03T16:51:34Z</time></trkpt><trkpt lat="45.59771357426111" lon="9.36275347521879"><ele>182.0</ele><time>2026-05-03T16:51:35Z</time></trkpt><trkpt lat="45.5979390976933" lon="9.362851569586509"><ele>182.0</ele><time>2026-05-03T16:51:36Z</time></trkpt><trkpt lat="45.598162922887084" lon="9.362950268855295"><ele>182.0</ele><time>2026-05-03T16:51:37Z</time></trkpt><trkpt lat="45.59838491180253" lon="9.36304869744731"><ele>181.5</ele><time>2026-05-03T16:51:38Z</time></trkpt><trkpt lat="45.598605668861" lon="9.363146697658006"><ele>181.0</ele><time>2026-05-03T16:51:39Z</time></trkpt><trkpt lat="45.59882570293038" lon="9.363243170498858"><ele>183.0</ele><time>2026-05-03T16:51:40Z</time></trkpt><trkpt lat="45.5990461257658" lon="9.363337745456032"><ele>185.0</ele><time>2026-05-03T16:51:41Z</time></trkpt><trkpt lat="45.599267647538305" lon="9.363429952943239"><ele>185.0</ele><time>2026-05-03T16:51:42Z</time></trkpt><trkpt lat="45.599491283752855" lon="9.363516364512899"><ele>185.0</ele><time>2026-05-03T16:51:43Z</time></trkpt><trkpt lat="45.599717968673886" lon="9.363594173153315"><ele>185.0</ele><time>2026-05-03T16:51:44Z</time></trkpt><trkpt lat="45.59994814465606" lon="9.363658531108173"><ele>185.0</ele><time>2026-05-03T16:51:45Z</time></trkpt><trkpt lat="45.60017902627732" lon="9.363709401378074"><ele>183.5</ele><time>2026-05-03T16:51:46Z</time></trkpt><trkpt lat="45.60041177809457" lon="9.36374652009929"><ele>182.0</ele><time>2026-05-03T16:51:47Z</time></trkpt><trkpt lat="45.600646355606834" lon="9.363772600474356"><ele>182.0</ele><time>2026-05-03T16:51:48Z</time></trkpt><trkpt lat="45.600880717642355" lon="9.363786062230448"><ele>182.0</ele><time>2026-05-03T16:51:49Z</time></trkpt><trkpt lat="45.601114445498474" lon="9.363788675567962"><ele>180.0</ele><time>2026-05-03T16:51:50Z</time></trkpt><trkpt lat="45.60134785500582" lon="9.363779895690934"><ele>178.0</ele><time>2026-05-03T16:51:51Z</time></trkpt><trkpt lat="45.60157984518031" lon="9.363756895312635"><ele>178.0</ele><time>2026-05-03T16:51:52Z</time></trkpt><trkpt lat="45.60181308108739" lon="9.363715752494612"><ele>178.0</ele><time>2026-05-03T16:51:53Z</time></trkpt><trkpt lat="45.60204651301724" lon="9.36365710212096"><ele>178.5</ele><time>2026-05-03T16:51:54Z</time></trkpt><trkpt lat="45.60227861611663" lon="9.36358620258079"><ele>179.0</ele><time>2026-05-03T16:51:55Z</time></trkpt><trkpt lat="45.60251034695966" lon="9.363507346199748"><ele>179.0</ele><time>2026-05-03T16:51:56Z</time></trkpt><trkpt lat="45.6027433260837" lon="9.363419351047273"><ele>179.0</ele><time>2026-05-03T16:51:57Z</time></trkpt><trkpt lat="45.60297526379866" lon="9.363325625845011"><ele>179.5</ele><time>2026-05-03T16:51:58Z</time></trkpt><trkpt lat="45.60320526683192" lon="9.363231942683154"><ele>180.0</ele><time>2026-05-03T16:51:59Z</time></trkpt><trkpt lat="45.603435660900104" lon="9.363138350042314"><ele>180.5</ele><time>2026-05-03T16:52:00Z</time></trkpt><trkpt lat="45.60366895022356" lon="9.363048444807239"><ele>181.0</ele><time>2026-05-03T16:52:01Z</time></trkpt><trkpt lat="45.60390532932747" lon="9.362959269697127"><ele>180.0</ele><time>2026-05-03T16:52:02Z</time></trkpt><trkpt lat="45.60413355423603" lon="9.362866582984214"><ele>179.0</ele><time>2026-05-03T16:52:03Z</time></trkpt><trkpt lat="45.6043604923874" lon="9.362772827451204"><ele>181.0</ele><time>2026-05-03T16:52:04Z</time></trkpt><trkpt lat="45.60459305964219" lon="9.36267767465942"><ele>183.0</ele><time>2026-05-03T16:52:05Z</time></trkpt><trkpt lat="45.60482586139413" lon="9.362581678948972"><ele>183.0</ele><time>2026-05-03T16:52:06Z</time></trkpt><trkpt lat="45.60505784202228" lon="9.36248375163082"><ele>183.0</ele><time>2026-05-03T16:52:07Z</time></trkpt><trkpt lat="45.605288292114835" lon="9.36238768892571"><ele>184.5</ele><time>2026-05-03T16:52:08Z</time></trkpt><trkpt lat="45.605519957650124" lon="9.362298582444312"><ele>186.0</ele><time>2026-05-03T16:52:09Z</time></trkpt><trkpt lat="45.60575181402088" lon="9.362214448387912"><ele>186.5</ele><time>2026-05-03T16:52:10Z</time></trkpt><trkpt lat="45.60598338238359" lon="9.362124747671492"><ele>187.0</ele><time>2026-05-03T16:52:11Z</time></trkpt><trkpt lat="45.6062138331257" lon="9.362034209541582"><ele>184.5</ele><time>2026-05-03T16:52:12Z</time></trkpt><trkpt lat="45.6064421111257" lon="9.361941761467275"><ele>182.0</ele><time>2026-05-03T16:52:13Z</time></trkpt><trkpt lat="45.60666827741056" lon="9.361849183225905"><ele>182.0</ele><time>2026-05-03T16:52:14Z</time></trkpt><trkpt lat="45.606893256922206" lon="9.361754653832271"><ele>182.0</ele><time>2026-05-03T16:52:15Z</time></trkpt><trkpt lat="45.607120538172644" lon="9.36166516171339"><ele>183.0</ele><time>2026-05-03T16:52:16Z</time></trkpt><trkpt lat="45.607348214667354" lon="9.361574782461906"><ele>184.0</ele><time>2026-05-03T16:52:17Z</time></trkpt><trkpt lat="45.60757469762076" lon="9.361480771818671"><ele>184.0</ele><time>2026-05-03T16:52:18Z</time></trkpt><trkpt lat="45.60780187314197" lon="9.361386874391425"><ele>184.0</ele><time>2026-05-03T16:52:19Z</time></trkpt><trkpt lat="45.60803030024557" lon="9.361293467608935"><ele>184.5</ele><time>2026-05-03T16:52:20Z</time></trkpt><trkpt lat="45.60825667526739" lon="9.361197444524102"><ele>185.0</ele><time>2026-05-03T16:52:21Z</time></trkpt><trkpt lat="45.608480907509296" lon="9.361097924254837"><ele>185.0</ele><time>2026-05-03T16:52:21.999Z</time></trkpt><trkpt lat="45.60870504972697" lon="9.360998396538175"><ele>185.0</ele><time>2026-05-03T16:52:22.999Z</time></trkpt><trkpt lat="45.60892951758862" lon="9.360901296867272"><ele>185.0</ele><time>2026-05-03T16:52:23.999Z</time></trkpt><trkpt lat="45.60915515828805" lon="9.360813631476748"><ele>185.0</ele><time>2026-05-03T16:52:24.999Z</time></trkpt><trkpt lat="45.60939909517962" lon="9.360717301071631"><ele>186.0</ele><time>2026-05-03T16:52:25.999Z</time></trkpt><trkpt lat="45.60964058361937" lon="9.360615134715074"><ele>187.0</ele><time>2026-05-03T16:52:26.999Z</time></trkpt><trkpt lat="45.609872267761006" lon="9.360520022329155"><ele>186.5</ele><time>2026-05-03T16:52:27.999Z</time></trkpt><trkpt lat="45.610103450879514" lon="9.360425159482574"><ele>186.0</ele><time>2026-05-03T16:52:28.999Z</time></trkpt><trkpt lat="45.61033490673862" lon="9.36032787519214"><ele>186.0</ele><time>2026-05-03T16:52:29.999Z</time></trkpt><trkpt lat="45.610565160222215" lon="9.36023165197846"><ele>186.0</ele><time>2026-05-03T16:52:30.999Z</time></trkpt><trkpt lat="45.610797644156904" lon="9.360136697850626"><ele>186.0</ele><time>2026-05-03T16:52:31.999Z</time></trkpt><trkpt lat="45.611028543990244" lon="9.360040512578964"><ele>186.0</ele><time>2026-05-03T16:52:32.999Z</time></trkpt><trkpt lat="45.61125824968005" lon="9.359946195141433"><ele>187.5</ele><time>2026-05-03T16:52:33.999Z</time></trkpt><trkpt lat="45.611488838863885" lon="9.359851020560457"><ele>189.0</ele><time>2026-05-03T16:52:34.999Z</time></trkpt><trkpt lat="45.61171931870265" lon="9.359758046103705"><ele>189.0</ele><time>2026-05-03T16:52:35.999Z</time></trkpt><trkpt lat="45.611945725570095" lon="9.359663260973898"><ele>189.0</ele><time>2026-05-03T16:52:36.999Z</time></trkpt><trkpt lat="45.61217108449163" lon="9.359569929554748"><ele>188.5</ele><time>2026-05-03T16:52:37.999Z</time></trkpt><trkpt lat="45.61239379211159" lon="9.359479879626045"><ele>188.0</ele><time>2026-05-03T16:52:38.999Z</time></trkpt><trkpt lat="45.61261242356055" lon="9.359400776411727"><ele>188.33333333333331</ele><time>2026-05-03T16:52:39.999Z</time></trkpt><trkpt lat="45.61283076927673" lon="9.359326397137213"><ele>188.66666666666666</ele><time>2026-05-03T16:52:40.999Z</time></trkpt><trkpt lat="45.61305213844413" lon="9.359269576644184"><ele>189.0</ele><time>2026-05-03T16:52:41.999Z</time></trkpt><trkpt lat="45.61327418739218" lon="9.359220932024888"><ele>189.0</ele><time>2026-05-03T16:52:42.999Z</time></trkpt><trkpt lat="45.61351249899328" lon="9.359211759685694"><ele>189.0</ele><time>2026-05-03T16:52:43.999Z</time></trkpt><trkpt lat="45.61370666025367" lon="9.359215470459201"><ele>189.0</ele><time>2026-05-03T16:52:44.999Z</time></trkpt><trkpt lat="45.613901667588614" lon="9.35923699723591"><ele>189.33333333333334</ele><time>2026-05-03T16:52:45.999Z</time></trkpt><trkpt lat="45.61409387184223" lon="9.359265511019577"><ele>189.66666666666669</ele><time>2026-05-03T16:52:46.999Z</time></trkpt><trkpt lat="45.614313515766824" lon="9.35928058544336"><ele>190.0</ele><time>2026-05-03T16:52:47.999Z</time></trkpt><trkpt lat="45.61456437310349" lon="9.359328722892162"><ele>190.0</ele><time>2026-05-03T16:52:48.999Z</time></trkpt><trkpt lat="45.61477228724639" lon="9.359351453331495"><ele>190.0</ele><time>2026-05-03T16:52:49.999Z</time></trkpt><trkpt lat="45.61497793365802" lon="9.359380037495198"><ele>190.0</ele><time>2026-05-03T16:52:50.999Z</time></trkpt><trkpt lat="45.615192875876886" lon="9.359401016604128"><ele>190.0</ele><time>2026-05-03T16:52:51.999Z</time></trkpt><trkpt lat="45.615413121135425" lon="9.359424835314323"><ele>190.0</ele><time>2026-05-03T16:52:52.999Z</time></trkpt><trkpt lat="45.61563704123905" lon="9.359456837688603"><ele>190.0</ele><time>2026-05-03T16:52:53.999Z</time></trkpt><trkpt lat="45.615873563095604" lon="9.359501920375067"><ele>190.0</ele><time>2026-05-03T16:52:55.059Z</time></trkpt><trkpt lat="45.616100536402804" lon="9.359578318556592"><ele>190.0</ele><time>2026-05-03T16:52:55.999Z</time></trkpt><trkpt lat="45.61640226388172" lon="9.359656948142012"><ele>191.0</ele><time>2026-05-03T16:52:56.999Z</time></trkpt><trkpt lat="45.6166463367754" lon="9.359722723216032"><ele>192.0</ele><time>2026-05-03T16:52:57.999Z</time></trkpt><trkpt lat="45.61689387635892" lon="9.359788323784041"><ele>194.5</ele><time>2026-05-03T16:52:58.999Z</time></trkpt><trkpt lat="45.617126599604106" lon="9.359860253432844"><ele>197.0</ele><time>2026-05-03T16:52:59.999Z</time></trkpt><trkpt lat="45.61737457465281" lon="9.359939654472761"><ele>197.0</ele><time>2026-05-03T16:53:00.999Z</time></trkpt><trkpt lat="45.61764640548543" lon="9.360024460090463"><ele>197.0</ele><time>2026-05-03T16:53:02.055Z</time></trkpt><trkpt lat="45.617915867618436" lon="9.360118061218417"><ele>195.5</ele><time>2026-05-03T16:53:03.047Z</time></trkpt><trkpt lat="45.618171427393314" lon="9.360165146900876"><ele>194.0</ele><time>2026-05-03T16:53:04.048Z</time></trkpt><trkpt lat="45.619785054126055" lon="9.360490538109358"><ele>192.5</ele><time>2026-05-03T16:53:10.999Z</time></trkpt><trkpt lat="45.62009115935796" lon="9.360423606309"><ele>191.0</ele><time>2026-05-03T16:53:11.999Z</time></trkpt><trkpt lat="45.62028901522505" lon="9.360448414083724"><ele>190.5</ele><time>2026-05-03T16:53:12.999Z</time></trkpt><trkpt lat="45.62054921441179" lon="9.360501538541806"><ele>190.0</ele><time>2026-05-03T16:53:13.999Z</time></trkpt><trkpt lat="45.62079676913107" lon="9.360547776538931"><ele>190.0</ele><time>2026-05-03T16:53:14.999Z</time></trkpt><trkpt lat="45.62103610426295" lon="9.360584417963263"><ele>190.0</ele><time>2026-05-03T16:53:15.999Z</time></trkpt><trkpt lat="45.62127253882474" lon="9.360632478973866"><ele>192.0</ele><time>2026-05-03T16:53:16.999Z</time></trkpt><trkpt lat="45.62151166171438" lon="9.3606812743622"><ele>194.0</ele><time>2026-05-03T16:53:17.999Z</time></trkpt><trkpt lat="45.62175144398586" lon="9.360729702916311"><ele>195.0</ele><time>2026-05-03T16:53:18.999Z</time></trkpt><trkpt lat="45.62199264249457" lon="9.360779362228307"><ele>196.0</ele><time>2026-05-03T16:53:19.999Z</time></trkpt><trkpt lat="45.62223231001803" lon="9.360830542448008"><ele>196.0</ele><time>2026-05-03T16:53:20.999Z</time></trkpt><trkpt lat="45.622473719508235" lon="9.360880014078994"><ele>196.0</ele><time>2026-05-03T16:53:21.999Z</time></trkpt><trkpt lat="45.62271746813185" lon="9.36092754175614"><ele>197.5</ele><time>2026-05-03T16:53:22.999Z</time></trkpt><trkpt lat="45.62296009738118" lon="9.360975777724882"><ele>199.0</ele><time>2026-05-03T16:53:23.999Z</time></trkpt><trkpt lat="45.62320254769216" lon="9.361024289444462"><ele>199.0</ele><time>2026-05-03T16:53:24.999Z</time></trkpt><trkpt lat="45.62344671912277" lon="9.361074686260563"><ele>199.0</ele><time>2026-05-03T16:53:25.999Z</time></trkpt><trkpt lat="45.623691956132674" lon="9.361125181239263"><ele>199.0</ele><time>2026-05-03T16:53:26.999Z</time></trkpt><trkpt lat="45.62393472286332" lon="9.361176089258132"><ele>199.0</ele><time>2026-05-03T16:53:27.999Z</time></trkpt><trkpt lat="45.624176064170065" lon="9.361227226667149"><ele>199.0</ele><time>2026-05-03T16:53:29Z</time></trkpt><trkpt lat="45.62441386919672" lon="9.361281706485702"><ele>199.0</ele><time>2026-05-03T16:53:30Z</time></trkpt><trkpt lat="45.62465101175501" lon="9.361339537662982"><ele>200.5</ele><time>2026-05-03T16:53:31Z</time></trkpt><trkpt lat="45.62488610044262" lon="9.36139545562866"><ele>202.0</ele><time>2026-05-03T16:53:32Z</time></trkpt><trkpt lat="45.62512249987934" lon="9.36144897628623"><ele>202.5</ele><time>2026-05-03T16:53:33Z</time></trkpt><trkpt lat="45.625360735981104" lon="9.3614994221283"><ele>203.0</ele><time>2026-05-03T16:53:34Z</time></trkpt><trkpt lat="45.62559791865075" lon="9.36154580140162"><ele>203.0</ele><time>2026-05-03T16:53:35Z</time></trkpt><trkpt lat="45.62583702959693" lon="9.361592610034398"><ele>203.0</ele><time>2026-05-03T16:53:36Z</time></trkpt><trkpt lat="45.62607662163345" lon="9.36164227226752"><ele>203.0</ele><time>2026-05-03T16:53:37Z</time></trkpt><trkpt lat="45.62631687056778" lon="9.36169212751311"><ele>203.0</ele><time>2026-05-03T16:53:38Z</time></trkpt><trkpt lat="45.626558233307335" lon="9.361739665716275"><ele>203.0</ele><time>2026-05-03T16:53:39Z</time></trkpt><trkpt lat="45.62679776005216" lon="9.361786558194343"><ele>203.0</ele><time>2026-05-03T16:53:40Z</time></trkpt><trkpt lat="45.627034804970215" lon="9.36183343154719"><ele>204.5</ele><time>2026-05-03T16:53:41Z</time></trkpt><trkpt lat="45.62726992479299" lon="9.361878820763186"><ele>206.0</ele><time>2026-05-03T16:53:42Z</time></trkpt><trkpt lat="45.627502281180966" lon="9.361926721385283"><ele>206.0</ele><time>2026-05-03T16:53:43Z</time></trkpt><trkpt lat="45.6277335725687" lon="9.361974257503041"><ele>206.0</ele><time>2026-05-03T16:53:44Z</time></trkpt><trkpt lat="45.627963303780675" lon="9.362019830145538"><ele>207.0</ele><time>2026-05-03T16:53:45Z</time></trkpt><trkpt lat="45.62818877608657" lon="9.362064440931878"><ele>208.0</ele><time>2026-05-03T16:53:46Z</time></trkpt><trkpt lat="45.628414694038064" lon="9.362110007237732"><ele>208.0</ele><time>2026-05-03T16:53:47Z</time></trkpt><trkpt lat="45.62863747017009" lon="9.362153416650763"><ele>208.0</ele><time>2026-05-03T16:53:48Z</time></trkpt><trkpt lat="45.62885591036885" lon="9.362191448077358"><ele>208.0</ele><time>2026-05-03T16:53:49Z</time></trkpt><trkpt lat="45.629093841182616" lon="9.362240641216916"><ele>207.5</ele><time>2026-05-03T16:53:50Z</time></trkpt><trkpt lat="45.62934123830934" lon="9.362295846933096"><ele>207.0</ele><time>2026-05-03T16:53:51Z</time></trkpt><trkpt lat="45.629597478924204" lon="9.362353933999492"><ele>206.66666666666669</ele><time>2026-05-03T16:53:52Z</time></trkpt><trkpt lat="45.62986079978928" lon="9.362416246144939"><ele>206.33333333333334</ele><time>2026-05-03T16:53:53Z</time></trkpt><trkpt lat="45.63000761027014" lon="9.36241044348387"><ele>206.0</ele><time>2026-05-03T16:53:54Z</time></trkpt><trkpt lat="45.63024161686417" lon="9.362449289942592"><ele>207.5</ele><time>2026-05-03T16:53:55Z</time></trkpt><trkpt lat="45.630472497264556" lon="9.362492005826885"><ele>209.0</ele><time>2026-05-03T16:53:56Z</time></trkpt><trkpt lat="45.63070045261185" lon="9.362527540065795"><ele>209.0</ele><time>2026-05-03T16:53:57Z</time></trkpt><trkpt lat="45.63093145219197" lon="9.362569902060514"><ele>209.0</ele><time>2026-05-03T16:53:58Z</time></trkpt><trkpt lat="45.6311668428382" lon="9.362619343036664"><ele>209.0</ele><time>2026-05-03T16:53:59Z</time></trkpt><trkpt lat="45.63139846518445" lon="9.362660071584848"><ele>209.0</ele><time>2026-05-03T16:54:00Z</time></trkpt><trkpt lat="45.63163042281145" lon="9.362709521723884"><ele>209.0</ele><time>2026-05-03T16:54:01Z</time></trkpt><trkpt lat="45.63186489527514" lon="9.362760848752707"><ele>209.0</ele><time>2026-05-03T16:54:02Z</time></trkpt><trkpt lat="45.632101985150136" lon="9.362801949565286"><ele>209.5</ele><time>2026-05-03T16:54:03Z</time></trkpt><trkpt lat="45.63233748748827" lon="9.362847444789361"><ele>210.0</ele><time>2026-05-03T16:54:04Z</time></trkpt><trkpt lat="45.632571394601236" lon="9.362898006360313"><ele>210.0</ele><time>2026-05-03T16:54:05Z</time></trkpt><trkpt lat="45.63280668771059" lon="9.362941099706621"><ele>210.0</ele><time>2026-05-03T16:54:06Z</time></trkpt><trkpt lat="45.63303903686846" lon="9.362989906708755"><ele>210.0</ele><time>2026-05-03T16:54:07Z</time></trkpt><trkpt lat="45.633281542286156" lon="9.36302682992497"><ele>210.0</ele><time>2026-05-03T16:54:08Z</time></trkpt><trkpt lat="45.63351239536483" lon="9.363088106247552"><ele>210.5</ele><time>2026-05-03T16:54:09Z</time></trkpt><trkpt lat="45.633749214147905" lon="9.363152284998606"><ele>211.0</ele><time>2026-05-03T16:54:10Z</time></trkpt><trkpt lat="45.63398050696658" lon="9.36320907370198"><ele>211.0</ele><time>2026-05-03T16:54:11Z</time></trkpt><trkpt lat="45.63421462597061" lon="9.363260752618219"><ele>211.0</ele><time>2026-05-03T16:54:12Z</time></trkpt><trkpt lat="45.634446371788925" lon="9.363308067380883"><ele>211.0</ele><time>2026-05-03T16:54:13Z</time></trkpt><trkpt lat="45.634683874312586" lon="9.363352849659206"><ele>211.0</ele><time>2026-05-03T16:54:14Z</time></trkpt><trkpt lat="45.63492255175482" lon="9.363395520521507"><ele>211.0</ele><time>2026-05-03T16:54:15Z</time></trkpt><trkpt lat="45.635158790135044" lon="9.36344538749677"><ele>211.0</ele><time>2026-05-03T16:54:16Z</time></trkpt><trkpt lat="45.635394950522745" lon="9.363492916596837"><ele>211.0</ele><time>2026-05-03T16:54:17Z</time></trkpt><trkpt lat="45.63563200637521" lon="9.363540288680277"><ele>211.0</ele><time>2026-05-03T16:54:18Z</time></trkpt><trkpt lat="45.63586766339098" lon="9.363589702101057"><ele>211.0</ele><time>2026-05-03T16:54:19Z</time></trkpt><trkpt lat="45.636104240870765" lon="9.363637951599468"><ele>211.0</ele><time>2026-05-03T16:54:20Z</time></trkpt><trkpt lat="45.63634241927773" lon="9.363688332308712"><ele>211.0</ele><time>2026-05-03T16:54:21Z</time></trkpt><trkpt lat="45.63657769341482" lon="9.363740021939059"><ele>211.0</ele><time>2026-05-03T16:54:22Z</time></trkpt><trkpt lat="45.63681541859859" lon="9.363791636586"><ele>211.5</ele><time>2026-05-03T16:54:23Z</time></trkpt><trkpt lat="45.6370513055173" lon="9.363849664797723"><ele>212.0</ele><time>2026-05-03T16:54:23.999Z</time></trkpt><trkpt lat="45.63728619779404" lon="9.363909937453098"><ele>212.0</ele><time>2026-05-03T16:54:24.999Z</time></trkpt><trkpt lat="45.637522705816444" lon="9.363971361226803"><ele>212.0</ele><time>2026-05-03T16:54:25.999Z</time></trkpt><trkpt lat="45.637759377526244" lon="9.364035194422637"><ele>212.0</ele><time>2026-05-03T16:54:26.999Z</time></trkpt><trkpt lat="45.63799257831239" lon="9.36410058813793"><ele>212.0</ele><time>2026-05-03T16:54:27.999Z</time></trkpt><trkpt lat="45.63822835180924" lon="9.364168128522834"><ele>212.0</ele><time>2026-05-03T16:54:28.999Z</time></trkpt><trkpt lat="45.638463611853325" lon="9.364234852649576"><ele>212.0</ele><time>2026-05-03T16:54:29.999Z</time></trkpt><trkpt lat="45.638701699754385" lon="9.364301270372767"><ele>211.5</ele><time>2026-05-03T16:54:30.999Z</time></trkpt><trkpt lat="45.638937185704464" lon="9.364374068900883"><ele>211.0</ele><time>2026-05-03T16:54:31.999Z</time></trkpt><trkpt lat="45.63917205301786" lon="9.364450423684561"><ele>211.0</ele><time>2026-05-03T16:54:32.999Z</time></trkpt><trkpt lat="45.6394110458252" lon="9.364523761013944"><ele>211.0</ele><time>2026-05-03T16:54:33.999Z</time></trkpt><trkpt lat="45.639651602819995" lon="9.364602336077978"><ele>211.0</ele><time>2026-05-03T16:54:34.999Z</time></trkpt><trkpt lat="45.639886100846006" lon="9.36468319827959"><ele>211.0</ele><time>2026-05-03T16:54:35.999Z</time></trkpt><trkpt lat="45.64012350209781" lon="9.364767631933487"><ele>211.5</ele><time>2026-05-03T16:54:36.999Z</time></trkpt><trkpt lat="45.640358445285" lon="9.364856851522795"><ele>212.0</ele><time>2026-05-03T16:54:37.999Z</time></trkpt><trkpt lat="45.64060086041178" lon="9.364942354966418"><ele>212.0</ele><time>2026-05-03T16:54:38.999Z</time></trkpt><trkpt lat="45.640836247719655" lon="9.365031216045944"><ele>212.0</ele><time>2026-05-03T16:54:39.999Z</time></trkpt><trkpt lat="45.64107632415583" lon="9.365118704224578"><ele>213.5</ele><time>2026-05-03T16:54:40.999Z</time></trkpt><trkpt lat="45.64131738394932" lon="9.365204208972065"><ele>215.0</ele><time>2026-05-03T16:54:41.999Z</time></trkpt><trkpt lat="45.64155638968416" lon="9.365288950989973"><ele>215.0</ele><time>2026-05-03T16:54:42.999Z</time></trkpt><trkpt lat="45.641793757704484" lon="9.365372265347537"><ele>215.0</ele><time>2026-05-03T16:54:43.999Z</time></trkpt><trkpt lat="45.64202677030879" lon="9.365453317691442"><ele>215.5</ele><time>2026-05-03T16:54:44.999Z</time></trkpt><trkpt lat="45.64225272186437" lon="9.365528807262494"><ele>216.0</ele><time>2026-05-03T16:54:45.999Z</time></trkpt><trkpt lat="45.64247058893263" lon="9.365613931429474"><ele>216.0</ele><time>2026-05-03T16:54:46.999Z</time></trkpt><trkpt lat="45.64269275352566" lon="9.365687897712888"><ele>216.0</ele><time>2026-05-03T16:54:47.999Z</time></trkpt><trkpt lat="45.64291302733836" lon="9.365765490815685"><ele>216.0</ele><time>2026-05-03T16:54:48.999Z</time></trkpt><trkpt lat="45.64312898588695" lon="9.365839970051884"><ele>216.0</ele><time>2026-05-03T16:54:49.999Z</time></trkpt><trkpt lat="45.64333927001466" lon="9.365911634673553"><ele>216.0</ele><time>2026-05-03T16:54:50.999Z</time></trkpt><trkpt lat="45.643548746315105" lon="9.365977160142748"><ele>217.0</ele><time>2026-05-03T16:54:51.999Z</time></trkpt><trkpt lat="45.64375427323342" lon="9.366044818440548"><ele>218.0</ele><time>2026-05-03T16:54:52.999Z</time></trkpt><trkpt lat="45.64395685717114" lon="9.366111270825987"><ele>219.0</ele><time>2026-05-03T16:54:53.999Z</time></trkpt><trkpt lat="45.6441551323468" lon="9.366175181139404"><ele>219.0</ele><time>2026-05-03T16:54:54.999Z</time></trkpt><trkpt lat="45.64434663899099" lon="9.366242862018721"><ele>219.0</ele><time>2026-05-03T16:54:55.999Z</time></trkpt><trkpt lat="45.64452562480658" lon="9.366307347527977"><ele>219.0</ele><time>2026-05-03T16:54:56.999Z</time></trkpt><trkpt lat="45.64469454294408" lon="9.366367979225288"><ele>217.33333333333331</ele><time>2026-05-03T16:54:57.999Z</time></trkpt><trkpt lat="45.64485421031767" lon="9.366424653874233"><ele>215.66666666666666</ele><time>2026-05-03T16:54:58.999Z</time></trkpt><trkpt lat="45.645005061364024" lon="9.366476371808679"><ele>214.0</ele><time>2026-05-03T16:54:59.999Z</time></trkpt><trkpt lat="45.645151615683965" lon="9.36652802418809"><ele>214.25</ele><time>2026-05-03T16:55:00.999Z</time></trkpt><trkpt lat="45.64529671033241" lon="9.366579635932986"><ele>214.5</ele><time>2026-05-03T16:55:01.999Z</time></trkpt><trkpt lat="45.645436795092806" lon="9.366627109663797"><ele>214.75</ele><time>2026-05-03T16:55:02.999Z</time></trkpt><trkpt lat="45.645576425683785" lon="9.366673392242388"><ele>215.0</ele><time>2026-05-03T16:55:03.999Z</time></trkpt><trkpt lat="45.64571128938303" lon="9.36672012259289"><ele>215.0</ele><time>2026-05-03T16:55:04.999Z</time></trkpt><trkpt lat="45.64584492655692" lon="9.366770206296565"><ele>215.0</ele><time>2026-05-03T16:55:05.999Z</time></trkpt><trkpt lat="45.64597734724578" lon="9.366815159585165"><ele>215.0</ele><time>2026-05-03T16:55:06.999Z</time></trkpt><trkpt lat="45.646112364137615" lon="9.366864110235051"><ele>215.0</ele><time>2026-05-03T16:55:07.999Z</time></trkpt><trkpt lat="45.64624622145343" lon="9.366913226895782"><ele>216.25</ele><time>2026-05-03T16:55:08.999Z</time></trkpt><trkpt lat="45.64638212699647" lon="9.366963949405637"><ele>217.5</ele><time>2026-05-03T16:55:09.999Z</time></trkpt><trkpt lat="45.64652047083326" lon="9.367014146278589"><ele>218.75</ele><time>2026-05-03T16:55:10.999Z</time></trkpt><trkpt lat="45.64666128439632" lon="9.36706151870081"><ele>220.0</ele><time>2026-05-03T16:55:11.999Z</time></trkpt><trkpt lat="45.64680090688783" lon="9.367133879131414"><ele>220.0</ele><time>2026-05-03T16:55:12.999Z</time></trkpt><trkpt lat="45.646949364353816" lon="9.367187404012386"><ele>220.0</ele><time>2026-05-03T16:55:13.999Z</time></trkpt><trkpt lat="45.64709964754451" lon="9.367241400601548"><ele>220.0</ele><time>2026-05-03T16:55:14.999Z</time></trkpt><trkpt lat="45.647250014524985" lon="9.367295614659657"><ele>219.66666666666666</ele><time>2026-05-03T16:55:15.999Z</time></trkpt><trkpt lat="45.647397863041924" lon="9.367348955145548"><ele>219.33333333333331</ele><time>2026-05-03T16:55:16.999Z</time></trkpt><trkpt lat="45.64754476246058" lon="9.367401901763392"><ele>219.0</ele><time>2026-05-03T16:55:17.999Z</time></trkpt><trkpt lat="45.64769514808472" lon="9.367456056417108"><ele>218.66666666666669</ele><time>2026-05-03T16:55:18.999Z</time></trkpt><trkpt lat="45.64784490583825" lon="9.367510357439745"><ele>218.33333333333334</ele><time>2026-05-03T16:55:19.999Z</time></trkpt><trkpt lat="45.64799944850706" lon="9.36756559390761"><ele>218.0</ele><time>2026-05-03T16:55:20.999Z</time></trkpt><trkpt lat="45.64815740246131" lon="9.367622067138244"><ele>218.0</ele><time>2026-05-03T16:55:21.999Z</time></trkpt><trkpt lat="45.648320112644114" lon="9.367680097364097"><ele>218.0</ele><time>2026-05-03T16:55:22.999Z</time></trkpt><trkpt lat="45.64849229105604" lon="9.367719812306536"><ele>218.0</ele><time>2026-05-03T16:55:23.999Z</time></trkpt><trkpt lat="45.64866000000547" lon="9.367780082055983"><ele>217.33333333333334</ele><time>2026-05-03T16:55:24.999Z</time></trkpt><trkpt lat="45.64882860636522" lon="9.367840081353005"><ele>216.66666666666669</ele><time>2026-05-03T16:55:25.999Z</time></trkpt><trkpt lat="45.649002784928044" lon="9.367901290237032"><ele>216.0</ele><time>2026-05-03T16:55:26.999Z</time></trkpt><trkpt lat="45.64917858866061" lon="9.367967407688527"><ele>216.33333333333331</ele><time>2026-05-03T16:55:27.999Z</time></trkpt><trkpt lat="45.64935271273285" lon="9.368057772211534"><ele>216.66666666666666</ele><time>2026-05-03T16:55:28.999Z</time></trkpt><trkpt lat="45.649530527594514" lon="9.368142551105104"><ele>217.0</ele><time>2026-05-03T16:55:29.999Z</time></trkpt><trkpt lat="45.64972648017823" lon="9.368170211410625"><ele>217.0</ele><time>2026-05-03T16:55:30.999Z</time></trkpt><trkpt lat="45.64991450882552" lon="9.368237935223974"><ele>217.0</ele><time>2026-05-03T16:55:31.999Z</time></trkpt><trkpt lat="45.65010487349016" lon="9.368306886732181"><ele>217.0</ele><time>2026-05-03T16:55:32.999Z</time></trkpt><trkpt lat="45.650298719158684" lon="9.368376268286067"><ele>218.0</ele><time>2026-05-03T16:55:33.999Z</time></trkpt><trkpt lat="45.65049182684827" lon="9.368445020536337"><ele>219.0</ele><time>2026-05-03T16:55:35Z</time></trkpt><trkpt lat="45.65068832719143" lon="9.368517681106995"><ele>220.0</ele><time>2026-05-03T16:55:36Z</time></trkpt><trkpt lat="45.65088619268102" lon="9.368590763469442"><ele>220.0</ele><time>2026-05-03T16:55:37Z</time></trkpt><trkpt lat="45.651084664161495" lon="9.368661433942725"><ele>220.0</ele><time>2026-05-03T16:55:38Z</time></trkpt><trkpt lat="45.65128130727768" lon="9.36873021325628"><ele>220.0</ele><time>2026-05-03T16:55:39Z</time></trkpt><trkpt lat="45.651478345623474" lon="9.368798496321961"><ele>220.0</ele><time>2026-05-03T16:55:40Z</time></trkpt><trkpt lat="45.651674918590075" lon="9.368869076113395"><ele>220.0</ele><time>2026-05-03T16:55:41Z</time></trkpt><trkpt lat="45.65187169577088" lon="9.368942789671957"><ele>220.0</ele><time>2026-05-03T16:55:42Z</time></trkpt><trkpt lat="45.652066320549544" lon="9.36901812988021"><ele>220.0</ele><time>2026-05-03T16:55:43Z</time></trkpt><trkpt lat="45.65225990941109" lon="9.369097695806113"><ele>220.0</ele><time>2026-05-03T16:55:44Z</time></trkpt><trkpt lat="45.6524478230295" lon="9.369179500108462"><ele>220.0</ele><time>2026-05-03T16:55:45Z</time></trkpt><trkpt lat="45.65263111015112" lon="9.369263928811028"><ele>219.33333333333331</ele><time>2026-05-03T16:55:46Z</time></trkpt><trkpt lat="45.65280671960975" lon="9.369348404840787"><ele>218.66666666666669</ele><time>2026-05-03T16:55:47Z</time></trkpt><trkpt lat="45.652973727053705" lon="9.369427407547477"><ele>218.0</ele><time>2026-05-03T16:55:48Z</time></trkpt><trkpt lat="45.65312740789343" lon="9.369499420971806"><ele>218.0</ele><time>2026-05-03T16:55:49Z</time></trkpt><trkpt lat="45.6532715546637" lon="9.369566276984873"><ele>218.0</ele><time>2026-05-03T16:55:50Z</time></trkpt><trkpt lat="45.65341625132442" lon="9.369634420598357"><ele>218.0</ele><time>2026-05-03T16:55:51Z</time></trkpt><trkpt lat="45.65356433299768" lon="9.369703769050346"><ele>218.66666666666669</ele><time>2026-05-03T16:55:52Z</time></trkpt><trkpt lat="45.653713183176905" lon="9.369773672620079"><ele>219.33333333333331</ele><time>2026-05-03T16:55:53Z</time></trkpt><trkpt lat="45.65386332554297" lon="9.369845301300597"><ele>220.0</ele><time>2026-05-03T16:55:54Z</time></trkpt><trkpt lat="45.65401280293941" lon="9.369919072034733"><ele>220.0</ele><time>2026-05-03T16:55:55Z</time></trkpt><trkpt lat="45.654163295160835" lon="9.37000613904985"><ele>220.0</ele><time>2026-05-03T16:55:56Z</time></trkpt><trkpt lat="45.65431349783822" lon="9.370116961062156"><ele>220.0</ele><time>2026-05-03T16:55:57Z</time></trkpt><trkpt lat="45.65445279095508" lon="9.370257533669083"><ele>222.33333333333331</ele><time>2026-05-03T16:55:58Z</time></trkpt><trkpt lat="45.654577682084316" lon="9.370436721267156"><ele>224.66666666666669</ele><time>2026-05-03T16:55:59Z</time></trkpt><trkpt lat="45.654674518089244" lon="9.370650954753827"><ele>227.0</ele><time>2026-05-03T16:56:00Z</time></trkpt><trkpt lat="45.65475210087928" lon="9.370880114449916"><ele>227.0</ele><time>2026-05-03T16:56:01Z</time></trkpt><trkpt lat="45.65483367772126" lon="9.371104547642476"><ele>227.0</ele><time>2026-05-03T16:56:02Z</time></trkpt><trkpt lat="45.654920749248454" lon="9.371319976678812"><ele>227.0</ele><time>2026-05-03T16:56:03Z</time></trkpt><trkpt lat="45.65500633066576" lon="9.37153531683742"><ele>225.66666666666669</ele><time>2026-05-03T16:56:04Z</time></trkpt><trkpt lat="45.65508836609798" lon="9.371751031251927"><ele>224.33333333333331</ele><time>2026-05-03T16:56:05Z</time></trkpt><trkpt lat="45.655173491069135" lon="9.371972004652406"><ele>223.0</ele><time>2026-05-03T16:56:06Z</time></trkpt><trkpt lat="45.65525816349895" lon="9.372200021954475"><ele>225.66666666666666</ele><time>2026-05-03T16:56:07Z</time></trkpt><trkpt lat="45.65534328580268" lon="9.372435059579365"><ele>228.33333333333331</ele><time>2026-05-03T16:56:08Z</time></trkpt><trkpt lat="45.65542831525458" lon="9.37267169919652"><ele>231.0</ele><time>2026-05-03T16:56:09Z</time></trkpt><trkpt lat="45.65550872695112" lon="9.372904462374873"><ele>229.66666666666669</ele><time>2026-05-03T16:56:10Z</time></trkpt><trkpt lat="45.6555918601774" lon="9.3731326242841"><ele>228.33333333333334</ele><time>2026-05-03T16:56:11Z</time></trkpt><trkpt lat="45.655676687481176" lon="9.373360455512817"><ele>227.0</ele><time>2026-05-03T16:56:12Z</time></trkpt><trkpt lat="45.6557661603296" lon="9.373585350252657"><ele>227.0</ele><time>2026-05-03T16:56:13Z</time></trkpt><trkpt lat="45.655854474436076" lon="9.373812153196837"><ele>227.0</ele><time>2026-05-03T16:56:14Z</time></trkpt><trkpt lat="45.65594279533685" lon="9.37404392555669"><ele>227.0</ele><time>2026-05-03T16:56:15Z</time></trkpt><trkpt lat="45.65603139474103" lon="9.374277045440046"><ele>226.0</ele><time>2026-05-03T16:56:16Z</time></trkpt><trkpt lat="45.65611783260534" lon="9.37451006562858"><ele>225.0</ele><time>2026-05-03T16:56:17Z</time></trkpt><trkpt lat="45.65620381081369" lon="9.374745157168086"><ele>224.0</ele><time>2026-05-03T16:56:18Z</time></trkpt><trkpt lat="45.656292583418285" lon="9.374978303322543"><ele>224.66666666666669</ele><time>2026-05-03T16:56:19Z</time></trkpt><trkpt lat="45.65638669347665" lon="9.375208466808331"><ele>225.33333333333331</ele><time>2026-05-03T16:56:20Z</time></trkpt><trkpt lat="45.6564858075026" lon="9.375429040115703"><ele>226.0</ele><time>2026-05-03T16:56:21Z</time></trkpt><trkpt lat="45.65658693019012" lon="9.375640383887795"><ele>226.0</ele><time>2026-05-03T16:56:22Z</time></trkpt><trkpt lat="45.656687671071786" lon="9.375840695642326"><ele>226.0</ele><time>2026-05-03T16:56:23Z</time></trkpt><trkpt lat="45.65678236370306" lon="9.376036671727045"><ele>226.0</ele><time>2026-05-03T16:56:24Z</time></trkpt><trkpt lat="45.65687305483221" lon="9.376226470465312"><ele>226.0</ele><time>2026-05-03T16:56:25Z</time></trkpt><trkpt lat="45.65696130124371" lon="9.376406049380286"><ele>226.0</ele><time>2026-05-03T16:56:26Z</time></trkpt><trkpt lat="45.657054055689706" lon="9.37657489109385"><ele>226.0</ele><time>2026-05-03T16:56:26.999Z</time></trkpt><trkpt lat="45.657148977633405" lon="9.376738413716186"><ele>226.0</ele><time>2026-05-03T16:56:27.999Z</time></trkpt><trkpt lat="45.65724749886773" lon="9.376883311147955"><ele>226.0</ele><time>2026-05-03T16:56:28.999Z</time></trkpt><trkpt lat="45.6573551254253" lon="9.377013099076176"><ele>226.0</ele><time>2026-05-03T16:56:29.999Z</time></trkpt><trkpt lat="45.657475721095686" lon="9.377140560406314"><ele>226.0</ele><time>2026-05-03T16:56:30.999Z</time></trkpt><trkpt lat="45.65760463067968" lon="9.377274532543955"><ele>226.33333333333331</ele><time>2026-05-03T16:56:31.999Z</time></trkpt><trkpt lat="45.65773024740651" lon="9.377415645612544"><ele>226.66666666666669</ele><time>2026-05-03T16:56:32.999Z</time></trkpt><trkpt lat="45.657848696361704" lon="9.37757205650984"><ele>227.0</ele><time>2026-05-03T16:56:33.999Z</time></trkpt><trkpt lat="45.65796605520677" lon="9.37774461427332"><ele>228.66666666666669</ele><time>2026-05-03T16:56:34.999Z</time></trkpt><trkpt lat="45.65808687769646" lon="9.377924605115526"><ele>230.33333333333331</ele><time>2026-05-03T16:56:35.999Z</time></trkpt><trkpt lat="45.65821329131146" lon="9.378122343046554"><ele>232.0</ele><time>2026-05-03T16:56:36.999Z</time></trkpt><trkpt lat="45.65832482264937" lon="9.378287613009714"><ele>232.0</ele><time>2026-05-03T16:56:37.999Z</time></trkpt><trkpt lat="45.658451580428945" lon="9.378484356465204"><ele>232.0</ele><time>2026-05-03T16:56:38.999Z</time></trkpt><trkpt lat="45.65856734896348" lon="9.378670046558915"><ele>232.0</ele><time>2026-05-03T16:56:39.999Z</time></trkpt><trkpt lat="45.65869108727495" lon="9.378857209268244"><ele>233.0</ele><time>2026-05-03T16:56:40.999Z</time></trkpt><trkpt lat="45.658815153835434" lon="9.379038600896976"><ele>234.0</ele><time>2026-05-03T16:56:41.999Z</time></trkpt><trkpt lat="45.65894124937969" lon="9.379227413847813"><ele>235.0</ele><time>2026-05-03T16:56:42.999Z</time></trkpt><trkpt lat="45.65906989401059" lon="9.37942544356873"><ele>235.0</ele><time>2026-05-03T16:56:43.999Z</time></trkpt><trkpt lat="45.659201707696965" lon="9.379628410260432"><ele>235.0</ele><time>2026-05-03T16:56:44.999Z</time></trkpt><trkpt lat="45.65933891416553" lon="9.379855721078664"><ele>235.0</ele><time>2026-05-03T16:56:45.999Z</time></trkpt><trkpt lat="45.65948652674065" lon="9.380083596236714"><ele>234.33333333333331</ele><time>2026-05-03T16:56:46.999Z</time></trkpt><trkpt lat="45.65963696725253" lon="9.380304233139853"><ele>233.66666666666669</ele><time>2026-05-03T16:56:47.999Z</time></trkpt><trkpt lat="45.659790288567514" lon="9.380516392821972"><ele>233.0</ele><time>2026-05-03T16:56:48.999Z</time></trkpt><trkpt lat="45.659942342305015" lon="9.380723088112786"><ele>233.0</ele><time>2026-05-03T16:56:49.999Z</time></trkpt><trkpt lat="45.6600939654266" lon="9.380932251449817"><ele>233.0</ele><time>2026-05-03T16:56:50.999Z</time></trkpt><trkpt lat="45.660243643136155" lon="9.381129542401167"><ele>233.0</ele><time>2026-05-03T16:56:51.999Z</time></trkpt><trkpt lat="45.66040011112302" lon="9.381325413747176"><ele>234.0</ele><time>2026-05-03T16:56:52.999Z</time></trkpt><trkpt lat="45.660555338507095" lon="9.381517089082799"><ele>235.0</ele><time>2026-05-03T16:56:53.999Z</time></trkpt><trkpt lat="45.66071029554862" lon="9.38170921793091"><ele>236.0</ele><time>2026-05-03T16:56:54.999Z</time></trkpt><trkpt lat="45.660866736225834" lon="9.381898989800703"><ele>236.0</ele><time>2026-05-03T16:56:55.999Z</time></trkpt><trkpt lat="45.661023600786315" lon="9.382092024041835"><ele>236.0</ele><time>2026-05-03T16:56:56.999Z</time></trkpt><trkpt lat="45.6611841016711" lon="9.382278052144539"><ele>236.0</ele><time>2026-05-03T16:56:57.999Z</time></trkpt><trkpt lat="45.66134462639839" lon="9.382456173607972"><ele>233.66666666666669</ele><time>2026-05-03T16:56:58.999Z</time></trkpt><trkpt lat="45.66150109168816" lon="9.3826226328901"><ele>231.33333333333331</ele><time>2026-05-03T16:56:59.999Z</time></trkpt><trkpt lat="45.661660895306085" lon="9.38279260328015"><ele>229.0</ele><time>2026-05-03T16:57:00.999Z</time></trkpt><trkpt lat="45.66182128609593" lon="9.382968943711552"><ele>229.0</ele><time>2026-05-03T16:57:01.999Z</time></trkpt><trkpt lat="45.66197635309897" lon="9.383140403817475"><ele>229.0</ele><time>2026-05-03T16:57:02.999Z</time></trkpt><trkpt lat="45.66214085291176" lon="9.383305040542906"><ele>229.0</ele><time>2026-05-03T16:57:03.999Z</time></trkpt><trkpt lat="45.66231125561237" lon="9.38347051035591"><ele>229.0</ele><time>2026-05-03T16:57:04.999Z</time></trkpt><trkpt lat="45.66248338280861" lon="9.383633147491024"><ele>229.0</ele><time>2026-05-03T16:57:05.999Z</time></trkpt><trkpt lat="45.66265990363037" lon="9.383791974262573"><ele>229.0</ele><time>2026-05-03T16:57:06.999Z</time></trkpt><trkpt lat="45.66283538721778" lon="9.383950201035022"><ele>229.66666666666666</ele><time>2026-05-03T16:57:07.999Z</time></trkpt><trkpt lat="45.66301113167828" lon="9.384105318590828"><ele>230.33333333333331</ele><time>2026-05-03T16:57:08.999Z</time></trkpt><trkpt lat="45.663189016887664" lon="9.384257590017732"><ele>231.0</ele><time>2026-05-03T16:57:09.999Z</time></trkpt><trkpt lat="45.66336695043706" lon="9.384406557631445"><ele>231.0</ele><time>2026-05-03T16:57:10.999Z</time></trkpt><trkpt lat="45.663545954442746" lon="9.38455216440866"><ele>231.0</ele><time>2026-05-03T16:57:11.999Z</time></trkpt><trkpt lat="45.663724978593606" lon="9.38469596085696"><ele>231.0</ele><time>2026-05-03T16:57:12.999Z</time></trkpt><trkpt lat="45.663904285853086" lon="9.384840461787409"><ele>230.66666666666669</ele><time>2026-05-03T16:57:13.999Z</time></trkpt><trkpt lat="45.66408352720193" lon="9.38498667023456"><ele>230.33333333333334</ele><time>2026-05-03T16:57:14.999Z</time></trkpt><trkpt lat="45.66426335409495" lon="9.38513560154256"><ele>230.0</ele><time>2026-05-03T16:57:15.999Z</time></trkpt><trkpt lat="45.66444192997445" lon="9.38528660338224"><ele>230.33333333333334</ele><time>2026-05-03T16:57:16.999Z</time></trkpt><trkpt lat="45.6646248741628" lon="9.385437879710766"><ele>230.66666666666669</ele><time>2026-05-03T16:57:17.999Z</time></trkpt><trkpt lat="45.66480554000729" lon="9.385587769669051"><ele>231.0</ele><time>2026-05-03T16:57:18.999Z</time></trkpt><trkpt lat="45.664986176373205" lon="9.385736126492853"><ele>231.0</ele><time>2026-05-03T16:57:19.999Z</time></trkpt><trkpt lat="45.665168091792495" lon="9.385885499176014"><ele>231.0</ele><time>2026-05-03T16:57:20.999Z</time></trkpt><trkpt lat="45.66534682216795" lon="9.386034080109958"><ele>231.0</ele><time>2026-05-03T16:57:21.999Z</time></trkpt><trkpt lat="45.665526600302506" lon="9.386181416696926"><ele>232.0</ele><time>2026-05-03T16:57:22.999Z</time></trkpt><trkpt lat="45.66570818529548" lon="9.386327657849225"><ele>233.0</ele><time>2026-05-03T16:57:23.999Z</time></trkpt><trkpt lat="45.66588948034928" lon="9.386472792251503"><ele>234.0</ele><time>2026-05-03T16:57:24.999Z</time></trkpt><trkpt lat="45.66607209519106" lon="9.386621856566487"><ele>233.33333333333331</ele><time>2026-05-03T16:57:25.999Z</time></trkpt><trkpt lat="45.66625033744992" lon="9.386773767313365"><ele>232.66666666666666</ele><time>2026-05-03T16:57:26.999Z</time></trkpt><trkpt lat="45.66642887057084" lon="9.386923794969604"><ele>232.0</ele><time>2026-05-03T16:57:27.999Z</time></trkpt><trkpt lat="45.6666038468523" lon="9.387070505793575"><ele>232.66666666666666</ele><time>2026-05-03T16:57:28.999Z</time></trkpt><trkpt lat="45.66677694756615" lon="9.387216835057266"><ele>233.33333333333331</ele><time>2026-05-03T16:57:29.999Z</time></trkpt><trkpt lat="45.66695276756415" lon="9.387358967299793"><ele>234.0</ele><time>2026-05-03T16:57:30.999Z</time></trkpt><trkpt lat="45.667127896807976" lon="9.38749698417261"><ele>234.0</ele><time>2026-05-03T16:57:31.999Z</time></trkpt><trkpt lat="45.667303634398166" lon="9.387634961723919"><ele>234.0</ele><time>2026-05-03T16:57:32.999Z</time></trkpt><trkpt lat="45.667475194865624" lon="9.387773349449544"><ele>234.0</ele><time>2026-05-03T16:57:33.999Z</time></trkpt><trkpt lat="45.66765154940905" lon="9.387909039761242"><ele>234.66666666666669</ele><time>2026-05-03T16:57:34.999Z</time></trkpt><trkpt lat="45.66782853637262" lon="9.38804155356166"><ele>235.33333333333334</ele><time>2026-05-03T16:57:35.999Z</time></trkpt><trkpt lat="45.668012047370794" lon="9.38817542111165"><ele>236.0</ele><time>2026-05-03T16:57:36.999Z</time></trkpt><trkpt lat="45.668195788770106" lon="9.388305545418548"><ele>236.0</ele><time>2026-05-03T16:57:37.999Z</time></trkpt><trkpt lat="45.668380841241316" lon="9.388440090850944"><ele>236.0</ele><time>2026-05-03T16:57:38.999Z</time></trkpt><trkpt lat="45.66856546389519" lon="9.388580633129843"><ele>236.0</ele><time>2026-05-03T16:57:39.999Z</time></trkpt><trkpt lat="45.66874500404026" lon="9.388726582439688"><ele>236.66666666666669</ele><time>2026-05-03T16:57:41Z</time></trkpt><trkpt lat="45.668923034469614" lon="9.388877776681252"><ele>237.33333333333331</ele><time>2026-05-03T16:57:42Z</time></trkpt><trkpt lat="45.66910233875659" lon="9.389030352588803"><ele>238.0</ele><time>2026-05-03T16:57:43Z</time></trkpt><trkpt lat="45.66928404511739" lon="9.38917557243565"><ele>238.33333333333331</ele><time>2026-05-03T16:57:44Z</time></trkpt><trkpt lat="45.669465808374866" lon="9.389313838281172"><ele>238.66666666666669</ele><time>2026-05-03T16:57:45Z</time></trkpt><trkpt lat="45.669648682439814" lon="9.389440667311458"><ele>239.0</ele><time>2026-05-03T16:57:46Z</time></trkpt><trkpt lat="45.669832627721654" lon="9.389561993119022"><ele>239.33333333333334</ele><time>2026-05-03T16:57:47Z</time></trkpt><trkpt lat="45.67001089350998" lon="9.389677927058056"><ele>239.66666666666669</ele><time>2026-05-03T16:57:48Z</time></trkpt><trkpt lat="45.670187081606365" lon="9.389792153721917"><ele>240.0</ele><time>2026-05-03T16:57:49Z</time></trkpt><trkpt lat="45.67035639658469" lon="9.389900544173667"><ele>240.0</ele><time>2026-05-03T16:57:50Z</time></trkpt><trkpt lat="45.67051308641838" lon="9.390003532746924"><ele>240.0</ele><time>2026-05-03T16:57:51Z</time></trkpt><trkpt lat="45.67066198351693" lon="9.390102824527865"><ele>240.0</ele><time>2026-05-03T16:57:52Z</time></trkpt><trkpt lat="45.670807908884036" lon="9.3902046507384"><ele>240.0</ele><time>2026-05-03T16:57:53Z</time></trkpt><trkpt lat="45.67095020919462" lon="9.390302181846327"><ele>240.0</ele><time>2026-05-03T16:57:54Z</time></trkpt><trkpt lat="45.671090050245986" lon="9.390400884891742"><ele>240.0</ele><time>2026-05-03T16:57:55Z</time></trkpt><trkpt lat="45.67121869994854" lon="9.3904956625441"><ele>240.25</ele><time>2026-05-03T16:57:56Z</time></trkpt><trkpt lat="45.67133747960282" lon="9.390589926441328"><ele>240.5</ele><time>2026-05-03T16:57:57Z</time></trkpt><trkpt lat="45.671455403313736" lon="9.390689654403463"><ele>240.75</ele><time>2026-05-03T16:57:58Z</time></trkpt><trkpt lat="45.67156797397631" lon="9.39079813870938"><ele>241.0</ele><time>2026-05-03T16:57:59Z</time></trkpt><trkpt lat="45.67167708961314" lon="9.390917568441372"><ele>241.0</ele><time>2026-05-03T16:58:00Z</time></trkpt><trkpt lat="45.671782844759676" lon="9.391043568203871"><ele>241.0</ele><time>2026-05-03T16:58:01Z</time></trkpt><trkpt lat="45.67189171684602" lon="9.39116985975783"><ele>241.0</ele><time>2026-05-03T16:58:02Z</time></trkpt><trkpt lat="45.67200585632046" lon="9.391294560843052"><ele>241.0</ele><time>2026-05-03T16:58:03Z</time></trkpt><trkpt lat="45.67212068955583" lon="9.391422477093167"><ele>241.0</ele><time>2026-05-03T16:58:04Z</time></trkpt><trkpt lat="45.672233013321986" lon="9.391560116970057"><ele>241.0</ele><time>2026-05-03T16:58:05Z</time></trkpt><trkpt lat="45.67234613236509" lon="9.39170428580501"><ele>241.0</ele><time>2026-05-03T16:58:06Z</time></trkpt><trkpt lat="45.67246503301831" lon="9.391855564399494"><ele>241.0</ele><time>2026-05-03T16:58:07Z</time></trkpt><trkpt lat="45.672590429329844" lon="9.392008200965657"><ele>241.0</ele><time>2026-05-03T16:58:08Z</time></trkpt><trkpt lat="45.6727192236399" lon="9.39216788500663"><ele>241.0</ele><time>2026-05-03T16:58:09Z</time></trkpt><trkpt lat="45.67284723772238" lon="9.392333945923738"><ele>242.0</ele><time>2026-05-03T16:58:10Z</time></trkpt><trkpt lat="45.67297099028999" lon="9.39251137472693"><ele>243.0</ele><time>2026-05-03T16:58:11Z</time></trkpt><trkpt lat="45.67308842216812" lon="9.392694032556513"><ele>244.0</ele><time>2026-05-03T16:58:12Z</time></trkpt><trkpt lat="45.67320168604177" lon="9.392879985253309"><ele>244.66666666666666</ele><time>2026-05-03T16:58:13Z</time></trkpt><trkpt lat="45.67331694758349" lon="9.393066200128688"><ele>245.33333333333331</ele><time>2026-05-03T16:58:14Z</time></trkpt><trkpt lat="45.67343263358584" lon="9.39324829175119"><ele>246.0</ele><time>2026-05-03T16:58:15Z</time></trkpt><trkpt lat="45.673546341345876" lon="9.393424889128415"><ele>245.66666666666669</ele><time>2026-05-03T16:58:16Z</time></trkpt><trkpt lat="45.67365501282193" lon="9.39359483354299"><ele>245.33333333333334</ele><time>2026-05-03T16:58:17Z</time></trkpt><trkpt lat="45.673763216397056" lon="9.393760459685572"><ele>245.0</ele><time>2026-05-03T16:58:18Z</time></trkpt><trkpt lat="45.67387352500071" lon="9.393918265158407"><ele>245.0</ele><time>2026-05-03T16:58:19Z</time></trkpt><trkpt lat="45.67398871713857" lon="9.394065087295319"><ele>245.0</ele><time>2026-05-03T16:58:20Z</time></trkpt><trkpt lat="45.67410575527583" lon="9.394205559568837"><ele>245.0</ele><time>2026-05-03T16:58:21Z</time></trkpt><trkpt lat="45.6742200416559" lon="9.394341349484373"><ele>245.0</ele><time>2026-05-03T16:58:22Z</time></trkpt><trkpt lat="45.67433734053543" lon="9.39447747744224"><ele>245.0</ele><time>2026-05-03T16:58:23Z</time></trkpt><trkpt lat="45.67446067653577" lon="9.39460732377253"><ele>245.0</ele><time>2026-05-03T16:58:24Z</time></trkpt><trkpt lat="45.674588772494666" lon="9.394733451887474"><ele>244.66666666666669</ele><time>2026-05-03T16:58:25Z</time></trkpt><trkpt lat="45.67471822954245" lon="9.39485629309042"><ele>244.33333333333331</ele><time>2026-05-03T16:58:26Z</time></trkpt><trkpt lat="45.67484773187118" lon="9.394972559101321"><ele>244.0</ele><time>2026-05-03T16:58:27Z</time></trkpt><trkpt lat="45.67497662015029" lon="9.395078709232004"><ele>244.0</ele><time>2026-05-03T16:58:27.999Z</time></trkpt><trkpt lat="45.67510540286775" lon="9.39517698474657"><ele>244.0</ele><time>2026-05-03T16:58:28.999Z</time></trkpt><trkpt lat="45.6752338275808" lon="9.395267802813606"><ele>244.0</ele><time>2026-05-03T16:58:29.999Z</time></trkpt><trkpt lat="45.67536157630268" lon="9.395353530696454"><ele>244.0</ele><time>2026-05-03T16:58:30.999Z</time></trkpt><trkpt lat="45.675489392085154" lon="9.395433388951838"><ele>244.75</ele><time>2026-05-03T16:58:31.999Z</time></trkpt><trkpt lat="45.67561588256272" lon="9.395505949511467"><ele>245.5</ele><time>2026-05-03T16:58:32.999Z</time></trkpt><trkpt lat="45.67573986071026" lon="9.395571324553742"><ele>246.25</ele><time>2026-05-03T16:58:33.999Z</time></trkpt><trkpt lat="45.675860790156214" lon="9.395631195404365"><ele>247.0</ele><time>2026-05-03T16:58:34.999Z</time></trkpt><trkpt lat="45.67598276720838" lon="9.395688388924938"><ele>247.5</ele><time>2026-05-03T16:58:35.999Z</time></trkpt><trkpt lat="45.67610632418652" lon="9.39574426513584"><ele>248.0</ele><time>2026-05-03T16:58:36.999Z</time></trkpt><trkpt lat="45.67623105366695" lon="9.395794358268228"><ele>248.5</ele><time>2026-05-03T16:58:37.999Z</time></trkpt><trkpt lat="45.676356864814764" lon="9.395841727943584"><ele>249.0</ele><time>2026-05-03T16:58:38.999Z</time></trkpt><trkpt lat="45.67648243590074" lon="9.395889896194948"><ele>249.0</ele><time>2026-05-03T16:58:39.999Z</time></trkpt><trkpt lat="45.67660836427838" lon="9.395935161646312"><ele>249.0</ele><time>2026-05-03T16:58:40.999Z</time></trkpt><trkpt lat="45.67673469951818" lon="9.395980974743575"><ele>249.0</ele><time>2026-05-03T16:58:41.999Z</time></trkpt><trkpt lat="45.67686240321613" lon="9.396025183840985"><ele>249.0</ele><time>2026-05-03T16:58:42.999Z</time></trkpt><trkpt lat="45.67699116265914" lon="9.396070506862568"><ele>249.0</ele><time>2026-05-03T16:58:43.999Z</time></trkpt><trkpt lat="45.677119286498865" lon="9.396115413403015"><ele>249.0</ele><time>2026-05-03T16:58:44.999Z</time></trkpt><trkpt lat="45.67724766866983" lon="9.39616275192902"><ele>249.0</ele><time>2026-05-03T16:58:45.999Z</time></trkpt><trkpt lat="45.67737513927438" lon="9.39621240773107"><ele>249.0</ele><time>2026-05-03T16:58:46.999Z</time></trkpt><trkpt lat="45.67750072404828" lon="9.396260510811716"><ele>249.0</ele><time>2026-05-03T16:58:47.999Z</time></trkpt><trkpt lat="45.67762483745351" lon="9.396309526681037"><ele>249.0</ele><time>2026-05-03T16:58:48.999Z</time></trkpt><trkpt lat="45.6777478899021" lon="9.396357472311669"><ele>249.0</ele><time>2026-05-03T16:58:49.999Z</time></trkpt><trkpt lat="45.67787452066229" lon="9.396404022568332"><ele>249.0</ele><time>2026-05-03T16:58:50.999Z</time></trkpt><trkpt lat="45.67800236993952" lon="9.396445665499858"><ele>249.0</ele><time>2026-05-03T16:58:51.999Z</time></trkpt><trkpt lat="45.678128787402464" lon="9.396486919139758"><ele>249.0</ele><time>2026-05-03T16:58:52.999Z</time></trkpt><trkpt lat="45.678251982162905" lon="9.396530086992126"><ele>249.0</ele><time>2026-05-03T16:58:53.999Z</time></trkpt><trkpt lat="45.67837916780279" lon="9.396573546718766"><ele>249.0</ele><time>2026-05-03T16:58:54.999Z</time></trkpt><trkpt lat="45.678502741027415" lon="9.396617107573803"><ele>249.2</ele><time>2026-05-03T16:58:55.999Z</time></trkpt><trkpt lat="45.67862433526809" lon="9.396656084478328"><ele>249.39999999999998</ele><time>2026-05-03T16:58:56.999Z</time></trkpt><trkpt lat="45.678733899001614" lon="9.396692410518828"><ele>249.6</ele><time>2026-05-03T16:58:57.999Z</time></trkpt><trkpt lat="45.67883211092629" lon="9.396723460053458"><ele>249.8</ele><time>2026-05-03T16:58:58.999Z</time></trkpt><trkpt lat="45.67892196029291" lon="9.396756750203632"><ele>250.0</ele><time>2026-05-03T16:58:59.999Z</time></trkpt><trkpt lat="45.67900376280576" lon="9.396787441982516"><ele>250.0</ele><time>2026-05-03T16:59:00.999Z</time></trkpt><trkpt lat="45.679079514323256" lon="9.396820992331461"><ele>250.0</ele><time>2026-05-03T16:59:01.999Z</time></trkpt><trkpt lat="45.67916824422881" lon="9.396863045261659"><ele>250.0</ele><time>2026-05-03T16:59:02.999Z</time></trkpt><trkpt lat="45.679256384907745" lon="9.396925577481177"><ele>250.0</ele><time>2026-05-03T16:59:03.999Z</time></trkpt><trkpt lat="45.67934220886242" lon="9.397009133614256"><ele>250.0</ele><time>2026-05-03T16:59:04.999Z</time></trkpt><trkpt lat="45.67942213108686" lon="9.397095000759782"><ele>250.5</ele><time>2026-05-03T16:59:05.999Z</time></trkpt><trkpt lat="45.67951064880829" lon="9.397160591958524"><ele>251.0</ele><time>2026-05-03T16:59:06.999Z</time></trkpt><trkpt lat="45.67961752312758" lon="9.397166612471073"><ele>251.5</ele><time>2026-05-03T16:59:07.999Z</time></trkpt><trkpt lat="45.67973286588115" lon="9.397120269841583"><ele>252.0</ele><time>2026-05-03T16:59:08.999Z</time></trkpt><trkpt lat="45.679858501628004" lon="9.397090073463028"><ele>252.0</ele><time>2026-05-03T16:59:09.999Z</time></trkpt><trkpt lat="45.67998628109455" lon="9.39712427444538"><ele>252.0</ele><time>2026-05-03T16:59:10.999Z</time></trkpt><trkpt lat="45.68010888039243" lon="9.397170955261178"><ele>252.0</ele><time>2026-05-03T16:59:11.999Z</time></trkpt><trkpt lat="45.68022986513131" lon="9.397223879748426"><ele>252.0</ele><time>2026-05-03T16:59:12.999Z</time></trkpt><trkpt lat="45.6803521876081" lon="9.397275480440259"><ele>252.5</ele><time>2026-05-03T16:59:13.999Z</time></trkpt><trkpt lat="45.68047744811847" lon="9.397326357633533"><ele>253.0</ele><time>2026-05-03T16:59:14.999Z</time></trkpt><trkpt lat="45.680604144391516" lon="9.397376957602628"><ele>253.5</ele><time>2026-05-03T16:59:15.999Z</time></trkpt><trkpt lat="45.68073271461033" lon="9.397424402629603"><ele>254.0</ele><time>2026-05-03T16:59:16.999Z</time></trkpt><trkpt lat="45.68086309896828" lon="9.397476002060813"><ele>254.0</ele><time>2026-05-03T16:59:17.999Z</time></trkpt><trkpt lat="45.68099088975027" lon="9.39752276372931"><ele>254.0</ele><time>2026-05-03T16:59:18.999Z</time></trkpt><trkpt lat="45.681124393956225" lon="9.397568554825916"><ele>254.0</ele><time>2026-05-03T16:59:19.999Z</time></trkpt><trkpt lat="45.681265689679805" lon="9.397611415062507"><ele>254.0</ele><time>2026-05-03T16:59:20.999Z</time></trkpt><trkpt lat="45.681406294720034" lon="9.39767590541801"><ele>254.25</ele><time>2026-05-03T16:59:21.999Z</time></trkpt><trkpt lat="45.68154376342965" lon="9.397721588210775"><ele>254.5</ele><time>2026-05-03T16:59:22.999Z</time></trkpt><trkpt lat="45.68165742497129" lon="9.397773201171406"><ele>254.75</ele><time>2026-05-03T16:59:23.999Z</time></trkpt><trkpt lat="45.681777401270814" lon="9.397820791160637"><ele>255.0</ele><time>2026-05-03T16:59:24.999Z</time></trkpt><trkpt lat="45.6819180389937" lon="9.397867205765069"><ele>255.25</ele><time>2026-05-03T16:59:25.999Z</time></trkpt><trkpt lat="45.68203685457208" lon="9.397903616536764"><ele>255.5</ele><time>2026-05-03T16:59:26.999Z</time></trkpt><trkpt lat="45.682163846921775" lon="9.397951938426154"><ele>255.75</ele><time>2026-05-03T16:59:27.999Z</time></trkpt><trkpt lat="45.68228445289405" lon="9.39800039198819"><ele>256.0</ele><time>2026-05-03T16:59:28.999Z</time></trkpt><trkpt lat="45.682397868021006" lon="9.398052245495537"><ele>256.0</ele><time>2026-05-03T16:59:29.999Z</time></trkpt><trkpt lat="45.682500266183155" lon="9.398119105855692"><ele>256.0</ele><time>2026-05-03T16:59:30.999Z</time></trkpt><trkpt lat="45.68258843486254" lon="9.398207779687413"><ele>256.0</ele><time>2026-05-03T16:59:31.999Z</time></trkpt><trkpt lat="45.682662950906995" lon="9.398315728387834"><ele>256.0</ele><time>2026-05-03T16:59:32.999Z</time></trkpt><trkpt lat="45.68274328922157" lon="9.398402358279833"><ele>256.0</ele><time>2026-05-03T16:59:33.999Z</time></trkpt><trkpt lat="45.68284089203801" lon="9.398423414433871"><ele>255.25</ele><time>2026-05-03T16:59:34.999Z</time></trkpt><trkpt lat="45.682947245105694" lon="9.398394887752021"><ele>254.5</ele><time>2026-05-03T16:59:35.999Z</time></trkpt><trkpt lat="45.683055556761566" lon="9.398359496738557"><ele>253.75</ele><time>2026-05-03T16:59:36.999Z</time></trkpt><trkpt lat="45.683171339300195" lon="9.398354131653589"><ele>253.0</ele><time>2026-05-03T16:59:37.999Z</time></trkpt><trkpt lat="45.683294659602915" lon="9.398375300917401"><ele>253.0</ele><time>2026-05-03T16:59:38.999Z</time></trkpt><trkpt lat="45.683420012073306" lon="9.398409222799794"><ele>253.0</ele><time>2026-05-03T16:59:39.999Z</time></trkpt><trkpt lat="45.68354858827171" lon="9.398452768014353"><ele>253.0</ele><time>2026-05-03T16:59:40.999Z</time></trkpt><trkpt lat="45.68367670294254" lon="9.398495244967094"><ele>253.0</ele><time>2026-05-03T16:59:41.999Z</time></trkpt><trkpt lat="45.683802102608034" lon="9.398537797231146"><ele>253.0</ele><time>2026-05-03T16:59:42.999Z</time></trkpt><trkpt lat="45.68391525337925" lon="9.39857686182048"><ele>253.0</ele><time>2026-05-03T16:59:43.999Z</time></trkpt><trkpt lat="45.6840199829318" lon="9.39861352293924"><ele>253.0</ele><time>2026-05-03T16:59:44.999Z</time></trkpt><trkpt lat="45.684128910884155" lon="9.398652981762432"><ele>253.0</ele><time>2026-05-03T16:59:45.999Z</time></trkpt><trkpt lat="45.684244811047584" lon="9.398691682376466"><ele>253.0</ele><time>2026-05-03T16:59:47Z</time></trkpt><trkpt lat="45.684361225047276" lon="9.39872865293445"><ele>253.0</ele><time>2026-05-03T16:59:48Z</time></trkpt><trkpt lat="45.68447585030094" lon="9.398772467271517"><ele>253.0</ele><time>2026-05-03T16:59:49Z</time></trkpt><trkpt lat="45.684598401260466" lon="9.398815998017946"><ele>253.0</ele><time>2026-05-03T16:59:50Z</time></trkpt><trkpt lat="45.68473017700746" lon="9.39885876730141"><ele>253.0</ele><time>2026-05-03T16:59:51Z</time></trkpt><trkpt lat="45.684871568893925" lon="9.398904767150595"><ele>253.0</ele><time>2026-05-03T16:59:52Z</time></trkpt><trkpt lat="45.685017004876144" lon="9.39895682679587"><ele>253.0</ele><time>2026-05-03T16:59:53Z</time></trkpt><trkpt lat="45.68516544148881" lon="9.39901447731209"><ele>253.0</ele><time>2026-05-03T16:59:54Z</time></trkpt><trkpt lat="45.685310533881214" lon="9.399068878558001"><ele>253.0</ele><time>2026-05-03T16:59:55Z</time></trkpt><trkpt lat="45.685450943289446" lon="9.399118913851218"><ele>253.0</ele><time>2026-05-03T16:59:56Z</time></trkpt><trkpt lat="45.68559416865852" lon="9.399168615667763"><ele>253.0</ele><time>2026-05-03T16:59:57Z</time></trkpt><trkpt lat="45.685736990785855" lon="9.399219285214723"><ele>253.0</ele><time>2026-05-03T16:59:58Z</time></trkpt><trkpt lat="45.685880934615334" lon="9.399274298962734"><ele>253.0</ele><time>2026-05-03T16:59:59Z</time></trkpt><trkpt lat="45.68603028085118" lon="9.399330170847787"><ele>253.0</ele><time>2026-05-03T17:00:00Z</time></trkpt><trkpt lat="45.68618358965191" lon="9.399382144239762"><ele>253.0</ele><time>2026-05-03T17:00:01Z</time></trkpt><trkpt lat="45.68633592837791" lon="9.399437538085198"><ele>254.33333333333331</ele><time>2026-05-03T17:00:02Z</time></trkpt><trkpt lat="45.68648825101916" lon="9.39949804813658"><ele>255.66666666666669</ele><time>2026-05-03T17:00:03Z</time></trkpt><trkpt lat="45.68663801958703" lon="9.399558832305974"><ele>257.0</ele><time>2026-05-03T17:00:04Z</time></trkpt><trkpt lat="45.686786554028025" lon="9.39961400058393"><ele>257.25</ele><time>2026-05-03T17:00:05Z</time></trkpt><trkpt lat="45.68692829671353" lon="9.399661979698237"><ele>257.5</ele><time>2026-05-03T17:00:06Z</time></trkpt><trkpt lat="45.687057219553395" lon="9.399705062771165"><ele>257.75</ele><time>2026-05-03T17:00:07Z</time></trkpt><trkpt lat="45.68716928273927" lon="9.399747556421147"><ele>258.0</ele><time>2026-05-03T17:00:08Z</time></trkpt><trkpt lat="45.687277562168624" lon="9.399785945391367"><ele>258.0</ele><time>2026-05-03T17:00:09Z</time></trkpt><trkpt lat="45.68738308512709" lon="9.399821702174442"><ele>258.0</ele><time>2026-05-03T17:00:10Z</time></trkpt><trkpt lat="45.6874941906296" lon="9.399859404420623"><ele>258.0</ele><time>2026-05-03T17:00:11Z</time></trkpt><trkpt lat="45.68760747778454" lon="9.399899869153012"><ele>258.0</ele><time>2026-05-03T17:00:12Z</time></trkpt><trkpt lat="45.68772346942817" lon="9.399944563429408"><ele>259.0</ele><time>2026-05-03T17:00:13Z</time></trkpt><trkpt lat="45.68784141232384" lon="9.399994886371665"><ele>260.0</ele><time>2026-05-03T17:00:14Z</time></trkpt><trkpt lat="45.68795840241715" lon="9.400047980604402"><ele>261.0</ele><time>2026-05-03T17:00:15Z</time></trkpt><trkpt lat="45.688066133540744" lon="9.400097529193056"><ele>262.0</ele><time>2026-05-03T17:00:16Z</time></trkpt><trkpt lat="45.68816162216242" lon="9.40014612737744"><ele>262.0</ele><time>2026-05-03T17:00:17Z</time></trkpt><trkpt lat="45.688249378881395" lon="9.40019452595792"><ele>262.0</ele><time>2026-05-03T17:00:18Z</time></trkpt><trkpt lat="45.688331297532706" lon="9.400252478030092"><ele>262.0</ele><time>2026-05-03T17:00:19Z</time></trkpt><trkpt lat="45.68839979847156" lon="9.400334199787165"><ele>262.0</ele><time>2026-05-03T17:00:20Z</time></trkpt><trkpt lat="45.68845459875522" lon="9.4004346937592"><ele>262.0</ele><time>2026-05-03T17:00:21Z</time></trkpt><trkpt lat="45.688522308242824" lon="9.40051890480202"><ele>262.2</ele><time>2026-05-03T17:00:22Z</time></trkpt><trkpt lat="45.68860857005121" lon="9.400554341164574"><ele>262.4</ele><time>2026-05-03T17:00:23Z</time></trkpt><trkpt lat="45.688698561356574" lon="9.400537157642681"><ele>262.6</ele><time>2026-05-03T17:00:24Z</time></trkpt><trkpt lat="45.68879184897662" lon="9.400493748598295"><ele>262.8</ele><time>2026-05-03T17:00:25Z</time></trkpt><trkpt lat="45.68889681462211" lon="9.400477679331177"><ele>263.0</ele><time>2026-05-03T17:00:26Z</time></trkpt><trkpt lat="45.68901328609915" lon="9.400491321520231"><ele>262.75</ele><time>2026-05-03T17:00:27Z</time></trkpt><trkpt lat="45.6891373595913" lon="9.40052281981508"><ele>262.5</ele><time>2026-05-03T17:00:27.999Z</time></trkpt><trkpt lat="45.68927067824549" lon="9.400561958732862"><ele>262.25</ele><time>2026-05-03T17:00:28.999Z</time></trkpt><trkpt lat="45.68941546126456" lon="9.400598826328942"><ele>262.0</ele><time>2026-05-03T17:00:29.999Z</time></trkpt><trkpt lat="45.68956546145808" lon="9.400640915608154"><ele>262.0</ele><time>2026-05-03T17:00:30.999Z</time></trkpt><trkpt lat="45.68969657058352" lon="9.400684401142366"><ele>262.0</ele><time>2026-05-03T17:00:31.999Z</time></trkpt><trkpt lat="45.68984217382034" lon="9.400740490779867"><ele>262.0</ele><time>2026-05-03T17:00:32.999Z</time></trkpt><trkpt lat="45.68998708156372" lon="9.400827687690828"><ele>262.0</ele><time>2026-05-03T17:00:33.999Z</time></trkpt><trkpt lat="45.69013384620203" lon="9.400895479990712"><ele>262.75</ele><time>2026-05-03T17:00:34.999Z</time></trkpt><trkpt lat="45.69026998081433" lon="9.400960761315487"><ele>263.5</ele><time>2026-05-03T17:00:35.999Z</time></trkpt><trkpt lat="45.690387839132" lon="9.40101787298177"><ele>264.25</ele><time>2026-05-03T17:00:36.999Z</time></trkpt><trkpt lat="45.690499420680084" lon="9.401049529796438"><ele>265.0</ele><time>2026-05-03T17:00:37.999Z</time></trkpt><trkpt lat="45.69059234119294" lon="9.401103840424303"><ele>265.0</ele><time>2026-05-03T17:00:38.999Z</time></trkpt><trkpt lat="45.69068906129962" lon="9.401155271831543"><ele>265.0</ele><time>2026-05-03T17:00:39.999Z</time></trkpt><trkpt lat="45.69079215518375" lon="9.401206160391249"><ele>265.0</ele><time>2026-05-03T17:00:40.999Z</time></trkpt><trkpt lat="45.69089335818882" lon="9.401274258689988"><ele>265.0</ele><time>2026-05-03T17:00:41.999Z</time></trkpt><trkpt lat="45.691013522536444" lon="9.401341144593339"><ele>265.75</ele><time>2026-05-03T17:00:42.999Z</time></trkpt><trkpt lat="45.69113575466445" lon="9.401412086257691"><ele>266.5</ele><time>2026-05-03T17:00:43.999Z</time></trkpt><trkpt lat="45.69126160000481" lon="9.401480355605482"><ele>267.25</ele><time>2026-05-03T17:00:44.999Z</time></trkpt><trkpt lat="45.69139272037416" lon="9.401536912139102"><ele>268.0</ele><time>2026-05-03T17:00:45.999Z</time></trkpt><trkpt lat="45.69151481045809" lon="9.401588757823466"><ele>268.0</ele><time>2026-05-03T17:00:46.999Z</time></trkpt><trkpt lat="45.69162415478806" lon="9.401627619517459"><ele>268.0</ele><time>2026-05-03T17:00:47.999Z</time></trkpt><trkpt lat="45.691711182578366" lon="9.401666996912768"><ele>268.0</ele><time>2026-05-03T17:00:48.999Z</time></trkpt><trkpt lat="45.691784333960186" lon="9.401706333900613"><ele>268.0</ele><time>2026-05-03T17:00:49.999Z</time></trkpt><trkpt lat="45.6918924021572" lon="9.401770086425628"><ele>268.0</ele><time>2026-05-03T17:00:51.999Z</time></trkpt><trkpt lat="45.69196781874872" lon="9.401784209824998"><ele>268.25</ele><time>2026-05-03T17:00:53.999Z</time></trkpt><trkpt lat="45.69206474321414" lon="9.401856162430457"><ele>268.5</ele><time>2026-05-03T17:00:55.999Z</time></trkpt><trkpt lat="45.69226662819017" lon="9.401956645621636"><ele>268.75</ele><time>2026-05-03T17:00:57.999Z</time></trkpt><trkpt lat="45.692371811198115" lon="9.402009008304168"><ele>269.0</ele><time>2026-05-03T17:00:58.999Z</time></trkpt><trkpt lat="45.69246055288294" lon="9.402055475782936"><ele>269.0</ele><time>2026-05-03T17:00:59.999Z</time></trkpt><trkpt lat="45.69253731922381" lon="9.402100488504246"><ele>269.0</ele><time>2026-05-03T17:01:00.999Z</time></trkpt><trkpt lat="45.69261652680418" lon="9.40212196611035"><ele>269.0</ele><time>2026-05-03T17:01:01.999Z</time></trkpt><trkpt lat="45.692690616436565" lon="9.402176648473052"><ele>269.0</ele><time>2026-05-03T17:01:02.999Z</time></trkpt><trkpt lat="45.69276558799804" lon="9.402228123683726"><ele>269.0</ele><time>2026-05-03T17:01:03.999Z</time></trkpt><trkpt lat="45.69284654558771" lon="9.402268837096445"><ele>269.0</ele><time>2026-05-03T17:01:04.999Z</time></trkpt><trkpt lat="45.69293412456122" lon="9.402291864448621"><ele>269.0</ele><time>2026-05-03T17:01:05.999Z</time></trkpt><trkpt lat="45.693025780212" lon="9.402306257760989"><ele>269.0</ele><time>2026-05-03T17:01:06.999Z</time></trkpt><trkpt lat="45.693131357230826" lon="9.402310398889874"><ele>269.0</ele><time>2026-05-03T17:01:07.999Z</time></trkpt><trkpt lat="45.69323918884723" lon="9.40231010592762"><ele>269.0</ele><time>2026-05-03T17:01:08.999Z</time></trkpt><trkpt lat="45.69336049101854" lon="9.402311303497122"><ele>269.0</ele><time>2026-05-03T17:01:09.999Z</time></trkpt><trkpt lat="45.69348279539236" lon="9.402308369789587"><ele>269.25</ele><time>2026-05-03T17:01:10.999Z</time></trkpt><trkpt lat="45.693604589975244" lon="9.402306400322322"><ele>269.5</ele><time>2026-05-03T17:01:11.999Z</time></trkpt><trkpt lat="45.69372392631285" lon="9.40231157586306"><ele>269.75</ele><time>2026-05-03T17:01:12.999Z</time></trkpt><trkpt lat="45.6938435425138" lon="9.40230696254333"><ele>270.0</ele><time>2026-05-03T17:01:13.999Z</time></trkpt><trkpt lat="45.693961731986924" lon="9.402312304702438"><ele>270.0</ele><time>2026-05-03T17:01:14.999Z</time></trkpt><trkpt lat="45.69407667594003" lon="9.402351787184008"><ele>270.0</ele><time>2026-05-03T17:01:15.999Z</time></trkpt><trkpt lat="45.694191620636396" lon="9.402397513176327"><ele>270.0</ele><time>2026-05-03T17:01:16.999Z</time></trkpt><trkpt lat="45.69430279639848" lon="9.402462716719912"><ele>270.0</ele><time>2026-05-03T17:01:17.999Z</time></trkpt><trkpt lat="45.69441088765768" lon="9.402545796911987"><ele>271.0</ele><time>2026-05-03T17:01:18.999Z</time></trkpt><trkpt lat="45.69451579755398" lon="9.402647148581881"><ele>272.0</ele><time>2026-05-03T17:01:19.999Z</time></trkpt><trkpt lat="45.69462203853955" lon="9.4027463849317"><ele>273.0</ele><time>2026-05-03T17:01:20.999Z</time></trkpt><trkpt lat="45.69472321602674" lon="9.402853879773167"><ele>274.0</ele><time>2026-05-03T17:01:21.999Z</time></trkpt><trkpt lat="45.69482266502721" lon="9.40296212495987"><ele>273.75</ele><time>2026-05-03T17:01:22.999Z</time></trkpt><trkpt lat="45.69492596264632" lon="9.4030629935395"><ele>273.5</ele><time>2026-05-03T17:01:23.999Z</time></trkpt><trkpt lat="45.69502671707844" lon="9.403169280794396"><ele>273.25</ele><time>2026-05-03T17:01:24.999Z</time></trkpt><trkpt lat="45.69512730931483" lon="9.403277584797047"><ele>273.0</ele><time>2026-05-03T17:01:25.999Z</time></trkpt><trkpt lat="45.695230803957436" lon="9.403377302189936"><ele>273.25</ele><time>2026-05-03T17:01:26.999Z</time></trkpt><trkpt lat="45.695327823606625" lon="9.403475245804508"><ele>273.5</ele><time>2026-05-03T17:01:27.999Z</time></trkpt><trkpt lat="45.69542841674588" lon="9.40356875990555"><ele>273.75</ele><time>2026-05-03T17:01:28.999Z</time></trkpt><trkpt lat="45.69553297926427" lon="9.403666170654931"><ele>274.0</ele><time>2026-05-03T17:01:29.999Z</time></trkpt><trkpt lat="45.695636655681284" lon="9.403791095564038"><ele>274.0</ele><time>2026-05-03T17:01:30.999Z</time></trkpt><trkpt lat="45.6957551956534" lon="9.403887533283017"><ele>274.0</ele><time>2026-05-03T17:01:31.999Z</time></trkpt><trkpt lat="45.695865455754046" lon="9.404010593578084"><ele>274.0</ele><time>2026-05-03T17:01:32.999Z</time></trkpt><trkpt lat="45.69597360015822" lon="9.404129674767416"><ele>274.0</ele><time>2026-05-03T17:01:33.999Z</time></trkpt><trkpt lat="45.6960705340548" lon="9.40422611532883"><ele>274.3333333333333</ele><time>2026-05-03T17:01:34.999Z</time></trkpt><trkpt lat="45.69615540404697" lon="9.404312387033997"><ele>274.66666666666663</ele><time>2026-05-03T17:01:35.999Z</time></trkpt><trkpt lat="45.696234739728695" lon="9.404390329633276"><ele>275.0</ele><time>2026-05-03T17:01:36.999Z</time></trkpt><trkpt lat="45.69630611525397" lon="9.404461165868437"><ele>275.3333333333333</ele><time>2026-05-03T17:01:37.999Z</time></trkpt><trkpt lat="45.69637219159905" lon="9.40452663719938"><ele>275.6666666666667</ele><time>2026-05-03T17:01:38.999Z</time></trkpt><trkpt lat="45.69643492189528" lon="9.404587566918165"><ele>276.0</ele><time>2026-05-03T17:01:39.999Z</time></trkpt><trkpt lat="45.696513754153074" lon="9.404666580120736"><ele>276.0</ele><time>2026-05-03T17:01:41.999Z</time></trkpt><trkpt lat="45.69657222065851" lon="9.404721593254127"><ele>276.0</ele><time>2026-05-03T17:01:43.999Z</time></trkpt><trkpt lat="45.69665031391554" lon="9.40481306955836"><ele>276.0</ele><time>2026-05-03T17:01:45.999Z</time></trkpt><trkpt lat="45.69670760870151" lon="9.404875320352431"><ele>276.0</ele><time>2026-05-03T17:01:46.999Z</time></trkpt><trkpt lat="45.69677303846465" lon="9.404938124901873"><ele>276.0</ele><time>2026-05-03T17:01:47.999Z</time></trkpt><trkpt lat="45.69685817813986" lon="9.40500443299233"><ele>276.0</ele><time>2026-05-03T17:01:48.999Z</time></trkpt><trkpt lat="45.69696059194538" lon="9.405098441357039"><ele>276.0</ele><time>2026-05-03T17:01:49.999Z</time></trkpt><trkpt lat="45.69706788267152" lon="9.405206462465415"><ele>276.0</ele><time>2026-05-03T17:01:50.999Z</time></trkpt><trkpt lat="45.69717398444078" lon="9.405333892988805"><ele>276.0</ele><time>2026-05-03T17:01:51.999Z</time></trkpt><trkpt lat="45.697288188000215" lon="9.405482251779844"><ele>276.0</ele><time>2026-05-03T17:01:53Z</time></trkpt><trkpt lat="45.69743050523369" lon="9.405629896665014"><ele>276.3333333333333</ele><time>2026-05-03T17:01:54Z</time></trkpt><trkpt lat="45.69757937040869" lon="9.405778902751589"><ele>276.66666666666663</ele><time>2026-05-03T17:01:55Z</time></trkpt><trkpt lat="45.697720992098084" lon="9.40592239951747"><ele>277.0</ele><time>2026-05-03T17:01:56Z</time></trkpt><trkpt lat="45.69785500680143" lon="9.406058673705683"><ele>277.25</ele><time>2026-05-03T17:01:57Z</time></trkpt><trkpt lat="45.697977640294" lon="9.406186165770139"><ele>277.5</ele><time>2026-05-03T17:01:58Z</time></trkpt><trkpt lat="45.69808535669045" lon="9.40630176846115"><ele>277.75</ele><time>2026-05-03T17:01:59Z</time></trkpt><trkpt lat="45.69817764543032" lon="9.40641925848608"><ele>278.0</ele><time>2026-05-03T17:02:00Z</time></trkpt><trkpt lat="45.69825316316798" lon="9.40654717930483"><ele>278.5</ele><time>2026-05-03T17:02:01Z</time></trkpt><trkpt lat="45.69832883528115" lon="9.406681293437476"><ele>279.0</ele><time>2026-05-03T17:02:02Z</time></trkpt><trkpt lat="45.69843358627371" lon="9.406800071622833"><ele>279.5</ele><time>2026-05-03T17:02:03Z</time></trkpt><trkpt lat="45.698569258933986" lon="9.406896480051618"><ele>280.0</ele><time>2026-05-03T17:02:04Z</time></trkpt><trkpt lat="45.69871953950154" lon="9.407000517298377"><ele>280.3333333333333</ele><time>2026-05-03T17:02:05Z</time></trkpt><trkpt lat="45.69886681241463" lon="9.407130053450894"><ele>280.6666666666667</ele><time>2026-05-03T17:02:06Z</time></trkpt><trkpt lat="45.69899794220662" lon="9.407283685162358"><ele>281.0</ele><time>2026-05-03T17:02:07Z</time></trkpt><trkpt lat="45.699118636610336" lon="9.407448380329233"><ele>282.0</ele><time>2026-05-03T17:02:08Z</time></trkpt><trkpt lat="45.699235037905346" lon="9.40761520229471"><ele>283.0</ele><time>2026-05-03T17:02:09Z</time></trkpt><trkpt lat="45.69934529593784" lon="9.407771007003602"><ele>284.0</ele><time>2026-05-03T17:02:10Z</time></trkpt><trkpt lat="45.699445806915875" lon="9.407915151037658"><ele>284.75</ele><time>2026-05-03T17:02:11Z</time></trkpt><trkpt lat="45.69954332970013" lon="9.408048783875197"><ele>285.5</ele><time>2026-05-03T17:02:12Z</time></trkpt><trkpt lat="45.69963607122532" lon="9.408176283208894"><ele>286.25</ele><time>2026-05-03T17:02:13Z</time></trkpt><trkpt lat="45.69972841711502" lon="9.408302274313312"><ele>287.0</ele><time>2026-05-03T17:02:14Z</time></trkpt><trkpt lat="45.69982243241622" lon="9.408430059043813"><ele>287.0</ele><time>2026-05-03T17:02:15Z</time></trkpt><trkpt lat="45.69991792019794" lon="9.40855738452502"><ele>287.0</ele><time>2026-05-03T17:02:16Z</time></trkpt><trkpt lat="45.70001535579049" lon="9.408681506048497"><ele>287.0</ele><time>2026-05-03T17:02:17Z</time></trkpt><trkpt lat="45.70011197347944" lon="9.408804407216689"><ele>287.0</ele><time>2026-05-03T17:02:18Z</time></trkpt><trkpt lat="45.70021391883112" lon="9.408926843131647"><ele>286.5</ele><time>2026-05-03T17:02:19Z</time></trkpt><trkpt lat="45.7003156929588" lon="9.409048667209452"><ele>286.0</ele><time>2026-05-03T17:02:20Z</time></trkpt><trkpt lat="45.70041992826474" lon="9.409174276300526"><ele>285.5</ele><time>2026-05-03T17:02:21Z</time></trkpt><trkpt lat="45.700525763952555" lon="9.40930024234134"><ele>285.0</ele><time>2026-05-03T17:02:22Z</time></trkpt><trkpt lat="45.70062791546736" lon="9.40942265410477"><ele>285.0</ele><time>2026-05-03T17:02:23Z</time></trkpt><trkpt lat="45.70073013090662" lon="9.409539057991902"><ele>285.0</ele><time>2026-05-03T17:02:23.999Z</time></trkpt><trkpt lat="45.70083017949351" lon="9.409657123027634"><ele>285.0</ele><time>2026-05-03T17:02:24.999Z</time></trkpt><trkpt lat="45.700928670459035" lon="9.409773360508485"><ele>285.0</ele><time>2026-05-03T17:02:25.999Z</time></trkpt><trkpt lat="45.70102675200231" lon="9.409890744403887"><ele>284.6</ele><time>2026-05-03T17:02:26.999Z</time></trkpt><trkpt lat="45.70112258018904" lon="9.410004084595428"><ele>284.2</ele><time>2026-05-03T17:02:27.999Z</time></trkpt><trkpt lat="45.701212197449756" lon="9.410110872984706"><ele>283.8</ele><time>2026-05-03T17:02:28.999Z</time></trkpt><trkpt lat="45.70129334055109" lon="9.410211378754637"><ele>283.4</ele><time>2026-05-03T17:02:29.999Z</time></trkpt><trkpt lat="45.7013690019176" lon="9.410302681874665"><ele>283.0</ele><time>2026-05-03T17:02:30.999Z</time></trkpt><trkpt lat="45.701439223575484" lon="9.410388835356459"><ele>283.0</ele><time>2026-05-03T17:02:31.999Z</time></trkpt><trkpt lat="45.70150420703093" lon="9.410465276609898"><ele>283.0</ele><time>2026-05-03T17:02:32.999Z</time></trkpt><trkpt lat="45.70156664117315" lon="9.410539942802082"><ele>283.0</ele><time>2026-05-03T17:02:33.999Z</time></trkpt><trkpt lat="45.70164007078344" lon="9.410624439558092"><ele>283.0</ele><time>2026-05-03T17:02:34.999Z</time></trkpt><trkpt lat="45.70173083515117" lon="9.410709888783499"><ele>283.0</ele><time>2026-05-03T17:02:35.999Z</time></trkpt><trkpt lat="45.70183799016854" lon="9.410794153175413"><ele>284.25</ele><time>2026-05-03T17:02:36.999Z</time></trkpt><trkpt lat="45.701959622866895" lon="9.410871195023386"><ele>285.5</ele><time>2026-05-03T17:02:37.999Z</time></trkpt><trkpt lat="45.702083985375104" lon="9.410935949359944"><ele>286.75</ele><time>2026-05-03T17:02:38.999Z</time></trkpt><trkpt lat="45.7022178176955" lon="9.411005152467018"><ele>288.0</ele><time>2026-05-03T17:02:39.999Z</time></trkpt><trkpt lat="45.70236257662225" lon="9.411064205112936"><ele>288.0</ele><time>2026-05-03T17:02:40.999Z</time></trkpt><trkpt lat="45.70252125257529" lon="9.411126787971133"><ele>288.0</ele><time>2026-05-03T17:02:41.999Z</time></trkpt><trkpt lat="45.70269008285983" lon="9.4112028000956"><ele>288.0</ele><time>2026-05-03T17:02:42.999Z</time></trkpt><trkpt lat="45.70286539166889" lon="9.411284760726204"><ele>288.6666666666667</ele><time>2026-05-03T17:02:43.999Z</time></trkpt><trkpt lat="45.703046007367455" lon="9.411376990083218"><ele>289.33333333333337</ele><time>2026-05-03T17:02:44.999Z</time></trkpt><trkpt lat="45.70322635928862" lon="9.411455098919687"><ele>290.0</ele><time>2026-05-03T17:02:45.999Z</time></trkpt><trkpt lat="45.70341640507957" lon="9.411522061903705"><ele>289.0</ele><time>2026-05-03T17:02:46.999Z</time></trkpt><trkpt lat="45.703602905794675" lon="9.411575431646241"><ele>288.0</ele><time>2026-05-03T17:02:47.999Z</time></trkpt><trkpt lat="45.70379759635751" lon="9.411602996506144"><ele>287.0</ele><time>2026-05-03T17:02:48.999Z</time></trkpt><trkpt lat="45.703993901779924" lon="9.411590033402382"><ele>287.0</ele><time>2026-05-03T17:02:49.999Z</time></trkpt><trkpt lat="45.70418835877854" lon="9.411551951085514"><ele>287.0</ele><time>2026-05-03T17:02:50.999Z</time></trkpt><trkpt lat="45.70438300048143" lon="9.411490406522837"><ele>287.0</ele><time>2026-05-03T17:02:51.999Z</time></trkpt><trkpt lat="45.70457082457137" lon="9.411409363246698"><ele>288.0</ele><time>2026-05-03T17:02:52.999Z</time></trkpt><trkpt lat="45.70475679563864" lon="9.411308122527785"><ele>289.0</ele><time>2026-05-03T17:02:53.999Z</time></trkpt><trkpt lat="45.70493545193199" lon="9.41118586307423"><ele>290.0</ele><time>2026-05-03T17:02:54.999Z</time></trkpt><trkpt lat="45.70510233270227" lon="9.411050705421568"><ele>291.6666666666667</ele><time>2026-05-03T17:02:55.999Z</time></trkpt><trkpt lat="45.705254833771654" lon="9.410923743622691"><ele>293.3333333333333</ele><time>2026-05-03T17:02:56.999Z</time></trkpt><trkpt lat="45.70539589846857" lon="9.410810042882092"><ele>295.0</ele><time>2026-05-03T17:02:57.999Z</time></trkpt><trkpt lat="45.70552708445662" lon="9.41070518189847"><ele>295.0</ele><time>2026-05-03T17:02:58.999Z</time></trkpt><trkpt lat="45.705647106753936" lon="9.410607123962805"><ele>295.0</ele><time>2026-05-03T17:02:59.999Z</time></trkpt><trkpt lat="45.70576189065362" lon="9.410516294016174"><ele>295.0</ele><time>2026-05-03T17:03:00.999Z</time></trkpt><trkpt lat="45.70586671927744" lon="9.410429856315774"><ele>295.0</ele><time>2026-05-03T17:03:01.999Z</time></trkpt><trkpt lat="45.70596667649866" lon="9.410346773226845"><ele>294.2</ele><time>2026-05-03T17:03:02.999Z</time></trkpt><trkpt lat="45.70606024290817" lon="9.410270029836425"><ele>293.4</ele><time>2026-05-03T17:03:03.999Z</time></trkpt><trkpt lat="45.70614349989446" lon="9.410202889345175"><ele>292.6</ele><time>2026-05-03T17:03:04.999Z</time></trkpt><trkpt lat="45.70622422920747" lon="9.41014836430776"><ele>291.8</ele><time>2026-05-03T17:03:05.999Z</time></trkpt><trkpt lat="45.70631236439982" lon="9.410131501562669"><ele>291.0</ele><time>2026-05-03T17:03:06.999Z</time></trkpt><trkpt lat="45.70641194752131" lon="9.410144295824457"><ele>292.0</ele><time>2026-05-03T17:03:07.999Z</time></trkpt><trkpt lat="45.706508729980705" lon="9.410118511478505"><ele>293.0</ele><time>2026-05-03T17:03:08.999Z</time></trkpt><trkpt lat="45.70658092940539" lon="9.410016679120533"><ele>294.0</ele><time>2026-05-03T17:03:09.999Z</time></trkpt><trkpt lat="45.70663503168761" lon="9.409864825259818"><ele>295.0</ele><time>2026-05-03T17:03:10.999Z</time></trkpt><trkpt lat="45.706717193160834" lon="9.40973107025702"><ele>296.0</ele><time>2026-05-03T17:03:11.999Z</time></trkpt><trkpt lat="45.70685017600171" lon="9.409618622868747"><ele>297.6666666666667</ele><time>2026-05-03T17:03:12.999Z</time></trkpt><trkpt lat="45.70701255613694" lon="9.409501301099631"><ele>299.3333333333333</ele><time>2026-05-03T17:03:13.999Z</time></trkpt><trkpt lat="45.70717537200047" lon="9.409383029747897"><ele>301.0</ele><time>2026-05-03T17:03:14.999Z</time></trkpt><trkpt lat="45.70733355808592" lon="9.409256205967491"><ele>301.0</ele><time>2026-05-03T17:03:15.999Z</time></trkpt><trkpt lat="45.70749349473209" lon="9.409123757965244"><ele>301.0</ele><time>2026-05-03T17:03:16.999Z</time></trkpt><trkpt lat="45.70765763365219" lon="9.40898932293994"><ele>301.0</ele><time>2026-05-03T17:03:17.999Z</time></trkpt><trkpt lat="45.70782062006299" lon="9.408856425591873"><ele>302.3333333333333</ele><time>2026-05-03T17:03:18.999Z</time></trkpt><trkpt lat="45.70798111060729" lon="9.408724043156585"><ele>303.6666666666667</ele><time>2026-05-03T17:03:19.999Z</time></trkpt><trkpt lat="45.70814435226361" lon="9.408588971076743"><ele>305.0</ele><time>2026-05-03T17:03:20.999Z</time></trkpt><trkpt lat="45.70830664025964" lon="9.408460582716318"><ele>305.0</ele><time>2026-05-03T17:03:21.999Z</time></trkpt><trkpt lat="45.70846339071668" lon="9.408334067701484"><ele>305.0</ele><time>2026-05-03T17:03:22.999Z</time></trkpt><trkpt lat="45.70861664314162" lon="9.408207703689659"><ele>305.0</ele><time>2026-05-03T17:03:23.999Z</time></trkpt><trkpt lat="45.70876829450783" lon="9.408083243245814"><ele>305.6666666666667</ele><time>2026-05-03T17:03:24.999Z</time></trkpt><trkpt lat="45.708916882294346" lon="9.407963723498538"><ele>306.3333333333333</ele><time>2026-05-03T17:03:25.999Z</time></trkpt><trkpt lat="45.709062637202386" lon="9.407847441070142"><ele>307.0</ele><time>2026-05-03T17:03:26.999Z</time></trkpt><trkpt lat="45.70920485263263" lon="9.407734416115007"><ele>307.0</ele><time>2026-05-03T17:03:27.999Z</time></trkpt><trkpt lat="45.709342823432316" lon="9.407629231333102"><ele>307.0</ele><time>2026-05-03T17:03:28.999Z</time></trkpt><trkpt lat="45.70947714812517" lon="9.407524162323783"><ele>307.0</ele><time>2026-05-03T17:03:29.999Z</time></trkpt><trkpt lat="45.70960364389574" lon="9.407422211503052"><ele>307.75</ele><time>2026-05-03T17:03:30.999Z</time></trkpt><trkpt lat="45.70972304593495" lon="9.407325355897324"><ele>308.5</ele><time>2026-05-03T17:03:31.999Z</time></trkpt><trkpt lat="45.70983762049925" lon="9.407231734101092"><ele>309.25</ele><time>2026-05-03T17:03:32.999Z</time></trkpt><trkpt lat="45.70994372968105" lon="9.407144865841625"><ele>310.0</ele><time>2026-05-03T17:03:33.999Z</time></trkpt><trkpt lat="45.710037066057666" lon="9.407067571647962"><ele>310.2</ele><time>2026-05-03T17:03:34.999Z</time></trkpt><trkpt lat="45.710125128356296" lon="9.406995656256983"><ele>310.4</ele><time>2026-05-03T17:03:35.999Z</time></trkpt><trkpt lat="45.71021187263333" lon="9.406927454404347"><ele>310.6</ele><time>2026-05-03T17:03:36.999Z</time></trkpt><trkpt lat="45.71030271372831" lon="9.40685079733527"><ele>310.8</ele><time>2026-05-03T17:03:37.999Z</time></trkpt><trkpt lat="45.71040059288254" lon="9.406776950791016"><ele>311.0</ele><time>2026-05-03T17:03:38.999Z</time></trkpt><trkpt lat="45.7104931085216" lon="9.406705065585184"><ele>310.6</ele><time>2026-05-03T17:03:39.999Z</time></trkpt><trkpt lat="45.71057575091491" lon="9.406636495765847"><ele>310.20000000000005</ele><time>2026-05-03T17:03:40.999Z</time></trkpt><trkpt lat="45.710656359238776" lon="9.406582111447234"><ele>309.79999999999995</ele><time>2026-05-03T17:03:41.999Z</time></trkpt><trkpt lat="45.71074241111774" lon="9.406535525017318"><ele>309.4</ele><time>2026-05-03T17:03:42.999Z</time></trkpt><trkpt lat="45.71083367777165" lon="9.406497620856419"><ele>309.0</ele><time>2026-05-03T17:03:43.999Z</time></trkpt><trkpt lat="45.710928724615734" lon="9.406479325008087"><ele>309.0</ele><time>2026-05-03T17:03:44.999Z</time></trkpt><trkpt lat="45.711020844008246" lon="9.406480098532432"><ele>309.0</ele><time>2026-05-03T17:03:45.999Z</time></trkpt><trkpt lat="45.71110404731622" lon="9.406492070902651"><ele>309.0</ele><time>2026-05-03T17:03:46.999Z</time></trkpt><trkpt lat="45.711186808910924" lon="9.40649288703631"><ele>309.0</ele><time>2026-05-03T17:03:47.999Z</time></trkpt><trkpt lat="45.71127914892534" lon="9.406454443369341"><ele>309.0</ele><time>2026-05-03T17:03:48.999Z</time></trkpt><trkpt lat="45.71137279997745" lon="9.40637224077623"><ele>307.75</ele><time>2026-05-03T17:03:49.999Z</time></trkpt><trkpt lat="45.711474780329524" lon="9.406289999336469"><ele>306.5</ele><time>2026-05-03T17:03:50.999Z</time></trkpt><trkpt lat="45.71159118620985" lon="9.40623170768924"><ele>305.25</ele><time>2026-05-03T17:03:51.999Z</time></trkpt><trkpt lat="45.711717794621556" lon="9.406189735291338"><ele>304.0</ele><time>2026-05-03T17:03:52.999Z</time></trkpt><trkpt lat="45.71184418327237" lon="9.40616651727695"><ele>303.25</ele><time>2026-05-03T17:03:53.999Z</time></trkpt><trkpt lat="45.71197571163576" lon="9.406157555804601"><ele>302.5</ele><time>2026-05-03T17:03:54.999Z</time></trkpt><trkpt lat="45.712110150479205" lon="9.406168121793613"><ele>301.75</ele><time>2026-05-03T17:03:55.999Z</time></trkpt><trkpt lat="45.71224859077962" lon="9.40619924207793"><ele>301.0</ele><time>2026-05-03T17:03:56.999Z</time></trkpt><trkpt lat="45.71239074035039" lon="9.406237575700908"><ele>301.0</ele><time>2026-05-03T17:03:57.999Z</time></trkpt><trkpt lat="45.71252914225305" lon="9.406276873268327"><ele>301.0</ele><time>2026-05-03T17:03:59Z</time></trkpt><trkpt lat="45.712663905045915" lon="9.40632569942463"><ele>301.0</ele><time>2026-05-03T17:04:00Z</time></trkpt><trkpt lat="45.71279288663552" lon="9.406386026973887"><ele>301.0</ele><time>2026-05-03T17:04:01Z</time></trkpt><trkpt lat="45.71292082714456" lon="9.406447146144078"><ele>301.5</ele><time>2026-05-03T17:04:02Z</time></trkpt><trkpt lat="45.71305036110588" lon="9.406509971894723"><ele>302.0</ele><time>2026-05-03T17:04:03Z</time></trkpt><trkpt lat="45.71317799617785" lon="9.406572285714828"><ele>302.5</ele><time>2026-05-03T17:04:04Z</time></trkpt><trkpt lat="45.71330604395823" lon="9.406635906633236"><ele>303.0</ele><time>2026-05-03T17:04:05Z</time></trkpt><trkpt lat="45.71343631272932" lon="9.406700829453321"><ele>302.0</ele><time>2026-05-03T17:04:06Z</time></trkpt><trkpt lat="45.71357409365716" lon="9.40677066606347"><ele>301.0</ele><time>2026-05-03T17:04:07Z</time></trkpt><trkpt lat="45.713717229497846" lon="9.406842987514043"><ele>300.0</ele><time>2026-05-03T17:04:08Z</time></trkpt><trkpt lat="45.713871546369184" lon="9.4069146050137"><ele>300.0</ele><time>2026-05-03T17:04:09Z</time></trkpt><trkpt lat="45.71402718505834" lon="9.407014170479007"><ele>300.0</ele><time>2026-05-03T17:04:10Z</time></trkpt><trkpt lat="45.714187975803284" lon="9.407095609325035"><ele>300.0</ele><time>2026-05-03T17:04:11Z</time></trkpt><trkpt lat="45.71434405692916" lon="9.407174664730364"><ele>300.3333333333333</ele><time>2026-05-03T17:04:12Z</time></trkpt><trkpt lat="45.714498640911266" lon="9.407252959871872"><ele>300.66666666666663</ele><time>2026-05-03T17:04:13Z</time></trkpt><trkpt lat="45.71470214231203" lon="9.4073560312661"><ele>301.0</ele><time>2026-05-03T17:04:14Z</time></trkpt><trkpt lat="45.714883029818346" lon="9.407447156363958"><ele>301.0</ele><time>2026-05-03T17:04:15Z</time></trkpt><trkpt lat="45.71506660068676" lon="9.407534132959347"><ele>301.0</ele><time>2026-05-03T17:04:16Z</time></trkpt><trkpt lat="45.71525777089639" lon="9.407593704036538"><ele>301.0</ele><time>2026-05-03T17:04:17Z</time></trkpt><trkpt lat="45.715445015128786" lon="9.40767256963859"><ele>300.66666666666663</ele><time>2026-05-03T17:04:18Z</time></trkpt><trkpt lat="45.71563179031182" lon="9.407752809182597"><ele>300.3333333333333</ele><time>2026-05-03T17:04:19Z</time></trkpt><trkpt lat="45.71581973599783" lon="9.40782034690904"><ele>300.0</ele><time>2026-05-03T17:04:20Z</time></trkpt><trkpt lat="45.71599960415204" lon="9.407885415762713"><ele>300.3333333333333</ele><time>2026-05-03T17:04:21Z</time></trkpt><trkpt lat="45.716167579372296" lon="9.407939570069843"><ele>300.66666666666663</ele><time>2026-05-03T17:04:22Z</time></trkpt><trkpt lat="45.7163192406148" lon="9.407991376250058"><ele>301.0</ele><time>2026-05-03T17:04:23Z</time></trkpt><trkpt lat="45.71646710253971" lon="9.408038269571776"><ele>301.0</ele><time>2026-05-03T17:04:24Z</time></trkpt><trkpt lat="45.716605861913635" lon="9.408086390082987"><ele>301.0</ele><time>2026-05-03T17:04:25Z</time></trkpt><trkpt lat="45.716736893327244" lon="9.408130448994472"><ele>301.0</ele><time>2026-05-03T17:04:26Z</time></trkpt><trkpt lat="45.716862552445725" lon="9.408177300637842"><ele>301.0</ele><time>2026-05-03T17:04:27Z</time></trkpt><trkpt lat="45.71697962724793" lon="9.408212687050947"><ele>300.3333333333333</ele><time>2026-05-03T17:04:28Z</time></trkpt><trkpt lat="45.717086123380625" lon="9.408258733530023"><ele>299.66666666666663</ele><time>2026-05-03T17:04:28.999Z</time></trkpt><trkpt lat="45.71718533061168" lon="9.408296998751265"><ele>299.0</ele><time>2026-05-03T17:04:29.999Z</time></trkpt><trkpt lat="45.717252609881776" lon="9.408330134089985"><ele>298.3333333333333</ele><time>2026-05-03T17:04:30.999Z</time></trkpt><trkpt lat="45.71732164125132" lon="9.408356788767763"><ele>297.6666666666667</ele><time>2026-05-03T17:04:32.999Z</time></trkpt><trkpt lat="45.71740435493735" lon="9.408414899876664"><ele>297.0</ele><time>2026-05-03T17:04:34.999Z</time></trkpt><trkpt lat="45.717467335116844" lon="9.408463844613912"><ele>297.0</ele><time>2026-05-03T17:04:35.999Z</time></trkpt><trkpt lat="45.71753275410749" lon="9.408532823937742"><ele>297.0</ele><time>2026-05-03T17:04:36.999Z</time></trkpt><trkpt lat="45.71760611541523" lon="9.408613158724847"><ele>297.0</ele><time>2026-05-03T17:04:37.999Z</time></trkpt><trkpt lat="45.717687291516015" lon="9.408697850233555"><ele>297.0</ele><time>2026-05-03T17:04:38.999Z</time></trkpt><trkpt lat="45.71776952559929" lon="9.408783724487135"><ele>297.0</ele><time>2026-05-03T17:04:39.999Z</time></trkpt><trkpt lat="45.71785945819004" lon="9.408877097657637"><ele>297.25</ele><time>2026-05-03T17:04:40.999Z</time></trkpt><trkpt lat="45.717950300146086" lon="9.40896848849717"><ele>297.5</ele><time>2026-05-03T17:04:41.999Z</time></trkpt><trkpt lat="45.718047752422095" lon="9.409072587602203"><ele>297.75</ele><time>2026-05-03T17:04:42.999Z</time></trkpt><trkpt lat="45.71815299593368" lon="9.409185183356307"><ele>298.0</ele><time>2026-05-03T17:04:43.999Z</time></trkpt><trkpt lat="45.71826016718993" lon="9.409294541439587"><ele>298.0</ele><time>2026-05-03T17:04:44.999Z</time></trkpt><trkpt lat="45.7183769640674" lon="9.409413295699967"><ele>298.0</ele><time>2026-05-03T17:04:45.999Z</time></trkpt><trkpt lat="45.71849353797562" lon="9.409528407460265"><ele>298.0</ele><time>2026-05-03T17:04:46.999Z</time></trkpt><trkpt lat="45.71861481138129" lon="9.409645492204723"><ele>298.0</ele><time>2026-05-03T17:04:47.999Z</time></trkpt><trkpt lat="45.71873513788007" lon="9.40976601171938"><ele>298.25</ele><time>2026-05-03T17:04:48.999Z</time></trkpt><trkpt lat="45.71885308735751" lon="9.409887340520179"><ele>298.5</ele><time>2026-05-03T17:04:49.999Z</time></trkpt><trkpt lat="45.71897219250084" lon="9.410008043223076"><ele>298.75</ele><time>2026-05-03T17:04:50.999Z</time></trkpt><trkpt lat="45.719088576048364" lon="9.41013580320826"><ele>299.0</ele><time>2026-05-03T17:04:51.999Z</time></trkpt><trkpt lat="45.719205228195214" lon="9.410264184201754"><ele>299.0</ele><time>2026-05-03T17:04:52.999Z</time></trkpt><trkpt lat="45.719325999181315" lon="9.41039152976973"><ele>299.0</ele><time>2026-05-03T17:04:53.999Z</time></trkpt><trkpt lat="45.719447394943366" lon="9.410515977236646"><ele>299.0</ele><time>2026-05-03T17:04:54.999Z</time></trkpt><trkpt lat="45.71957672769596" lon="9.41065521595781"><ele>298.0</ele><time>2026-05-03T17:04:55.999Z</time></trkpt><trkpt lat="45.71971893024134" lon="9.410807214835941"><ele>297.0</ele><time>2026-05-03T17:04:56.999Z</time></trkpt><trkpt lat="45.71986871628883" lon="9.410975162277339"><ele>296.0</ele><time>2026-05-03T17:04:57.999Z</time></trkpt><trkpt lat="45.72001801726166" lon="9.411133081330222"><ele>296.0</ele><time>2026-05-03T17:04:58.999Z</time></trkpt><trkpt lat="45.720164597724334" lon="9.411287979901102"><ele>296.0</ele><time>2026-05-03T17:04:59.999Z</time></trkpt><trkpt lat="45.72031014960659" lon="9.411438360539877"><ele>296.0</ele><time>2026-05-03T17:05:00.999Z</time></trkpt><trkpt lat="45.72045020459137" lon="9.411582321663841"><ele>296.0</ele><time>2026-05-03T17:05:01.999Z</time></trkpt><trkpt lat="45.72058144449284" lon="9.411725634119032"><ele>296.0</ele><time>2026-05-03T17:05:02.999Z</time></trkpt><trkpt lat="45.72070425661629" lon="9.411851095744181"><ele>296.0</ele><time>2026-05-03T17:05:03.999Z</time></trkpt><trkpt lat="45.72082146542392" lon="9.411975168902611"><ele>296.0</ele><time>2026-05-03T17:05:04.999Z</time></trkpt><trkpt lat="45.720928788414305" lon="9.412088387845467"><ele>296.0</ele><time>2026-05-03T17:05:05.999Z</time></trkpt><trkpt lat="45.721030841426085" lon="9.412196848460905"><ele>296.0</ele><time>2026-05-03T17:05:06.999Z</time></trkpt><trkpt lat="45.721126894903755" lon="9.412300379145204"><ele>296.0</ele><time>2026-05-03T17:05:07.999Z</time></trkpt><trkpt lat="45.7212167445813" lon="9.412399129903221"><ele>294.8</ele><time>2026-05-03T17:05:08.999Z</time></trkpt><trkpt lat="45.72130439996455" lon="9.412490427787866"><ele>293.6</ele><time>2026-05-03T17:05:09.999Z</time></trkpt><trkpt lat="45.72138884365973" lon="9.412572463533808"><ele>292.4</ele><time>2026-05-03T17:05:10.999Z</time></trkpt><trkpt lat="45.7214676658111" lon="9.412652761569664"><ele>291.2</ele><time>2026-05-03T17:05:11.999Z</time></trkpt><trkpt lat="45.72153641388412" lon="9.412736054589917"><ele>290.0</ele><time>2026-05-03T17:05:12.999Z</time></trkpt><trkpt lat="45.72159579268102" lon="9.412827424417548"><ele>290.0</ele><time>2026-05-03T17:05:13.999Z</time></trkpt><trkpt lat="45.72163711846779" lon="9.412933486304123"><ele>290.0</ele><time>2026-05-03T17:05:14.999Z</time></trkpt><trkpt lat="45.721664036059344" lon="9.413048045810767"><ele>290.0</ele><time>2026-05-03T17:05:15.999Z</time></trkpt><trkpt lat="45.721696855396" lon="9.413149605641777"><ele>290.0</ele><time>2026-05-03T17:05:16.999Z</time></trkpt><trkpt lat="45.721762171538295" lon="9.413219854221062"><ele>290.0</ele><time>2026-05-03T17:05:17.999Z</time></trkpt><trkpt lat="45.72185252752421" lon="9.413246921709723"><ele>290.0</ele><time>2026-05-03T17:05:18.999Z</time></trkpt><trkpt lat="45.72195167150122" lon="9.413248151752754"><ele>289.5</ele><time>2026-05-03T17:05:19.999Z</time></trkpt><trkpt lat="45.72205554552532" lon="9.41327800692783"><ele>289.0</ele><time>2026-05-03T17:05:20.999Z</time></trkpt><trkpt lat="45.72215555213207" lon="9.4133601534619"><ele>288.5</ele><time>2026-05-03T17:05:21.999Z</time></trkpt><trkpt lat="45.7222507151097" lon="9.413468241415952"><ele>288.0</ele><time>2026-05-03T17:05:22.999Z</time></trkpt><trkpt lat="45.722346189784545" lon="9.413579255311019"><ele>288.0</ele><time>2026-05-03T17:05:23.999Z</time></trkpt><trkpt lat="45.72244109114835" lon="9.413684608005246"><ele>288.0</ele><time>2026-05-03T17:05:24.999Z</time></trkpt><trkpt lat="45.72253454303209" lon="9.413786550248124"><ele>288.0</ele><time>2026-05-03T17:05:25.999Z</time></trkpt><trkpt lat="45.72263092182811" lon="9.41389021334963"><ele>288.0</ele><time>2026-05-03T17:05:26.999Z</time></trkpt><trkpt lat="45.72273139339948" lon="9.413998055083713"><ele>287.5</ele><time>2026-05-03T17:05:27.999Z</time></trkpt><trkpt lat="45.722835767736726" lon="9.414106418799257"><ele>287.0</ele><time>2026-05-03T17:05:28.999Z</time></trkpt><trkpt lat="45.72294156346013" lon="9.414218032325223"><ele>286.5</ele><time>2026-05-03T17:05:29.999Z</time></trkpt><trkpt lat="45.723051457463505" lon="9.41432968109355"><ele>286.0</ele><time>2026-05-03T17:05:30.999Z</time></trkpt><trkpt lat="45.723163174317065" lon="9.414441658187028"><ele>286.0</ele><time>2026-05-03T17:05:31.999Z</time></trkpt><trkpt lat="45.723274607794856" lon="9.414554677862263"><ele>286.0</ele><time>2026-05-03T17:05:32.999Z</time></trkpt><trkpt lat="45.72338514708306" lon="9.414672380978434"><ele>286.0</ele><time>2026-05-03T17:05:33.999Z</time></trkpt><trkpt lat="45.723494842082324" lon="9.414788069489394"><ele>286.0</ele><time>2026-05-03T17:05:34.999Z</time></trkpt><trkpt lat="45.72360368329266" lon="9.41490525025451"><ele>285.5</ele><time>2026-05-03T17:05:35.999Z</time></trkpt><trkpt lat="45.72371298349655" lon="9.41502051680158"><ele>285.0</ele><time>2026-05-03T17:05:36.999Z</time></trkpt><trkpt lat="45.723822524156006" lon="9.415133167654277"><ele>284.5</ele><time>2026-05-03T17:05:37.999Z</time></trkpt><trkpt lat="45.72392419014516" lon="9.41524651816498"><ele>284.0</ele><time>2026-05-03T17:05:38.999Z</time></trkpt><trkpt lat="45.724019494545416" lon="9.41535205581176"><ele>284.0</ele><time>2026-05-03T17:05:39.999Z</time></trkpt><trkpt lat="45.72411074954109" lon="9.415449390951137"><ele>284.0</ele><time>2026-05-03T17:05:40.999Z</time></trkpt><trkpt lat="45.72419820227539" lon="9.415540431845676"><ele>284.0</ele><time>2026-05-03T17:05:41.999Z</time></trkpt><trkpt lat="45.72427943198018" lon="9.415620773412753"><ele>284.0</ele><time>2026-05-03T17:05:42.999Z</time></trkpt><trkpt lat="45.724356395083234" lon="9.415690273854569"><ele>284.0</ele><time>2026-05-03T17:05:43.999Z</time></trkpt><trkpt lat="45.72442943006409" lon="9.41575053398106"><ele>284.0</ele><time>2026-05-03T17:05:44.999Z</time></trkpt><trkpt lat="45.72450035974781" lon="9.415803607373503"><ele>284.0</ele><time>2026-05-03T17:05:45.999Z</time></trkpt><trkpt lat="45.72456119985707" lon="9.41585279280277"><ele>284.0</ele><time>2026-05-03T17:05:46.999Z</time></trkpt><trkpt lat="45.72467374629317" lon="9.415936888363914"><ele>284.0</ele><time>2026-05-03T17:05:48.999Z</time></trkpt><trkpt lat="45.7247345114835" lon="9.415979378764927"><ele>284.0</ele><time>2026-05-03T17:05:49.999Z</time></trkpt><trkpt lat="45.72480804892544" lon="9.416012429285566"><ele>284.0</ele><time>2026-05-03T17:05:50.999Z</time></trkpt><trkpt lat="45.72489404892338" lon="9.416018114684814"><ele>284.0</ele><time>2026-05-03T17:05:51.999Z</time></trkpt><trkpt lat="45.724977826822204" lon="9.416000657770722"><ele>284.0</ele><time>2026-05-03T17:05:52.999Z</time></trkpt><trkpt lat="45.72506177867679" lon="9.415943677866208"><ele>284.0</ele><time>2026-05-03T17:05:53.999Z</time></trkpt><trkpt lat="45.72515070266662" lon="9.41587584627707"><ele>284.0</ele><time>2026-05-03T17:05:54.999Z</time></trkpt><trkpt lat="45.72524828563467" lon="9.415814098202869"><ele>284.0</ele><time>2026-05-03T17:05:55.999Z</time></trkpt><trkpt lat="45.72535049864727" lon="9.415765322287147"><ele>283.2</ele><time>2026-05-03T17:05:56.999Z</time></trkpt><trkpt lat="45.72545519953973" lon="9.415724629219602"><ele>282.4</ele><time>2026-05-03T17:05:57.999Z</time></trkpt><trkpt lat="45.72555972628796" lon="9.415684508556348"><ele>281.6</ele><time>2026-05-03T17:05:58.999Z</time></trkpt><trkpt lat="45.72566399338204" lon="9.415645598930261"><ele>280.8</ele><time>2026-05-03T17:05:59.999Z</time></trkpt><trkpt lat="45.725769796407356" lon="9.415610287988715"><ele>280.0</ele><time>2026-05-03T17:06:00.999Z</time></trkpt><trkpt lat="45.72587900504191" lon="9.415577304703218"><ele>280.0</ele><time>2026-05-03T17:06:01.999Z</time></trkpt><trkpt lat="45.725994617079685" lon="9.415551472448362"><ele>280.0</ele><time>2026-05-03T17:06:02.999Z</time></trkpt><trkpt lat="45.72611923676795" lon="9.415536665788478"><ele>280.0</ele><time>2026-05-03T17:06:04Z</time></trkpt><trkpt lat="45.726248079566" lon="9.415527309794832"><ele>280.0</ele><time>2026-05-03T17:06:05Z</time></trkpt><trkpt lat="45.726382636366495" lon="9.41552083619662"><ele>280.25</ele><time>2026-05-03T17:06:06Z</time></trkpt><trkpt lat="45.72652017587151" lon="9.415518650954816"><ele>280.5</ele><time>2026-05-03T17:06:07Z</time></trkpt><trkpt lat="45.72665784021945" lon="9.415523667157466"><ele>280.75</ele><time>2026-05-03T17:06:08Z</time></trkpt><trkpt lat="45.72679663773921" lon="9.415538457660224"><ele>281.0</ele><time>2026-05-03T17:06:09Z</time></trkpt><trkpt lat="45.72693401600042" lon="9.41556107603076"><ele>279.0</ele><time>2026-05-03T17:06:10Z</time></trkpt><trkpt lat="45.727072265349264" lon="9.415591454522382"><ele>277.0</ele><time>2026-05-03T17:06:11Z</time></trkpt><trkpt lat="45.72721176680191" lon="9.415628862008095"><ele>275.0</ele><time>2026-05-03T17:06:12Z</time></trkpt><trkpt lat="45.72734847995179" lon="9.415673328843809"><ele>273.0</ele><time>2026-05-03T17:06:13Z</time></trkpt><trkpt lat="45.72748790709118" lon="9.415727497880036"><ele>273.0</ele><time>2026-05-03T17:06:14Z</time></trkpt><trkpt lat="45.72762991103021" lon="9.41579501478812"><ele>273.0</ele><time>2026-05-03T17:06:15Z</time></trkpt><trkpt lat="45.72777180696062" lon="9.415873025919721"><ele>273.0</ele><time>2026-05-03T17:06:16Z</time></trkpt><trkpt lat="45.727915708528975" lon="9.415959614835517"><ele>271.0</ele><time>2026-05-03T17:06:17Z</time></trkpt><trkpt lat="45.72805945808868" lon="9.41605582636678"><ele>269.0</ele><time>2026-05-03T17:06:18Z</time></trkpt><trkpt lat="45.72819927600415" lon="9.4161665046803"><ele>267.0</ele><time>2026-05-03T17:06:19Z</time></trkpt><trkpt lat="45.72833389730339" lon="9.416291432763812"><ele>265.6666666666667</ele><time>2026-05-03T17:06:20Z</time></trkpt><trkpt lat="45.728465634284916" lon="9.416426146904112"><ele>264.33333333333337</ele><time>2026-05-03T17:06:21Z</time></trkpt><trkpt lat="45.728592684121715" lon="9.416569917010548"><ele>263.0</ele><time>2026-05-03T17:06:22Z</time></trkpt><trkpt lat="45.72871199933415" lon="9.416726185236753"><ele>263.0</ele><time>2026-05-03T17:06:23Z</time></trkpt><trkpt lat="45.72881611347245" lon="9.416896966234468"><ele>263.0</ele><time>2026-05-03T17:06:24Z</time></trkpt><trkpt lat="45.72891896495036" lon="9.417067986991414"><ele>263.0</ele><time>2026-05-03T17:06:25Z</time></trkpt><trkpt lat="45.729021811347444" lon="9.417240215161264"><ele>264.0</ele><time>2026-05-03T17:06:26Z</time></trkpt><trkpt lat="45.72912690556739" lon="9.417403233922458"><ele>265.0</ele><time>2026-05-03T17:06:27Z</time></trkpt><trkpt lat="45.72923839621621" lon="9.417559916701142"><ele>266.0</ele><time>2026-05-03T17:06:28Z</time></trkpt><trkpt lat="45.729358087439536" lon="9.417707469857458"><ele>265.0</ele><time>2026-05-03T17:06:29Z</time></trkpt><trkpt lat="45.729481925631774" lon="9.4178416532374"><ele>264.0</ele><time>2026-05-03T17:06:29.999Z</time></trkpt><trkpt lat="45.72960888568334" lon="9.417963145289736"><ele>263.0</ele><time>2026-05-03T17:06:30.999Z</time></trkpt><trkpt lat="45.7297411426567" lon="9.418073587712419"><ele>263.0</ele><time>2026-05-03T17:06:31.999Z</time></trkpt><trkpt lat="45.72987712619861" lon="9.418186029439543"><ele>263.0</ele><time>2026-05-03T17:06:32.999Z</time></trkpt><trkpt lat="45.7300091423944" lon="9.418301419897526"><ele>263.0</ele><time>2026-05-03T17:06:33.999Z</time></trkpt><trkpt lat="45.73014073056458" lon="9.418417529740223"><ele>261.0</ele><time>2026-05-03T17:06:34.999Z</time></trkpt><trkpt lat="45.73026853129914" lon="9.418540416637171"><ele>259.0</ele><time>2026-05-03T17:06:35.999Z</time></trkpt><trkpt lat="45.730394299665846" lon="9.418667765638206"><ele>257.0</ele><time>2026-05-03T17:06:36.999Z</time></trkpt><trkpt lat="45.73051794588043" lon="9.418796331205947"><ele>258.33333333333337</ele><time>2026-05-03T17:06:37.999Z</time></trkpt><trkpt lat="45.73064315902298" lon="9.41892868671402"><ele>259.6666666666667</ele><time>2026-05-03T17:06:38.999Z</time></trkpt><trkpt lat="45.7307676069408" lon="9.419053830243687"><ele>261.0</ele><time>2026-05-03T17:06:39.999Z</time></trkpt><trkpt lat="45.730895561909556" lon="9.419179982519317"><ele>261.0</ele><time>2026-05-03T17:06:40.999Z</time></trkpt><trkpt lat="45.73102043118386" lon="9.419306541004895"><ele>261.0</ele><time>2026-05-03T17:06:41.999Z</time></trkpt><trkpt lat="45.73114640308583" lon="9.419427661224375"><ele>261.0</ele><time>2026-05-03T17:06:42.999Z</time></trkpt><trkpt lat="45.73126973540943" lon="9.41955696330594"><ele>260.5</ele><time>2026-05-03T17:06:43.999Z</time></trkpt><trkpt lat="45.73139052264922" lon="9.419686337376822"><ele>260.0</ele><time>2026-05-03T17:06:44.999Z</time></trkpt><trkpt lat="45.73151763464971" lon="9.419800882013"><ele>259.5</ele><time>2026-05-03T17:06:45.999Z</time></trkpt><trkpt lat="45.73165076584164" lon="9.419892502399286"><ele>259.0</ele><time>2026-05-03T17:06:46.999Z</time></trkpt><trkpt lat="45.73178673143548" lon="9.419943408178948"><ele>257.75</ele><time>2026-05-03T17:06:47.999Z</time></trkpt><trkpt lat="45.73192168834066" lon="9.41996146266707"><ele>256.5</ele><time>2026-05-03T17:06:48.999Z</time></trkpt><trkpt lat="45.73205931537856" lon="9.419946745270174"><ele>255.25</ele><time>2026-05-03T17:06:49.999Z</time></trkpt><trkpt lat="45.7321963072921" lon="9.419890756945177"><ele>254.0</ele><time>2026-05-03T17:06:50.999Z</time></trkpt><trkpt lat="45.73232453475842" lon="9.419779621051044"><ele>253.66666666666669</ele><time>2026-05-03T17:06:51.999Z</time></trkpt><trkpt lat="45.732432722532664" lon="9.419621329825114"><ele>253.33333333333331</ele><time>2026-05-03T17:06:52.999Z</time></trkpt><trkpt lat="45.73252279857606" lon="9.419433271777669"><ele>253.0</ele><time>2026-05-03T17:06:53.999Z</time></trkpt><trkpt lat="45.732588159176615" lon="9.419217590988925"><ele>253.0</ele><time>2026-05-03T17:06:54.999Z</time></trkpt><trkpt lat="45.73263573698874" lon="9.418985052444633"><ele>253.0</ele><time>2026-05-03T17:06:55.999Z</time></trkpt><trkpt lat="45.73267321111811" lon="9.418746764921009"><ele>253.0</ele><time>2026-05-03T17:06:56.999Z</time></trkpt><trkpt lat="45.73270440274003" lon="9.418517434910411"><ele>253.0</ele><time>2026-05-03T17:06:57.999Z</time></trkpt><trkpt lat="45.732725189778265" lon="9.418296997274657"><ele>253.0</ele><time>2026-05-03T17:06:58.999Z</time></trkpt><trkpt lat="45.73274040869322" lon="9.418083004894836"><ele>253.0</ele><time>2026-05-03T17:06:59.999Z</time></trkpt><trkpt lat="45.73277232465238" lon="9.417868287010794"><ele>250.0</ele><time>2026-05-03T17:07:00.999Z</time></trkpt><trkpt lat="45.73283912638089" lon="9.417666658880016"><ele>247.0</ele><time>2026-05-03T17:07:01.999Z</time></trkpt><trkpt lat="45.73293130824126" lon="9.417481488345679"><ele>244.0</ele><time>2026-05-03T17:07:02.999Z</time></trkpt><trkpt lat="45.733046222051776" lon="9.417331063414668"><ele>244.0</ele><time>2026-05-03T17:07:03.999Z</time></trkpt><trkpt lat="45.73318099133157" lon="9.417216977895844"><ele>244.0</ele><time>2026-05-03T17:07:04.999Z</time></trkpt><trkpt lat="45.73332592710973" lon="9.417139443213504"><ele>244.0</ele><time>2026-05-03T17:07:05.999Z</time></trkpt><trkpt lat="45.73348013838421" lon="9.417095026003883"><ele>240.33333333333331</ele><time>2026-05-03T17:07:06.999Z</time></trkpt><trkpt lat="45.73364038605407" lon="9.417090637784767"><ele>236.66666666666669</ele><time>2026-05-03T17:07:07.999Z</time></trkpt><trkpt lat="45.733799868031575" lon="9.417133168135154"><ele>233.0</ele><time>2026-05-03T17:07:08.999Z</time></trkpt><trkpt lat="45.73394504776402" lon="9.417199111674785"><ele>233.0</ele><time>2026-05-03T17:07:09.999Z</time></trkpt><trkpt lat="45.73407459695666" lon="9.417303598950802"><ele>233.0</ele><time>2026-05-03T17:07:10.999Z</time></trkpt><trkpt lat="45.73418779873319" lon="9.417425924312948"><ele>233.0</ele><time>2026-05-03T17:07:11.999Z</time></trkpt><trkpt lat="45.73428948808481" lon="9.417547545209903"><ele>233.0</ele><time>2026-05-03T17:07:12.999Z</time></trkpt><trkpt lat="45.73438064372033" lon="9.417654621438915"><ele>231.50000000000003</ele><time>2026-05-03T17:07:13.999Z</time></trkpt><trkpt lat="45.734458931921274" lon="9.417750976851373"><ele>230.0</ele><time>2026-05-03T17:07:14.999Z</time></trkpt><trkpt lat="45.73452180895174" lon="9.41784318776436"><ele>228.5</ele><time>2026-05-03T17:07:15.999Z</time></trkpt><trkpt lat="45.73456840325417" lon="9.417947982768727"><ele>227.0</ele><time>2026-05-03T17:07:16.999Z</time></trkpt><trkpt lat="45.73459640527297" lon="9.41805254903452"><ele>225.50000000000003</ele><time>2026-05-03T17:07:17.999Z</time></trkpt><trkpt lat="45.734613179094225" lon="9.418153160970782"><ele>224.0</ele><time>2026-05-03T17:07:18.999Z</time></trkpt><trkpt lat="45.73462293666461" lon="9.41824599317219"><ele>224.0</ele><time>2026-05-03T17:07:19.999Z</time></trkpt><trkpt lat="45.73468038322067" lon="9.418415363943444"><ele>223.99999999999997</ele><time>2026-05-03T17:07:21.999Z</time></trkpt><trkpt lat="45.734752191109294" lon="9.4184631204679"><ele>223.99999999999997</ele><time>2026-05-03T17:07:22.999Z</time></trkpt><trkpt lat="45.73483713148284" lon="9.418468164490143"><ele>224.0</ele><time>2026-05-03T17:07:23.999Z</time></trkpt><trkpt lat="45.7349237646185" lon="9.418446886897454"><ele>224.0</ele><time>2026-05-03T17:07:24.999Z</time></trkpt><trkpt lat="45.73501918208782" lon="9.418460740136458"><ele>224.0</ele><time>2026-05-03T17:07:25.999Z</time></trkpt><trkpt lat="45.73511034304329" lon="9.418511372352741"><ele>224.0</ele><time>2026-05-03T17:07:26.999Z</time></trkpt><trkpt lat="45.73520672105789" lon="9.418584312638172"><ele>224.0</ele><time>2026-05-03T17:07:27.999Z</time></trkpt><trkpt lat="45.73530844955686" lon="9.418672056985812"><ele>224.0</ele><time>2026-05-03T17:07:28.999Z</time></trkpt><trkpt lat="45.735415137923454" lon="9.418767199857331"><ele>223.0</ele><time>2026-05-03T17:07:29.999Z</time></trkpt><trkpt lat="45.73552940402934" lon="9.418866368578554"><ele>222.0</ele><time>2026-05-03T17:07:30.999Z</time></trkpt><trkpt lat="45.73564817814435" lon="9.418962434882836"><ele>221.0</ele><time>2026-05-03T17:07:31.999Z</time></trkpt><trkpt lat="45.73577511316895" lon="9.419062806736274"><ele>220.0</ele><time>2026-05-03T17:07:32.999Z</time></trkpt><trkpt lat="45.73590692874545" lon="9.419169029263971"><ele>220.0</ele><time>2026-05-03T17:07:33.999Z</time></trkpt><trkpt lat="45.73604518737393" lon="9.41927745794458"><ele>220.0</ele><time>2026-05-03T17:07:34.999Z</time></trkpt><trkpt lat="45.73618726566645" lon="9.419387389580017"><ele>220.0</ele><time>2026-05-03T17:07:35.999Z</time></trkpt><trkpt lat="45.73633185582462" lon="9.419500060487735"><ele>220.0</ele><time>2026-05-03T17:07:36.999Z</time></trkpt><trkpt lat="45.73647973729196" lon="9.419619649792615"><ele>220.0</ele><time>2026-05-03T17:07:37.999Z</time></trkpt><trkpt lat="45.736628256325005" lon="9.419736633281813"><ele>220.0</ele><time>2026-05-03T17:07:38.999Z</time></trkpt><trkpt lat="45.73677700133304" lon="9.419850926069468"><ele>220.33333333333331</ele><time>2026-05-03T17:07:39.999Z</time></trkpt><trkpt lat="45.73693077140959" lon="9.419965592525788"><ele>220.66666666666669</ele><time>2026-05-03T17:07:40.999Z</time></trkpt><trkpt lat="45.737082982413824" lon="9.42007909997408"><ele>221.0</ele><time>2026-05-03T17:07:41.999Z</time></trkpt><trkpt lat="45.73723530173085" lon="9.420195842184327"><ele>221.0</ele><time>2026-05-03T17:07:42.999Z</time></trkpt><trkpt lat="45.737384847081024" lon="9.42031119039948"><ele>221.0</ele><time>2026-05-03T17:07:43.999Z</time></trkpt><trkpt lat="45.73753224687726" lon="9.420424230084421"><ele>221.0</ele><time>2026-05-03T17:07:44.999Z</time></trkpt><trkpt lat="45.73767499183799" lon="9.420535998929457"><ele>220.33333333333334</ele><time>2026-05-03T17:07:45.999Z</time></trkpt><trkpt lat="45.73781389632255" lon="9.420645815827186"><ele>219.66666666666669</ele><time>2026-05-03T17:07:46.999Z</time></trkpt><trkpt lat="45.73794933376912" lon="9.420756401014431"><ele>219.0</ele><time>2026-05-03T17:07:47.999Z</time></trkpt><trkpt lat="45.73808463703808" lon="9.420864394252757"><ele>219.0</ele><time>2026-05-03T17:07:48.999Z</time></trkpt><trkpt lat="45.73822065935023" lon="9.420970562578534"><ele>219.0</ele><time>2026-05-03T17:07:49.999Z</time></trkpt><trkpt lat="45.73835787786999" lon="9.421075234010031"><ele>219.0</ele><time>2026-05-03T17:07:51Z</time></trkpt><trkpt lat="45.738493984263705" lon="9.421180010353073"><ele>219.33333333333331</ele><time>2026-05-03T17:07:52Z</time></trkpt><trkpt lat="45.738630982179345" lon="9.42128623028182"><ele>219.66666666666666</ele><time>2026-05-03T17:07:53Z</time></trkpt><trkpt lat="45.738769852907666" lon="9.421395296084437"><ele>220.0</ele><time>2026-05-03T17:07:54Z</time></trkpt><trkpt lat="45.73891041226091" lon="9.421504275781533"><ele>219.0</ele><time>2026-05-03T17:07:55Z</time></trkpt><trkpt lat="45.73905311429988" lon="9.421611764015566"><ele>218.0</ele><time>2026-05-03T17:07:56Z</time></trkpt><trkpt lat="45.73919628038416" lon="9.421722230916819"><ele>217.0</ele><time>2026-05-03T17:07:57Z</time></trkpt><trkpt lat="45.739338306833794" lon="9.421835353893862"><ele>217.66666666666666</ele><time>2026-05-03T17:07:58Z</time></trkpt><trkpt lat="45.73948292849539" lon="9.421948706935158"><ele>218.33333333333331</ele><time>2026-05-03T17:07:59Z</time></trkpt><trkpt lat="45.73962934624151" lon="9.422064169856203"><ele>219.0</ele><time>2026-05-03T17:08:00Z</time></trkpt><trkpt lat="45.73977798218011" lon="9.422180251192154"><ele>219.0</ele><time>2026-05-03T17:08:01Z</time></trkpt><trkpt lat="45.739926883969055" lon="9.42229547951211"><ele>219.0</ele><time>2026-05-03T17:08:02Z</time></trkpt><trkpt lat="45.74007852685916" lon="9.422412006961379"><ele>219.0</ele><time>2026-05-03T17:08:03Z</time></trkpt><trkpt lat="45.740231014165886" lon="9.42252794198695"><ele>220.0</ele><time>2026-05-03T17:08:04Z</time></trkpt><trkpt lat="45.74038362051899" lon="9.422648675855061"><ele>221.0</ele><time>2026-05-03T17:08:05Z</time></trkpt><trkpt lat="45.74053345141206" lon="9.422768061772288"><ele>222.0</ele><time>2026-05-03T17:08:06Z</time></trkpt><trkpt lat="45.740684019233996" lon="9.422884737418913"><ele>221.0</ele><time>2026-05-03T17:08:07Z</time></trkpt><trkpt lat="45.740832473447654" lon="9.423004989653883"><ele>220.0</ele><time>2026-05-03T17:08:08Z</time></trkpt><trkpt lat="45.74098227093248" lon="9.423121019019321"><ele>219.0</ele><time>2026-05-03T17:08:08.999Z</time></trkpt><trkpt lat="45.74112969941561" lon="9.423236033120894"><ele>219.0</ele><time>2026-05-03T17:08:10.001Z</time></trkpt><trkpt lat="45.74127638806453" lon="9.423347944386055"><ele>219.0</ele><time>2026-05-03T17:08:11.001Z</time></trkpt><trkpt lat="45.74142100670168" lon="9.42345857664304"><ele>219.0</ele><time>2026-05-03T17:08:12.001Z</time></trkpt><trkpt lat="45.741570139117286" lon="9.423564894122078"><ele>219.0</ele><time>2026-05-03T17:08:13.001Z</time></trkpt><trkpt lat="45.74172392300297" lon="9.423668912882082"><ele>219.0</ele><time>2026-05-03T17:08:14.001Z</time></trkpt><trkpt lat="45.741882580791426" lon="9.42377132903219"><ele>219.0</ele><time>2026-05-03T17:08:15.001Z</time></trkpt><trkpt lat="45.742049391905965" lon="9.423876732809408"><ele>218.0</ele><time>2026-05-03T17:08:16.001Z</time></trkpt><trkpt lat="45.74222841307163" lon="9.42398363054745"><ele>217.0</ele><time>2026-05-03T17:08:17.001Z</time></trkpt><trkpt lat="45.74242141789171" lon="9.42409366517506"><ele>216.0</ele><time>2026-05-03T17:08:18.001Z</time></trkpt><trkpt lat="45.74263032880238" lon="9.42420291144001"><ele>220.5</ele><time>2026-05-03T17:08:19.001Z</time></trkpt><trkpt lat="45.742845003072105" lon="9.424314702063207"><ele>225.0</ele><time>2026-05-03T17:08:20.001Z</time></trkpt><trkpt lat="45.743056979894725" lon="9.424456331652827"><ele>225.0</ele><time>2026-05-03T17:08:21.001Z</time></trkpt><trkpt lat="45.743282561766776" lon="9.42458431339681"><ele>225.0</ele><time>2026-05-03T17:08:22.001Z</time></trkpt><trkpt lat="45.74351418453787" lon="9.424694845721634"><ele>221.5</ele><time>2026-05-03T17:08:23.001Z</time></trkpt><trkpt lat="45.74374421804538" lon="9.424835740964584"><ele>218.0</ele><time>2026-05-03T17:08:24.001Z</time></trkpt><trkpt lat="45.743972190786906" lon="9.424970237426308"><ele>218.0</ele><time>2026-05-03T17:08:25.001Z</time></trkpt><trkpt lat="45.744201982739085" lon="9.425101205938713"><ele>218.0</ele><time>2026-05-03T17:08:26.001Z</time></trkpt><trkpt lat="45.744431999364906" lon="9.425230881291208"><ele>220.0</ele><time>2026-05-03T17:08:27.001Z</time></trkpt><trkpt lat="45.744657062115785" lon="9.425363661970835"><ele>222.0</ele><time>2026-05-03T17:08:28.001Z</time></trkpt><trkpt lat="45.74487692785802" lon="9.425499715830602"><ele>219.0</ele><time>2026-05-03T17:08:29.001Z</time></trkpt><trkpt lat="45.745093826637905" lon="9.425637619209471"><ele>216.0</ele><time>2026-05-03T17:08:30Z</time></trkpt><trkpt lat="45.74530636641066" lon="9.425771089991322"><ele>216.0</ele><time>2026-05-03T17:08:31Z</time></trkpt><trkpt lat="45.74551494516993" lon="9.42589548630339"><ele>216.0</ele><time>2026-05-03T17:08:32Z</time></trkpt><trkpt lat="45.745724152131224" lon="9.42600622567042"><ele>216.0</ele><time>2026-05-03T17:08:33Z</time></trkpt><trkpt lat="45.745934356030986" lon="9.426082437066993"><ele>216.0</ele><time>2026-05-03T17:08:34Z</time></trkpt><trkpt lat="45.746154657066" lon="9.426127452466522"><ele>216.0</ele><time>2026-05-03T17:08:35Z</time></trkpt><trkpt lat="45.74637251545954" lon="9.426144416343103"><ele>216.0</ele><time>2026-05-03T17:08:36Z</time></trkpt><trkpt lat="45.74658996963847" lon="9.42614378212457"><ele>216.0</ele><time>2026-05-03T17:08:37Z</time></trkpt><trkpt lat="45.74680563412115" lon="9.426143465509758"><ele>216.0</ele><time>2026-05-03T17:08:38Z</time></trkpt><trkpt lat="45.74702091981148" lon="9.426155472280175"><ele>216.0</ele><time>2026-05-03T17:08:39Z</time></trkpt><trkpt lat="45.74723343548261" lon="9.426175215148158"><ele>215.66666666666669</ele><time>2026-05-03T17:08:40Z</time></trkpt><trkpt lat="45.747447062473405" lon="9.426198639157272"><ele>215.33333333333334</ele><time>2026-05-03T17:08:41Z</time></trkpt><trkpt lat="45.74766211736905" lon="9.4262239864645"><ele>215.0</ele><time>2026-05-03T17:08:42Z</time></trkpt><trkpt lat="45.74787687285039" lon="9.426245557385155"><ele>215.0</ele><time>2026-05-03T17:08:43Z</time></trkpt><trkpt lat="45.748095940568675" lon="9.426266054942314"><ele>215.0</ele><time>2026-05-03T17:08:44Z</time></trkpt><trkpt lat="45.74831336480702" lon="9.426287532793234"><ele>215.0</ele><time>2026-05-03T17:08:45Z</time></trkpt><trkpt lat="45.74852921966273" lon="9.426313301106862"><ele>213.33333333333334</ele><time>2026-05-03T17:08:46Z</time></trkpt><trkpt lat="45.74873785120748" lon="9.426337328546062"><ele>211.66666666666669</ele><time>2026-05-03T17:08:47Z</time></trkpt><trkpt lat="45.748934736227284" lon="9.42636069050724"><ele>210.0</ele><time>2026-05-03T17:08:48Z</time></trkpt><trkpt lat="45.74911607878975" lon="9.42638158471588"><ele>210.0</ele><time>2026-05-03T17:08:49Z</time></trkpt><trkpt lat="45.74928080628568" lon="9.426399079684572"><ele>210.0</ele><time>2026-05-03T17:08:50Z</time></trkpt><trkpt lat="45.74943028982785" lon="9.426413956560728"><ele>210.0</ele><time>2026-05-03T17:08:51Z</time></trkpt><trkpt lat="45.74956660993225" lon="9.426425396146373"><ele>209.75</ele><time>2026-05-03T17:08:52Z</time></trkpt><trkpt lat="45.74969671451628" lon="9.426435619011697"><ele>209.5</ele><time>2026-05-03T17:08:53Z</time></trkpt><trkpt lat="45.749863745682255" lon="9.426464242729049"><ele>209.25</ele><time>2026-05-03T17:08:54Z</time></trkpt><trkpt lat="45.74998220385855" lon="9.426479157905321"><ele>209.0</ele><time>2026-05-03T17:08:55Z</time></trkpt><trkpt lat="45.75008299097306" lon="9.426491646688351"><ele>209.00000000000003</ele><time>2026-05-03T17:08:56Z</time></trkpt><trkpt lat="45.75016379233677" lon="9.426504359995622"><ele>209.0</ele><time>2026-05-03T17:08:57Z</time></trkpt><trkpt lat="45.75023425724914" lon="9.426511549838619"><ele>209.0</ele><time>2026-05-03T17:08:58Z</time></trkpt><trkpt lat="45.75030269421358" lon="9.426543059334106"><ele>209.0</ele><time>2026-05-03T17:08:59Z</time></trkpt><trkpt lat="45.75036046148092" lon="9.426597602949586"><ele>209.00000000000003</ele><time>2026-05-03T17:09:00Z</time></trkpt><trkpt lat="45.75041917468214" lon="9.426679646968969"><ele>209.0</ele><time>2026-05-03T17:09:01Z</time></trkpt><trkpt lat="45.75049149596273" lon="9.426723981883697"><ele>208.75</ele><time>2026-05-03T17:09:02Z</time></trkpt><trkpt lat="45.75058521280699" lon="9.42675831636814"><ele>208.5</ele><time>2026-05-03T17:09:04Z</time></trkpt><trkpt lat="45.750718307002735" lon="9.426576959669312"><ele>208.25</ele><time>2026-05-03T17:09:05Z</time></trkpt><trkpt lat="45.75080781080588" lon="9.426563604697604"><ele>208.0</ele><time>2026-05-03T17:09:06Z</time></trkpt><trkpt lat="45.750914316246444" lon="9.426571388588775"><ele>208.0</ele><time>2026-05-03T17:09:07Z</time></trkpt><trkpt lat="45.75103289414145" lon="9.426565818559016"><ele>208.0</ele><time>2026-05-03T17:09:08Z</time></trkpt><trkpt lat="45.751163166573626" lon="9.426565208752681"><ele>208.0</ele><time>2026-05-03T17:09:09Z</time></trkpt><trkpt lat="45.751298088747596" lon="9.426565620761988"><ele>208.0</ele><time>2026-05-03T17:09:10Z</time></trkpt><trkpt lat="45.75143767598459" lon="9.426562054443918"><ele>208.5</ele><time>2026-05-03T17:09:11Z</time></trkpt><trkpt lat="45.75158385976836" lon="9.426557474610666"><ele>209.0</ele><time>2026-05-03T17:09:12Z</time></trkpt><trkpt lat="45.75173377824781" lon="9.426562443499623"><ele>209.5</ele><time>2026-05-03T17:09:13Z</time></trkpt><trkpt lat="45.751882409730264" lon="9.426569431699042"><ele>210.0</ele><time>2026-05-03T17:09:14Z</time></trkpt><trkpt lat="45.75202326647614" lon="9.426575891464884"><ele>211.0</ele><time>2026-05-03T17:09:15Z</time></trkpt><trkpt lat="45.75216757268407" lon="9.426582070179473"><ele>212.0</ele><time>2026-05-03T17:09:16Z</time></trkpt><trkpt lat="45.752304345337954" lon="9.42658578174808"><ele>213.0</ele><time>2026-05-03T17:09:17Z</time></trkpt><trkpt lat="45.752440441406925" lon="9.426590927835326"><ele>214.0</ele><time>2026-05-03T17:09:18Z</time></trkpt><trkpt lat="45.75257362416175" lon="9.426599060318935"><ele>214.0</ele><time>2026-05-03T17:09:19Z</time></trkpt><trkpt lat="45.75270030502302" lon="9.426603913185849"><ele>213.99999999999997</ele><time>2026-05-03T17:09:20Z</time></trkpt><trkpt lat="45.75280180630907" lon="9.426603595563641"><ele>213.99999999999997</ele><time>2026-05-03T17:09:21Z</time></trkpt><trkpt lat="45.75288558366636" lon="9.426600155120372"><ele>214.0</ele><time>2026-05-03T17:09:22Z</time></trkpt><trkpt lat="45.752979241246884" lon="9.426597213942564"><ele>214.0</ele><time>2026-05-03T17:09:23Z</time></trkpt><trkpt lat="45.75307635603591" lon="9.426597858454604"><ele>214.33333333333331</ele><time>2026-05-03T17:09:24Z</time></trkpt><trkpt lat="45.75316492077847" lon="9.426603069947543"><ele>214.66666666666666</ele><time>2026-05-03T17:09:25Z</time></trkpt><trkpt lat="45.75324519348068" lon="9.426608306663807"><ele>215.0</ele><time>2026-05-03T17:09:26Z</time></trkpt><trkpt lat="45.7533097577599" lon="9.426611177673454"><ele>215.33333333333331</ele><time>2026-05-03T17:09:27Z</time></trkpt><trkpt lat="45.75342787080365" lon="9.426616306906196"><ele>215.66666666666666</ele><time>2026-05-03T17:09:29Z</time></trkpt><trkpt lat="45.75350696644017" lon="9.426621055715634"><ele>216.0</ele><time>2026-05-03T17:09:30Z</time></trkpt><trkpt lat="45.7535922790948" lon="9.42662513300312"><ele>216.4</ele><time>2026-05-03T17:09:31Z</time></trkpt><trkpt lat="45.753691426003904" lon="9.426628372537856"><ele>216.8</ele><time>2026-05-03T17:09:32Z</time></trkpt><trkpt lat="45.75379945466678" lon="9.426632507298235"><ele>217.20000000000002</ele><time>2026-05-03T17:09:33Z</time></trkpt><trkpt lat="45.75391632780479" lon="9.42663642098422"><ele>217.60000000000002</ele><time>2026-05-03T17:09:34Z</time></trkpt><trkpt lat="45.75403624454896" lon="9.42664107647698"><ele>218.0</ele><time>2026-05-03T17:09:35Z</time></trkpt><trkpt lat="45.75415791500275" lon="9.426647450493835"><ele>218.0</ele><time>2026-05-03T17:09:36Z</time></trkpt><trkpt lat="45.75427961486986" lon="9.426651115123153"><ele>218.0</ele><time>2026-05-03T17:09:37Z</time></trkpt><trkpt lat="45.7543980351814" lon="9.426653081658987"><ele>218.0</ele><time>2026-05-03T17:09:38Z</time></trkpt><trkpt lat="45.75450577771689" lon="9.426654145579894"><ele>218.0</ele><time>2026-05-03T17:09:39Z</time></trkpt><trkpt lat="45.75460277015106" lon="9.42665701860756"><ele>218.0</ele><time>2026-05-03T17:09:40Z</time></trkpt><trkpt lat="45.75469012889129" lon="9.426660535001265"><ele>218.33333333333334</ele><time>2026-05-03T17:09:41Z</time></trkpt><trkpt lat="45.75475369661328" lon="9.426663619239369"><ele>218.66666666666669</ele><time>2026-05-03T17:09:42Z</time></trkpt><trkpt lat="45.75484550202065" lon="9.426682037778377"><ele>219.0</ele><time>2026-05-03T17:09:44Z</time></trkpt><trkpt lat="45.75490495573338" lon="9.426739207873908"><ele>219.33333333333331</ele><time>2026-05-03T17:09:46Z</time></trkpt><trkpt lat="45.75498149890013" lon="9.426812111509788"><ele>219.66666666666666</ele><time>2026-05-03T17:09:48Z</time></trkpt><trkpt lat="45.75509621577344" lon="9.426797124874223"><ele>220.0</ele><time>2026-05-03T17:09:50Z</time></trkpt><trkpt lat="45.75515536035385" lon="9.426740968401875"><ele>219.66666666666666</ele><time>2026-05-03T17:09:51Z</time></trkpt><trkpt lat="45.75522871603051" lon="9.426689093243048"><ele>219.33333333333331</ele><time>2026-05-03T17:09:52Z</time></trkpt><trkpt lat="45.75531486568575" lon="9.426682916113908"><ele>219.0</ele><time>2026-05-03T17:09:53Z</time></trkpt><trkpt lat="45.75540081214186" lon="9.426695018401018"><ele>218.66666666666669</ele><time>2026-05-03T17:09:54Z</time></trkpt><trkpt lat="45.75547315737582" lon="9.426703893224627"><ele>218.33333333333334</ele><time>2026-05-03T17:09:55Z</time></trkpt><trkpt lat="45.75554394644668" lon="9.426708807996533"><ele>218.0</ele><time>2026-05-03T17:09:56Z</time></trkpt><trkpt lat="45.755615873760775" lon="9.426713268220478"><ele>218.0</ele><time>2026-05-03T17:09:57Z</time></trkpt><trkpt lat="45.75568337819634" lon="9.426723680165486"><ele>218.0</ele><time>2026-05-03T17:09:58Z</time></trkpt><trkpt lat="45.75578876670163" lon="9.426795776126406"><ele>218.0</ele><time>2026-05-03T17:10:00Z</time></trkpt><trkpt lat="45.75589033706787" lon="9.426880815842834"><ele>218.0</ele><time>2026-05-03T17:10:02Z</time></trkpt><trkpt lat="45.75596705329555" lon="9.42686872781547"><ele>218.0</ele><time>2026-05-03T17:10:03Z</time></trkpt><trkpt lat="45.75605538373398" lon="9.426826750568969"><ele>218.0</ele><time>2026-05-03T17:10:04Z</time></trkpt><trkpt lat="45.75615702789894" lon="9.426785134727146"><ele>218.0</ele><time>2026-05-03T17:10:05Z</time></trkpt><trkpt lat="45.7562669084502" lon="9.426762344956819"><ele>218.0</ele><time>2026-05-03T17:10:05.999Z</time></trkpt><trkpt lat="45.756384537370145" lon="9.426748460478247"><ele>218.0</ele><time>2026-05-03T17:10:06.999Z</time></trkpt><trkpt lat="45.75651195719386" lon="9.426745741186576"><ele>218.0</ele><time>2026-05-03T17:10:07.999Z</time></trkpt><trkpt lat="45.75664730850303" lon="9.426745833597442"><ele>218.0</ele><time>2026-05-03T17:10:08.999Z</time></trkpt><trkpt lat="45.75678792086567" lon="9.426753767794102"><ele>218.0</ele><time>2026-05-03T17:10:09.999Z</time></trkpt><trkpt lat="45.75693519291224" lon="9.426765351063011"><ele>218.0</ele><time>2026-05-03T17:10:10.999Z</time></trkpt><trkpt lat="45.75708813582818" lon="9.426776963280641"><ele>216.0</ele><time>2026-05-03T17:10:11.999Z</time></trkpt><trkpt lat="45.75725251414772" lon="9.42678351436653"><ele>214.0</ele><time>2026-05-03T17:10:12.999Z</time></trkpt><trkpt lat="45.75742104540662" lon="9.426791266916354"><ele>212.0</ele><time>2026-05-03T17:10:13.999Z</time></trkpt><trkpt lat="45.75759909196188" lon="9.426799964507456"><ele>212.0</ele><time>2026-05-03T17:10:14.999Z</time></trkpt><trkpt lat="45.757782779123794" lon="9.426807644855469"><ele>212.0</ele><time>2026-05-03T17:10:16.001Z</time></trkpt><trkpt lat="45.75797417121901" lon="9.426814220974912"><ele>212.0</ele><time>2026-05-03T17:10:17.001Z</time></trkpt><trkpt lat="45.75816785776232" lon="9.426819609156277"><ele>212.0</ele><time>2026-05-03T17:10:18.001Z</time></trkpt><trkpt lat="45.75836315592323" lon="9.426822927081837"><ele>212.0</ele><time>2026-05-03T17:10:19.001Z</time></trkpt><trkpt lat="45.75855922958469" lon="9.426824721419635"><ele>212.0</ele><time>2026-05-03T17:10:20.001Z</time></trkpt><trkpt lat="45.75874763487674" lon="9.42682415954958"><ele>215.33333333333334</ele><time>2026-05-03T17:10:21.001Z</time></trkpt><trkpt lat="45.75892586730804" lon="9.426822348486917"><ele>218.66666666666669</ele><time>2026-05-03T17:10:22.001Z</time></trkpt><trkpt lat="45.75909577282365" lon="9.42681883289527"><ele>222.0</ele><time>2026-05-03T17:10:23.001Z</time></trkpt><trkpt lat="45.75925734500566" lon="9.426812825243159"><ele>219.33333333333331</ele><time>2026-05-03T17:10:24.001Z</time></trkpt><trkpt lat="45.75941516935663" lon="9.426806743148619"><ele>216.66666666666666</ele><time>2026-05-03T17:10:25.001Z</time></trkpt><trkpt lat="45.75957594504063" lon="9.426799361860283"><ele>214.0</ele><time>2026-05-03T17:10:26.001Z</time></trkpt><trkpt lat="45.75974104705738" lon="9.42678991430461"><ele>214.0</ele><time>2026-05-03T17:10:27.001Z</time></trkpt><trkpt lat="45.75990645395954" lon="9.426778343469588"><ele>214.0</ele><time>2026-05-03T17:10:28.001Z</time></trkpt><trkpt lat="45.760073740580786" lon="9.426764567853825"><ele>214.0</ele><time>2026-05-03T17:10:29.001Z</time></trkpt><trkpt lat="45.760243306405" lon="9.426745683225294"><ele>212.66666666666666</ele><time>2026-05-03T17:10:30.001Z</time></trkpt><trkpt lat="45.760415433566095" lon="9.426725284814022"><ele>211.33333333333331</ele><time>2026-05-03T17:10:31Z</time></trkpt><trkpt lat="45.76059120864201" lon="9.426707103222412"><ele>210.0</ele><time>2026-05-03T17:10:32Z</time></trkpt><trkpt lat="45.76076788646153" lon="9.426692844397088"><ele>210.0</ele><time>2026-05-03T17:10:33Z</time></trkpt><trkpt lat="45.76094332135868" lon="9.42668092958717"><ele>210.0</ele><time>2026-05-03T17:10:34Z</time></trkpt><trkpt lat="45.76111916243108" lon="9.426667903166377"><ele>210.0</ele><time>2026-05-03T17:10:35Z</time></trkpt><trkpt lat="45.7612950064126" lon="9.426652891201075"><ele>210.33333333333331</ele><time>2026-05-03T17:10:36Z</time></trkpt><trkpt lat="45.76147078401719" lon="9.42664006137564"><ele>210.66666666666666</ele><time>2026-05-03T17:10:37Z</time></trkpt><trkpt lat="45.761647480049625" lon="9.426627084358373"><ele>211.0</ele><time>2026-05-03T17:10:38Z</time></trkpt><trkpt lat="45.761825910886884" lon="9.426614202075475"><ele>212.33333333333331</ele><time>2026-05-03T17:10:39Z</time></trkpt><trkpt lat="45.762004830500196" lon="9.426601124098157"><ele>213.66666666666669</ele><time>2026-05-03T17:10:40Z</time></trkpt><trkpt lat="45.762181558349795" lon="9.42658679444006"><ele>215.0</ele><time>2026-05-03T17:10:41Z</time></trkpt><trkpt lat="45.76235612188727" lon="9.426571778787535"><ele>215.0</ele><time>2026-05-03T17:10:42Z</time></trkpt><trkpt lat="45.762523469910015" lon="9.426554222974339"><ele>215.0</ele><time>2026-05-03T17:10:43Z</time></trkpt><trkpt lat="45.762690263799996" lon="9.426527957399786"><ele>215.0</ele><time>2026-05-03T17:10:44Z</time></trkpt><trkpt lat="45.76285885990416" lon="9.426492313600678"><ele>211.66666666666669</ele><time>2026-05-03T17:10:45Z</time></trkpt><trkpt lat="45.76302723667112" lon="9.42644924893504"><ele>208.33333333333331</ele><time>2026-05-03T17:10:46Z</time></trkpt><trkpt lat="45.76319631189846" lon="9.426399075183289"><ele>205.0</ele><time>2026-05-03T17:10:47Z</time></trkpt><trkpt lat="45.763363205275034" lon="9.426338627002169"><ele>207.66666666666666</ele><time>2026-05-03T17:10:48Z</time></trkpt><trkpt lat="45.76352469788463" lon="9.426275352288378"><ele>210.33333333333331</ele><time>2026-05-03T17:10:49Z</time></trkpt><trkpt lat="45.76368550273745" lon="9.426208499494283"><ele>213.0</ele><time>2026-05-03T17:10:50Z</time></trkpt><trkpt lat="45.76384485894171" lon="9.426144392158928"><ele>213.0</ele><time>2026-05-03T17:10:51Z</time></trkpt><trkpt lat="45.76400043268023" lon="9.426081914456327"><ele>213.0</ele><time>2026-05-03T17:10:52Z</time></trkpt><trkpt lat="45.764155337786015" lon="9.42601985074566"><ele>213.0</ele><time>2026-05-03T17:10:53Z</time></trkpt><trkpt lat="45.764320433011896" lon="9.425955789891074"><ele>209.66666666666669</ele><time>2026-05-03T17:10:54Z</time></trkpt><trkpt lat="45.76449079628351" lon="9.4258848024879"><ele>206.33333333333334</ele><time>2026-05-03T17:10:55Z</time></trkpt><trkpt lat="45.76466019280407" lon="9.425815922964743"><ele>203.0</ele><time>2026-05-03T17:10:56Z</time></trkpt><trkpt lat="45.764827517869804" lon="9.42574836238143"><ele>203.0</ele><time>2026-05-03T17:10:57Z</time></trkpt><trkpt lat="45.76499197999752" lon="9.425679136784069"><ele>203.0</ele><time>2026-05-03T17:10:58Z</time></trkpt><trkpt lat="45.76515618866373" lon="9.425609868477988"><ele>203.0</ele><time>2026-05-03T17:10:59Z</time></trkpt><trkpt lat="45.76532546814036" lon="9.425534003382529"><ele>206.66666666666669</ele><time>2026-05-03T17:11:00Z</time></trkpt><trkpt lat="45.76551699412268" lon="9.425447819797363"><ele>210.33333333333331</ele><time>2026-05-03T17:11:01Z</time></trkpt><trkpt lat="45.765723484913664" lon="9.425366108814146"><ele>214.0</ele><time>2026-05-03T17:11:02Z</time></trkpt><trkpt lat="45.7659256088062" lon="9.425283896875824"><ele>211.33333333333331</ele><time>2026-05-03T17:11:03Z</time></trkpt><trkpt lat="45.766121702610114" lon="9.42520741557613"><ele>208.66666666666669</ele><time>2026-05-03T17:11:04Z</time></trkpt><trkpt lat="45.766328708147775" lon="9.425120776254696"><ele>206.0</ele><time>2026-05-03T17:11:05Z</time></trkpt><trkpt lat="45.76655318575322" lon="9.425045527559258"><ele>206.0</ele><time>2026-05-03T17:11:06Z</time></trkpt><trkpt lat="45.76677795245331" lon="9.4249465938005"><ele>206.0</ele><time>2026-05-03T17:11:07Z</time></trkpt><trkpt lat="45.76700985318229" lon="9.424882688490404"><ele>204.5</ele><time>2026-05-03T17:11:08Z</time></trkpt><trkpt lat="45.76724493139889" lon="9.42481563896783"><ele>203.0</ele><time>2026-05-03T17:11:09Z</time></trkpt><trkpt lat="45.76748232100561" lon="9.42477067962023"><ele>202.0</ele><time>2026-05-03T17:11:10Z</time></trkpt><trkpt lat="45.767719881616294" lon="9.424759656640706"><ele>201.0</ele><time>2026-05-03T17:11:11Z</time></trkpt><trkpt lat="45.767956466013715" lon="9.424773315460264"><ele>201.0</ele><time>2026-05-03T17:11:12Z</time></trkpt><trkpt lat="45.76818745611329" lon="9.424793934112312"><ele>201.0</ele><time>2026-05-03T17:11:13Z</time></trkpt><trkpt lat="45.76841373915155" lon="9.42481162250775"><ele>201.5</ele><time>2026-05-03T17:11:14Z</time></trkpt><trkpt lat="45.76864239546702" lon="9.42481873796193"><ele>202.0</ele><time>2026-05-03T17:11:15Z</time></trkpt><trkpt lat="45.76888408784026" lon="9.42482679238593"><ele>202.0</ele><time>2026-05-03T17:11:16Z</time></trkpt><trkpt lat="45.769136370421" lon="9.42487105608255"><ele>202.0</ele><time>2026-05-03T17:11:17Z</time></trkpt><trkpt lat="45.76940167426971" lon="9.42487726606405"><ele>202.5</ele><time>2026-05-03T17:11:18Z</time></trkpt><trkpt lat="45.769658396126474" lon="9.424914965814333"><ele>203.0</ele><time>2026-05-03T17:11:19Z</time></trkpt><trkpt lat="45.76991376954118" lon="9.424945045892692"><ele>203.0</ele><time>2026-05-03T17:11:20Z</time></trkpt><trkpt lat="45.770168428668626" lon="9.424968912215203"><ele>203.0</ele><time>2026-05-03T17:11:21Z</time></trkpt><trkpt lat="45.77042411182069" lon="9.424984149084189"><ele>201.5</ele><time>2026-05-03T17:11:22Z</time></trkpt><trkpt lat="45.770680630337" lon="9.42500176006809"><ele>200.0</ele><time>2026-05-03T17:11:23Z</time></trkpt><trkpt lat="45.77093968640275" lon="9.425020604329335"><ele>201.0</ele><time>2026-05-03T17:11:24Z</time></trkpt><trkpt lat="45.77119630396206" lon="9.425040269912833"><ele>202.0</ele><time>2026-05-03T17:11:25Z</time></trkpt><trkpt lat="45.77145539098727" lon="9.42506103035937"><ele>202.0</ele><time>2026-05-03T17:11:26Z</time></trkpt><trkpt lat="45.77171632162971" lon="9.425083272107809"><ele>202.0</ele><time>2026-05-03T17:11:27Z</time></trkpt><trkpt lat="45.77197730191023" lon="9.425100898675137"><ele>203.5</ele><time>2026-05-03T17:11:28Z</time></trkpt><trkpt lat="45.77223830152037" lon="9.425120067251228"><ele>205.0</ele><time>2026-05-03T17:11:29Z</time></trkpt><trkpt lat="45.77250213769018" lon="9.425138081893543"><ele>205.0</ele><time>2026-05-03T17:11:30Z</time></trkpt><trkpt lat="45.77276295140089" lon="9.425157478669446"><ele>205.0</ele><time>2026-05-03T17:11:31Z</time></trkpt><trkpt lat="45.773022248776456" lon="9.425178403297709"><ele>205.0</ele><time>2026-05-03T17:11:32Z</time></trkpt><trkpt lat="45.773278854339914" lon="9.425198550532029"><ele>205.0</ele><time>2026-05-03T17:11:33Z</time></trkpt><trkpt lat="45.77353319979247" lon="9.425217378640468"><ele>206.5</ele><time>2026-05-03T17:11:34Z</time></trkpt><trkpt lat="45.773777962420056" lon="9.42523453687661"><ele>208.0</ele><time>2026-05-03T17:11:35Z</time></trkpt><trkpt lat="45.77400500039111" lon="9.425248969205676"><ele>208.0</ele><time>2026-05-03T17:11:36Z</time></trkpt><trkpt lat="45.77422004232621" lon="9.425264502555248"><ele>208.0</ele><time>2026-05-03T17:11:37Z</time></trkpt><trkpt lat="45.77442379503396" lon="9.425280050316289"><ele>208.0</ele><time>2026-05-03T17:11:38Z</time></trkpt><trkpt lat="45.77461776190133" lon="9.425294407030933"><ele>208.33333333333331</ele><time>2026-05-03T17:11:39Z</time></trkpt><trkpt lat="45.77479885422316" lon="9.425311569992395"><ele>208.66666666666669</ele><time>2026-05-03T17:11:40Z</time></trkpt><trkpt lat="45.7749711662242" lon="9.42533072050367"><ele>209.0</ele><time>2026-05-03T17:11:41Z</time></trkpt><trkpt lat="45.77511950607161" lon="9.425349378400199"><ele>209.5</ele><time>2026-05-03T17:11:42Z</time></trkpt><trkpt lat="45.77525192747283" lon="9.425377006018394"><ele>210.0</ele><time>2026-05-03T17:11:43Z</time></trkpt><trkpt lat="45.77537981497738" lon="9.425409313836576"><ele>210.5</ele><time>2026-05-03T17:11:44Z</time></trkpt><trkpt lat="45.7754916528716" lon="9.425448046677962"><ele>211.0</ele><time>2026-05-03T17:11:45Z</time></trkpt><trkpt lat="45.77559009246145" lon="9.425498187522972"><ele>209.8</ele><time>2026-05-03T17:11:46Z</time></trkpt><trkpt lat="45.775674160722545" lon="9.425564468637049"><ele>208.60000000000002</ele><time>2026-05-03T17:11:47Z</time></trkpt><trkpt lat="45.77574314580718" lon="9.425640118868985"><ele>207.4</ele><time>2026-05-03T17:11:48Z</time></trkpt><trkpt lat="45.77580957207932" lon="9.425710228845833"><ele>206.2</ele><time>2026-05-03T17:11:49Z</time></trkpt><trkpt lat="45.77589375923644" lon="9.425749946389693"><ele>205.0</ele><time>2026-05-03T17:11:50Z</time></trkpt><trkpt lat="45.77599806152842" lon="9.425740939053336"><ele>206.5</ele><time>2026-05-03T17:11:51Z</time></trkpt><trkpt lat="45.77611799269698" lon="9.425727198961683"><ele>208.0</ele><time>2026-05-03T17:11:52Z</time></trkpt><trkpt lat="45.77624290344379" lon="9.425749017969085"><ele>209.5</ele><time>2026-05-03T17:11:53Z</time></trkpt><trkpt lat="45.77638137210375" lon="9.425787649138103"><ele>211.0</ele><time>2026-05-03T17:11:54Z</time></trkpt><trkpt lat="45.7765326644998" lon="9.425819901505601"><ele>211.0</ele><time>2026-05-03T17:11:55Z</time></trkpt><trkpt lat="45.776690872030834" lon="9.425845751018187"><ele>211.0</ele><time>2026-05-03T17:11:56Z</time></trkpt><trkpt lat="45.77685406541886" lon="9.425855409302521"><ele>211.0</ele><time>2026-05-03T17:11:57Z</time></trkpt><trkpt lat="45.777017732213885" lon="9.425844465591176"><ele>211.66666666666666</ele><time>2026-05-03T17:11:58Z</time></trkpt><trkpt lat="45.777179258311705" lon="9.425809208750643"><ele>212.33333333333331</ele><time>2026-05-03T17:11:59Z</time></trkpt><trkpt lat="45.7773345654215" lon="9.42575397753991"><ele>213.0</ele><time>2026-05-03T17:12:00Z</time></trkpt><trkpt lat="45.77748488095575" lon="9.42569302600645"><ele>213.0</ele><time>2026-05-03T17:12:01Z</time></trkpt><trkpt lat="45.77763110295966" lon="9.425627807358731"><ele>213.0</ele><time>2026-05-03T17:12:02Z</time></trkpt><trkpt lat="45.77777643806587" lon="9.4255633729922"><ele>213.0</ele><time>2026-05-03T17:12:03Z</time></trkpt><trkpt lat="45.77792366268901" lon="9.425500671029175"><ele>218.33333333333331</ele><time>2026-05-03T17:12:04Z</time></trkpt><trkpt lat="45.77807462171687" lon="9.425437709703838"><ele>223.66666666666666</ele><time>2026-05-03T17:12:04.999Z</time></trkpt><trkpt lat="45.77822256900319" lon="9.425371346889607"><ele>229.0</ele><time>2026-05-03T17:12:05.999Z</time></trkpt><trkpt lat="45.77837094091163" lon="9.425301445839354"><ele>226.33333333333331</ele><time>2026-05-03T17:12:06.999Z</time></trkpt><trkpt lat="45.77852083405786" lon="9.4252336757974"><ele>223.66666666666669</ele><time>2026-05-03T17:12:07.999Z</time></trkpt><trkpt lat="45.77867509155793" lon="9.425162456513355"><ele>221.0</ele><time>2026-05-03T17:12:08.999Z</time></trkpt><trkpt lat="45.77883343588565" lon="9.425093580784818"><ele>221.0</ele><time>2026-05-03T17:12:09.999Z</time></trkpt><trkpt lat="45.77899416439746" lon="9.425033164920569"><ele>221.0</ele><time>2026-05-03T17:12:10.999Z</time></trkpt><trkpt lat="45.779151396714084" lon="9.424973934106509"><ele>221.0</ele><time>2026-05-03T17:12:11.999Z</time></trkpt><trkpt lat="45.77930740388472" lon="9.424918590369339"><ele>220.33333333333334</ele><time>2026-05-03T17:12:12.999Z</time></trkpt><trkpt lat="45.77946776990462" lon="9.424868224779257"><ele>219.66666666666669</ele><time>2026-05-03T17:12:13.999Z</time></trkpt><trkpt lat="45.77962723912953" lon="9.424821862888548"><ele>219.0</ele><time>2026-05-03T17:12:14.999Z</time></trkpt><trkpt lat="45.779783759495494" lon="9.42477899040372"><ele>219.0</ele><time>2026-05-03T17:12:15.999Z</time></trkpt><trkpt lat="45.7799357916864" lon="9.424738853562411"><ele>219.0</ele><time>2026-05-03T17:12:16.999Z</time></trkpt><trkpt lat="45.78008395649315" lon="9.42470001231362"><ele>219.0</ele><time>2026-05-03T17:12:17.999Z</time></trkpt><trkpt lat="45.78022825568325" lon="9.42465923429181"><ele>219.5</ele><time>2026-05-03T17:12:18.999Z</time></trkpt><trkpt lat="45.7803670022968" lon="9.424620759373742"><ele>220.0</ele><time>2026-05-03T17:12:19.999Z</time></trkpt><trkpt lat="45.780501553439215" lon="9.424583343606974"><ele>220.5</ele><time>2026-05-03T17:12:20.999Z</time></trkpt><trkpt lat="45.78063462064877" lon="9.424545456176288"><ele>221.0</ele><time>2026-05-03T17:12:22Z</time></trkpt><trkpt lat="45.78076358668356" lon="9.42451038868733"><ele>221.0</ele><time>2026-05-03T17:12:23Z</time></trkpt><trkpt lat="45.78088556243475" lon="9.424480174119164"><ele>221.0</ele><time>2026-05-03T17:12:24Z</time></trkpt><trkpt lat="45.78100382961342" lon="9.424448156897483"><ele>221.0</ele><time>2026-05-03T17:12:25Z</time></trkpt><trkpt lat="45.78112191645112" lon="9.424417849163387"><ele>221.0</ele><time>2026-05-03T17:12:26Z</time></trkpt><trkpt lat="45.781238838439606" lon="9.42439040226835"><ele>220.8</ele><time>2026-05-03T17:12:27Z</time></trkpt><trkpt lat="45.78135443238271" lon="9.424361091550447"><ele>220.60000000000002</ele><time>2026-05-03T17:12:28Z</time></trkpt><trkpt lat="45.78146595954079" lon="9.424334511293708"><ele>220.4</ele><time>2026-05-03T17:12:29Z</time></trkpt><trkpt lat="45.781569569315664" lon="9.424313250001711"><ele>220.2</ele><time>2026-05-03T17:12:30Z</time></trkpt><trkpt lat="45.78165768286834" lon="9.424299004391438"><ele>220.0</ele><time>2026-05-03T17:12:31Z</time></trkpt><trkpt lat="45.78172212810257" lon="9.424289031187012"><ele>220.0</ele><time>2026-05-03T17:12:32Z</time></trkpt><trkpt lat="45.78183605348846" lon="9.424295687235917"><ele>220.0</ele><time>2026-05-03T17:12:34Z</time></trkpt><trkpt lat="45.781966486334255" lon="9.424287469376672"><ele>220.0</ele><time>2026-05-03T17:12:36Z</time></trkpt><trkpt lat="45.782034635648465" lon="9.424243436745915"><ele>220.0</ele><time>2026-05-03T17:12:37Z</time></trkpt><trkpt lat="45.782125019288706" lon="9.424175488132866"><ele>220.0</ele><time>2026-05-03T17:12:38Z</time></trkpt><trkpt lat="45.78223901365746" lon="9.424136282063312"><ele>220.75</ele><time>2026-05-03T17:12:39Z</time></trkpt><trkpt lat="45.782372338152506" lon="9.424105310494006"><ele>221.5</ele><time>2026-05-03T17:12:40Z</time></trkpt><trkpt lat="45.78251261157553" lon="9.424072832569511"><ele>222.25</ele><time>2026-05-03T17:12:41Z</time></trkpt><trkpt lat="45.782649663399724" lon="9.424035205918768"><ele>223.0</ele><time>2026-05-03T17:12:42Z</time></trkpt><trkpt lat="45.78278105075644" lon="9.423992306988842"><ele>223.0</ele><time>2026-05-03T17:12:43Z</time></trkpt><trkpt lat="45.78294570758633" lon="9.423944358421005"><ele>223.0</ele><time>2026-05-03T17:12:44Z</time></trkpt><trkpt lat="45.78312355472749" lon="9.423895387884427"><ele>223.0</ele><time>2026-05-03T17:12:45Z</time></trkpt><trkpt lat="45.78329597386156" lon="9.42385427901642"><ele>222.66666666666666</ele><time>2026-05-03T17:12:46Z</time></trkpt><trkpt lat="45.7834642693919" lon="9.42379967221084"><ele>222.33333333333331</ele><time>2026-05-03T17:12:47Z</time></trkpt><trkpt lat="45.783625134477305" lon="9.423731996196134"><ele>222.0</ele><time>2026-05-03T17:12:48Z</time></trkpt><trkpt lat="45.78376542162464" lon="9.423656049362735"><ele>221.5</ele><time>2026-05-03T17:12:49Z</time></trkpt><trkpt lat="45.783889350848845" lon="9.423573244007184"><ele>221.0</ele><time>2026-05-03T17:12:50Z</time></trkpt><trkpt lat="45.78400232377743" lon="9.423485506131541"><ele>220.5</ele><time>2026-05-03T17:12:51Z</time></trkpt><trkpt lat="45.78411216401319" lon="9.423407018870522"><ele>220.0</ele><time>2026-05-03T17:12:52Z</time></trkpt><trkpt lat="45.78421017204964" lon="9.423334291056074"><ele>219.99999999999997</ele><time>2026-05-03T17:12:53Z</time></trkpt><trkpt lat="45.78430104735923" lon="9.423258474214549"><ele>220.0</ele><time>2026-05-03T17:12:54Z</time></trkpt><trkpt lat="45.78437848732876" lon="9.423190184410977"><ele>220.0</ele><time>2026-05-03T17:12:55Z</time></trkpt><trkpt lat="45.78444697835928" lon="9.423132394220094"><ele>220.0</ele><time>2026-05-03T17:12:56Z</time></trkpt><trkpt lat="45.784508410166644" lon="9.42307156640386"><ele>219.99999999999997</ele><time>2026-05-03T17:12:57Z</time></trkpt><trkpt lat="45.78456939418179" lon="9.423010329935853"><ele>220.0</ele><time>2026-05-03T17:12:58Z</time></trkpt><trkpt lat="45.784641515258585" lon="9.422950773549417"><ele>220.16666666666666</ele><time>2026-05-03T17:12:59Z</time></trkpt><trkpt lat="45.784719074635554" lon="9.422888447145766"><ele>220.33333333333331</ele><time>2026-05-03T17:13:00Z</time></trkpt><trkpt lat="45.78479071603918" lon="9.42283708943783"><ele>220.5</ele><time>2026-05-03T17:13:01Z</time></trkpt><trkpt lat="45.78486240535971" lon="9.422789538485636"><ele>220.66666666666669</ele><time>2026-05-03T17:13:02Z</time></trkpt><trkpt lat="45.7849317196975" lon="9.422739164362662"><ele>220.83333333333334</ele><time>2026-05-03T17:13:03Z</time></trkpt><trkpt lat="45.78500657241679" lon="9.422679369700692"><ele>221.0</ele><time>2026-05-03T17:13:04Z</time></trkpt><trkpt lat="45.78508689836446" lon="9.42260897776618"><ele>220.0</ele><time>2026-05-03T17:13:05Z</time></trkpt><trkpt lat="45.785185521220455" lon="9.422516329169332"><ele>219.0</ele><time>2026-05-03T17:13:06Z</time></trkpt><trkpt lat="45.78528238955197" lon="9.422435233282005"><ele>218.0</ele><time>2026-05-03T17:13:07Z</time></trkpt><trkpt lat="45.785381233863205" lon="9.422358088871633"><ele>217.0</ele><time>2026-05-03T17:13:08Z</time></trkpt><trkpt lat="45.78548144366244" lon="9.422279285190857"><ele>217.0</ele><time>2026-05-03T17:13:09Z</time></trkpt><trkpt lat="45.78558408855109" lon="9.422198020546338"><ele>217.0</ele><time>2026-05-03T17:13:10Z</time></trkpt><trkpt lat="45.785684699080385" lon="9.422114755273684"><ele>217.0</ele><time>2026-05-03T17:13:11Z</time></trkpt><trkpt lat="45.78578439196063" lon="9.422028844891475"><ele>217.0</ele><time>2026-05-03T17:13:12Z</time></trkpt><trkpt lat="45.7858830016327" lon="9.42194432580473"><ele>217.25</ele><time>2026-05-03T17:13:13Z</time></trkpt><trkpt lat="45.78598122933479" lon="9.421860666600114"><ele>217.5</ele><time>2026-05-03T17:13:14Z</time></trkpt><trkpt lat="45.78608161208867" lon="9.42177772326514"><ele>217.75</ele><time>2026-05-03T17:13:15Z</time></trkpt><trkpt lat="45.78618226936885" lon="9.421694459615747"><ele>218.0</ele><time>2026-05-03T17:13:16Z</time></trkpt><trkpt lat="45.78628358858574" lon="9.421608978431857"><ele>217.75</ele><time>2026-05-03T17:13:17Z</time></trkpt><trkpt lat="45.78638529336263" lon="9.421524787359271"><ele>217.5</ele><time>2026-05-03T17:13:18Z</time></trkpt><trkpt lat="45.78648804650932" lon="9.421440617447447"><ele>217.25</ele><time>2026-05-03T17:13:19Z</time></trkpt><trkpt lat="45.786592145989616" lon="9.421353787525845"><ele>217.0</ele><time>2026-05-03T17:13:20Z</time></trkpt><trkpt lat="45.78669567559014" lon="9.42126643976404"><ele>217.0</ele><time>2026-05-03T17:13:21Z</time></trkpt><trkpt lat="45.78680385411799" lon="9.421182572922026"><ele>217.0</ele><time>2026-05-03T17:13:22Z</time></trkpt><trkpt lat="45.786914167624694" lon="9.42109195200474"><ele>217.0</ele><time>2026-05-03T17:13:23Z</time></trkpt><trkpt lat="45.787025460024545" lon="9.420995950114609"><ele>217.0</ele><time>2026-05-03T17:13:24Z</time></trkpt><trkpt lat="45.78714076670527" lon="9.42090478465571"><ele>216.25</ele><time>2026-05-03T17:13:25Z</time></trkpt><trkpt lat="45.78725940776751" lon="9.4208065077823"><ele>215.5</ele><time>2026-05-03T17:13:26Z</time></trkpt><trkpt lat="45.7873746007103" lon="9.420711881127602"><ele>214.75</ele><time>2026-05-03T17:13:27Z</time></trkpt><trkpt lat="45.78749078607384" lon="9.420611628807233"><ele>214.0</ele><time>2026-05-03T17:13:28Z</time></trkpt><trkpt lat="45.78761164523096" lon="9.420518438137252"><ele>214.0</ele><time>2026-05-03T17:13:29Z</time></trkpt><trkpt lat="45.78772999058024" lon="9.42042130488914"><ele>214.0</ele><time>2026-05-03T17:13:30Z</time></trkpt><trkpt lat="45.787849998854725" lon="9.420322860341585"><ele>214.0</ele><time>2026-05-03T17:13:31Z</time></trkpt><trkpt lat="45.7879666145279" lon="9.420221996395814"><ele>214.0</ele><time>2026-05-03T17:13:32Z</time></trkpt><trkpt lat="45.78808365124022" lon="9.420127718142478"><ele>214.0</ele><time>2026-05-03T17:13:33Z</time></trkpt><trkpt lat="45.788197379868876" lon="9.420030968039542"><ele>214.0</ele><time>2026-05-03T17:13:34Z</time></trkpt><trkpt lat="45.78830938253751" lon="9.419933972554812"><ele>214.0</ele><time>2026-05-03T17:13:35Z</time></trkpt><trkpt lat="45.78841911112757" lon="9.419832944631924"><ele>214.0</ele><time>2026-05-03T17:13:36Z</time></trkpt><trkpt lat="45.78852542380201" lon="9.419731145736701"><ele>213.5</ele><time>2026-05-03T17:13:37Z</time></trkpt><trkpt lat="45.78862926007717" lon="9.419625680259722"><ele>213.0</ele><time>2026-05-03T17:13:38Z</time></trkpt><trkpt lat="45.78873113318953" lon="9.419524781454594"><ele>212.5</ele><time>2026-05-03T17:13:39Z</time></trkpt><trkpt lat="45.78882595612267" lon="9.41942447007763"><ele>212.0</ele><time>2026-05-03T17:13:40Z</time></trkpt><trkpt lat="45.788909632928984" lon="9.419325086386078"><ele>212.0</ele><time>2026-05-03T17:13:41Z</time></trkpt><trkpt lat="45.78898784104165" lon="9.419234969815156"><ele>212.0</ele><time>2026-05-03T17:13:42Z</time></trkpt><trkpt lat="45.78905919267341" lon="9.419150431958544"><ele>212.0</ele><time>2026-05-03T17:13:43Z</time></trkpt><trkpt lat="45.78912882593071" lon="9.419068585474689"><ele>212.0</ele><time>2026-05-03T17:13:44Z</time></trkpt><trkpt lat="45.78919763402389" lon="9.418988857504873"><ele>212.0</ele><time>2026-05-03T17:13:45Z</time></trkpt><trkpt lat="45.789270143845144" lon="9.418912037217822"><ele>211.66666666666669</ele><time>2026-05-03T17:13:46Z</time></trkpt><trkpt lat="45.78934497423043" lon="9.418851802185639"><ele>211.33333333333334</ele><time>2026-05-03T17:13:47Z</time></trkpt><trkpt lat="45.78942490585214" lon="9.418809775573656"><ele>211.0</ele><time>2026-05-03T17:13:48Z</time></trkpt><trkpt lat="45.78950571407069" lon="9.418769558045845"><ele>210.66666666666669</ele><time>2026-05-03T17:13:49Z</time></trkpt><trkpt lat="45.789577998190474" lon="9.418711320949443"><ele>210.33333333333334</ele><time>2026-05-03T17:13:50Z</time></trkpt><trkpt lat="45.78963828150765" lon="9.418637048525603"><ele>210.0</ele><time>2026-05-03T17:13:51Z</time></trkpt><trkpt lat="45.78968363793217" lon="9.418549049766881"><ele>210.0</ele><time>2026-05-03T17:13:52Z</time></trkpt><trkpt lat="45.78970079562409" lon="9.418438172012529"><ele>210.0</ele><time>2026-05-03T17:13:53Z</time></trkpt><trkpt lat="45.789712583236955" lon="9.41832984467645"><ele>210.0</ele><time>2026-05-03T17:13:54Z</time></trkpt><trkpt lat="45.78972743042157" lon="9.41822404258298"><ele>210.0</ele><time>2026-05-03T17:13:55Z</time></trkpt><trkpt lat="45.78976215666483" lon="9.418125210215962"><ele>210.0</ele><time>2026-05-03T17:13:56Z</time></trkpt><trkpt lat="45.78980840364967" lon="9.41802489494182"><ele>210.0</ele><time>2026-05-03T17:13:57Z</time></trkpt><trkpt lat="45.78986197014837" lon="9.417925089411288"><ele>210.4</ele><time>2026-05-03T17:13:58Z</time></trkpt><trkpt lat="45.78992449717206" lon="9.417825894404743"><ele>210.8</ele><time>2026-05-03T17:13:59Z</time></trkpt><trkpt lat="45.789987282219265" lon="9.417723120364618"><ele>211.2</ele><time>2026-05-03T17:14:00Z</time></trkpt><trkpt lat="45.79004883288209" lon="9.417613650808732"><ele>211.6</ele><time>2026-05-03T17:14:01Z</time></trkpt><trkpt lat="45.790111102766616" lon="9.4175004587931"><ele>212.0</ele><time>2026-05-03T17:14:02Z</time></trkpt><trkpt lat="45.79017368934036" lon="9.417386476761246"><ele>211.39999999999998</ele><time>2026-05-03T17:14:03Z</time></trkpt><trkpt lat="45.790240929836514" lon="9.417273203830817"><ele>210.79999999999998</ele><time>2026-05-03T17:14:03.999Z</time></trkpt><trkpt lat="45.790311286356385" lon="9.417160120706798"><ele>210.2</ele><time>2026-05-03T17:14:04.999Z</time></trkpt><trkpt lat="45.790382612488926" lon="9.417043415684098"><ele>209.6</ele><time>2026-05-03T17:14:05.999Z</time></trkpt><trkpt lat="45.79045422629894" lon="9.416919924986033"><ele>209.0</ele><time>2026-05-03T17:14:06.999Z</time></trkpt><trkpt lat="45.79052869259463" lon="9.416787462283484"><ele>209.0</ele><time>2026-05-03T17:14:07.999Z</time></trkpt><trkpt lat="45.79060189202782" lon="9.416653132623617"><ele>209.0</ele><time>2026-05-03T17:14:08.999Z</time></trkpt><trkpt lat="45.790674663501214" lon="9.416513986961181"><ele>209.0</ele><time>2026-05-03T17:14:09.999Z</time></trkpt><trkpt lat="45.79074928095108" lon="9.416373417632844"><ele>209.0</ele><time>2026-05-03T17:14:10.999Z</time></trkpt><trkpt lat="45.79082453853967" lon="9.41623877236986"><ele>209.25</ele><time>2026-05-03T17:14:11.999Z</time></trkpt><trkpt lat="45.790902095491525" lon="9.416105804736333"><ele>209.5</ele><time>2026-05-03T17:14:12.999Z</time></trkpt><trkpt lat="45.79098210878427" lon="9.415972589710643"><ele>209.75</ele><time>2026-05-03T17:14:13.999Z</time></trkpt><trkpt lat="45.79106237146545" lon="9.415836200894054"><ele>210.0</ele><time>2026-05-03T17:14:14.999Z</time></trkpt><trkpt lat="45.79114284976337" lon="9.415699260251795"><ele>209.75</ele><time>2026-05-03T17:14:15.999Z</time></trkpt><trkpt lat="45.791223949234016" lon="9.415561928222962"><ele>209.5</ele><time>2026-05-03T17:14:16.999Z</time></trkpt><trkpt lat="45.79130388437078" lon="9.415422791370924"><ele>209.25</ele><time>2026-05-03T17:14:17.999Z</time></trkpt><trkpt lat="45.791386476731425" lon="9.415284183369112"><ele>209.0</ele><time>2026-05-03T17:14:18.999Z</time></trkpt><trkpt lat="45.79146951780354" lon="9.415147288949687"><ele>209.0</ele><time>2026-05-03T17:14:19.999Z</time></trkpt><trkpt lat="45.79155316016408" lon="9.415013308516263"><ele>209.0</ele><time>2026-05-03T17:14:20.999Z</time></trkpt><trkpt lat="45.79163966309849" lon="9.414879793594773"><ele>209.0</ele><time>2026-05-03T17:14:21.999Z</time></trkpt><trkpt lat="45.79172696215444" lon="9.414747245763925"><ele>209.0</ele><time>2026-05-03T17:14:22.999Z</time></trkpt><trkpt lat="45.791818242427404" lon="9.414617481068905"><ele>208.75</ele><time>2026-05-03T17:14:23.999Z</time></trkpt><trkpt lat="45.79191157593841" lon="9.414491734188655"><ele>208.5</ele><time>2026-05-03T17:14:24.999Z</time></trkpt><trkpt lat="45.79200740239198" lon="9.414369995940367"><ele>208.25</ele><time>2026-05-03T17:14:25.999Z</time></trkpt><trkpt lat="45.79210986192727" lon="9.414260096024009"><ele>208.0</ele><time>2026-05-03T17:14:27Z</time></trkpt><trkpt lat="45.7922126589219" lon="9.414153568851928"><ele>208.0</ele><time>2026-05-03T17:14:28Z</time></trkpt><trkpt lat="45.79231942499264" lon="9.414059114787"><ele>208.0</ele><time>2026-05-03T17:14:29Z</time></trkpt><trkpt lat="45.79242005677838" lon="9.413966403996316"><ele>208.0</ele><time>2026-05-03T17:14:30Z</time></trkpt><trkpt lat="45.79251355837319" lon="9.413874400274107"><ele>208.0</ele><time>2026-05-03T17:14:31Z</time></trkpt><trkpt lat="45.79260127170955" lon="9.413794723850222"><ele>208.60000000000002</ele><time>2026-05-03T17:14:32Z</time></trkpt><trkpt lat="45.792682759044034" lon="9.413720360330563"><ele>209.20000000000002</ele><time>2026-05-03T17:14:33Z</time></trkpt><trkpt lat="45.792759862929756" lon="9.413651675430062"><ele>209.8</ele><time>2026-05-03T17:14:34Z</time></trkpt><trkpt lat="45.79283771809207" lon="9.41358927581695"><ele>210.4</ele><time>2026-05-03T17:14:35Z</time></trkpt><trkpt lat="45.79292222365836" lon="9.413525515144608"><ele>211.0</ele><time>2026-05-03T17:14:36Z</time></trkpt><trkpt lat="45.79300935244625" lon="9.413483148214128"><ele>211.0</ele><time>2026-05-03T17:14:37Z</time></trkpt><trkpt lat="45.793102666016026" lon="9.41345066199879"><ele>211.0</ele><time>2026-05-03T17:14:38Z</time></trkpt><trkpt lat="45.79319708490353" lon="9.413410709989009"><ele>211.0</ele><time>2026-05-03T17:14:39Z</time></trkpt><trkpt lat="45.79329220689351" lon="9.413364426696468"><ele>211.0</ele><time>2026-05-03T17:14:40Z</time></trkpt><trkpt lat="45.79339115362225" lon="9.413317508395439"><ele>211.0</ele><time>2026-05-03T17:14:41Z</time></trkpt><trkpt lat="45.79348823940384" lon="9.413266884142589"><ele>210.8</ele><time>2026-05-03T17:14:42Z</time></trkpt><trkpt lat="45.79358671320998" lon="9.413217272542417"><ele>210.60000000000002</ele><time>2026-05-03T17:14:43Z</time></trkpt><trkpt lat="45.79368525882644" lon="9.413166679105892"><ele>210.4</ele><time>2026-05-03T17:14:44Z</time></trkpt><trkpt lat="45.79378330380694" lon="9.413118723048614"><ele>210.2</ele><time>2026-05-03T17:14:45Z</time></trkpt><trkpt lat="45.793878874614755" lon="9.41307145077004"><ele>210.0</ele><time>2026-05-03T17:14:46Z</time></trkpt><trkpt lat="45.79397661272083" lon="9.413024116450936"><ele>210.6</ele><time>2026-05-03T17:14:47Z</time></trkpt><trkpt lat="45.79407066202344" lon="9.41297520834005"><ele>211.2</ele><time>2026-05-03T17:14:48Z</time></trkpt><trkpt lat="45.79416010827561" lon="9.412914675075164"><ele>211.8</ele><time>2026-05-03T17:14:49Z</time></trkpt><trkpt lat="45.79425270280506" lon="9.41285265553514"><ele>212.4</ele><time>2026-05-03T17:14:50Z</time></trkpt><trkpt lat="45.794349957703545" lon="9.412801009180702"><ele>213.0</ele><time>2026-05-03T17:14:51Z</time></trkpt><trkpt lat="45.79444317048769" lon="9.412744508576516"><ele>213.2</ele><time>2026-05-03T17:14:52Z</time></trkpt><trkpt lat="45.79454146697489" lon="9.412701143741126"><ele>213.4</ele><time>2026-05-03T17:14:53Z</time></trkpt><trkpt lat="45.794638215853595" lon="9.412664249061555"><ele>213.59999999999997</ele><time>2026-05-03T17:14:54Z</time></trkpt><trkpt lat="45.79473297950858" lon="9.412626867444503"><ele>213.79999999999998</ele><time>2026-05-03T17:14:55Z</time></trkpt><trkpt lat="45.79482803283044" lon="9.412590159199224"><ele>214.0</ele><time>2026-05-03T17:14:56Z</time></trkpt><trkpt lat="45.79490895425256" lon="9.412559714370078"><ele>213.99999999999997</ele><time>2026-05-03T17:14:57Z</time></trkpt><trkpt lat="45.79498489427585" lon="9.41252929663038"><ele>214.0</ele><time>2026-05-03T17:14:58Z</time></trkpt><trkpt lat="45.79505427861572" lon="9.412511438730869"><ele>214.0</ele><time>2026-05-03T17:14:59Z</time></trkpt><trkpt lat="45.79516503243528" lon="9.412587000107155"><ele>214.0</ele><time>2026-05-03T17:15:01Z</time></trkpt><trkpt lat="45.79517185483581" lon="9.41269681555808"><ele>213.99999999999997</ele><time>2026-05-03T17:15:02Z</time></trkpt><trkpt lat="45.79520192395649" lon="9.412798346154826"><ele>214.0</ele><time>2026-05-03T17:15:03Z</time></trkpt><trkpt lat="45.795217241474944" lon="9.412912497222074"><ele>213.83333333333331</ele><time>2026-05-03T17:15:04Z</time></trkpt><trkpt lat="45.79524593569465" lon="9.413022510614214"><ele>213.66666666666666</ele><time>2026-05-03T17:15:05Z</time></trkpt><trkpt lat="45.7952815698749" lon="9.413129776049574"><ele>213.5</ele><time>2026-05-03T17:15:06Z</time></trkpt><trkpt lat="45.79532230688468" lon="9.413231384581094"><ele>213.33333333333331</ele><time>2026-05-03T17:15:07Z</time></trkpt><trkpt lat="45.79535811541292" lon="9.413332563517704"><ele>213.16666666666666</ele><time>2026-05-03T17:15:08Z</time></trkpt><trkpt lat="45.79538627790597" lon="9.413432337959685"><ele>213.0</ele><time>2026-05-03T17:15:09Z</time></trkpt><trkpt lat="45.795414008664665" lon="9.413526753480152"><ele>213.0</ele><time>2026-05-03T17:15:10Z</time></trkpt><trkpt lat="45.79544393268506" lon="9.4136093072064"><ele>213.0</ele><time>2026-05-03T17:15:11Z</time></trkpt><trkpt lat="45.79549105165397" lon="9.413759858259171"><ele>213.0</ele><time>2026-05-03T17:15:13Z</time></trkpt><trkpt lat="45.79550384959138" lon="9.413857072388806"><ele>213.0</ele><time>2026-05-03T17:15:15Z</time></trkpt><trkpt lat="45.79540575046016" lon="9.413866428055721"><ele>213.0</ele><time>2026-05-03T17:15:16Z</time></trkpt><trkpt lat="45.79532584772197" lon="9.413901772719667"><ele>213.0</ele><time>2026-05-03T17:15:18Z</time></trkpt><trkpt lat="45.7952484816701" lon="9.413935654394562"><ele>212.83333333333334</ele><time>2026-05-03T17:15:20Z</time></trkpt><trkpt lat="45.79517509911134" lon="9.41396779153653"><ele>212.66666666666669</ele><time>2026-05-03T17:15:22Z</time></trkpt><trkpt lat="45.795102489126485" lon="9.413999590331468"><ele>212.5</ele><time>2026-05-03T17:15:24Z</time></trkpt><trkpt lat="45.79503068183245" lon="9.414032286509187"><ele>212.33333333333334</ele><time>2026-05-03T17:15:26Z</time></trkpt><trkpt lat="45.79496288148721" lon="9.414068511456476"><ele>212.16666666666669</ele><time>2026-05-03T17:15:28Z</time></trkpt><trkpt lat="45.79489824119639" lon="9.413997274585268"><ele>212.0</ele><time>2026-05-03T17:15:31Z</time></trkpt><trkpt lat="45.79487717791824" lon="9.413865966906227"><ele>212.0</ele><time>2026-05-03T17:15:34Z</time></trkpt><trkpt lat="45.79484838280034" lon="9.413750622764463"><ele>212.0</ele><time>2026-05-03T17:15:37Z</time></trkpt><trkpt lat="45.79465843606863" lon="9.41385468391658"><ele>212.0</ele><time>2026-05-03T17:15:43Z</time></trkpt><trkpt lat="45.79458783532451" lon="9.413815836553027"><ele>212.0</ele><time>2026-05-03T17:15:45Z</time></trkpt><trkpt lat="45.794558689364095" lon="9.413716643285808"><ele>212.0</ele><time>2026-05-03T17:15:47Z</time></trkpt><trkpt lat="45.79453579615809" lon="9.413626943981448"><ele>212.0</ele><time>2026-05-03T17:15:50Z</time></trkpt></trkseg></trk></gpx>